<?xml version='1.0' encoding='UTF-8'?><gpx version="1.1" creator="JPX - https://github.com/jenetics/jpx" xmlns="http://www.topografix.com/GPX/1/1"><trk><trkseg><trkpt lat="43.298008943241975" lon="-0.36476637696076125"><ele>218.5</ele><time>2026-04-29T07:38:39Z</time></trkpt><trkpt lat="43.29806031651713" lon="-0.3646751080479594"><ele>218.0</ele><time>2026-04-29T07:38:41Z</time></trkpt><trkpt lat="43.298117387172475" lon="-0.36458445076609947"><ele>217.5</ele><time>2026-04-29T07:38:43Z</time></trkpt><trkpt lat="43.298171942895294" lon="-0.36452134649552825"><ele>217.0</ele><time>2026-04-29T07:38:45Z</time></trkpt><trkpt lat="43.29824281803478" lon="-0.36444218305054704"><ele>216.5</ele><time>2026-04-29T07:38:48Z</time></trkpt><trkpt lat="43.29829512713797" lon="-0.3643702637529696"><ele>216.0</ele><time>2026-04-29T07:38:50Z</time></trkpt><trkpt lat="43.2983401016618" lon="-0.3643095474614157"><ele>216.0</ele><time>2026-04-29T07:38:53Z</time></trkpt><trkpt lat="43.298392314661896" lon="-0.36422758871618655"><ele>216.00000000000003</ele><time>2026-04-29T07:38:57Z</time></trkpt><trkpt lat="43.29844146213155" lon="-0.3641632669549594"><ele>216.00000000000003</ele><time>2026-04-29T07:38:59Z</time></trkpt><trkpt lat="43.29849725126372" lon="-0.36407177681775466"><ele>216.0</ele><time>2026-04-29T07:39:01Z</time></trkpt><trkpt lat="43.29856182845619" lon="-0.363962800805284"><ele>216.0</ele><time>2026-04-29T07:39:03Z</time></trkpt><trkpt lat="43.29863277513697" lon="-0.3638406841483616"><ele>216.0</ele><time>2026-04-29T07:39:05Z</time></trkpt><trkpt lat="43.29870209476064" lon="-0.36371398617038214"><ele>216.00000000000003</ele><time>2026-04-29T07:39:07Z</time></trkpt><trkpt lat="43.29876411945765" lon="-0.36360901186267675"><ele>216.00000000000003</ele><time>2026-04-29T07:39:09Z</time></trkpt><trkpt lat="43.298827787067914" lon="-0.36351632588154664"><ele>216.0</ele><time>2026-04-29T07:39:11Z</time></trkpt><trkpt lat="43.29888515562947" lon="-0.36341702053267455"><ele>216.0</ele><time>2026-04-29T07:39:13Z</time></trkpt><trkpt lat="43.298924485435805" lon="-0.36334552131239967"><ele>216.0</ele><time>2026-04-29T07:39:15Z</time></trkpt><trkpt lat="43.29898809720427" lon="-0.36327494641901376"><ele>216.0</ele><time>2026-04-29T07:39:40Z</time></trkpt><trkpt lat="43.29903837637481" lon="-0.3631862151220162"><ele>216.0</ele><time>2026-04-29T07:39:43Z</time></trkpt><trkpt lat="43.29907736680711" lon="-0.36310986819635815"><ele>216.0</ele><time>2026-04-29T07:39:47Z</time></trkpt><trkpt lat="43.299157480395984" lon="-0.3631565794476745"><ele>216.0</ele><time>2026-04-29T07:39:50Z</time></trkpt><trkpt lat="43.29921191882741" lon="-0.36320931124926786"><ele>216.0</ele><time>2026-04-29T07:39:53Z</time></trkpt><trkpt lat="43.29924867035447" lon="-0.36328496965266616"><ele>216.0</ele><time>2026-04-29T07:40:08Z</time></trkpt><trkpt lat="43.29931910155169" lon="-0.36329983205441024"><ele>216.0</ele><time>2026-04-29T07:40:10Z</time></trkpt><trkpt lat="43.29939723305007" lon="-0.36321070100573727"><ele>216.0</ele><time>2026-04-29T07:40:12Z</time></trkpt><trkpt lat="43.299440869283046" lon="-0.3631443880013508"><ele>216.0</ele><time>2026-04-29T07:40:13Z</time></trkpt><trkpt lat="43.29946614902568" lon="-0.3630554350632007"><ele>216.0</ele><time>2026-04-29T07:40:14Z</time></trkpt><trkpt lat="43.29951216808401" lon="-0.36299376198747346"><ele>216.0</ele><time>2026-04-29T07:40:15Z</time></trkpt><trkpt lat="43.2996030248942" lon="-0.36287191445306993"><ele>216.0</ele><time>2026-04-29T07:40:17Z</time></trkpt><trkpt lat="43.29968781647127" lon="-0.36276053482201537"><ele>216.00000000000003</ele><time>2026-04-29T07:40:19Z</time></trkpt><trkpt lat="43.29978102656398" lon="-0.3626422677696576"><ele>216.00000000000003</ele><time>2026-04-29T07:40:21Z</time></trkpt><trkpt lat="43.29983347812321" lon="-0.36257682293584714"><ele>216.0</ele><time>2026-04-29T07:40:22Z</time></trkpt><trkpt lat="43.29989677651399" lon="-0.3625237474535508"><ele>216.0</ele><time>2026-04-29T07:40:23Z</time></trkpt><trkpt lat="43.29995988130743" lon="-0.36246550607669964"><ele>216.14285714285714</ele><time>2026-04-29T07:40:24Z</time></trkpt><trkpt lat="43.3000228107057" lon="-0.36241070429615735"><ele>216.28571428571428</ele><time>2026-04-29T07:40:25Z</time></trkpt><trkpt lat="43.30008563091201" lon="-0.3623560077278639"><ele>216.42857142857144</ele><time>2026-04-29T07:40:26Z</time></trkpt><trkpt lat="43.30014673159635" lon="-0.362302807708375"><ele>216.57142857142856</ele><time>2026-04-29T07:40:27Z</time></trkpt><trkpt lat="43.30020580984193" lon="-0.3622475234353716"><ele>216.71428571428572</ele><time>2026-04-29T07:40:28Z</time></trkpt><trkpt lat="43.300262771063075" lon="-0.36219500036785945"><ele>216.85714285714286</ele><time>2026-04-29T07:40:29Z</time></trkpt><trkpt lat="43.300318263638815" lon="-0.36214604157469715"><ele>217.0</ele><time>2026-04-29T07:40:30Z</time></trkpt><trkpt lat="43.300375104267076" lon="-0.36209883442404744"><ele>217.0</ele><time>2026-04-29T07:40:31Z</time></trkpt><trkpt lat="43.30046836398332" lon="-0.36202138053405175"><ele>217.0</ele><time>2026-04-29T07:40:33Z</time></trkpt><trkpt lat="43.30052959907349" lon="-0.36197210431986343"><ele>217.0</ele><time>2026-04-29T07:40:35Z</time></trkpt><trkpt lat="43.30059282902071" lon="-0.36192089963636365"><ele>217.0</ele><time>2026-04-29T07:41:14Z</time></trkpt><trkpt lat="43.30067280974828" lon="-0.36186189975317357"><ele>217.0</ele><time>2026-04-29T07:41:16Z</time></trkpt><trkpt lat="43.300773458371914" lon="-0.36178765339805635"><ele>216.99999999999997</ele><time>2026-04-29T07:41:18Z</time></trkpt><trkpt lat="43.30088440950868" lon="-0.36169014600743477"><ele>217.0</ele><time>2026-04-29T07:41:20Z</time></trkpt><trkpt lat="43.30094303530338" lon="-0.36164500464324756"><ele>217.0</ele><time>2026-04-29T07:41:21Z</time></trkpt><trkpt lat="43.301002522496354" lon="-0.36159027222319007"><ele>217.0</ele><time>2026-04-29T07:41:22Z</time></trkpt><trkpt lat="43.301064603622244" lon="-0.36153343047305847"><ele>216.99999999999997</ele><time>2026-04-29T07:41:23Z</time></trkpt><trkpt lat="43.30112669167425" lon="-0.3614802470701526"><ele>217.0</ele><time>2026-04-29T07:41:24Z</time></trkpt><trkpt lat="43.301195992222695" lon="-0.36144186669351375"><ele>216.99999999999997</ele><time>2026-04-29T07:41:25Z</time></trkpt><trkpt lat="43.30126096561609" lon="-0.36138814639501154"><ele>217.0</ele><time>2026-04-29T07:41:26Z</time></trkpt><trkpt lat="43.3013191920803" lon="-0.361339230668813"><ele>217.0</ele><time>2026-04-29T07:41:27Z</time></trkpt><trkpt lat="43.301418552584224" lon="-0.36124856191450666"><ele>217.0</ele><time>2026-04-29T07:41:29Z</time></trkpt><trkpt lat="43.30147265304082" lon="-0.36119878064178274"><ele>216.99999999999997</ele><time>2026-04-29T07:41:30Z</time></trkpt><trkpt lat="43.30153538330446" lon="-0.3611560096679191"><ele>217.0</ele><time>2026-04-29T07:41:31Z</time></trkpt><trkpt lat="43.30159707780734" lon="-0.3611061904173662"><ele>216.85714285714286</ele><time>2026-04-29T07:41:32Z</time></trkpt><trkpt lat="43.301655190885135" lon="-0.3610505437413698"><ele>216.71428571428572</ele><time>2026-04-29T07:41:33Z</time></trkpt><trkpt lat="43.301719663008875" lon="-0.3610028067834707"><ele>216.57142857142856</ele><time>2026-04-29T07:41:34Z</time></trkpt><trkpt lat="43.30178544905827" lon="-0.3609522564812209"><ele>216.42857142857144</ele><time>2026-04-29T07:41:35Z</time></trkpt><trkpt lat="43.30184754831645" lon="-0.36089991648046155"><ele>216.28571428571428</ele><time>2026-04-29T07:41:36Z</time></trkpt><trkpt lat="43.30191132436321" lon="-0.360846872693785"><ele>216.14285714285714</ele><time>2026-04-29T07:41:37Z</time></trkpt><trkpt lat="43.30197645517241" lon="-0.36079359793677324"><ele>216.0</ele><time>2026-04-29T07:41:38Z</time></trkpt><trkpt lat="43.30204429318127" lon="-0.3607434411545026"><ele>216.0</ele><time>2026-04-29T07:41:39Z</time></trkpt><trkpt lat="43.30210650080396" lon="-0.36069558203852914"><ele>216.00000000000003</ele><time>2026-04-29T07:41:40Z</time></trkpt><trkpt lat="43.30217634269051" lon="-0.3606321247816164"><ele>216.00000000000003</ele><time>2026-04-29T07:41:42Z</time></trkpt><trkpt lat="43.302252265762746" lon="-0.3605572261513176"><ele>216.0</ele><time>2026-04-29T07:42:34Z</time></trkpt><trkpt lat="43.302323266955995" lon="-0.3604916691183533"><ele>216.0</ele><time>2026-04-29T07:42:36Z</time></trkpt><trkpt lat="43.30242184858403" lon="-0.3603994468738187"><ele>216.33333333333334</ele><time>2026-04-29T07:42:38Z</time></trkpt><trkpt lat="43.30245734268765" lon="-0.3602480692384641"><ele>216.66666666666669</ele><time>2026-04-29T07:42:40Z</time></trkpt><trkpt lat="43.30248621403414" lon="-0.3601589750292472"><ele>217.0</ele><time>2026-04-29T07:42:41Z</time></trkpt><trkpt lat="43.30251714901692" lon="-0.3600622599688241"><ele>217.33333333333334</ele><time>2026-04-29T07:42:42Z</time></trkpt><trkpt lat="43.302546077650305" lon="-0.35996893347992337"><ele>217.66666666666669</ele><time>2026-04-29T07:42:43Z</time></trkpt><trkpt lat="43.302576223814846" lon="-0.3598676263238436"><ele>218.0</ele><time>2026-04-29T07:42:44Z</time></trkpt><trkpt lat="43.30260621471628" lon="-0.3597668441685291"><ele>218.00000000000003</ele><time>2026-04-29T07:42:45Z</time></trkpt><trkpt lat="43.30263722002387" lon="-0.35966536140954924"><ele>218.0</ele><time>2026-04-29T07:42:46Z</time></trkpt><trkpt lat="43.30267004954705" lon="-0.3595651371722076"><ele>218.0</ele><time>2026-04-29T07:42:47Z</time></trkpt><trkpt lat="43.30269965534479" lon="-0.3594665678509455"><ele>218.0</ele><time>2026-04-29T07:42:48Z</time></trkpt><trkpt lat="43.30273085328846" lon="-0.3593626976667919"><ele>218.00000000000003</ele><time>2026-04-29T07:42:49Z</time></trkpt><trkpt lat="43.30276346229653" lon="-0.3592541294986661"><ele>218.0</ele><time>2026-04-29T07:42:50Z</time></trkpt><trkpt lat="43.30283968504749" lon="-0.3591777620675547"><ele>218.00000000000003</ele><time>2026-04-29T07:42:51Z</time></trkpt><trkpt lat="43.30286883041203" lon="-0.35907154558432525"><ele>218.0</ele><time>2026-04-29T07:42:52Z</time></trkpt><trkpt lat="43.302899079749075" lon="-0.358964329265642"><ele>218.0</ele><time>2026-04-29T07:42:53Z</time></trkpt><trkpt lat="43.30292738285612" lon="-0.35885371855433307"><ele>218.0</ele><time>2026-04-29T07:42:54Z</time></trkpt><trkpt lat="43.30291715203103" lon="-0.35872514052349164"><ele>218.00000000000003</ele><time>2026-04-29T07:42:55Z</time></trkpt><trkpt lat="43.30295035127235" lon="-0.35861005524041123"><ele>218.0</ele><time>2026-04-29T07:42:56Z</time></trkpt><trkpt lat="43.30298239347896" lon="-0.3584991050296017"><ele>218.00000000000003</ele><time>2026-04-29T07:42:57Z</time></trkpt><trkpt lat="43.30301309133764" lon="-0.3583931365174693"><ele>218.0</ele><time>2026-04-29T07:42:58Z</time></trkpt><trkpt lat="43.30304412317621" lon="-0.35828601500891877"><ele>218.0</ele><time>2026-04-29T07:42:59Z</time></trkpt><trkpt lat="43.30307546473844" lon="-0.3581811799941576"><ele>218.0</ele><time>2026-04-29T07:43:00Z</time></trkpt><trkpt lat="43.30310589369158" lon="-0.3580804849203631"><ele>218.00000000000003</ele><time>2026-04-29T07:43:01Z</time></trkpt><trkpt lat="43.303136282596405" lon="-0.3579799226872927"><ele>218.0</ele><time>2026-04-29T07:43:02Z</time></trkpt><trkpt lat="43.30316531840175" lon="-0.3578838378269053"><ele>218.2</ele><time>2026-04-29T07:43:03Z</time></trkpt><trkpt lat="43.303191070068486" lon="-0.3577986209912339"><ele>218.4</ele><time>2026-04-29T07:43:04Z</time></trkpt><trkpt lat="43.3032358269931" lon="-0.3576467540145092"><ele>218.59999999999997</ele><time>2026-04-29T07:43:06Z</time></trkpt><trkpt lat="43.30327640926618" lon="-0.35750604250483864"><ele>218.79999999999998</ele><time>2026-04-29T07:43:08Z</time></trkpt><trkpt lat="43.303313794275766" lon="-0.35737625176822674"><ele>219.0</ele><time>2026-04-29T07:43:10Z</time></trkpt><trkpt lat="43.30335255888826" lon="-0.3572511341564907"><ele>219.79999999999998</ele><time>2026-04-29T07:43:12Z</time></trkpt><trkpt lat="43.30339725591118" lon="-0.3571281451645956"><ele>220.59999999999997</ele><time>2026-04-29T07:43:14Z</time></trkpt><trkpt lat="43.30344586943647" lon="-0.357005853537648"><ele>221.4</ele><time>2026-04-29T07:43:16Z</time></trkpt><trkpt lat="43.30358379817089" lon="-0.3570272706501623"><ele>222.2</ele><time>2026-04-29T07:43:17Z</time></trkpt><trkpt lat="43.30364596117266" lon="-0.35705009680948574"><ele>223.0</ele><time>2026-04-29T07:43:18Z</time></trkpt><trkpt lat="43.303713024280974" lon="-0.35704628545159245"><ele>222.99999999999997</ele><time>2026-04-29T07:43:19Z</time></trkpt><trkpt lat="43.30378020502831" lon="-0.35704880007226797"><ele>223.0</ele><time>2026-04-29T07:43:20Z</time></trkpt><trkpt lat="43.30385117805053" lon="-0.35705146913397356"><ele>223.0</ele><time>2026-04-29T07:43:21Z</time></trkpt><trkpt lat="43.303924807494305" lon="-0.3570274569665006"><ele>223.0</ele><time>2026-04-29T07:43:22Z</time></trkpt><trkpt lat="43.304004935414845" lon="-0.3570447699496618"><ele>222.99999999999997</ele><time>2026-04-29T07:43:23Z</time></trkpt><trkpt lat="43.304084507842525" lon="-0.3570438029293771"><ele>223.0</ele><time>2026-04-29T07:43:24Z</time></trkpt><trkpt lat="43.30416218767819" lon="-0.3570420859244086"><ele>222.49999999999997</ele><time>2026-04-29T07:43:25Z</time></trkpt><trkpt lat="43.30424454844704" lon="-0.35703281667547077"><ele>222.0</ele><time>2026-04-29T07:43:26Z</time></trkpt><trkpt lat="43.304326369757845" lon="-0.3570286917964037"><ele>221.5</ele><time>2026-04-29T07:43:27Z</time></trkpt><trkpt lat="43.3044103163334" lon="-0.3570255686999448"><ele>221.0</ele><time>2026-04-29T07:43:28Z</time></trkpt><trkpt lat="43.30449422930228" lon="-0.3570255827152715"><ele>220.49999999999997</ele><time>2026-04-29T07:43:29Z</time></trkpt><trkpt lat="43.304580957093584" lon="-0.35702762800493354"><ele>220.0</ele><time>2026-04-29T07:43:30Z</time></trkpt><trkpt lat="43.30466560577507" lon="-0.35702916564934817"><ele>220.16666666666666</ele><time>2026-04-29T07:43:31Z</time></trkpt><trkpt lat="43.30475233846683" lon="-0.35702861477436443"><ele>220.33333333333331</ele><time>2026-04-29T07:43:32Z</time></trkpt><trkpt lat="43.30484139301174" lon="-0.3570268631252863"><ele>220.5</ele><time>2026-04-29T07:43:33Z</time></trkpt><trkpt lat="43.304930082279675" lon="-0.3570179732811896"><ele>220.66666666666669</ele><time>2026-04-29T07:43:34Z</time></trkpt><trkpt lat="43.305012781270754" lon="-0.356971780879701"><ele>220.83333333333334</ele><time>2026-04-29T07:43:35Z</time></trkpt><trkpt lat="43.30510256104846" lon="-0.35693894924641384"><ele>221.0</ele><time>2026-04-29T07:43:36Z</time></trkpt><trkpt lat="43.305192587949264" lon="-0.3569080008917958"><ele>221.0</ele><time>2026-04-29T07:43:37Z</time></trkpt><trkpt lat="43.30528887818922" lon="-0.3568857535020021"><ele>221.00000000000003</ele><time>2026-04-29T07:43:38Z</time></trkpt><trkpt lat="43.305378318610295" lon="-0.35685048301684213"><ele>221.00000000000003</ele><time>2026-04-29T07:43:39Z</time></trkpt><trkpt lat="43.30546741068154" lon="-0.35681070948758997"><ele>221.0</ele><time>2026-04-29T07:43:40Z</time></trkpt><trkpt lat="43.30555728183999" lon="-0.3567791566029089"><ele>221.0</ele><time>2026-04-29T07:43:41Z</time></trkpt><trkpt lat="43.305647192746505" lon="-0.3567576643422935"><ele>222.8</ele><time>2026-04-29T07:43:42Z</time></trkpt><trkpt lat="43.305739512928255" lon="-0.3567257002128247"><ele>224.60000000000002</ele><time>2026-04-29T07:43:43Z</time></trkpt><trkpt lat="43.3058301193785" lon="-0.3567075033629901"><ele>226.4</ele><time>2026-04-29T07:43:44Z</time></trkpt><trkpt lat="43.30592024388921" lon="-0.35669489144962474"><ele>228.2</ele><time>2026-04-29T07:43:45Z</time></trkpt><trkpt lat="43.306008498125074" lon="-0.35668293468954704"><ele>230.0</ele><time>2026-04-29T07:43:46Z</time></trkpt><trkpt lat="43.30609388883086" lon="-0.35667948196106464"><ele>229.99999999999997</ele><time>2026-04-29T07:43:47Z</time></trkpt><trkpt lat="43.30617236693652" lon="-0.35664995866363886"><ele>230.0</ele><time>2026-04-29T07:43:48Z</time></trkpt><trkpt lat="43.306246053219105" lon="-0.35666819835086827"><ele>229.99999999999997</ele><time>2026-04-29T07:43:49Z</time></trkpt><trkpt lat="43.306312573795694" lon="-0.35666504105410907"><ele>229.99999999999997</ele><time>2026-04-29T07:43:50Z</time></trkpt><trkpt lat="43.30637838864112" lon="-0.35666572233309823"><ele>230.0</ele><time>2026-04-29T07:43:51Z</time></trkpt><trkpt lat="43.30644757117068" lon="-0.35664319988787585"><ele>229.99999999999997</ele><time>2026-04-29T07:43:52Z</time></trkpt><trkpt lat="43.30651621516378" lon="-0.3566431998878121"><ele>229.99999999999997</ele><time>2026-04-29T07:43:53Z</time></trkpt><trkpt lat="43.30658702579142" lon="-0.35663839991625795"><ele>228.99999999999997</ele><time>2026-04-29T07:43:54Z</time></trkpt><trkpt lat="43.30665682427424" lon="-0.356632003642446"><ele>228.0</ele><time>2026-04-29T07:43:55Z</time></trkpt><trkpt lat="43.306727747723855" lon="-0.35662341687270965"><ele>227.0</ele><time>2026-04-29T07:43:56Z</time></trkpt><trkpt lat="43.30679858240246" lon="-0.3566118413185295"><ele>226.0</ele><time>2026-04-29T07:43:57Z</time></trkpt><trkpt lat="43.306869005484025" lon="-0.3565942778112487"><ele>225.0</ele><time>2026-04-29T07:43:58Z</time></trkpt><trkpt lat="43.30693903974176" lon="-0.35657773686415917"><ele>224.0</ele><time>2026-04-29T07:43:59Z</time></trkpt><trkpt lat="43.30700870665316" lon="-0.35656267896270527"><ele>223.0</ele><time>2026-04-29T07:44:00Z</time></trkpt><trkpt lat="43.307073304154216" lon="-0.35654833927165025"><ele>222.99999999999997</ele><time>2026-04-29T07:44:01Z</time></trkpt><trkpt lat="43.307186836418715" lon="-0.35652855374207004"><ele>223.0</ele><time>2026-04-29T07:44:03Z</time></trkpt><trkpt lat="43.30726663348528" lon="-0.35652226725986913"><ele>223.0</ele><time>2026-04-29T07:44:05Z</time></trkpt><trkpt lat="43.30733909468141" lon="-0.3565382417017388"><ele>223.0</ele><time>2026-04-29T07:44:10Z</time></trkpt><trkpt lat="43.30741341690994" lon="-0.3565272755743441"><ele>222.99999999999997</ele><time>2026-04-29T07:44:12Z</time></trkpt><trkpt lat="43.307516622618266" lon="-0.3565296795003336"><ele>223.0</ele><time>2026-04-29T07:44:14Z</time></trkpt><trkpt lat="43.307626810613186" lon="-0.35653082637055866"><ele>222.2</ele><time>2026-04-29T07:44:16Z</time></trkpt><trkpt lat="43.307739809309886" lon="-0.35654250824908507"><ele>221.4</ele><time>2026-04-29T07:44:18Z</time></trkpt><trkpt lat="43.30786106846718" lon="-0.3565334523823005"><ele>220.59999999999997</ele><time>2026-04-29T07:44:20Z</time></trkpt><trkpt lat="43.30799369757773" lon="-0.35653799651110435"><ele>219.79999999999998</ele><time>2026-04-29T07:44:22Z</time></trkpt><trkpt lat="43.30807109658173" lon="-0.35656158540668925"><ele>219.0</ele><time>2026-04-29T07:44:23Z</time></trkpt><trkpt lat="43.3081398923803" lon="-0.35656133307361715"><ele>219.0</ele><time>2026-04-29T07:44:24Z</time></trkpt><trkpt lat="43.30820760153915" lon="-0.3565368240973275"><ele>219.0</ele><time>2026-04-29T07:44:25Z</time></trkpt><trkpt lat="43.30826870059955" lon="-0.3564891074210584"><ele>219.0</ele><time>2026-04-29T07:44:26Z</time></trkpt><trkpt lat="43.30830864593158" lon="-0.35642173662435056"><ele>219.0</ele><time>2026-04-29T07:44:27Z</time></trkpt><trkpt lat="43.30833604337524" lon="-0.35633738738870235"><ele>219.0</ele><time>2026-04-29T07:44:28Z</time></trkpt><trkpt lat="43.30835865371067" lon="-0.3562515386807916"><ele>219.0</ele><time>2026-04-29T07:44:29Z</time></trkpt><trkpt lat="43.308380387493955" lon="-0.35616348578813745"><ele>219.0</ele><time>2026-04-29T07:44:30Z</time></trkpt><trkpt lat="43.308403213949056" lon="-0.3560721915082835"><ele>219.16666666666666</ele><time>2026-04-29T07:44:31Z</time></trkpt><trkpt lat="43.308428035867934" lon="-0.3559856305241765"><ele>219.33333333333331</ele><time>2026-04-29T07:44:32Z</time></trkpt><trkpt lat="43.30844959779166" lon="-0.35584121628769144"><ele>219.5</ele><time>2026-04-29T07:44:34Z</time></trkpt><trkpt lat="43.3084895524943" lon="-0.35574407904514777"><ele>219.66666666666666</ele><time>2026-04-29T07:44:36Z</time></trkpt><trkpt lat="43.30861113453523" lon="-0.35575631492636"><ele>219.83333333333331</ele><time>2026-04-29T07:44:38Z</time></trkpt><trkpt lat="43.30868045266771" lon="-0.3557594702208259"><ele>220.0</ele><time>2026-04-29T07:44:39Z</time></trkpt><trkpt lat="43.308746994742414" lon="-0.35574642621024816"><ele>220.0</ele><time>2026-04-29T07:44:40Z</time></trkpt><trkpt lat="43.30887198133842" lon="-0.35574990272008694"><ele>220.0</ele><time>2026-04-29T07:44:42Z</time></trkpt><trkpt lat="43.30893836428787" lon="-0.35574286183301423"><ele>220.0</ele><time>2026-04-29T07:44:43Z</time></trkpt><trkpt lat="43.30906207769084" lon="-0.35572876488266053"><ele>220.0</ele><time>2026-04-29T07:44:45Z</time></trkpt><trkpt lat="43.30916670425621" lon="-0.35574691683588805"><ele>220.0</ele><time>2026-04-29T07:44:47Z</time></trkpt><trkpt lat="43.30919795086068" lon="-0.3558411980750803"><ele>220.0</ele><time>2026-04-29T07:44:48Z</time></trkpt><trkpt lat="43.309258101538916" lon="-0.3559796665799315"><ele>220.0</ele><time>2026-04-29T07:44:50Z</time></trkpt><trkpt lat="43.30933449295524" lon="-0.35612190631487417"><ele>220.0</ele><time>2026-04-29T07:44:52Z</time></trkpt><trkpt lat="43.309373816375945" lon="-0.35620464530324153"><ele>220.0</ele><time>2026-04-29T07:44:53Z</time></trkpt><trkpt lat="43.309414801412444" lon="-0.3562908818735684"><ele>220.0</ele><time>2026-04-29T07:44:54Z</time></trkpt><trkpt lat="43.3094564704033" lon="-0.35638216367411807"><ele>220.0</ele><time>2026-04-29T07:44:55Z</time></trkpt><trkpt lat="43.30950323626765" lon="-0.35649506489249694"><ele>220.0</ele><time>2026-04-29T07:44:56Z</time></trkpt><trkpt lat="43.309557458312995" lon="-0.3565939332899587"><ele>220.0</ele><time>2026-04-29T07:44:57Z</time></trkpt><trkpt lat="43.30966157178124" lon="-0.35666809440807223"><ele>220.0</ele><time>2026-04-29T07:44:59Z</time></trkpt><trkpt lat="43.30972592446824" lon="-0.3565880557982535"><ele>220.0</ele><time>2026-04-29T07:45:00Z</time></trkpt><trkpt lat="43.30982739047568" lon="-0.35657907890920376"><ele>219.5</ele><time>2026-04-29T07:45:01.999Z</time></trkpt><trkpt lat="43.309920075700276" lon="-0.3565865184643468"><ele>219.0</ele><time>2026-04-29T07:45:03.999Z</time></trkpt><trkpt lat="43.31003478629932" lon="-0.35655674045663566"><ele>218.5</ele><time>2026-04-29T07:45:05.999Z</time></trkpt><trkpt lat="43.31016197183696" lon="-0.35654290897981666"><ele>218.0</ele><time>2026-04-29T07:45:07.999Z</time></trkpt><trkpt lat="43.31029770324153" lon="-0.35653621028871396"><ele>218.0</ele><time>2026-04-29T07:45:09.999Z</time></trkpt><trkpt lat="43.310369310602006" lon="-0.35653609163777444"><ele>218.0</ele><time>2026-04-29T07:45:10.999Z</time></trkpt><trkpt lat="43.31044198426936" lon="-0.35652172134212967"><ele>218.0</ele><time>2026-04-29T07:45:11.999Z</time></trkpt><trkpt lat="43.310516673554105" lon="-0.35651250088047215"><ele>218.0</ele><time>2026-04-29T07:45:12.999Z</time></trkpt><trkpt lat="43.310589676733585" lon="-0.3565033017001987"><ele>218.0</ele><time>2026-04-29T07:45:13.999Z</time></trkpt><trkpt lat="43.31066402299798" lon="-0.35650001253710517"><ele>218.0</ele><time>2026-04-29T07:45:14.999Z</time></trkpt><trkpt lat="43.310741398883316" lon="-0.35648663538150865"><ele>218.0</ele><time>2026-04-29T07:45:16Z</time></trkpt><trkpt lat="43.31081528535934" lon="-0.35648458761746066"><ele>218.16666666666669</ele><time>2026-04-29T07:45:17Z</time></trkpt><trkpt lat="43.31088756657316" lon="-0.35646561791087134"><ele>218.33333333333334</ele><time>2026-04-29T07:45:18Z</time></trkpt><trkpt lat="43.31095083072923" lon="-0.35645994672234155"><ele>218.5</ele><time>2026-04-29T07:45:19Z</time></trkpt><trkpt lat="43.31106109029951" lon="-0.3564367377119045"><ele>218.66666666666669</ele><time>2026-04-29T07:45:21Z</time></trkpt><trkpt lat="43.311137046404085" lon="-0.35642497044565674"><ele>218.83333333333334</ele><time>2026-04-29T07:45:23Z</time></trkpt><trkpt lat="43.3112072680452" lon="-0.356433188291923"><ele>219.0</ele><time>2026-04-29T07:46:06Z</time></trkpt><trkpt lat="43.3113023583048" lon="-0.3563981884795688"><ele>218.83333333333334</ele><time>2026-04-29T07:46:08Z</time></trkpt><trkpt lat="43.31143238735053" lon="-0.3563965171583348"><ele>218.66666666666669</ele><time>2026-04-29T07:46:10Z</time></trkpt><trkpt lat="43.31150349954342" lon="-0.35637719527060086"><ele>218.5</ele><time>2026-04-29T07:46:11Z</time></trkpt><trkpt lat="43.31158042381073" lon="-0.35635706450126003"><ele>218.33333333333334</ele><time>2026-04-29T07:46:12Z</time></trkpt><trkpt lat="43.31166111336842" lon="-0.35632987497701546"><ele>218.16666666666669</ele><time>2026-04-29T07:46:13Z</time></trkpt><trkpt lat="43.311742657341604" lon="-0.3562998417666811"><ele>218.0</ele><time>2026-04-29T07:46:14Z</time></trkpt><trkpt lat="43.3118230817371" lon="-0.35627377976000063"><ele>218.0</ele><time>2026-04-29T07:46:15Z</time></trkpt><trkpt lat="43.311902784609416" lon="-0.3562142795088541"><ele>218.0</ele><time>2026-04-29T07:46:16Z</time></trkpt><trkpt lat="43.31199328601274" lon="-0.3561931116973259"><ele>218.0</ele><time>2026-04-29T07:46:17Z</time></trkpt><trkpt lat="43.312076678914444" lon="-0.35615054508917315"><ele>218.0</ele><time>2026-04-29T07:46:18Z</time></trkpt><trkpt lat="43.31216206521309" lon="-0.3561120124266797"><ele>218.0</ele><time>2026-04-29T07:46:19Z</time></trkpt><trkpt lat="43.31224866802973" lon="-0.3560701608759612"><ele>217.60000000000002</ele><time>2026-04-29T07:46:20Z</time></trkpt><trkpt lat="43.31233573883255" lon="-0.3560264164240407"><ele>217.20000000000002</ele><time>2026-04-29T07:46:21Z</time></trkpt><trkpt lat="43.31242427434866" lon="-0.35598638289667833"><ele>216.8</ele><time>2026-04-29T07:46:22Z</time></trkpt><trkpt lat="43.31251350436845" lon="-0.3559362919610573"><ele>216.4</ele><time>2026-04-29T07:46:23Z</time></trkpt><trkpt lat="43.31260293748352" lon="-0.3558948223058848"><ele>216.0</ele><time>2026-04-29T07:46:24Z</time></trkpt><trkpt lat="43.31269097079809" lon="-0.35585394950208676"><ele>216.0</ele><time>2026-04-29T07:46:25Z</time></trkpt><trkpt lat="43.31278015998813" lon="-0.35580845727547544"><ele>216.00000000000003</ele><time>2026-04-29T07:46:26Z</time></trkpt><trkpt lat="43.31286679517817" lon="-0.35577633831353533"><ele>216.00000000000003</ele><time>2026-04-29T07:46:27Z</time></trkpt><trkpt lat="43.31295393911463" lon="-0.3557324331736462"><ele>216.0</ele><time>2026-04-29T07:46:28Z</time></trkpt><trkpt lat="43.313042960233844" lon="-0.35569195063878495"><ele>216.0</ele><time>2026-04-29T07:46:29Z</time></trkpt><trkpt lat="43.313127325433044" lon="-0.3556541965515549"><ele>216.0</ele><time>2026-04-29T07:46:30Z</time></trkpt><trkpt lat="43.313212652247614" lon="-0.3556116876332273"><ele>216.00000000000003</ele><time>2026-04-29T07:46:31Z</time></trkpt><trkpt lat="43.31329986869863" lon="-0.3555685481898687"><ele>216.00000000000003</ele><time>2026-04-29T07:46:32Z</time></trkpt><trkpt lat="43.31338749023081" lon="-0.3555343050973449"><ele>216.0</ele><time>2026-04-29T07:46:33Z</time></trkpt><trkpt lat="43.31347627238199" lon="-0.3554807007003739"><ele>216.0</ele><time>2026-04-29T07:46:34Z</time></trkpt><trkpt lat="43.313568874846034" lon="-0.35542691697280565"><ele>216.0</ele><time>2026-04-29T07:46:35Z</time></trkpt><trkpt lat="43.31365547752054" lon="-0.3553730162032958"><ele>216.00000000000003</ele><time>2026-04-29T07:46:36Z</time></trkpt><trkpt lat="43.31374139555911" lon="-0.35532091385471765"><ele>216.00000000000003</ele><time>2026-04-29T07:46:37Z</time></trkpt><trkpt lat="43.31382794021528" lon="-0.3552630541249738"><ele>216.0</ele><time>2026-04-29T07:46:38Z</time></trkpt><trkpt lat="43.313915951761544" lon="-0.35520121344965544"><ele>216.0</ele><time>2026-04-29T07:46:39Z</time></trkpt><trkpt lat="43.314005926171866" lon="-0.35513640633539706"><ele>215.60000000000002</ele><time>2026-04-29T07:46:40Z</time></trkpt><trkpt lat="43.314092963786884" lon="-0.3550840570209251"><ele>215.20000000000002</ele><time>2026-04-29T07:46:41Z</time></trkpt><trkpt lat="43.314179964867556" lon="-0.3550242567208451"><ele>214.79999999999998</ele><time>2026-04-29T07:46:42Z</time></trkpt><trkpt lat="43.31426268244711" lon="-0.35494663457707776"><ele>214.39999999999998</ele><time>2026-04-29T07:46:43Z</time></trkpt><trkpt lat="43.314349931477324" lon="-0.354874938466497"><ele>214.0</ele><time>2026-04-29T07:46:44Z</time></trkpt><trkpt lat="43.314435585712346" lon="-0.35480326809682183"><ele>214.0</ele><time>2026-04-29T07:46:45Z</time></trkpt><trkpt lat="43.314516425483966" lon="-0.35472571082077714"><ele>213.99999999999997</ele><time>2026-04-29T07:46:46Z</time></trkpt><trkpt lat="43.31459554836285" lon="-0.3546427074135423"><ele>213.99999999999997</ele><time>2026-04-29T07:46:47Z</time></trkpt><trkpt lat="43.314679886670895" lon="-0.35455920380694395"><ele>214.0</ele><time>2026-04-29T07:46:48Z</time></trkpt><trkpt lat="43.31476005857709" lon="-0.35447224722766757"><ele>214.0</ele><time>2026-04-29T07:46:49Z</time></trkpt><trkpt lat="43.314836337177354" lon="-0.3543850093045239"><ele>213.85714285714286</ele><time>2026-04-29T07:46:50Z</time></trkpt><trkpt lat="43.31489692241863" lon="-0.3543117230413598"><ele>213.71428571428572</ele><time>2026-04-29T07:46:51Z</time></trkpt><trkpt lat="43.31494991753404" lon="-0.35423732052089785"><ele>213.57142857142856</ele><time>2026-04-29T07:46:52Z</time></trkpt><trkpt lat="43.315006411378114" lon="-0.35417369239265106"><ele>213.42857142857144</ele><time>2026-04-29T07:46:53Z</time></trkpt><trkpt lat="43.31505947944801" lon="-0.35411630694687773"><ele>213.28571428571428</ele><time>2026-04-29T07:46:54Z</time></trkpt><trkpt lat="43.315115004146485" lon="-0.35405220344274113"><ele>213.14285714285714</ele><time>2026-04-29T07:46:55Z</time></trkpt><trkpt lat="43.315163490256715" lon="-0.35399475294964955"><ele>213.0</ele><time>2026-04-29T07:46:56Z</time></trkpt><trkpt lat="43.31525114246834" lon="-0.3538866043744867"><ele>213.33333333333334</ele><time>2026-04-29T07:46:58Z</time></trkpt><trkpt lat="43.31529878829359" lon="-0.353822830284616"><ele>213.66666666666669</ele><time>2026-04-29T07:46:59Z</time></trkpt><trkpt lat="43.31534900412425" lon="-0.353758426478512"><ele>214.0</ele><time>2026-04-29T07:47:00Z</time></trkpt><trkpt lat="43.31541159559557" lon="-0.35369220309708166"><ele>214.33333333333334</ele><time>2026-04-29T07:47:01Z</time></trkpt><trkpt lat="43.31545881617329" lon="-0.35361329611418013"><ele>214.66666666666669</ele><time>2026-04-29T07:47:02Z</time></trkpt><trkpt lat="43.31552622387446" lon="-0.3535499257657919"><ele>215.0</ele><time>2026-04-29T07:47:03Z</time></trkpt><trkpt lat="43.31560250645317" lon="-0.3535071427502511"><ele>215.33333333333334</ele><time>2026-04-29T07:47:04.001Z</time></trkpt><trkpt lat="43.315670878484504" lon="-0.3534500939341508"><ele>215.66666666666669</ele><time>2026-04-29T07:47:05.001Z</time></trkpt><trkpt lat="43.31574009662564" lon="-0.3533960646986541"><ele>216.0</ele><time>2026-04-29T07:47:06.001Z</time></trkpt><trkpt lat="43.31580977096367" lon="-0.35335028528614215"><ele>216.33333333333331</ele><time>2026-04-29T07:47:07.001Z</time></trkpt><trkpt lat="43.31587335027338" lon="-0.3533139290938835"><ele>216.66666666666666</ele><time>2026-04-29T07:47:08Z</time></trkpt><trkpt lat="43.3159854909958" lon="-0.3532691842756428"><ele>217.0</ele><time>2026-04-29T07:47:10Z</time></trkpt><trkpt lat="43.31604998857521" lon="-0.3532510604360708"><ele>216.99999999999997</ele><time>2026-04-29T07:47:11Z</time></trkpt><trkpt lat="43.31611775546233" lon="-0.3532214602709559"><ele>217.0</ele><time>2026-04-29T07:47:12Z</time></trkpt><trkpt lat="43.31618771992911" lon="-0.3531920878747346"><ele>217.0</ele><time>2026-04-29T07:47:13Z</time></trkpt><trkpt lat="43.31625841832456" lon="-0.35316308086378195"><ele>217.0</ele><time>2026-04-29T07:47:14Z</time></trkpt><trkpt lat="43.31633434357884" lon="-0.35313248800892005"><ele>216.99999999999997</ele><time>2026-04-29T07:47:15Z</time></trkpt><trkpt lat="43.316412195980966" lon="-0.3530985999117879"><ele>217.0</ele><time>2026-04-29T07:47:16Z</time></trkpt><trkpt lat="43.31648774158333" lon="-0.35307249844966254"><ele>216.83333333333331</ele><time>2026-04-29T07:47:17Z</time></trkpt><trkpt lat="43.316557088679104" lon="-0.3530445373271445"><ele>216.66666666666666</ele><time>2026-04-29T07:47:18Z</time></trkpt><trkpt lat="43.31662008387638" lon="-0.35302028401662594"><ele>216.5</ele><time>2026-04-29T07:47:19Z</time></trkpt><trkpt lat="43.31673203116351" lon="-0.352970835793823"><ele>216.33333333333331</ele><time>2026-04-29T07:47:21Z</time></trkpt><trkpt lat="43.316823251342065" lon="-0.35294120363800874"><ele>216.16666666666666</ele><time>2026-04-29T07:47:23Z</time></trkpt><trkpt lat="43.31689223143224" lon="-0.35291184136180326"><ele>216.0</ele><time>2026-04-29T07:47:26Z</time></trkpt><trkpt lat="43.316957117080634" lon="-0.352891552287631"><ele>216.0</ele><time>2026-04-29T07:47:42Z</time></trkpt><trkpt lat="43.31702209412716" lon="-0.3528643889365086"><ele>216.00000000000003</ele><time>2026-04-29T07:47:44Z</time></trkpt><trkpt lat="43.31711352382537" lon="-0.35282810101412054"><ele>216.00000000000003</ele><time>2026-04-29T07:47:46Z</time></trkpt><trkpt lat="43.31720066418166" lon="-0.35275383743716104"><ele>216.0</ele><time>2026-04-29T07:47:48Z</time></trkpt><trkpt lat="43.31729384231162" lon="-0.35267475390014913"><ele>216.0</ele><time>2026-04-29T07:47:50Z</time></trkpt><trkpt lat="43.31730712602607" lon="-0.3525404761934802"><ele>216.0</ele><time>2026-04-29T07:47:51Z</time></trkpt><trkpt lat="43.31734448621677" lon="-0.35246215095394245"><ele>216.0</ele><time>2026-04-29T07:47:52Z</time></trkpt><trkpt lat="43.3173863226086" lon="-0.35238048853888715"><ele>216.0</ele><time>2026-04-29T07:47:53Z</time></trkpt><trkpt lat="43.31743268358767" lon="-0.35229577003910834"><ele>216.0</ele><time>2026-04-29T07:47:54Z</time></trkpt><trkpt lat="43.31747967173901" lon="-0.3522090155370692"><ele>216.0</ele><time>2026-04-29T07:47:55Z</time></trkpt><trkpt lat="43.31751444629981" lon="-0.352110777594808"><ele>216.0</ele><time>2026-04-29T07:47:56Z</time></trkpt><trkpt lat="43.31756436082825" lon="-0.3520225816350134"><ele>216.0</ele><time>2026-04-29T07:47:57Z</time></trkpt><trkpt lat="43.31761210243055" lon="-0.35193822524256524"><ele>216.0</ele><time>2026-04-29T07:47:58Z</time></trkpt><trkpt lat="43.31765869929828" lon="-0.3518558915247681"><ele>216.0</ele><time>2026-04-29T07:47:59Z</time></trkpt><trkpt lat="43.317704116501766" lon="-0.35177513121587506"><ele>216.0</ele><time>2026-04-29T07:48:00Z</time></trkpt><trkpt lat="43.31775013280138" lon="-0.35169315555987185"><ele>216.0</ele><time>2026-04-29T07:48:01Z</time></trkpt><trkpt lat="43.317796533984286" lon="-0.3516095897935645"><ele>216.0</ele><time>2026-04-29T07:48:02Z</time></trkpt><trkpt lat="43.31784335946022" lon="-0.3515255439173889"><ele>216.0</ele><time>2026-04-29T07:48:03Z</time></trkpt><trkpt lat="43.31789169885791" lon="-0.3514395451938375"><ele>216.0</ele><time>2026-04-29T07:48:04Z</time></trkpt><trkpt lat="43.31795110527582" lon="-0.35136331544060173"><ele>216.0</ele><time>2026-04-29T07:48:05Z</time></trkpt><trkpt lat="43.318002291964724" lon="-0.3512685246917364"><ele>216.0</ele><time>2026-04-29T07:48:06Z</time></trkpt><trkpt lat="43.31805488670946" lon="-0.35117157850892705"><ele>216.0</ele><time>2026-04-29T07:48:07Z</time></trkpt><trkpt lat="43.31810836540055" lon="-0.3510754223740676"><ele>216.0</ele><time>2026-04-29T07:48:08Z</time></trkpt><trkpt lat="43.31816477961908" lon="-0.3509783951923133"><ele>216.0</ele><time>2026-04-29T07:48:09Z</time></trkpt><trkpt lat="43.31822048248894" lon="-0.3508845771941953"><ele>216.00000000000003</ele><time>2026-04-29T07:48:10Z</time></trkpt><trkpt lat="43.31827665898165" lon="-0.35078661770883324"><ele>216.00000000000003</ele><time>2026-04-29T07:48:11Z</time></trkpt><trkpt lat="43.31832947105138" lon="-0.3506860575420772"><ele>216.0</ele><time>2026-04-29T07:48:12Z</time></trkpt><trkpt lat="43.31838182403441" lon="-0.35058351954385564"><ele>216.0</ele><time>2026-04-29T07:48:13Z</time></trkpt><trkpt lat="43.318432734980334" lon="-0.35048111729913634"><ele>215.83333333333334</ele><time>2026-04-29T07:48:14Z</time></trkpt><trkpt lat="43.318481360017664" lon="-0.3503833512966692"><ele>215.66666666666669</ele><time>2026-04-29T07:48:15Z</time></trkpt><trkpt lat="43.3185308682212" lon="-0.3502881748089422"><ele>215.5</ele><time>2026-04-29T07:48:16Z</time></trkpt><trkpt lat="43.31858629870253" lon="-0.3501947354407921"><ele>215.33333333333334</ele><time>2026-04-29T07:48:17Z</time></trkpt><trkpt lat="43.31864349591319" lon="-0.3501008035549398"><ele>215.16666666666669</ele><time>2026-04-29T07:48:18Z</time></trkpt><trkpt lat="43.31870488255318" lon="-0.35000809779386105"><ele>215.0</ele><time>2026-04-29T07:48:19Z</time></trkpt><trkpt lat="43.31875943972946" lon="-0.34990780746797046"><ele>215.00000000000003</ele><time>2026-04-29T07:48:20Z</time></trkpt><trkpt lat="43.318811809224506" lon="-0.3498102561014065"><ele>215.0</ele><time>2026-04-29T07:48:21Z</time></trkpt><trkpt lat="43.31885452662392" lon="-0.349707730873886"><ele>215.0</ele><time>2026-04-29T07:48:22Z</time></trkpt><trkpt lat="43.31889652196549" lon="-0.34960509501183173"><ele>215.0</ele><time>2026-04-29T07:48:23Z</time></trkpt><trkpt lat="43.31893784934992" lon="-0.3495050148836559"><ele>215.00000000000003</ele><time>2026-04-29T07:48:24Z</time></trkpt><trkpt lat="43.318985980547595" lon="-0.3494135977076236"><ele>215.0</ele><time>2026-04-29T07:48:25Z</time></trkpt><trkpt lat="43.31903377315149" lon="-0.3493279905992807"><ele>215.16666666666669</ele><time>2026-04-29T07:48:26Z</time></trkpt><trkpt lat="43.31908457823485" lon="-0.34924485160622953"><ele>215.33333333333334</ele><time>2026-04-29T07:48:27Z</time></trkpt><trkpt lat="43.319132102849906" lon="-0.34916592001106084"><ele>215.5</ele><time>2026-04-29T07:48:28Z</time></trkpt><trkpt lat="43.3191761847534" lon="-0.3490935896083437"><ele>215.66666666666669</ele><time>2026-04-29T07:48:29Z</time></trkpt><trkpt lat="43.319214724729896" lon="-0.349022564747482"><ele>215.83333333333334</ele><time>2026-04-29T07:48:30Z</time></trkpt><trkpt lat="43.31927787014995" lon="-0.3489059186245337"><ele>216.0</ele><time>2026-04-29T07:48:32Z</time></trkpt><trkpt lat="43.31933204166777" lon="-0.3488329321439997"><ele>216.0</ele><time>2026-04-29T07:48:35Z</time></trkpt><trkpt lat="43.319385999068544" lon="-0.3487605752991671"><ele>216.0</ele><time>2026-04-29T07:48:40Z</time></trkpt><trkpt lat="43.319460582709546" lon="-0.3486541058115002"><ele>216.0</ele><time>2026-04-29T07:48:42Z</time></trkpt><trkpt lat="43.319506642742525" lon="-0.3485919809406013"><ele>216.0</ele><time>2026-04-29T07:48:43.001Z</time></trkpt><trkpt lat="43.319554571249974" lon="-0.3485306489432941"><ele>216.0</ele><time>2026-04-29T07:48:44.001Z</time></trkpt><trkpt lat="43.319590634667776" lon="-0.3484474546571908"><ele>216.0</ele><time>2026-04-29T07:48:45.001Z</time></trkpt><trkpt lat="43.319665946136304" lon="-0.3484183296558461"><ele>216.0</ele><time>2026-04-29T07:48:46.001Z</time></trkpt><trkpt lat="43.319720631738875" lon="-0.3483718624801629"><ele>216.0</ele><time>2026-04-29T07:48:47.001Z</time></trkpt><trkpt lat="43.31977421461437" lon="-0.34830692357957477"><ele>216.0</ele><time>2026-04-29T07:48:48.001Z</time></trkpt><trkpt lat="43.31983479155697" lon="-0.34826159100464116"><ele>216.0</ele><time>2026-04-29T07:48:49.001Z</time></trkpt><trkpt lat="43.31990122763546" lon="-0.3482326307699407"><ele>216.0</ele><time>2026-04-29T07:48:50.001Z</time></trkpt><trkpt lat="43.319961742209465" lon="-0.34818452744293"><ele>216.0</ele><time>2026-04-29T07:48:51.001Z</time></trkpt><trkpt lat="43.320024966094806" lon="-0.34813864844621706"><ele>216.0</ele><time>2026-04-29T07:48:52.001Z</time></trkpt><trkpt lat="43.32007880671465" lon="-0.3480776889048418"><ele>216.0</ele><time>2026-04-29T07:48:53.001Z</time></trkpt><trkpt lat="43.32013878931122" lon="-0.34803220184631023"><ele>216.00000000000003</ele><time>2026-04-29T07:48:54.001Z</time></trkpt><trkpt lat="43.320245869392004" lon="-0.3479509182889653"><ele>216.00000000000003</ele><time>2026-04-29T07:48:56.001Z</time></trkpt><trkpt lat="43.32033768737136" lon="-0.34788145637280676"><ele>216.0</ele><time>2026-04-29T07:48:58.001Z</time></trkpt><trkpt lat="43.32039331172169" lon="-0.34784023907425105"><ele>216.0</ele><time>2026-04-29T07:49:00.001Z</time></trkpt><trkpt lat="43.320304148846084" lon="-0.34790667050226226"><ele>216.0</ele><time>2026-04-29T07:49:14Z</time></trkpt><trkpt lat="43.32020563275678" lon="-0.34798146796564206"><ele>216.0</ele><time>2026-04-29T07:49:16Z</time></trkpt><trkpt lat="43.320121873460636" lon="-0.3480450611052149"><ele>216.0</ele><time>2026-04-29T07:49:18Z</time></trkpt><trkpt lat="43.32006138067094" lon="-0.3480909037362743"><ele>216.0</ele><time>2026-04-29T07:49:20Z</time></trkpt><trkpt lat="43.32000552587077" lon="-0.34813326051375876"><ele>216.0</ele><time>2026-04-29T07:49:29Z</time></trkpt><trkpt lat="43.31994464921655" lon="-0.3481793793843848"><ele>216.0</ele><time>2026-04-29T07:49:31Z</time></trkpt><trkpt lat="43.319850035044894" lon="-0.34825018357929777"><ele>216.0</ele><time>2026-04-29T07:49:33Z</time></trkpt><trkpt lat="43.31975582825989" lon="-0.34832068326821314"><ele>216.0</ele><time>2026-04-29T07:49:35Z</time></trkpt><trkpt lat="43.319697184615286" lon="-0.34836456945736005"><ele>216.0</ele><time>2026-04-29T07:49:36Z</time></trkpt><trkpt lat="43.31960397188298" lon="-0.34844141932136874"><ele>216.0</ele><time>2026-04-29T07:49:38Z</time></trkpt><trkpt lat="43.31941857988609" lon="-0.34815125895145504"><ele>216.0</ele><time>2026-04-29T07:49:43Z</time></trkpt><trkpt lat="43.31939278667281" lon="-0.34806194250725153"><ele>216.0</ele><time>2026-04-29T07:49:44Z</time></trkpt><trkpt lat="43.319366573047795" lon="-0.3479725469261014"><ele>216.0</ele><time>2026-04-29T07:49:45Z</time></trkpt><trkpt lat="43.31934046980871" lon="-0.3478786366653457"><ele>216.0</ele><time>2026-04-29T07:49:46Z</time></trkpt><trkpt lat="43.31931380279113" lon="-0.3477901921228885"><ele>216.0</ele><time>2026-04-29T07:49:47Z</time></trkpt><trkpt lat="43.319289096857666" lon="-0.3477076866081651"><ele>216.0</ele><time>2026-04-29T07:49:48Z</time></trkpt><trkpt lat="43.319224956688274" lon="-0.3475853675161827"><ele>216.0</ele><time>2026-04-29T07:49:50Z</time></trkpt><trkpt lat="43.31920147908948" lon="-0.347504622686417"><ele>216.0</ele><time>2026-04-29T07:49:52Z</time></trkpt><trkpt lat="43.319166816752535" lon="-0.3473848896871657"><ele>216.0</ele><time>2026-04-29T07:49:55Z</time></trkpt><trkpt lat="43.31914155587769" lon="-0.34729726902649144"><ele>216.0</ele><time>2026-04-29T07:49:57Z</time></trkpt><trkpt lat="43.31911385169262" lon="-0.34720117349043117"><ele>216.0</ele><time>2026-04-29T07:49:59Z</time></trkpt><trkpt lat="43.31907859090655" lon="-0.3470788668932811"><ele>216.0</ele><time>2026-04-29T07:50:02Z</time></trkpt><trkpt lat="43.31905528804206" lon="-0.34699803791653"><ele>216.0</ele><time>2026-04-29T07:50:08Z</time></trkpt><trkpt lat="43.319085806147214" lon="-0.3471038939654634"><ele>216.0</ele><time>2026-04-29T07:59:44Z</time></trkpt><trkpt lat="43.319114908895116" lon="-0.34720484026203113"><ele>216.0</ele><time>2026-04-29T07:59:46Z</time></trkpt><trkpt lat="43.31914637678881" lon="-0.34731399097791893"><ele>216.0</ele><time>2026-04-29T07:59:48Z</time></trkpt><trkpt lat="43.31917940719396" lon="-0.34742856131115757"><ele>216.0</ele><time>2026-04-29T07:59:51Z</time></trkpt><trkpt lat="43.319204630796406" lon="-0.3475153512737871"><ele>216.0</ele><time>2026-04-29T07:59:55Z</time></trkpt><trkpt lat="43.31926711197631" lon="-0.34756660464872985"><ele>216.0</ele><time>2026-04-29T08:00:07Z</time></trkpt><trkpt lat="43.31931176656523" lon="-0.34767007410469386"><ele>216.0</ele><time>2026-04-29T08:00:09Z</time></trkpt><trkpt lat="43.31934254927564" lon="-0.3477912586449661"><ele>216.0</ele><time>2026-04-29T08:00:11Z</time></trkpt><trkpt lat="43.31920165699718" lon="-0.3479777027900838"><ele>216.0</ele><time>2026-04-29T08:00:12Z</time></trkpt><trkpt lat="43.31923355409536" lon="-0.3480891949658989"><ele>216.0</ele><time>2026-04-29T08:00:14Z</time></trkpt><trkpt lat="43.319257466405254" lon="-0.34817214231971916"><ele>216.0</ele><time>2026-04-29T08:00:16Z</time></trkpt><trkpt lat="43.31955985840948" lon="-0.34842830107052103"><ele>216.0</ele><time>2026-04-29T08:00:43Z</time></trkpt><trkpt lat="43.319681287379794" lon="-0.34842394707917074"><ele>216.0</ele><time>2026-04-29T08:00:45Z</time></trkpt><trkpt lat="43.31973996108626" lon="-0.34836726228318865"><ele>216.0</ele><time>2026-04-29T08:00:46Z</time></trkpt><trkpt lat="43.31978680057737" lon="-0.34829750491501077"><ele>216.0</ele><time>2026-04-29T08:00:47Z</time></trkpt><trkpt lat="43.3198548304505" lon="-0.3482649059724641"><ele>216.0</ele><time>2026-04-29T08:00:48Z</time></trkpt><trkpt lat="43.319921535230456" lon="-0.3482135489801628"><ele>216.0</ele><time>2026-04-29T08:00:49Z</time></trkpt><trkpt lat="43.31999082187696" lon="-0.3481624757763779"><ele>216.0</ele><time>2026-04-29T08:00:50Z</time></trkpt><trkpt lat="43.320060752679545" lon="-0.3481095128384567"><ele>216.0</ele><time>2026-04-29T08:00:51Z</time></trkpt><trkpt lat="43.32013330217582" lon="-0.3480558705050478"><ele>216.0</ele><time>2026-04-29T08:00:52Z</time></trkpt><trkpt lat="43.320207408712314" lon="-0.34800199662107556"><ele>216.0</ele><time>2026-04-29T08:00:53Z</time></trkpt><trkpt lat="43.32028186329471" lon="-0.34794430614669825"><ele>216.0</ele><time>2026-04-29T08:00:54Z</time></trkpt><trkpt lat="43.32035901549015" lon="-0.347889555328857"><ele>216.0</ele><time>2026-04-29T08:00:55Z</time></trkpt><trkpt lat="43.320433103234414" lon="-0.3478322312390347"><ele>216.0</ele><time>2026-04-29T08:00:56Z</time></trkpt><trkpt lat="43.32050699294217" lon="-0.34777856717967415"><ele>216.0</ele><time>2026-04-29T08:00:57Z</time></trkpt><trkpt lat="43.32058136424962" lon="-0.3477210426232076"><ele>215.66666666666666</ele><time>2026-04-29T08:00:58Z</time></trkpt><trkpt lat="43.320653034701046" lon="-0.34765816109748654"><ele>215.33333333333331</ele><time>2026-04-29T08:00:59Z</time></trkpt><trkpt lat="43.32072376906974" lon="-0.34759288993275567"><ele>215.0</ele><time>2026-04-29T08:01:00Z</time></trkpt><trkpt lat="43.32079346121133" lon="-0.3475204527209536"><ele>214.66666666666666</ele><time>2026-04-29T08:01:01Z</time></trkpt><trkpt lat="43.32086202193706" lon="-0.3474398220379971"><ele>214.33333333333331</ele><time>2026-04-29T08:01:02Z</time></trkpt><trkpt lat="43.32092504641221" lon="-0.3473499074746051"><ele>214.0</ele><time>2026-04-29T08:01:03Z</time></trkpt><trkpt lat="43.320984967187485" lon="-0.34725568462562484"><ele>214.16666666666666</ele><time>2026-04-29T08:01:04Z</time></trkpt><trkpt lat="43.32103963094107" lon="-0.3471580370953587"><ele>214.33333333333331</ele><time>2026-04-29T08:01:05Z</time></trkpt><trkpt lat="43.32109418437931" lon="-0.34706444196348657"><ele>214.5</ele><time>2026-04-29T08:01:06Z</time></trkpt><trkpt lat="43.32114604007687" lon="-0.34697388927372563"><ele>214.66666666666669</ele><time>2026-04-29T08:01:07Z</time></trkpt><trkpt lat="43.32119882223984" lon="-0.3468971260438487"><ele>214.83333333333334</ele><time>2026-04-29T08:01:08Z</time></trkpt><trkpt lat="43.32125972201713" lon="-0.34684085777296514"><ele>215.0</ele><time>2026-04-29T08:01:09Z</time></trkpt><trkpt lat="43.321331218198786" lon="-0.3468007016482491"><ele>215.0</ele><time>2026-04-29T08:01:10Z</time></trkpt><trkpt lat="43.321397658893545" lon="-0.3467333514011663"><ele>215.0</ele><time>2026-04-29T08:01:11Z</time></trkpt><trkpt lat="43.321472676192805" lon="-0.34669657707257023"><ele>215.0</ele><time>2026-04-29T08:01:12Z</time></trkpt><trkpt lat="43.3215452464586" lon="-0.34666620724129477"><ele>215.0</ele><time>2026-04-29T08:01:13Z</time></trkpt><trkpt lat="43.321610452766976" lon="-0.34664035348062033"><ele>215.0</ele><time>2026-04-29T08:01:14Z</time></trkpt><trkpt lat="43.321674799017075" lon="-0.34663741539509224"><ele>215.0</ele><time>2026-04-29T08:01:15Z</time></trkpt><trkpt lat="43.32172997161358" lon="-0.3465929651564263"><ele>215.0</ele><time>2026-04-29T08:01:16Z</time></trkpt><trkpt lat="43.32179641686486" lon="-0.3465871712439694"><ele>215.0</ele><time>2026-04-29T08:01:17Z</time></trkpt><trkpt lat="43.32185947741554" lon="-0.34655894586959846"><ele>215.0</ele><time>2026-04-29T08:01:18Z</time></trkpt><trkpt lat="43.321922215624525" lon="-0.3465361534594634"><ele>215.0</ele><time>2026-04-29T08:01:19Z</time></trkpt><trkpt lat="43.32198279993663" lon="-0.34651023265647707"><ele>215.0</ele><time>2026-04-29T08:01:20Z</time></trkpt><trkpt lat="43.322102848644846" lon="-0.3464603935023131"><ele>215.0</ele><time>2026-04-29T08:01:22Z</time></trkpt><trkpt lat="43.32216408953039" lon="-0.34643996826425094"><ele>215.0</ele><time>2026-04-29T08:01:23Z</time></trkpt><trkpt lat="43.32222715651778" lon="-0.3464202750491535"><ele>215.0</ele><time>2026-04-29T08:01:24Z</time></trkpt><trkpt lat="43.322292890598646" lon="-0.3463938488090832"><ele>215.16666666666669</ele><time>2026-04-29T08:01:25Z</time></trkpt><trkpt lat="43.322360616720175" lon="-0.3463635719778003"><ele>215.33333333333334</ele><time>2026-04-29T08:01:26Z</time></trkpt><trkpt lat="43.32242873071665" lon="-0.34632907086402603"><ele>215.5</ele><time>2026-04-29T08:01:27Z</time></trkpt><trkpt lat="43.3224990286571" lon="-0.3462941031368694"><ele>215.66666666666669</ele><time>2026-04-29T08:01:28Z</time></trkpt><trkpt lat="43.32256870715028" lon="-0.34626274187131767"><ele>215.83333333333334</ele><time>2026-04-29T08:01:29Z</time></trkpt><trkpt lat="43.322644044821075" lon="-0.34624559481939055"><ele>216.0</ele><time>2026-04-29T08:01:30Z</time></trkpt><trkpt lat="43.322726424359516" lon="-0.3462043507595817"><ele>216.0</ele><time>2026-04-29T08:01:31Z</time></trkpt><trkpt lat="43.322796167059316" lon="-0.34611768222112277"><ele>216.0</ele><time>2026-04-29T08:01:32Z</time></trkpt><trkpt lat="43.32286919810313" lon="-0.34605558089851884"><ele>216.0</ele><time>2026-04-29T08:01:33Z</time></trkpt><trkpt lat="43.322941695162335" lon="-0.345988580168782"><ele>216.0</ele><time>2026-04-29T08:01:34Z</time></trkpt><trkpt lat="43.323014137283934" lon="-0.34592189034799303"><ele>216.0</ele><time>2026-04-29T08:01:35Z</time></trkpt><trkpt lat="43.32308646499158" lon="-0.34584912368528836"><ele>216.0</ele><time>2026-04-29T08:01:36Z</time></trkpt><trkpt lat="43.32315971994014" lon="-0.3457769289297913"><ele>215.83333333333334</ele><time>2026-04-29T08:01:37Z</time></trkpt><trkpt lat="43.32323299495656" lon="-0.34570844141184504"><ele>215.66666666666669</ele><time>2026-04-29T08:01:38Z</time></trkpt><trkpt lat="43.32330743334057" lon="-0.345636360786996"><ele>215.5</ele><time>2026-04-29T08:01:39Z</time></trkpt><trkpt lat="43.32337988040491" lon="-0.3455650285173434"><ele>215.33333333333334</ele><time>2026-04-29T08:01:40Z</time></trkpt><trkpt lat="43.32345086274115" lon="-0.34549343723039017"><ele>215.16666666666669</ele><time>2026-04-29T08:01:41.001Z</time></trkpt><trkpt lat="43.32351772327343" lon="-0.34541952054972197"><ele>215.0</ele><time>2026-04-29T08:01:42.001Z</time></trkpt><trkpt lat="43.32358628248951" lon="-0.3453434909650914"><ele>215.00000000000003</ele><time>2026-04-29T08:01:43.001Z</time></trkpt><trkpt lat="43.32365521608041" lon="-0.3452686866212804"><ele>215.0</ele><time>2026-04-29T08:01:44.001Z</time></trkpt><trkpt lat="43.323723401539965" lon="-0.34519340266733956"><ele>215.0</ele><time>2026-04-29T08:01:45.001Z</time></trkpt><trkpt lat="43.323787091838064" lon="-0.34511979802242765"><ele>215.0</ele><time>2026-04-29T08:01:46.001Z</time></trkpt><trkpt lat="43.323839808763665" lon="-0.34505506551449916"><ele>215.00000000000003</ele><time>2026-04-29T08:01:47.001Z</time></trkpt><trkpt lat="43.32388730340787" lon="-0.3449897166219917"><ele>215.0</ele><time>2026-04-29T08:01:48.001Z</time></trkpt><trkpt lat="43.3239355741784" lon="-0.34492454613625284"><ele>215.0</ele><time>2026-04-29T08:01:49.001Z</time></trkpt><trkpt lat="43.32398956691698" lon="-0.34486601813439266"><ele>215.0</ele><time>2026-04-29T08:01:49.999Z</time></trkpt><trkpt lat="43.324044875681004" lon="-0.34480940736172333"><ele>215.0</ele><time>2026-04-29T08:01:50.999Z</time></trkpt><trkpt lat="43.324100694293534" lon="-0.3447509102595892"><ele>215.0</ele><time>2026-04-29T08:01:51.999Z</time></trkpt><trkpt lat="43.32414862568062" lon="-0.3446748815715005"><ele>215.0</ele><time>2026-04-29T08:01:52.999Z</time></trkpt><trkpt lat="43.324200694187695" lon="-0.34460329639188375"><ele>215.0</ele><time>2026-04-29T08:01:53.999Z</time></trkpt><trkpt lat="43.32425711229347" lon="-0.34453731601376475"><ele>215.0</ele><time>2026-04-29T08:01:54.999Z</time></trkpt><trkpt lat="43.32431560175417" lon="-0.3444715122642591"><ele>215.00000000000003</ele><time>2026-04-29T08:01:55.999Z</time></trkpt><trkpt lat="43.324372494160336" lon="-0.34440082248824333"><ele>215.0</ele><time>2026-04-29T08:01:56.999Z</time></trkpt><trkpt lat="43.32443425727684" lon="-0.34432996780584474"><ele>215.0</ele><time>2026-04-29T08:01:57.999Z</time></trkpt><trkpt lat="43.32449331068861" lon="-0.3442562622956879"><ele>215.0</ele><time>2026-04-29T08:01:58.999Z</time></trkpt><trkpt lat="43.32455356876106" lon="-0.34417676731971786"><ele>215.00000000000003</ele><time>2026-04-29T08:01:59.999Z</time></trkpt><trkpt lat="43.32461585844304" lon="-0.3441025228711245"><ele>215.0</ele><time>2026-04-29T08:02:00.999Z</time></trkpt><trkpt lat="43.32467870392216" lon="-0.3440289885395827"><ele>215.33333333333334</ele><time>2026-04-29T08:02:01.999Z</time></trkpt><trkpt lat="43.32474062788258" lon="-0.3439540984976075"><ele>215.66666666666669</ele><time>2026-04-29T08:02:02.999Z</time></trkpt><trkpt lat="43.324795941675745" lon="-0.3438687450515399"><ele>216.0</ele><time>2026-04-29T08:02:03.999Z</time></trkpt><trkpt lat="43.324857182542665" lon="-0.343787851590428"><ele>216.33333333333331</ele><time>2026-04-29T08:02:04.999Z</time></trkpt><trkpt lat="43.32491890524003" lon="-0.34370493960532733"><ele>216.66666666666666</ele><time>2026-04-29T08:02:05.999Z</time></trkpt><trkpt lat="43.32498467032732" lon="-0.3436280623447819"><ele>217.0</ele><time>2026-04-29T08:02:06.999Z</time></trkpt><trkpt lat="43.325050985632345" lon="-0.3435460704251003"><ele>217.0</ele><time>2026-04-29T08:02:07.999Z</time></trkpt><trkpt lat="43.32511811353609" lon="-0.34346312842079474"><ele>217.0</ele><time>2026-04-29T08:02:08.999Z</time></trkpt><trkpt lat="43.32518959465562" lon="-0.3433828457135789"><ele>217.0</ele><time>2026-04-29T08:02:09.999Z</time></trkpt><trkpt lat="43.325259561579166" lon="-0.3432998956168572"><ele>217.0</ele><time>2026-04-29T08:02:10.999Z</time></trkpt><trkpt lat="43.325327249763475" lon="-0.34321342879579103"><ele>217.0</ele><time>2026-04-29T08:02:11.999Z</time></trkpt><trkpt lat="43.32539720241712" lon="-0.3431294049729589"><ele>217.0</ele><time>2026-04-29T08:02:12.999Z</time></trkpt><trkpt lat="43.32546804904544" lon="-0.3430407936164133"><ele>217.0</ele><time>2026-04-29T08:02:13.999Z</time></trkpt><trkpt lat="43.32553720049017" lon="-0.34295388137279664"><ele>217.0</ele><time>2026-04-29T08:02:15Z</time></trkpt><trkpt lat="43.32560840752245" lon="-0.34286770061583827"><ele>217.0</ele><time>2026-04-29T08:02:16Z</time></trkpt><trkpt lat="43.3256777008845" lon="-0.34277814982480614"><ele>217.0</ele><time>2026-04-29T08:02:17Z</time></trkpt><trkpt lat="43.32575064723845" lon="-0.342693631592196"><ele>217.66666666666666</ele><time>2026-04-29T08:02:18Z</time></trkpt><trkpt lat="43.32582098549301" lon="-0.34260768207633324"><ele>218.33333333333331</ele><time>2026-04-29T08:02:19Z</time></trkpt><trkpt lat="43.32588684448932" lon="-0.3425300514362815"><ele>219.0</ele><time>2026-04-29T08:02:20Z</time></trkpt><trkpt lat="43.325948687866365" lon="-0.34245338527272495"><ele>219.66666666666669</ele><time>2026-04-29T08:02:21Z</time></trkpt><trkpt lat="43.32601132968706" lon="-0.3423790278424207"><ele>220.33333333333334</ele><time>2026-04-29T08:02:22Z</time></trkpt><trkpt lat="43.326067477430236" lon="-0.34231431873828166"><ele>221.0</ele><time>2026-04-29T08:02:23Z</time></trkpt><trkpt lat="43.32611891796697" lon="-0.34224562863769575"><ele>221.16666666666669</ele><time>2026-04-29T08:02:24Z</time></trkpt><trkpt lat="43.32616663359552" lon="-0.34218587144258855"><ele>221.33333333333334</ele><time>2026-04-29T08:02:25Z</time></trkpt><trkpt lat="43.326247723438144" lon="-0.34208486106014635"><ele>221.5</ele><time>2026-04-29T08:02:27Z</time></trkpt><trkpt lat="43.3263123968685" lon="-0.3420133412454922"><ele>221.66666666666669</ele><time>2026-04-29T08:02:29Z</time></trkpt><trkpt lat="43.32635910442988" lon="-0.3419413381605183"><ele>221.83333333333334</ele><time>2026-04-29T08:02:49Z</time></trkpt><trkpt lat="43.326415546977536" lon="-0.34187892306515694"><ele>222.0</ele><time>2026-04-29T08:02:51Z</time></trkpt><trkpt lat="43.32646578126117" lon="-0.34181248564101274"><ele>222.39999999999998</ele><time>2026-04-29T08:02:54Z</time></trkpt><trkpt lat="43.32651348547172" lon="-0.34174318037763074"><ele>222.79999999999998</ele><time>2026-04-29T08:02:58Z</time></trkpt><trkpt lat="43.32664261899762" lon="-0.3419413431770735"><ele>223.2</ele><time>2026-04-29T08:03:01Z</time></trkpt><trkpt lat="43.32666166983607" lon="-0.34202418228944215"><ele>223.6</ele><time>2026-04-29T08:03:02Z</time></trkpt><trkpt lat="43.326685797799385" lon="-0.342113968709693"><ele>224.0</ele><time>2026-04-29T08:03:03Z</time></trkpt><trkpt lat="43.32671426934677" lon="-0.3422115183776752"><ele>224.16666666666669</ele><time>2026-04-29T08:03:04Z</time></trkpt><trkpt lat="43.32674119847009" lon="-0.3423146803340765"><ele>224.33333333333334</ele><time>2026-04-29T08:03:05Z</time></trkpt><trkpt lat="43.32677540013807" lon="-0.34242935255301676"><ele>224.5</ele><time>2026-04-29T08:03:06Z</time></trkpt><trkpt lat="43.3268082756439" lon="-0.3425418228148746"><ele>224.66666666666669</ele><time>2026-04-29T08:03:07Z</time></trkpt><trkpt lat="43.326847373095376" lon="-0.34264696062655886"><ele>224.83333333333334</ele><time>2026-04-29T08:03:08Z</time></trkpt><trkpt lat="43.326885434007856" lon="-0.34276307356824337"><ele>225.0</ele><time>2026-04-29T08:03:09Z</time></trkpt><trkpt lat="43.32692355695497" lon="-0.34287478249582987"><ele>225.0</ele><time>2026-04-29T08:03:10Z</time></trkpt><trkpt lat="43.32695841523093" lon="-0.34298839906606726"><ele>225.0</ele><time>2026-04-29T08:03:11Z</time></trkpt><trkpt lat="43.326990912483225" lon="-0.3431018555948064"><ele>225.0</ele><time>2026-04-29T08:03:12Z</time></trkpt><trkpt lat="43.32702475220435" lon="-0.3432126112543058"><ele>225.0</ele><time>2026-04-29T08:03:13Z</time></trkpt><trkpt lat="43.32705730794742" lon="-0.34331934291363425"><ele>225.0</ele><time>2026-04-29T08:03:14Z</time></trkpt><trkpt lat="43.32708958007238" lon="-0.34343343282419697"><ele>225.0</ele><time>2026-04-29T08:03:15Z</time></trkpt><trkpt lat="43.327132221163666" lon="-0.343528598724492"><ele>224.83333333333334</ele><time>2026-04-29T08:03:16Z</time></trkpt><trkpt lat="43.32715255680371" lon="-0.3436443907608472"><ele>224.66666666666669</ele><time>2026-04-29T08:03:17Z</time></trkpt><trkpt lat="43.32718701364354" lon="-0.3437473401146438"><ele>224.5</ele><time>2026-04-29T08:03:18Z</time></trkpt><trkpt lat="43.32722258253458" lon="-0.3438482365530802"><ele>224.33333333333334</ele><time>2026-04-29T08:03:19Z</time></trkpt><trkpt lat="43.327253292125704" lon="-0.34393443688354985"><ele>224.16666666666669</ele><time>2026-04-29T08:03:20Z</time></trkpt><trkpt lat="43.32728189352259" lon="-0.3440255143016369"><ele>224.0</ele><time>2026-04-29T08:03:21Z</time></trkpt><trkpt lat="43.32732403792498" lon="-0.3441747270873514"><ele>223.83333333333334</ele><time>2026-04-29T08:03:23Z</time></trkpt><trkpt lat="43.327356286705886" lon="-0.3443105065753594"><ele>223.66666666666669</ele><time>2026-04-29T08:03:25Z</time></trkpt><trkpt lat="43.32739036973071" lon="-0.344468673017153"><ele>223.5</ele><time>2026-04-29T08:03:27Z</time></trkpt><trkpt lat="43.32741510604078" lon="-0.3445562433623607"><ele>223.33333333333331</ele><time>2026-04-29T08:03:28Z</time></trkpt><trkpt lat="43.327436466925064" lon="-0.3446529223101655"><ele>223.16666666666666</ele><time>2026-04-29T08:03:29Z</time></trkpt><trkpt lat="43.32745913217902" lon="-0.34475350523414994"><ele>223.0</ele><time>2026-04-29T08:03:30Z</time></trkpt><trkpt lat="43.32748140248263" lon="-0.34485298066675907"><ele>222.83333333333331</ele><time>2026-04-29T08:03:31Z</time></trkpt><trkpt lat="43.32750568383149" lon="-0.34495866014087107"><ele>222.66666666666666</ele><time>2026-04-29T08:03:32Z</time></trkpt><trkpt lat="43.32752788223819" lon="-0.34506228998227784"><ele>222.5</ele><time>2026-04-29T08:03:33Z</time></trkpt><trkpt lat="43.327550788582194" lon="-0.34516384462471483"><ele>222.33333333333331</ele><time>2026-04-29T08:03:34Z</time></trkpt><trkpt lat="43.32757319082517" lon="-0.3452662014536055"><ele>222.16666666666666</ele><time>2026-04-29T08:03:35Z</time></trkpt><trkpt lat="43.32759813887563" lon="-0.3453710879432582"><ele>222.0</ele><time>2026-04-29T08:03:36Z</time></trkpt><trkpt lat="43.32762255328304" lon="-0.34548044593099975"><ele>222.0</ele><time>2026-04-29T08:03:37Z</time></trkpt><trkpt lat="43.3276462131339" lon="-0.3455825181442787"><ele>222.0</ele><time>2026-04-29T08:03:38Z</time></trkpt><trkpt lat="43.32766820722925" lon="-0.34568102363701786"><ele>222.0</ele><time>2026-04-29T08:03:39Z</time></trkpt><trkpt lat="43.32768326577256" lon="-0.3457702751278703"><ele>222.0</ele><time>2026-04-29T08:03:40Z</time></trkpt><trkpt lat="43.32769864685901" lon="-0.34585822796984494"><ele>222.0</ele><time>2026-04-29T08:03:41Z</time></trkpt><trkpt lat="43.32773147963698" lon="-0.34593351109482645"><ele>222.0</ele><time>2026-04-29T08:03:42Z</time></trkpt><trkpt lat="43.32773539792864" lon="-0.346026014775339"><ele>222.0</ele><time>2026-04-29T08:03:43Z</time></trkpt><trkpt lat="43.327754890661524" lon="-0.3461084187440152"><ele>222.0</ele><time>2026-04-29T08:03:44Z</time></trkpt><trkpt lat="43.32777504967595" lon="-0.3461910823685411"><ele>222.0</ele><time>2026-04-29T08:03:45.001Z</time></trkpt><trkpt lat="43.32779938355411" lon="-0.3462856722976745"><ele>222.0</ele><time>2026-04-29T08:03:46.001Z</time></trkpt><trkpt lat="43.327824721689076" lon="-0.34638123370518875"><ele>222.0</ele><time>2026-04-29T08:03:47.001Z</time></trkpt><trkpt lat="43.3278464952075" lon="-0.34648873411750764"><ele>222.0</ele><time>2026-04-29T08:03:48.001Z</time></trkpt><trkpt lat="43.32788380093703" lon="-0.3465878165348342"><ele>222.0</ele><time>2026-04-29T08:03:49.001Z</time></trkpt><trkpt lat="43.32789626621089" lon="-0.34669018822859743"><ele>222.0</ele><time>2026-04-29T08:03:50.001Z</time></trkpt><trkpt lat="43.32792487165397" lon="-0.3468141999549631"><ele>221.83333333333334</ele><time>2026-04-29T08:03:51.001Z</time></trkpt><trkpt lat="43.32794805168005" lon="-0.34692291841032746"><ele>221.66666666666669</ele><time>2026-04-29T08:03:52.001Z</time></trkpt><trkpt lat="43.327978236820634" lon="-0.34704277375308623"><ele>221.5</ele><time>2026-04-29T08:03:53.001Z</time></trkpt><trkpt lat="43.32801800272705" lon="-0.34715833711573674"><ele>221.33333333333334</ele><time>2026-04-29T08:03:54.001Z</time></trkpt><trkpt lat="43.32803262255339" lon="-0.34727234623351144"><ele>221.16666666666669</ele><time>2026-04-29T08:03:55.001Z</time></trkpt><trkpt lat="43.32805736267641" lon="-0.34738673259731284"><ele>221.0</ele><time>2026-04-29T08:03:55.999Z</time></trkpt><trkpt lat="43.32809328340175" lon="-0.34750960163064587"><ele>220.83333333333334</ele><time>2026-04-29T08:03:56.999Z</time></trkpt><trkpt lat="43.32811806004009" lon="-0.3476237619786664"><ele>220.66666666666669</ele><time>2026-04-29T08:03:57.999Z</time></trkpt><trkpt lat="43.32814479832338" lon="-0.34773188334174654"><ele>220.5</ele><time>2026-04-29T08:03:58.999Z</time></trkpt><trkpt lat="43.32817006032371" lon="-0.34783089812291074"><ele>220.33333333333331</ele><time>2026-04-29T08:03:59.999Z</time></trkpt><trkpt lat="43.328194924678876" lon="-0.347926109304118"><ele>220.16666666666666</ele><time>2026-04-29T08:04:00.999Z</time></trkpt><trkpt lat="43.32821265755787" lon="-0.3480143855698694"><ele>220.0</ele><time>2026-04-29T08:04:01.999Z</time></trkpt><trkpt lat="43.32823371256809" lon="-0.34810624831606446"><ele>219.99999999999997</ele><time>2026-04-29T08:04:02.999Z</time></trkpt><trkpt lat="43.32825628673025" lon="-0.34820249739410336"><ele>220.0</ele><time>2026-04-29T08:04:03.999Z</time></trkpt><trkpt lat="43.32827656155926" lon="-0.3482970475154536"><ele>220.0</ele><time>2026-04-29T08:04:04.999Z</time></trkpt><trkpt lat="43.32830932775668" lon="-0.3483982009473502"><ele>220.0</ele><time>2026-04-29T08:04:05.999Z</time></trkpt><trkpt lat="43.328333488845416" lon="-0.34849799721840985"><ele>220.0</ele><time>2026-04-29T08:04:06.999Z</time></trkpt><trkpt lat="43.32836163004342" lon="-0.34858137069594614"><ele>219.99999999999997</ele><time>2026-04-29T08:04:07.999Z</time></trkpt><trkpt lat="43.32840519205231" lon="-0.348648590564856"><ele>220.0</ele><time>2026-04-29T08:04:08.999Z</time></trkpt><trkpt lat="43.32846562979832" lon="-0.34868649088338305"><ele>220.0</ele><time>2026-04-29T08:04:09.999Z</time></trkpt><trkpt lat="43.328586851166676" lon="-0.3487227590941754"><ele>220.0</ele><time>2026-04-29T08:04:12.999Z</time></trkpt><trkpt lat="43.32865654504066" lon="-0.3487381106955104"><ele>220.0</ele><time>2026-04-29T08:04:16Z</time></trkpt><trkpt lat="43.32865470121056" lon="-0.34891088287173133"><ele>220.0</ele><time>2026-04-29T08:04:17Z</time></trkpt><trkpt lat="43.3286522123016" lon="-0.34899998284149664"><ele>220.0</ele><time>2026-04-29T08:04:18Z</time></trkpt><trkpt lat="43.32863529071693" lon="-0.34917111053817407"><ele>219.85714285714283</ele><time>2026-04-29T08:04:20Z</time></trkpt><trkpt lat="43.32862388014747" lon="-0.3492602104755031"><ele>219.71428571428572</ele><time>2026-04-29T08:04:21Z</time></trkpt><trkpt lat="43.328612133728356" lon="-0.3493514115845074"><ele>219.57142857142856</ele><time>2026-04-29T08:04:22Z</time></trkpt><trkpt lat="43.32859429852318" lon="-0.349441613859195"><ele>219.42857142857142</ele><time>2026-04-29T08:04:23Z</time></trkpt><trkpt lat="43.32857460815213" lon="-0.34953466138806977"><ele>219.28571428571428</ele><time>2026-04-29T08:04:24Z</time></trkpt><trkpt lat="43.32855557796004" lon="-0.3496334674429274"><ele>219.14285714285714</ele><time>2026-04-29T08:04:25Z</time></trkpt><trkpt lat="43.32853856584095" lon="-0.34973309937666686"><ele>219.0</ele><time>2026-04-29T08:04:26Z</time></trkpt><trkpt lat="43.32852435439032" lon="-0.34983903330536337"><ele>218.83333333333334</ele><time>2026-04-29T08:04:27Z</time></trkpt><trkpt lat="43.3285295227951" lon="-0.34994632033668394"><ele>218.66666666666669</ele><time>2026-04-29T08:04:28Z</time></trkpt><trkpt lat="43.32853789615367" lon="-0.35005243361248184"><ele>218.5</ele><time>2026-04-29T08:04:29Z</time></trkpt><trkpt lat="43.3285502327615" lon="-0.3501575381024755"><ele>218.33333333333334</ele><time>2026-04-29T08:04:30Z</time></trkpt><trkpt lat="43.328565638392426" lon="-0.35026512954183353"><ele>218.16666666666669</ele><time>2026-04-29T08:04:31Z</time></trkpt><trkpt lat="43.32858139527921" lon="-0.3503718495469854"><ele>218.0</ele><time>2026-04-29T08:04:32Z</time></trkpt><trkpt lat="43.328594739684505" lon="-0.35048116445487276"><ele>218.00000000000003</ele><time>2026-04-29T08:04:33Z</time></trkpt><trkpt lat="43.32860890841025" lon="-0.3505883457696275"><ele>218.0</ele><time>2026-04-29T08:04:34Z</time></trkpt><trkpt lat="43.328624095494284" lon="-0.3506926001188458"><ele>218.0</ele><time>2026-04-29T08:04:35Z</time></trkpt><trkpt lat="43.32864142018506" lon="-0.35079741391282687"><ele>218.0</ele><time>2026-04-29T08:04:36Z</time></trkpt><trkpt lat="43.328662889836046" lon="-0.3509016381278133"><ele>218.00000000000003</ele><time>2026-04-29T08:04:37Z</time></trkpt><trkpt lat="43.328684485781636" lon="-0.35100681060792355"><ele>218.0</ele><time>2026-04-29T08:04:38Z</time></trkpt><trkpt lat="43.3287077440584" lon="-0.35111341163848736"><ele>218.00000000000003</ele><time>2026-04-29T08:04:39Z</time></trkpt><trkpt lat="43.32873725811757" lon="-0.35121826177312554"><ele>218.0</ele><time>2026-04-29T08:04:40Z</time></trkpt><trkpt lat="43.32877074475093" lon="-0.3513214505438402"><ele>218.0</ele><time>2026-04-29T08:04:41Z</time></trkpt><trkpt lat="43.32880305263779" lon="-0.3514235470323183"><ele>218.0</ele><time>2026-04-29T08:04:42Z</time></trkpt><trkpt lat="43.32883554656861" lon="-0.3515250267969681"><ele>218.00000000000003</ele><time>2026-04-29T08:04:43Z</time></trkpt><trkpt lat="43.32886797194577" lon="-0.3516269128556711"><ele>218.0</ele><time>2026-04-29T08:04:44Z</time></trkpt><trkpt lat="43.328898622718704" lon="-0.35172861798824123"><ele>218.00000000000003</ele><time>2026-04-29T08:04:45Z</time></trkpt><trkpt lat="43.32892845600681" lon="-0.35183130571363913"><ele>218.0</ele><time>2026-04-29T08:04:46Z</time></trkpt><trkpt lat="43.3289594924817" lon="-0.3519349703471322"><ele>218.0</ele><time>2026-04-29T08:04:47Z</time></trkpt><trkpt lat="43.328988701086466" lon="-0.3520411352257149"><ele>218.0</ele><time>2026-04-29T08:04:48Z</time></trkpt><trkpt lat="43.32901977637882" lon="-0.3521449576204735"><ele>218.00000000000003</ele><time>2026-04-29T08:04:49Z</time></trkpt><trkpt lat="43.329054945924874" lon="-0.35224771097837965"><ele>218.0</ele><time>2026-04-29T08:04:50Z</time></trkpt><trkpt lat="43.32909181638603" lon="-0.35234694787501836"><ele>218.00000000000003</ele><time>2026-04-29T08:04:51Z</time></trkpt><trkpt lat="43.32912328072804" lon="-0.3524486308654558"><ele>218.0</ele><time>2026-04-29T08:04:52Z</time></trkpt><trkpt lat="43.32915525127862" lon="-0.3525494189737698"><ele>218.0</ele><time>2026-04-29T08:04:53Z</time></trkpt><trkpt lat="43.32918609210279" lon="-0.3526530756833837"><ele>218.0</ele><time>2026-04-29T08:04:54Z</time></trkpt><trkpt lat="43.329217199757046" lon="-0.3527569630870207"><ele>218.00000000000003</ele><time>2026-04-29T08:04:55Z</time></trkpt><trkpt lat="43.32925068311339" lon="-0.35285991562598024"><ele>218.0</ele><time>2026-04-29T08:04:56Z</time></trkpt><trkpt lat="43.32928348359989" lon="-0.3529592337004979"><ele>218.16666666666669</ele><time>2026-04-29T08:04:57Z</time></trkpt><trkpt lat="43.32931555422349" lon="-0.35305884352629024"><ele>218.33333333333334</ele><time>2026-04-29T08:04:58Z</time></trkpt><trkpt lat="43.32934781649509" lon="-0.3531599984725539"><ele>218.5</ele><time>2026-04-29T08:04:59Z</time></trkpt><trkpt lat="43.32938128151579" lon="-0.35326690212830086"><ele>218.66666666666669</ele><time>2026-04-29T08:05:00Z</time></trkpt><trkpt lat="43.32941465996175" lon="-0.353369227998899"><ele>218.83333333333334</ele><time>2026-04-29T08:05:01Z</time></trkpt><trkpt lat="43.32944954385701" lon="-0.35347135267357765"><ele>219.0</ele><time>2026-04-29T08:05:02Z</time></trkpt><trkpt lat="43.32948619178916" lon="-0.35357570210218753"><ele>219.0</ele><time>2026-04-29T08:05:03Z</time></trkpt><trkpt lat="43.32951640877822" lon="-0.35368133049771905"><ele>219.0</ele><time>2026-04-29T08:05:04Z</time></trkpt><trkpt lat="43.32954622157714" lon="-0.35378762620821186"><ele>219.0</ele><time>2026-04-29T08:05:05Z</time></trkpt><trkpt lat="43.32958187551037" lon="-0.35389406090938497"><ele>219.0</ele><time>2026-04-29T08:05:06Z</time></trkpt><trkpt lat="43.329616842145896" lon="-0.3540003451960096"><ele>219.0</ele><time>2026-04-29T08:05:07Z</time></trkpt><trkpt lat="43.32964759731421" lon="-0.35410656801886453"><ele>219.0</ele><time>2026-04-29T08:05:08Z</time></trkpt><trkpt lat="43.329683369866956" lon="-0.35421254615364994"><ele>219.0</ele><time>2026-04-29T08:05:09Z</time></trkpt><trkpt lat="43.3297183800122" lon="-0.35431081953899224"><ele>219.0</ele><time>2026-04-29T08:05:10Z</time></trkpt><trkpt lat="43.329747273019414" lon="-0.35441217903973565"><ele>219.0</ele><time>2026-04-29T08:05:11Z</time></trkpt><trkpt lat="43.329778230288284" lon="-0.35450721453392414"><ele>219.0</ele><time>2026-04-29T08:05:12Z</time></trkpt><trkpt lat="43.329806933094495" lon="-0.3545939254856184"><ele>219.0</ele><time>2026-04-29T08:05:13Z</time></trkpt><trkpt lat="43.32983441254054" lon="-0.3546767776567435"><ele>219.0</ele><time>2026-04-29T08:05:14Z</time></trkpt><trkpt lat="43.32988467229574" lon="-0.3548282519012991"><ele>219.0</ele><time>2026-04-29T08:05:16Z</time></trkpt><trkpt lat="43.329926707834055" lon="-0.3549595798167843"><ele>219.0</ele><time>2026-04-29T08:05:18Z</time></trkpt><trkpt lat="43.32996478913421" lon="-0.3550657294372952"><ele>219.0</ele><time>2026-04-29T08:05:20Z</time></trkpt><trkpt lat="43.330003794695564" lon="-0.35515237476356315"><ele>219.0</ele><time>2026-04-29T08:05:22Z</time></trkpt><trkpt lat="43.33006035524433" lon="-0.3552299129944659"><ele>219.0</ele><time>2026-04-29T08:05:29.001Z</time></trkpt><trkpt lat="43.33012694347419" lon="-0.35528453099231083"><ele>219.0</ele><time>2026-04-29T08:05:31.001Z</time></trkpt><trkpt lat="43.33023252776929" lon="-0.35533469351874275"><ele>219.0</ele><time>2026-04-29T08:05:33.001Z</time></trkpt><trkpt lat="43.33033800301808" lon="-0.35541523022676164"><ele>219.0</ele><time>2026-04-29T08:05:35.001Z</time></trkpt><trkpt lat="43.33036368549655" lon="-0.3555360157073192"><ele>219.0</ele><time>2026-04-29T08:05:36.001Z</time></trkpt><trkpt lat="43.330379096968834" lon="-0.3556344688667705"><ele>219.0</ele><time>2026-04-29T08:05:37.001Z</time></trkpt><trkpt lat="43.330379988489895" lon="-0.35573662129521716"><ele>219.0</ele><time>2026-04-29T08:05:38.001Z</time></trkpt><trkpt lat="43.33036336278068" lon="-0.35583529808080694"><ele>219.0</ele><time>2026-04-29T08:05:39.001Z</time></trkpt><trkpt lat="43.33033931832671" lon="-0.3559361492860596"><ele>218.83333333333334</ele><time>2026-04-29T08:05:40.001Z</time></trkpt><trkpt lat="43.33030417170132" lon="-0.3560263828206371"><ele>218.66666666666669</ele><time>2026-04-29T08:05:41.001Z</time></trkpt><trkpt lat="43.33032625330474" lon="-0.3561587569326796"><ele>218.5</ele><time>2026-04-29T08:05:42.001Z</time></trkpt><trkpt lat="43.33035015915735" lon="-0.3562679741359577"><ele>218.33333333333334</ele><time>2026-04-29T08:05:43.001Z</time></trkpt><trkpt lat="43.33039253813052" lon="-0.35636817370367013"><ele>218.16666666666669</ele><time>2026-04-29T08:05:44.001Z</time></trkpt><trkpt lat="43.33043804897996" lon="-0.3564622965489705"><ele>218.0</ele><time>2026-04-29T08:05:45.001Z</time></trkpt><trkpt lat="43.33048209441009" lon="-0.356563398139459"><ele>218.00000000000003</ele><time>2026-04-29T08:05:46.001Z</time></trkpt><trkpt lat="43.33052552376016" lon="-0.35666592531451685"><ele>218.0</ele><time>2026-04-29T08:05:47.001Z</time></trkpt><trkpt lat="43.330570422742795" lon="-0.3567709722561751"><ele>218.0</ele><time>2026-04-29T08:05:48.001Z</time></trkpt><trkpt lat="43.33061494327303" lon="-0.3568773627487007"><ele>218.0</ele><time>2026-04-29T08:05:49.001Z</time></trkpt><trkpt lat="43.330656700046866" lon="-0.3569860193498271"><ele>218.00000000000003</ele><time>2026-04-29T08:05:50.001Z</time></trkpt><trkpt lat="43.33069978913943" lon="-0.35709250722993996"><ele>218.0</ele><time>2026-04-29T08:05:51.001Z</time></trkpt><trkpt lat="43.33073803328385" lon="-0.3572015629875152"><ele>217.60000000000002</ele><time>2026-04-29T08:05:52.001Z</time></trkpt><trkpt lat="43.330776228522666" lon="-0.35730822521541455"><ele>217.20000000000002</ele><time>2026-04-29T08:05:53.001Z</time></trkpt><trkpt lat="43.33081794394017" lon="-0.35741758434905174"><ele>216.8</ele><time>2026-04-29T08:05:54.001Z</time></trkpt><trkpt lat="43.33085824733386" lon="-0.35753378683215176"><ele>216.4</ele><time>2026-04-29T08:05:55.001Z</time></trkpt><trkpt lat="43.33090219260899" lon="-0.35764731920514176"><ele>216.0</ele><time>2026-04-29T08:05:56.001Z</time></trkpt><trkpt lat="43.330953274607" lon="-0.3577559037667357"><ele>216.0</ele><time>2026-04-29T08:05:57.001Z</time></trkpt><trkpt lat="43.33101716400749" lon="-0.35786064622334335"><ele>216.00000000000003</ele><time>2026-04-29T08:05:58.001Z</time></trkpt><trkpt lat="43.3310905209125" lon="-0.3579538221850799"><ele>216.00000000000003</ele><time>2026-04-29T08:05:59.001Z</time></trkpt><trkpt lat="43.331168177721956" lon="-0.35803964370802915"><ele>216.0</ele><time>2026-04-29T08:06:00.001Z</time></trkpt><trkpt lat="43.33124524989376" lon="-0.35811959051215664"><ele>216.0</ele><time>2026-04-29T08:06:01.001Z</time></trkpt><trkpt lat="43.331325954922434" lon="-0.3581865049260929"><ele>215.60000000000002</ele><time>2026-04-29T08:06:01.999Z</time></trkpt><trkpt lat="43.331410714624695" lon="-0.3582413508509005"><ele>215.20000000000002</ele><time>2026-04-29T08:06:02.999Z</time></trkpt><trkpt lat="43.3314988650066" lon="-0.3582855283533586"><ele>214.79999999999998</ele><time>2026-04-29T08:06:03.999Z</time></trkpt><trkpt lat="43.331589878595786" lon="-0.3583257889465778"><ele>214.39999999999998</ele><time>2026-04-29T08:06:04.999Z</time></trkpt><trkpt lat="43.33168427080025" lon="-0.35835572108856956"><ele>214.0</ele><time>2026-04-29T08:06:06Z</time></trkpt><trkpt lat="43.331776458706926" lon="-0.35837707714039524"><ele>214.0</ele><time>2026-04-29T08:06:07Z</time></trkpt><trkpt lat="43.33187438738527" lon="-0.35838089431378967"><ele>213.99999999999997</ele><time>2026-04-29T08:06:08Z</time></trkpt><trkpt lat="43.33197436162222" lon="-0.35838011504031"><ele>213.99999999999997</ele><time>2026-04-29T08:06:09Z</time></trkpt><trkpt lat="43.33206807722179" lon="-0.3583765609751573"><ele>214.0</ele><time>2026-04-29T08:06:10Z</time></trkpt><trkpt lat="43.332164128484145" lon="-0.3583604730140278"><ele>214.0</ele><time>2026-04-29T08:06:11Z</time></trkpt><trkpt lat="43.33226169863572" lon="-0.3583347193221871"><ele>214.0</ele><time>2026-04-29T08:06:12Z</time></trkpt><trkpt lat="43.33235757781515" lon="-0.35830670500427486"><ele>213.99999999999997</ele><time>2026-04-29T08:06:13Z</time></trkpt><trkpt lat="43.332451873935" lon="-0.3582754932000224"><ele>213.99999999999997</ele><time>2026-04-29T08:06:14Z</time></trkpt><trkpt lat="43.33254751473841" lon="-0.3582427427762063"><ele>214.0</ele><time>2026-04-29T08:06:15Z</time></trkpt><trkpt lat="43.332643116049425" lon="-0.3582129450463285"><ele>214.0</ele><time>2026-04-29T08:06:16Z</time></trkpt><trkpt lat="43.33273890899018" lon="-0.3581849814522406"><ele>214.0</ele><time>2026-04-29T08:06:17Z</time></trkpt><trkpt lat="43.332833852180464" lon="-0.3581572681233235"><ele>213.99999999999997</ele><time>2026-04-29T08:06:18Z</time></trkpt><trkpt lat="43.33292967239163" lon="-0.35812655087757433"><ele>213.99999999999997</ele><time>2026-04-29T08:06:19Z</time></trkpt><trkpt lat="43.33302422937994" lon="-0.35809570133775653"><ele>214.0</ele><time>2026-04-29T08:06:20Z</time></trkpt><trkpt lat="43.333117218218824" lon="-0.3580713133812939"><ele>214.0</ele><time>2026-04-29T08:06:21Z</time></trkpt><trkpt lat="43.33321082543572" lon="-0.3580511569108106"><ele>214.2</ele><time>2026-04-29T08:06:22Z</time></trkpt><trkpt lat="43.33330602682214" lon="-0.3580369185124242"><ele>214.39999999999998</ele><time>2026-04-29T08:06:23Z</time></trkpt><trkpt lat="43.33340216824575" lon="-0.358033981522022"><ele>214.6</ele><time>2026-04-29T08:06:24Z</time></trkpt><trkpt lat="43.333499412183706" lon="-0.3580456017858537"><ele>214.8</ele><time>2026-04-29T08:06:25Z</time></trkpt><trkpt lat="43.33359499171498" lon="-0.35806226835429655"><ele>215.0</ele><time>2026-04-29T08:06:26Z</time></trkpt><trkpt lat="43.33368857400865" lon="-0.35809087541312995"><ele>215.0</ele><time>2026-04-29T08:06:27Z</time></trkpt><trkpt lat="43.3337803453878" lon="-0.3581322439864366"><ele>215.0</ele><time>2026-04-29T08:06:28Z</time></trkpt><trkpt lat="43.33386976377403" lon="-0.3581801963821934"><ele>215.0</ele><time>2026-04-29T08:06:29Z</time></trkpt><trkpt lat="43.333955713274904" lon="-0.3582380751603294"><ele>215.0</ele><time>2026-04-29T08:06:30Z</time></trkpt><trkpt lat="43.33403789109207" lon="-0.35830780193002265"><ele>215.0</ele><time>2026-04-29T08:06:31Z</time></trkpt><trkpt lat="43.33411516553513" lon="-0.3583868866885969"><ele>215.0</ele><time>2026-04-29T08:06:32Z</time></trkpt><trkpt lat="43.33418627417658" lon="-0.3584758548413027"><ele>215.0</ele><time>2026-04-29T08:06:33Z</time></trkpt><trkpt lat="43.33425210647618" lon="-0.3585687630529674"><ele>215.0</ele><time>2026-04-29T08:06:34Z</time></trkpt><trkpt lat="43.33432357111408" lon="-0.3586620353914618"><ele>215.0</ele><time>2026-04-29T08:06:35Z</time></trkpt><trkpt lat="43.33438132615709" lon="-0.35877263353313854"><ele>215.0</ele><time>2026-04-29T08:06:36Z</time></trkpt><trkpt lat="43.33441941332029" lon="-0.3588997540138304"><ele>215.0</ele><time>2026-04-29T08:06:37Z</time></trkpt><trkpt lat="43.334470032960795" lon="-0.3590213104452832"><ele>215.0</ele><time>2026-04-29T08:06:38Z</time></trkpt><trkpt lat="43.334514171363686" lon="-0.35914723162868484"><ele>215.0</ele><time>2026-04-29T08:06:39Z</time></trkpt><trkpt lat="43.33456054733264" lon="-0.3592771013651404"><ele>215.0</ele><time>2026-04-29T08:06:40Z</time></trkpt><trkpt lat="43.33460603713707" lon="-0.3594069578120249"><ele>215.0</ele><time>2026-04-29T08:06:41Z</time></trkpt><trkpt lat="43.33465139100007" lon="-0.35953289499595487"><ele>215.0</ele><time>2026-04-29T08:06:42Z</time></trkpt><trkpt lat="43.33469356632006" lon="-0.3596583771884772"><ele>215.0</ele><time>2026-04-29T08:06:43Z</time></trkpt><trkpt lat="43.33473507687816" lon="-0.35978779872025657"><ele>215.0</ele><time>2026-04-29T08:06:44Z</time></trkpt><trkpt lat="43.33477708844805" lon="-0.3599149102100394"><ele>215.0</ele><time>2026-04-29T08:06:45Z</time></trkpt><trkpt lat="43.334820055372" lon="-0.360040991761498"><ele>215.0</ele><time>2026-04-29T08:06:46Z</time></trkpt><trkpt lat="43.334861850179365" lon="-0.36017027083956743"><ele>215.0</ele><time>2026-04-29T08:06:47Z</time></trkpt><trkpt lat="43.33490081912729" lon="-0.3603003770412984"><ele>215.0</ele><time>2026-04-29T08:06:48Z</time></trkpt><trkpt lat="43.33494149993688" lon="-0.3604310398703955"><ele>215.0</ele><time>2026-04-29T08:06:49Z</time></trkpt><trkpt lat="43.33498150742291" lon="-0.3605601845805723"><ele>215.0</ele><time>2026-04-29T08:06:50Z</time></trkpt><trkpt lat="43.33502521565765" lon="-0.36068945935451335"><ele>215.0</ele><time>2026-04-29T08:06:51Z</time></trkpt><trkpt lat="43.33506839447744" lon="-0.3608208221895762"><ele>215.0</ele><time>2026-04-29T08:06:52Z</time></trkpt><trkpt lat="43.33511021349993" lon="-0.3609510056449999"><ele>215.0</ele><time>2026-04-29T08:06:53Z</time></trkpt><trkpt lat="43.335150740480444" lon="-0.3610806116799807"><ele>215.0</ele><time>2026-04-29T08:06:54Z</time></trkpt><trkpt lat="43.335191080363494" lon="-0.3612095652312064"><ele>215.0</ele><time>2026-04-29T08:06:55Z</time></trkpt><trkpt lat="43.33523202156558" lon="-0.36134079422156384"><ele>215.0</ele><time>2026-04-29T08:06:56Z</time></trkpt><trkpt lat="43.33527386249237" lon="-0.36147127100663223"><ele>215.0</ele><time>2026-04-29T08:06:57Z</time></trkpt><trkpt lat="43.33531373284894" lon="-0.3616038646060882"><ele>215.0</ele><time>2026-04-29T08:06:58Z</time></trkpt><trkpt lat="43.33535634669269" lon="-0.36173429921544514"><ele>215.0</ele><time>2026-04-29T08:06:59Z</time></trkpt><trkpt lat="43.3354005941016" lon="-0.36186622626254306"><ele>215.0</ele><time>2026-04-29T08:07:00Z</time></trkpt><trkpt lat="43.33544260176827" lon="-0.36199591454103774"><ele>215.0</ele><time>2026-04-29T08:07:01Z</time></trkpt><trkpt lat="43.33548589141852" lon="-0.36212859776625295"><ele>214.6</ele><time>2026-04-29T08:07:02Z</time></trkpt><trkpt lat="43.335529175618674" lon="-0.36225838930884174"><ele>214.2</ele><time>2026-04-29T08:07:03Z</time></trkpt><trkpt lat="43.33557174797764" lon="-0.3623903455190431"><ele>213.8</ele><time>2026-04-29T08:07:04Z</time></trkpt><trkpt lat="43.335613921098584" lon="-0.362523495549988"><ele>213.4</ele><time>2026-04-29T08:07:05Z</time></trkpt><trkpt lat="43.33565638655885" lon="-0.3626556164316498"><ele>213.0</ele><time>2026-04-29T08:07:06Z</time></trkpt><trkpt lat="43.33569949681135" lon="-0.3627870821684282"><ele>213.0</ele><time>2026-04-29T08:07:07Z</time></trkpt><trkpt lat="43.335740439302995" lon="-0.3629181722256768"><ele>213.0</ele><time>2026-04-29T08:07:08.001Z</time></trkpt><trkpt lat="43.3357795191773" lon="-0.36305001463491476"><ele>213.0</ele><time>2026-04-29T08:07:09.001Z</time></trkpt><trkpt lat="43.33582531748301" lon="-0.3631818554465462"><ele>213.0</ele><time>2026-04-29T08:07:10.001Z</time></trkpt><trkpt lat="43.33586632464773" lon="-0.3633160742452318"><ele>213.0</ele><time>2026-04-29T08:07:11.001Z</time></trkpt><trkpt lat="43.33591303023105" lon="-0.3634524637648042"><ele>213.4</ele><time>2026-04-29T08:07:12.001Z</time></trkpt><trkpt lat="43.33595893610358" lon="-0.3635868124167472"><ele>213.8</ele><time>2026-04-29T08:07:13.001Z</time></trkpt><trkpt lat="43.33600705078502" lon="-0.3637178616524547"><ele>214.2</ele><time>2026-04-29T08:07:14.001Z</time></trkpt><trkpt lat="43.33605223839064" lon="-0.36384887386423087"><ele>214.6</ele><time>2026-04-29T08:07:15.001Z</time></trkpt><trkpt lat="43.336101610684366" lon="-0.3639799554728246"><ele>215.0</ele><time>2026-04-29T08:07:16.001Z</time></trkpt><trkpt lat="43.33614957237167" lon="-0.3641128132177892"><ele>215.0</ele><time>2026-04-29T08:07:17.001Z</time></trkpt><trkpt lat="43.33619425012957" lon="-0.36424804352551804"><ele>215.0</ele><time>2026-04-29T08:07:18.001Z</time></trkpt><trkpt lat="43.33624163783433" lon="-0.36438272644170466"><ele>215.0</ele><time>2026-04-29T08:07:19.001Z</time></trkpt><trkpt lat="43.33628876089543" lon="-0.36451535878602415"><ele>215.0</ele><time>2026-04-29T08:07:20.001Z</time></trkpt><trkpt lat="43.3363365278948" lon="-0.36465074974653955"><ele>215.0</ele><time>2026-04-29T08:07:21.001Z</time></trkpt><trkpt lat="43.33638207646915" lon="-0.3647850539629232"><ele>214.8</ele><time>2026-04-29T08:07:22.001Z</time></trkpt><trkpt lat="43.33642657117615" lon="-0.3649172229951395"><ele>214.6</ele><time>2026-04-29T08:07:23.001Z</time></trkpt><trkpt lat="43.3364738039677" lon="-0.3650540886502451"><ele>214.39999999999998</ele><time>2026-04-29T08:07:24.001Z</time></trkpt><trkpt lat="43.33651876042791" lon="-0.3651923537864799"><ele>214.2</ele><time>2026-04-29T08:07:25.001Z</time></trkpt><trkpt lat="43.33656533311765" lon="-0.36533069308047694"><ele>214.0</ele><time>2026-04-29T08:07:26.001Z</time></trkpt><trkpt lat="43.33661062360916" lon="-0.36546538040837934"><ele>214.0</ele><time>2026-04-29T08:07:27.001Z</time></trkpt><trkpt lat="43.33665686138597" lon="-0.3655991121199485"><ele>213.99999999999997</ele><time>2026-04-29T08:07:28.001Z</time></trkpt><trkpt lat="43.336702781452914" lon="-0.3657308906813813"><ele>213.99999999999997</ele><time>2026-04-29T08:07:29.001Z</time></trkpt><trkpt lat="43.33674843554568" lon="-0.36586230575819545"><ele>214.0</ele><time>2026-04-29T08:07:30.001Z</time></trkpt><trkpt lat="43.336794629064045" lon="-0.36599284711235464"><ele>214.0</ele><time>2026-04-29T08:07:31.001Z</time></trkpt><trkpt lat="43.33683816473043" lon="-0.3661254124229914"><ele>214.0</ele><time>2026-04-29T08:07:32.001Z</time></trkpt><trkpt lat="43.33688539303347" lon="-0.36625871215382694"><ele>213.99999999999997</ele><time>2026-04-29T08:07:33.001Z</time></trkpt><trkpt lat="43.33693175882331" lon="-0.3663943508541482"><ele>213.99999999999997</ele><time>2026-04-29T08:07:34.001Z</time></trkpt><trkpt lat="43.3369765785457" lon="-0.36652973817261236"><ele>214.0</ele><time>2026-04-29T08:07:35.001Z</time></trkpt><trkpt lat="43.337021525947556" lon="-0.3666654415982269"><ele>214.0</ele><time>2026-04-29T08:07:36.001Z</time></trkpt><trkpt lat="43.337064259407484" lon="-0.36679977989133083"><ele>213.6</ele><time>2026-04-29T08:07:37.001Z</time></trkpt><trkpt lat="43.33710746797993" lon="-0.3669341118598874"><ele>213.2</ele><time>2026-04-29T08:07:38.001Z</time></trkpt><trkpt lat="43.33715169932337" lon="-0.3670707519171206"><ele>212.79999999999998</ele><time>2026-04-29T08:07:39.001Z</time></trkpt><trkpt lat="43.33718968579688" lon="-0.36720467939587553"><ele>212.39999999999998</ele><time>2026-04-29T08:07:40.001Z</time></trkpt><trkpt lat="43.33723161358465" lon="-0.36733748059477356"><ele>212.0</ele><time>2026-04-29T08:07:41.001Z</time></trkpt><trkpt lat="43.33727800280736" lon="-0.36747322207341077"><ele>212.0</ele><time>2026-04-29T08:07:42.001Z</time></trkpt><trkpt lat="43.33732302531467" lon="-0.36760796804058443"><ele>212.0</ele><time>2026-04-29T08:07:43.001Z</time></trkpt><trkpt lat="43.337368420203404" lon="-0.36774187879022335"><ele>212.0</ele><time>2026-04-29T08:07:44.001Z</time></trkpt><trkpt lat="43.33741270150716" lon="-0.3678764339812139"><ele>212.0</ele><time>2026-04-29T08:07:45.001Z</time></trkpt><trkpt lat="43.33745542248877" lon="-0.3680145758535091"><ele>212.0</ele><time>2026-04-29T08:07:46.001Z</time></trkpt><trkpt lat="43.33750726249906" lon="-0.3681540798155061"><ele>211.8</ele><time>2026-04-29T08:07:47.001Z</time></trkpt><trkpt lat="43.337555022691085" lon="-0.3682867510225726"><ele>211.6</ele><time>2026-04-29T08:07:48.001Z</time></trkpt><trkpt lat="43.337594419477554" lon="-0.36843020328389187"><ele>211.4</ele><time>2026-04-29T08:07:49.001Z</time></trkpt><trkpt lat="43.337635999922306" lon="-0.3685646611474558"><ele>211.20000000000002</ele><time>2026-04-29T08:07:50.001Z</time></trkpt><trkpt lat="43.3376826465441" lon="-0.36870143060276755"><ele>211.0</ele><time>2026-04-29T08:07:51.001Z</time></trkpt><trkpt lat="43.3377315957483" lon="-0.368836228911356"><ele>210.8</ele><time>2026-04-29T08:07:52.001Z</time></trkpt><trkpt lat="43.33778075096335" lon="-0.3689691114731263"><ele>210.60000000000002</ele><time>2026-04-29T08:07:53.001Z</time></trkpt><trkpt lat="43.337831030839276" lon="-0.3691020099069743"><ele>210.4</ele><time>2026-04-29T08:07:54.001Z</time></trkpt><trkpt lat="43.33788105835222" lon="-0.3692344945233945"><ele>210.2</ele><time>2026-04-29T08:07:55.001Z</time></trkpt><trkpt lat="43.33793401233342" lon="-0.36936519542172813"><ele>210.0</ele><time>2026-04-29T08:07:56.001Z</time></trkpt><trkpt lat="43.33798389587626" lon="-0.369497237055817"><ele>210.0</ele><time>2026-04-29T08:07:57.001Z</time></trkpt><trkpt lat="43.33803356865364" lon="-0.36963047052315917"><ele>210.0</ele><time>2026-04-29T08:07:58.001Z</time></trkpt><trkpt lat="43.33808308421443" lon="-0.36976316774515977"><ele>210.0</ele><time>2026-04-29T08:07:59.001Z</time></trkpt><trkpt lat="43.33813326094555" lon="-0.3698942371864621"><ele>210.0</ele><time>2026-04-29T08:08:00.001Z</time></trkpt><trkpt lat="43.33818255043704" lon="-0.37002648062306315"><ele>210.0</ele><time>2026-04-29T08:08:01.001Z</time></trkpt><trkpt lat="43.33823019453901" lon="-0.3701569783715023"><ele>210.2</ele><time>2026-04-29T08:08:02.001Z</time></trkpt><trkpt lat="43.33827627801322" lon="-0.37029017276565085"><ele>210.4</ele><time>2026-04-29T08:08:03.001Z</time></trkpt><trkpt lat="43.33832312674896" lon="-0.37041866862662143"><ele>210.60000000000002</ele><time>2026-04-29T08:08:04.001Z</time></trkpt><trkpt lat="43.33836957697778" lon="-0.3705478566112126"><ele>210.8</ele><time>2026-04-29T08:08:05.001Z</time></trkpt><trkpt lat="43.33841429896783" lon="-0.37067812274858397"><ele>211.0</ele><time>2026-04-29T08:08:06.001Z</time></trkpt><trkpt lat="43.33845966393191" lon="-0.3708100154829342"><ele>210.8</ele><time>2026-04-29T08:08:07.001Z</time></trkpt><trkpt lat="43.338502291619754" lon="-0.3709405003915018"><ele>210.60000000000002</ele><time>2026-04-29T08:08:08Z</time></trkpt><trkpt lat="43.33854465974429" lon="-0.37107187632276334"><ele>210.4</ele><time>2026-04-29T08:08:09Z</time></trkpt><trkpt lat="43.338589666635684" lon="-0.37120505303615203"><ele>210.2</ele><time>2026-04-29T08:08:10Z</time></trkpt><trkpt lat="43.33863504131854" lon="-0.371335711329879"><ele>210.0</ele><time>2026-04-29T08:08:11Z</time></trkpt><trkpt lat="43.338682703921634" lon="-0.3714669612420052"><ele>210.0</ele><time>2026-04-29T08:08:12Z</time></trkpt><trkpt lat="43.33872754703103" lon="-0.3715990579886375"><ele>210.0</ele><time>2026-04-29T08:08:13Z</time></trkpt><trkpt lat="43.3387686198101" lon="-0.37173142415383903"><ele>210.0</ele><time>2026-04-29T08:08:14Z</time></trkpt><trkpt lat="43.33881508117226" lon="-0.3718613135803091"><ele>210.0</ele><time>2026-04-29T08:08:15Z</time></trkpt><trkpt lat="43.338858670607635" lon="-0.371991241640509"><ele>210.0</ele><time>2026-04-29T08:08:16Z</time></trkpt><trkpt lat="43.338901154744825" lon="-0.37212421928031564"><ele>210.0</ele><time>2026-04-29T08:08:17Z</time></trkpt><trkpt lat="43.33894417825876" lon="-0.37225317173219585"><ele>210.0</ele><time>2026-04-29T08:08:18Z</time></trkpt><trkpt lat="43.33898720621056" lon="-0.37237974765957915"><ele>210.0</ele><time>2026-04-29T08:08:19Z</time></trkpt><trkpt lat="43.33903063150751" lon="-0.3725084507006791"><ele>210.0</ele><time>2026-04-29T08:08:20Z</time></trkpt><trkpt lat="43.339075043752324" lon="-0.37263722348637707"><ele>210.0</ele><time>2026-04-29T08:08:21Z</time></trkpt><trkpt lat="43.33912100075807" lon="-0.372764486633629"><ele>210.0</ele><time>2026-04-29T08:08:22Z</time></trkpt><trkpt lat="43.33916863048221" lon="-0.3728940571198989"><ele>210.0</ele><time>2026-04-29T08:08:23Z</time></trkpt><trkpt lat="43.33921264385106" lon="-0.37302205761870316"><ele>210.0</ele><time>2026-04-29T08:08:24Z</time></trkpt><trkpt lat="43.33925665067099" lon="-0.3731519548291664"><ele>210.0</ele><time>2026-04-29T08:08:25Z</time></trkpt><trkpt lat="43.33930002018548" lon="-0.3732824830564066"><ele>210.0</ele><time>2026-04-29T08:08:26Z</time></trkpt><trkpt lat="43.33934128457547" lon="-0.3734139835243649"><ele>210.0</ele><time>2026-04-29T08:08:27Z</time></trkpt><trkpt lat="43.33938110027283" lon="-0.3735424769112183"><ele>210.0</ele><time>2026-04-29T08:08:28Z</time></trkpt><trkpt lat="43.33942449560973" lon="-0.3736728888037407"><ele>210.0</ele><time>2026-04-29T08:08:29Z</time></trkpt><trkpt lat="43.33946863371026" lon="-0.3738036373022537"><ele>210.0</ele><time>2026-04-29T08:08:30Z</time></trkpt><trkpt lat="43.33951468481976" lon="-0.3739326894533256"><ele>210.0</ele><time>2026-04-29T08:08:31Z</time></trkpt><trkpt lat="43.33955804434246" lon="-0.3740627781922442"><ele>209.8</ele><time>2026-04-29T08:08:32Z</time></trkpt><trkpt lat="43.33960313165136" lon="-0.3741892077472443"><ele>209.6</ele><time>2026-04-29T08:08:33Z</time></trkpt><trkpt lat="43.33964365688751" lon="-0.37431511476843826"><ele>209.39999999999998</ele><time>2026-04-29T08:08:34Z</time></trkpt><trkpt lat="43.339684625111765" lon="-0.3744419724874797"><ele>209.2</ele><time>2026-04-29T08:08:35Z</time></trkpt><trkpt lat="43.33972680915971" lon="-0.3745683406142649"><ele>209.0</ele><time>2026-04-29T08:08:36Z</time></trkpt><trkpt lat="43.33976696317659" lon="-0.37469061417561955"><ele>208.79999999999998</ele><time>2026-04-29T08:08:37Z</time></trkpt><trkpt lat="43.339807540529684" lon="-0.3748151532986933"><ele>208.6</ele><time>2026-04-29T08:08:38Z</time></trkpt><trkpt lat="43.33983673706464" lon="-0.37493658054535006"><ele>208.4</ele><time>2026-04-29T08:08:39Z</time></trkpt><trkpt lat="43.33989194087252" lon="-0.37508027877038536"><ele>208.2</ele><time>2026-04-29T08:08:40Z</time></trkpt><trkpt lat="43.33993656046675" lon="-0.3752113825558084"><ele>208.0</ele><time>2026-04-29T08:08:41Z</time></trkpt><trkpt lat="43.339976622484414" lon="-0.37533950997668525"><ele>208.0</ele><time>2026-04-29T08:08:42Z</time></trkpt><trkpt lat="43.34001171503955" lon="-0.3754667645351399"><ele>208.0</ele><time>2026-04-29T08:08:43Z</time></trkpt><trkpt lat="43.34004237427939" lon="-0.375596863764104"><ele>208.0</ele><time>2026-04-29T08:08:44Z</time></trkpt><trkpt lat="43.34006032528" lon="-0.37572802729177257"><ele>208.0</ele><time>2026-04-29T08:08:45Z</time></trkpt><trkpt lat="43.340073273372724" lon="-0.3758589169997696"><ele>208.0</ele><time>2026-04-29T08:08:46Z</time></trkpt><trkpt lat="43.34008244076131" lon="-0.37599370850225633"><ele>208.0</ele><time>2026-04-29T08:08:47Z</time></trkpt><trkpt lat="43.34008391423791" lon="-0.3761277906296365"><ele>208.0</ele><time>2026-04-29T08:08:48Z</time></trkpt><trkpt lat="43.34007361793744" lon="-0.3762632388981678"><ele>208.0</ele><time>2026-04-29T08:08:49Z</time></trkpt><trkpt lat="43.340056097077664" lon="-0.3763957617359067"><ele>208.0</ele><time>2026-04-29T08:08:50Z</time></trkpt><trkpt lat="43.34002936920161" lon="-0.3765241039088658"><ele>208.0</ele><time>2026-04-29T08:08:51Z</time></trkpt><trkpt lat="43.33999361266054" lon="-0.3766502466132313"><ele>208.0</ele><time>2026-04-29T08:08:52Z</time></trkpt><trkpt lat="43.339955750130784" lon="-0.3767765316876774"><ele>208.0</ele><time>2026-04-29T08:08:53Z</time></trkpt><trkpt lat="43.33991555203559" lon="-0.37690119448504783"><ele>208.0</ele><time>2026-04-29T08:08:54.001Z</time></trkpt><trkpt lat="43.33987123797462" lon="-0.37702218959330264"><ele>208.0</ele><time>2026-04-29T08:08:55.001Z</time></trkpt><trkpt lat="43.339823708949176" lon="-0.37713947223390387"><ele>208.0</ele><time>2026-04-29T08:08:56.001Z</time></trkpt><trkpt lat="43.33977356287091" lon="-0.37725526012531313"><ele>208.0</ele><time>2026-04-29T08:08:57.001Z</time></trkpt><trkpt lat="43.339718979582784" lon="-0.3773679978482947"><ele>208.0</ele><time>2026-04-29T08:08:58.001Z</time></trkpt><trkpt lat="43.33966369104863" lon="-0.3774822160884298"><ele>208.0</ele><time>2026-04-29T08:08:59.001Z</time></trkpt><trkpt lat="43.33960692200754" lon="-0.3775940888499625"><ele>208.0</ele><time>2026-04-29T08:09:00.001Z</time></trkpt><trkpt lat="43.33954655225085" lon="-0.3777039973232897"><ele>208.0</ele><time>2026-04-29T08:09:01.001Z</time></trkpt><trkpt lat="43.339486107193046" lon="-0.37780844132854857"><ele>208.0</ele><time>2026-04-29T08:09:02.001Z</time></trkpt><trkpt lat="43.339423889705" lon="-0.37791282405070764"><ele>208.0</ele><time>2026-04-29T08:09:03.001Z</time></trkpt><trkpt lat="43.33936202483291" lon="-0.37801342711807845"><ele>208.0</ele><time>2026-04-29T08:09:04.001Z</time></trkpt><trkpt lat="43.33929771071592" lon="-0.3781079260182753"><ele>208.0</ele><time>2026-04-29T08:09:05.001Z</time></trkpt><trkpt lat="43.33922976570781" lon="-0.3781949447827182"><ele>208.0</ele><time>2026-04-29T08:09:06.001Z</time></trkpt><trkpt lat="43.33916367179616" lon="-0.3782805553181743"><ele>208.0</ele><time>2026-04-29T08:09:07.001Z</time></trkpt><trkpt lat="43.339097545211516" lon="-0.37836479998932515"><ele>208.0</ele><time>2026-04-29T08:09:08.001Z</time></trkpt><trkpt lat="43.33903011315987" lon="-0.3784473019432787"><ele>208.0</ele><time>2026-04-29T08:09:09.001Z</time></trkpt><trkpt lat="43.33896020749875" lon="-0.37852627556142093"><ele>208.0</ele><time>2026-04-29T08:09:10.001Z</time></trkpt><trkpt lat="43.338887573202896" lon="-0.37859847271746805"><ele>208.0</ele><time>2026-04-29T08:09:11.001Z</time></trkpt><trkpt lat="43.338814094369745" lon="-0.3786729523460073"><ele>207.83333333333331</ele><time>2026-04-29T08:09:12.001Z</time></trkpt><trkpt lat="43.33874442114469" lon="-0.37873879384027265"><ele>207.66666666666666</ele><time>2026-04-29T08:09:13.001Z</time></trkpt><trkpt lat="43.338678092630836" lon="-0.37880444851129413"><ele>207.5</ele><time>2026-04-29T08:09:14.001Z</time></trkpt><trkpt lat="43.33861941643818" lon="-0.3788695312261593"><ele>207.33333333333331</ele><time>2026-04-29T08:09:15.001Z</time></trkpt><trkpt lat="43.338567043884275" lon="-0.3789371874041616"><ele>207.16666666666666</ele><time>2026-04-29T08:09:16.001Z</time></trkpt><trkpt lat="43.338521292954766" lon="-0.3790042410077243"><ele>207.0</ele><time>2026-04-29T08:09:17.001Z</time></trkpt><trkpt lat="43.33848262368127" lon="-0.3791292881747199"><ele>207.39999999999998</ele><time>2026-04-29T08:09:19.001Z</time></trkpt><trkpt lat="43.33849113042038" lon="-0.37922044776512337"><ele>207.79999999999998</ele><time>2026-04-29T08:09:21.001Z</time></trkpt><trkpt lat="43.338505706315686" lon="-0.3793252693694184"><ele>208.2</ele><time>2026-04-29T08:09:26.001Z</time></trkpt><trkpt lat="43.33858517558704" lon="-0.37942915033997543"><ele>208.6</ele><time>2026-04-29T08:09:28.001Z</time></trkpt><trkpt lat="43.33865191164497" lon="-0.3795464962522142"><ele>209.0</ele><time>2026-04-29T08:09:30.001Z</time></trkpt><trkpt lat="43.33870377321028" lon="-0.3797077821324558"><ele>209.0</ele><time>2026-04-29T08:09:32.001Z</time></trkpt><trkpt lat="43.33874304117158" lon="-0.3797810497165499"><ele>209.0</ele><time>2026-04-29T08:09:33.001Z</time></trkpt><trkpt lat="43.33869408576013" lon="-0.37990156636893857"><ele>209.0</ele><time>2026-04-29T08:09:34.001Z</time></trkpt><trkpt lat="43.33866505220498" lon="-0.3799831930936911"><ele>209.0</ele><time>2026-04-29T08:09:35.001Z</time></trkpt><trkpt lat="43.338633849825236" lon="-0.38006311556134886"><ele>209.0</ele><time>2026-04-29T08:09:36.001Z</time></trkpt><trkpt lat="43.33859992017298" lon="-0.3801503579204916"><ele>209.0</ele><time>2026-04-29T08:09:37.001Z</time></trkpt><trkpt lat="43.33855983531509" lon="-0.38023899136251993"><ele>209.0</ele><time>2026-04-29T08:09:38.001Z</time></trkpt><trkpt lat="43.33854428991202" lon="-0.38034716107975214"><ele>209.00000000000003</ele><time>2026-04-29T08:09:39.001Z</time></trkpt><trkpt lat="43.338542861848005" lon="-0.3804585100271128"><ele>209.0</ele><time>2026-04-29T08:09:40.001Z</time></trkpt><trkpt lat="43.33854719285128" lon="-0.3805776645450899"><ele>209.0</ele><time>2026-04-29T08:09:41.001Z</time></trkpt><trkpt lat="43.338559891866936" lon="-0.3806989960599096"><ele>209.0</ele><time>2026-04-29T08:09:42.001Z</time></trkpt><trkpt lat="43.33857094612993" lon="-0.3808169007282454"><ele>209.00000000000003</ele><time>2026-04-29T08:09:43.001Z</time></trkpt><trkpt lat="43.33858607261017" lon="-0.3809389471713667"><ele>209.0</ele><time>2026-04-29T08:09:44.001Z</time></trkpt><trkpt lat="43.338600668778824" lon="-0.3810635243745444"><ele>208.6</ele><time>2026-04-29T08:09:45.001Z</time></trkpt><trkpt lat="43.338618122358" lon="-0.38118970838376515"><ele>208.2</ele><time>2026-04-29T08:09:46.001Z</time></trkpt><trkpt lat="43.33863920032241" lon="-0.38131483788821213"><ele>207.79999999999998</ele><time>2026-04-29T08:09:47.001Z</time></trkpt><trkpt lat="43.33865980690627" lon="-0.38144525591341116"><ele>207.39999999999998</ele><time>2026-04-29T08:09:48.001Z</time></trkpt><trkpt lat="43.338684289248256" lon="-0.38157505016919074"><ele>207.0</ele><time>2026-04-29T08:09:49.001Z</time></trkpt><trkpt lat="43.33871148987086" lon="-0.3817025904814695"><ele>207.0</ele><time>2026-04-29T08:09:50.001Z</time></trkpt><trkpt lat="43.338740371435364" lon="-0.38183609064757834"><ele>207.0</ele><time>2026-04-29T08:09:51.001Z</time></trkpt><trkpt lat="43.33877327824621" lon="-0.3819675121712624"><ele>207.0</ele><time>2026-04-29T08:09:52.001Z</time></trkpt><trkpt lat="43.338811800343976" lon="-0.38209559406207905"><ele>207.0</ele><time>2026-04-29T08:09:53.001Z</time></trkpt><trkpt lat="43.338852867184436" lon="-0.38221981456794807"><ele>207.0</ele><time>2026-04-29T08:09:54.001Z</time></trkpt><trkpt lat="43.33889596357908" lon="-0.38234373372533126"><ele>207.39999999999998</ele><time>2026-04-29T08:09:55.001Z</time></trkpt><trkpt lat="43.33893971358135" lon="-0.38246836473100926"><ele>207.79999999999998</ele><time>2026-04-29T08:09:56.001Z</time></trkpt><trkpt lat="43.33898589255853" lon="-0.3825935380735666"><ele>208.2</ele><time>2026-04-29T08:09:57.001Z</time></trkpt><trkpt lat="43.33903853769905" lon="-0.3827185431400758"><ele>208.6</ele><time>2026-04-29T08:09:58.001Z</time></trkpt><trkpt lat="43.33908369463423" lon="-0.38283857169241053"><ele>209.0</ele><time>2026-04-29T08:09:59.001Z</time></trkpt><trkpt lat="43.33913070257744" lon="-0.38296069269272337"><ele>208.39999999999998</ele><time>2026-04-29T08:10:00.001Z</time></trkpt><trkpt lat="43.339177123602454" lon="-0.3830864928049109"><ele>207.8</ele><time>2026-04-29T08:10:01.001Z</time></trkpt><trkpt lat="43.33922691944339" lon="-0.38321044133581766"><ele>207.2</ele><time>2026-04-29T08:10:02.001Z</time></trkpt><trkpt lat="43.339278521417825" lon="-0.3833351172538712"><ele>206.60000000000002</ele><time>2026-04-29T08:10:03.001Z</time></trkpt><trkpt lat="43.33932887755605" lon="-0.3834572791663032"><ele>206.0</ele><time>2026-04-29T08:10:04.001Z</time></trkpt><trkpt lat="43.339380312834145" lon="-0.3835805011608207"><ele>206.0</ele><time>2026-04-29T08:10:05.001Z</time></trkpt><trkpt lat="43.3394264279601" lon="-0.38370565880620305"><ele>206.0</ele><time>2026-04-29T08:10:06.001Z</time></trkpt><trkpt lat="43.3394739014994" lon="-0.38383287232268437"><ele>206.0</ele><time>2026-04-29T08:10:07.001Z</time></trkpt><trkpt lat="43.339521002186544" lon="-0.38395844661505696"><ele>206.0</ele><time>2026-04-29T08:10:08.001Z</time></trkpt><trkpt lat="43.339567430241694" lon="-0.384079555196799"><ele>206.0</ele><time>2026-04-29T08:10:09.001Z</time></trkpt><trkpt lat="43.33961167188712" lon="-0.3842001762585289"><ele>205.83333333333334</ele><time>2026-04-29T08:10:10.001Z</time></trkpt><trkpt lat="43.33965805382516" lon="-0.38431829897953274"><ele>205.66666666666669</ele><time>2026-04-29T08:10:11.001Z</time></trkpt><trkpt lat="43.33970383130669" lon="-0.3844288480038667"><ele>205.5</ele><time>2026-04-29T08:10:12.001Z</time></trkpt><trkpt lat="43.3397486105126" lon="-0.38453269498043713"><ele>205.33333333333331</ele><time>2026-04-29T08:10:13.001Z</time></trkpt><trkpt lat="43.33979257048406" lon="-0.38463159154100834"><ele>205.16666666666666</ele><time>2026-04-29T08:10:14Z</time></trkpt><trkpt lat="43.3398395949052" lon="-0.38472171924524995"><ele>205.0</ele><time>2026-04-29T08:10:15Z</time></trkpt><trkpt lat="43.339901029278415" lon="-0.38479254741193897"><ele>204.99999999999997</ele><time>2026-04-29T08:10:16Z</time></trkpt><trkpt lat="43.339977402939944" lon="-0.38484199996592733"><ele>205.0</ele><time>2026-04-29T08:10:17Z</time></trkpt><trkpt lat="43.340050830804145" lon="-0.3848932451301227"><ele>205.0</ele><time>2026-04-29T08:10:18Z</time></trkpt><trkpt lat="43.34012637666538" lon="-0.3849491010689682"><ele>205.0</ele><time>2026-04-29T08:10:19Z</time></trkpt><trkpt lat="43.340191706193835" lon="-0.38500646991013415"><ele>204.99999999999997</ele><time>2026-04-29T08:10:20Z</time></trkpt><trkpt lat="43.34024510997888" lon="-0.38509649687989117"><ele>205.0</ele><time>2026-04-29T08:10:21Z</time></trkpt><trkpt lat="43.34027611109956" lon="-0.3851986170370402"><ele>204.99999999999997</ele><time>2026-04-29T08:10:22Z</time></trkpt><trkpt lat="43.34029988862743" lon="-0.38529846936748746"><ele>205.0</ele><time>2026-04-29T08:10:23Z</time></trkpt><trkpt lat="43.340265134856246" lon="-0.3854082325556071"><ele>205.0</ele><time>2026-04-29T08:10:24Z</time></trkpt><trkpt lat="43.340237270675566" lon="-0.38551135370644407"><ele>205.0</ele><time>2026-04-29T08:10:25Z</time></trkpt><trkpt lat="43.34021958853784" lon="-0.38561836117229176"><ele>204.99999999999997</ele><time>2026-04-29T08:10:26Z</time></trkpt><trkpt lat="43.34020984306212" lon="-0.38573247488592194"><ele>205.0</ele><time>2026-04-29T08:10:27Z</time></trkpt><trkpt lat="43.34022576316465" lon="-0.3858499756911339"><ele>204.99999999999997</ele><time>2026-04-29T08:10:28Z</time></trkpt><trkpt lat="43.34025359198673" lon="-0.38596605121618915"><ele>205.0</ele><time>2026-04-29T08:10:29Z</time></trkpt><trkpt lat="43.34027834490191" lon="-0.3860801076663089"><ele>205.0</ele><time>2026-04-29T08:10:30Z</time></trkpt><trkpt lat="43.340307263554884" lon="-0.38619564520318816"><ele>205.0</ele><time>2026-04-29T08:10:31Z</time></trkpt><trkpt lat="43.34034015683576" lon="-0.386312696296494"><ele>204.99999999999997</ele><time>2026-04-29T08:10:32Z</time></trkpt><trkpt lat="43.34037104038047" lon="-0.3864297709855034"><ele>205.0</ele><time>2026-04-29T08:10:33Z</time></trkpt><trkpt lat="43.34039996927597" lon="-0.3865491956199785"><ele>204.6</ele><time>2026-04-29T08:10:34Z</time></trkpt><trkpt lat="43.34043214639776" lon="-0.38667443067780144"><ele>204.2</ele><time>2026-04-29T08:10:35Z</time></trkpt><trkpt lat="43.34046710520765" lon="-0.38679885080806625"><ele>203.8</ele><time>2026-04-29T08:10:36Z</time></trkpt><trkpt lat="43.340498326105894" lon="-0.3869226973193352"><ele>203.4</ele><time>2026-04-29T08:10:37Z</time></trkpt><trkpt lat="43.34052772747651" lon="-0.38704565785025485"><ele>203.0</ele><time>2026-04-29T08:10:38Z</time></trkpt><trkpt lat="43.34056075478163" lon="-0.3871692370787006"><ele>202.8</ele><time>2026-04-29T08:10:39Z</time></trkpt><trkpt lat="43.3405934113981" lon="-0.3872927708847326"><ele>202.60000000000002</ele><time>2026-04-29T08:10:40Z</time></trkpt><trkpt lat="43.34062690810444" lon="-0.3874200310361019"><ele>202.39999999999998</ele><time>2026-04-29T08:10:41Z</time></trkpt><trkpt lat="43.3406643402967" lon="-0.38754593460005216"><ele>202.2</ele><time>2026-04-29T08:10:42Z</time></trkpt><trkpt lat="43.34069822815392" lon="-0.3876739007118328"><ele>202.0</ele><time>2026-04-29T08:10:43Z</time></trkpt><trkpt lat="43.34073254759553" lon="-0.38780434957875676"><ele>202.0</ele><time>2026-04-29T08:10:44Z</time></trkpt><trkpt lat="43.34076739246964" lon="-0.38793432025814667"><ele>202.0</ele><time>2026-04-29T08:10:45Z</time></trkpt><trkpt lat="43.34080322796478" lon="-0.38806168333372204"><ele>202.0</ele><time>2026-04-29T08:10:46Z</time></trkpt><trkpt lat="43.34083259869681" lon="-0.38818948376339824"><ele>202.0</ele><time>2026-04-29T08:10:47Z</time></trkpt><trkpt lat="43.34086287231759" lon="-0.38831438802233775"><ele>202.0</ele><time>2026-04-29T08:10:48Z</time></trkpt><trkpt lat="43.34089175907355" lon="-0.38844731680431294"><ele>202.0</ele><time>2026-04-29T08:10:49Z</time></trkpt><trkpt lat="43.340916924498615" lon="-0.3885806671979591"><ele>202.0</ele><time>2026-04-29T08:10:50Z</time></trkpt><trkpt lat="43.34093910072145" lon="-0.38871433133598027"><ele>202.0</ele><time>2026-04-29T08:10:51Z</time></trkpt><trkpt lat="43.3409606349754" lon="-0.388849593814124"><ele>202.0</ele><time>2026-04-29T08:10:52Z</time></trkpt><trkpt lat="43.34098042281319" lon="-0.38898657584178037"><ele>202.0</ele><time>2026-04-29T08:10:53Z</time></trkpt><trkpt lat="43.34099297559987" lon="-0.3891209393666451"><ele>202.2</ele><time>2026-04-29T08:10:54Z</time></trkpt><trkpt lat="43.341004500433" lon="-0.3892560110000803"><ele>202.39999999999998</ele><time>2026-04-29T08:10:55Z</time></trkpt><trkpt lat="43.34101578577365" lon="-0.3894001447410254"><ele>202.60000000000002</ele><time>2026-04-29T08:10:56Z</time></trkpt><trkpt lat="43.341024795404614" lon="-0.38953307958909356"><ele>202.8</ele><time>2026-04-29T08:10:57Z</time></trkpt><trkpt lat="43.34103195304859" lon="-0.389670734207534"><ele>203.0</ele><time>2026-04-29T08:10:58Z</time></trkpt><trkpt lat="43.34103854766401" lon="-0.3898075830006395"><ele>203.0</ele><time>2026-04-29T08:10:59Z</time></trkpt><trkpt lat="43.341033943502254" lon="-0.38994106967257736"><ele>203.0</ele><time>2026-04-29T08:11:00Z</time></trkpt><trkpt lat="43.34103198682947" lon="-0.39006941657096217"><ele>203.0</ele><time>2026-04-29T08:11:01Z</time></trkpt><trkpt lat="43.34102590088502" lon="-0.39020359014757583"><ele>203.0</ele><time>2026-04-29T08:11:02Z</time></trkpt><trkpt lat="43.34101544560837" lon="-0.39034283287571736"><ele>203.0</ele><time>2026-04-29T08:11:03Z</time></trkpt><trkpt lat="43.3409974423983" lon="-0.3904801075770252"><ele>203.0</ele><time>2026-04-29T08:11:04.001Z</time></trkpt><trkpt lat="43.340979795969204" lon="-0.3906177926029393"><ele>203.0</ele><time>2026-04-29T08:11:05.001Z</time></trkpt><trkpt lat="43.34096110660173" lon="-0.3907506319282527"><ele>203.0</ele><time>2026-04-29T08:11:06.001Z</time></trkpt><trkpt lat="43.340935104712834" lon="-0.39088432854906946"><ele>203.0</ele><time>2026-04-29T08:11:07.001Z</time></trkpt><trkpt lat="43.340907815716406" lon="-0.39101897935314794"><ele>203.0</ele><time>2026-04-29T08:11:08.001Z</time></trkpt><trkpt lat="43.34087767726229" lon="-0.39115063058189403"><ele>203.0</ele><time>2026-04-29T08:11:09.001Z</time></trkpt><trkpt lat="43.34085086706659" lon="-0.39128289743108424"><ele>203.0</ele><time>2026-04-29T08:11:10.001Z</time></trkpt><trkpt lat="43.340812564275936" lon="-0.391410628828004"><ele>203.0</ele><time>2026-04-29T08:11:11.001Z</time></trkpt><trkpt lat="43.34077136158265" lon="-0.3915407720517066"><ele>203.0</ele><time>2026-04-29T08:11:12.001Z</time></trkpt><trkpt lat="43.34072767694473" lon="-0.3916638723339409"><ele>203.0</ele><time>2026-04-29T08:11:13.001Z</time></trkpt><trkpt lat="43.3406794118142" lon="-0.3917859326274028"><ele>202.8</ele><time>2026-04-29T08:11:14.001Z</time></trkpt><trkpt lat="43.34063458547783" lon="-0.39190969038620144"><ele>202.60000000000002</ele><time>2026-04-29T08:11:15.001Z</time></trkpt><trkpt lat="43.34058389281644" lon="-0.3920338397239977"><ele>202.39999999999998</ele><time>2026-04-29T08:11:16.001Z</time></trkpt><trkpt lat="43.34053075359565" lon="-0.39215393629344353"><ele>202.2</ele><time>2026-04-29T08:11:17.001Z</time></trkpt><trkpt lat="43.340476413720424" lon="-0.39226998466102675"><ele>202.0</ele><time>2026-04-29T08:11:18.001Z</time></trkpt><trkpt lat="43.3404199604943" lon="-0.3923839842478636"><ele>201.8</ele><time>2026-04-29T08:11:19.001Z</time></trkpt><trkpt lat="43.340363270125046" lon="-0.3925007489304525"><ele>201.6</ele><time>2026-04-29T08:11:20.001Z</time></trkpt><trkpt lat="43.34030600112159" lon="-0.3926182159814963"><ele>201.4</ele><time>2026-04-29T08:11:21.001Z</time></trkpt><trkpt lat="43.34024664883386" lon="-0.39272779614078757"><ele>201.20000000000002</ele><time>2026-04-29T08:11:22.001Z</time></trkpt><trkpt lat="43.34018972508864" lon="-0.3928426836408066"><ele>201.0</ele><time>2026-04-29T08:11:23.001Z</time></trkpt><trkpt lat="43.340133258007135" lon="-0.3929514780295211"><ele>201.0</ele><time>2026-04-29T08:11:24.001Z</time></trkpt><trkpt lat="43.34007890068552" lon="-0.39306769948822795"><ele>201.0</ele><time>2026-04-29T08:11:25.001Z</time></trkpt><trkpt lat="43.34002530477402" lon="-0.3931822972260006"><ele>201.0</ele><time>2026-04-29T08:11:26.001Z</time></trkpt><trkpt lat="43.33997012365073" lon="-0.3932980916348545"><ele>201.0</ele><time>2026-04-29T08:11:27.001Z</time></trkpt><trkpt lat="43.33991433072693" lon="-0.39341740012314713"><ele>201.0</ele><time>2026-04-29T08:11:28.001Z</time></trkpt><trkpt lat="43.339858123190616" lon="-0.39353782591207004"><ele>201.0</ele><time>2026-04-29T08:11:29.001Z</time></trkpt><trkpt lat="43.339801566476766" lon="-0.39365523224967625"><ele>201.0</ele><time>2026-04-29T08:11:30.001Z</time></trkpt><trkpt lat="43.339746954091154" lon="-0.39377486385358984"><ele>201.0</ele><time>2026-04-29T08:11:31.001Z</time></trkpt><trkpt lat="43.33969113288693" lon="-0.39389357515991114"><ele>201.0</ele><time>2026-04-29T08:11:32.001Z</time></trkpt><trkpt lat="43.33963346347867" lon="-0.39401068725108457"><ele>201.0</ele><time>2026-04-29T08:11:33.001Z</time></trkpt><trkpt lat="43.339574711400566" lon="-0.394126856607704"><ele>201.20000000000002</ele><time>2026-04-29T08:11:34.001Z</time></trkpt><trkpt lat="43.33951738139356" lon="-0.3942453719511746"><ele>201.4</ele><time>2026-04-29T08:11:35.001Z</time></trkpt><trkpt lat="43.33946216022828" lon="-0.39436507683743505"><ele>201.6</ele><time>2026-04-29T08:11:36.001Z</time></trkpt><trkpt lat="43.33940769439131" lon="-0.39448346719736394"><ele>201.8</ele><time>2026-04-29T08:11:37.001Z</time></trkpt><trkpt lat="43.33935691511682" lon="-0.3946024650853757"><ele>202.0</ele><time>2026-04-29T08:11:38.001Z</time></trkpt><trkpt lat="43.33930724527713" lon="-0.3947269720798056"><ele>202.0</ele><time>2026-04-29T08:11:39.001Z</time></trkpt><trkpt lat="43.339260486337864" lon="-0.39485693108941916"><ele>202.0</ele><time>2026-04-29T08:11:40.001Z</time></trkpt><trkpt lat="43.33922071584369" lon="-0.39498939773529057"><ele>202.0</ele><time>2026-04-29T08:11:41.001Z</time></trkpt><trkpt lat="43.339183496443034" lon="-0.39512430701037093"><ele>202.0</ele><time>2026-04-29T08:11:42.001Z</time></trkpt><trkpt lat="43.339154774294094" lon="-0.3952595027385648"><ele>202.0</ele><time>2026-04-29T08:11:43.001Z</time></trkpt><trkpt lat="43.33912666174341" lon="-0.3953966530810962"><ele>201.8</ele><time>2026-04-29T08:11:44.001Z</time></trkpt><trkpt lat="43.33910270295622" lon="-0.3955263961402663"><ele>201.6</ele><time>2026-04-29T08:11:45.001Z</time></trkpt><trkpt lat="43.3390862750867" lon="-0.3956611305446593"><ele>201.4</ele><time>2026-04-29T08:11:46.001Z</time></trkpt><trkpt lat="43.33907552318532" lon="-0.39580082844644"><ele>201.20000000000002</ele><time>2026-04-29T08:11:47.001Z</time></trkpt><trkpt lat="43.33906811586223" lon="-0.3959422890753059"><ele>201.0</ele><time>2026-04-29T08:11:48.001Z</time></trkpt><trkpt lat="43.33906898450504" lon="-0.3960832478318642"><ele>201.0</ele><time>2026-04-29T08:11:49.001Z</time></trkpt><trkpt lat="43.339077522905505" lon="-0.39622422425445014"><ele>201.0</ele><time>2026-04-29T08:11:50.001Z</time></trkpt><trkpt lat="43.33908948708363" lon="-0.3963632736653984"><ele>201.0</ele><time>2026-04-29T08:11:51.001Z</time></trkpt><trkpt lat="43.33910136332564" lon="-0.39649768228480525"><ele>201.0</ele><time>2026-04-29T08:11:52.001Z</time></trkpt><trkpt lat="43.33911992402257" lon="-0.39663607353481406"><ele>201.0</ele><time>2026-04-29T08:11:53.001Z</time></trkpt><trkpt lat="43.33913939846744" lon="-0.39677740960871827"><ele>201.0</ele><time>2026-04-29T08:11:54.001Z</time></trkpt><trkpt lat="43.33915758234322" lon="-0.39691670961847075"><ele>201.0</ele><time>2026-04-29T08:11:55.001Z</time></trkpt><trkpt lat="43.339178844735734" lon="-0.39705324894493954"><ele>201.0</ele><time>2026-04-29T08:11:56.001Z</time></trkpt><trkpt lat="43.33920191173482" lon="-0.3971910710167005"><ele>201.0</ele><time>2026-04-29T08:11:57.001Z</time></trkpt><trkpt lat="43.339225693564806" lon="-0.397329046933492"><ele>201.0</ele><time>2026-04-29T08:11:58.001Z</time></trkpt><trkpt lat="43.33924637383315" lon="-0.39746703627608604"><ele>201.0</ele><time>2026-04-29T08:11:59.001Z</time></trkpt><trkpt lat="43.339265043352505" lon="-0.39759986970881617"><ele>201.0</ele><time>2026-04-29T08:12:00.001Z</time></trkpt><trkpt lat="43.339298306932406" lon="-0.3977263976035287"><ele>201.0</ele><time>2026-04-29T08:12:01.001Z</time></trkpt><trkpt lat="43.339318382209605" lon="-0.39785857251082635"><ele>201.0</ele><time>2026-04-29T08:12:02.001Z</time></trkpt><trkpt lat="43.339338131612564" lon="-0.39798972320512294"><ele>201.0</ele><time>2026-04-29T08:12:03.001Z</time></trkpt><trkpt lat="43.339357828421925" lon="-0.39812052461010966"><ele>200.66666666666666</ele><time>2026-04-29T08:12:04.001Z</time></trkpt><trkpt lat="43.3393763056898" lon="-0.39824322737951895"><ele>200.33333333333331</ele><time>2026-04-29T08:12:05.001Z</time></trkpt><trkpt lat="43.33939426098268" lon="-0.3983606698585441"><ele>200.0</ele><time>2026-04-29T08:12:06.001Z</time></trkpt><trkpt lat="43.339412054914916" lon="-0.3984758959239845"><ele>199.66666666666666</ele><time>2026-04-29T08:12:07.001Z</time></trkpt><trkpt lat="43.33942933802922" lon="-0.39858781413365185"><ele>199.33333333333331</ele><time>2026-04-29T08:12:08.001Z</time></trkpt><trkpt lat="43.33944636828737" lon="-0.3986980949276755"><ele>199.0</ele><time>2026-04-29T08:12:09.001Z</time></trkpt><trkpt lat="43.33947588876372" lon="-0.39894957288377697"><ele>199.0</ele><time>2026-04-29T08:12:10.001Z</time></trkpt><trkpt lat="43.33949946905253" lon="-0.3990879226303144"><ele>199.0</ele><time>2026-04-29T08:12:11.001Z</time></trkpt><trkpt lat="43.33951939190148" lon="-0.39922121505236174"><ele>199.0</ele><time>2026-04-29T08:12:12.001Z</time></trkpt><trkpt lat="43.33953868628867" lon="-0.3993546107016839"><ele>199.0</ele><time>2026-04-29T08:12:13.001Z</time></trkpt><trkpt lat="43.339559044775264" lon="-0.3994910891828025"><ele>199.0</ele><time>2026-04-29T08:12:14.001Z</time></trkpt><trkpt lat="43.33957855502958" lon="-0.3996227483227638"><ele>199.0</ele><time>2026-04-29T08:12:15.001Z</time></trkpt><trkpt lat="43.33959768624237" lon="-0.3997515586440561"><ele>199.0</ele><time>2026-04-29T08:12:16.001Z</time></trkpt><trkpt lat="43.3396230972258" lon="-0.3998885747799924"><ele>199.0</ele><time>2026-04-29T08:12:17.001Z</time></trkpt><trkpt lat="43.339643157530496" lon="-0.40002716129887667"><ele>199.0</ele><time>2026-04-29T08:12:18.001Z</time></trkpt><trkpt lat="43.33966226528828" lon="-0.40016451382807594"><ele>199.0</ele><time>2026-04-29T08:12:19.001Z</time></trkpt><trkpt lat="43.33967887134875" lon="-0.4002945162366199"><ele>199.0</ele><time>2026-04-29T08:12:20Z</time></trkpt><trkpt lat="43.33970747897282" lon="-0.40043298299043145"><ele>199.0</ele><time>2026-04-29T08:12:21Z</time></trkpt><trkpt lat="43.339730270510586" lon="-0.400566810846668"><ele>199.0</ele><time>2026-04-29T08:12:22Z</time></trkpt><trkpt lat="43.33975032126787" lon="-0.4006987620810497"><ele>199.0</ele><time>2026-04-29T08:12:23Z</time></trkpt><trkpt lat="43.339771434096264" lon="-0.4008313137597123"><ele>199.0</ele><time>2026-04-29T08:12:24Z</time></trkpt><trkpt lat="43.33978998427176" lon="-0.4009662172990213"><ele>199.2</ele><time>2026-04-29T08:12:25Z</time></trkpt><trkpt lat="43.339810591716336" lon="-0.40110293925478924"><ele>199.39999999999998</ele><time>2026-04-29T08:12:26Z</time></trkpt><trkpt lat="43.33983257747273" lon="-0.4012336345276977"><ele>199.6</ele><time>2026-04-29T08:12:27Z</time></trkpt><trkpt lat="43.339852384891095" lon="-0.40136588217589664"><ele>199.8</ele><time>2026-04-29T08:12:28Z</time></trkpt><trkpt lat="43.339874046384345" lon="-0.4014983406091634"><ele>200.0</ele><time>2026-04-29T08:12:29Z</time></trkpt><trkpt lat="43.339892852547514" lon="-0.4016287629003762"><ele>200.2</ele><time>2026-04-29T08:12:30Z</time></trkpt><trkpt lat="43.33991791058191" lon="-0.40175899052683534"><ele>200.4</ele><time>2026-04-29T08:12:31Z</time></trkpt><trkpt lat="43.33993753881573" lon="-0.4018874048058959"><ele>200.60000000000002</ele><time>2026-04-29T08:12:32Z</time></trkpt><trkpt lat="43.33996091823384" lon="-0.40201663832207146"><ele>200.8</ele><time>2026-04-29T08:12:33Z</time></trkpt><trkpt lat="43.339983080956344" lon="-0.4021512393672237"><ele>201.0</ele><time>2026-04-29T08:12:34Z</time></trkpt><trkpt lat="43.34001329925874" lon="-0.4022822431497322"><ele>200.4</ele><time>2026-04-29T08:12:35Z</time></trkpt><trkpt lat="43.34002919590089" lon="-0.4024141845625653"><ele>199.8</ele><time>2026-04-29T08:12:36Z</time></trkpt><trkpt lat="43.34005181069481" lon="-0.40254936062188384"><ele>199.20000000000002</ele><time>2026-04-29T08:12:37Z</time></trkpt><trkpt lat="43.34007842650281" lon="-0.40268142778759397"><ele>198.60000000000002</ele><time>2026-04-29T08:12:38Z</time></trkpt><trkpt lat="43.34010181794733" lon="-0.40281515370822013"><ele>198.0</ele><time>2026-04-29T08:12:39Z</time></trkpt><trkpt lat="43.340126825133744" lon="-0.4029548579077572"><ele>198.8</ele><time>2026-04-29T08:12:40Z</time></trkpt><trkpt lat="43.340150512265105" lon="-0.4030939947535824"><ele>199.60000000000002</ele><time>2026-04-29T08:12:41Z</time></trkpt><trkpt lat="43.34017744407059" lon="-0.4032191919034401"><ele>200.39999999999998</ele><time>2026-04-29T08:12:42Z</time></trkpt><trkpt lat="43.34020435081281" lon="-0.4033583923799441"><ele>201.2</ele><time>2026-04-29T08:12:43Z</time></trkpt><trkpt lat="43.34022905301714" lon="-0.40349503446327784"><ele>202.0</ele><time>2026-04-29T08:12:44Z</time></trkpt><trkpt lat="43.34025032105368" lon="-0.4036292772201974"><ele>202.0</ele><time>2026-04-29T08:12:45Z</time></trkpt><trkpt lat="43.34027788572344" lon="-0.4037603085666547"><ele>202.0</ele><time>2026-04-29T08:12:46Z</time></trkpt><trkpt lat="43.34030254265329" lon="-0.4039042958824998"><ele>202.0</ele><time>2026-04-29T08:12:47Z</time></trkpt><trkpt lat="43.34033071509816" lon="-0.4040375406894638"><ele>202.0</ele><time>2026-04-29T08:12:48Z</time></trkpt><trkpt lat="43.3403521347421" lon="-0.4041732296986757"><ele>202.0</ele><time>2026-04-29T08:12:49Z</time></trkpt><trkpt lat="43.34037789625537" lon="-0.40430638694228294"><ele>202.2</ele><time>2026-04-29T08:12:50Z</time></trkpt><trkpt lat="43.340404136226205" lon="-0.40442635652177666"><ele>202.39999999999998</ele><time>2026-04-29T08:12:51Z</time></trkpt><trkpt lat="43.34042673845934" lon="-0.40456919536000807"><ele>202.60000000000002</ele><time>2026-04-29T08:12:52Z</time></trkpt><trkpt lat="43.34045258268808" lon="-0.40470206610409437"><ele>202.8</ele><time>2026-04-29T08:12:53Z</time></trkpt><trkpt lat="43.34048080658845" lon="-0.4048344434881959"><ele>203.0</ele><time>2026-04-29T08:12:54Z</time></trkpt><trkpt lat="43.34050720161203" lon="-0.40497073954224583"><ele>203.2</ele><time>2026-04-29T08:12:55Z</time></trkpt><trkpt lat="43.34052863384618" lon="-0.405100817518758"><ele>203.4</ele><time>2026-04-29T08:12:56Z</time></trkpt><trkpt lat="43.34056261687929" lon="-0.4052296145217777"><ele>203.6</ele><time>2026-04-29T08:12:57Z</time></trkpt><trkpt lat="43.34059028404357" lon="-0.4053629965443075"><ele>203.79999999999998</ele><time>2026-04-29T08:12:58Z</time></trkpt><trkpt lat="43.34062790873603" lon="-0.4054929024888326"><ele>204.0</ele><time>2026-04-29T08:12:59Z</time></trkpt><trkpt lat="43.3406567810551" lon="-0.40562500297918846"><ele>203.2</ele><time>2026-04-29T08:13:00Z</time></trkpt><trkpt lat="43.34069255006758" lon="-0.4057562881339476"><ele>202.39999999999998</ele><time>2026-04-29T08:13:01Z</time></trkpt><trkpt lat="43.34073140326828" lon="-0.4058840652380016"><ele>201.6</ele><time>2026-04-29T08:13:02Z</time></trkpt><trkpt lat="43.34076967025103" lon="-0.4060153956562715"><ele>200.8</ele><time>2026-04-29T08:13:03Z</time></trkpt><trkpt lat="43.34080125978085" lon="-0.40614047593647246"><ele>200.0</ele><time>2026-04-29T08:13:04Z</time></trkpt><trkpt lat="43.340838627077815" lon="-0.40626715465504554"><ele>200.0</ele><time>2026-04-29T08:13:05Z</time></trkpt><trkpt lat="43.3408794130341" lon="-0.40639403519156053"><ele>200.0</ele><time>2026-04-29T08:13:06Z</time></trkpt><trkpt lat="43.34092775307695" lon="-0.40652545153083186"><ele>200.0</ele><time>2026-04-29T08:13:07Z</time></trkpt><trkpt lat="43.34097049462739" lon="-0.4066493637706529"><ele>200.0</ele><time>2026-04-29T08:13:08Z</time></trkpt><trkpt lat="43.341009511705636" lon="-0.4067719801724573"><ele>200.0</ele><time>2026-04-29T08:13:09Z</time></trkpt><trkpt lat="43.34105389766075" lon="-0.4068986417842649"><ele>200.0</ele><time>2026-04-29T08:13:10.001Z</time></trkpt><trkpt lat="43.341107059465195" lon="-0.40701696004796556"><ele>200.0</ele><time>2026-04-29T08:13:11.001Z</time></trkpt><trkpt lat="43.341151323293694" lon="-0.4071406246922655"><ele>200.0</ele><time>2026-04-29T08:13:12.001Z</time></trkpt><trkpt lat="43.341195480056214" lon="-0.4072685969302276"><ele>200.0</ele><time>2026-04-29T08:13:13.001Z</time></trkpt><trkpt lat="43.34124495994639" lon="-0.4073938498591005"><ele>200.0</ele><time>2026-04-29T08:13:14.001Z</time></trkpt><trkpt lat="43.341289232289355" lon="-0.4075134415472187"><ele>200.4</ele><time>2026-04-29T08:13:15.001Z</time></trkpt><trkpt lat="43.341332833268055" lon="-0.40763840266046886"><ele>200.8</ele><time>2026-04-29T08:13:16.001Z</time></trkpt><trkpt lat="43.34138215752013" lon="-0.4077616678703496"><ele>201.2</ele><time>2026-04-29T08:13:17.001Z</time></trkpt><trkpt lat="43.34142855528289" lon="-0.40788819147436306"><ele>201.6</ele><time>2026-04-29T08:13:18.001Z</time></trkpt><trkpt lat="43.341468132015414" lon="-0.4080121959149413"><ele>202.0</ele><time>2026-04-29T08:13:19.001Z</time></trkpt><trkpt lat="43.34150929004563" lon="-0.40813938001620226"><ele>201.2</ele><time>2026-04-29T08:13:20.001Z</time></trkpt><trkpt lat="43.34155105965414" lon="-0.4082667859897622"><ele>200.39999999999998</ele><time>2026-04-29T08:13:21.001Z</time></trkpt><trkpt lat="43.34158958738789" lon="-0.4083969920608684"><ele>199.60000000000002</ele><time>2026-04-29T08:13:22.001Z</time></trkpt><trkpt lat="43.34162844500672" lon="-0.40852773056112074"><ele>198.8</ele><time>2026-04-29T08:13:23.001Z</time></trkpt><trkpt lat="43.34166882415539" lon="-0.4086625686696028"><ele>198.0</ele><time>2026-04-29T08:13:24.001Z</time></trkpt><trkpt lat="43.341706603034886" lon="-0.4087867069312197"><ele>197.8</ele><time>2026-04-29T08:13:25.001Z</time></trkpt><trkpt lat="43.34174710285914" lon="-0.40891345706038823"><ele>197.60000000000002</ele><time>2026-04-29T08:13:26.001Z</time></trkpt><trkpt lat="43.34177689408332" lon="-0.40905062566230493"><ele>197.39999999999998</ele><time>2026-04-29T08:13:27.001Z</time></trkpt><trkpt lat="43.34181438072584" lon="-0.4091875322785297"><ele>197.2</ele><time>2026-04-29T08:13:28.001Z</time></trkpt><trkpt lat="43.341852498863354" lon="-0.4093165965204288"><ele>197.0</ele><time>2026-04-29T08:13:29.001Z</time></trkpt><trkpt lat="43.34188255997583" lon="-0.40945275175254936"><ele>197.0</ele><time>2026-04-29T08:13:30.001Z</time></trkpt><trkpt lat="43.34191302745997" lon="-0.409586408315098"><ele>197.0</ele><time>2026-04-29T08:13:31.001Z</time></trkpt><trkpt lat="43.341947892451834" lon="-0.40971963927664434"><ele>197.0</ele><time>2026-04-29T08:13:32.001Z</time></trkpt><trkpt lat="43.34198245080575" lon="-0.4098533831073183"><ele>197.0</ele><time>2026-04-29T08:13:33.001Z</time></trkpt><trkpt lat="43.34201645617909" lon="-0.40998351261921456"><ele>197.0</ele><time>2026-04-29T08:13:34.001Z</time></trkpt><trkpt lat="43.34205228529362" lon="-0.4101155285167848"><ele>197.0</ele><time>2026-04-29T08:13:35.001Z</time></trkpt><trkpt lat="43.34208239740444" lon="-0.4102511977237691"><ele>197.0</ele><time>2026-04-29T08:13:36.001Z</time></trkpt><trkpt lat="43.34212142914048" lon="-0.4103826352187862"><ele>197.0</ele><time>2026-04-29T08:13:37.001Z</time></trkpt><trkpt lat="43.342163209341926" lon="-0.41051333015175995"><ele>197.0</ele><time>2026-04-29T08:13:38.001Z</time></trkpt><trkpt lat="43.342197505153635" lon="-0.41064608622096976"><ele>197.0</ele><time>2026-04-29T08:13:39.001Z</time></trkpt><trkpt lat="43.34223728397176" lon="-0.41077437535896083"><ele>197.0</ele><time>2026-04-29T08:13:40.001Z</time></trkpt><trkpt lat="43.34227506134128" lon="-0.4109073363796962"><ele>197.0</ele><time>2026-04-29T08:13:41.001Z</time></trkpt><trkpt lat="43.34232010569312" lon="-0.4110327527793104"><ele>197.0</ele><time>2026-04-29T08:13:42.001Z</time></trkpt><trkpt lat="43.34236064191261" lon="-0.41115946063136133"><ele>197.0</ele><time>2026-04-29T08:13:43.001Z</time></trkpt><trkpt lat="43.342404016172765" lon="-0.411287506435515"><ele>197.0</ele><time>2026-04-29T08:13:44.001Z</time></trkpt><trkpt lat="43.34244476955124" lon="-0.411421186781814"><ele>196.8</ele><time>2026-04-29T08:13:45.001Z</time></trkpt><trkpt lat="43.34248982982574" lon="-0.4115398277546882"><ele>196.6</ele><time>2026-04-29T08:13:46.001Z</time></trkpt><trkpt lat="43.34253085381408" lon="-0.4116727766123357"><ele>196.4</ele><time>2026-04-29T08:13:47.001Z</time></trkpt><trkpt lat="43.3425774459774" lon="-0.4117959015629324"><ele>196.20000000000002</ele><time>2026-04-29T08:13:48.001Z</time></trkpt><trkpt lat="43.34262298537156" lon="-0.41192749773432924"><ele>196.0</ele><time>2026-04-29T08:13:49.001Z</time></trkpt><trkpt lat="43.34266607007184" lon="-0.41205511670610734"><ele>197.4</ele><time>2026-04-29T08:13:50.001Z</time></trkpt><trkpt lat="43.3427006464842" lon="-0.41217966008757784"><ele>198.8</ele><time>2026-04-29T08:13:51.001Z</time></trkpt><trkpt lat="43.342743582019175" lon="-0.4123126089241277"><ele>200.20000000000002</ele><time>2026-04-29T08:13:52.001Z</time></trkpt><trkpt lat="43.34278571848228" lon="-0.4124423268825205"><ele>201.60000000000002</ele><time>2026-04-29T08:13:53.001Z</time></trkpt><trkpt lat="43.342822798174105" lon="-0.4125722971843705"><ele>203.0</ele><time>2026-04-29T08:13:54.001Z</time></trkpt><trkpt lat="43.342865796380494" lon="-0.412702742783192"><ele>203.0</ele><time>2026-04-29T08:13:55.001Z</time></trkpt><trkpt lat="43.34290698938637" lon="-0.41283561491175985"><ele>203.0</ele><time>2026-04-29T08:13:56.001Z</time></trkpt><trkpt lat="43.3429423208444" lon="-0.4129667740582174"><ele>203.0</ele><time>2026-04-29T08:13:57.001Z</time></trkpt><trkpt lat="43.342983670740836" lon="-0.4130997956253056"><ele>203.0</ele><time>2026-04-29T08:13:58.001Z</time></trkpt><trkpt lat="43.34302130812885" lon="-0.4132318333699783"><ele>203.0</ele><time>2026-04-29T08:13:59.001Z</time></trkpt><trkpt lat="43.34305326345409" lon="-0.4133627485308388"><ele>201.4</ele><time>2026-04-29T08:14:00.001Z</time></trkpt><trkpt lat="43.34308645887308" lon="-0.41349863459181296"><ele>199.8</ele><time>2026-04-29T08:14:01.001Z</time></trkpt><trkpt lat="43.34312794013108" lon="-0.4136337370423602"><ele>198.2</ele><time>2026-04-29T08:14:02.001Z</time></trkpt><trkpt lat="43.34316543106256" lon="-0.413767005224152"><ele>196.6</ele><time>2026-04-29T08:14:03.001Z</time></trkpt><trkpt lat="43.34320145066977" lon="-0.41389945461799577"><ele>195.0</ele><time>2026-04-29T08:14:04.001Z</time></trkpt><trkpt lat="43.3432355508572" lon="-0.41403260480157633"><ele>195.0</ele><time>2026-04-29T08:14:05.001Z</time></trkpt><trkpt lat="43.343271935521585" lon="-0.4141661177530308"><ele>195.0</ele><time>2026-04-29T08:14:06.001Z</time></trkpt><trkpt lat="43.34330270635396" lon="-0.41429561399125847"><ele>195.0</ele><time>2026-04-29T08:14:07.001Z</time></trkpt><trkpt lat="43.343337905449225" lon="-0.41442816599749216"><ele>195.0</ele><time>2026-04-29T08:14:08.001Z</time></trkpt><trkpt lat="43.34337722397776" lon="-0.414560489098004"><ele>195.0</ele><time>2026-04-29T08:14:09.001Z</time></trkpt><trkpt lat="43.343410993930945" lon="-0.4146960870379816"><ele>195.2</ele><time>2026-04-29T08:14:10.001Z</time></trkpt><trkpt lat="43.34344407981388" lon="-0.4148239803437107"><ele>195.4</ele><time>2026-04-29T08:14:11.001Z</time></trkpt><trkpt lat="43.34347759728412" lon="-0.41496023008239197"><ele>195.60000000000002</ele><time>2026-04-29T08:14:12.001Z</time></trkpt><trkpt lat="43.34351532558592" lon="-0.4150925672364397"><ele>195.8</ele><time>2026-04-29T08:14:13.001Z</time></trkpt><trkpt lat="43.34355039165194" lon="-0.4152277561086362"><ele>196.0</ele><time>2026-04-29T08:14:14.001Z</time></trkpt><trkpt lat="43.34358721665983" lon="-0.4153578332909644"><ele>196.0</ele><time>2026-04-29T08:14:15.001Z</time></trkpt><trkpt lat="43.34362522727818" lon="-0.41549145961630124"><ele>196.0</ele><time>2026-04-29T08:14:16.001Z</time></trkpt><trkpt lat="43.34367017382843" lon="-0.4156186922801898"><ele>196.0</ele><time>2026-04-29T08:14:17.001Z</time></trkpt><trkpt lat="43.343707432627866" lon="-0.4157489235675833"><ele>196.0</ele><time>2026-04-29T08:14:18.001Z</time></trkpt><trkpt lat="43.34374730990523" lon="-0.4158800218112267"><ele>196.0</ele><time>2026-04-29T08:14:19.001Z</time></trkpt><trkpt lat="43.34379411955676" lon="-0.41600385796604866"><ele>196.0</ele><time>2026-04-29T08:14:20.001Z</time></trkpt><trkpt lat="43.343840267409426" lon="-0.4161347105992498"><ele>196.0</ele><time>2026-04-29T08:14:21.001Z</time></trkpt><trkpt lat="43.3438817343468" lon="-0.4162599386497865"><ele>196.0</ele><time>2026-04-29T08:14:22.001Z</time></trkpt><trkpt lat="43.34392073769177" lon="-0.4163899954501033"><ele>196.0</ele><time>2026-04-29T08:14:23.001Z</time></trkpt><trkpt lat="43.343967693095344" lon="-0.4165182827574535"><ele>196.0</ele><time>2026-04-29T08:14:24.001Z</time></trkpt><trkpt lat="43.344010230528575" lon="-0.41664605934432253"><ele>195.60000000000002</ele><time>2026-04-29T08:14:25.001Z</time></trkpt><trkpt lat="43.34405554105397" lon="-0.4167753996221418"><ele>195.2</ele><time>2026-04-29T08:14:26Z</time></trkpt><trkpt lat="43.34408812516284" lon="-0.4168917305729791"><ele>194.8</ele><time>2026-04-29T08:14:27Z</time></trkpt><trkpt lat="43.34413024428628" lon="-0.4170026762422556"><ele>194.39999999999998</ele><time>2026-04-29T08:14:28Z</time></trkpt><trkpt lat="43.344168168221074" lon="-0.41710893037506913"><ele>194.0</ele><time>2026-04-29T08:14:29Z</time></trkpt><trkpt lat="43.34419923878776" lon="-0.4172098936533893"><ele>193.83333333333334</ele><time>2026-04-29T08:14:30Z</time></trkpt><trkpt lat="43.34423029896945" lon="-0.4173046043284413"><ele>193.66666666666669</ele><time>2026-04-29T08:14:31Z</time></trkpt><trkpt lat="43.34425782335293" lon="-0.4173950249050149"><ele>193.5</ele><time>2026-04-29T08:14:32Z</time></trkpt><trkpt lat="43.34427976352283" lon="-0.4174847746935937"><ele>193.33333333333331</ele><time>2026-04-29T08:14:33Z</time></trkpt><trkpt lat="43.3443213032624" lon="-0.41764893993000085"><ele>193.16666666666666</ele><time>2026-04-29T08:14:35Z</time></trkpt><trkpt lat="43.344344255428226" lon="-0.41773310484041254"><ele>193.0</ele><time>2026-04-29T08:14:36Z</time></trkpt><trkpt lat="43.344383237010604" lon="-0.41788156329260484"><ele>192.99999999999997</ele><time>2026-04-29T08:14:38Z</time></trkpt><trkpt lat="43.34441381071803" lon="-0.41799101569817176"><ele>193.0</ele><time>2026-04-29T08:14:40Z</time></trkpt><trkpt lat="43.3443981419043" lon="-0.41789922025685367"><ele>193.0</ele><time>2026-04-29T08:16:05.001Z</time></trkpt><trkpt lat="43.344356237399076" lon="-0.41774098331148163"><ele>193.0</ele><time>2026-04-29T08:16:07.001Z</time></trkpt><trkpt lat="43.34433186046258" lon="-0.4176479547256397"><ele>192.99999999999997</ele><time>2026-04-29T08:16:08.001Z</time></trkpt><trkpt lat="43.34430295173613" lon="-0.4175459698243171"><ele>193.0</ele><time>2026-04-29T08:16:09.001Z</time></trkpt><trkpt lat="43.34427357203498" lon="-0.41744045836648336"><ele>193.0</ele><time>2026-04-29T08:16:10.001Z</time></trkpt><trkpt lat="43.34416032992681" lon="-0.4172811367494955"><ele>193.0</ele><time>2026-04-29T08:16:11.001Z</time></trkpt><trkpt lat="43.344127407233024" lon="-0.41715714771020335"><ele>193.0</ele><time>2026-04-29T08:16:12.001Z</time></trkpt><trkpt lat="43.34408687240125" lon="-0.4170398582673396"><ele>193.0</ele><time>2026-04-29T08:16:13.001Z</time></trkpt><trkpt lat="43.3440468823021" lon="-0.41692253524265793"><ele>193.0</ele><time>2026-04-29T08:16:14.001Z</time></trkpt><trkpt lat="43.34400684815055" lon="-0.41680428772333067"><ele>193.2</ele><time>2026-04-29T08:16:15.001Z</time></trkpt><trkpt lat="43.34396482670944" lon="-0.4166766956456069"><ele>193.4</ele><time>2026-04-29T08:16:16.001Z</time></trkpt><trkpt lat="43.34391509979038" lon="-0.41655823420334065"><ele>193.6</ele><time>2026-04-29T08:16:17.001Z</time></trkpt><trkpt lat="43.34386748570432" lon="-0.41644101667851285"><ele>193.79999999999998</ele><time>2026-04-29T08:16:18.001Z</time></trkpt><trkpt lat="43.34381149664398" lon="-0.4163244825699656"><ele>194.0</ele><time>2026-04-29T08:16:19.001Z</time></trkpt><trkpt lat="43.343755522044304" lon="-0.4162103500649977"><ele>194.39999999999998</ele><time>2026-04-29T08:16:20.001Z</time></trkpt><trkpt lat="43.34375669479713" lon="-0.41605156940318766"><ele>194.8</ele><time>2026-04-29T08:16:21.001Z</time></trkpt><trkpt lat="43.34370934995359" lon="-0.41592413279048707"><ele>195.2</ele><time>2026-04-29T08:16:22.001Z</time></trkpt><trkpt lat="43.343664034152575" lon="-0.415796584695407"><ele>195.60000000000002</ele><time>2026-04-29T08:16:23.001Z</time></trkpt><trkpt lat="43.343617399937784" lon="-0.41567044268801223"><ele>196.0</ele><time>2026-04-29T08:16:24.001Z</time></trkpt><trkpt lat="43.3435777896521" lon="-0.41553936741366737"><ele>196.0</ele><time>2026-04-29T08:16:25.001Z</time></trkpt><trkpt lat="43.34353562985151" lon="-0.4154088567338801"><ele>196.0</ele><time>2026-04-29T08:16:26.001Z</time></trkpt><trkpt lat="43.34349448923162" lon="-0.41527584883242946"><ele>196.0</ele><time>2026-04-29T08:16:27.001Z</time></trkpt><trkpt lat="43.3434570201914" lon="-0.4151419612464042"><ele>196.0</ele><time>2026-04-29T08:16:28.001Z</time></trkpt><trkpt lat="43.34342053563303" lon="-0.4150039657542633"><ele>196.0</ele><time>2026-04-29T08:16:29.001Z</time></trkpt><trkpt lat="43.34338172436373" lon="-0.4148722035753429"><ele>196.0</ele><time>2026-04-29T08:16:30.001Z</time></trkpt><trkpt lat="43.34334747809054" lon="-0.414734689693812"><ele>196.0</ele><time>2026-04-29T08:16:31.001Z</time></trkpt><trkpt lat="43.34331331250335" lon="-0.41460501994260157"><ele>196.0</ele><time>2026-04-29T08:16:32Z</time></trkpt><trkpt lat="43.34327612225417" lon="-0.4144700075308706"><ele>196.0</ele><time>2026-04-29T08:16:33Z</time></trkpt><trkpt lat="43.343237637850756" lon="-0.41434003678013664"><ele>196.0</ele><time>2026-04-29T08:16:34Z</time></trkpt><trkpt lat="43.34319946440639" lon="-0.4142048195190383"><ele>195.8</ele><time>2026-04-29T08:16:35Z</time></trkpt><trkpt lat="43.34316604242762" lon="-0.4140714053324965"><ele>195.60000000000002</ele><time>2026-04-29T08:16:36Z</time></trkpt><trkpt lat="43.343134536650176" lon="-0.41393882344230665"><ele>195.4</ele><time>2026-04-29T08:16:37Z</time></trkpt><trkpt lat="43.34309676229462" lon="-0.4138033736864034"><ele>195.2</ele><time>2026-04-29T08:16:38Z</time></trkpt><trkpt lat="43.34306271435065" lon="-0.41366726983261515"><ele>195.0</ele><time>2026-04-29T08:16:39Z</time></trkpt><trkpt lat="43.34302577386738" lon="-0.4135313246451562"><ele>196.0</ele><time>2026-04-29T08:16:40Z</time></trkpt><trkpt lat="43.34299156944515" lon="-0.413395441868767"><ele>197.0</ele><time>2026-04-29T08:16:41Z</time></trkpt><trkpt lat="43.342954032813275" lon="-0.4132591704726855"><ele>198.0</ele><time>2026-04-29T08:16:42Z</time></trkpt><trkpt lat="43.34291933024272" lon="-0.4131228102407754"><ele>199.0</ele><time>2026-04-29T08:16:43Z</time></trkpt><trkpt lat="43.34288333471285" lon="-0.41298524864061087"><ele>200.0</ele><time>2026-04-29T08:16:44Z</time></trkpt><trkpt lat="43.34284253383576" lon="-0.41285239700861387"><ele>200.6</ele><time>2026-04-29T08:16:45Z</time></trkpt><trkpt lat="43.34280835158567" lon="-0.4127189125096526"><ele>201.2</ele><time>2026-04-29T08:16:46Z</time></trkpt><trkpt lat="43.34277327041671" lon="-0.412585280256112"><ele>201.8</ele><time>2026-04-29T08:16:47Z</time></trkpt><trkpt lat="43.342729340599774" lon="-0.41244981505160144"><ele>202.4</ele><time>2026-04-29T08:16:48Z</time></trkpt><trkpt lat="43.34268646300014" lon="-0.4123185466338573"><ele>203.0</ele><time>2026-04-29T08:16:49Z</time></trkpt><trkpt lat="43.342641498785426" lon="-0.4121857783227677"><ele>201.60000000000002</ele><time>2026-04-29T08:16:50Z</time></trkpt><trkpt lat="43.34259406239205" lon="-0.4120550520135654"><ele>200.20000000000002</ele><time>2026-04-29T08:16:51Z</time></trkpt><trkpt lat="43.34255392337586" lon="-0.4119218050662187"><ele>198.8</ele><time>2026-04-29T08:16:52Z</time></trkpt><trkpt lat="43.342508569493" lon="-0.4117894083787922"><ele>197.4</ele><time>2026-04-29T08:16:53Z</time></trkpt><trkpt lat="43.3424646739125" lon="-0.41165512786680036"><ele>196.0</ele><time>2026-04-29T08:16:54Z</time></trkpt><trkpt lat="43.34242243409719" lon="-0.41152010183386245"><ele>196.0</ele><time>2026-04-29T08:16:55Z</time></trkpt><trkpt lat="43.34237536269602" lon="-0.41138952902930975"><ele>196.0</ele><time>2026-04-29T08:16:56Z</time></trkpt><trkpt lat="43.34233054501505" lon="-0.411254598725301"><ele>196.0</ele><time>2026-04-29T08:16:57Z</time></trkpt><trkpt lat="43.342287334774994" lon="-0.41111896034230033"><ele>196.0</ele><time>2026-04-29T08:16:58Z</time></trkpt><trkpt lat="43.34224622841519" lon="-0.41098842358491705"><ele>196.0</ele><time>2026-04-29T08:16:59Z</time></trkpt><trkpt lat="43.34220454487135" lon="-0.4108505719422002"><ele>196.20000000000002</ele><time>2026-04-29T08:17:00Z</time></trkpt><trkpt lat="43.34216354587022" lon="-0.4107143428281983"><ele>196.4</ele><time>2026-04-29T08:17:01Z</time></trkpt><trkpt lat="43.3421175814803" lon="-0.41057860588761813"><ele>196.6</ele><time>2026-04-29T08:17:02Z</time></trkpt><trkpt lat="43.342078913343684" lon="-0.4104399123266176"><ele>196.8</ele><time>2026-04-29T08:17:03Z</time></trkpt><trkpt lat="43.34203800659815" lon="-0.41030643950464574"><ele>197.0</ele><time>2026-04-29T08:17:04Z</time></trkpt><trkpt lat="43.342004304301945" lon="-0.41016634761824283"><ele>197.0</ele><time>2026-04-29T08:17:05Z</time></trkpt><trkpt lat="43.34196908927862" lon="-0.41002777754344194"><ele>197.0</ele><time>2026-04-29T08:17:06Z</time></trkpt><trkpt lat="43.34192971953632" lon="-0.40988976768122504"><ele>197.0</ele><time>2026-04-29T08:17:07Z</time></trkpt><trkpt lat="43.341895618707994" lon="-0.40975049005381536"><ele>197.0</ele><time>2026-04-29T08:17:08Z</time></trkpt><trkpt lat="43.341865098071416" lon="-0.40961149102499683"><ele>197.0</ele><time>2026-04-29T08:17:09Z</time></trkpt><trkpt lat="43.3418243647773" lon="-0.4094752598951984"><ele>197.0</ele><time>2026-04-29T08:17:10Z</time></trkpt><trkpt lat="43.34179076018214" lon="-0.4093361884344424"><ele>197.0</ele><time>2026-04-29T08:17:11Z</time></trkpt><trkpt lat="43.34175546363783" lon="-0.4091976715680724"><ele>197.0</ele><time>2026-04-29T08:17:12Z</time></trkpt><trkpt lat="43.341717969936326" lon="-0.4090628897227438"><ele>197.0</ele><time>2026-04-29T08:17:13Z</time></trkpt><trkpt lat="43.34168294284296" lon="-0.40892777560423904"><ele>197.0</ele><time>2026-04-29T08:17:14Z</time></trkpt><trkpt lat="43.34164377658611" lon="-0.40879435314283047"><ele>197.2</ele><time>2026-04-29T08:17:15Z</time></trkpt><trkpt lat="43.34160558031116" lon="-0.40866187485244565"><ele>197.39999999999998</ele><time>2026-04-29T08:17:16Z</time></trkpt><trkpt lat="43.34155920290765" lon="-0.4085329396464203"><ele>197.60000000000002</ele><time>2026-04-29T08:17:17Z</time></trkpt><trkpt lat="43.34152290028077" lon="-0.40840517789241276"><ele>197.8</ele><time>2026-04-29T08:17:18Z</time></trkpt><trkpt lat="43.341487962504445" lon="-0.4082865731545724"><ele>198.0</ele><time>2026-04-29T08:17:19Z</time></trkpt><trkpt lat="43.341462481340024" lon="-0.4081832773302467"><ele>198.0</ele><time>2026-04-29T08:17:20Z</time></trkpt><trkpt lat="43.341444117070296" lon="-0.4080790375584923"><ele>198.0</ele><time>2026-04-29T08:17:21Z</time></trkpt><trkpt lat="43.34143413066943" lon="-0.40797654986154785"><ele>198.0</ele><time>2026-04-29T08:17:22Z</time></trkpt><trkpt lat="43.34139619869707" lon="-0.4079001832180583"><ele>198.0</ele><time>2026-04-29T08:17:23Z</time></trkpt><trkpt lat="43.3413688352614" lon="-0.4078214522157886"><ele>198.0</ele><time>2026-04-29T08:17:24Z</time></trkpt><trkpt lat="43.34131303986628" lon="-0.4076647614614106"><ele>198.0</ele><time>2026-04-29T08:17:26Z</time></trkpt><trkpt lat="43.34128377090478" lon="-0.4075842884699584"><ele>198.66666666666666</ele><time>2026-04-29T08:17:27Z</time></trkpt><trkpt lat="43.34123645082278" lon="-0.4074557685403284"><ele>199.33333333333331</ele><time>2026-04-29T08:17:29.001Z</time></trkpt><trkpt lat="43.34120694772046" lon="-0.4073771114432414"><ele>200.0</ele><time>2026-04-29T08:17:33.001Z</time></trkpt><trkpt lat="43.341240444595485" lon="-0.4074664161329177"><ele>200.66666666666666</ele><time>2026-04-29T08:22:07.001Z</time></trkpt><trkpt lat="43.34127145979897" lon="-0.4075504399937636"><ele>201.33333333333331</ele><time>2026-04-29T08:22:09.001Z</time></trkpt><trkpt lat="43.34131572769999" lon="-0.40767215132774326"><ele>202.0</ele><time>2026-04-29T08:22:11.001Z</time></trkpt><trkpt lat="43.34136904116279" lon="-0.40782204405763506"><ele>201.33333333333331</ele><time>2026-04-29T08:22:13.001Z</time></trkpt><trkpt lat="43.34139817054563" lon="-0.40790585577532334"><ele>200.66666666666666</ele><time>2026-04-29T08:22:14.001Z</time></trkpt><trkpt lat="43.341452548488476" lon="-0.40806060107617786"><ele>200.0</ele><time>2026-04-29T08:22:15.001Z</time></trkpt><trkpt lat="43.34150635681315" lon="-0.4081455940938533"><ele>199.33333333333331</ele><time>2026-04-29T08:22:16.001Z</time></trkpt><trkpt lat="43.341540527024975" lon="-0.4082460026240708"><ele>198.66666666666666</ele><time>2026-04-29T08:22:17.001Z</time></trkpt><trkpt lat="43.3415750167414" lon="-0.40835187967196224"><ele>198.0</ele><time>2026-04-29T08:22:18.001Z</time></trkpt><trkpt lat="43.341609180673046" lon="-0.40846209950219403"><ele>198.0</ele><time>2026-04-29T08:22:19.001Z</time></trkpt><trkpt lat="43.341644013139174" lon="-0.4085744730531122"><ele>198.0</ele><time>2026-04-29T08:22:20.001Z</time></trkpt><trkpt lat="43.34167638627572" lon="-0.40868712078963426"><ele>198.0</ele><time>2026-04-29T08:22:21.001Z</time></trkpt><trkpt lat="43.34171180656915" lon="-0.40880212652476766"><ele>198.0</ele><time>2026-04-29T08:22:22.001Z</time></trkpt><trkpt lat="43.341746453671334" lon="-0.4089200249741737"><ele>198.0</ele><time>2026-04-29T08:22:23.001Z</time></trkpt><trkpt lat="43.341780000710536" lon="-0.40904124297727895"><ele>197.8</ele><time>2026-04-29T08:22:24.001Z</time></trkpt><trkpt lat="43.34181147555461" lon="-0.40916356637842993"><ele>197.60000000000002</ele><time>2026-04-29T08:22:25.001Z</time></trkpt><trkpt lat="43.341842234423545" lon="-0.4092868981933224"><ele>197.39999999999998</ele><time>2026-04-29T08:22:26.001Z</time></trkpt><trkpt lat="43.34187331048385" lon="-0.4094102156874257"><ele>197.2</ele><time>2026-04-29T08:22:27.001Z</time></trkpt><trkpt lat="43.341904973960176" lon="-0.4095353070803174"><ele>197.0</ele><time>2026-04-29T08:22:28.001Z</time></trkpt><trkpt lat="43.34193674889712" lon="-0.4096625001275292"><ele>197.0</ele><time>2026-04-29T08:22:29.001Z</time></trkpt><trkpt lat="43.34196674236568" lon="-0.4097901924946192"><ele>197.0</ele><time>2026-04-29T08:22:30.001Z</time></trkpt><trkpt lat="43.34199891814767" lon="-0.40991727314113924"><ele>197.0</ele><time>2026-04-29T08:22:31.001Z</time></trkpt><trkpt lat="43.34203028733699" lon="-0.41004676585401667"><ele>197.0</ele><time>2026-04-29T08:22:32.001Z</time></trkpt><trkpt lat="43.34206295012773" lon="-0.410176654786983"><ele>197.0</ele><time>2026-04-29T08:22:33.001Z</time></trkpt><trkpt lat="43.34209678806295" lon="-0.41030805628163125"><ele>197.0</ele><time>2026-04-29T08:22:34.001Z</time></trkpt><trkpt lat="43.34213525671329" lon="-0.41043845989666067"><ele>197.0</ele><time>2026-04-29T08:22:35.001Z</time></trkpt><trkpt lat="43.342175171151425" lon="-0.41056694003674293"><ele>197.0</ele><time>2026-04-29T08:22:36.001Z</time></trkpt><trkpt lat="43.34221440272426" lon="-0.4106986163229244"><ele>197.0</ele><time>2026-04-29T08:22:37.001Z</time></trkpt><trkpt lat="43.34225035663218" lon="-0.41082459559220247"><ele>197.0</ele><time>2026-04-29T08:22:38.001Z</time></trkpt><trkpt lat="43.342294686753256" lon="-0.4109563570642837"><ele>197.0</ele><time>2026-04-29T08:22:39.001Z</time></trkpt><trkpt lat="43.342338194667704" lon="-0.41109000216898217"><ele>197.0</ele><time>2026-04-29T08:22:40.001Z</time></trkpt><trkpt lat="43.34238005466822" lon="-0.4112213082729988"><ele>197.0</ele><time>2026-04-29T08:22:41.001Z</time></trkpt><trkpt lat="43.342423663837316" lon="-0.4113475170446016"><ele>197.0</ele><time>2026-04-29T08:22:42.001Z</time></trkpt><trkpt lat="43.34246847209007" lon="-0.4114799785909616"><ele>197.0</ele><time>2026-04-29T08:22:43.001Z</time></trkpt><trkpt lat="43.34251306416554" lon="-0.4116112627299613"><ele>196.8</ele><time>2026-04-29T08:22:44.001Z</time></trkpt><trkpt lat="43.34255934100718" lon="-0.411739369032224"><ele>196.6</ele><time>2026-04-29T08:22:45.001Z</time></trkpt><trkpt lat="43.34260253216019" lon="-0.41186742713081703"><ele>196.4</ele><time>2026-04-29T08:22:46.001Z</time></trkpt><trkpt lat="43.34264609694291" lon="-0.41199740625369274"><ele>196.20000000000002</ele><time>2026-04-29T08:22:47.001Z</time></trkpt><trkpt lat="43.34268903614239" lon="-0.4121293273392551"><ele>196.0</ele><time>2026-04-29T08:22:48.001Z</time></trkpt><trkpt lat="43.34273165254127" lon="-0.412261599238978"><ele>197.4</ele><time>2026-04-29T08:22:49.001Z</time></trkpt><trkpt lat="43.34277407506966" lon="-0.41239328025806743"><ele>198.8</ele><time>2026-04-29T08:22:50Z</time></trkpt><trkpt lat="43.342818321064726" lon="-0.41252466406720506"><ele>200.20000000000002</ele><time>2026-04-29T08:22:51Z</time></trkpt><trkpt lat="43.34285931526916" lon="-0.4126567952527353"><ele>201.60000000000002</ele><time>2026-04-29T08:22:52Z</time></trkpt><trkpt lat="43.34289829787306" lon="-0.41279240511268206"><ele>203.0</ele><time>2026-04-29T08:22:53Z</time></trkpt><trkpt lat="43.342933890687675" lon="-0.41292440610759035"><ele>202.4</ele><time>2026-04-29T08:22:54Z</time></trkpt><trkpt lat="43.342971498180894" lon="-0.4130606260738362"><ele>201.8</ele><time>2026-04-29T08:22:55Z</time></trkpt><trkpt lat="43.343007547431945" lon="-0.41319590911486626"><ele>201.2</ele><time>2026-04-29T08:22:56Z</time></trkpt><trkpt lat="43.34304406127252" lon="-0.4133325489831303"><ele>200.6</ele><time>2026-04-29T08:22:57Z</time></trkpt><trkpt lat="43.34307982048874" lon="-0.413466834844851"><ele>200.0</ele><time>2026-04-29T08:22:58Z</time></trkpt><trkpt lat="43.34311706417169" lon="-0.41360211526229235"><ele>199.0</ele><time>2026-04-29T08:22:59Z</time></trkpt><trkpt lat="43.34315050615157" lon="-0.4137395671856301"><ele>198.0</ele><time>2026-04-29T08:23:00Z</time></trkpt><trkpt lat="43.34318612727212" lon="-0.4138729312146847"><ele>197.0</ele><time>2026-04-29T08:23:01Z</time></trkpt><trkpt lat="43.3432238136837" lon="-0.4140102541978704"><ele>196.0</ele><time>2026-04-29T08:23:02Z</time></trkpt><trkpt lat="43.34325799782646" lon="-0.41414608654746193"><ele>195.0</ele><time>2026-04-29T08:23:03Z</time></trkpt><trkpt lat="43.343294482204044" lon="-0.41428061638351465"><ele>195.0</ele><time>2026-04-29T08:23:04Z</time></trkpt><trkpt lat="43.34334471621794" lon="-0.41440847408257153"><ele>195.0</ele><time>2026-04-29T08:23:05Z</time></trkpt><trkpt lat="43.343364441983006" lon="-0.4145489755187829"><ele>195.0</ele><time>2026-04-29T08:23:06Z</time></trkpt><trkpt lat="43.34341569865856" lon="-0.41467703154799834"><ele>195.0</ele><time>2026-04-29T08:23:07Z</time></trkpt><trkpt lat="43.34345055971106" lon="-0.41480892608997616"><ele>195.0</ele><time>2026-04-29T08:23:08Z</time></trkpt><trkpt lat="43.34348601222189" lon="-0.41494305835264783"><ele>195.2</ele><time>2026-04-29T08:23:09Z</time></trkpt><trkpt lat="43.343521249871316" lon="-0.4150763777177708"><ele>195.4</ele><time>2026-04-29T08:23:10Z</time></trkpt><trkpt lat="43.34354232339323" lon="-0.4152155518309892"><ele>195.60000000000002</ele><time>2026-04-29T08:23:11Z</time></trkpt><trkpt lat="43.343593949537656" lon="-0.4153382242197219"><ele>195.8</ele><time>2026-04-29T08:23:12Z</time></trkpt><trkpt lat="43.34363337429244" lon="-0.41547365871496966"><ele>196.0</ele><time>2026-04-29T08:23:13Z</time></trkpt><trkpt lat="43.34367323342587" lon="-0.41560312689321854"><ele>196.0</ele><time>2026-04-29T08:23:14Z</time></trkpt><trkpt lat="43.343715806261066" lon="-0.41573620474021755"><ele>196.0</ele><time>2026-04-29T08:23:15Z</time></trkpt><trkpt lat="43.34375875675719" lon="-0.41586841521036066"><ele>196.0</ele><time>2026-04-29T08:23:16Z</time></trkpt><trkpt lat="43.34380398704307" lon="-0.41600251065199373"><ele>196.0</ele><time>2026-04-29T08:23:17Z</time></trkpt><trkpt lat="43.34384858076243" lon="-0.416134186945095"><ele>196.0</ele><time>2026-04-29T08:23:18Z</time></trkpt><trkpt lat="43.34389320116489" lon="-0.4162659419628821"><ele>195.60000000000002</ele><time>2026-04-29T08:23:19Z</time></trkpt><trkpt lat="43.34393860268881" lon="-0.416400003535366"><ele>195.2</ele><time>2026-04-29T08:23:20Z</time></trkpt><trkpt lat="43.34396934880619" lon="-0.41654295415137793"><ele>194.8</ele><time>2026-04-29T08:23:21Z</time></trkpt><trkpt lat="43.3440141821046" lon="-0.4166763528037791"><ele>194.39999999999998</ele><time>2026-04-29T08:23:22Z</time></trkpt><trkpt lat="43.34405855747413" lon="-0.41680865291734226"><ele>194.0</ele><time>2026-04-29T08:23:23Z</time></trkpt><trkpt lat="43.344116550133464" lon="-0.416930124501358"><ele>194.0</ele><time>2026-04-29T08:23:24Z</time></trkpt><trkpt lat="43.34415966953472" lon="-0.41706440894597213"><ele>194.0</ele><time>2026-04-29T08:23:25Z</time></trkpt><trkpt lat="43.344201262443896" lon="-0.4171977769762503"><ele>194.0</ele><time>2026-04-29T08:23:26Z</time></trkpt><trkpt lat="43.34424200657629" lon="-0.4173334683934268"><ele>194.0</ele><time>2026-04-29T08:23:27Z</time></trkpt><trkpt lat="43.34428104559946" lon="-0.417467297348877"><ele>194.0</ele><time>2026-04-29T08:23:28Z</time></trkpt><trkpt lat="43.34430663997251" lon="-0.41761199235971286"><ele>194.0</ele><time>2026-04-29T08:23:29Z</time></trkpt><trkpt lat="43.34434425053842" lon="-0.4177476543648703"><ele>194.0</ele><time>2026-04-29T08:23:30Z</time></trkpt><trkpt lat="43.34438042906767" lon="-0.41788343519626736"><ele>194.0</ele><time>2026-04-29T08:23:31Z</time></trkpt><trkpt lat="43.34441234229778" lon="-0.41801949167474"><ele>194.0</ele><time>2026-04-29T08:23:32Z</time></trkpt><trkpt lat="43.344442018868484" lon="-0.41815767449170577"><ele>194.0</ele><time>2026-04-29T08:23:33Z</time></trkpt><trkpt lat="43.34447277380876" lon="-0.4182974544261443"><ele>194.0</ele><time>2026-04-29T08:23:34Z</time></trkpt><trkpt lat="43.34450355310885" lon="-0.41843692535462934"><ele>194.0</ele><time>2026-04-29T08:23:35Z</time></trkpt><trkpt lat="43.34453387370962" lon="-0.41857689093452677"><ele>194.0</ele><time>2026-04-29T08:23:36Z</time></trkpt><trkpt lat="43.3445660283581" lon="-0.41871559418986665"><ele>194.0</ele><time>2026-04-29T08:23:37Z</time></trkpt><trkpt lat="43.344588136698306" lon="-0.4188606475562733"><ele>194.0</ele><time>2026-04-29T08:23:38Z</time></trkpt><trkpt lat="43.34461336182693" lon="-0.4190048007250804"><ele>194.0</ele><time>2026-04-29T08:23:39Z</time></trkpt><trkpt lat="43.34463715664501" lon="-0.4191459867611685"><ele>194.0</ele><time>2026-04-29T08:23:40Z</time></trkpt><trkpt lat="43.3446601426953" lon="-0.4192866394194334"><ele>194.0</ele><time>2026-04-29T08:23:41Z</time></trkpt><trkpt lat="43.34468353744952" lon="-0.4194317695412972"><ele>194.0</ele><time>2026-04-29T08:23:42Z</time></trkpt><trkpt lat="43.344709485795974" lon="-0.41957341832301404"><ele>194.0</ele><time>2026-04-29T08:23:43Z</time></trkpt><trkpt lat="43.34473238249752" lon="-0.4197142554267689"><ele>194.0</ele><time>2026-04-29T08:23:44Z</time></trkpt><trkpt lat="43.34475359604728" lon="-0.4198590718135519"><ele>194.0</ele><time>2026-04-29T08:23:45Z</time></trkpt><trkpt lat="43.34477662553709" lon="-0.4199985055709485"><ele>194.0</ele><time>2026-04-29T08:23:46Z</time></trkpt><trkpt lat="43.34479767634174" lon="-0.42014019947404424"><ele>194.0</ele><time>2026-04-29T08:23:47Z</time></trkpt><trkpt lat="43.344816070905914" lon="-0.42028126240555924"><ele>194.0</ele><time>2026-04-29T08:23:48Z</time></trkpt><trkpt lat="43.344834444817984" lon="-0.42042073542432595"><ele>193.79999999999998</ele><time>2026-04-29T08:23:49Z</time></trkpt><trkpt lat="43.344856303770435" lon="-0.42056618515042477"><ele>193.6</ele><time>2026-04-29T08:23:50Z</time></trkpt><trkpt lat="43.344877001005095" lon="-0.420711554131822"><ele>193.4</ele><time>2026-04-29T08:23:51Z</time></trkpt><trkpt lat="43.344897791828544" lon="-0.42085565522036583"><ele>193.2</ele><time>2026-04-29T08:23:52Z</time></trkpt><trkpt lat="43.34491938825544" lon="-0.42099803201639713"><ele>193.0</ele><time>2026-04-29T08:23:53Z</time></trkpt><trkpt lat="43.344941429200006" lon="-0.42114046423443763"><ele>193.0</ele><time>2026-04-29T08:23:54Z</time></trkpt><trkpt lat="43.34496466681201" lon="-0.4212793292316201"><ele>193.0</ele><time>2026-04-29T08:23:55Z</time></trkpt><trkpt lat="43.34498810946248" lon="-0.42141593116050474"><ele>193.0</ele><time>2026-04-29T08:23:56Z</time></trkpt><trkpt lat="43.34500610961001" lon="-0.42154636413568264"><ele>193.0</ele><time>2026-04-29T08:23:57Z</time></trkpt><trkpt lat="43.34502317038431" lon="-0.4216736264061131"><ele>193.0</ele><time>2026-04-29T08:23:58Z</time></trkpt><trkpt lat="43.34504314310045" lon="-0.42179569325283206"><ele>193.0</ele><time>2026-04-29T08:23:59Z</time></trkpt><trkpt lat="43.34506193511817" lon="-0.4219089443694152"><ele>193.0</ele><time>2026-04-29T08:24:00Z</time></trkpt><trkpt lat="43.345088168977405" lon="-0.42201141404884535"><ele>193.0</ele><time>2026-04-29T08:24:01Z</time></trkpt><trkpt lat="43.34512144821191" lon="-0.42211493402402894"><ele>193.0</ele><time>2026-04-29T08:24:02Z</time></trkpt><trkpt lat="43.34515993941308" lon="-0.42220312096135865"><ele>193.0</ele><time>2026-04-29T08:24:03Z</time></trkpt><trkpt lat="43.345288686095444" lon="-0.4223798402851032"><ele>192.83333333333331</ele><time>2026-04-29T08:24:05Z</time></trkpt><trkpt lat="43.345326732828056" lon="-0.4224578217014922"><ele>192.66666666666666</ele><time>2026-04-29T08:24:06Z</time></trkpt><trkpt lat="43.345339511099446" lon="-0.42257140170325697"><ele>192.5</ele><time>2026-04-29T08:24:07.001Z</time></trkpt><trkpt lat="43.345306192071476" lon="-0.42268775511899476"><ele>192.33333333333331</ele><time>2026-04-29T08:24:08.001Z</time></trkpt><trkpt lat="43.34526992710924" lon="-0.4227967490054732"><ele>192.16666666666666</ele><time>2026-04-29T08:24:09.001Z</time></trkpt><trkpt lat="43.34523161280363" lon="-0.4229006573368182"><ele>192.0</ele><time>2026-04-29T08:24:10.001Z</time></trkpt><trkpt lat="43.34521985908066" lon="-0.42302519188672477"><ele>192.0</ele><time>2026-04-29T08:24:11.001Z</time></trkpt><trkpt lat="43.34523269596606" lon="-0.4231476802181311"><ele>192.0</ele><time>2026-04-29T08:24:12.001Z</time></trkpt><trkpt lat="43.3452342009562" lon="-0.42327028167953695"><ele>192.0</ele><time>2026-04-29T08:24:13.001Z</time></trkpt><trkpt lat="43.34523898857595" lon="-0.4233946068691069"><ele>192.0</ele><time>2026-04-29T08:24:14.001Z</time></trkpt><trkpt lat="43.34525657366306" lon="-0.4235184378026543"><ele>192.0</ele><time>2026-04-29T08:24:15.001Z</time></trkpt><trkpt lat="43.34525756200018" lon="-0.42364701354684703"><ele>192.0</ele><time>2026-04-29T08:24:16.001Z</time></trkpt><trkpt lat="43.34525680123886" lon="-0.4237715497965731"><ele>192.0</ele><time>2026-04-29T08:24:17.001Z</time></trkpt><trkpt lat="43.34524773091079" lon="-0.4239023939618776"><ele>192.0</ele><time>2026-04-29T08:24:18.001Z</time></trkpt><trkpt lat="43.345219462239946" lon="-0.42402429796535857"><ele>192.0</ele><time>2026-04-29T08:24:19.001Z</time></trkpt><trkpt lat="43.345207190398725" lon="-0.4241528501778487"><ele>192.0</ele><time>2026-04-29T08:24:20.001Z</time></trkpt><trkpt lat="43.34518369834264" lon="-0.4242807953480858"><ele>191.8</ele><time>2026-04-29T08:24:21.001Z</time></trkpt><trkpt lat="43.34515881756462" lon="-0.4244096986687905"><ele>191.6</ele><time>2026-04-29T08:24:22.001Z</time></trkpt><trkpt lat="43.34514138676261" lon="-0.4245400609457114"><ele>191.4</ele><time>2026-04-29T08:24:23.001Z</time></trkpt><trkpt lat="43.3450910920004" lon="-0.4246618363319229"><ele>191.20000000000002</ele><time>2026-04-29T08:24:24.001Z</time></trkpt><trkpt lat="43.345061578721456" lon="-0.424794575745692"><ele>191.0</ele><time>2026-04-29T08:24:25.001Z</time></trkpt><trkpt lat="43.345013894273016" lon="-0.424918807071435"><ele>190.8</ele><time>2026-04-29T08:24:26.001Z</time></trkpt><trkpt lat="43.344964331527365" lon="-0.4250354911977941"><ele>190.60000000000002</ele><time>2026-04-29T08:24:27.001Z</time></trkpt><trkpt lat="43.34491027379112" lon="-0.42516074335636855"><ele>190.4</ele><time>2026-04-29T08:24:28.001Z</time></trkpt><trkpt lat="43.34485467070402" lon="-0.4252793072259672"><ele>190.2</ele><time>2026-04-29T08:24:29.001Z</time></trkpt><trkpt lat="43.34479048329898" lon="-0.42539652895634167"><ele>190.0</ele><time>2026-04-29T08:24:30.001Z</time></trkpt><trkpt lat="43.344727872673495" lon="-0.42550940563948153"><ele>190.4</ele><time>2026-04-29T08:24:31.001Z</time></trkpt><trkpt lat="43.34466631826204" lon="-0.42562324436292104"><ele>190.8</ele><time>2026-04-29T08:24:32.001Z</time></trkpt><trkpt lat="43.34460796649477" lon="-0.4257366182361262"><ele>191.2</ele><time>2026-04-29T08:24:33.001Z</time></trkpt><trkpt lat="43.344547352822715" lon="-0.42584719031387575"><ele>191.6</ele><time>2026-04-29T08:24:34.001Z</time></trkpt><trkpt lat="43.34449011775533" lon="-0.42596065315378545"><ele>192.0</ele><time>2026-04-29T08:24:35.001Z</time></trkpt><trkpt lat="43.34443212425678" lon="-0.4260741945559604"><ele>192.0</ele><time>2026-04-29T08:24:36.001Z</time></trkpt><trkpt lat="43.34437363509341" lon="-0.4261908189492456"><ele>192.0</ele><time>2026-04-29T08:24:37.001Z</time></trkpt><trkpt lat="43.34431274327445" lon="-0.4263129435055342"><ele>192.0</ele><time>2026-04-29T08:24:38.001Z</time></trkpt><trkpt lat="43.34426104159767" lon="-0.42643421512268026"><ele>192.0</ele><time>2026-04-29T08:24:39.001Z</time></trkpt><trkpt lat="43.344215621959215" lon="-0.4265634360916816"><ele>192.0</ele><time>2026-04-29T08:24:40.001Z</time></trkpt><trkpt lat="43.34417433912192" lon="-0.426695208963865"><ele>192.0</ele><time>2026-04-29T08:24:41.001Z</time></trkpt><trkpt lat="43.34413848774841" lon="-0.4268298435700676"><ele>192.0</ele><time>2026-04-29T08:24:42.001Z</time></trkpt><trkpt lat="43.344108648194236" lon="-0.4269726145780812"><ele>192.0</ele><time>2026-04-29T08:24:43.001Z</time></trkpt><trkpt lat="43.34407917311993" lon="-0.4271152321643037"><ele>192.0</ele><time>2026-04-29T08:24:44.001Z</time></trkpt><trkpt lat="43.34405759963314" lon="-0.4272562374683355"><ele>192.0</ele><time>2026-04-29T08:24:45.001Z</time></trkpt><trkpt lat="43.34404119843492" lon="-0.4274061984644153"><ele>192.0</ele><time>2026-04-29T08:24:46.001Z</time></trkpt><trkpt lat="43.34403270523726" lon="-0.4275507408951352"><ele>192.0</ele><time>2026-04-29T08:24:47.001Z</time></trkpt><trkpt lat="43.34402999546508" lon="-0.4276981391728283"><ele>192.0</ele><time>2026-04-29T08:24:48.001Z</time></trkpt><trkpt lat="43.34403398004742" lon="-0.4278470718091409"><ele>192.0</ele><time>2026-04-29T08:24:49.001Z</time></trkpt><trkpt lat="43.34404540573381" lon="-0.4279943062304789"><ele>192.0</ele><time>2026-04-29T08:24:50.001Z</time></trkpt><trkpt lat="43.344060194305946" lon="-0.42814139551442026"><ele>192.0</ele><time>2026-04-29T08:24:51.001Z</time></trkpt><trkpt lat="43.344080335686314" lon="-0.4282897999342989"><ele>192.0</ele><time>2026-04-29T08:24:52.001Z</time></trkpt><trkpt lat="43.34410912291461" lon="-0.42843229374973557"><ele>192.0</ele><time>2026-04-29T08:24:53.001Z</time></trkpt><trkpt lat="43.34414186649268" lon="-0.4285742256837236"><ele>192.0</ele><time>2026-04-29T08:24:54.001Z</time></trkpt><trkpt lat="43.34417882790623" lon="-0.4287161886483503"><ele>192.0</ele><time>2026-04-29T08:24:55.001Z</time></trkpt><trkpt lat="43.34421507244678" lon="-0.42885471725647767"><ele>192.0</ele><time>2026-04-29T08:24:56Z</time></trkpt><trkpt lat="43.344253012980595" lon="-0.4289924963603138"><ele>192.0</ele><time>2026-04-29T08:24:57Z</time></trkpt><trkpt lat="43.3442928884505" lon="-0.42912722719786073"><ele>192.0</ele><time>2026-04-29T08:24:58Z</time></trkpt><trkpt lat="43.34432844303996" lon="-0.4292652263430875"><ele>192.0</ele><time>2026-04-29T08:24:59Z</time></trkpt><trkpt lat="43.34436302376643" lon="-0.42940102001667807"><ele>192.0</ele><time>2026-04-29T08:25:00Z</time></trkpt><trkpt lat="43.34439349491116" lon="-0.4295428763823584"><ele>191.8</ele><time>2026-04-29T08:25:01Z</time></trkpt><trkpt lat="43.344423489597986" lon="-0.4296823239081189"><ele>191.6</ele><time>2026-04-29T08:25:02Z</time></trkpt><trkpt lat="43.34444743085374" lon="-0.4298160341058107"><ele>191.4</ele><time>2026-04-29T08:25:03Z</time></trkpt><trkpt lat="43.34446600292602" lon="-0.42994600676106975"><ele>191.20000000000002</ele><time>2026-04-29T08:25:04Z</time></trkpt><trkpt lat="43.34448078004443" lon="-0.43006663720305854"><ele>191.0</ele><time>2026-04-29T08:25:05Z</time></trkpt><trkpt lat="43.34449600975827" lon="-0.43017783407296495"><ele>191.0</ele><time>2026-04-29T08:25:06Z</time></trkpt><trkpt lat="43.34451188183234" lon="-0.4302786159262286"><ele>191.0</ele><time>2026-04-29T08:25:07Z</time></trkpt><trkpt lat="43.344536428406315" lon="-0.43036398072160625"><ele>191.0</ele><time>2026-04-29T08:25:08Z</time></trkpt><trkpt lat="43.344574624884594" lon="-0.4304393136643642"><ele>191.0</ele><time>2026-04-29T08:25:09Z</time></trkpt><trkpt lat="43.344628002750106" lon="-0.4305016897532461"><ele>191.0</ele><time>2026-04-29T08:25:10Z</time></trkpt><trkpt lat="43.344678202768876" lon="-0.4305646077702007"><ele>191.0</ele><time>2026-04-29T08:25:11Z</time></trkpt><trkpt lat="43.344716891258706" lon="-0.43065249460715793"><ele>191.0</ele><time>2026-04-29T08:25:12Z</time></trkpt><trkpt lat="43.3447272518525" lon="-0.43075331404449996"><ele>190.83333333333331</ele><time>2026-04-29T08:25:13Z</time></trkpt><trkpt lat="43.34470772118917" lon="-0.43086455470132723"><ele>190.66666666666666</ele><time>2026-04-29T08:25:14Z</time></trkpt><trkpt lat="43.34466585567514" lon="-0.43096808451598384"><ele>190.5</ele><time>2026-04-29T08:25:15Z</time></trkpt><trkpt lat="43.34460712950791" lon="-0.43104729599433717"><ele>190.33333333333334</ele><time>2026-04-29T08:25:16Z</time></trkpt><trkpt lat="43.34454313339232" lon="-0.4311150205403005"><ele>190.16666666666669</ele><time>2026-04-29T08:25:17Z</time></trkpt><trkpt lat="43.34448259543234" lon="-0.43117285241755826"><ele>190.0</ele><time>2026-04-29T08:25:18Z</time></trkpt><trkpt lat="43.344467464704486" lon="-0.4313129776683524"><ele>189.8</ele><time>2026-04-29T08:25:19Z</time></trkpt><trkpt lat="43.34444912806091" lon="-0.43143467230285065"><ele>189.6</ele><time>2026-04-29T08:25:20Z</time></trkpt><trkpt lat="43.34443370767669" lon="-0.4315572034878237"><ele>189.39999999999998</ele><time>2026-04-29T08:25:21Z</time></trkpt><trkpt lat="43.34441867538545" lon="-0.4316780388196054"><ele>189.2</ele><time>2026-04-29T08:25:22Z</time></trkpt><trkpt lat="43.34440324219139" lon="-0.4318071850789948"><ele>189.0</ele><time>2026-04-29T08:25:23Z</time></trkpt><trkpt lat="43.34439152251178" lon="-0.4319428479303885"><ele>189.0</ele><time>2026-04-29T08:25:24Z</time></trkpt><trkpt lat="43.34438133292486" lon="-0.43207854161028875"><ele>189.0</ele><time>2026-04-29T08:25:25Z</time></trkpt><trkpt lat="43.34437232755132" lon="-0.4322173815115909"><ele>189.0</ele><time>2026-04-29T08:25:26Z</time></trkpt><trkpt lat="43.34437005662748" lon="-0.43235750754333907"><ele>189.0</ele><time>2026-04-29T08:25:27Z</time></trkpt><trkpt lat="43.34437187941945" lon="-0.4324983455802118"><ele>189.0</ele><time>2026-04-29T08:25:28Z</time></trkpt><trkpt lat="43.34437595915239" lon="-0.43264158943944686"><ele>188.6</ele><time>2026-04-29T08:25:29Z</time></trkpt><trkpt lat="43.3443817284586" lon="-0.4327844679827535"><ele>188.2</ele><time>2026-04-29T08:25:30Z</time></trkpt><trkpt lat="43.34438924219981" lon="-0.43292931067833296"><ele>187.79999999999998</ele><time>2026-04-29T08:25:31Z</time></trkpt><trkpt lat="43.34439415734438" lon="-0.43307298129754895"><ele>187.39999999999998</ele><time>2026-04-29T08:25:32Z</time></trkpt><trkpt lat="43.34439822526893" lon="-0.43321400201179877"><ele>187.0</ele><time>2026-04-29T08:25:33Z</time></trkpt><trkpt lat="43.34440022027632" lon="-0.43335591136553214"><ele>187.0</ele><time>2026-04-29T08:25:34Z</time></trkpt><trkpt lat="43.34440393891538" lon="-0.43348936008289296"><ele>187.0</ele><time>2026-04-29T08:25:35Z</time></trkpt><trkpt lat="43.34441027362368" lon="-0.4336206480399719"><ele>187.0</ele><time>2026-04-29T08:25:36Z</time></trkpt><trkpt lat="43.34441710007456" lon="-0.43374762419468216"><ele>187.0</ele><time>2026-04-29T08:25:37Z</time></trkpt><trkpt lat="43.34442705463495" lon="-0.43386477837814286"><ele>187.0</ele><time>2026-04-29T08:25:38Z</time></trkpt><trkpt lat="43.34444175783045" lon="-0.4339792350398149"><ele>186.66666666666669</ele><time>2026-04-29T08:25:39Z</time></trkpt><trkpt lat="43.34446712737805" lon="-0.4340907853894684"><ele>186.33333333333334</ele><time>2026-04-29T08:25:40Z</time></trkpt><trkpt lat="43.34451742961732" lon="-0.43418878178519366"><ele>186.0</ele><time>2026-04-29T08:25:41Z</time></trkpt><trkpt lat="43.34455807261831" lon="-0.43428846457731096"><ele>185.66666666666666</ele><time>2026-04-29T08:25:42Z</time></trkpt><trkpt lat="43.34457269813814" lon="-0.4344030755196851"><ele>185.33333333333331</ele><time>2026-04-29T08:25:43Z</time></trkpt><trkpt lat="43.34455688436093" lon="-0.43452250955430893"><ele>185.0</ele><time>2026-04-29T08:25:44Z</time></trkpt><trkpt lat="43.34452379695068" lon="-0.4346335520456313"><ele>184.6</ele><time>2026-04-29T08:25:45Z</time></trkpt><trkpt lat="43.34448400021956" lon="-0.4347379751082939"><ele>184.2</ele><time>2026-04-29T08:25:46Z</time></trkpt><trkpt lat="43.3444628961385" lon="-0.4348569133762468"><ele>183.8</ele><time>2026-04-29T08:25:47Z</time></trkpt><trkpt lat="43.344460783779205" lon="-0.4349828913707571"><ele>183.4</ele><time>2026-04-29T08:25:48Z</time></trkpt><trkpt lat="43.344487558493476" lon="-0.43510629805514023"><ele>183.0</ele><time>2026-04-29T08:25:49Z</time></trkpt><trkpt lat="43.344484810193244" lon="-0.4352367139446163"><ele>183.0</ele><time>2026-04-29T08:25:50Z</time></trkpt><trkpt lat="43.34450999909205" lon="-0.43537450746320594"><ele>183.0</ele><time>2026-04-29T08:25:51Z</time></trkpt><trkpt lat="43.34451022527127" lon="-0.4355263219961654"><ele>183.0</ele><time>2026-04-29T08:25:52Z</time></trkpt><trkpt lat="43.34453061158587" lon="-0.4356429496004268"><ele>183.0</ele><time>2026-04-29T08:25:53Z</time></trkpt><trkpt lat="43.34454477552625" lon="-0.4357779163164949"><ele>183.0</ele><time>2026-04-29T08:25:54Z</time></trkpt><trkpt lat="43.34455813436551" lon="-0.4359127767574009"><ele>182.4</ele><time>2026-04-29T08:25:55Z</time></trkpt><trkpt lat="43.34456949336578" lon="-0.4360564098017159"><ele>181.8</ele><time>2026-04-29T08:25:56Z</time></trkpt><trkpt lat="43.34458467454516" lon="-0.43619577446928637"><ele>181.2</ele><time>2026-04-29T08:25:57Z</time></trkpt><trkpt lat="43.34459555590095" lon="-0.4363371110622394"><ele>180.6</ele><time>2026-04-29T08:25:58Z</time></trkpt><trkpt lat="43.344607166840305" lon="-0.4364824729174241"><ele>180.0</ele><time>2026-04-29T08:25:59Z</time></trkpt><trkpt lat="43.3446195694658" lon="-0.4366301875358034"><ele>180.0</ele><time>2026-04-29T08:26:00Z</time></trkpt><trkpt lat="43.3446286036622" lon="-0.4367819686791271"><ele>180.0</ele><time>2026-04-29T08:26:01Z</time></trkpt><trkpt lat="43.34466012356717" lon="-0.43697108656800315"><ele>180.0</ele><time>2026-04-29T08:26:02Z</time></trkpt><trkpt lat="43.344680881366855" lon="-0.4371278275694808"><ele>180.0</ele><time>2026-04-29T08:26:03Z</time></trkpt><trkpt lat="43.34466307874432" lon="-0.43724771354353037"><ele>179.8</ele><time>2026-04-29T08:26:04Z</time></trkpt><trkpt lat="43.34466870838217" lon="-0.43739502256143303"><ele>179.6</ele><time>2026-04-29T08:26:05Z</time></trkpt><trkpt lat="43.34466486433871" lon="-0.43755662434311315"><ele>179.39999999999998</ele><time>2026-04-29T08:26:06Z</time></trkpt><trkpt lat="43.34466686754284" lon="-0.4376967538029056"><ele>179.2</ele><time>2026-04-29T08:26:07Z</time></trkpt><trkpt lat="43.344670782447984" lon="-0.4378482909888467"><ele>179.0</ele><time>2026-04-29T08:26:08Z</time></trkpt><trkpt lat="43.34468317719638" lon="-0.4380181391520789"><ele>178.6</ele><time>2026-04-29T08:26:09Z</time></trkpt><trkpt lat="43.34467209942067" lon="-0.43815353982020555"><ele>178.2</ele><time>2026-04-29T08:26:10Z</time></trkpt><trkpt lat="43.344665810903656" lon="-0.43830480796155463"><ele>177.79999999999998</ele><time>2026-04-29T08:26:11Z</time></trkpt><trkpt lat="43.344662642777536" lon="-0.43845943626402734"><ele>177.39999999999998</ele><time>2026-04-29T08:26:12Z</time></trkpt><trkpt lat="43.34466053033211" lon="-0.43860670398722346"><ele>177.0</ele><time>2026-04-29T08:26:13Z</time></trkpt><trkpt lat="43.34464042772412" lon="-0.4387527094636628"><ele>177.0</ele><time>2026-04-29T08:26:14Z</time></trkpt><trkpt lat="43.34464925305594" lon="-0.43890044184109855"><ele>177.0</ele><time>2026-04-29T08:26:15Z</time></trkpt><trkpt lat="43.344649862586145" lon="-0.4390660796971275"><ele>177.0</ele><time>2026-04-29T08:26:16.001Z</time></trkpt><trkpt lat="43.34464337599596" lon="-0.43921866978362484"><ele>177.0</ele><time>2026-04-29T08:26:17.001Z</time></trkpt><trkpt lat="43.3446477866994" lon="-0.43937169419990296"><ele>177.0</ele><time>2026-04-29T08:26:18.001Z</time></trkpt><trkpt lat="43.34464720512505" lon="-0.43953034274212444"><ele>177.0</ele><time>2026-04-29T08:26:19.001Z</time></trkpt><trkpt lat="43.344652048138066" lon="-0.43968897386113"><ele>177.0</ele><time>2026-04-29T08:26:20.001Z</time></trkpt><trkpt lat="43.34465408931398" lon="-0.43984402875301964"><ele>177.0</ele><time>2026-04-29T08:26:21.001Z</time></trkpt><trkpt lat="43.344656213967674" lon="-0.4400000587315664"><ele>177.0</ele><time>2026-04-29T08:26:22.001Z</time></trkpt><trkpt lat="43.344662792086986" lon="-0.4401539435008711"><ele>177.0</ele><time>2026-04-29T08:26:23.001Z</time></trkpt><trkpt lat="43.344665740496495" lon="-0.44031354532370104"><ele>177.0</ele><time>2026-04-29T08:26:24.001Z</time></trkpt><trkpt lat="43.344673455420775" lon="-0.44046674076037745"><ele>177.0</ele><time>2026-04-29T08:26:25.001Z</time></trkpt><trkpt lat="43.34467264074414" lon="-0.4406208554346593"><ele>177.0</ele><time>2026-04-29T08:26:26.001Z</time></trkpt><trkpt lat="43.34466982290589" lon="-0.4407747913622283"><ele>177.0</ele><time>2026-04-29T08:26:27.001Z</time></trkpt><trkpt lat="43.34467615520513" lon="-0.44092777041376646"><ele>177.0</ele><time>2026-04-29T08:26:28.001Z</time></trkpt><trkpt lat="43.34467518367249" lon="-0.44108226916059107"><ele>177.0</ele><time>2026-04-29T08:26:29.001Z</time></trkpt><trkpt lat="43.34467268933256" lon="-0.44123982171599624"><ele>176.6</ele><time>2026-04-29T08:26:30.001Z</time></trkpt><trkpt lat="43.34467410944223" lon="-0.4413955576850213"><ele>176.2</ele><time>2026-04-29T08:26:31.001Z</time></trkpt><trkpt lat="43.34467111858147" lon="-0.4415501338506019"><ele>175.8</ele><time>2026-04-29T08:26:32.001Z</time></trkpt><trkpt lat="43.344673106212916" lon="-0.44169846179155475"><ele>175.4</ele><time>2026-04-29T08:26:33.001Z</time></trkpt><trkpt lat="43.34467182835701" lon="-0.4418544625960682"><ele>175.0</ele><time>2026-04-29T08:26:34.001Z</time></trkpt><trkpt lat="43.3446745102682" lon="-0.44200721028401563"><ele>174.6</ele><time>2026-04-29T08:26:35.001Z</time></trkpt><trkpt lat="43.34466867206025" lon="-0.4421631335358492"><ele>174.2</ele><time>2026-04-29T08:26:36.001Z</time></trkpt><trkpt lat="43.34466651973715" lon="-0.4423151574216595"><ele>173.8</ele><time>2026-04-29T08:26:37.001Z</time></trkpt><trkpt lat="43.34466438660583" lon="-0.4424661208438835"><ele>173.4</ele><time>2026-04-29T08:26:38.001Z</time></trkpt><trkpt lat="43.34466721345748" lon="-0.4426170209832313"><ele>173.0</ele><time>2026-04-29T08:26:39.001Z</time></trkpt><trkpt lat="43.34467412593486" lon="-0.4427649538511243"><ele>173.0</ele><time>2026-04-29T08:26:40.001Z</time></trkpt><trkpt lat="43.34465969967177" lon="-0.4429217861932845"><ele>173.0</ele><time>2026-04-29T08:26:41.001Z</time></trkpt><trkpt lat="43.344651458613434" lon="-0.4430827325319716"><ele>173.0</ele><time>2026-04-29T08:26:42.001Z</time></trkpt><trkpt lat="43.34464854550427" lon="-0.4432337957711884"><ele>173.0</ele><time>2026-04-29T08:26:43.001Z</time></trkpt><trkpt lat="43.3446396589273" lon="-0.4433886287121649"><ele>171.60000000000002</ele><time>2026-04-29T08:26:44.001Z</time></trkpt><trkpt lat="43.344639248515136" lon="-0.4435378905779313"><ele>170.20000000000002</ele><time>2026-04-29T08:26:45.001Z</time></trkpt><trkpt lat="43.34463217839521" lon="-0.44369821080408994"><ele>168.8</ele><time>2026-04-29T08:26:46.001Z</time></trkpt><trkpt lat="43.34463751777407" lon="-0.44384969050075046"><ele>167.4</ele><time>2026-04-29T08:26:47.001Z</time></trkpt><trkpt lat="43.34463772939875" lon="-0.44400372385096837"><ele>166.0</ele><time>2026-04-29T08:26:48.001Z</time></trkpt><trkpt lat="43.34465360519708" lon="-0.4441568681213718"><ele>164.8</ele><time>2026-04-29T08:26:49.001Z</time></trkpt><trkpt lat="43.34465587555375" lon="-0.44431591574867046"><ele>163.60000000000002</ele><time>2026-04-29T08:26:50.001Z</time></trkpt><trkpt lat="43.34466647103864" lon="-0.44447037574942266"><ele>162.4</ele><time>2026-04-29T08:26:51.001Z</time></trkpt><trkpt lat="43.34467451476846" lon="-0.4446177611948013"><ele>161.2</ele><time>2026-04-29T08:26:52.001Z</time></trkpt><trkpt lat="43.34468758700752" lon="-0.4447725230090084"><ele>160.0</ele><time>2026-04-29T08:26:53.001Z</time></trkpt><trkpt lat="43.3447030180694" lon="-0.44492915387353854"><ele>159.75</ele><time>2026-04-29T08:26:54.001Z</time></trkpt><trkpt lat="43.34471748896948" lon="-0.44508334186565734"><ele>159.5</ele><time>2026-04-29T08:26:55.001Z</time></trkpt><trkpt lat="43.344736325617504" lon="-0.44523468008211875"><ele>159.25</ele><time>2026-04-29T08:26:56.001Z</time></trkpt><trkpt lat="43.344751760824984" lon="-0.44538433772288005"><ele>159.0</ele><time>2026-04-29T08:26:57.001Z</time></trkpt><trkpt lat="43.344770206991214" lon="-0.4455410508343379"><ele>159.0</ele><time>2026-04-29T08:26:58.001Z</time></trkpt><trkpt lat="43.34478915787383" lon="-0.44569524527653065"><ele>159.0</ele><time>2026-04-29T08:26:59.001Z</time></trkpt><trkpt lat="43.344811196764304" lon="-0.44584561700670916"><ele>159.0</ele><time>2026-04-29T08:27:00.001Z</time></trkpt><trkpt lat="43.34483290500363" lon="-0.4460009008124433"><ele>159.0</ele><time>2026-04-29T08:27:01.001Z</time></trkpt><trkpt lat="43.34485684995271" lon="-0.4461438748206673"><ele>159.0</ele><time>2026-04-29T08:27:02Z</time></trkpt><trkpt lat="43.34488061404438" lon="-0.4462935247273443"><ele>158.6</ele><time>2026-04-29T08:27:03Z</time></trkpt><trkpt lat="43.34490898642566" lon="-0.4464388162305623"><ele>158.2</ele><time>2026-04-29T08:27:04Z</time></trkpt><trkpt lat="43.34493565096079" lon="-0.44658922895671244"><ele>157.79999999999998</ele><time>2026-04-29T08:27:05Z</time></trkpt><trkpt lat="43.344963053379225" lon="-0.4467338446426"><ele>157.4</ele><time>2026-04-29T08:27:06Z</time></trkpt><trkpt lat="43.34499256831421" lon="-0.4468817489816776"><ele>157.0</ele><time>2026-04-29T08:27:07Z</time></trkpt><trkpt lat="43.345024795784504" lon="-0.4470244745442121"><ele>157.2</ele><time>2026-04-29T08:27:08Z</time></trkpt><trkpt lat="43.3450585283211" lon="-0.4471689914014169"><ele>157.39999999999998</ele><time>2026-04-29T08:27:09Z</time></trkpt><trkpt lat="43.34509233182373" lon="-0.44731732897319954"><ele>157.60000000000002</ele><time>2026-04-29T08:27:10Z</time></trkpt><trkpt lat="43.345127869741624" lon="-0.4474655334298954"><ele>157.8</ele><time>2026-04-29T08:27:11Z</time></trkpt><trkpt lat="43.34516382194305" lon="-0.4476111104171014"><ele>158.0</ele><time>2026-04-29T08:27:12Z</time></trkpt><trkpt lat="43.34519922898266" lon="-0.4477563727827752"><ele>158.0</ele><time>2026-04-29T08:27:13Z</time></trkpt><trkpt lat="43.34523372760455" lon="-0.44790001870235086"><ele>158.0</ele><time>2026-04-29T08:27:14Z</time></trkpt><trkpt lat="43.34526630710973" lon="-0.4480471731908166"><ele>158.0</ele><time>2026-04-29T08:27:15Z</time></trkpt><trkpt lat="43.34529877084387" lon="-0.4481949573780124"><ele>158.0</ele><time>2026-04-29T08:27:16Z</time></trkpt><trkpt lat="43.345331804801965" lon="-0.4483424634818257"><ele>158.0</ele><time>2026-04-29T08:27:17Z</time></trkpt><trkpt lat="43.345361864859775" lon="-0.4484880788075534"><ele>158.0</ele><time>2026-04-29T08:27:18Z</time></trkpt><trkpt lat="43.34539335056039" lon="-0.44863403749213315"><ele>158.0</ele><time>2026-04-29T08:27:19Z</time></trkpt><trkpt lat="43.34542727431246" lon="-0.44877724440757455"><ele>158.0</ele><time>2026-04-29T08:27:20Z</time></trkpt><trkpt lat="43.34545922930648" lon="-0.4489245391090634"><ele>158.0</ele><time>2026-04-29T08:27:21Z</time></trkpt><trkpt lat="43.34549293294711" lon="-0.4490690551530984"><ele>158.0</ele><time>2026-04-29T08:27:22Z</time></trkpt><trkpt lat="43.345526429690715" lon="-0.44921539654004283"><ele>157.6</ele><time>2026-04-29T08:27:23Z</time></trkpt><trkpt lat="43.34556154637122" lon="-0.4493586125484753"><ele>157.20000000000002</ele><time>2026-04-29T08:27:24Z</time></trkpt><trkpt lat="43.345596312285856" lon="-0.4495042641518742"><ele>156.8</ele><time>2026-04-29T08:27:25Z</time></trkpt><trkpt lat="43.345636401828486" lon="-0.4496494388969756"><ele>156.4</ele><time>2026-04-29T08:27:26Z</time></trkpt><trkpt lat="43.345668376310066" lon="-0.4497916414286892"><ele>156.0</ele><time>2026-04-29T08:27:27Z</time></trkpt><trkpt lat="43.34569811798291" lon="-0.4499213508384778"><ele>156.0</ele><time>2026-04-29T08:27:28Z</time></trkpt><trkpt lat="43.34572561860634" lon="-0.4500571775711765"><ele>156.0</ele><time>2026-04-29T08:27:29Z</time></trkpt><trkpt lat="43.34575674364088" lon="-0.45017123977405554"><ele>156.0</ele><time>2026-04-29T08:27:30Z</time></trkpt><trkpt lat="43.3457846920193" lon="-0.4502832598573908"><ele>156.0</ele><time>2026-04-29T08:27:31Z</time></trkpt><trkpt lat="43.34580832756286" lon="-0.450392121630806"><ele>156.0</ele><time>2026-04-29T08:27:32Z</time></trkpt><trkpt lat="43.34583171859067" lon="-0.4504929966523443"><ele>156.0</ele><time>2026-04-29T08:27:33Z</time></trkpt><trkpt lat="43.34585479603898" lon="-0.45058280504639037"><ele>156.0</ele><time>2026-04-29T08:27:34Z</time></trkpt><trkpt lat="43.34589054548294" lon="-0.45071980603877543"><ele>156.0</ele><time>2026-04-29T08:27:36Z</time></trkpt><trkpt lat="43.34591700048522" lon="-0.450803471594208"><ele>156.0</ele><time>2026-04-29T08:27:38Z</time></trkpt><trkpt lat="43.34586997592965" lon="-0.4506697316354953"><ele>156.0</ele><time>2026-04-29T08:28:05Z</time></trkpt><trkpt lat="43.34584996759195" lon="-0.45058470949718066"><ele>156.0</ele><time>2026-04-29T08:28:06Z</time></trkpt><trkpt lat="43.345827950956846" lon="-0.45049115320576383"><ele>156.0</ele><time>2026-04-29T08:28:07Z</time></trkpt><trkpt lat="43.34580417107445" lon="-0.45039010450315764"><ele>156.0</ele><time>2026-04-29T08:28:08Z</time></trkpt><trkpt lat="43.34577949451826" lon="-0.45028354853362684"><ele>156.0</ele><time>2026-04-29T08:28:09Z</time></trkpt><trkpt lat="43.345753669278864" lon="-0.4501725443007588"><ele>156.0</ele><time>2026-04-29T08:28:10Z</time></trkpt><trkpt lat="43.34571129830784" lon="-0.44999664245258086"><ele>156.0</ele><time>2026-04-29T08:28:11Z</time></trkpt><trkpt lat="43.34563181693426" lon="-0.44986232847845986"><ele>156.0</ele><time>2026-04-29T08:28:12Z</time></trkpt><trkpt lat="43.345605333652" lon="-0.4497424573011745"><ele>156.0</ele><time>2026-04-29T08:28:13Z</time></trkpt><trkpt lat="43.345579148191675" lon="-0.44963494871057974"><ele>156.0</ele><time>2026-04-29T08:28:14Z</time></trkpt><trkpt lat="43.345554265882456" lon="-0.44953352541555447"><ele>156.0</ele><time>2026-04-29T08:28:15.001Z</time></trkpt><trkpt lat="43.34553604340883" lon="-0.4494447078728455"><ele>156.0</ele><time>2026-04-29T08:28:16.001Z</time></trkpt><trkpt lat="43.34549972046084" lon="-0.44929226280181744"><ele>156.0</ele><time>2026-04-29T08:28:18.001Z</time></trkpt><trkpt lat="43.34546797898526" lon="-0.4491678208940354"><ele>156.0</ele><time>2026-04-29T08:28:20.001Z</time></trkpt><trkpt lat="43.34544683268434" lon="-0.4490677308678273"><ele>156.0</ele><time>2026-04-29T08:28:22.001Z</time></trkpt><trkpt lat="43.34542710683024" lon="-0.44898206534857904"><ele>156.0</ele><time>2026-04-29T08:28:25.001Z</time></trkpt><trkpt lat="43.345465512351005" lon="-0.44908419493705565"><ele>156.0</ele><time>2026-04-29T08:28:43.001Z</time></trkpt><trkpt lat="43.34549605325397" lon="-0.44921546912134575"><ele>156.0</ele><time>2026-04-29T08:28:45.001Z</time></trkpt><trkpt lat="43.34553416198315" lon="-0.44937927248313875"><ele>156.0</ele><time>2026-04-29T08:28:47.001Z</time></trkpt><trkpt lat="43.34555506672115" lon="-0.44946912742601686"><ele>156.0</ele><time>2026-04-29T08:28:48.001Z</time></trkpt><trkpt lat="43.34557711754751" lon="-0.44956390878117325"><ele>156.0</ele><time>2026-04-29T08:28:49.001Z</time></trkpt><trkpt lat="43.34561874877309" lon="-0.44973648701975505"><ele>156.0</ele><time>2026-04-29T08:28:50.001Z</time></trkpt><trkpt lat="43.34569522122853" lon="-0.44982954091928834"><ele>156.0</ele><time>2026-04-29T08:28:51.001Z</time></trkpt><trkpt lat="43.34572459915186" lon="-0.44994124224519266"><ele>156.0</ele><time>2026-04-29T08:28:52.001Z</time></trkpt><trkpt lat="43.345751891241875" lon="-0.4500586361430265"><ele>156.0</ele><time>2026-04-29T08:28:53.001Z</time></trkpt><trkpt lat="43.34578186455753" lon="-0.45018053243040723"><ele>156.0</ele><time>2026-04-29T08:28:54.001Z</time></trkpt><trkpt lat="43.34581152340253" lon="-0.4503045353845091"><ele>156.0</ele><time>2026-04-29T08:28:55.001Z</time></trkpt><trkpt lat="43.3458393559861" lon="-0.4504314914928942"><ele>156.0</ele><time>2026-04-29T08:28:56.001Z</time></trkpt><trkpt lat="43.34586715304601" lon="-0.4505589107712436"><ele>156.0</ele><time>2026-04-29T08:28:57.001Z</time></trkpt><trkpt lat="43.34589714102698" lon="-0.45068868071415685"><ele>156.0</ele><time>2026-04-29T08:28:58.001Z</time></trkpt><trkpt lat="43.34592797897428" lon="-0.4508205014352134"><ele>156.0</ele><time>2026-04-29T08:28:59.001Z</time></trkpt><trkpt lat="43.34595895752039" lon="-0.45095279802598315"><ele>156.0</ele><time>2026-04-29T08:29:00.001Z</time></trkpt><trkpt lat="43.345987018174355" lon="-0.45108305694721057"><ele>156.0</ele><time>2026-04-29T08:29:01.001Z</time></trkpt><trkpt lat="43.34601234307284" lon="-0.45121495454312904"><ele>156.0</ele><time>2026-04-29T08:29:02.001Z</time></trkpt><trkpt lat="43.346034733993946" lon="-0.45134841922382546"><ele>156.0</ele><time>2026-04-29T08:29:03.001Z</time></trkpt><trkpt lat="43.34605393401479" lon="-0.4514836465534834"><ele>155.8</ele><time>2026-04-29T08:29:04.001Z</time></trkpt><trkpt lat="43.34606527336529" lon="-0.45161965887917027"><ele>155.6</ele><time>2026-04-29T08:29:05.001Z</time></trkpt><trkpt lat="43.34607701994653" lon="-0.45175751056120583"><ele>155.4</ele><time>2026-04-29T08:29:06.001Z</time></trkpt><trkpt lat="43.34608773127623" lon="-0.451882293498034"><ele>155.2</ele><time>2026-04-29T08:29:07.001Z</time></trkpt><trkpt lat="43.346095387107454" lon="-0.45202364740539347"><ele>155.0</ele><time>2026-04-29T08:29:08Z</time></trkpt><trkpt lat="43.34609450039895" lon="-0.45214987819399177"><ele>155.4</ele><time>2026-04-29T08:29:09Z</time></trkpt><trkpt lat="43.346096450229524" lon="-0.45229195304120484"><ele>155.8</ele><time>2026-04-29T08:29:10Z</time></trkpt><trkpt lat="43.34608776521899" lon="-0.4524284400889326"><ele>156.2</ele><time>2026-04-29T08:29:11Z</time></trkpt><trkpt lat="43.34607725046354" lon="-0.45256413416185304"><ele>156.6</ele><time>2026-04-29T08:29:12Z</time></trkpt><trkpt lat="43.34606486321482" lon="-0.4527123591113329"><ele>157.0</ele><time>2026-04-29T08:29:13Z</time></trkpt><trkpt lat="43.346054074678335" lon="-0.45284694179307977"><ele>157.4</ele><time>2026-04-29T08:29:14Z</time></trkpt><trkpt lat="43.34603036765491" lon="-0.4529767629633833"><ele>157.79999999999998</ele><time>2026-04-29T08:29:15Z</time></trkpt><trkpt lat="43.3459963696306" lon="-0.45309870478890285"><ele>158.2</ele><time>2026-04-29T08:29:16Z</time></trkpt><trkpt lat="43.345969060044624" lon="-0.45322711529611526"><ele>158.6</ele><time>2026-04-29T08:29:17Z</time></trkpt><trkpt lat="43.34593600319256" lon="-0.4533507903495401"><ele>159.0</ele><time>2026-04-29T08:29:18Z</time></trkpt><trkpt lat="43.34590168253181" lon="-0.4534677942390241"><ele>159.0</ele><time>2026-04-29T08:29:19Z</time></trkpt><trkpt lat="43.34586397082115" lon="-0.4535868168163948"><ele>159.0</ele><time>2026-04-29T08:29:20Z</time></trkpt><trkpt lat="43.34581311069664" lon="-0.45369760335393616"><ele>159.0</ele><time>2026-04-29T08:29:21Z</time></trkpt><trkpt lat="43.345765956048076" lon="-0.45380596772516013"><ele>159.0</ele><time>2026-04-29T08:29:22Z</time></trkpt><trkpt lat="43.34571619229698" lon="-0.4539187902135047"><ele>159.0</ele><time>2026-04-29T08:29:23Z</time></trkpt><trkpt lat="43.345666916699955" lon="-0.45402667225827814"><ele>159.6</ele><time>2026-04-29T08:29:24Z</time></trkpt><trkpt lat="43.34561527793054" lon="-0.45412776084454426"><ele>160.2</ele><time>2026-04-29T08:29:25Z</time></trkpt><trkpt lat="43.34556179616465" lon="-0.4542282544083817"><ele>160.79999999999998</ele><time>2026-04-29T08:29:26Z</time></trkpt><trkpt lat="43.34550419307679" lon="-0.45433214884860945"><ele>161.4</ele><time>2026-04-29T08:29:27Z</time></trkpt><trkpt lat="43.34544506938352" lon="-0.4544348751282081"><ele>162.0</ele><time>2026-04-29T08:29:28Z</time></trkpt><trkpt lat="43.34538605575754" lon="-0.45452983630735827"><ele>163.39999999999998</ele><time>2026-04-29T08:29:29Z</time></trkpt><trkpt lat="43.34532211498789" lon="-0.4546279339418099"><ele>164.79999999999998</ele><time>2026-04-29T08:29:30Z</time></trkpt><trkpt lat="43.34526103925821" lon="-0.45473028120218456"><ele>166.2</ele><time>2026-04-29T08:29:31Z</time></trkpt><trkpt lat="43.345197325721024" lon="-0.45483797842358226"><ele>167.6</ele><time>2026-04-29T08:29:32Z</time></trkpt><trkpt lat="43.345136413273984" lon="-0.4549420241752117"><ele>169.0</ele><time>2026-04-29T08:29:33Z</time></trkpt><trkpt lat="43.34507466742844" lon="-0.45505433901332076"><ele>169.0</ele><time>2026-04-29T08:29:34Z</time></trkpt><trkpt lat="43.34501035911384" lon="-0.4551542608850351"><ele>169.0</ele><time>2026-04-29T08:29:35Z</time></trkpt><trkpt lat="43.34494620059794" lon="-0.455254261269326"><ele>169.0</ele><time>2026-04-29T08:29:36Z</time></trkpt><trkpt lat="43.344879595997305" lon="-0.45535332473095497"><ele>169.0</ele><time>2026-04-29T08:29:37Z</time></trkpt><trkpt lat="43.34481423869421" lon="-0.45545831208263965"><ele>169.0</ele><time>2026-04-29T08:29:38Z</time></trkpt><trkpt lat="43.34475030025008" lon="-0.4555638950371858"><ele>169.2</ele><time>2026-04-29T08:29:39Z</time></trkpt><trkpt lat="43.34468763226027" lon="-0.4556690107842541"><ele>169.39999999999998</ele><time>2026-04-29T08:29:40Z</time></trkpt><trkpt lat="43.34462493003081" lon="-0.4557723057132795"><ele>169.6</ele><time>2026-04-29T08:29:41Z</time></trkpt><trkpt lat="43.34456200233127" lon="-0.45587449459125234"><ele>169.8</ele><time>2026-04-29T08:29:42Z</time></trkpt><trkpt lat="43.344497792724574" lon="-0.45596957588294945"><ele>170.0</ele><time>2026-04-29T08:29:43Z</time></trkpt><trkpt lat="43.34443148594353" lon="-0.45606530310425725"><ele>170.0</ele><time>2026-04-29T08:29:44Z</time></trkpt><trkpt lat="43.344365395708465" lon="-0.4561626874616098"><ele>170.0</ele><time>2026-04-29T08:29:45Z</time></trkpt><trkpt lat="43.34429898644658" lon="-0.45625887731977977"><ele>170.0</ele><time>2026-04-29T08:29:46Z</time></trkpt><trkpt lat="43.344232727505855" lon="-0.45635644447209994"><ele>170.0</ele><time>2026-04-29T08:29:47Z</time></trkpt><trkpt lat="43.34416641998071" lon="-0.45645415652412724"><ele>170.0</ele><time>2026-04-29T08:29:48Z</time></trkpt><trkpt lat="43.34409841710763" lon="-0.4565509537842772"><ele>169.6</ele><time>2026-04-29T08:29:49Z</time></trkpt><trkpt lat="43.34402890814433" lon="-0.4566511814677365"><ele>169.2</ele><time>2026-04-29T08:29:50Z</time></trkpt><trkpt lat="43.343955295093764" lon="-0.4567413740335889"><ele>168.8</ele><time>2026-04-29T08:29:51Z</time></trkpt><trkpt lat="43.3438758578613" lon="-0.456832559686354"><ele>168.4</ele><time>2026-04-29T08:29:52Z</time></trkpt><trkpt lat="43.34380787303685" lon="-0.45692444451948344"><ele>168.0</ele><time>2026-04-29T08:29:53Z</time></trkpt><trkpt lat="43.343731017308336" lon="-0.45700977537826537"><ele>168.0</ele><time>2026-04-29T08:29:54Z</time></trkpt><trkpt lat="43.343651239198735" lon="-0.4570893049763113"><ele>168.0</ele><time>2026-04-29T08:29:55Z</time></trkpt><trkpt lat="43.34357112516003" lon="-0.4571633928896509"><ele>168.0</ele><time>2026-04-29T08:29:56Z</time></trkpt><trkpt lat="43.34348963838375" lon="-0.45723620493482986"><ele>168.0</ele><time>2026-04-29T08:29:57Z</time></trkpt><trkpt lat="43.34340476695856" lon="-0.4573067966363565"><ele>168.0</ele><time>2026-04-29T08:29:58Z</time></trkpt><trkpt lat="43.34331860789144" lon="-0.4573756279503874"><ele>167.60000000000002</ele><time>2026-04-29T08:29:59Z</time></trkpt><trkpt lat="43.34322964778932" lon="-0.4574460493124562"><ele>167.20000000000002</ele><time>2026-04-29T08:30:00Z</time></trkpt><trkpt lat="43.34313791958576" lon="-0.457511241310025"><ele>166.8</ele><time>2026-04-29T08:30:01Z</time></trkpt><trkpt lat="43.34304423190824" lon="-0.45756917195062013"><ele>166.4</ele><time>2026-04-29T08:30:02Z</time></trkpt><trkpt lat="43.3429524851744" lon="-0.45762436174429505"><ele>166.0</ele><time>2026-04-29T08:30:03Z</time></trkpt><trkpt lat="43.34285966762414" lon="-0.45767712927265936"><ele>165.0</ele><time>2026-04-29T08:30:04Z</time></trkpt><trkpt lat="43.34276707373564" lon="-0.45772353540020133"><ele>164.0</ele><time>2026-04-29T08:30:05Z</time></trkpt><trkpt lat="43.34267013653704" lon="-0.4577633957101862"><ele>163.0</ele><time>2026-04-29T08:30:06Z</time></trkpt><trkpt lat="43.34257242107297" lon="-0.4577991804783076"><ele>162.0</ele><time>2026-04-29T08:30:07Z</time></trkpt><trkpt lat="43.342475049269076" lon="-0.45783477328172256"><ele>161.0</ele><time>2026-04-29T08:30:08Z</time></trkpt><trkpt lat="43.34237448876779" lon="-0.45786729857477704"><ele>161.0</ele><time>2026-04-29T08:30:09Z</time></trkpt><trkpt lat="43.34227457884969" lon="-0.45789347620227094"><ele>161.0</ele><time>2026-04-29T08:30:10Z</time></trkpt><trkpt lat="43.34217323310253" lon="-0.45791340710950384"><ele>161.0</ele><time>2026-04-29T08:30:11Z</time></trkpt><trkpt lat="43.342070133051465" lon="-0.4579316810569159"><ele>161.0</ele><time>2026-04-29T08:30:12Z</time></trkpt><trkpt lat="43.341964967752624" lon="-0.45794624531323164"><ele>161.0</ele><time>2026-04-29T08:30:13Z</time></trkpt><trkpt lat="43.34186000828078" lon="-0.4579593455920983"><ele>158.60000000000002</ele><time>2026-04-29T08:30:14Z</time></trkpt><trkpt lat="43.34175599324829" lon="-0.45796877566774485"><ele>156.20000000000002</ele><time>2026-04-29T08:30:15Z</time></trkpt><trkpt lat="43.34165275423316" lon="-0.4579661507940381"><ele>153.8</ele><time>2026-04-29T08:30:16Z</time></trkpt><trkpt lat="43.341548047405134" lon="-0.457962007208942"><ele>151.4</ele><time>2026-04-29T08:30:17Z</time></trkpt><trkpt lat="43.34144427540065" lon="-0.45795978952797933"><ele>149.0</ele><time>2026-04-29T08:30:18Z</time></trkpt><trkpt lat="43.34133737419893" lon="-0.457959612061639"><ele>148.6</ele><time>2026-04-29T08:30:19Z</time></trkpt><trkpt lat="43.3412305519775" lon="-0.45796016299731573"><ele>148.2</ele><time>2026-04-29T08:30:20Z</time></trkpt><trkpt lat="43.34112301856057" lon="-0.4579602201862717"><ele>147.79999999999998</ele><time>2026-04-29T08:30:21Z</time></trkpt><trkpt lat="43.34101874713042" lon="-0.45796669255136674"><ele>147.4</ele><time>2026-04-29T08:30:22.001Z</time></trkpt><trkpt lat="43.34091326516209" lon="-0.45797259943993124"><ele>147.0</ele><time>2026-04-29T08:30:23.001Z</time></trkpt><trkpt lat="43.34081024441702" lon="-0.4579867969232042"><ele>147.0</ele><time>2026-04-29T08:30:24.001Z</time></trkpt><trkpt lat="43.34070989859631" lon="-0.4579955201982192"><ele>147.0</ele><time>2026-04-29T08:30:25.001Z</time></trkpt><trkpt lat="43.34060837502546" lon="-0.45800881784513175"><ele>147.0</ele><time>2026-04-29T08:30:26.001Z</time></trkpt><trkpt lat="43.34050763260804" lon="-0.45803243846700253"><ele>147.0</ele><time>2026-04-29T08:30:27.001Z</time></trkpt><trkpt lat="43.34040362124782" lon="-0.45806760418367354"><ele>147.0</ele><time>2026-04-29T08:30:28.001Z</time></trkpt><trkpt lat="43.34030146018729" lon="-0.4581010747917553"><ele>147.2</ele><time>2026-04-29T08:30:29.001Z</time></trkpt><trkpt lat="43.34020111244449" lon="-0.45814071409266427"><ele>147.39999999999998</ele><time>2026-04-29T08:30:30.001Z</time></trkpt><trkpt lat="43.340101614649974" lon="-0.458184962824457"><ele>147.60000000000002</ele><time>2026-04-29T08:30:31.001Z</time></trkpt><trkpt lat="43.34000367478409" lon="-0.4582312514011515"><ele>147.8</ele><time>2026-04-29T08:30:32.001Z</time></trkpt><trkpt lat="43.33990630523695" lon="-0.45828233365011994"><ele>148.0</ele><time>2026-04-29T08:30:33.001Z</time></trkpt><trkpt lat="43.33980816218937" lon="-0.4583370468474294"><ele>147.8</ele><time>2026-04-29T08:30:34.001Z</time></trkpt><trkpt lat="43.33971046260458" lon="-0.45839788687222915"><ele>147.60000000000002</ele><time>2026-04-29T08:30:35.001Z</time></trkpt><trkpt lat="43.339614824752815" lon="-0.4584619717587171"><ele>147.39999999999998</ele><time>2026-04-29T08:30:36.001Z</time></trkpt><trkpt lat="43.339521524909514" lon="-0.45852808063079986"><ele>147.2</ele><time>2026-04-29T08:30:37.001Z</time></trkpt><trkpt lat="43.339431714587384" lon="-0.45859712180763645"><ele>147.0</ele><time>2026-04-29T08:30:38.001Z</time></trkpt><trkpt lat="43.33934571756188" lon="-0.45866538170576754"><ele>147.0</ele><time>2026-04-29T08:30:39.001Z</time></trkpt><trkpt lat="43.33925923586447" lon="-0.45873668832685005"><ele>147.0</ele><time>2026-04-29T08:30:40.001Z</time></trkpt><trkpt lat="43.33917230079787" lon="-0.4588065340292084"><ele>147.0</ele><time>2026-04-29T08:30:41.001Z</time></trkpt><trkpt lat="43.339087801114495" lon="-0.4588802964549469"><ele>147.0</ele><time>2026-04-29T08:30:42.001Z</time></trkpt><trkpt lat="43.3390032637678" lon="-0.4589578108933487"><ele>147.0</ele><time>2026-04-29T08:30:43.001Z</time></trkpt><trkpt lat="43.33891496762069" lon="-0.4590348904968378"><ele>146.6</ele><time>2026-04-29T08:30:44.001Z</time></trkpt><trkpt lat="43.33882502747135" lon="-0.45910531185610703"><ele>146.2</ele><time>2026-04-29T08:30:45.001Z</time></trkpt><trkpt lat="43.338735427407826" lon="-0.4591794269779072"><ele>145.8</ele><time>2026-04-29T08:30:46.001Z</time></trkpt><trkpt lat="43.33865334286413" lon="-0.45924883894099294"><ele>145.4</ele><time>2026-04-29T08:30:47.001Z</time></trkpt><trkpt lat="43.33857189987701" lon="-0.4593205573542087"><ele>145.0</ele><time>2026-04-29T08:30:48.001Z</time></trkpt><trkpt lat="43.33849151741263" lon="-0.4593902797439476"><ele>145.0</ele><time>2026-04-29T08:30:49.001Z</time></trkpt><trkpt lat="43.33841697228674" lon="-0.45945296934937635"><ele>145.0</ele><time>2026-04-29T08:30:50.001Z</time></trkpt><trkpt lat="43.33835263642029" lon="-0.4595075683773797"><ele>145.0</ele><time>2026-04-29T08:30:51.001Z</time></trkpt><trkpt lat="43.33826894633709" lon="-0.4595827739595516"><ele>145.0</ele><time>2026-04-29T08:30:53.001Z</time></trkpt><trkpt lat="43.33822029014298" lon="-0.4596602611551877"><ele>145.0</ele><time>2026-04-29T08:32:26.001Z</time></trkpt><trkpt lat="43.3381272866354" lon="-0.4597096453804006"><ele>145.0</ele><time>2026-04-29T08:32:29.001Z</time></trkpt><trkpt lat="43.33803773719493" lon="-0.4597825912269511"><ele>145.66666666666669</ele><time>2026-04-29T08:32:31.001Z</time></trkpt><trkpt lat="43.33793352609423" lon="-0.4598636871602384"><ele>146.33333333333334</ele><time>2026-04-29T08:32:33.001Z</time></trkpt><trkpt lat="43.33787270318922" lon="-0.4599133964254233"><ele>147.0</ele><time>2026-04-29T08:32:34.001Z</time></trkpt><trkpt lat="43.33780906809793" lon="-0.4599642749975708"><ele>147.66666666666666</ele><time>2026-04-29T08:32:35.001Z</time></trkpt><trkpt lat="43.337745801671865" lon="-0.46001443823532423"><ele>148.33333333333331</ele><time>2026-04-29T08:32:36.001Z</time></trkpt><trkpt lat="43.33768066097047" lon="-0.4600664433175027"><ele>149.0</ele><time>2026-04-29T08:32:37.001Z</time></trkpt><trkpt lat="43.33761132306519" lon="-0.4601207150539024"><ele>149.0</ele><time>2026-04-29T08:32:38.001Z</time></trkpt><trkpt lat="43.3375392910957" lon="-0.460174518834939"><ele>149.0</ele><time>2026-04-29T08:32:39.001Z</time></trkpt><trkpt lat="43.33746604092697" lon="-0.4602342394888715"><ele>149.0</ele><time>2026-04-29T08:32:40.001Z</time></trkpt><trkpt lat="43.33739177428099" lon="-0.46029316166219947"><ele>149.0</ele><time>2026-04-29T08:32:41.001Z</time></trkpt><trkpt lat="43.337318234656344" lon="-0.46035092941534983"><ele>149.0</ele><time>2026-04-29T08:32:42.001Z</time></trkpt><trkpt lat="43.33724916901177" lon="-0.4604007485008815"><ele>149.0</ele><time>2026-04-29T08:32:43.001Z</time></trkpt><trkpt lat="43.33718861508777" lon="-0.46045265582234723"><ele>148.42857142857142</ele><time>2026-04-29T08:32:44.001Z</time></trkpt><trkpt lat="43.33713404141695" lon="-0.4605066937382171"><ele>147.85714285714283</ele><time>2026-04-29T08:32:45.001Z</time></trkpt><trkpt lat="43.33708522777004" lon="-0.4605703576806432"><ele>147.28571428571428</ele><time>2026-04-29T08:32:46.001Z</time></trkpt><trkpt lat="43.337047245157216" lon="-0.4606514511611337"><ele>146.71428571428572</ele><time>2026-04-29T08:32:47.001Z</time></trkpt><trkpt lat="43.33701138657288" lon="-0.4607413392347963"><ele>146.14285714285717</ele><time>2026-04-29T08:32:48.001Z</time></trkpt><trkpt lat="43.33697276448532" lon="-0.4608151886608274"><ele>145.57142857142858</ele><time>2026-04-29T08:32:49.001Z</time></trkpt><trkpt lat="43.336885148529326" lon="-0.46084004074635554"><ele>145.0</ele><time>2026-04-29T08:32:50.001Z</time></trkpt><trkpt lat="43.33682393883636" lon="-0.4608641415778449"><ele>145.0</ele><time>2026-04-29T08:32:51.001Z</time></trkpt><trkpt lat="43.33675934890209" lon="-0.46086222369616386"><ele>145.0</ele><time>2026-04-29T08:32:52.001Z</time></trkpt><trkpt lat="43.33664152380932" lon="-0.4608372588326349"><ele>145.0</ele><time>2026-04-29T08:32:54.001Z</time></trkpt><trkpt lat="43.336530242856696" lon="-0.4607959848959407"><ele>145.0</ele><time>2026-04-29T08:32:56.001Z</time></trkpt><trkpt lat="43.33646245362116" lon="-0.4608169759644109"><ele>145.0</ele><time>2026-04-29T08:32:57.001Z</time></trkpt><trkpt lat="43.33633812393489" lon="-0.460868223751798"><ele>145.14285714285714</ele><time>2026-04-29T08:32:59.001Z</time></trkpt><trkpt lat="43.33627217366372" lon="-0.4609009393021453"><ele>145.2857142857143</ele><time>2026-04-29T08:33:00.001Z</time></trkpt><trkpt lat="43.33620973097783" lon="-0.4609438616651659"><ele>145.42857142857144</ele><time>2026-04-29T08:33:01.001Z</time></trkpt><trkpt lat="43.33614627394841" lon="-0.46097895114305165"><ele>145.57142857142858</ele><time>2026-04-29T08:33:02.001Z</time></trkpt><trkpt lat="43.336077185134876" lon="-0.46098035302562773"><ele>145.71428571428572</ele><time>2026-04-29T08:33:03.001Z</time></trkpt><trkpt lat="43.33601103950479" lon="-0.46099869776293384"><ele>145.85714285714286</ele><time>2026-04-29T08:33:04.001Z</time></trkpt><trkpt lat="43.33594348752903" lon="-0.46101726978793195"><ele>146.0</ele><time>2026-04-29T08:33:05.001Z</time></trkpt><trkpt lat="43.33588442635553" lon="-0.4610962238219039"><ele>146.0</ele><time>2026-04-29T08:33:06.001Z</time></trkpt><trkpt lat="43.33581630803374" lon="-0.4611369002722345"><ele>146.0</ele><time>2026-04-29T08:33:07.001Z</time></trkpt><trkpt lat="43.335749287029465" lon="-0.4611819811941451"><ele>146.0</ele><time>2026-04-29T08:33:08.001Z</time></trkpt><trkpt lat="43.33567621376248" lon="-0.4612151247804054"><ele>146.0</ele><time>2026-04-29T08:33:09.001Z</time></trkpt><trkpt lat="43.33560356604639" lon="-0.46126423685744494"><ele>146.0</ele><time>2026-04-29T08:33:10.001Z</time></trkpt><trkpt lat="43.335530131355206" lon="-0.4613068492985262"><ele>146.0</ele><time>2026-04-29T08:33:11.001Z</time></trkpt><trkpt lat="43.33546065387068" lon="-0.4613654551855535"><ele>146.0</ele><time>2026-04-29T08:33:12.001Z</time></trkpt><trkpt lat="43.335391166224724" lon="-0.46142396144977643"><ele>146.0</ele><time>2026-04-29T08:33:13.001Z</time></trkpt><trkpt lat="43.33531973869917" lon="-0.46148434811052497"><ele>146.0</ele><time>2026-04-29T08:33:14.001Z</time></trkpt><trkpt lat="43.335252032969926" lon="-0.4615514899129194"><ele>146.0</ele><time>2026-04-29T08:33:15.001Z</time></trkpt><trkpt lat="43.33518124701045" lon="-0.4616186136788858"><ele>146.0</ele><time>2026-04-29T08:33:16.001Z</time></trkpt><trkpt lat="43.33511262537807" lon="-0.46168665742055753"><ele>146.0</ele><time>2026-04-29T08:33:17.001Z</time></trkpt><trkpt lat="43.33504003419002" lon="-0.4617488810102524"><ele>146.0</ele><time>2026-04-29T08:33:18.001Z</time></trkpt><trkpt lat="43.3349688539844" lon="-0.461817503227919"><ele>146.0</ele><time>2026-04-29T08:33:19.001Z</time></trkpt><trkpt lat="43.334898602642" lon="-0.4618867962348615"><ele>146.0</ele><time>2026-04-29T08:33:20Z</time></trkpt><trkpt lat="43.33482820526419" lon="-0.461957988885938"><ele>146.0</ele><time>2026-04-29T08:33:21Z</time></trkpt><trkpt lat="43.33475871293977" lon="-0.462028043043517"><ele>146.0</ele><time>2026-04-29T08:33:22Z</time></trkpt><trkpt lat="43.33469067957669" lon="-0.46210013636635056"><ele>146.0</ele><time>2026-04-29T08:33:23Z</time></trkpt><trkpt lat="43.33462300022246" lon="-0.4621740741224249"><ele>146.16666666666666</ele><time>2026-04-29T08:33:24Z</time></trkpt><trkpt lat="43.3345537333403" lon="-0.4622505546123467"><ele>146.33333333333331</ele><time>2026-04-29T08:33:25Z</time></trkpt><trkpt lat="43.33448520752756" lon="-0.46232469439730917"><ele>146.5</ele><time>2026-04-29T08:33:26Z</time></trkpt><trkpt lat="43.334415928223976" lon="-0.4624032029525525"><ele>146.66666666666666</ele><time>2026-04-29T08:33:27Z</time></trkpt><trkpt lat="43.33434542287625" lon="-0.46248124956073333"><ele>146.83333333333334</ele><time>2026-04-29T08:33:28Z</time></trkpt><trkpt lat="43.334275224972444" lon="-0.4625528123089986"><ele>147.0</ele><time>2026-04-29T08:33:29Z</time></trkpt><trkpt lat="43.334208534469916" lon="-0.46262743792626343"><ele>147.0</ele><time>2026-04-29T08:33:30Z</time></trkpt><trkpt lat="43.334140944981726" lon="-0.4627142512207669"><ele>147.0</ele><time>2026-04-29T08:33:31Z</time></trkpt><trkpt lat="43.33407046163355" lon="-0.4627914594069226"><ele>147.0</ele><time>2026-04-29T08:33:32Z</time></trkpt><trkpt lat="43.33399868455688" lon="-0.46287951530480226"><ele>147.0</ele><time>2026-04-29T08:33:33Z</time></trkpt><trkpt lat="43.3339290048828" lon="-0.462966526352323"><ele>147.0</ele><time>2026-04-29T08:33:34Z</time></trkpt><trkpt lat="43.333857926173856" lon="-0.46305411938738683"><ele>147.4</ele><time>2026-04-29T08:33:35Z</time></trkpt><trkpt lat="43.3337892415592" lon="-0.4631376746221006"><ele>147.79999999999998</ele><time>2026-04-29T08:33:36Z</time></trkpt><trkpt lat="43.333720736215774" lon="-0.46322023646974597"><ele>148.2</ele><time>2026-04-29T08:33:37Z</time></trkpt><trkpt lat="43.33364836729913" lon="-0.46330679195227326"><ele>148.6</ele><time>2026-04-29T08:33:38Z</time></trkpt><trkpt lat="43.33357830713788" lon="-0.4633902650056615"><ele>149.0</ele><time>2026-04-29T08:33:39Z</time></trkpt><trkpt lat="43.333505701275634" lon="-0.4634765532935727"><ele>149.0</ele><time>2026-04-29T08:33:40Z</time></trkpt><trkpt lat="43.33343211242566" lon="-0.463559768742541"><ele>149.0</ele><time>2026-04-29T08:33:41Z</time></trkpt><trkpt lat="43.33336064956765" lon="-0.46364220413626506"><ele>149.0</ele><time>2026-04-29T08:33:42Z</time></trkpt><trkpt lat="43.333286687655175" lon="-0.46372461065505677"><ele>149.0</ele><time>2026-04-29T08:33:43Z</time></trkpt><trkpt lat="43.33321447280053" lon="-0.46381014896088757"><ele>149.0</ele><time>2026-04-29T08:33:44Z</time></trkpt><trkpt lat="43.333145382174465" lon="-0.4638934597651985"><ele>149.0</ele><time>2026-04-29T08:33:45Z</time></trkpt><trkpt lat="43.333074245573265" lon="-0.4639779185497936"><ele>149.0</ele><time>2026-04-29T08:33:46Z</time></trkpt><trkpt lat="43.33300067859166" lon="-0.46406482638545826"><ele>149.0</ele><time>2026-04-29T08:33:47Z</time></trkpt><trkpt lat="43.332927345596644" lon="-0.4641471980121907"><ele>149.0</ele><time>2026-04-29T08:33:48Z</time></trkpt><trkpt lat="43.33285191403843" lon="-0.46423102124702503"><ele>149.0</ele><time>2026-04-29T08:33:49Z</time></trkpt><trkpt lat="43.332776780137365" lon="-0.4643102329575278"><ele>148.8</ele><time>2026-04-29T08:33:50Z</time></trkpt><trkpt lat="43.33269682515586" lon="-0.4643906555806206"><ele>148.60000000000002</ele><time>2026-04-29T08:33:51Z</time></trkpt><trkpt lat="43.33261631712991" lon="-0.4644647559124209"><ele>148.4</ele><time>2026-04-29T08:33:52Z</time></trkpt><trkpt lat="43.33253507787919" lon="-0.46453447899040334"><ele>148.20000000000002</ele><time>2026-04-29T08:33:53Z</time></trkpt><trkpt lat="43.332450888944294" lon="-0.46459627659471747"><ele>148.0</ele><time>2026-04-29T08:33:54Z</time></trkpt><trkpt lat="43.33236698058528" lon="-0.46465960357109"><ele>148.0</ele><time>2026-04-29T08:33:55Z</time></trkpt><trkpt lat="43.33228612751586" lon="-0.46472837747524237"><ele>148.0</ele><time>2026-04-29T08:33:56Z</time></trkpt><trkpt lat="43.332201994587905" lon="-0.4647811597685715"><ele>148.0</ele><time>2026-04-29T08:33:57Z</time></trkpt><trkpt lat="43.332120143156075" lon="-0.4648423608821895"><ele>148.0</ele><time>2026-04-29T08:33:58Z</time></trkpt><trkpt lat="43.33203793751743" lon="-0.4649023480943313"><ele>148.0</ele><time>2026-04-29T08:33:59Z</time></trkpt><trkpt lat="43.331955370607155" lon="-0.46496476833276734"><ele>147.6</ele><time>2026-04-29T08:34:00Z</time></trkpt><trkpt lat="43.33187273916593" lon="-0.46502659677530733"><ele>147.20000000000002</ele><time>2026-04-29T08:34:01Z</time></trkpt><trkpt lat="43.331792433974755" lon="-0.46508733372182826"><ele>146.8</ele><time>2026-04-29T08:34:02Z</time></trkpt><trkpt lat="43.33170968380403" lon="-0.4651466675951295"><ele>146.4</ele><time>2026-04-29T08:34:03Z</time></trkpt><trkpt lat="43.331628911803094" lon="-0.4652061345902364"><ele>146.0</ele><time>2026-04-29T08:34:04Z</time></trkpt><trkpt lat="43.33154778514063" lon="-0.4652652263581628"><ele>146.0</ele><time>2026-04-29T08:34:05Z</time></trkpt><trkpt lat="43.3314669531817" lon="-0.46532640392068353"><ele>146.0</ele><time>2026-04-29T08:34:06Z</time></trkpt><trkpt lat="43.331385654751934" lon="-0.4653872554505535"><ele>146.0</ele><time>2026-04-29T08:34:07Z</time></trkpt><trkpt lat="43.33130245304838" lon="-0.46544863841477857"><ele>146.0</ele><time>2026-04-29T08:34:08Z</time></trkpt><trkpt lat="43.33121761955911" lon="-0.4655119523585872"><ele>146.0</ele><time>2026-04-29T08:34:09Z</time></trkpt><trkpt lat="43.331129736227176" lon="-0.4655750193556335"><ele>146.4</ele><time>2026-04-29T08:34:10Z</time></trkpt><trkpt lat="43.33104077403901" lon="-0.4656367135975492"><ele>146.8</ele><time>2026-04-29T08:34:11Z</time></trkpt><trkpt lat="43.33095237712237" lon="-0.4657038288235924"><ele>147.20000000000002</ele><time>2026-04-29T08:34:12Z</time></trkpt><trkpt lat="43.33086382093605" lon="-0.46577066520972005"><ele>147.6</ele><time>2026-04-29T08:34:13Z</time></trkpt><trkpt lat="43.330772138170865" lon="-0.46584044590947205"><ele>148.0</ele><time>2026-04-29T08:34:14.001Z</time></trkpt><trkpt lat="43.330680629574616" lon="-0.46591126638901326"><ele>148.0</ele><time>2026-04-29T08:34:15.001Z</time></trkpt><trkpt lat="43.33058996324884" lon="-0.46598123515765544"><ele>148.0</ele><time>2026-04-29T08:34:16.001Z</time></trkpt><trkpt lat="43.33050049531754" lon="-0.4660545503737119"><ele>148.0</ele><time>2026-04-29T08:34:17.001Z</time></trkpt><trkpt lat="43.33041479213588" lon="-0.46613333535028095"><ele>148.0</ele><time>2026-04-29T08:34:18.001Z</time></trkpt><trkpt lat="43.330328503989854" lon="-0.4662109241513165"><ele>148.0</ele><time>2026-04-29T08:34:19.001Z</time></trkpt><trkpt lat="43.33024215038773" lon="-0.4662876637854772"><ele>148.20000000000002</ele><time>2026-04-29T08:34:20.001Z</time></trkpt><trkpt lat="43.330157058006634" lon="-0.4663718874618772"><ele>148.4</ele><time>2026-04-29T08:34:21.001Z</time></trkpt><trkpt lat="43.3300738740778" lon="-0.4664594212414212"><ele>148.60000000000002</ele><time>2026-04-29T08:34:22.001Z</time></trkpt><trkpt lat="43.32999091524904" lon="-0.4665484059181518"><ele>148.8</ele><time>2026-04-29T08:34:23.001Z</time></trkpt><trkpt lat="43.32990918065684" lon="-0.4666383552321782"><ele>149.0</ele><time>2026-04-29T08:34:24.001Z</time></trkpt><trkpt lat="43.32982533614821" lon="-0.4667279873378072"><ele>149.0</ele><time>2026-04-29T08:34:25.001Z</time></trkpt><trkpt lat="43.32974159115" lon="-0.466822479505568"><ele>149.0</ele><time>2026-04-29T08:34:26.001Z</time></trkpt><trkpt lat="43.32965950767872" lon="-0.46691647117120255"><ele>149.0</ele><time>2026-04-29T08:34:27.001Z</time></trkpt><trkpt lat="43.329582909081765" lon="-0.4670087492318304"><ele>149.0</ele><time>2026-04-29T08:34:28.001Z</time></trkpt><trkpt lat="43.329509071267005" lon="-0.4670924416996405"><ele>149.0</ele><time>2026-04-29T08:34:29.001Z</time></trkpt><trkpt lat="43.32943780232077" lon="-0.46716931728993405"><ele>149.28571428571428</ele><time>2026-04-29T08:34:30.001Z</time></trkpt><trkpt lat="43.3293696449114" lon="-0.4672425392940995"><ele>149.57142857142856</ele><time>2026-04-29T08:34:31.001Z</time></trkpt><trkpt lat="43.32930597300063" lon="-0.4673103437128693"><ele>149.85714285714286</ele><time>2026-04-29T08:34:32.001Z</time></trkpt><trkpt lat="43.32924541637657" lon="-0.46737235936567806"><ele>150.14285714285714</ele><time>2026-04-29T08:34:33.001Z</time></trkpt><trkpt lat="43.32918902990324" lon="-0.4674338554677416"><ele>150.42857142857144</ele><time>2026-04-29T08:34:34.001Z</time></trkpt><trkpt lat="43.32913615580294" lon="-0.4674930378093123"><ele>150.71428571428572</ele><time>2026-04-29T08:34:35.001Z</time></trkpt><trkpt lat="43.32908658972058" lon="-0.46754981254128836"><ele>151.0</ele><time>2026-04-29T08:34:36.001Z</time></trkpt><trkpt lat="43.32899375836448" lon="-0.4676435190074319"><ele>151.0</ele><time>2026-04-29T08:34:38.001Z</time></trkpt><trkpt lat="43.32891509839866" lon="-0.46773154915255594"><ele>151.0</ele><time>2026-04-29T08:34:40.001Z</time></trkpt><trkpt lat="43.32885004425701" lon="-0.4678037844745046"><ele>151.0</ele><time>2026-04-29T08:34:42.001Z</time></trkpt><trkpt lat="43.32878465295349" lon="-0.4678717676978181"><ele>151.0</ele><time>2026-04-29T08:34:44.001Z</time></trkpt><trkpt lat="43.32872064621982" lon="-0.4679433014380636"><ele>151.0</ele><time>2026-04-29T08:34:46.001Z</time></trkpt><trkpt lat="43.32866391336179" lon="-0.4680157336413252"><ele>151.0</ele><time>2026-04-29T08:34:48.001Z</time></trkpt><trkpt lat="43.32861124728639" lon="-0.46806794512246647"><ele>150.85714285714286</ele><time>2026-04-29T08:34:50.001Z</time></trkpt><trkpt lat="43.32855536401314" lon="-0.4681335936611717"><ele>150.71428571428572</ele><time>2026-04-29T08:34:53.001Z</time></trkpt><trkpt lat="43.328508664966826" lon="-0.4681930012132226"><ele>150.57142857142856</ele><time>2026-04-29T08:34:57.001Z</time></trkpt><trkpt lat="43.328450501575155" lon="-0.46823997161183323"><ele>150.42857142857144</ele><time>2026-04-29T08:37:46Z</time></trkpt><trkpt lat="43.32839185330926" lon="-0.4683018905992573"><ele>150.28571428571428</ele><time>2026-04-29T08:37:48Z</time></trkpt><trkpt lat="43.328335709246524" lon="-0.46835870029178744"><ele>150.14285714285714</ele><time>2026-04-29T08:37:50Z</time></trkpt><trkpt lat="43.328265043216874" lon="-0.46842104686313246"><ele>150.0</ele><time>2026-04-29T08:37:52Z</time></trkpt><trkpt lat="43.328193061339135" lon="-0.46848221875125623"><ele>150.0</ele><time>2026-04-29T08:37:54Z</time></trkpt><trkpt lat="43.328114897343525" lon="-0.4685642194495455"><ele>150.0</ele><time>2026-04-29T08:37:56Z</time></trkpt><trkpt lat="43.32801582596333" lon="-0.4686601147787656"><ele>150.0</ele><time>2026-04-29T08:37:58Z</time></trkpt><trkpt lat="43.32791262706757" lon="-0.468758927810685"><ele>150.0</ele><time>2026-04-29T08:38:00Z</time></trkpt><trkpt lat="43.32785663585518" lon="-0.46880506997079807"><ele>150.0</ele><time>2026-04-29T08:38:01Z</time></trkpt><trkpt lat="43.327794857863964" lon="-0.46884719984774975"><ele>149.7142857142857</ele><time>2026-04-29T08:38:02Z</time></trkpt><trkpt lat="43.327731197017904" lon="-0.4688920165020141"><ele>149.42857142857142</ele><time>2026-04-29T08:38:03Z</time></trkpt><trkpt lat="43.327668173208025" lon="-0.4689385281026215"><ele>149.14285714285714</ele><time>2026-04-29T08:38:04Z</time></trkpt><trkpt lat="43.32760551747722" lon="-0.4689852241624656"><ele>148.85714285714283</ele><time>2026-04-29T08:38:05Z</time></trkpt><trkpt lat="43.32753957839978" lon="-0.46903248971088035"><ele>148.57142857142856</ele><time>2026-04-29T08:38:06Z</time></trkpt><trkpt lat="43.32747336736311" lon="-0.4690748912308801"><ele>148.28571428571428</ele><time>2026-04-29T08:38:07Z</time></trkpt><trkpt lat="43.3274046192163" lon="-0.4691152418982988"><ele>148.0</ele><time>2026-04-29T08:38:08Z</time></trkpt><trkpt lat="43.32733595166459" lon="-0.46915522061295206"><ele>148.0</ele><time>2026-04-29T08:38:09Z</time></trkpt><trkpt lat="43.3272678050531" lon="-0.4691984523576016"><ele>148.0</ele><time>2026-04-29T08:38:10Z</time></trkpt><trkpt lat="43.32719897016575" lon="-0.46924239914675886"><ele>148.0</ele><time>2026-04-29T08:38:11Z</time></trkpt><trkpt lat="43.32713152240495" lon="-0.46929051005927336"><ele>148.0</ele><time>2026-04-29T08:38:12Z</time></trkpt><trkpt lat="43.32706434463744" lon="-0.46933726253834873"><ele>148.0</ele><time>2026-04-29T08:38:13Z</time></trkpt><trkpt lat="43.32699639218937" lon="-0.4693858371624868"><ele>148.0</ele><time>2026-04-29T08:38:14Z</time></trkpt><trkpt lat="43.326928540774574" lon="-0.46943528984740845"><ele>148.0</ele><time>2026-04-29T08:38:15Z</time></trkpt><trkpt lat="43.32686139508395" lon="-0.46948531447277786"><ele>148.0</ele><time>2026-04-29T08:38:16Z</time></trkpt><trkpt lat="43.32679303657651" lon="-0.4695334391224302"><ele>148.0</ele><time>2026-04-29T08:38:17Z</time></trkpt><trkpt lat="43.326725609834625" lon="-0.4695858898091302"><ele>148.0</ele><time>2026-04-29T08:38:18Z</time></trkpt><trkpt lat="43.32666016607351" lon="-0.46964508563712093"><ele>148.0</ele><time>2026-04-29T08:38:19Z</time></trkpt><trkpt lat="43.32658241834082" lon="-0.4696899311027205"><ele>148.0</ele><time>2026-04-29T08:38:20Z</time></trkpt><trkpt lat="43.32653405082485" lon="-0.46977285129285123"><ele>148.0</ele><time>2026-04-29T08:38:21Z</time></trkpt><trkpt lat="43.326476912525344" lon="-0.46983952605100926"><ele>148.0</ele><time>2026-04-29T08:38:22Z</time></trkpt><trkpt lat="43.32642602112047" lon="-0.469902292865984"><ele>148.0</ele><time>2026-04-29T08:38:23Z</time></trkpt><trkpt lat="43.326380468163826" lon="-0.469972235557272"><ele>148.0</ele><time>2026-04-29T08:38:24Z</time></trkpt><trkpt lat="43.32635099528949" lon="-0.4700571031782611"><ele>148.0</ele><time>2026-04-29T08:38:25Z</time></trkpt><trkpt lat="43.32634073294369" lon="-0.4701492448230801"><ele>148.0</ele><time>2026-04-29T08:38:26.001Z</time></trkpt><trkpt lat="43.32634162484543" lon="-0.47024627924049517"><ele>148.0</ele><time>2026-04-29T08:38:27.001Z</time></trkpt><trkpt lat="43.326339665187554" lon="-0.4703333678424502"><ele>148.0</ele><time>2026-04-29T08:38:28.001Z</time></trkpt><trkpt lat="43.3263226013095" lon="-0.4704180848015197"><ele>148.0</ele><time>2026-04-29T08:38:29.001Z</time></trkpt><trkpt lat="43.32630287361762" lon="-0.4705044246671872"><ele>148.0</ele><time>2026-04-29T08:38:30.001Z</time></trkpt><trkpt lat="43.326278637529086" lon="-0.47078300890978425"><ele>148.0</ele><time>2026-04-29T08:38:33.001Z</time></trkpt><trkpt lat="43.326307260941476" lon="-0.47087298103072395"><ele>148.0</ele><time>2026-04-29T08:38:34.001Z</time></trkpt><trkpt lat="43.326339030503014" lon="-0.4709605393319155"><ele>148.0</ele><time>2026-04-29T08:38:35.001Z</time></trkpt><trkpt lat="43.3263722812574" lon="-0.47104931589684795"><ele>148.0</ele><time>2026-04-29T08:38:36.001Z</time></trkpt><trkpt lat="43.32640422639153" lon="-0.4711403600379448"><ele>148.0</ele><time>2026-04-29T08:38:37.001Z</time></trkpt><trkpt lat="43.32641582309398" lon="-0.47124466626684614"><ele>148.0</ele><time>2026-04-29T08:38:38.001Z</time></trkpt><trkpt lat="43.32643521839809" lon="-0.471346336503141"><ele>148.0</ele><time>2026-04-29T08:38:39.001Z</time></trkpt><trkpt lat="43.32650319220785" lon="-0.47143308855939914"><ele>148.0</ele><time>2026-04-29T08:38:40.001Z</time></trkpt><trkpt lat="43.32654385126382" lon="-0.4715334263115235"><ele>147.83333333333334</ele><time>2026-04-29T08:38:41.001Z</time></trkpt><trkpt lat="43.32658656507514" lon="-0.4716327216294136"><ele>147.66666666666669</ele><time>2026-04-29T08:38:42.001Z</time></trkpt><trkpt lat="43.32663158979114" lon="-0.47172842464021136"><ele>147.5</ele><time>2026-04-29T08:38:43.001Z</time></trkpt><trkpt lat="43.32667917739249" lon="-0.471823978103023"><ele>147.33333333333334</ele><time>2026-04-29T08:38:44.001Z</time></trkpt><trkpt lat="43.32672780299835" lon="-0.4719196881391538"><ele>147.16666666666666</ele><time>2026-04-29T08:38:45.001Z</time></trkpt><trkpt lat="43.326774686637066" lon="-0.4720184719482045"><ele>147.0</ele><time>2026-04-29T08:38:46.001Z</time></trkpt><trkpt lat="43.32682002527346" lon="-0.47211905317785174"><ele>146.66666666666666</ele><time>2026-04-29T08:38:47.001Z</time></trkpt><trkpt lat="43.32686645439365" lon="-0.4722212731218518"><ele>146.33333333333334</ele><time>2026-04-29T08:38:48.001Z</time></trkpt><trkpt lat="43.32691113458096" lon="-0.472322220839577"><ele>146.0</ele><time>2026-04-29T08:38:49.001Z</time></trkpt><trkpt lat="43.32695547205938" lon="-0.47242125703958504"><ele>145.66666666666669</ele><time>2026-04-29T08:38:50.001Z</time></trkpt><trkpt lat="43.3269950369973" lon="-0.4725239369405715"><ele>145.33333333333334</ele><time>2026-04-29T08:38:51.001Z</time></trkpt><trkpt lat="43.32703149576632" lon="-0.4726302402422201"><ele>145.0</ele><time>2026-04-29T08:38:52.001Z</time></trkpt><trkpt lat="43.32707239127835" lon="-0.4727360762973199"><ele>145.0</ele><time>2026-04-29T08:38:53.001Z</time></trkpt><trkpt lat="43.32711466518522" lon="-0.4728440533748736"><ele>145.0</ele><time>2026-04-29T08:38:54.001Z</time></trkpt><trkpt lat="43.32715118982468" lon="-0.47295559338773835"><ele>145.0</ele><time>2026-04-29T08:38:55.001Z</time></trkpt><trkpt lat="43.32719066068532" lon="-0.4730654519024908"><ele>145.0</ele><time>2026-04-29T08:38:56.001Z</time></trkpt><trkpt lat="43.32723110558629" lon="-0.47317962762102544"><ele>145.0</ele><time>2026-04-29T08:38:57.001Z</time></trkpt><trkpt lat="43.32727199409424" lon="-0.47329262163219843"><ele>145.2</ele><time>2026-04-29T08:38:58.001Z</time></trkpt><trkpt lat="43.32731228725509" lon="-0.4734072149005659"><ele>145.4</ele><time>2026-04-29T08:38:59.001Z</time></trkpt><trkpt lat="43.327353110486726" lon="-0.47352236414029075"><ele>145.6</ele><time>2026-04-29T08:39:00.001Z</time></trkpt><trkpt lat="43.32739293980501" lon="-0.4736371339103187"><ele>145.8</ele><time>2026-04-29T08:39:01.001Z</time></trkpt><trkpt lat="43.3274354550352" lon="-0.4737532765086169"><ele>146.0</ele><time>2026-04-29T08:39:02.001Z</time></trkpt><trkpt lat="43.32747528488139" lon="-0.4738721856868831"><ele>146.0</ele><time>2026-04-29T08:39:03.001Z</time></trkpt><trkpt lat="43.327515149226656" lon="-0.47398916194209106"><ele>146.0</ele><time>2026-04-29T08:39:04.001Z</time></trkpt><trkpt lat="43.327559954631134" lon="-0.47411044080786774"><ele>146.0</ele><time>2026-04-29T08:39:05.001Z</time></trkpt><trkpt lat="43.327601696359785" lon="-0.4742330854234156"><ele>146.0</ele><time>2026-04-29T08:39:06.001Z</time></trkpt><trkpt lat="43.327645038096925" lon="-0.47435861216113767"><ele>146.0</ele><time>2026-04-29T08:39:07.001Z</time></trkpt><trkpt lat="43.32768824690565" lon="-0.4744807170998688"><ele>146.0</ele><time>2026-04-29T08:39:08.001Z</time></trkpt><trkpt lat="43.327731820212186" lon="-0.4746044901261933"><ele>146.0</ele><time>2026-04-29T08:39:09.001Z</time></trkpt><trkpt lat="43.32777655974412" lon="-0.47472918853233137"><ele>146.0</ele><time>2026-04-29T08:39:10.001Z</time></trkpt><trkpt lat="43.327821782384426" lon="-0.4748548534765517"><ele>146.0</ele><time>2026-04-29T08:39:11.001Z</time></trkpt><trkpt lat="43.32786731167124" lon="-0.47498117303503584"><ele>146.0</ele><time>2026-04-29T08:39:12.001Z</time></trkpt><trkpt lat="43.32791289452285" lon="-0.47510924855465136"><ele>146.0</ele><time>2026-04-29T08:39:13.001Z</time></trkpt><trkpt lat="43.32796204845746" lon="-0.47523328691924244"><ele>146.0</ele><time>2026-04-29T08:39:14.001Z</time></trkpt><trkpt lat="43.32800802368101" lon="-0.47536129665855764"><ele>146.0</ele><time>2026-04-29T08:39:15.001Z</time></trkpt><trkpt lat="43.3280514428367" lon="-0.4754915087250586"><ele>146.0</ele><time>2026-04-29T08:39:16.001Z</time></trkpt><trkpt lat="43.328097360840474" lon="-0.4756210068680721"><ele>146.0</ele><time>2026-04-29T08:39:17.001Z</time></trkpt><trkpt lat="43.3281425726064" lon="-0.47574968473128754"><ele>146.0</ele><time>2026-04-29T08:39:18.001Z</time></trkpt><trkpt lat="43.32818920040586" lon="-0.4758761053283623"><ele>146.0</ele><time>2026-04-29T08:39:19.001Z</time></trkpt><trkpt lat="43.32823553063901" lon="-0.47600431564116896"><ele>146.0</ele><time>2026-04-29T08:39:20.001Z</time></trkpt><trkpt lat="43.32827880542092" lon="-0.4761347947348617"><ele>146.0</ele><time>2026-04-29T08:39:21.001Z</time></trkpt><trkpt lat="43.328322080562245" lon="-0.4762631521607863"><ele>146.0</ele><time>2026-04-29T08:39:22.001Z</time></trkpt><trkpt lat="43.328365493502716" lon="-0.47639220674353905"><ele>145.8</ele><time>2026-04-29T08:39:23.001Z</time></trkpt><trkpt lat="43.32841091347886" lon="-0.4765205304244986"><ele>145.6</ele><time>2026-04-29T08:39:24.001Z</time></trkpt><trkpt lat="43.328455547330464" lon="-0.47664607075771614"><ele>145.4</ele><time>2026-04-29T08:39:25.001Z</time></trkpt><trkpt lat="43.32850150441953" lon="-0.4767726446114856"><ele>145.2</ele><time>2026-04-29T08:39:26.001Z</time></trkpt><trkpt lat="43.32854730178213" lon="-0.47689915624834167"><ele>145.0</ele><time>2026-04-29T08:39:27.001Z</time></trkpt><trkpt lat="43.32859504383341" lon="-0.4770267742378053"><ele>145.2</ele><time>2026-04-29T08:39:28.001Z</time></trkpt><trkpt lat="43.328640122183174" lon="-0.4771549317771865"><ele>145.4</ele><time>2026-04-29T08:39:29.001Z</time></trkpt><trkpt lat="43.32868593788041" lon="-0.4772817678711298"><ele>145.6</ele><time>2026-04-29T08:39:30.001Z</time></trkpt><trkpt lat="43.32872893234094" lon="-0.47740951432280504"><ele>145.8</ele><time>2026-04-29T08:39:31.001Z</time></trkpt><trkpt lat="43.3287721232617" lon="-0.47753687256776645"><ele>146.0</ele><time>2026-04-29T08:39:32.001Z</time></trkpt><trkpt lat="43.328813702140565" lon="-0.47766454979567563"><ele>146.0</ele><time>2026-04-29T08:39:33.001Z</time></trkpt><trkpt lat="43.328858089240214" lon="-0.477790536422983"><ele>146.0</ele><time>2026-04-29T08:39:34.001Z</time></trkpt><trkpt lat="43.328902273434295" lon="-0.4779162696844064"><ele>146.0</ele><time>2026-04-29T08:39:35.001Z</time></trkpt><trkpt lat="43.328949052237135" lon="-0.47803977872237213"><ele>146.0</ele><time>2026-04-29T08:39:36.001Z</time></trkpt><trkpt lat="43.32899328816115" lon="-0.47816437087994457"><ele>146.0</ele><time>2026-04-29T08:39:37.001Z</time></trkpt><trkpt lat="43.329033257711124" lon="-0.4782870591649095"><ele>146.0</ele><time>2026-04-29T08:39:38Z</time></trkpt><trkpt lat="43.329074139813436" lon="-0.47841068946821735"><ele>146.0</ele><time>2026-04-29T08:39:39Z</time></trkpt><trkpt lat="43.32911739860185" lon="-0.47853295314239364"><ele>146.0</ele><time>2026-04-29T08:39:40Z</time></trkpt><trkpt lat="43.3291569392361" lon="-0.47865991125783747"><ele>146.0</ele><time>2026-04-29T08:39:41Z</time></trkpt><trkpt lat="43.32919578972089" lon="-0.47878343893079534"><ele>146.0</ele><time>2026-04-29T08:39:42Z</time></trkpt><trkpt lat="43.3292411769333" lon="-0.47890926038600673"><ele>145.8</ele><time>2026-04-29T08:39:43Z</time></trkpt><trkpt lat="43.32928955227555" lon="-0.4790328346378048"><ele>145.6</ele><time>2026-04-29T08:39:44Z</time></trkpt><trkpt lat="43.32933733527192" lon="-0.4791570978198865"><ele>145.4</ele><time>2026-04-29T08:39:45Z</time></trkpt><trkpt lat="43.329380409815506" lon="-0.4792808986938983"><ele>145.2</ele><time>2026-04-29T08:39:46Z</time></trkpt><trkpt lat="43.32942360881797" lon="-0.47940472404124124"><ele>145.0</ele><time>2026-04-29T08:39:47Z</time></trkpt><trkpt lat="43.32946646107718" lon="-0.4795270824002888"><ele>145.0</ele><time>2026-04-29T08:39:48Z</time></trkpt><trkpt lat="43.32951022290934" lon="-0.4796484564194516"><ele>145.0</ele><time>2026-04-29T08:39:49Z</time></trkpt><trkpt lat="43.329553827435205" lon="-0.4797712026434139"><ele>145.0</ele><time>2026-04-29T08:39:50Z</time></trkpt><trkpt lat="43.32959665853637" lon="-0.47989343057574724"><ele>145.0</ele><time>2026-04-29T08:39:51Z</time></trkpt><trkpt lat="43.32964102556621" lon="-0.480011994982993"><ele>145.0</ele><time>2026-04-29T08:39:52Z</time></trkpt><trkpt lat="43.3296808667287" lon="-0.4801345333616053"><ele>145.0</ele><time>2026-04-29T08:39:53Z</time></trkpt><trkpt lat="43.32972055503509" lon="-0.4802540822028462"><ele>145.0</ele><time>2026-04-29T08:39:54Z</time></trkpt><trkpt lat="43.329759711211594" lon="-0.48037507115413386"><ele>145.0</ele><time>2026-04-29T08:39:55Z</time></trkpt><trkpt lat="43.329799159270536" lon="-0.4804980932671713"><ele>145.0</ele><time>2026-04-29T08:39:56Z</time></trkpt><trkpt lat="43.32983866659867" lon="-0.48062194536751124"><ele>145.0</ele><time>2026-04-29T08:39:57Z</time></trkpt><trkpt lat="43.329873689123446" lon="-0.48074760233776753"><ele>144.6</ele><time>2026-04-29T08:39:58Z</time></trkpt><trkpt lat="43.329908382903014" lon="-0.48087311986520825"><ele>144.2</ele><time>2026-04-29T08:39:59Z</time></trkpt><trkpt lat="43.32994425308099" lon="-0.4809985944404463"><ele>143.8</ele><time>2026-04-29T08:40:00Z</time></trkpt><trkpt lat="43.329979710399165" lon="-0.4811246236320208"><ele>143.4</ele><time>2026-04-29T08:40:01Z</time></trkpt><trkpt lat="43.33001563296172" lon="-0.4812501621806819"><ele>143.0</ele><time>2026-04-29T08:40:02Z</time></trkpt><trkpt lat="43.33005080207857" lon="-0.48137885923604523"><ele>143.0</ele><time>2026-04-29T08:40:03Z</time></trkpt><trkpt lat="43.330084497489054" lon="-0.4815037066236553"><ele>143.0</ele><time>2026-04-29T08:40:04Z</time></trkpt><trkpt lat="43.33011595783706" lon="-0.48163024982303293"><ele>143.0</ele><time>2026-04-29T08:40:05Z</time></trkpt><trkpt lat="43.330149171129165" lon="-0.4817586808628885"><ele>143.0</ele><time>2026-04-29T08:40:06Z</time></trkpt><trkpt lat="43.330182498093436" lon="-0.48188398861401466"><ele>143.0</ele><time>2026-04-29T08:40:07Z</time></trkpt><trkpt lat="43.33021419524677" lon="-0.48200797548978264"><ele>143.0</ele><time>2026-04-29T08:40:08Z</time></trkpt><trkpt lat="43.33024692117544" lon="-0.4821323678579663"><ele>143.0</ele><time>2026-04-29T08:40:09Z</time></trkpt><trkpt lat="43.330278069905724" lon="-0.4822575793702104"><ele>143.0</ele><time>2026-04-29T08:40:10Z</time></trkpt><trkpt lat="43.330307543812296" lon="-0.48237825183320626"><ele>143.0</ele><time>2026-04-29T08:40:11Z</time></trkpt><trkpt lat="43.33033735319588" lon="-0.48250231953244427"><ele>143.0</ele><time>2026-04-29T08:40:12Z</time></trkpt><trkpt lat="43.33037013713178" lon="-0.4826263784734525"><ele>143.0</ele><time>2026-04-29T08:40:13Z</time></trkpt><trkpt lat="43.33040250643048" lon="-0.48275113662848285"><ele>143.0</ele><time>2026-04-29T08:40:14Z</time></trkpt><trkpt lat="43.33043651282292" lon="-0.4828730249703607"><ele>143.0</ele><time>2026-04-29T08:40:15Z</time></trkpt><trkpt lat="43.33047108993369" lon="-0.4829988634261322"><ele>143.0</ele><time>2026-04-29T08:40:16Z</time></trkpt><trkpt lat="43.33050301047413" lon="-0.483126082486803"><ele>143.0</ele><time>2026-04-29T08:40:17Z</time></trkpt><trkpt lat="43.330532113695966" lon="-0.4832519028616718"><ele>143.0</ele><time>2026-04-29T08:40:18Z</time></trkpt><trkpt lat="43.330566118194184" lon="-0.4833834798048841"><ele>143.0</ele><time>2026-04-29T08:40:19Z</time></trkpt><trkpt lat="43.33059792505137" lon="-0.48350900475703057"><ele>143.0</ele><time>2026-04-29T08:40:20Z</time></trkpt><trkpt lat="43.330629621108" lon="-0.48364128005630785"><ele>143.0</ele><time>2026-04-29T08:40:21Z</time></trkpt><trkpt lat="43.33066338747678" lon="-0.4837735062345717"><ele>143.0</ele><time>2026-04-29T08:40:22Z</time></trkpt><trkpt lat="43.33069402823396" lon="-0.48390838786386825"><ele>143.0</ele><time>2026-04-29T08:40:23Z</time></trkpt><trkpt lat="43.330724194041984" lon="-0.48404236210129015"><ele>143.0</ele><time>2026-04-29T08:40:24Z</time></trkpt><trkpt lat="43.33075444504324" lon="-0.484179369129357"><ele>143.0</ele><time>2026-04-29T08:40:25Z</time></trkpt><trkpt lat="43.33079709564843" lon="-0.4843131401064837"><ele>143.0</ele><time>2026-04-29T08:40:26Z</time></trkpt><trkpt lat="43.330833869560706" lon="-0.4844532557934886"><ele>143.0</ele><time>2026-04-29T08:40:27Z</time></trkpt><trkpt lat="43.33086994455772" lon="-0.48459067028203007"><ele>143.4</ele><time>2026-04-29T08:40:28Z</time></trkpt><trkpt lat="43.330905289231794" lon="-0.48472659189255246"><ele>143.8</ele><time>2026-04-29T08:40:29Z</time></trkpt><trkpt lat="43.33094235322286" lon="-0.48486618598261094"><ele>144.2</ele><time>2026-04-29T08:40:30Z</time></trkpt><trkpt lat="43.33098078641575" lon="-0.48500352812821806"><ele>144.6</ele><time>2026-04-29T08:40:31.001Z</time></trkpt><trkpt lat="43.33101872934105" lon="-0.4851437001894367"><ele>145.0</ele><time>2026-04-29T08:40:32.001Z</time></trkpt><trkpt lat="43.331054670185125" lon="-0.48528005897065457"><ele>145.0</ele><time>2026-04-29T08:40:33.001Z</time></trkpt><trkpt lat="43.33108970704049" lon="-0.4854205349755994"><ele>145.0</ele><time>2026-04-29T08:40:34.001Z</time></trkpt><trkpt lat="43.331125024879775" lon="-0.48556014579441437"><ele>145.0</ele><time>2026-04-29T08:40:35.001Z</time></trkpt><trkpt lat="43.331161167590174" lon="-0.48570080311696084"><ele>145.0</ele><time>2026-04-29T08:40:36.001Z</time></trkpt><trkpt lat="43.331197241040904" lon="-0.485840143312549"><ele>145.0</ele><time>2026-04-29T08:40:37.001Z</time></trkpt><trkpt lat="43.331231297153884" lon="-0.48598157608043296"><ele>145.0</ele><time>2026-04-29T08:40:38.001Z</time></trkpt><trkpt lat="43.33126917880635" lon="-0.4861229202261811"><ele>145.0</ele><time>2026-04-29T08:40:39.001Z</time></trkpt><trkpt lat="43.331306957464" lon="-0.4862633259833212"><ele>145.0</ele><time>2026-04-29T08:40:40.001Z</time></trkpt><trkpt lat="43.331343507278184" lon="-0.48640714635194343"><ele>145.0</ele><time>2026-04-29T08:40:41.001Z</time></trkpt><trkpt lat="43.33137566651838" lon="-0.4865516577739764"><ele>145.0</ele><time>2026-04-29T08:40:42.001Z</time></trkpt><trkpt lat="43.33141102528306" lon="-0.4866913203832755"><ele>145.0</ele><time>2026-04-29T08:40:43.001Z</time></trkpt><trkpt lat="43.331447713478" lon="-0.48683103197270433"><ele>145.0</ele><time>2026-04-29T08:40:44.001Z</time></trkpt><trkpt lat="43.33148359322071" lon="-0.4869734677745771"><ele>145.0</ele><time>2026-04-29T08:40:45.001Z</time></trkpt><trkpt lat="43.331520608358595" lon="-0.4871142061860989"><ele>145.0</ele><time>2026-04-29T08:40:46.001Z</time></trkpt><trkpt lat="43.331556896270854" lon="-0.4872556377412347"><ele>145.0</ele><time>2026-04-29T08:40:47.001Z</time></trkpt><trkpt lat="43.33159267302613" lon="-0.4873980939723435"><ele>144.2</ele><time>2026-04-29T08:40:48.001Z</time></trkpt><trkpt lat="43.33163008377973" lon="-0.48753929863700435"><ele>143.4</ele><time>2026-04-29T08:40:49.001Z</time></trkpt><trkpt lat="43.33166750298267" lon="-0.4876793676726846"><ele>142.6</ele><time>2026-04-29T08:40:50.001Z</time></trkpt><trkpt lat="43.33170413232171" lon="-0.4878220359605486"><ele>141.8</ele><time>2026-04-29T08:40:51.001Z</time></trkpt><trkpt lat="43.33174063414128" lon="-0.48796244549197876"><ele>141.0</ele><time>2026-04-29T08:40:52.001Z</time></trkpt><trkpt lat="43.3317786004837" lon="-0.488103027343019"><ele>140.6</ele><time>2026-04-29T08:40:53.001Z</time></trkpt><trkpt lat="43.3318148346941" lon="-0.48824379819949415"><ele>140.2</ele><time>2026-04-29T08:40:54.001Z</time></trkpt><trkpt lat="43.33185122072435" lon="-0.4883831833192274"><ele>139.8</ele><time>2026-04-29T08:40:55.001Z</time></trkpt><trkpt lat="43.331886244829896" lon="-0.4885211526795076"><ele>139.4</ele><time>2026-04-29T08:40:56.001Z</time></trkpt><trkpt lat="43.331921676777775" lon="-0.48865708831379107"><ele>139.0</ele><time>2026-04-29T08:40:57.001Z</time></trkpt><trkpt lat="43.33195752493051" lon="-0.4887937706057446"><ele>139.0</ele><time>2026-04-29T08:40:58.001Z</time></trkpt><trkpt lat="43.33199335202792" lon="-0.48892941429835635"><ele>139.0</ele><time>2026-04-29T08:40:59.001Z</time></trkpt><trkpt lat="43.33203027908981" lon="-0.489064054090539"><ele>139.0</ele><time>2026-04-29T08:41:00.001Z</time></trkpt><trkpt lat="43.33206556130513" lon="-0.4891985541786307"><ele>139.0</ele><time>2026-04-29T08:41:01.001Z</time></trkpt><trkpt lat="43.33209995275883" lon="-0.4893338574221398"><ele>139.0</ele><time>2026-04-29T08:41:02.001Z</time></trkpt><trkpt lat="43.33213381130401" lon="-0.4894689620968093"><ele>139.2</ele><time>2026-04-29T08:41:03.001Z</time></trkpt><trkpt lat="43.332165959172826" lon="-0.48960218607550615"><ele>139.4</ele><time>2026-04-29T08:41:04.001Z</time></trkpt><trkpt lat="43.33220051180694" lon="-0.48973303834163845"><ele>139.6</ele><time>2026-04-29T08:41:05.001Z</time></trkpt><trkpt lat="43.332234491608304" lon="-0.4898650836781156"><ele>139.8</ele><time>2026-04-29T08:41:06.001Z</time></trkpt><trkpt lat="43.33226603278522" lon="-0.4899971777443817"><ele>140.0</ele><time>2026-04-29T08:41:07.001Z</time></trkpt><trkpt lat="43.332297573776515" lon="-0.49012804045947383"><ele>140.0</ele><time>2026-04-29T08:41:08.001Z</time></trkpt><trkpt lat="43.332335293673225" lon="-0.49025912143761924"><ele>140.0</ele><time>2026-04-29T08:41:09.001Z</time></trkpt><trkpt lat="43.33237549889509" lon="-0.49039243667356897"><ele>140.0</ele><time>2026-04-29T08:41:10.001Z</time></trkpt><trkpt lat="43.332413905596326" lon="-0.4905280104238865"><ele>140.0</ele><time>2026-04-29T08:41:11.001Z</time></trkpt><trkpt lat="43.33245480428144" lon="-0.49066088705727656"><ele>140.0</ele><time>2026-04-29T08:41:12.001Z</time></trkpt><trkpt lat="43.332488312031735" lon="-0.49078983064386644"><ele>139.8</ele><time>2026-04-29T08:41:13.001Z</time></trkpt><trkpt lat="43.33252280711066" lon="-0.49092255086042685"><ele>139.6</ele><time>2026-04-29T08:41:14.001Z</time></trkpt><trkpt lat="43.33256379312279" lon="-0.49105268989010376"><ele>139.4</ele><time>2026-04-29T08:41:15.001Z</time></trkpt><trkpt lat="43.33260658400551" lon="-0.49118168104742105"><ele>139.2</ele><time>2026-04-29T08:41:16.001Z</time></trkpt><trkpt lat="43.33264925328618" lon="-0.49131386412283673"><ele>139.0</ele><time>2026-04-29T08:41:17.001Z</time></trkpt><trkpt lat="43.33269016577225" lon="-0.49144516379926495"><ele>139.0</ele><time>2026-04-29T08:41:18.001Z</time></trkpt><trkpt lat="43.33273407767694" lon="-0.4915685989737104"><ele>139.0</ele><time>2026-04-29T08:41:19.001Z</time></trkpt><trkpt lat="43.33277681111563" lon="-0.49169740129007955"><ele>139.0</ele><time>2026-04-29T08:41:20.001Z</time></trkpt><trkpt lat="43.33282246914046" lon="-0.49182456341113406"><ele>139.0</ele><time>2026-04-29T08:41:21.001Z</time></trkpt><trkpt lat="43.332873124686245" lon="-0.49195204665657055"><ele>139.0</ele><time>2026-04-29T08:41:22.001Z</time></trkpt><trkpt lat="43.33292580423054" lon="-0.4920743449615551"><ele>139.2</ele><time>2026-04-29T08:41:23.001Z</time></trkpt><trkpt lat="43.33297765878481" lon="-0.49220223919276024"><ele>139.4</ele><time>2026-04-29T08:41:24.001Z</time></trkpt><trkpt lat="43.33303075005671" lon="-0.4923252584798784"><ele>139.6</ele><time>2026-04-29T08:41:25.001Z</time></trkpt><trkpt lat="43.33308415431111" lon="-0.4924483288514891"><ele>139.8</ele><time>2026-04-29T08:41:26.001Z</time></trkpt><trkpt lat="43.33313894652668" lon="-0.49256992321044407"><ele>140.0</ele><time>2026-04-29T08:41:27.001Z</time></trkpt><trkpt lat="43.333196932141504" lon="-0.4926899756081139"><ele>139.4</ele><time>2026-04-29T08:41:28.001Z</time></trkpt><trkpt lat="43.33325956307758" lon="-0.4928110642734814"><ele>138.8</ele><time>2026-04-29T08:41:29.001Z</time></trkpt><trkpt lat="43.333322956731905" lon="-0.49293101229316855"><ele>138.2</ele><time>2026-04-29T08:41:30.001Z</time></trkpt><trkpt lat="43.333386868131946" lon="-0.4930502895199977"><ele>137.6</ele><time>2026-04-29T08:41:31.001Z</time></trkpt><trkpt lat="43.33345270421054" lon="-0.4931682557858217"><ele>137.0</ele><time>2026-04-29T08:41:32.001Z</time></trkpt><trkpt lat="43.333518637934134" lon="-0.49328241890176094"><ele>136.79999999999998</ele><time>2026-04-29T08:41:33.001Z</time></trkpt><trkpt lat="43.33358671511324" lon="-0.49339769456839033"><ele>136.6</ele><time>2026-04-29T08:41:34.001Z</time></trkpt><trkpt lat="43.3336584229293" lon="-0.49351109300103196"><ele>136.39999999999998</ele><time>2026-04-29T08:41:35.001Z</time></trkpt><trkpt lat="43.333727934789266" lon="-0.4936202556591773"><ele>136.2</ele><time>2026-04-29T08:41:36.001Z</time></trkpt><trkpt lat="43.33380244113515" lon="-0.49372394174705997"><ele>136.0</ele><time>2026-04-29T08:41:37.001Z</time></trkpt><trkpt lat="43.33387593931315" lon="-0.4938328018756122"><ele>136.4</ele><time>2026-04-29T08:41:38.001Z</time></trkpt><trkpt lat="43.33394846648889" lon="-0.4939406525836981"><ele>136.8</ele><time>2026-04-29T08:41:39.001Z</time></trkpt><trkpt lat="43.33402247213195" lon="-0.49404211720628477"><ele>137.20000000000002</ele><time>2026-04-29T08:41:40.001Z</time></trkpt><trkpt lat="43.33409726160267" lon="-0.4941405686432897"><ele>137.6</ele><time>2026-04-29T08:41:41.001Z</time></trkpt><trkpt lat="43.33417392523007" lon="-0.49423804644364805"><ele>138.0</ele><time>2026-04-29T08:41:42.001Z</time></trkpt><trkpt lat="43.33424908579294" lon="-0.4943384146440582"><ele>138.0</ele><time>2026-04-29T08:41:43.001Z</time></trkpt><trkpt lat="43.33432360875682" lon="-0.4944399135012846"><ele>138.0</ele><time>2026-04-29T08:41:44Z</time></trkpt><trkpt lat="43.334396928425846" lon="-0.4945366161824134"><ele>138.0</ele><time>2026-04-29T08:41:45Z</time></trkpt><trkpt lat="43.334472818291495" lon="-0.49463726108129713"><ele>138.0</ele><time>2026-04-29T08:41:46Z</time></trkpt><trkpt lat="43.33454997706893" lon="-0.4947370087906913"><ele>138.0</ele><time>2026-04-29T08:41:47Z</time></trkpt><trkpt lat="43.33462592511689" lon="-0.4948370375622933"><ele>138.0</ele><time>2026-04-29T08:41:48Z</time></trkpt><trkpt lat="43.33470042903385" lon="-0.49493756496275393"><ele>138.0</ele><time>2026-04-29T08:41:49Z</time></trkpt><trkpt lat="43.33477529465676" lon="-0.4950396816950037"><ele>138.0</ele><time>2026-04-29T08:41:50Z</time></trkpt><trkpt lat="43.33485253208186" lon="-0.49514062485429367"><ele>138.0</ele><time>2026-04-29T08:41:51Z</time></trkpt><trkpt lat="43.334928857032075" lon="-0.4952408052405347"><ele>138.0</ele><time>2026-04-29T08:41:52Z</time></trkpt><trkpt lat="43.33500440386389" lon="-0.49534224625775"><ele>138.0</ele><time>2026-04-29T08:41:53Z</time></trkpt><trkpt lat="43.3350840178569" lon="-0.4954403445333258"><ele>138.0</ele><time>2026-04-29T08:41:54Z</time></trkpt><trkpt lat="43.335165126560774" lon="-0.4955420151134595"><ele>138.0</ele><time>2026-04-29T08:41:55Z</time></trkpt><trkpt lat="43.335241828451764" lon="-0.49564537361369443"><ele>138.0</ele><time>2026-04-29T08:41:56Z</time></trkpt><trkpt lat="43.33531785251101" lon="-0.4957449602081674"><ele>138.0</ele><time>2026-04-29T08:41:57Z</time></trkpt><trkpt lat="43.335395535217316" lon="-0.49584412199603906"><ele>138.0</ele><time>2026-04-29T08:41:58Z</time></trkpt><trkpt lat="43.33547358912651" lon="-0.495943845460292"><ele>138.0</ele><time>2026-04-29T08:41:59Z</time></trkpt><trkpt lat="43.33555200502225" lon="-0.49604717905736145"><ele>138.0</ele><time>2026-04-29T08:42:00Z</time></trkpt><trkpt lat="43.33563168941575" lon="-0.49614996676159306"><ele>138.0</ele><time>2026-04-29T08:42:01Z</time></trkpt><trkpt lat="43.33570930637975" lon="-0.49625304547443266"><ele>138.0</ele><time>2026-04-29T08:42:02Z</time></trkpt><trkpt lat="43.33578580438939" lon="-0.49635513929629665"><ele>138.0</ele><time>2026-04-29T08:42:03Z</time></trkpt><trkpt lat="43.3358600144445" lon="-0.4964561163748443"><ele>138.0</ele><time>2026-04-29T08:42:04Z</time></trkpt><trkpt lat="43.335934115746774" lon="-0.49655836540644244"><ele>138.0</ele><time>2026-04-29T08:42:05Z</time></trkpt><trkpt lat="43.33601144719155" lon="-0.4966588119478325"><ele>138.0</ele><time>2026-04-29T08:42:06Z</time></trkpt><trkpt lat="43.336087162887765" lon="-0.49676042119319097"><ele>138.0</ele><time>2026-04-29T08:42:07Z</time></trkpt><trkpt lat="43.33616222983361" lon="-0.49686366093296847"><ele>138.0</ele><time>2026-04-29T08:42:08Z</time></trkpt><trkpt lat="43.33623518700949" lon="-0.49697139032455084"><ele>138.0</ele><time>2026-04-29T08:42:09Z</time></trkpt><trkpt lat="43.33630798965602" lon="-0.4970793904607535"><ele>138.0</ele><time>2026-04-29T08:42:10Z</time></trkpt><trkpt lat="43.33637868143924" lon="-0.4971870067660259"><ele>138.0</ele><time>2026-04-29T08:42:11Z</time></trkpt><trkpt lat="43.33644785594246" lon="-0.49729643478786895"><ele>138.0</ele><time>2026-04-29T08:42:12Z</time></trkpt><trkpt lat="43.33651595940289" lon="-0.4974086673701724"><ele>137.6</ele><time>2026-04-29T08:42:13Z</time></trkpt><trkpt lat="43.336579591399044" lon="-0.4975228922371892"><ele>137.20000000000002</ele><time>2026-04-29T08:42:14Z</time></trkpt><trkpt lat="43.336640641541244" lon="-0.497639240166581"><ele>136.8</ele><time>2026-04-29T08:42:15Z</time></trkpt><trkpt lat="43.336701205212194" lon="-0.49775537016664134"><ele>136.4</ele><time>2026-04-29T08:42:16Z</time></trkpt><trkpt lat="43.33676064765082" lon="-0.497872940557142"><ele>136.0</ele><time>2026-04-29T08:42:17Z</time></trkpt><trkpt lat="43.33681760852947" lon="-0.4979923520590683"><ele>135.8</ele><time>2026-04-29T08:42:18Z</time></trkpt><trkpt lat="43.336874761710725" lon="-0.4981110547221246"><ele>135.6</ele><time>2026-04-29T08:42:19Z</time></trkpt><trkpt lat="43.336933390528486" lon="-0.4982345775384499"><ele>135.4</ele><time>2026-04-29T08:42:20Z</time></trkpt><trkpt lat="43.336985903628225" lon="-0.49835588784332835"><ele>135.2</ele><time>2026-04-29T08:42:21Z</time></trkpt><trkpt lat="43.33703826051175" lon="-0.49848135368574464"><ele>135.0</ele><time>2026-04-29T08:42:22Z</time></trkpt><trkpt lat="43.337086275192256" lon="-0.49860644036516866"><ele>135.0</ele><time>2026-04-29T08:42:23Z</time></trkpt><trkpt lat="43.33713601851568" lon="-0.4987325944289996"><ele>135.0</ele><time>2026-04-29T08:42:24Z</time></trkpt><trkpt lat="43.3371836148474" lon="-0.4988616739926825"><ele>135.0</ele><time>2026-04-29T08:42:25Z</time></trkpt><trkpt lat="43.337224421683324" lon="-0.4989900083443187"><ele>135.0</ele><time>2026-04-29T08:42:26Z</time></trkpt><trkpt lat="43.337262520987444" lon="-0.49912037438157436"><ele>135.0</ele><time>2026-04-29T08:42:27Z</time></trkpt><trkpt lat="43.337302162051635" lon="-0.49925145808424737"><ele>135.2</ele><time>2026-04-29T08:42:28Z</time></trkpt><trkpt lat="43.33734160482333" lon="-0.49938099158616306"><ele>135.4</ele><time>2026-04-29T08:42:29Z</time></trkpt><trkpt lat="43.33737853697531" lon="-0.49951572560853835"><ele>135.6</ele><time>2026-04-29T08:42:30Z</time></trkpt><trkpt lat="43.33741113818182" lon="-0.4996485840854327"><ele>135.8</ele><time>2026-04-29T08:42:31Z</time></trkpt><trkpt lat="43.337441831912344" lon="-0.4997789521672962"><ele>136.0</ele><time>2026-04-29T08:42:32Z</time></trkpt><trkpt lat="43.337472433052746" lon="-0.4999102324913639"><ele>136.0</ele><time>2026-04-29T08:42:33Z</time></trkpt><trkpt lat="43.337503318358856" lon="-0.5000448552643085"><ele>136.0</ele><time>2026-04-29T08:42:34Z</time></trkpt><trkpt lat="43.337532674547106" lon="-0.500181936624325"><ele>136.0</ele><time>2026-04-29T08:42:35Z</time></trkpt><trkpt lat="43.33755639810737" lon="-0.5003174988437096"><ele>136.0</ele><time>2026-04-29T08:42:36Z</time></trkpt><trkpt lat="43.33757965237619" lon="-0.5004478902756111"><ele>136.0</ele><time>2026-04-29T08:42:37Z</time></trkpt><trkpt lat="43.337598924225134" lon="-0.5005815854804909"><ele>136.2</ele><time>2026-04-29T08:42:38.001Z</time></trkpt><trkpt lat="43.337617575069885" lon="-0.5007146712903653"><ele>136.39999999999998</ele><time>2026-04-29T08:42:39.001Z</time></trkpt><trkpt lat="43.33763532285767" lon="-0.5008483072500005"><ele>136.6</ele><time>2026-04-29T08:42:40.001Z</time></trkpt><trkpt lat="43.337651280933066" lon="-0.5009855327672684"><ele>136.79999999999998</ele><time>2026-04-29T08:42:41.001Z</time></trkpt><trkpt lat="43.337662811497815" lon="-0.501120599658954"><ele>137.0</ele><time>2026-04-29T08:42:42.001Z</time></trkpt><trkpt lat="43.33767581541455" lon="-0.5012551704472414"><ele>137.2</ele><time>2026-04-29T08:42:43.001Z</time></trkpt><trkpt lat="43.33768644464984" lon="-0.5013868145373751"><ele>137.39999999999998</ele><time>2026-04-29T08:42:44.001Z</time></trkpt><trkpt lat="43.33769920153742" lon="-0.5015189912940452"><ele>137.60000000000002</ele><time>2026-04-29T08:42:45.001Z</time></trkpt><trkpt lat="43.33770981425497" lon="-0.5016537278270431"><ele>137.8</ele><time>2026-04-29T08:42:46.001Z</time></trkpt><trkpt lat="43.337721943540984" lon="-0.5017878649921652"><ele>138.0</ele><time>2026-04-29T08:42:47.001Z</time></trkpt><trkpt lat="43.337732094985505" lon="-0.501927902936028"><ele>138.0</ele><time>2026-04-29T08:42:48.001Z</time></trkpt><trkpt lat="43.33774222854308" lon="-0.5020652367115327"><ele>138.0</ele><time>2026-04-29T08:42:49.001Z</time></trkpt><trkpt lat="43.33775089552238" lon="-0.5022035656326017"><ele>138.0</ele><time>2026-04-29T08:42:50.001Z</time></trkpt><trkpt lat="43.33776030869879" lon="-0.5023421607537277"><ele>138.0</ele><time>2026-04-29T08:42:51.001Z</time></trkpt><trkpt lat="43.337773696258864" lon="-0.5024816891967687"><ele>138.0</ele><time>2026-04-29T08:42:52.001Z</time></trkpt><trkpt lat="43.33778571443234" lon="-0.5026202516172347"><ele>137.6</ele><time>2026-04-29T08:42:53.001Z</time></trkpt><trkpt lat="43.33779686019312" lon="-0.5027575421390708"><ele>137.20000000000002</ele><time>2026-04-29T08:42:54.001Z</time></trkpt><trkpt lat="43.33780905143419" lon="-0.5028965751202131"><ele>136.8</ele><time>2026-04-29T08:42:55.001Z</time></trkpt><trkpt lat="43.337822172942374" lon="-0.503039966079691"><ele>136.4</ele><time>2026-04-29T08:42:56.001Z</time></trkpt><trkpt lat="43.33783424633354" lon="-0.5031790136268465"><ele>136.0</ele><time>2026-04-29T08:42:57.001Z</time></trkpt><trkpt lat="43.337846945854736" lon="-0.5033209889228031"><ele>136.0</ele><time>2026-04-29T08:42:58.001Z</time></trkpt><trkpt lat="43.3378592184816" lon="-0.5034644259075116"><ele>136.0</ele><time>2026-04-29T08:42:59.001Z</time></trkpt><trkpt lat="43.33787295015107" lon="-0.5036047153488694"><ele>136.0</ele><time>2026-04-29T08:43:00.001Z</time></trkpt><trkpt lat="43.33788372577864" lon="-0.5037441193367697"><ele>136.0</ele><time>2026-04-29T08:43:01.001Z</time></trkpt><trkpt lat="43.33789582633868" lon="-0.5038843409490547"><ele>136.0</ele><time>2026-04-29T08:43:02.001Z</time></trkpt><trkpt lat="43.33790708181843" lon="-0.5040211825001147"><ele>135.8</ele><time>2026-04-29T08:43:03.001Z</time></trkpt><trkpt lat="43.337918749614865" lon="-0.5041587453199182"><ele>135.6</ele><time>2026-04-29T08:43:04.001Z</time></trkpt><trkpt lat="43.33792935524458" lon="-0.5042961948328427"><ele>135.4</ele><time>2026-04-29T08:43:05.001Z</time></trkpt><trkpt lat="43.337939202168755" lon="-0.5044317955699801"><ele>135.2</ele><time>2026-04-29T08:43:06.001Z</time></trkpt><trkpt lat="43.33795070689093" lon="-0.5045640294184301"><ele>135.0</ele><time>2026-04-29T08:43:07.001Z</time></trkpt><trkpt lat="43.33796138022009" lon="-0.5046993090672569"><ele>135.0</ele><time>2026-04-29T08:43:08.001Z</time></trkpt><trkpt lat="43.33796947715259" lon="-0.5048337793250274"><ele>135.0</ele><time>2026-04-29T08:43:09.001Z</time></trkpt><trkpt lat="43.337981519918934" lon="-0.504963126369005"><ele>135.0</ele><time>2026-04-29T08:43:10.001Z</time></trkpt><trkpt lat="43.33799081389356" lon="-0.5050898512483268"><ele>135.0</ele><time>2026-04-29T08:43:11.001Z</time></trkpt><trkpt lat="43.338002675820675" lon="-0.5052103435868921"><ele>135.0</ele><time>2026-04-29T08:43:12.001Z</time></trkpt><trkpt lat="43.338012265303284" lon="-0.5053162121660274"><ele>135.14285714285714</ele><time>2026-04-29T08:43:13.001Z</time></trkpt><trkpt lat="43.338025434702594" lon="-0.5054553955612765"><ele>135.28571428571428</ele><time>2026-04-29T08:43:15.001Z</time></trkpt><trkpt lat="43.338029558020935" lon="-0.5055451552046664"><ele>135.42857142857142</ele><time>2026-04-29T08:50:03.001Z</time></trkpt><trkpt lat="43.33805180871495" lon="-0.5056322027898442"><ele>135.57142857142856</ele><time>2026-04-29T08:50:07.001Z</time></trkpt><trkpt lat="43.33806053020547" lon="-0.5057313284177625"><ele>135.71428571428572</ele><time>2026-04-29T08:50:12Z</time></trkpt><trkpt lat="43.33806851214754" lon="-0.5058250216966667"><ele>135.85714285714283</ele><time>2026-04-29T08:50:17Z</time></trkpt><trkpt lat="43.3380855410842" lon="-0.5059227915418956"><ele>136.0</ele><time>2026-04-29T08:50:43Z</time></trkpt><trkpt lat="43.33810932491404" lon="-0.5060881866828135"><ele>136.16666666666669</ele><time>2026-04-29T08:50:53Z</time></trkpt><trkpt lat="43.338117713597704" lon="-0.5061872583031083"><ele>136.33333333333334</ele><time>2026-04-29T08:50:54Z</time></trkpt><trkpt lat="43.338129836271" lon="-0.5062780965526363"><ele>136.5</ele><time>2026-04-29T08:50:55Z</time></trkpt><trkpt lat="43.338148235488234" lon="-0.5063803921802105"><ele>136.66666666666666</ele><time>2026-04-29T08:50:56Z</time></trkpt><trkpt lat="43.338171658660364" lon="-0.5064855942331542"><ele>136.83333333333331</ele><time>2026-04-29T08:50:57Z</time></trkpt><trkpt lat="43.33819449114248" lon="-0.5065976714227567"><ele>137.0</ele><time>2026-04-29T08:50:58Z</time></trkpt><trkpt lat="43.338218501806274" lon="-0.5067098747060015"><ele>137.0</ele><time>2026-04-29T08:50:59Z</time></trkpt><trkpt lat="43.33824808680096" lon="-0.5068280775366765"><ele>137.0</ele><time>2026-04-29T08:51:00Z</time></trkpt><trkpt lat="43.33827671484539" lon="-0.5069481521914158"><ele>137.0</ele><time>2026-04-29T08:51:01Z</time></trkpt><trkpt lat="43.338308288105445" lon="-0.5070707446314783"><ele>137.0</ele><time>2026-04-29T08:51:02Z</time></trkpt><trkpt lat="43.3383419014349" lon="-0.5071947849846015"><ele>137.0</ele><time>2026-04-29T08:51:03Z</time></trkpt><trkpt lat="43.338377688974205" lon="-0.5073171219520417"><ele>137.0</ele><time>2026-04-29T08:51:04Z</time></trkpt><trkpt lat="43.33841511244845" lon="-0.5074442607389341"><ele>137.0</ele><time>2026-04-29T08:51:05Z</time></trkpt><trkpt lat="43.338455620993805" lon="-0.5075703701161999"><ele>137.0</ele><time>2026-04-29T08:51:06Z</time></trkpt><trkpt lat="43.33849592762019" lon="-0.5076939417171769"><ele>137.0</ele><time>2026-04-29T08:51:07Z</time></trkpt><trkpt lat="43.33853489713549" lon="-0.5078125059836796"><ele>137.0</ele><time>2026-04-29T08:51:08Z</time></trkpt><trkpt lat="43.33858026926358" lon="-0.5079391322069876"><ele>137.0</ele><time>2026-04-29T08:51:09Z</time></trkpt><trkpt lat="43.33862985540036" lon="-0.5080647143480314"><ele>137.0</ele><time>2026-04-29T08:51:10Z</time></trkpt><trkpt lat="43.33867867519862" lon="-0.5081855996934461"><ele>137.0</ele><time>2026-04-29T08:51:11Z</time></trkpt><trkpt lat="43.33872734395436" lon="-0.5083006633384559"><ele>137.0</ele><time>2026-04-29T08:51:12Z</time></trkpt><trkpt lat="43.33878350349963" lon="-0.508416683638527"><ele>137.0</ele><time>2026-04-29T08:51:13Z</time></trkpt><trkpt lat="43.338835945630485" lon="-0.5085326790504457"><ele>136.79999999999998</ele><time>2026-04-29T08:51:14Z</time></trkpt><trkpt lat="43.338895561752885" lon="-0.5086451472789766"><ele>136.6</ele><time>2026-04-29T08:51:15Z</time></trkpt><trkpt lat="43.33895233925061" lon="-0.5087601579173023"><ele>136.39999999999998</ele><time>2026-04-29T08:51:16Z</time></trkpt><trkpt lat="43.339005911860546" lon="-0.5088724466891371"><ele>136.2</ele><time>2026-04-29T08:51:17Z</time></trkpt><trkpt lat="43.33906937854277" lon="-0.5089792801484291"><ele>136.0</ele><time>2026-04-29T08:51:18Z</time></trkpt><trkpt lat="43.3391282063137" lon="-0.509086371964617"><ele>136.0</ele><time>2026-04-29T08:51:19Z</time></trkpt><trkpt lat="43.33919511439914" lon="-0.5091943287676047"><ele>136.0</ele><time>2026-04-29T08:51:20Z</time></trkpt><trkpt lat="43.33926069773865" lon="-0.5093062493485098"><ele>136.0</ele><time>2026-04-29T08:51:21Z</time></trkpt><trkpt lat="43.33932807095457" lon="-0.5094179592948721"><ele>136.0</ele><time>2026-04-29T08:51:22Z</time></trkpt><trkpt lat="43.33939281172649" lon="-0.5095313486001405"><ele>136.0</ele><time>2026-04-29T08:51:23Z</time></trkpt><trkpt lat="43.33947483760313" lon="-0.5096505916274245"><ele>135.4</ele><time>2026-04-29T08:51:24Z</time></trkpt><trkpt lat="43.33954243679324" lon="-0.5097414519152069"><ele>134.8</ele><time>2026-04-29T08:51:25Z</time></trkpt><trkpt lat="43.33961897708393" lon="-0.5098394809986397"><ele>134.20000000000002</ele><time>2026-04-29T08:51:26Z</time></trkpt><trkpt lat="43.33969735014439" lon="-0.5099370854341968"><ele>133.6</ele><time>2026-04-29T08:51:27Z</time></trkpt><trkpt lat="43.33976707829889" lon="-0.5100330451957361"><ele>133.0</ele><time>2026-04-29T08:51:28Z</time></trkpt><trkpt lat="43.33984074175774" lon="-0.5101215400547211"><ele>133.0</ele><time>2026-04-29T08:51:29Z</time></trkpt><trkpt lat="43.339918253992494" lon="-0.5102103275558642"><ele>133.0</ele><time>2026-04-29T08:51:30.001Z</time></trkpt><trkpt lat="43.339995284351566" lon="-0.5103179144372175"><ele>133.0</ele><time>2026-04-29T08:51:31.001Z</time></trkpt><trkpt lat="43.34007029322141" lon="-0.5104214623645229"><ele>133.0</ele><time>2026-04-29T08:51:32.001Z</time></trkpt><trkpt lat="43.34014760493477" lon="-0.5105203521138598"><ele>133.0</ele><time>2026-04-29T08:51:33.001Z</time></trkpt><trkpt lat="43.340222795888714" lon="-0.5106212476982847"><ele>132.8</ele><time>2026-04-29T08:51:34.001Z</time></trkpt><trkpt lat="43.340301184351425" lon="-0.510717261428735"><ele>132.60000000000002</ele><time>2026-04-29T08:51:35.001Z</time></trkpt><trkpt lat="43.340376636113206" lon="-0.5108150441455833"><ele>132.39999999999998</ele><time>2026-04-29T08:51:36.001Z</time></trkpt><trkpt lat="43.340448894061424" lon="-0.5109129484915202"><ele>132.2</ele><time>2026-04-29T08:51:37.001Z</time></trkpt><trkpt lat="43.34052200504777" lon="-0.5110111078780715"><ele>132.0</ele><time>2026-04-29T08:51:38.001Z</time></trkpt><trkpt lat="43.340597981979364" lon="-0.5111086694981523"><ele>132.0</ele><time>2026-04-29T08:51:39.001Z</time></trkpt><trkpt lat="43.3406737275126" lon="-0.5112064204887732"><ele>132.0</ele><time>2026-04-29T08:51:40.001Z</time></trkpt><trkpt lat="43.340752741588794" lon="-0.5113039861808075"><ele>132.0</ele><time>2026-04-29T08:51:41.001Z</time></trkpt><trkpt lat="43.34082849970224" lon="-0.5113996058956168"><ele>132.0</ele><time>2026-04-29T08:51:42.001Z</time></trkpt><trkpt lat="43.34090378755385" lon="-0.5114929738882806"><ele>132.0</ele><time>2026-04-29T08:51:43.001Z</time></trkpt><trkpt lat="43.34097772368955" lon="-0.5115877415544492"><ele>132.0</ele><time>2026-04-29T08:51:44.001Z</time></trkpt><trkpt lat="43.34105161315981" lon="-0.5116814649323717"><ele>132.0</ele><time>2026-04-29T08:51:45.001Z</time></trkpt><trkpt lat="43.34112219385561" lon="-0.5117804765837896"><ele>132.0</ele><time>2026-04-29T08:51:46.001Z</time></trkpt><trkpt lat="43.34119243080299" lon="-0.5118752115740346"><ele>132.0</ele><time>2026-04-29T08:51:47.001Z</time></trkpt><trkpt lat="43.34126668851887" lon="-0.5119645902239248"><ele>132.0</ele><time>2026-04-29T08:51:48.001Z</time></trkpt><trkpt lat="43.34133707977512" lon="-0.5120584206676307"><ele>132.2</ele><time>2026-04-29T08:51:49.001Z</time></trkpt><trkpt lat="43.34140800902728" lon="-0.5121515644396882"><ele>132.39999999999998</ele><time>2026-04-29T08:51:50.001Z</time></trkpt><trkpt lat="43.341478460172404" lon="-0.5122432724180619"><ele>132.60000000000002</ele><time>2026-04-29T08:51:51.001Z</time></trkpt><trkpt lat="43.34154761528786" lon="-0.512335231988702"><ele>132.8</ele><time>2026-04-29T08:51:52.001Z</time></trkpt><trkpt lat="43.34161946685742" lon="-0.5124262455258968"><ele>133.0</ele><time>2026-04-29T08:51:53.001Z</time></trkpt><trkpt lat="43.34169075250031" lon="-0.5125161323178915"><ele>133.0</ele><time>2026-04-29T08:51:54.001Z</time></trkpt><trkpt lat="43.34176212226208" lon="-0.5126073659676826"><ele>133.0</ele><time>2026-04-29T08:51:55.001Z</time></trkpt><trkpt lat="43.341831956535515" lon="-0.5127014241878808"><ele>133.0</ele><time>2026-04-29T08:51:56.001Z</time></trkpt><trkpt lat="43.34190192993175" lon="-0.5127955277756305"><ele>133.0</ele><time>2026-04-29T08:51:57.001Z</time></trkpt><trkpt lat="43.34197207790296" lon="-0.5128849410822677"><ele>133.0</ele><time>2026-04-29T08:51:58.001Z</time></trkpt><trkpt lat="43.34203997561755" lon="-0.5129809581500558"><ele>133.20000000000002</ele><time>2026-04-29T08:51:59.001Z</time></trkpt><trkpt lat="43.34211085341842" lon="-0.5130733845611145"><ele>133.4</ele><time>2026-04-29T08:52:00.001Z</time></trkpt><trkpt lat="43.3421793386482" lon="-0.5131613095372909"><ele>133.60000000000002</ele><time>2026-04-29T08:52:01.001Z</time></trkpt><trkpt lat="43.342247612026384" lon="-0.5132512464439104"><ele>133.8</ele><time>2026-04-29T08:52:02.001Z</time></trkpt><trkpt lat="43.342315266326295" lon="-0.5133424656352511"><ele>134.0</ele><time>2026-04-29T08:52:03.001Z</time></trkpt><trkpt lat="43.342382768465555" lon="-0.5134294614175288"><ele>134.0</ele><time>2026-04-29T08:52:04.001Z</time></trkpt><trkpt lat="43.342448932384144" lon="-0.5135195637679247"><ele>134.0</ele><time>2026-04-29T08:52:05.001Z</time></trkpt><trkpt lat="43.342516918361106" lon="-0.5136081478611308"><ele>134.0</ele><time>2026-04-29T08:52:06.001Z</time></trkpt><trkpt lat="43.34258439121592" lon="-0.5136990022792411"><ele>134.0</ele><time>2026-04-29T08:52:07.001Z</time></trkpt><trkpt lat="43.34265425491482" lon="-0.513788399289158"><ele>134.0</ele><time>2026-04-29T08:52:08.001Z</time></trkpt><trkpt lat="43.342723122090135" lon="-0.5138790527721362"><ele>133.6</ele><time>2026-04-29T08:52:09.001Z</time></trkpt><trkpt lat="43.34279272113979" lon="-0.5139688088887807"><ele>133.2</ele><time>2026-04-29T08:52:10.001Z</time></trkpt><trkpt lat="43.342863466897" lon="-0.5140603250454481"><ele>132.79999999999998</ele><time>2026-04-29T08:52:11.001Z</time></trkpt><trkpt lat="43.34293177252352" lon="-0.5141468908996437"><ele>132.4</ele><time>2026-04-29T08:52:12.001Z</time></trkpt><trkpt lat="43.34300047111211" lon="-0.5142363533740959"><ele>132.0</ele><time>2026-04-29T08:52:13.001Z</time></trkpt><trkpt lat="43.343070465410385" lon="-0.5143256065795621"><ele>132.0</ele><time>2026-04-29T08:52:13.999Z</time></trkpt><trkpt lat="43.343140437086205" lon="-0.5144148474176925"><ele>132.0</ele><time>2026-04-29T08:52:14.999Z</time></trkpt><trkpt lat="43.34320990403251" lon="-0.5145048002422508"><ele>132.0</ele><time>2026-04-29T08:52:15.999Z</time></trkpt><trkpt lat="43.34327793620406" lon="-0.5145963377932631"><ele>132.0</ele><time>2026-04-29T08:52:16.999Z</time></trkpt><trkpt lat="43.34334632218853" lon="-0.5146881226408137"><ele>132.0</ele><time>2026-04-29T08:52:17.999Z</time></trkpt><trkpt lat="43.343414928803604" lon="-0.5147721129817042"><ele>132.2</ele><time>2026-04-29T08:52:18.999Z</time></trkpt><trkpt lat="43.3434829988301" lon="-0.5148603513184573"><ele>132.39999999999998</ele><time>2026-04-29T08:52:19.999Z</time></trkpt><trkpt lat="43.34355295952465" lon="-0.5149524283846304"><ele>132.60000000000002</ele><time>2026-04-29T08:52:20.999Z</time></trkpt><trkpt lat="43.34362183309244" lon="-0.5150433414176598"><ele>132.8</ele><time>2026-04-29T08:52:21.999Z</time></trkpt><trkpt lat="43.34369121037451" lon="-0.5151350656834698"><ele>133.0</ele><time>2026-04-29T08:52:22.999Z</time></trkpt><trkpt lat="43.34376170046714" lon="-0.5152265066239734"><ele>133.0</ele><time>2026-04-29T08:52:23.999Z</time></trkpt><trkpt lat="43.343829595945145" lon="-0.5153127813753836"><ele>133.0</ele><time>2026-04-29T08:52:24.999Z</time></trkpt><trkpt lat="43.34389818327807" lon="-0.5154064525265848"><ele>133.0</ele><time>2026-04-29T08:52:25.999Z</time></trkpt><trkpt lat="43.34396787030048" lon="-0.5154986918190526"><ele>133.0</ele><time>2026-04-29T08:52:26.999Z</time></trkpt><trkpt lat="43.34403638574372" lon="-0.5155936822282047"><ele>133.0</ele><time>2026-04-29T08:52:27.999Z</time></trkpt><trkpt lat="43.344106134933455" lon="-0.5156855993574994"><ele>132.6</ele><time>2026-04-29T08:52:28.999Z</time></trkpt><trkpt lat="43.34417615092335" lon="-0.515776436483159"><ele>132.20000000000002</ele><time>2026-04-29T08:52:29.999Z</time></trkpt><trkpt lat="43.34424708599818" lon="-0.5158678678349626"><ele>131.8</ele><time>2026-04-29T08:52:30.999Z</time></trkpt><trkpt lat="43.34431779462235" lon="-0.5159612281916998"><ele>131.4</ele><time>2026-04-29T08:52:31.999Z</time></trkpt><trkpt lat="43.34438894177582" lon="-0.5160533022713885"><ele>131.0</ele><time>2026-04-29T08:52:32.999Z</time></trkpt><trkpt lat="43.344460008959636" lon="-0.5161445854610704"><ele>131.0</ele><time>2026-04-29T08:52:33.999Z</time></trkpt><trkpt lat="43.344530445321794" lon="-0.5162341342602683"><ele>131.0</ele><time>2026-04-29T08:52:35Z</time></trkpt><trkpt lat="43.34459925866283" lon="-0.5163249236920691"><ele>131.0</ele><time>2026-04-29T08:52:36Z</time></trkpt><trkpt lat="43.344667306104334" lon="-0.5164157249661252"><ele>131.0</ele><time>2026-04-29T08:52:37Z</time></trkpt><trkpt lat="43.34473627314506" lon="-0.516506144458395"><ele>131.0</ele><time>2026-04-29T08:52:38Z</time></trkpt><trkpt lat="43.344805714574186" lon="-0.516597132730244"><ele>131.4</ele><time>2026-04-29T08:52:39Z</time></trkpt><trkpt lat="43.34487594354119" lon="-0.5166868178606681"><ele>131.8</ele><time>2026-04-29T08:52:40Z</time></trkpt><trkpt lat="43.344945887585894" lon="-0.5167793424224663"><ele>132.20000000000002</ele><time>2026-04-29T08:52:41Z</time></trkpt><trkpt lat="43.345018195846976" lon="-0.5168715875292812"><ele>132.6</ele><time>2026-04-29T08:52:42Z</time></trkpt><trkpt lat="43.34509705577538" lon="-0.5169680834335649"><ele>133.0</ele><time>2026-04-29T08:52:43Z</time></trkpt><trkpt lat="43.34516557625449" lon="-0.5170573475332262"><ele>132.8</ele><time>2026-04-29T08:52:44Z</time></trkpt><trkpt lat="43.345234928996895" lon="-0.5171506408497786"><ele>132.60000000000002</ele><time>2026-04-29T08:52:45Z</time></trkpt><trkpt lat="43.345300790283815" lon="-0.5172506493830478"><ele>132.39999999999998</ele><time>2026-04-29T08:52:46Z</time></trkpt><trkpt lat="43.34537512645891" lon="-0.5173479372517348"><ele>132.2</ele><time>2026-04-29T08:52:47Z</time></trkpt><trkpt lat="43.34544994577275" lon="-0.5174481830648473"><ele>132.0</ele><time>2026-04-29T08:52:48Z</time></trkpt><trkpt lat="43.34552134813744" lon="-0.5175449299475088"><ele>131.79999999999998</ele><time>2026-04-29T08:52:49Z</time></trkpt><trkpt lat="43.345595132750624" lon="-0.5176388808082346"><ele>131.6</ele><time>2026-04-29T08:52:50Z</time></trkpt><trkpt lat="43.345671252082234" lon="-0.517734675471262"><ele>131.39999999999998</ele><time>2026-04-29T08:52:51Z</time></trkpt><trkpt lat="43.34574700788457" lon="-0.5178304376187912"><ele>131.2</ele><time>2026-04-29T08:52:52Z</time></trkpt><trkpt lat="43.34582314785391" lon="-0.5179294399840569"><ele>131.0</ele><time>2026-04-29T08:52:53Z</time></trkpt><trkpt lat="43.34589778494388" lon="-0.5180268212702408"><ele>131.4</ele><time>2026-04-29T08:52:54Z</time></trkpt><trkpt lat="43.345972072095385" lon="-0.5181237235753887"><ele>131.8</ele><time>2026-04-29T08:52:55Z</time></trkpt><trkpt lat="43.34604723638627" lon="-0.5182204902990127"><ele>132.20000000000002</ele><time>2026-04-29T08:52:56Z</time></trkpt><trkpt lat="43.346119037993724" lon="-0.5183246095046308"><ele>132.6</ele><time>2026-04-29T08:52:57Z</time></trkpt><trkpt lat="43.34619695883647" lon="-0.518422058836176"><ele>133.0</ele><time>2026-04-29T08:52:58Z</time></trkpt><trkpt lat="43.346270856915055" lon="-0.5185223618234774"><ele>133.0</ele><time>2026-04-29T08:52:59Z</time></trkpt><trkpt lat="43.346349434008104" lon="-0.5186207571720653"><ele>133.0</ele><time>2026-04-29T08:53:00Z</time></trkpt><trkpt lat="43.346422966264406" lon="-0.5187231412570588"><ele>133.0</ele><time>2026-04-29T08:53:01Z</time></trkpt><trkpt lat="43.34649918192183" lon="-0.518820576868191"><ele>133.0</ele><time>2026-04-29T08:53:02Z</time></trkpt><trkpt lat="43.346576422544" lon="-0.5189170405222117"><ele>133.0</ele><time>2026-04-29T08:53:03Z</time></trkpt><trkpt lat="43.34665266414988" lon="-0.5190173373073238"><ele>132.8</ele><time>2026-04-29T08:53:04Z</time></trkpt><trkpt lat="43.34672589666333" lon="-0.5191176631332569"><ele>132.60000000000002</ele><time>2026-04-29T08:53:05Z</time></trkpt><trkpt lat="43.34680020129082" lon="-0.5192157075013653"><ele>132.39999999999998</ele><time>2026-04-29T08:53:06Z</time></trkpt><trkpt lat="43.34687579079433" lon="-0.5193144635460684"><ele>132.2</ele><time>2026-04-29T08:53:07Z</time></trkpt><trkpt lat="43.34695280899406" lon="-0.5194137949208045"><ele>132.0</ele><time>2026-04-29T08:53:08Z</time></trkpt><trkpt lat="43.34702970973573" lon="-0.5195115756841397"><ele>132.0</ele><time>2026-04-29T08:53:09Z</time></trkpt><trkpt lat="43.347103432955016" lon="-0.5196112998202526"><ele>132.0</ele><time>2026-04-29T08:53:10Z</time></trkpt><trkpt lat="43.347175065393095" lon="-0.5197202512514884"><ele>132.0</ele><time>2026-04-29T08:53:11Z</time></trkpt><trkpt lat="43.3472510736662" lon="-0.5198185241274048"><ele>132.0</ele><time>2026-04-29T08:53:12Z</time></trkpt><trkpt lat="43.34732717381156" lon="-0.5199182430894224"><ele>132.0</ele><time>2026-04-29T08:53:13Z</time></trkpt><trkpt lat="43.34740260582067" lon="-0.5200173492039798"><ele>132.0</ele><time>2026-04-29T08:53:14Z</time></trkpt><trkpt lat="43.3474779946713" lon="-0.5201186553233502"><ele>132.0</ele><time>2026-04-29T08:53:15Z</time></trkpt><trkpt lat="43.347555101302355" lon="-0.520214952920276"><ele>132.0</ele><time>2026-04-29T08:53:16Z</time></trkpt><trkpt lat="43.347635771455955" lon="-0.5203110804554187"><ele>132.0</ele><time>2026-04-29T08:53:17Z</time></trkpt><trkpt lat="43.34770992121777" lon="-0.5204130760107943"><ele>132.0</ele><time>2026-04-29T08:53:18Z</time></trkpt><trkpt lat="43.34778557240508" lon="-0.5205064377619647"><ele>131.79999999999998</ele><time>2026-04-29T08:53:19Z</time></trkpt><trkpt lat="43.34786075053929" lon="-0.5205997280005846"><ele>131.6</ele><time>2026-04-29T08:53:20Z</time></trkpt><trkpt lat="43.34793375017624" lon="-0.5206920294844242"><ele>131.39999999999998</ele><time>2026-04-29T08:53:21Z</time></trkpt><trkpt lat="43.34800535613582" lon="-0.5207938275895572"><ele>131.2</ele><time>2026-04-29T08:53:22Z</time></trkpt><trkpt lat="43.34807428669195" lon="-0.5208889586510801"><ele>131.0</ele><time>2026-04-29T08:53:23Z</time></trkpt><trkpt lat="43.348146310310156" lon="-0.5209848270527014"><ele>131.0</ele><time>2026-04-29T08:53:24Z</time></trkpt><trkpt lat="43.348217623670614" lon="-0.5210771781228781"><ele>131.0</ele><time>2026-04-29T08:53:25Z</time></trkpt><trkpt lat="43.34828987895446" lon="-0.5211784074896361"><ele>131.0</ele><time>2026-04-29T08:53:26Z</time></trkpt><trkpt lat="43.34836197024416" lon="-0.5212733265983889"><ele>131.0</ele><time>2026-04-29T08:53:27Z</time></trkpt><trkpt lat="43.34843953688421" lon="-0.5213726874284503"><ele>131.0</ele><time>2026-04-29T08:53:28Z</time></trkpt><trkpt lat="43.348516214748294" lon="-0.5214725478616434"><ele>131.0</ele><time>2026-04-29T08:53:29Z</time></trkpt><trkpt lat="43.34859271767222" lon="-0.5215683902212799"><ele>131.0</ele><time>2026-04-29T08:53:30Z</time></trkpt><trkpt lat="43.34866824687278" lon="-0.5216671216038551"><ele>131.0</ele><time>2026-04-29T08:53:31Z</time></trkpt><trkpt lat="43.34874175059257" lon="-0.5217685126529817"><ele>131.0</ele><time>2026-04-29T08:53:32Z</time></trkpt><trkpt lat="43.34881820653914" lon="-0.5218655944947114"><ele>131.0</ele><time>2026-04-29T08:53:33Z</time></trkpt><trkpt lat="43.34889509984816" lon="-0.5219710606709395"><ele>130.8</ele><time>2026-04-29T08:53:34Z</time></trkpt><trkpt lat="43.34897494494647" lon="-0.5220580545348655"><ele>130.6</ele><time>2026-04-29T08:53:35Z</time></trkpt><trkpt lat="43.34904942235964" lon="-0.5221544370855008"><ele>130.4</ele><time>2026-04-29T08:53:36Z</time></trkpt><trkpt lat="43.349125916512136" lon="-0.5222498580575777"><ele>130.2</ele><time>2026-04-29T08:53:37Z</time></trkpt><trkpt lat="43.34920027948162" lon="-0.5223483151769506"><ele>130.0</ele><time>2026-04-29T08:53:38Z</time></trkpt><trkpt lat="43.349275334314086" lon="-0.5224415168419135"><ele>130.0</ele><time>2026-04-29T08:53:39Z</time></trkpt><trkpt lat="43.34935391040169" lon="-0.5225351599462141"><ele>130.0</ele><time>2026-04-29T08:53:40Z</time></trkpt><trkpt lat="43.349430695657" lon="-0.5226333825549917"><ele>130.0</ele><time>2026-04-29T08:53:41Z</time></trkpt><trkpt lat="43.34958013729099" lon="-0.5228260468006847"><ele>130.0</ele><time>2026-04-29T08:53:43.001Z</time></trkpt><trkpt lat="43.34965228185441" lon="-0.5229206194138128"><ele>130.0</ele><time>2026-04-29T08:53:44.001Z</time></trkpt><trkpt lat="43.34972437630549" lon="-0.5230137964952892"><ele>130.0</ele><time>2026-04-29T08:53:45.001Z</time></trkpt><trkpt lat="43.349794605712276" lon="-0.5231060052548558"><ele>130.0</ele><time>2026-04-29T08:53:46.001Z</time></trkpt><trkpt lat="43.349864156042365" lon="-0.5231995506905707"><ele>130.0</ele><time>2026-04-29T08:53:47.001Z</time></trkpt><trkpt lat="43.34993344703078" lon="-0.5232913013399041"><ele>130.0</ele><time>2026-04-29T08:53:48.001Z</time></trkpt><trkpt lat="43.350001303771705" lon="-0.5233812319196833"><ele>130.0</ele><time>2026-04-29T08:53:49.001Z</time></trkpt><trkpt lat="43.35007114135027" lon="-0.5234716802378121"><ele>130.0</ele><time>2026-04-29T08:53:50.001Z</time></trkpt><trkpt lat="43.35013887624298" lon="-0.5235643488483682"><ele>130.0</ele><time>2026-04-29T08:53:51.001Z</time></trkpt><trkpt lat="43.350210329163154" lon="-0.5236664706006956"><ele>130.0</ele><time>2026-04-29T08:53:52.001Z</time></trkpt><trkpt lat="43.35027625596265" lon="-0.5237555227363354"><ele>130.0</ele><time>2026-04-29T08:53:53.001Z</time></trkpt><trkpt lat="43.350346727338255" lon="-0.5238422411182538"><ele>130.0</ele><time>2026-04-29T08:53:54.001Z</time></trkpt><trkpt lat="43.35041518217439" lon="-0.5239371113947162"><ele>130.0</ele><time>2026-04-29T08:53:55.001Z</time></trkpt><trkpt lat="43.35048270825569" lon="-0.5240309091513068"><ele>130.0</ele><time>2026-04-29T08:53:56.001Z</time></trkpt><trkpt lat="43.35054968367861" lon="-0.5241276645723062"><ele>130.0</ele><time>2026-04-29T08:53:57.001Z</time></trkpt><trkpt lat="43.35061644086281" lon="-0.5242225847531874"><ele>130.0</ele><time>2026-04-29T08:53:58.001Z</time></trkpt><trkpt lat="43.35068348266638" lon="-0.5243164764174622"><ele>130.0</ele><time>2026-04-29T08:53:59.001Z</time></trkpt><trkpt lat="43.35075400625612" lon="-0.5244054103378083"><ele>130.0</ele><time>2026-04-29T08:54:00.001Z</time></trkpt><trkpt lat="43.350816722639316" lon="-0.5245087825267488"><ele>130.0</ele><time>2026-04-29T08:54:01.001Z</time></trkpt><trkpt lat="43.35087744154713" lon="-0.5246051112624162"><ele>130.0</ele><time>2026-04-29T08:54:02.001Z</time></trkpt><trkpt lat="43.35094107573872" lon="-0.5247027459009383"><ele>130.0</ele><time>2026-04-29T08:54:03.001Z</time></trkpt><trkpt lat="43.3509982299801" lon="-0.5248123282086916"><ele>130.0</ele><time>2026-04-29T08:54:04.001Z</time></trkpt><trkpt lat="43.35105060649111" lon="-0.5249221876667074"><ele>130.0</ele><time>2026-04-29T08:54:05.001Z</time></trkpt><trkpt lat="43.35110156926332" lon="-0.5250270072201078"><ele>130.0</ele><time>2026-04-29T08:54:06.001Z</time></trkpt><trkpt lat="43.351153123909654" lon="-0.5251331730987469"><ele>130.0</ele><time>2026-04-29T08:54:07.001Z</time></trkpt><trkpt lat="43.351201379238546" lon="-0.5252397329461648"><ele>130.0</ele><time>2026-04-29T08:54:08.001Z</time></trkpt><trkpt lat="43.351247891723595" lon="-0.5253435126156655"><ele>129.83333333333334</ele><time>2026-04-29T08:54:09.001Z</time></trkpt><trkpt lat="43.35128744375175" lon="-0.5254455776767073"><ele>129.66666666666669</ele><time>2026-04-29T08:54:10.001Z</time></trkpt><trkpt lat="43.35132811715676" lon="-0.5255376502890075"><ele>129.5</ele><time>2026-04-29T08:54:11.001Z</time></trkpt><trkpt lat="43.351378308940255" lon="-0.5256142459666673"><ele>129.33333333333334</ele><time>2026-04-29T08:54:12.001Z</time></trkpt><trkpt lat="43.351444451787415" lon="-0.5256772757128246"><ele>129.16666666666666</ele><time>2026-04-29T08:54:13.001Z</time></trkpt><trkpt lat="43.351514006484" lon="-0.5257270755617935"><ele>129.0</ele><time>2026-04-29T08:54:14.001Z</time></trkpt><trkpt lat="43.35158449062055" lon="-0.525776161927425"><ele>129.0</ele><time>2026-04-29T08:54:15.001Z</time></trkpt><trkpt lat="43.351651797022704" lon="-0.5258273097236108"><ele>129.0</ele><time>2026-04-29T08:54:16.001Z</time></trkpt><trkpt lat="43.35171226956485" lon="-0.5258865654533241"><ele>129.0</ele><time>2026-04-29T08:54:17.001Z</time></trkpt><trkpt lat="43.35179993613989" lon="-0.5258978822999003"><ele>129.0</ele><time>2026-04-29T08:54:18.001Z</time></trkpt><trkpt lat="43.35187509736587" lon="-0.5259396314660137"><ele>129.0</ele><time>2026-04-29T08:54:19.001Z</time></trkpt><trkpt lat="43.35194325704605" lon="-0.5260004080146712"><ele>129.0</ele><time>2026-04-29T08:54:19.999Z</time></trkpt><trkpt lat="43.35200819520244" lon="-0.5260716049905804"><ele>129.0</ele><time>2026-04-29T08:54:20.999Z</time></trkpt><trkpt lat="43.35207084411736" lon="-0.5261487208468434"><ele>129.0</ele><time>2026-04-29T08:54:21.999Z</time></trkpt><trkpt lat="43.35213229975495" lon="-0.5262314017213747"><ele>129.0</ele><time>2026-04-29T08:54:22.999Z</time></trkpt><trkpt lat="43.35219466177935" lon="-0.5263160368076694"><ele>129.0</ele><time>2026-04-29T08:54:23.999Z</time></trkpt><trkpt lat="43.352257724813676" lon="-0.5264008494501414"><ele>129.0</ele><time>2026-04-29T08:54:24.999Z</time></trkpt><trkpt lat="43.352319917978384" lon="-0.526490495459267"><ele>129.0</ele><time>2026-04-29T08:54:25.999Z</time></trkpt><trkpt lat="43.35238366343498" lon="-0.5265784652653016"><ele>128.8</ele><time>2026-04-29T08:54:26.999Z</time></trkpt><trkpt lat="43.35245365960058" lon="-0.5266624184443842"><ele>128.60000000000002</ele><time>2026-04-29T08:54:27.999Z</time></trkpt><trkpt lat="43.35252594757818" lon="-0.5267460273497259"><ele>128.4</ele><time>2026-04-29T08:54:28.999Z</time></trkpt><trkpt lat="43.3525924383282" lon="-0.526829860695893"><ele>128.20000000000002</ele><time>2026-04-29T08:54:29.999Z</time></trkpt><trkpt lat="43.35265858074435" lon="-0.5269257363934924"><ele>128.0</ele><time>2026-04-29T08:54:31Z</time></trkpt><trkpt lat="43.352726535299986" lon="-0.527013585457994"><ele>128.20000000000002</ele><time>2026-04-29T08:54:32Z</time></trkpt><trkpt lat="43.35279631790396" lon="-0.5271041342580142"><ele>128.4</ele><time>2026-04-29T08:54:33Z</time></trkpt><trkpt lat="43.35286433888545" lon="-0.5271966833481205"><ele>128.60000000000002</ele><time>2026-04-29T08:54:34Z</time></trkpt><trkpt lat="43.352935424602144" lon="-0.5272881468759969"><ele>128.8</ele><time>2026-04-29T08:54:35Z</time></trkpt><trkpt lat="43.35300564391515" lon="-0.5273816415056636"><ele>129.0</ele><time>2026-04-29T08:54:36Z</time></trkpt><trkpt lat="43.34993344703078" lon="-0.5232913013399041"><ele>129.2</ele><time>2026-04-29T08:53:48.001Z</time></trkpt><trkpt lat="43.350001303771705" lon="-0.5233812319196833"><ele>129.4</ele><time>2026-04-29T08:53:49.001Z</time></trkpt><trkpt lat="43.35007114135027" lon="-0.5234716802378121"><ele>129.6</ele><time>2026-04-29T08:53:50.001Z</time></trkpt><trkpt lat="43.35013887624298" lon="-0.5235643488483682"><ele>129.8</ele><time>2026-04-29T08:53:51.001Z</time></trkpt><trkpt lat="43.350210329163154" lon="-0.5236664706006956"><ele>130.0</ele><time>2026-04-29T08:53:52.001Z</time></trkpt><trkpt lat="43.35027625596265" lon="-0.5237555227363354"><ele>130.0</ele><time>2026-04-29T08:53:53.001Z</time></trkpt><trkpt lat="43.350346727338255" lon="-0.5238422411182538"><ele>130.0</ele><time>2026-04-29T08:53:54.001Z</time></trkpt><trkpt lat="43.35041518217439" lon="-0.5239371113947162"><ele>130.0</ele><time>2026-04-29T08:53:55.001Z</time></trkpt><trkpt lat="43.35048270825569" lon="-0.5240309091513068"><ele>130.0</ele><time>2026-04-29T08:53:56.001Z</time></trkpt><trkpt lat="43.35054968367861" lon="-0.5241276645723062"><ele>130.0</ele><time>2026-04-29T08:53:57.001Z</time></trkpt><trkpt lat="43.35061644086281" lon="-0.5242225847531874"><ele>130.0</ele><time>2026-04-29T08:53:58.001Z</time></trkpt><trkpt lat="43.35068348266638" lon="-0.5243164764174622"><ele>130.0</ele><time>2026-04-29T08:53:59.001Z</time></trkpt><trkpt lat="43.35075400625612" lon="-0.5244054103378083"><ele>130.0</ele><time>2026-04-29T08:54:00.001Z</time></trkpt><trkpt lat="43.350816722639316" lon="-0.5245087825267488"><ele>130.0</ele><time>2026-04-29T08:54:01.001Z</time></trkpt><trkpt lat="43.35087744154713" lon="-0.5246051112624162"><ele>130.0</ele><time>2026-04-29T08:54:02.001Z</time></trkpt><trkpt lat="43.35094107573872" lon="-0.5247027459009383"><ele>130.0</ele><time>2026-04-29T08:54:03.001Z</time></trkpt><trkpt lat="43.3509982299801" lon="-0.5248123282086916"><ele>130.0</ele><time>2026-04-29T08:54:04.001Z</time></trkpt><trkpt lat="43.35105060649111" lon="-0.5249221876667074"><ele>130.0</ele><time>2026-04-29T08:54:05.001Z</time></trkpt><trkpt lat="43.35110156926332" lon="-0.5250270072201078"><ele>130.0</ele><time>2026-04-29T08:54:06.001Z</time></trkpt><trkpt lat="43.351153123909654" lon="-0.5251331730987469"><ele>130.0</ele><time>2026-04-29T08:54:07.001Z</time></trkpt><trkpt lat="43.351201379238546" lon="-0.5252397329461648"><ele>130.0</ele><time>2026-04-29T08:54:08.001Z</time></trkpt><trkpt lat="43.351247891723595" lon="-0.5253435126156655"><ele>130.0</ele><time>2026-04-29T08:54:09.001Z</time></trkpt><trkpt lat="43.35128744375175" lon="-0.5254455776767073"><ele>130.0</ele><time>2026-04-29T08:54:10.001Z</time></trkpt><trkpt lat="43.35132811715676" lon="-0.5255376502890075"><ele>130.0</ele><time>2026-04-29T08:54:11.001Z</time></trkpt><trkpt lat="43.351378308940255" lon="-0.5256142459666673"><ele>130.0</ele><time>2026-04-29T08:54:12.001Z</time></trkpt><trkpt lat="43.351444451787415" lon="-0.5256772757128246"><ele>130.0</ele><time>2026-04-29T08:54:13.001Z</time></trkpt><trkpt lat="43.351514006484" lon="-0.5257270755617935"><ele>129.83333333333334</ele><time>2026-04-29T08:54:14.001Z</time></trkpt><trkpt lat="43.35158449062055" lon="-0.525776161927425"><ele>129.66666666666669</ele><time>2026-04-29T08:54:15.001Z</time></trkpt><trkpt lat="43.351651797022704" lon="-0.5258273097236108"><ele>129.5</ele><time>2026-04-29T08:54:16.001Z</time></trkpt><trkpt lat="43.35171226956485" lon="-0.5258865654533241"><ele>129.33333333333334</ele><time>2026-04-29T08:54:17.001Z</time></trkpt><trkpt lat="43.35179993613989" lon="-0.5258978822999003"><ele>129.16666666666666</ele><time>2026-04-29T08:54:18.001Z</time></trkpt><trkpt lat="43.35187509736587" lon="-0.5259396314660137"><ele>129.0</ele><time>2026-04-29T08:54:19.001Z</time></trkpt><trkpt lat="43.35194325704605" lon="-0.5260004080146712"><ele>129.0</ele><time>2026-04-29T08:54:19.999Z</time></trkpt><trkpt lat="43.35200819520244" lon="-0.5260716049905804"><ele>129.0</ele><time>2026-04-29T08:54:20.999Z</time></trkpt><trkpt lat="43.35207084411736" lon="-0.5261487208468434"><ele>129.0</ele><time>2026-04-29T08:54:21.999Z</time></trkpt><trkpt lat="43.35213229975495" lon="-0.5262314017213747"><ele>129.0</ele><time>2026-04-29T08:54:22.999Z</time></trkpt><trkpt lat="43.35219466177935" lon="-0.5263160368076694"><ele>129.0</ele><time>2026-04-29T08:54:23.999Z</time></trkpt><trkpt lat="43.352257724813676" lon="-0.5264008494501414"><ele>129.0</ele><time>2026-04-29T08:54:24.999Z</time></trkpt><trkpt lat="43.352319917978384" lon="-0.526490495459267"><ele>128.8</ele><time>2026-04-29T08:54:25.999Z</time></trkpt><trkpt lat="43.35238366343498" lon="-0.5265784652653016"><ele>128.60000000000002</ele><time>2026-04-29T08:54:26.999Z</time></trkpt><trkpt lat="43.35245365960058" lon="-0.5266624184443842"><ele>128.4</ele><time>2026-04-29T08:54:27.999Z</time></trkpt><trkpt lat="43.35252594757818" lon="-0.5267460273497259"><ele>128.20000000000002</ele><time>2026-04-29T08:54:28.999Z</time></trkpt><trkpt lat="43.3525924383282" lon="-0.526829860695893"><ele>128.0</ele><time>2026-04-29T08:54:29.999Z</time></trkpt><trkpt lat="43.35265858074435" lon="-0.5269257363934924"><ele>128.0</ele><time>2026-04-29T08:54:31Z</time></trkpt><trkpt lat="43.352726535299986" lon="-0.527013585457994"><ele>128.0</ele><time>2026-04-29T08:54:32Z</time></trkpt><trkpt lat="43.35279631790396" lon="-0.5271041342580142"><ele>128.0</ele><time>2026-04-29T08:54:33Z</time></trkpt><trkpt lat="43.35286433888545" lon="-0.5271966833481205"><ele>128.0</ele><time>2026-04-29T08:54:34Z</time></trkpt><trkpt lat="43.352935424602144" lon="-0.5272881468759969"><ele>128.0</ele><time>2026-04-29T08:54:35Z</time></trkpt><trkpt lat="43.35300564391515" lon="-0.5273816415056636"><ele>127.80000000000001</ele><time>2026-04-29T08:54:36Z</time></trkpt><trkpt lat="43.35307397986659" lon="-0.5274791841887492"><ele>127.60000000000001</ele><time>2026-04-29T08:54:37Z</time></trkpt><trkpt lat="43.353141476162996" lon="-0.5275726317894853"><ele>127.39999999999999</ele><time>2026-04-29T08:54:38Z</time></trkpt><trkpt lat="43.353209669087484" lon="-0.5276691197194024"><ele>127.19999999999999</ele><time>2026-04-29T08:54:39Z</time></trkpt><trkpt lat="43.35328261972397" lon="-0.5277292357109618"><ele>127.0</ele><time>2026-04-29T08:54:40Z</time></trkpt><trkpt lat="43.35335315305767" lon="-0.527827784098037"><ele>127.39999999999999</ele><time>2026-04-29T08:54:41Z</time></trkpt><trkpt lat="43.353412705479194" lon="-0.5279250240487876"><ele>127.79999999999998</ele><time>2026-04-29T08:54:42Z</time></trkpt><trkpt lat="43.35347956364194" lon="-0.5280161681702525"><ele>128.2</ele><time>2026-04-29T08:54:43Z</time></trkpt><trkpt lat="43.3535530653675" lon="-0.5280922895693354"><ele>128.6</ele><time>2026-04-29T08:54:44Z</time></trkpt><trkpt lat="43.3536160906463" lon="-0.5281883951051762"><ele>129.0</ele><time>2026-04-29T08:54:45Z</time></trkpt><trkpt lat="43.35368400764297" lon="-0.528276862333959"><ele>129.0</ele><time>2026-04-29T08:54:46Z</time></trkpt><trkpt lat="43.353754091192606" lon="-0.5283556656863506"><ele>129.0</ele><time>2026-04-29T08:54:47Z</time></trkpt><trkpt lat="43.353820782079445" lon="-0.5284414227839258"><ele>129.0</ele><time>2026-04-29T08:54:48Z</time></trkpt><trkpt lat="43.35389150034799" lon="-0.5285265344456702"><ele>129.0</ele><time>2026-04-29T08:54:49Z</time></trkpt><trkpt lat="43.353962085048984" lon="-0.5286066806995537"><ele>129.0</ele><time>2026-04-29T08:54:50Z</time></trkpt><trkpt lat="43.354031113856195" lon="-0.528687512862159"><ele>128.6</ele><time>2026-04-29T08:54:51Z</time></trkpt><trkpt lat="43.354101204957466" lon="-0.5287758809337835"><ele>128.2</ele><time>2026-04-29T08:54:52Z</time></trkpt><trkpt lat="43.3541670530829" lon="-0.5288778979354587"><ele>127.79999999999998</ele><time>2026-04-29T08:54:53Z</time></trkpt><trkpt lat="43.35423386677874" lon="-0.5289599167925335"><ele>127.39999999999999</ele><time>2026-04-29T08:54:54Z</time></trkpt><trkpt lat="43.35429980183157" lon="-0.5290504946366457"><ele>127.0</ele><time>2026-04-29T08:54:55Z</time></trkpt><trkpt lat="43.35436650709873" lon="-0.5291439378583884"><ele>127.0</ele><time>2026-04-29T08:54:56Z</time></trkpt><trkpt lat="43.35443525877698" lon="-0.5292339054901676"><ele>126.99999999999999</ele><time>2026-04-29T08:54:57Z</time></trkpt><trkpt lat="43.35450123492199" lon="-0.5293220011062562"><ele>126.99999999999999</ele><time>2026-04-29T08:54:58Z</time></trkpt><trkpt lat="43.3545677445127" lon="-0.529406275868858"><ele>127.0</ele><time>2026-04-29T08:54:59Z</time></trkpt><trkpt lat="43.35461879627016" lon="-0.5294642211047002"><ele>127.0</ele><time>2026-04-29T08:55:00Z</time></trkpt><trkpt lat="43.35469489130591" lon="-0.5295716731884168"><ele>126.8</ele><time>2026-04-29T08:55:01Z</time></trkpt><trkpt lat="43.35476040584898" lon="-0.5296616576221731"><ele>126.6</ele><time>2026-04-29T08:55:02Z</time></trkpt><trkpt lat="43.35482893600754" lon="-0.5297538504894154"><ele>126.39999999999999</ele><time>2026-04-29T08:55:03Z</time></trkpt><trkpt lat="43.35489645179091" lon="-0.5298447510921039"><ele>126.19999999999999</ele><time>2026-04-29T08:55:04Z</time></trkpt><trkpt lat="43.35496202652747" lon="-0.5299372029768792"><ele>126.0</ele><time>2026-04-29T08:55:05Z</time></trkpt><trkpt lat="43.35503073111902" lon="-0.5300299771879174"><ele>126.0</ele><time>2026-04-29T08:55:06Z</time></trkpt><trkpt lat="43.35509065324423" lon="-0.5301309505671478"><ele>126.0</ele><time>2026-04-29T08:55:07Z</time></trkpt><trkpt lat="43.355146754211866" lon="-0.5302341069813372"><ele>126.0</ele><time>2026-04-29T08:55:08Z</time></trkpt><trkpt lat="43.35520137926691" lon="-0.5303371872628404"><ele>126.0</ele><time>2026-04-29T08:55:09Z</time></trkpt><trkpt lat="43.355252486129245" lon="-0.5304435414749636"><ele>126.0</ele><time>2026-04-29T08:55:10Z</time></trkpt><trkpt lat="43.35531891367602" lon="-0.530546088069355"><ele>126.0</ele><time>2026-04-29T08:55:11Z</time></trkpt><trkpt lat="43.355340084978586" lon="-0.5306606117643251"><ele>126.0</ele><time>2026-04-29T08:55:12Z</time></trkpt><trkpt lat="43.35537189156656" lon="-0.5307807730047649"><ele>126.0</ele><time>2026-04-29T08:55:13Z</time></trkpt><trkpt lat="43.355400060009785" lon="-0.5309007567156545"><ele>126.0</ele><time>2026-04-29T08:55:14Z</time></trkpt><trkpt lat="43.355422655521615" lon="-0.531022388827812"><ele>126.0</ele><time>2026-04-29T08:55:15Z</time></trkpt><trkpt lat="43.35544186437725" lon="-0.5311448939760602"><ele>126.19999999999999</ele><time>2026-04-29T08:55:16Z</time></trkpt><trkpt lat="43.35546918553509" lon="-0.5312668762617546"><ele>126.39999999999999</ele><time>2026-04-29T08:55:17Z</time></trkpt><trkpt lat="43.35549521573568" lon="-0.5313903143138465"><ele>126.6</ele><time>2026-04-29T08:55:18Z</time></trkpt><trkpt lat="43.35551662681359" lon="-0.5315153357905589"><ele>126.8</ele><time>2026-04-29T08:55:19Z</time></trkpt><trkpt lat="43.35554265308687" lon="-0.5316376918773323"><ele>127.0</ele><time>2026-04-29T08:55:20Z</time></trkpt><trkpt lat="43.3555656491439" lon="-0.5317643919376648"><ele>127.0</ele><time>2026-04-29T08:55:21Z</time></trkpt><trkpt lat="43.35558995222509" lon="-0.5318890250070291"><ele>126.99999999999999</ele><time>2026-04-29T08:55:22Z</time></trkpt><trkpt lat="43.35561147176111" lon="-0.5320130520007279"><ele>126.99999999999999</ele><time>2026-04-29T08:55:23Z</time></trkpt><trkpt lat="43.35563779640014" lon="-0.5321389519457131"><ele>127.0</ele><time>2026-04-29T08:55:24Z</time></trkpt><trkpt lat="43.355664396347066" lon="-0.5322562260783427"><ele>127.0</ele><time>2026-04-29T08:55:25Z</time></trkpt><trkpt lat="43.35569295205432" lon="-0.5323759850983919"><ele>127.0</ele><time>2026-04-29T08:55:26Z</time></trkpt><trkpt lat="43.35572289698406" lon="-0.5324972524992369"><ele>126.99999999999999</ele><time>2026-04-29T08:55:27Z</time></trkpt><trkpt lat="43.355753988318746" lon="-0.5326271486237765"><ele>126.99999999999999</ele><time>2026-04-29T08:55:28Z</time></trkpt><trkpt lat="43.355796001517795" lon="-0.5327394033562912"><ele>127.0</ele><time>2026-04-29T08:55:29.001Z</time></trkpt><trkpt lat="43.35584153497663" lon="-0.5328516957288386"><ele>127.0</ele><time>2026-04-29T08:55:30.001Z</time></trkpt><trkpt lat="43.35589348017894" lon="-0.5329592410614659"><ele>126.8</ele><time>2026-04-29T08:55:31.001Z</time></trkpt><trkpt lat="43.355946242722226" lon="-0.533065392560632"><ele>126.6</ele><time>2026-04-29T08:55:32.001Z</time></trkpt><trkpt lat="43.35599700195314" lon="-0.533175541694197"><ele>126.39999999999999</ele><time>2026-04-29T08:55:33.001Z</time></trkpt><trkpt lat="43.35605472762285" lon="-0.5332800676823505"><ele>126.19999999999999</ele><time>2026-04-29T08:55:34.001Z</time></trkpt><trkpt lat="43.35611585921996" lon="-0.5333799110791697"><ele>126.0</ele><time>2026-04-29T08:55:35.001Z</time></trkpt><trkpt lat="43.35617501471349" lon="-0.5334838246998156"><ele>126.0</ele><time>2026-04-29T08:55:36.001Z</time></trkpt><trkpt lat="43.35623263626892" lon="-0.5335888584485499"><ele>126.0</ele><time>2026-04-29T08:55:37.001Z</time></trkpt><trkpt lat="43.356289535234474" lon="-0.5336932665074815"><ele>126.0</ele><time>2026-04-29T08:55:38.001Z</time></trkpt><trkpt lat="43.35634964875946" lon="-0.5337998514717275"><ele>126.0</ele><time>2026-04-29T08:55:39.001Z</time></trkpt><trkpt lat="43.35640964053886" lon="-0.5339035034753777"><ele>126.0</ele><time>2026-04-29T08:55:40.001Z</time></trkpt><trkpt lat="43.35646814694434" lon="-0.534011016589526"><ele>126.0</ele><time>2026-04-29T08:55:41.001Z</time></trkpt><trkpt lat="43.356529762166204" lon="-0.534116804454079"><ele>126.0</ele><time>2026-04-29T08:55:42.001Z</time></trkpt><trkpt lat="43.3565901868999" lon="-0.5342268851919454"><ele>126.0</ele><time>2026-04-29T08:55:43.001Z</time></trkpt><trkpt lat="43.35664718561898" lon="-0.5343367248529808"><ele>126.0</ele><time>2026-04-29T08:55:44.001Z</time></trkpt><trkpt lat="43.35670742072954" lon="-0.5344475393055897"><ele>126.0</ele><time>2026-04-29T08:55:45.001Z</time></trkpt><trkpt lat="43.35676255653591" lon="-0.5345562458921472"><ele>126.19999999999999</ele><time>2026-04-29T08:55:46.001Z</time></trkpt><trkpt lat="43.35681987507384" lon="-0.5346698548797973"><ele>126.39999999999999</ele><time>2026-04-29T08:55:47.001Z</time></trkpt><trkpt lat="43.35687435552094" lon="-0.5347778813916683"><ele>126.6</ele><time>2026-04-29T08:55:48.001Z</time></trkpt><trkpt lat="43.35691900538508" lon="-0.5348970900723222"><ele>126.8</ele><time>2026-04-29T08:55:49.001Z</time></trkpt><trkpt lat="43.35696267069316" lon="-0.5350141048467136"><ele>127.0</ele><time>2026-04-29T08:55:50.001Z</time></trkpt><trkpt lat="43.3569994640248" lon="-0.5351357462539678"><ele>127.00000000000001</ele><time>2026-04-29T08:55:51.001Z</time></trkpt><trkpt lat="43.35702207217376" lon="-0.5352600022448595"><ele>127.0</ele><time>2026-04-29T08:55:52.001Z</time></trkpt><trkpt lat="43.35703588699785" lon="-0.5353828247150209"><ele>127.0</ele><time>2026-04-29T08:55:53.001Z</time></trkpt><trkpt lat="43.35704026769649" lon="-0.5355012129159838"><ele>127.0</ele><time>2026-04-29T08:55:54.001Z</time></trkpt><trkpt lat="43.35704582316211" lon="-0.5356217666560582"><ele>127.00000000000001</ele><time>2026-04-29T08:55:55.001Z</time></trkpt><trkpt lat="43.35706380844889" lon="-0.5357242644204369"><ele>127.0</ele><time>2026-04-29T08:55:56.001Z</time></trkpt><trkpt lat="43.35707380117608" lon="-0.535830776251245"><ele>127.00000000000001</ele><time>2026-04-29T08:55:57.001Z</time></trkpt><trkpt lat="43.357083892100455" lon="-0.5359383348630107"><ele>127.0</ele><time>2026-04-29T08:55:58.001Z</time></trkpt><trkpt lat="43.35707879782959" lon="-0.5360451723503827"><ele>127.0</ele><time>2026-04-29T08:55:59.001Z</time></trkpt><trkpt lat="43.357095432575015" lon="-0.5361567439699917"><ele>127.0</ele><time>2026-04-29T08:56:00.001Z</time></trkpt><trkpt lat="43.35710161325345" lon="-0.5362695636995017"><ele>127.00000000000001</ele><time>2026-04-29T08:56:01.001Z</time></trkpt><trkpt lat="43.35710526664943" lon="-0.5363844435920643"><ele>127.0</ele><time>2026-04-29T08:56:02.001Z</time></trkpt><trkpt lat="43.35711953933825" lon="-0.5364956863068672"><ele>126.66666666666667</ele><time>2026-04-29T08:56:03.001Z</time></trkpt><trkpt lat="43.35714510118649" lon="-0.5365915155854784"><ele>126.33333333333334</ele><time>2026-04-29T08:56:04.001Z</time></trkpt><trkpt lat="43.35714797808598" lon="-0.536685481692135"><ele>126.0</ele><time>2026-04-29T08:56:05.001Z</time></trkpt><trkpt lat="43.357143042162434" lon="-0.5367868030377979"><ele>125.66666666666666</ele><time>2026-04-29T08:56:06.001Z</time></trkpt><trkpt lat="43.35714886258426" lon="-0.5368807924330529"><ele>125.33333333333333</ele><time>2026-04-29T08:56:07.001Z</time></trkpt><trkpt lat="43.35716253596356" lon="-0.5369771888609817"><ele>125.0</ele><time>2026-04-29T08:56:08.001Z</time></trkpt><trkpt lat="43.35719270330952" lon="-0.5371053967890519"><ele>125.2</ele><time>2026-04-29T08:56:09.001Z</time></trkpt><trkpt lat="43.357256039611826" lon="-0.5372721949806003"><ele>125.4</ele><time>2026-04-29T08:56:11.001Z</time></trkpt><trkpt lat="43.35730004542008" lon="-0.5373671613049248"><ele>125.6</ele><time>2026-04-29T08:56:12.001Z</time></trkpt><trkpt lat="43.35734084473256" lon="-0.5374711155618526"><ele>125.8</ele><time>2026-04-29T08:56:13.001Z</time></trkpt><trkpt lat="43.357386393114176" lon="-0.537559310139303"><ele>126.0</ele><time>2026-04-29T08:56:14.001Z</time></trkpt><trkpt lat="43.35744997773291" lon="-0.5376451719134976"><ele>126.0</ele><time>2026-04-29T08:56:15.001Z</time></trkpt><trkpt lat="43.357482152880486" lon="-0.5377322056949029"><ele>126.0</ele><time>2026-04-29T08:56:16.001Z</time></trkpt><trkpt lat="43.35753722669201" lon="-0.5378274221645563"><ele>126.0</ele><time>2026-04-29T08:56:17.001Z</time></trkpt><trkpt lat="43.35758091564618" lon="-0.5379040856652137"><ele>126.0</ele><time>2026-04-29T08:56:18.001Z</time></trkpt><trkpt lat="43.35762655380377" lon="-0.537980954204055"><ele>126.0</ele><time>2026-04-29T08:56:19.001Z</time></trkpt><trkpt lat="43.35767414670454" lon="-0.5380649307773749"><ele>126.0</ele><time>2026-04-29T08:56:20.001Z</time></trkpt><trkpt lat="43.35772317166405" lon="-0.5381457497303891"><ele>125.66666666666667</ele><time>2026-04-29T08:56:21.001Z</time></trkpt><trkpt lat="43.3577739017582" lon="-0.5382276538343176"><ele>125.33333333333334</ele><time>2026-04-29T08:56:22.001Z</time></trkpt><trkpt lat="43.35782662790985" lon="-0.5383126197616933"><ele>125.0</ele><time>2026-04-29T08:56:23.001Z</time></trkpt><trkpt lat="43.35788021963241" lon="-0.5383974577560975"><ele>124.66666666666667</ele><time>2026-04-29T08:56:24.001Z</time></trkpt><trkpt lat="43.357937174799964" lon="-0.5384813816162991"><ele>124.33333333333334</ele><time>2026-04-29T08:56:25.001Z</time></trkpt><trkpt lat="43.35800286247991" lon="-0.5385565462070805"><ele>124.0</ele><time>2026-04-29T08:56:26Z</time></trkpt><trkpt lat="43.35806404618919" lon="-0.5386313812600892"><ele>124.00000000000001</ele><time>2026-04-29T08:56:27Z</time></trkpt><trkpt lat="43.358125578347874" lon="-0.5387146778480966"><ele>124.0</ele><time>2026-04-29T08:56:28Z</time></trkpt><trkpt lat="43.35818880507117" lon="-0.5387924635883484"><ele>124.0</ele><time>2026-04-29T08:56:29Z</time></trkpt><trkpt lat="43.358253995977485" lon="-0.538866074186638"><ele>124.0</ele><time>2026-04-29T08:56:30Z</time></trkpt><trkpt lat="43.35831395485091" lon="-0.5389485206096405"><ele>124.00000000000001</ele><time>2026-04-29T08:56:31Z</time></trkpt><trkpt lat="43.35837708118033" lon="-0.5390268000739841"><ele>124.0</ele><time>2026-04-29T08:56:32Z</time></trkpt><trkpt lat="43.358432666420356" lon="-0.5391109766443469"><ele>124.00000000000001</ele><time>2026-04-29T08:56:33Z</time></trkpt><trkpt lat="43.35848953216928" lon="-0.5391948013185359"><ele>124.0</ele><time>2026-04-29T08:56:34Z</time></trkpt><trkpt lat="43.358544948081445" lon="-0.5392818826105473"><ele>124.0</ele><time>2026-04-29T08:56:35Z</time></trkpt><trkpt lat="43.35859040761859" lon="-0.5393799715567295"><ele>124.0</ele><time>2026-04-29T08:56:36Z</time></trkpt><trkpt lat="43.35863308920647" lon="-0.5394840230642624"><ele>124.00000000000001</ele><time>2026-04-29T08:56:37Z</time></trkpt><trkpt lat="43.3586728134672" lon="-0.5395900090056672"><ele>124.0</ele><time>2026-04-29T08:56:38Z</time></trkpt><trkpt lat="43.358710929479194" lon="-0.5396977902711586"><ele>124.00000000000001</ele><time>2026-04-29T08:56:39Z</time></trkpt><trkpt lat="43.35874155516896" lon="-0.5398081822871126"><ele>124.0</ele><time>2026-04-29T08:56:40Z</time></trkpt><trkpt lat="43.35877245763852" lon="-0.5399215591720136"><ele>124.0</ele><time>2026-04-29T08:56:41Z</time></trkpt><trkpt lat="43.35879708242154" lon="-0.5400368990727579"><ele>124.0</ele><time>2026-04-29T08:56:42Z</time></trkpt><trkpt lat="43.35881712913143" lon="-0.5401532563244078"><ele>124.00000000000001</ele><time>2026-04-29T08:56:43Z</time></trkpt><trkpt lat="43.3588368127411" lon="-0.5402706918410737"><ele>124.0</ele><time>2026-04-29T08:56:44Z</time></trkpt><trkpt lat="43.35885382926935" lon="-0.540390719404876"><ele>124.00000000000001</ele><time>2026-04-29T08:56:45Z</time></trkpt><trkpt lat="43.35887350459385" lon="-0.5405049517789334"><ele>124.0</ele><time>2026-04-29T08:56:46Z</time></trkpt><trkpt lat="43.35889057008129" lon="-0.5406175181010754"><ele>124.0</ele><time>2026-04-29T08:56:47Z</time></trkpt><trkpt lat="43.358910672341565" lon="-0.5407324347479509"><ele>124.0</ele><time>2026-04-29T08:56:48Z</time></trkpt><trkpt lat="43.358941375843166" lon="-0.5408424381707085"><ele>124.00000000000001</ele><time>2026-04-29T08:56:49Z</time></trkpt><trkpt lat="43.358979972385406" lon="-0.5409443597460656"><ele>124.0</ele><time>2026-04-29T08:56:50Z</time></trkpt><trkpt lat="43.35902467754961" lon="-0.5410417603199966"><ele>124.00000000000001</ele><time>2026-04-29T08:56:51Z</time></trkpt><trkpt lat="43.359073952853194" lon="-0.5411346013432405"><ele>124.0</ele><time>2026-04-29T08:56:52Z</time></trkpt><trkpt lat="43.359133133626976" lon="-0.5412152115008396"><ele>124.0</ele><time>2026-04-29T08:56:53Z</time></trkpt><trkpt lat="43.359201551084524" lon="-0.5412807892970039"><ele>124.0</ele><time>2026-04-29T08:56:54Z</time></trkpt><trkpt lat="43.35927347282847" lon="-0.5413369450501903"><ele>124.00000000000001</ele><time>2026-04-29T08:56:55Z</time></trkpt><trkpt lat="43.35934665654553" lon="-0.5413918448573479"><ele>124.0</ele><time>2026-04-29T08:56:56Z</time></trkpt><trkpt lat="43.359421255143275" lon="-0.5414473958369134"><ele>124.00000000000001</ele><time>2026-04-29T08:56:57Z</time></trkpt><trkpt lat="43.35949592718176" lon="-0.5415082017878754"><ele>124.0</ele><time>2026-04-29T08:56:58Z</time></trkpt><trkpt lat="43.359567643509244" lon="-0.5415745274593867"><ele>124.0</ele><time>2026-04-29T08:56:59Z</time></trkpt><trkpt lat="43.35963691814604" lon="-0.5416387887750079"><ele>124.0</ele><time>2026-04-29T08:57:00Z</time></trkpt><trkpt lat="43.359703017546586" lon="-0.54171183572999"><ele>124.00000000000001</ele><time>2026-04-29T08:57:01Z</time></trkpt><trkpt lat="43.359764619479684" lon="-0.541795235345027"><ele>124.0</ele><time>2026-04-29T08:57:02Z</time></trkpt><trkpt lat="43.359819661948045" lon="-0.5418851963753434"><ele>123.83333333333334</ele><time>2026-04-29T08:57:03Z</time></trkpt><trkpt lat="43.35988051549389" lon="-0.5419690967320492"><ele>123.66666666666667</ele><time>2026-04-29T08:57:04Z</time></trkpt><trkpt lat="43.35994588062433" lon="-0.5420636462205779"><ele>123.5</ele><time>2026-04-29T08:57:05Z</time></trkpt><trkpt lat="43.360001802606725" lon="-0.5421376294974037"><ele>123.33333333333334</ele><time>2026-04-29T08:57:06Z</time></trkpt><trkpt lat="43.36005685714246" lon="-0.5422194720755615"><ele>123.16666666666667</ele><time>2026-04-29T08:57:07Z</time></trkpt><trkpt lat="43.36010098451783" lon="-0.5423103155832337"><ele>123.0</ele><time>2026-04-29T08:57:08Z</time></trkpt><trkpt lat="43.360157924410785" lon="-0.5423964286645423"><ele>123.0</ele><time>2026-04-29T08:57:09Z</time></trkpt><trkpt lat="43.360189840830735" lon="-0.5424979941632754"><ele>123.0</ele><time>2026-04-29T08:57:10Z</time></trkpt><trkpt lat="43.36022256871436" lon="-0.5425968061688927"><ele>123.0</ele><time>2026-04-29T08:57:11Z</time></trkpt><trkpt lat="43.360237136800194" lon="-0.5427071110940012"><ele>123.0</ele><time>2026-04-29T08:57:12Z</time></trkpt><trkpt lat="43.36023761968717" lon="-0.5428167243558748"><ele>123.0</ele><time>2026-04-29T08:57:13Z</time></trkpt><trkpt lat="43.36023685165899" lon="-0.5429220611795329"><ele>123.0</ele><time>2026-04-29T08:57:14Z</time></trkpt><trkpt lat="43.360233753288746" lon="-0.5430413786774009"><ele>123.0</ele><time>2026-04-29T08:57:15Z</time></trkpt><trkpt lat="43.36022852968828" lon="-0.5431622707377652"><ele>123.0</ele><time>2026-04-29T08:57:16Z</time></trkpt><trkpt lat="43.360226963172984" lon="-0.5432800795543856"><ele>123.0</ele><time>2026-04-29T08:57:17Z</time></trkpt><trkpt lat="43.360225661381996" lon="-0.5433985699257237"><ele>123.0</ele><time>2026-04-29T08:57:18Z</time></trkpt><trkpt lat="43.36022360039498" lon="-0.5435193324461027"><ele>123.0</ele><time>2026-04-29T08:57:19Z</time></trkpt><trkpt lat="43.36022170865756" lon="-0.5436428908399032"><ele>123.0</ele><time>2026-04-29T08:57:20Z</time></trkpt><trkpt lat="43.36021817680066" lon="-0.5437692970340795"><ele>122.80000000000001</ele><time>2026-04-29T08:57:21Z</time></trkpt><trkpt lat="43.360212496888785" lon="-0.5438958000120163"><ele>122.60000000000001</ele><time>2026-04-29T08:57:22Z</time></trkpt><trkpt lat="43.36020159154799" lon="-0.544020979491923"><ele>122.39999999999999</ele><time>2026-04-29T08:57:23.001Z</time></trkpt><trkpt lat="43.36018845932142" lon="-0.5441479356329374"><ele>122.19999999999999</ele><time>2026-04-29T08:57:24.001Z</time></trkpt><trkpt lat="43.360178087355074" lon="-0.5442730363816679"><ele>122.0</ele><time>2026-04-29T08:57:25.001Z</time></trkpt><trkpt lat="43.3601753644232" lon="-0.5443974892737917"><ele>122.0</ele><time>2026-04-29T08:57:26.001Z</time></trkpt><trkpt lat="43.360166017065104" lon="-0.5445222633921637"><ele>121.99999999999999</ele><time>2026-04-29T08:57:27.001Z</time></trkpt><trkpt lat="43.36015878888611" lon="-0.5446489889740195"><ele>121.99999999999999</ele><time>2026-04-29T08:57:28.001Z</time></trkpt><trkpt lat="43.360156465511274" lon="-0.5447739855624577"><ele>122.0</ele><time>2026-04-29T08:57:29.001Z</time></trkpt><trkpt lat="43.36015946416289" lon="-0.5448976231208849"><ele>122.0</ele><time>2026-04-29T08:57:30.001Z</time></trkpt><trkpt lat="43.360164262821414" lon="-0.5450263171516604"><ele>122.0</ele><time>2026-04-29T08:57:31.001Z</time></trkpt><trkpt lat="43.36015576337231" lon="-0.5451522481127979"><ele>121.99999999999999</ele><time>2026-04-29T08:57:32.001Z</time></trkpt><trkpt lat="43.36014874387135" lon="-0.5452819704797606"><ele>121.99999999999999</ele><time>2026-04-29T08:57:33.001Z</time></trkpt><trkpt lat="43.36014329909764" lon="-0.5454114818277457"><ele>122.0</ele><time>2026-04-29T08:57:34.001Z</time></trkpt><trkpt lat="43.360137912386726" lon="-0.5455399306514703"><ele>122.0</ele><time>2026-04-29T08:57:35.001Z</time></trkpt><trkpt lat="43.360132538796044" lon="-0.5456709035943437"><ele>122.0</ele><time>2026-04-29T08:57:36.001Z</time></trkpt><trkpt lat="43.360127178830794" lon="-0.5458002263048156"><ele>121.99999999999999</ele><time>2026-04-29T08:57:37.001Z</time></trkpt><trkpt lat="43.36012247281602" lon="-0.5459353751686147"><ele>121.99999999999999</ele><time>2026-04-29T08:57:38.001Z</time></trkpt><trkpt lat="43.360118955845984" lon="-0.5460600674349713"><ele>122.0</ele><time>2026-04-29T08:57:39.001Z</time></trkpt><trkpt lat="43.360111306477634" lon="-0.5461931121675908"><ele>122.0</ele><time>2026-04-29T08:57:40.001Z</time></trkpt><trkpt lat="43.36010221784393" lon="-0.5463245499304059"><ele>122.39999999999999</ele><time>2026-04-29T08:57:41.001Z</time></trkpt><trkpt lat="43.36009729452394" lon="-0.5464591054454422"><ele>122.79999999999998</ele><time>2026-04-29T08:57:42.001Z</time></trkpt><trkpt lat="43.36009069004466" lon="-0.546589849092453"><ele>123.2</ele><time>2026-04-29T08:57:43.001Z</time></trkpt><trkpt lat="43.36008106497476" lon="-0.5467192800439657"><ele>123.6</ele><time>2026-04-29T08:57:44.001Z</time></trkpt><trkpt lat="43.360074054675906" lon="-0.546854424093445"><ele>124.0</ele><time>2026-04-29T08:57:45.001Z</time></trkpt><trkpt lat="43.36006872159486" lon="-0.5469908791396905"><ele>124.0</ele><time>2026-04-29T08:57:46.001Z</time></trkpt><trkpt lat="43.36006199420271" lon="-0.5471276210575415"><ele>124.0</ele><time>2026-04-29T08:57:47.001Z</time></trkpt><trkpt lat="43.36005568383045" lon="-0.5472673083290875"><ele>124.0</ele><time>2026-04-29T08:57:48.001Z</time></trkpt><trkpt lat="43.36004963949977" lon="-0.5474041644796814"><ele>124.0</ele><time>2026-04-29T08:57:49.001Z</time></trkpt><trkpt lat="43.36004329784801" lon="-0.54754021101203"><ele>124.0</ele><time>2026-04-29T08:57:50.001Z</time></trkpt><trkpt lat="43.36003510936393" lon="-0.5476740987965008"><ele>124.0</ele><time>2026-04-29T08:57:51.001Z</time></trkpt><trkpt lat="43.36002945734725" lon="-0.5478120765352027"><ele>124.0</ele><time>2026-04-29T08:57:52.001Z</time></trkpt><trkpt lat="43.360024245570834" lon="-0.5479492563415156"><ele>124.0</ele><time>2026-04-29T08:57:53.001Z</time></trkpt><trkpt lat="43.360017733618584" lon="-0.5480868739610338"><ele>124.0</ele><time>2026-04-29T08:57:54.001Z</time></trkpt><trkpt lat="43.360012034914256" lon="-0.5482237429077734"><ele>124.0</ele><time>2026-04-29T08:57:55.001Z</time></trkpt><trkpt lat="43.36000444806924" lon="-0.5483602183716337"><ele>124.0</ele><time>2026-04-29T08:57:56.001Z</time></trkpt><trkpt lat="43.35999968062094" lon="-0.5484988832142385"><ele>124.0</ele><time>2026-04-29T08:57:57.001Z</time></trkpt><trkpt lat="43.3599943556133" lon="-0.5486381006119623"><ele>124.0</ele><time>2026-04-29T08:57:58.001Z</time></trkpt><trkpt lat="43.35998833073216" lon="-0.548780497494835"><ele>124.0</ele><time>2026-04-29T08:57:59.001Z</time></trkpt><trkpt lat="43.359981094892085" lon="-0.54892039387208"><ele>124.0</ele><time>2026-04-29T08:58:00.001Z</time></trkpt><trkpt lat="43.35997695579909" lon="-0.5490634447636351"><ele>123.80000000000001</ele><time>2026-04-29T08:58:01.001Z</time></trkpt><trkpt lat="43.35997067540356" lon="-0.5492085406353274"><ele>123.60000000000001</ele><time>2026-04-29T08:58:02.001Z</time></trkpt><trkpt lat="43.359964736331754" lon="-0.549352255782821"><ele>123.4</ele><time>2026-04-29T08:58:03.001Z</time></trkpt><trkpt lat="43.35995915494901" lon="-0.5494963731312762"><ele>123.2</ele><time>2026-04-29T08:58:04.001Z</time></trkpt><trkpt lat="43.35995310381379" lon="-0.5496399571520489"><ele>123.0</ele><time>2026-04-29T08:58:05.001Z</time></trkpt><trkpt lat="43.35994664122203" lon="-0.5497846526780701"><ele>123.0</ele><time>2026-04-29T08:58:06.001Z</time></trkpt><trkpt lat="43.359940962551825" lon="-0.5499272835432378"><ele>123.00000000000001</ele><time>2026-04-29T08:58:07.001Z</time></trkpt><trkpt lat="43.35993648353571" lon="-0.5500759152317727"><ele>123.00000000000001</ele><time>2026-04-29T08:58:08.001Z</time></trkpt><trkpt lat="43.359931423284415" lon="-0.5502199289770067"><ele>123.0</ele><time>2026-04-29T08:58:09.001Z</time></trkpt><trkpt lat="43.3599268637524" lon="-0.5503639433181884"><ele>123.0</ele><time>2026-04-29T08:58:10.001Z</time></trkpt><trkpt lat="43.359922866444556" lon="-0.5505063566805789"><ele>123.0</ele><time>2026-04-29T08:58:11.001Z</time></trkpt><trkpt lat="43.35991598404453" lon="-0.5506498692821593"><ele>123.00000000000001</ele><time>2026-04-29T08:58:12.001Z</time></trkpt><trkpt lat="43.35990834803941" lon="-0.5507924580891421"><ele>123.00000000000001</ele><time>2026-04-29T08:58:13.001Z</time></trkpt><trkpt lat="43.359904404917245" lon="-0.5509328362246754"><ele>123.0</ele><time>2026-04-29T08:58:14.001Z</time></trkpt><trkpt lat="43.35989645642309" lon="-0.5510740697511393"><ele>123.0</ele><time>2026-04-29T08:58:15.001Z</time></trkpt><trkpt lat="43.35989030782166" lon="-0.5512152242752337"><ele>122.80000000000001</ele><time>2026-04-29T08:58:16.001Z</time></trkpt><trkpt lat="43.35988599032093" lon="-0.5513573254582579"><ele>122.60000000000001</ele><time>2026-04-29T08:58:17.001Z</time></trkpt><trkpt lat="43.35988209526642" lon="-0.5514985376829121"><ele>122.39999999999999</ele><time>2026-04-29T08:58:18.001Z</time></trkpt><trkpt lat="43.359878248638786" lon="-0.5516416778981136"><ele>122.19999999999999</ele><time>2026-04-29T08:58:19.001Z</time></trkpt><trkpt lat="43.359873459756365" lon="-0.5517854241881287"><ele>122.0</ele><time>2026-04-29T08:58:20.001Z</time></trkpt><trkpt lat="43.35988023608148" lon="-0.5519146942061077"><ele>121.99999999999999</ele><time>2026-04-29T08:58:21.001Z</time></trkpt><trkpt lat="43.35989211084301" lon="-0.5520388064604194"><ele>122.0</ele><time>2026-04-29T08:58:22.001Z</time></trkpt><trkpt lat="43.35991549011075" lon="-0.5521660949490877"><ele>122.0</ele><time>2026-04-29T08:58:23.001Z</time></trkpt><trkpt lat="43.359952028482596" lon="-0.5522813216749028"><ele>122.0</ele><time>2026-04-29T08:58:24.001Z</time></trkpt><trkpt lat="43.35998648585701" lon="-0.5523893918637213"><ele>121.99999999999999</ele><time>2026-04-29T08:58:25.001Z</time></trkpt><trkpt lat="43.36002974190718" lon="-0.5524859029739329"><ele>122.0</ele><time>2026-04-29T08:58:26.001Z</time></trkpt><trkpt lat="43.36007322742341" lon="-0.5525696211122038"><ele>122.16666666666666</ele><time>2026-04-29T08:58:27.001Z</time></trkpt><trkpt lat="43.36011252082823" lon="-0.5526394546289697"><ele>122.33333333333333</ele><time>2026-04-29T08:58:28.001Z</time></trkpt><trkpt lat="43.36014427190429" lon="-0.5527714175702424"><ele>122.5</ele><time>2026-04-29T08:58:30.001Z</time></trkpt><trkpt lat="43.36010114325682" lon="-0.5529009710270841"><ele>122.66666666666666</ele><time>2026-04-29T08:58:32Z</time></trkpt><trkpt lat="43.36005637784208" lon="-0.552966830523905"><ele>122.83333333333333</ele><time>2026-04-29T08:58:33Z</time></trkpt><trkpt lat="43.36001300816321" lon="-0.5530358274537953"><ele>123.0</ele><time>2026-04-29T08:58:34Z</time></trkpt><trkpt lat="43.35995664590199" lon="-0.5530800394560252"><ele>123.0</ele><time>2026-04-29T08:58:35Z</time></trkpt><trkpt lat="43.35996985258647" lon="-0.5532054991668175"><ele>123.0</ele><time>2026-04-29T08:58:36Z</time></trkpt><trkpt lat="43.35996717425068" lon="-0.5532975942096295"><ele>123.0</ele><time>2026-04-29T08:58:37Z</time></trkpt><trkpt lat="43.359962659294936" lon="-0.5533976998126566"><ele>123.0</ele><time>2026-04-29T08:58:38Z</time></trkpt><trkpt lat="43.359941862686405" lon="-0.553494077303049"><ele>123.0</ele><time>2026-04-29T08:58:39Z</time></trkpt><trkpt lat="43.35989584506146" lon="-0.5535840311912918"><ele>123.0</ele><time>2026-04-29T08:58:40Z</time></trkpt><trkpt lat="43.35983906651731" lon="-0.553662368547694"><ele>122.80000000000001</ele><time>2026-04-29T08:58:41Z</time></trkpt><trkpt lat="43.359833519529644" lon="-0.5537972143198814"><ele>122.60000000000001</ele><time>2026-04-29T08:58:42Z</time></trkpt><trkpt lat="43.359829348802414" lon="-0.5539213639847075"><ele>122.39999999999999</ele><time>2026-04-29T08:58:43Z</time></trkpt><trkpt lat="43.35984311777493" lon="-0.5540461008214872"><ele>122.19999999999999</ele><time>2026-04-29T08:58:44Z</time></trkpt><trkpt lat="43.35983139789579" lon="-0.5541681804940041"><ele>122.0</ele><time>2026-04-29T08:58:45Z</time></trkpt><trkpt lat="43.359871225604536" lon="-0.5542950396615283"><ele>122.0</ele><time>2026-04-29T08:58:46Z</time></trkpt><trkpt lat="43.359886773896505" lon="-0.554420358092723"><ele>121.99999999999999</ele><time>2026-04-29T08:58:47Z</time></trkpt><trkpt lat="43.35990178674849" lon="-0.5545480014291866"><ele>121.99999999999999</ele><time>2026-04-29T08:58:48Z</time></trkpt><trkpt lat="43.359916090445495" lon="-0.5546732198927853"><ele>122.0</ele><time>2026-04-29T08:58:49Z</time></trkpt><trkpt lat="43.35993370616899" lon="-0.5548051702764324"><ele>122.0</ele><time>2026-04-29T08:58:50Z</time></trkpt><trkpt lat="43.3599523670929" lon="-0.554939238149604"><ele>122.0</ele><time>2026-04-29T08:58:51Z</time></trkpt><trkpt lat="43.35997421929499" lon="-0.5550755924795046"><ele>121.99999999999999</ele><time>2026-04-29T08:58:52Z</time></trkpt><trkpt lat="43.359995738718254" lon="-0.5552106859340405"><ele>121.99999999999999</ele><time>2026-04-29T08:58:53Z</time></trkpt><trkpt lat="43.360015110623245" lon="-0.5553473880895461"><ele>122.0</ele><time>2026-04-29T08:58:54Z</time></trkpt><trkpt lat="43.36003546755773" lon="-0.55548669062364"><ele>122.0</ele><time>2026-04-29T08:58:55Z</time></trkpt><trkpt lat="43.36005579306328" lon="-0.5556253799712356"><ele>122.0</ele><time>2026-04-29T08:58:56Z</time></trkpt><trkpt lat="43.36007748544291" lon="-0.5557597877570246"><ele>121.99999999999999</ele><time>2026-04-29T08:58:57Z</time></trkpt><trkpt lat="43.36009613533876" lon="-0.5558995443536887"><ele>121.99999999999999</ele><time>2026-04-29T08:58:58Z</time></trkpt><trkpt lat="43.360114113785365" lon="-0.5560405104055471"><ele>122.0</ele><time>2026-04-29T08:58:59Z</time></trkpt><trkpt lat="43.36013440419258" lon="-0.5561790309178997"><ele>122.0</ele><time>2026-04-29T08:59:00Z</time></trkpt><trkpt lat="43.36015338299107" lon="-0.5563183299171196"><ele>122.0</ele><time>2026-04-29T08:59:01Z</time></trkpt><trkpt lat="43.36017198956286" lon="-0.5564583712469309"><ele>121.99999999999999</ele><time>2026-04-29T08:59:02Z</time></trkpt><trkpt lat="43.36018988922848" lon="-0.5565999988159588"><ele>121.99999999999999</ele><time>2026-04-29T08:59:03Z</time></trkpt><trkpt lat="43.360208628229074" lon="-0.5567413718919827"><ele>122.0</ele><time>2026-04-29T08:59:04Z</time></trkpt><trkpt lat="43.36023131261675" lon="-0.5568837562876483"><ele>122.0</ele><time>2026-04-29T08:59:05Z</time></trkpt><trkpt lat="43.36025240331348" lon="-0.5570259075890676"><ele>121.8</ele><time>2026-04-29T08:59:06Z</time></trkpt><trkpt lat="43.36027174352112" lon="-0.5571645922298705"><ele>121.6</ele><time>2026-04-29T08:59:07Z</time></trkpt><trkpt lat="43.360292254252485" lon="-0.5573104031157325"><ele>121.39999999999999</ele><time>2026-04-29T08:59:08Z</time></trkpt><trkpt lat="43.36031321632962" lon="-0.5574566154111484"><ele>121.19999999999999</ele><time>2026-04-29T08:59:09Z</time></trkpt><trkpt lat="43.36033127357212" lon="-0.5576047774355833"><ele>121.0</ele><time>2026-04-29T08:59:10Z</time></trkpt><trkpt lat="43.36035043981637" lon="-0.5577520012211831"><ele>121.19999999999999</ele><time>2026-04-29T08:59:11Z</time></trkpt><trkpt lat="43.36037233342559" lon="-0.5578963631422795"><ele>121.39999999999999</ele><time>2026-04-29T08:59:12Z</time></trkpt><trkpt lat="43.360395321652625" lon="-0.5580413016198253"><ele>121.6</ele><time>2026-04-29T08:59:13Z</time></trkpt><trkpt lat="43.360421383027564" lon="-0.558186870447465"><ele>121.8</ele><time>2026-04-29T08:59:14Z</time></trkpt><trkpt lat="43.36045195695096" lon="-0.5583283973821705"><ele>122.0</ele><time>2026-04-29T08:59:15Z</time></trkpt><trkpt lat="43.36048146732014" lon="-0.5584715820803485"><ele>122.0</ele><time>2026-04-29T08:59:16Z</time></trkpt><trkpt lat="43.36051225790148" lon="-0.5586159204102422"><ele>121.99999999999999</ele><time>2026-04-29T08:59:17Z</time></trkpt><trkpt lat="43.36054186635817" lon="-0.5587644625026128"><ele>121.99999999999999</ele><time>2026-04-29T08:59:18Z</time></trkpt><trkpt lat="43.360569422567806" lon="-0.5589054384195623"><ele>122.0</ele><time>2026-04-29T08:59:19Z</time></trkpt><trkpt lat="43.360597305306555" lon="-0.5590436611119299"><ele>122.0</ele><time>2026-04-29T08:59:20Z</time></trkpt><trkpt lat="43.360623961167434" lon="-0.559180454481207"><ele>122.0</ele><time>2026-04-29T08:59:21Z</time></trkpt><trkpt lat="43.360664482063385" lon="-0.5593131545230006"><ele>121.99999999999999</ele><time>2026-04-29T08:59:22Z</time></trkpt><trkpt lat="43.3606895452949" lon="-0.5594499211935956"><ele>121.99999999999999</ele><time>2026-04-29T08:59:23Z</time></trkpt><trkpt lat="43.360717677473374" lon="-0.5595870409764593"><ele>122.0</ele><time>2026-04-29T08:59:24Z</time></trkpt><trkpt lat="43.36073866367808" lon="-0.559735336116473"><ele>122.0</ele><time>2026-04-29T08:59:25Z</time></trkpt><trkpt lat="43.36076553994032" lon="-0.5598719529910613"><ele>121.39999999999999</ele><time>2026-04-29T08:59:26Z</time></trkpt><trkpt lat="43.36078745461962" lon="-0.5600166152751767"><ele>120.79999999999998</ele><time>2026-04-29T08:59:27Z</time></trkpt><trkpt lat="43.36081486182819" lon="-0.5601512294013897"><ele>120.2</ele><time>2026-04-29T08:59:28Z</time></trkpt><trkpt lat="43.36084486514407" lon="-0.5602891678516624"><ele>119.6</ele><time>2026-04-29T08:59:29Z</time></trkpt><trkpt lat="43.360874019850094" lon="-0.5604247629197894"><ele>119.0</ele><time>2026-04-29T08:59:30.001Z</time></trkpt><trkpt lat="43.36090423612323" lon="-0.5605636291948788"><ele>119.0</ele><time>2026-04-29T08:59:31.001Z</time></trkpt><trkpt lat="43.36092949508058" lon="-0.5607015703476279"><ele>119.0</ele><time>2026-04-29T08:59:32.001Z</time></trkpt><trkpt lat="43.36095844256251" lon="-0.5608376077373961"><ele>119.0</ele><time>2026-04-29T08:59:33.001Z</time></trkpt><trkpt lat="43.360984996506154" lon="-0.5609768559883593"><ele>119.0</ele><time>2026-04-29T08:59:34.001Z</time></trkpt><trkpt lat="43.3610129766199" lon="-0.5611166452840435"><ele>119.0</ele><time>2026-04-29T08:59:35.001Z</time></trkpt><trkpt lat="43.36104037515254" lon="-0.5612538348961696"><ele>119.6</ele><time>2026-04-29T08:59:36.001Z</time></trkpt><trkpt lat="43.3610699430171" lon="-0.5613906793940056"><ele>120.2</ele><time>2026-04-29T08:59:37.001Z</time></trkpt><trkpt lat="43.3610979003658" lon="-0.5615291418145537"><ele>120.79999999999998</ele><time>2026-04-29T08:59:38.001Z</time></trkpt><trkpt lat="43.36112340721051" lon="-0.5616678337028217"><ele>121.39999999999999</ele><time>2026-04-29T08:59:39.001Z</time></trkpt><trkpt lat="43.361149255829396" lon="-0.5618027611482221"><ele>122.0</ele><time>2026-04-29T08:59:40.001Z</time></trkpt><trkpt lat="43.36117547599333" lon="-0.5619393540803505"><ele>121.6</ele><time>2026-04-29T08:59:41.001Z</time></trkpt><trkpt lat="43.36120053644662" lon="-0.5620734439486241"><ele>121.19999999999999</ele><time>2026-04-29T08:59:42.001Z</time></trkpt><trkpt lat="43.361225838069984" lon="-0.562210194291784"><ele>120.8</ele><time>2026-04-29T08:59:43.001Z</time></trkpt><trkpt lat="43.36125310765798" lon="-0.5623499268222266"><ele>120.4</ele><time>2026-04-29T08:59:44.001Z</time></trkpt><trkpt lat="43.361283975351284" lon="-0.5624880034617779"><ele>120.0</ele><time>2026-04-29T08:59:45.001Z</time></trkpt><trkpt lat="43.3613171951594" lon="-0.5626290725562958"><ele>120.0</ele><time>2026-04-29T08:59:46.001Z</time></trkpt><trkpt lat="43.36134665634953" lon="-0.5627683132396307"><ele>120.0</ele><time>2026-04-29T08:59:47.001Z</time></trkpt><trkpt lat="43.36137576561084" lon="-0.5629079282650408"><ele>120.0</ele><time>2026-04-29T08:59:48.001Z</time></trkpt><trkpt lat="43.361404818974336" lon="-0.5630452779654403"><ele>120.0</ele><time>2026-04-29T08:59:49.001Z</time></trkpt><trkpt lat="43.36143303451557" lon="-0.5631810151384182"><ele>120.0</ele><time>2026-04-29T08:59:50.001Z</time></trkpt><trkpt lat="43.361458786747455" lon="-0.5633174028860488"><ele>120.0</ele><time>2026-04-29T08:59:51.001Z</time></trkpt><trkpt lat="43.36148509763927" lon="-0.5634543138969855"><ele>120.0</ele><time>2026-04-29T08:59:52.001Z</time></trkpt><trkpt lat="43.36151458201143" lon="-0.5635922012805339"><ele>120.0</ele><time>2026-04-29T08:59:53.001Z</time></trkpt><trkpt lat="43.36153982636372" lon="-0.5637280223408481"><ele>120.0</ele><time>2026-04-29T08:59:54.001Z</time></trkpt><trkpt lat="43.36156226739837" lon="-0.5638621985550204"><ele>120.0</ele><time>2026-04-29T08:59:55.001Z</time></trkpt><trkpt lat="43.36158684904784" lon="-0.5639945744908115"><ele>120.0</ele><time>2026-04-29T08:59:56.001Z</time></trkpt><trkpt lat="43.3616120773649" lon="-0.5641287820857016"><ele>120.0</ele><time>2026-04-29T08:59:57.001Z</time></trkpt><trkpt lat="43.361640565552605" lon="-0.5642653517997748"><ele>120.0</ele><time>2026-04-29T08:59:58.001Z</time></trkpt><trkpt lat="43.36167306246901" lon="-0.5644017523420097"><ele>120.0</ele><time>2026-04-29T08:59:59.001Z</time></trkpt><trkpt lat="43.3617034011836" lon="-0.5645402520406075"><ele>120.0</ele><time>2026-04-29T09:00:00.001Z</time></trkpt><trkpt lat="43.36173254509335" lon="-0.5646739171366403"><ele>120.2</ele><time>2026-04-29T09:00:01.001Z</time></trkpt><trkpt lat="43.36176074514309" lon="-0.5648115022763402"><ele>120.4</ele><time>2026-04-29T09:00:02.001Z</time></trkpt><trkpt lat="43.36178764907702" lon="-0.5649498644792457"><ele>120.6</ele><time>2026-04-29T09:00:03.001Z</time></trkpt><trkpt lat="43.36181544248322" lon="-0.565089195883171"><ele>120.8</ele><time>2026-04-29T09:00:04.001Z</time></trkpt><trkpt lat="43.36183965534451" lon="-0.5652279297979211"><ele>121.0</ele><time>2026-04-29T09:00:05.001Z</time></trkpt><trkpt lat="43.361868951877824" lon="-0.5653680557151696"><ele>120.6</ele><time>2026-04-29T09:00:06.001Z</time></trkpt><trkpt lat="43.36189628768109" lon="-0.5655088391187492"><ele>120.19999999999999</ele><time>2026-04-29T09:00:07.001Z</time></trkpt><trkpt lat="43.36191913432627" lon="-0.5656517239624553"><ele>119.80000000000001</ele><time>2026-04-29T09:00:08.001Z</time></trkpt><trkpt lat="43.36193701475254" lon="-0.5657978707539936"><ele>119.4</ele><time>2026-04-29T09:00:09.001Z</time></trkpt><trkpt lat="43.361948210047494" lon="-0.5659428026143323"><ele>119.0</ele><time>2026-04-29T09:00:10.001Z</time></trkpt><trkpt lat="43.36195604829605" lon="-0.5660882866037351"><ele>119.4</ele><time>2026-04-29T09:00:11.001Z</time></trkpt><trkpt lat="43.36195989130034" lon="-0.5662316206763627"><ele>119.80000000000001</ele><time>2026-04-29T09:00:12.001Z</time></trkpt><trkpt lat="43.361961302537715" lon="-0.5663791789728604"><ele>120.19999999999999</ele><time>2026-04-29T09:00:13.001Z</time></trkpt><trkpt lat="43.36196205342266" lon="-0.5665259686382365"><ele>120.6</ele><time>2026-04-29T09:00:14.001Z</time></trkpt><trkpt lat="43.361963372426395" lon="-0.5666718460975882"><ele>121.0</ele><time>2026-04-29T09:00:15.001Z</time></trkpt><trkpt lat="43.3619642244302" lon="-0.5668138708439969"><ele>121.0</ele><time>2026-04-29T09:00:16.001Z</time></trkpt><trkpt lat="43.36196849222492" lon="-0.5669597746573455"><ele>121.0</ele><time>2026-04-29T09:00:17.001Z</time></trkpt><trkpt lat="43.361969855447626" lon="-0.5671026799337788"><ele>121.0</ele><time>2026-04-29T09:00:18.001Z</time></trkpt><trkpt lat="43.36197430209612" lon="-0.5672469903447503"><ele>121.0</ele><time>2026-04-29T09:00:19.001Z</time></trkpt><trkpt lat="43.36197991621841" lon="-0.5673932514518739"><ele>121.0</ele><time>2026-04-29T09:00:20.001Z</time></trkpt><trkpt lat="43.36198318727552" lon="-0.5675384232645294"><ele>120.8</ele><time>2026-04-29T09:00:21.001Z</time></trkpt><trkpt lat="43.36198561834299" lon="-0.567683330851165"><ele>120.6</ele><time>2026-04-29T09:00:22.001Z</time></trkpt><trkpt lat="43.36198344665331" lon="-0.5678218973034658"><ele>120.4</ele><time>2026-04-29T09:00:23.001Z</time></trkpt><trkpt lat="43.36198324113448" lon="-0.5679609959506378"><ele>120.2</ele><time>2026-04-29T09:00:24.001Z</time></trkpt><trkpt lat="43.36198131079966" lon="-0.5680976158041011"><ele>120.0</ele><time>2026-04-29T09:00:25.001Z</time></trkpt><trkpt lat="43.36197990047044" lon="-0.5682319447313543"><ele>120.0</ele><time>2026-04-29T09:00:26.001Z</time></trkpt><trkpt lat="43.3619813984911" lon="-0.5683551287316213"><ele>120.0</ele><time>2026-04-29T09:00:27.001Z</time></trkpt><trkpt lat="43.361981870635944" lon="-0.5684464325976316"><ele>120.0</ele><time>2026-04-29T09:00:28.001Z</time></trkpt><trkpt lat="43.3619797749539" lon="-0.5685478999724639"><ele>120.0</ele><time>2026-04-29T09:00:30.001Z</time></trkpt><trkpt lat="43.36191258165355" lon="-0.5683835201838642"><ele>120.0</ele><time>2026-04-29T09:00:43Z</time></trkpt><trkpt lat="43.361927777967516" lon="-0.5682901998938155"><ele>120.0</ele><time>2026-04-29T09:00:44Z</time></trkpt><trkpt lat="43.36193031542419" lon="-0.5681860431741984"><ele>120.0</ele><time>2026-04-29T09:00:45Z</time></trkpt><trkpt lat="43.361931978718005" lon="-0.5680889622403851"><ele>120.0</ele><time>2026-04-29T09:00:46Z</time></trkpt><trkpt lat="43.361934236815614" lon="-0.5679949829257325"><ele>120.0</ele><time>2026-04-29T09:00:47Z</time></trkpt><trkpt lat="43.36193723277771" lon="-0.5678308393222969"><ele>120.0</ele><time>2026-04-29T09:00:49Z</time></trkpt><trkpt lat="43.36198531380699" lon="-0.5677229625624359"><ele>120.0</ele><time>2026-04-29T09:00:51Z</time></trkpt><trkpt lat="43.36206793427025" lon="-0.5677242297834328"><ele>120.0</ele><time>2026-04-29T09:00:53Z</time></trkpt><trkpt lat="43.36211392166446" lon="-0.5678128943903042"><ele>120.0</ele><time>2026-04-29T09:00:55Z</time></trkpt><trkpt lat="43.36211786204051" lon="-0.5678998687566089"><ele>120.0</ele><time>2026-04-29T09:00:58Z</time></trkpt><trkpt lat="43.36205282943223" lon="-0.5678690545589165"><ele>120.0</ele><time>2026-04-29T09:02:28.001Z</time></trkpt><trkpt lat="43.36198817355514" lon="-0.5679033539875565"><ele>120.0</ele><time>2026-04-29T09:02:31.002Z</time></trkpt><trkpt lat="43.361968288479204" lon="-0.5680219979306561"><ele>120.0</ele><time>2026-04-29T09:02:33.002Z</time></trkpt><trkpt lat="43.36198075075409" lon="-0.568180481196098"><ele>120.0</ele><time>2026-04-29T09:02:35.002Z</time></trkpt><trkpt lat="43.36197890511708" lon="-0.5683558852845935"><ele>120.0</ele><time>2026-04-29T09:02:37.002Z</time></trkpt><trkpt lat="43.361977726526895" lon="-0.568455053119091"><ele>120.0</ele><time>2026-04-29T09:02:38.002Z</time></trkpt><trkpt lat="43.36197604621074" lon="-0.5685570645738199"><ele>120.0</ele><time>2026-04-29T09:02:39.002Z</time></trkpt><trkpt lat="43.36197208074764" lon="-0.5686620306039684"><ele>120.0</ele><time>2026-04-29T09:02:40.002Z</time></trkpt><trkpt lat="43.3619695968208" lon="-0.5687700390108962"><ele>120.0</ele><time>2026-04-29T09:02:41.002Z</time></trkpt><trkpt lat="43.36196582286025" lon="-0.568878776236633"><ele>120.0</ele><time>2026-04-29T09:02:42.002Z</time></trkpt><trkpt lat="43.36196093698327" lon="-0.5689910446254574"><ele>120.0</ele><time>2026-04-29T09:02:43.002Z</time></trkpt><trkpt lat="43.36195931566777" lon="-0.5691078644712876"><ele>120.0</ele><time>2026-04-29T09:02:44.001Z</time></trkpt><trkpt lat="43.36196193839645" lon="-0.569228647216677"><ele>120.0</ele><time>2026-04-29T09:02:45.001Z</time></trkpt><trkpt lat="43.361963267226976" lon="-0.5693496220190807"><ele>120.0</ele><time>2026-04-29T09:02:46.001Z</time></trkpt><trkpt lat="43.36196315976885" lon="-0.5694726412901046"><ele>120.0</ele><time>2026-04-29T09:02:47.001Z</time></trkpt><trkpt lat="43.361964849620904" lon="-0.5695976742467141"><ele>120.0</ele><time>2026-04-29T09:02:48.001Z</time></trkpt><trkpt lat="43.361965790981756" lon="-0.569722101110592"><ele>119.8</ele><time>2026-04-29T09:02:49.001Z</time></trkpt><trkpt lat="43.36196882949357" lon="-0.5698521753755987"><ele>119.6</ele><time>2026-04-29T09:02:50.001Z</time></trkpt><trkpt lat="43.36196806555838" lon="-0.569976991451745"><ele>119.4</ele><time>2026-04-29T09:02:51.001Z</time></trkpt><trkpt lat="43.361967036459035" lon="-0.5701072130903925"><ele>119.2</ele><time>2026-04-29T09:02:52.001Z</time></trkpt><trkpt lat="43.36196742646407" lon="-0.5702356905852255"><ele>119.0</ele><time>2026-04-29T09:02:53.001Z</time></trkpt><trkpt lat="43.36196805005668" lon="-0.5703662535608093"><ele>118.80000000000001</ele><time>2026-04-29T09:02:54.001Z</time></trkpt><trkpt lat="43.361970336428556" lon="-0.5704990671108132"><ele>118.60000000000001</ele><time>2026-04-29T09:02:55.001Z</time></trkpt><trkpt lat="43.36197048511177" lon="-0.5706302808602335"><ele>118.4</ele><time>2026-04-29T09:02:56.001Z</time></trkpt><trkpt lat="43.36197040888835" lon="-0.5707640193748863"><ele>118.2</ele><time>2026-04-29T09:02:57.001Z</time></trkpt><trkpt lat="43.36196901649959" lon="-0.5709025178214953"><ele>118.0</ele><time>2026-04-29T09:02:58.001Z</time></trkpt><trkpt lat="43.36197121601984" lon="-0.5710384604917103"><ele>118.0</ele><time>2026-04-29T09:02:59.001Z</time></trkpt><trkpt lat="43.36197218771649" lon="-0.5711717040407371"><ele>118.00000000000001</ele><time>2026-04-29T09:03:00.001Z</time></trkpt><trkpt lat="43.36197358244582" lon="-0.5713055403043774"><ele>118.00000000000001</ele><time>2026-04-29T09:03:01.001Z</time></trkpt><trkpt lat="43.3619741249696" lon="-0.5714425757421864"><ele>118.0</ele><time>2026-04-29T09:03:02.001Z</time></trkpt><trkpt lat="43.361975187542214" lon="-0.5715791749603939"><ele>118.0</ele><time>2026-04-29T09:03:03.001Z</time></trkpt><trkpt lat="43.361987939780455" lon="-0.5717145099460099"><ele>117.80000000000001</ele><time>2026-04-29T09:03:04.001Z</time></trkpt><trkpt lat="43.36200241197735" lon="-0.5718472103803026"><ele>117.60000000000001</ele><time>2026-04-29T09:03:05.001Z</time></trkpt><trkpt lat="43.3620143547953" lon="-0.571979301696011"><ele>117.39999999999999</ele><time>2026-04-29T09:03:06.001Z</time></trkpt><trkpt lat="43.36203349064554" lon="-0.5721123858622332"><ele>117.19999999999999</ele><time>2026-04-29T09:03:07.001Z</time></trkpt><trkpt lat="43.362054577523274" lon="-0.5722426457771768"><ele>117.0</ele><time>2026-04-29T09:03:08.001Z</time></trkpt><trkpt lat="43.36208252908363" lon="-0.5723720822731503"><ele>117.0</ele><time>2026-04-29T09:03:09.001Z</time></trkpt><trkpt lat="43.36211251123085" lon="-0.5725020656956489"><ele>116.99999999999999</ele><time>2026-04-29T09:03:10.001Z</time></trkpt><trkpt lat="43.3621452040775" lon="-0.5726251943230845"><ele>116.99999999999999</ele><time>2026-04-29T09:03:11.001Z</time></trkpt><trkpt lat="43.36218257913156" lon="-0.572748837477994"><ele>117.0</ele><time>2026-04-29T09:03:12.001Z</time></trkpt><trkpt lat="43.36222155487351" lon="-0.572870944241038"><ele>117.0</ele><time>2026-04-29T09:03:13.001Z</time></trkpt><trkpt lat="43.362266657869434" lon="-0.5729937655299762"><ele>117.0</ele><time>2026-04-29T09:03:14.001Z</time></trkpt><trkpt lat="43.36232420575122" lon="-0.5731264790605268"><ele>116.99999999999999</ele><time>2026-04-29T09:03:15.001Z</time></trkpt><trkpt lat="43.36236009436424" lon="-0.5732336584367812"><ele>116.99999999999999</ele><time>2026-04-29T09:03:16.001Z</time></trkpt><trkpt lat="43.36241451629673" lon="-0.5733467701358411"><ele>117.0</ele><time>2026-04-29T09:03:17.001Z</time></trkpt><trkpt lat="43.362470334182504" lon="-0.5734571112824708"><ele>117.0</ele><time>2026-04-29T09:03:18.001Z</time></trkpt><trkpt lat="43.362531511493245" lon="-0.5735917125562395"><ele>117.0</ele><time>2026-04-29T09:03:19.001Z</time></trkpt><trkpt lat="43.362590471813185" lon="-0.5736686728312447"><ele>116.99999999999999</ele><time>2026-04-29T09:03:20.001Z</time></trkpt><trkpt lat="43.36265181124154" lon="-0.5737766281177572"><ele>116.99999999999999</ele><time>2026-04-29T09:03:21.001Z</time></trkpt><trkpt lat="43.36270847534182" lon="-0.5738863019633903"><ele>117.0</ele><time>2026-04-29T09:03:22.001Z</time></trkpt><trkpt lat="43.362768628519696" lon="-0.573987661923007"><ele>117.0</ele><time>2026-04-29T09:03:23.001Z</time></trkpt><trkpt lat="43.36282632439141" lon="-0.5740932760223167"><ele>117.0</ele><time>2026-04-29T09:03:24.001Z</time></trkpt><trkpt lat="43.362883232077294" lon="-0.5741985887661375"><ele>116.99999999999999</ele><time>2026-04-29T09:03:25.001Z</time></trkpt><trkpt lat="43.36294446992752" lon="-0.5743006561114653"><ele>116.99999999999999</ele><time>2026-04-29T09:03:26.001Z</time></trkpt><trkpt lat="43.363002975614826" lon="-0.5744044702440273"><ele>117.0</ele><time>2026-04-29T09:03:27.001Z</time></trkpt><trkpt lat="43.36306470301716" lon="-0.5745054708351972"><ele>117.0</ele><time>2026-04-29T09:03:28.001Z</time></trkpt><trkpt lat="43.363120738761374" lon="-0.5746123387946783"><ele>117.0</ele><time>2026-04-29T09:03:29.001Z</time></trkpt><trkpt lat="43.36317790533163" lon="-0.5747185173522964"><ele>116.99999999999999</ele><time>2026-04-29T09:03:30.001Z</time></trkpt><trkpt lat="43.363237071027434" lon="-0.5748207178941946"><ele>116.99999999999999</ele><time>2026-04-29T09:03:31.001Z</time></trkpt><trkpt lat="43.36329611715937" lon="-0.5749266884648958"><ele>117.0</ele><time>2026-04-29T09:03:32.001Z</time></trkpt><trkpt lat="43.36335963803789" lon="-0.5750292660070624"><ele>117.0</ele><time>2026-04-29T09:03:33.001Z</time></trkpt><trkpt lat="43.363413730185385" lon="-0.575134308086819"><ele>117.0</ele><time>2026-04-29T09:03:34.001Z</time></trkpt><trkpt lat="43.36347565683261" lon="-0.5752356866842553"><ele>116.99999999999999</ele><time>2026-04-29T09:03:35.001Z</time></trkpt><trkpt lat="43.3635354354671" lon="-0.5753436162458415"><ele>116.99999999999999</ele><time>2026-04-29T09:03:36.001Z</time></trkpt><trkpt lat="43.36359306050834" lon="-0.5754481925821715"><ele>117.0</ele><time>2026-04-29T09:03:37.001Z</time></trkpt><trkpt lat="43.36365391312835" lon="-0.5755523893460677"><ele>117.0</ele><time>2026-04-29T09:03:38.001Z</time></trkpt><trkpt lat="43.363711728033394" lon="-0.5756564279394322"><ele>117.0</ele><time>2026-04-29T09:03:39.001Z</time></trkpt><trkpt lat="43.36376854153739" lon="-0.5757586899715248"><ele>116.99999999999999</ele><time>2026-04-29T09:03:40.001Z</time></trkpt><trkpt lat="43.363826098769344" lon="-0.5758626663730647"><ele>116.99999999999999</ele><time>2026-04-29T09:03:41.001Z</time></trkpt><trkpt lat="43.363885824664486" lon="-0.5759678076967618"><ele>117.0</ele><time>2026-04-29T09:03:42.001Z</time></trkpt><trkpt lat="43.36394291911091" lon="-0.5760722353728203"><ele>117.0</ele><time>2026-04-29T09:03:43.001Z</time></trkpt><trkpt lat="43.363999244380466" lon="-0.5761758712723939"><ele>116.8</ele><time>2026-04-29T09:03:44.001Z</time></trkpt><trkpt lat="43.364058690418474" lon="-0.5762764809543409"><ele>116.6</ele><time>2026-04-29T09:03:45.001Z</time></trkpt><trkpt lat="43.364116376840954" lon="-0.576379094331632"><ele>116.39999999999999</ele><time>2026-04-29T09:03:46.001Z</time></trkpt><trkpt lat="43.36417244656326" lon="-0.5764796503969936"><ele>116.19999999999999</ele><time>2026-04-29T09:03:47.001Z</time></trkpt><trkpt lat="43.364229790322995" lon="-0.5765788001279848"><ele>116.0</ele><time>2026-04-29T09:03:48.001Z</time></trkpt><trkpt lat="43.36428304828006" lon="-0.5766691825466924"><ele>115.99999999999999</ele><time>2026-04-29T09:03:49.001Z</time></trkpt><trkpt lat="43.3643340215699" lon="-0.5767554596486679"><ele>116.0</ele><time>2026-04-29T09:03:50.001Z</time></trkpt><trkpt lat="43.36438856142087" lon="-0.5768301866684067"><ele>116.0</ele><time>2026-04-29T09:03:51.001Z</time></trkpt><trkpt lat="43.36445901138398" lon="-0.5768830628015149"><ele>116.0</ele><time>2026-04-29T09:03:52.001Z</time></trkpt><trkpt lat="43.36453124153863" lon="-0.5769229659173489"><ele>115.99999999999999</ele><time>2026-04-29T09:03:53.001Z</time></trkpt><trkpt lat="43.36460655053746" lon="-0.5769562065391578"><ele>116.0</ele><time>2026-04-29T09:03:54.001Z</time></trkpt><trkpt lat="43.364683418395984" lon="-0.5769915257778504"><ele>116.33333333333333</ele><time>2026-04-29T09:03:55.001Z</time></trkpt><trkpt lat="43.36475206069495" lon="-0.5770441856004599"><ele>116.66666666666666</ele><time>2026-04-29T09:03:56.001Z</time></trkpt><trkpt lat="43.36480991804626" lon="-0.5771230565201604"><ele>117.0</ele><time>2026-04-29T09:03:57.001Z</time></trkpt><trkpt lat="43.364853172634874" lon="-0.5772245909726659"><ele>117.33333333333334</ele><time>2026-04-29T09:03:58.001Z</time></trkpt><trkpt lat="43.364876731310076" lon="-0.5773362262273996"><ele>117.66666666666667</ele><time>2026-04-29T09:03:59.001Z</time></trkpt><trkpt lat="43.364882520729985" lon="-0.5774543734871938"><ele>118.0</ele><time>2026-04-29T09:04:00.001Z</time></trkpt><trkpt lat="43.364887046817486" lon="-0.5775694259376163"><ele>118.00000000000001</ele><time>2026-04-29T09:04:01.001Z</time></trkpt><trkpt lat="43.36490119001338" lon="-0.5776900275031218"><ele>118.0</ele><time>2026-04-29T09:04:02.001Z</time></trkpt><trkpt lat="43.36492876729486" lon="-0.57780631472124"><ele>118.0</ele><time>2026-04-29T09:04:03.001Z</time></trkpt><trkpt lat="43.3649716913907" lon="-0.5779131501118013"><ele>118.0</ele><time>2026-04-29T09:04:04.001Z</time></trkpt><trkpt lat="43.36502566920311" lon="-0.578009662810565"><ele>118.00000000000001</ele><time>2026-04-29T09:04:05.001Z</time></trkpt><trkpt lat="43.365083461463065" lon="-0.5781038647187176"><ele>118.0</ele><time>2026-04-29T09:04:06.001Z</time></trkpt><trkpt lat="43.365143244393" lon="-0.578200853650964"><ele>117.4</ele><time>2026-04-29T09:04:07.001Z</time></trkpt><trkpt lat="43.36519944775151" lon="-0.5783013112293864"><ele>116.80000000000001</ele><time>2026-04-29T09:04:08.001Z</time></trkpt><trkpt lat="43.36526007947739" lon="-0.5784031519335198"><ele>116.2</ele><time>2026-04-29T09:04:09.001Z</time></trkpt><trkpt lat="43.36531945122036" lon="-0.5785081899999139"><ele>115.6</ele><time>2026-04-29T09:04:10.001Z</time></trkpt><trkpt lat="43.36537942108884" lon="-0.5786098982936972"><ele>115.0</ele><time>2026-04-29T09:04:11.001Z</time></trkpt><trkpt lat="43.36543512810283" lon="-0.578715032900039"><ele>114.8</ele><time>2026-04-29T09:04:12.001Z</time></trkpt><trkpt lat="43.36548993502354" lon="-0.5788193793863493"><ele>114.6</ele><time>2026-04-29T09:04:13.001Z</time></trkpt><trkpt lat="43.36554795896221" lon="-0.5789243575056998"><ele>114.4</ele><time>2026-04-29T09:04:14.001Z</time></trkpt><trkpt lat="43.36560865948195" lon="-0.5790304907404222"><ele>114.2</ele><time>2026-04-29T09:04:15.001Z</time></trkpt><trkpt lat="43.365669244345185" lon="-0.579134355494024"><ele>114.0</ele><time>2026-04-29T09:04:16.001Z</time></trkpt><trkpt lat="43.36573449618509" lon="-0.5792389125003835"><ele>114.4</ele><time>2026-04-29T09:04:17.001Z</time></trkpt><trkpt lat="43.36580060267994" lon="-0.5793481030800661"><ele>114.80000000000001</ele><time>2026-04-29T09:04:18.001Z</time></trkpt><trkpt lat="43.36585962917473" lon="-0.5794588231595482"><ele>115.19999999999999</ele><time>2026-04-29T09:04:19.001Z</time></trkpt><trkpt lat="43.36592144167704" lon="-0.5795651753976104"><ele>115.6</ele><time>2026-04-29T09:04:20.001Z</time></trkpt><trkpt lat="43.36598150926628" lon="-0.5796757212698935"><ele>116.0</ele><time>2026-04-29T09:04:21.001Z</time></trkpt><trkpt lat="43.36604222135036" lon="-0.5797855281826508"><ele>116.19999999999999</ele><time>2026-04-29T09:04:22.001Z</time></trkpt><trkpt lat="43.36610472999425" lon="-0.5798961147538861"><ele>116.39999999999999</ele><time>2026-04-29T09:04:23.001Z</time></trkpt><trkpt lat="43.366164133185" lon="-0.5800037223920548"><ele>116.6</ele><time>2026-04-29T09:04:24.001Z</time></trkpt><trkpt lat="43.366225697874775" lon="-0.5801131574320868"><ele>116.8</ele><time>2026-04-29T09:04:25.001Z</time></trkpt><trkpt lat="43.36628775986471" lon="-0.580222980122932"><ele>117.0</ele><time>2026-04-29T09:04:26.001Z</time></trkpt><trkpt lat="43.36635171337078" lon="-0.5803335272662054"><ele>116.6</ele><time>2026-04-29T09:04:27.001Z</time></trkpt><trkpt lat="43.366415177260265" lon="-0.5804441666974575"><ele>116.19999999999999</ele><time>2026-04-29T09:04:28.001Z</time></trkpt><trkpt lat="43.36648130962347" lon="-0.5805540696054958"><ele>115.8</ele><time>2026-04-29T09:04:29.001Z</time></trkpt><trkpt lat="43.36654606637388" lon="-0.58066735651005"><ele>115.4</ele><time>2026-04-29T09:04:30.001Z</time></trkpt><trkpt lat="43.36661189464939" lon="-0.5807774308242484"><ele>115.0</ele><time>2026-04-29T09:04:31.001Z</time></trkpt><trkpt lat="43.366677397134964" lon="-0.5808861779504804"><ele>115.0</ele><time>2026-04-29T09:04:32.002Z</time></trkpt><trkpt lat="43.366741146902186" lon="-0.580994271921485"><ele>115.0</ele><time>2026-04-29T09:04:33.002Z</time></trkpt><trkpt lat="43.366803263637216" lon="-0.5810948178328729"><ele>115.0</ele><time>2026-04-29T09:04:34.002Z</time></trkpt><trkpt lat="43.36685915087466" lon="-0.5811879775890699"><ele>115.0</ele><time>2026-04-29T09:04:35.002Z</time></trkpt><trkpt lat="43.36691090374685" lon="-0.5812788950656227"><ele>115.0</ele><time>2026-04-29T09:04:36.002Z</time></trkpt><trkpt lat="43.36696242161665" lon="-0.5813648552427164"><ele>115.00000000000001</ele><time>2026-04-29T09:04:37.002Z</time></trkpt><trkpt lat="43.367009936059716" lon="-0.5814470696961878"><ele>115.0</ele><time>2026-04-29T09:04:38.002Z</time></trkpt><trkpt lat="43.367056184428016" lon="-0.581524082423536"><ele>115.0</ele><time>2026-04-29T09:04:39.002Z</time></trkpt><trkpt lat="43.36710057673094" lon="-0.5815975396112194"><ele>115.0</ele><time>2026-04-29T09:04:40.002Z</time></trkpt><trkpt lat="43.36714345016905" lon="-0.5816704184721683"><ele>115.00000000000001</ele><time>2026-04-29T09:04:41.002Z</time></trkpt><trkpt lat="43.36718226468084" lon="-0.5817388751624968"><ele>115.0</ele><time>2026-04-29T09:04:42.002Z</time></trkpt><trkpt lat="43.36725515883506" lon="-0.5818571722477445"><ele>115.00000000000001</ele><time>2026-04-29T09:04:44.002Z</time></trkpt><trkpt lat="43.36732223782857" lon="-0.581929722631555"><ele>115.0</ele><time>2026-04-29T09:04:46.002Z</time></trkpt><trkpt lat="43.36736571595983" lon="-0.5819967408839108"><ele>115.0</ele><time>2026-04-29T09:04:49.002Z</time></trkpt><trkpt lat="43.3674134147528" lon="-0.5820680334463422"><ele>115.0</ele><time>2026-04-29T09:05:56.001Z</time></trkpt><trkpt lat="43.3674434780646" lon="-0.5821556019160778"><ele>115.00000000000001</ele><time>2026-04-29T09:05:58.001Z</time></trkpt><trkpt lat="43.367503334143194" lon="-0.5822858093453126"><ele>115.0</ele><time>2026-04-29T09:06:00.001Z</time></trkpt><trkpt lat="43.36754189711008" lon="-0.582355294405327"><ele>114.83333333333334</ele><time>2026-04-29T09:06:01.001Z</time></trkpt><trkpt lat="43.36758068176323" lon="-0.582433583154286"><ele>114.66666666666667</ele><time>2026-04-29T09:06:02.001Z</time></trkpt><trkpt lat="43.367625390448914" lon="-0.5825125699256698"><ele>114.5</ele><time>2026-04-29T09:06:03.001Z</time></trkpt><trkpt lat="43.36767194589342" lon="-0.5825969550696237"><ele>114.33333333333334</ele><time>2026-04-29T09:06:04.001Z</time></trkpt><trkpt lat="43.367721894424896" lon="-0.5826837871972224"><ele>114.16666666666667</ele><time>2026-04-29T09:06:05.001Z</time></trkpt><trkpt lat="43.36776949149026" lon="-0.5827650103502395"><ele>114.0</ele><time>2026-04-29T09:06:06.001Z</time></trkpt><trkpt lat="43.36781938891401" lon="-0.5828436572702779"><ele>114.0</ele><time>2026-04-29T09:06:07.001Z</time></trkpt><trkpt lat="43.36786501874354" lon="-0.5829306320058015"><ele>114.0</ele><time>2026-04-29T09:06:08.001Z</time></trkpt><trkpt lat="43.367912191052426" lon="-0.5830169488930176"><ele>114.0</ele><time>2026-04-29T09:06:09.001Z</time></trkpt><trkpt lat="43.367962757436494" lon="-0.5831068663744922"><ele>114.0</ele><time>2026-04-29T09:06:10.001Z</time></trkpt><trkpt lat="43.36801385435838" lon="-0.5832006084064627"><ele>114.0</ele><time>2026-04-29T09:06:11.001Z</time></trkpt><trkpt lat="43.36806417616001" lon="-0.583295988684879"><ele>114.0</ele><time>2026-04-29T09:06:12.001Z</time></trkpt><trkpt lat="43.36811256233764" lon="-0.5833949035976596"><ele>114.16666666666667</ele><time>2026-04-29T09:06:13.001Z</time></trkpt><trkpt lat="43.368164164061916" lon="-0.5834928790066782"><ele>114.33333333333334</ele><time>2026-04-29T09:06:14.001Z</time></trkpt><trkpt lat="43.36821883783828" lon="-0.5835931421313018"><ele>114.5</ele><time>2026-04-29T09:06:15.001Z</time></trkpt><trkpt lat="43.36827087591505" lon="-0.5836942674391342"><ele>114.66666666666667</ele><time>2026-04-29T09:06:16.001Z</time></trkpt><trkpt lat="43.36832387970829" lon="-0.5837940825405904"><ele>114.83333333333334</ele><time>2026-04-29T09:06:17.001Z</time></trkpt><trkpt lat="43.368378704570084" lon="-0.5838920817808226"><ele>115.0</ele><time>2026-04-29T09:06:18.001Z</time></trkpt><trkpt lat="43.3684342825512" lon="-0.5839924672219498"><ele>115.0</ele><time>2026-04-29T09:06:19.001Z</time></trkpt><trkpt lat="43.36849086272692" lon="-0.5840958397799612"><ele>115.0</ele><time>2026-04-29T09:06:20.001Z</time></trkpt><trkpt lat="43.368548371708094" lon="-0.5842000619661624"><ele>115.0</ele><time>2026-04-29T09:06:21.001Z</time></trkpt><trkpt lat="43.36860696614454" lon="-0.5843011041637814"><ele>115.0</ele><time>2026-04-29T09:06:22.001Z</time></trkpt><trkpt lat="43.368665124243535" lon="-0.5844033763832985"><ele>115.0</ele><time>2026-04-29T09:06:23.001Z</time></trkpt><trkpt lat="43.36872208016861" lon="-0.5845043789984617"><ele>115.0</ele><time>2026-04-29T09:06:24.001Z</time></trkpt><trkpt lat="43.36878052825198" lon="-0.5846053375537108"><ele>115.0</ele><time>2026-04-29T09:06:25.001Z</time></trkpt><trkpt lat="43.36884002369064" lon="-0.5847071276252443"><ele>115.0</ele><time>2026-04-29T09:06:26.001Z</time></trkpt><trkpt lat="43.36889995948266" lon="-0.5848082863304885"><ele>115.0</ele><time>2026-04-29T09:06:27.001Z</time></trkpt><trkpt lat="43.368957869826964" lon="-0.5849122710105962"><ele>115.0</ele><time>2026-04-29T09:06:28.001Z</time></trkpt><trkpt lat="43.369014001736964" lon="-0.5850156880202658"><ele>115.0</ele><time>2026-04-29T09:06:29.001Z</time></trkpt><trkpt lat="43.369069893925825" lon="-0.5851219780408117"><ele>115.0</ele><time>2026-04-29T09:06:30.001Z</time></trkpt><trkpt lat="43.36912808788484" lon="-0.585226634444942"><ele>115.0</ele><time>2026-04-29T09:06:31.001Z</time></trkpt><trkpt lat="43.36918360228244" lon="-0.5853278619723533"><ele>115.0</ele><time>2026-04-29T09:06:32.001Z</time></trkpt><trkpt lat="43.36923735084429" lon="-0.5854340794374603"><ele>115.0</ele><time>2026-04-29T09:06:33.001Z</time></trkpt><trkpt lat="43.36929571312641" lon="-0.5855413659830406"><ele>115.0</ele><time>2026-04-29T09:06:34.001Z</time></trkpt><trkpt lat="43.369351492176804" lon="-0.5856452765440279"><ele>115.0</ele><time>2026-04-29T09:06:35.001Z</time></trkpt><trkpt lat="43.36940828029196" lon="-0.5857519634546106"><ele>115.0</ele><time>2026-04-29T09:06:36.001Z</time></trkpt><trkpt lat="43.36946441836367" lon="-0.5858544116448122"><ele>115.0</ele><time>2026-04-29T09:06:37.001Z</time></trkpt><trkpt lat="43.36952105245586" lon="-0.5859602188378318"><ele>115.0</ele><time>2026-04-29T09:06:38.001Z</time></trkpt><trkpt lat="43.369582245587566" lon="-0.5860594510893734"><ele>115.0</ele><time>2026-04-29T09:06:39.001Z</time></trkpt><trkpt lat="43.369639891519874" lon="-0.5861656723784088"><ele>115.0</ele><time>2026-04-29T09:06:40.001Z</time></trkpt><trkpt lat="43.369698742943974" lon="-0.5862702034377187"><ele>115.0</ele><time>2026-04-29T09:06:41.001Z</time></trkpt><trkpt lat="43.36975600356671" lon="-0.5863780126208519"><ele>115.0</ele><time>2026-04-29T09:06:42.001Z</time></trkpt><trkpt lat="43.36981704584445" lon="-0.5864805785637422"><ele>115.0</ele><time>2026-04-29T09:06:43.001Z</time></trkpt><trkpt lat="43.36987831992522" lon="-0.5865880758049933"><ele>115.0</ele><time>2026-04-29T09:06:44.001Z</time></trkpt><trkpt lat="43.36993918316139" lon="-0.5866905063643232"><ele>115.0</ele><time>2026-04-29T09:06:45.001Z</time></trkpt><trkpt lat="43.36999986685389" lon="-0.5867969736313416"><ele>115.0</ele><time>2026-04-29T09:06:46.001Z</time></trkpt><trkpt lat="43.3700620314171" lon="-0.5869013172005"><ele>115.0</ele><time>2026-04-29T09:06:47.001Z</time></trkpt><trkpt lat="43.37012649539827" lon="-0.5870055383741267"><ele>115.0</ele><time>2026-04-29T09:06:48.001Z</time></trkpt><trkpt lat="43.370190881994496" lon="-0.5871098016696367"><ele>114.8</ele><time>2026-04-29T09:06:49.001Z</time></trkpt><trkpt lat="43.370250498626085" lon="-0.5872170375552277"><ele>114.6</ele><time>2026-04-29T09:06:50.001Z</time></trkpt><trkpt lat="43.37031010012586" lon="-0.587324870879038"><ele>114.4</ele><time>2026-04-29T09:06:51.001Z</time></trkpt><trkpt lat="43.37036919866694" lon="-0.5874290090817403"><ele>114.2</ele><time>2026-04-29T09:06:52.001Z</time></trkpt><trkpt lat="43.37043407166248" lon="-0.5875348320487651"><ele>114.0</ele><time>2026-04-29T09:06:53.001Z</time></trkpt><trkpt lat="43.370494914594204" lon="-0.5876416604679109"><ele>114.2</ele><time>2026-04-29T09:06:54.001Z</time></trkpt><trkpt lat="43.37055586393952" lon="-0.5877479775368712"><ele>114.4</ele><time>2026-04-29T09:06:55.001Z</time></trkpt><trkpt lat="43.37061473001681" lon="-0.5878587763867311"><ele>114.6</ele><time>2026-04-29T09:06:56Z</time></trkpt><trkpt lat="43.37067385652567" lon="-0.5879670706122513"><ele>114.8</ele><time>2026-04-29T09:06:57Z</time></trkpt><trkpt lat="43.37073383653337" lon="-0.5880812416419265"><ele>115.0</ele><time>2026-04-29T09:06:58Z</time></trkpt><trkpt lat="43.37079576560431" lon="-0.5881859439473289"><ele>114.83333333333334</ele><time>2026-04-29T09:06:59Z</time></trkpt><trkpt lat="43.37085671158325" lon="-0.5882880401585483"><ele>114.66666666666667</ele><time>2026-04-29T09:07:00Z</time></trkpt><trkpt lat="43.37091086665468" lon="-0.5883876217807082"><ele>114.5</ele><time>2026-04-29T09:07:01Z</time></trkpt><trkpt lat="43.370962384210216" lon="-0.5884802419584885"><ele>114.33333333333334</ele><time>2026-04-29T09:07:02Z</time></trkpt><trkpt lat="43.371007792216446" lon="-0.5885693695658759"><ele>114.16666666666667</ele><time>2026-04-29T09:07:03Z</time></trkpt><trkpt lat="43.371055260659936" lon="-0.5886484330537103"><ele>114.0</ele><time>2026-04-29T09:07:04Z</time></trkpt><trkpt lat="43.371096327747786" lon="-0.5887180078090376"><ele>114.0</ele><time>2026-04-29T09:07:05Z</time></trkpt><trkpt lat="43.37117235495218" lon="-0.5887652649055113"><ele>114.0</ele><time>2026-04-29T09:07:07Z</time></trkpt><trkpt lat="43.371285756225255" lon="-0.5887505410515905"><ele>114.0</ele><time>2026-04-29T09:07:11Z</time></trkpt><trkpt lat="43.371297376555546" lon="-0.5888660592382764"><ele>114.0</ele><time>2026-04-29T09:07:13Z</time></trkpt><trkpt lat="43.371310811731114" lon="-0.588956190205937"><ele>114.0</ele><time>2026-04-29T09:07:15Z</time></trkpt><trkpt lat="43.37131903740394" lon="-0.589054493675012"><ele>114.0</ele><time>2026-04-29T09:07:18Z</time></trkpt><trkpt lat="43.37135167487899" lon="-0.589138009412041"><ele>114.0</ele><time>2026-04-29T09:08:27.001Z</time></trkpt><trkpt lat="43.37138821796284" lon="-0.5892211599877719"><ele>114.0</ele><time>2026-04-29T09:08:29.001Z</time></trkpt><trkpt lat="43.371446872352365" lon="-0.5893257184698624"><ele>114.0</ele><time>2026-04-29T09:08:31.001Z</time></trkpt><trkpt lat="43.3715188870398" lon="-0.5894552618092556"><ele>114.0</ele><time>2026-04-29T09:08:33.001Z</time></trkpt><trkpt lat="43.37156024538189" lon="-0.5895261568072792"><ele>114.0</ele><time>2026-04-29T09:08:34.001Z</time></trkpt><trkpt lat="43.37160455189567" lon="-0.589607342511042"><ele>114.0</ele><time>2026-04-29T09:08:35.001Z</time></trkpt><trkpt lat="43.371648864929895" lon="-0.5896956814153224"><ele>113.83333333333333</ele><time>2026-04-29T09:08:36.001Z</time></trkpt><trkpt lat="43.37170049209578" lon="-0.5897863670248168"><ele>113.66666666666666</ele><time>2026-04-29T09:08:37.001Z</time></trkpt><trkpt lat="43.37175080444945" lon="-0.5898809218744099"><ele>113.5</ele><time>2026-04-29T09:08:38.001Z</time></trkpt><trkpt lat="43.371804006808986" lon="-0.5899807400874204"><ele>113.33333333333333</ele><time>2026-04-29T09:08:39.001Z</time></trkpt><trkpt lat="43.371859960223816" lon="-0.5900840069834675"><ele>113.16666666666666</ele><time>2026-04-29T09:08:40.001Z</time></trkpt><trkpt lat="43.371915876272176" lon="-0.5901902756579049"><ele>113.0</ele><time>2026-04-29T09:08:41.001Z</time></trkpt><trkpt lat="43.371974750917055" lon="-0.5902972602291885"><ele>113.0</ele><time>2026-04-29T09:08:42.001Z</time></trkpt><trkpt lat="43.37203159879205" lon="-0.5904035658119714"><ele>113.00000000000001</ele><time>2026-04-29T09:08:43.001Z</time></trkpt><trkpt lat="43.37209143507223" lon="-0.5905122384136198"><ele>113.00000000000001</ele><time>2026-04-29T09:08:44.001Z</time></trkpt><trkpt lat="43.3721547740926" lon="-0.5906192867454941"><ele>113.0</ele><time>2026-04-29T09:08:45.001Z</time></trkpt><trkpt lat="43.37221715874293" lon="-0.5907302344447396"><ele>113.0</ele><time>2026-04-29T09:08:46.001Z</time></trkpt><trkpt lat="43.37227821936837" lon="-0.5908404792988559"><ele>113.2</ele><time>2026-04-29T09:08:47.001Z</time></trkpt><trkpt lat="43.372338425994194" lon="-0.590949874047008"><ele>113.4</ele><time>2026-04-29T09:08:48.001Z</time></trkpt><trkpt lat="43.37239779979593" lon="-0.5910574114020231"><ele>113.60000000000001</ele><time>2026-04-29T09:08:49.001Z</time></trkpt><trkpt lat="43.37245507620146" lon="-0.5911654589463868"><ele>113.80000000000001</ele><time>2026-04-29T09:08:50.001Z</time></trkpt><trkpt lat="43.372512174928566" lon="-0.5912756079499488"><ele>114.0</ele><time>2026-04-29T09:08:51.001Z</time></trkpt><trkpt lat="43.372571049187044" lon="-0.5913877995427287"><ele>114.0</ele><time>2026-04-29T09:08:52.001Z</time></trkpt><trkpt lat="43.37263417482401" lon="-0.5914981150888248"><ele>114.0</ele><time>2026-04-29T09:08:53.001Z</time></trkpt><trkpt lat="43.37269401714527" lon="-0.591606100768541"><ele>114.0</ele><time>2026-04-29T09:08:54.001Z</time></trkpt><trkpt lat="43.37275477735281" lon="-0.5917165047219441"><ele>114.0</ele><time>2026-04-29T09:08:55.001Z</time></trkpt><trkpt lat="43.372819655939324" lon="-0.5918238831159639"><ele>114.0</ele><time>2026-04-29T09:08:56.001Z</time></trkpt><trkpt lat="43.372882830998044" lon="-0.5919327946489664"><ele>114.2</ele><time>2026-04-29T09:08:57.001Z</time></trkpt><trkpt lat="43.37294429861602" lon="-0.5920405555418086"><ele>114.4</ele><time>2026-04-29T09:08:58.001Z</time></trkpt><trkpt lat="43.37300602196544" lon="-0.5921473619178498"><ele>114.6</ele><time>2026-04-29T09:08:59.001Z</time></trkpt><trkpt lat="43.37306479275952" lon="-0.5922532993034798"><ele>114.8</ele><time>2026-04-29T09:09:00.001Z</time></trkpt><trkpt lat="43.37312616090989" lon="-0.592360024921139"><ele>115.0</ele><time>2026-04-29T09:09:01.001Z</time></trkpt><trkpt lat="43.373185037869995" lon="-0.5924690625123573"><ele>115.0</ele><time>2026-04-29T09:09:02Z</time></trkpt><trkpt lat="43.37323832775788" lon="-0.5925789225707865"><ele>115.0</ele><time>2026-04-29T09:09:03Z</time></trkpt><trkpt lat="43.37328555392057" lon="-0.5926942380277807"><ele>115.0</ele><time>2026-04-29T09:09:04Z</time></trkpt><trkpt lat="43.37333288078425" lon="-0.5928108775806973"><ele>115.0</ele><time>2026-04-29T09:09:05Z</time></trkpt><trkpt lat="43.37337688275831" lon="-0.5929318328897641"><ele>115.0</ele><time>2026-04-29T09:09:06Z</time></trkpt><trkpt lat="43.37341846932907" lon="-0.5930561214437324"><ele>114.6</ele><time>2026-04-29T09:09:07Z</time></trkpt><trkpt lat="43.37346029725364" lon="-0.5931792330801124"><ele>114.2</ele><time>2026-04-29T09:09:08Z</time></trkpt><trkpt lat="43.37349784360137" lon="-0.5933051517018265"><ele>113.80000000000001</ele><time>2026-04-29T09:09:09Z</time></trkpt><trkpt lat="43.373532800593736" lon="-0.5934302860189019"><ele>113.4</ele><time>2026-04-29T09:09:10Z</time></trkpt><trkpt lat="43.373568640988196" lon="-0.5935551645010425"><ele>113.0</ele><time>2026-04-29T09:09:11Z</time></trkpt><trkpt lat="43.37360003646608" lon="-0.5936836569993864"><ele>113.0</ele><time>2026-04-29T09:09:12Z</time></trkpt><trkpt lat="43.373625351395276" lon="-0.5938144330644118"><ele>113.00000000000001</ele><time>2026-04-29T09:09:13Z</time></trkpt><trkpt lat="43.37364692066231" lon="-0.593943976333986"><ele>113.00000000000001</ele><time>2026-04-29T09:09:14Z</time></trkpt><trkpt lat="43.37366103750294" lon="-0.5940810772061635"><ele>113.0</ele><time>2026-04-29T09:09:15Z</time></trkpt><trkpt lat="43.373671835238476" lon="-0.5942182488572786"><ele>113.0</ele><time>2026-04-29T09:09:16Z</time></trkpt><trkpt lat="43.373682302000994" lon="-0.5943620289121151"><ele>113.0</ele><time>2026-04-29T09:09:17Z</time></trkpt><trkpt lat="43.37369387490346" lon="-0.5945048216125556"><ele>113.00000000000001</ele><time>2026-04-29T09:09:18Z</time></trkpt><trkpt lat="43.3737064291002" lon="-0.5946460084773002"><ele>113.00000000000001</ele><time>2026-04-29T09:09:19Z</time></trkpt><trkpt lat="43.37371821638633" lon="-0.5947862083251659"><ele>113.0</ele><time>2026-04-29T09:09:20Z</time></trkpt><trkpt lat="43.37372770522069" lon="-0.5949267112076566"><ele>113.0</ele><time>2026-04-29T09:09:21Z</time></trkpt><trkpt lat="43.37373595120059" lon="-0.5950672208460008"><ele>113.0</ele><time>2026-04-29T09:09:22Z</time></trkpt><trkpt lat="43.37374658745465" lon="-0.5952084911199372"><ele>113.00000000000001</ele><time>2026-04-29T09:09:23Z</time></trkpt><trkpt lat="43.3737575060165" lon="-0.595348906481973"><ele>113.00000000000001</ele><time>2026-04-29T09:09:24Z</time></trkpt><trkpt lat="43.373766817326" lon="-0.5954903167895267"><ele>113.0</ele><time>2026-04-29T09:09:25Z</time></trkpt><trkpt lat="43.373774029322" lon="-0.5956279580816674"><ele>113.0</ele><time>2026-04-29T09:09:26Z</time></trkpt><trkpt lat="43.3737773199586" lon="-0.5957665404636832"><ele>112.80000000000001</ele><time>2026-04-29T09:09:27Z</time></trkpt><trkpt lat="43.373784408138754" lon="-0.5959077015159121"><ele>112.60000000000001</ele><time>2026-04-29T09:09:28Z</time></trkpt><trkpt lat="43.37379051323085" lon="-0.5960474367493808"><ele>112.39999999999999</ele><time>2026-04-29T09:09:29Z</time></trkpt><trkpt lat="43.373799553019545" lon="-0.5961848000558206"><ele>112.19999999999999</ele><time>2026-04-29T09:09:30Z</time></trkpt><trkpt lat="43.37380771374017" lon="-0.5963262956950739"><ele>112.0</ele><time>2026-04-29T09:09:31Z</time></trkpt><trkpt lat="43.373817180214715" lon="-0.5964645194910692"><ele>112.0</ele><time>2026-04-29T09:09:32Z</time></trkpt><trkpt lat="43.37382475930302" lon="-0.596602384609381"><ele>111.99999999999999</ele><time>2026-04-29T09:09:33Z</time></trkpt><trkpt lat="43.37383121619724" lon="-0.5967435212178042"><ele>111.99999999999999</ele><time>2026-04-29T09:09:34Z</time></trkpt><trkpt lat="43.373841379236204" lon="-0.5968840841634342"><ele>112.0</ele><time>2026-04-29T09:09:35Z</time></trkpt><trkpt lat="43.37385068359664" lon="-0.5970215961217448"><ele>112.0</ele><time>2026-04-29T09:09:36Z</time></trkpt><trkpt lat="43.37385980387674" lon="-0.5971610851478101"><ele>112.0</ele><time>2026-04-29T09:09:37Z</time></trkpt><trkpt lat="43.37386949655724" lon="-0.5972995350777689"><ele>111.99999999999999</ele><time>2026-04-29T09:09:38Z</time></trkpt><trkpt lat="43.373877441160595" lon="-0.5974383356999637"><ele>111.99999999999999</ele><time>2026-04-29T09:09:39Z</time></trkpt><trkpt lat="43.37388615622188" lon="-0.5975749050592501"><ele>112.0</ele><time>2026-04-29T09:09:40Z</time></trkpt><trkpt lat="43.373893414218294" lon="-0.5977105359524353"><ele>112.0</ele><time>2026-04-29T09:09:41Z</time></trkpt><trkpt lat="43.37390545813729" lon="-0.5978465815809811"><ele>112.0</ele><time>2026-04-29T09:09:42Z</time></trkpt><trkpt lat="43.373923280747114" lon="-0.5979783461874791"><ele>111.99999999999999</ele><time>2026-04-29T09:09:43Z</time></trkpt><trkpt lat="43.373944016393054" lon="-0.5981110127601056"><ele>111.99999999999999</ele><time>2026-04-29T09:09:44Z</time></trkpt><trkpt lat="43.373962559507184" lon="-0.5982329944194515"><ele>112.0</ele><time>2026-04-29T09:09:45Z</time></trkpt><trkpt lat="43.373985434774774" lon="-0.598346291233545"><ele>112.0</ele><time>2026-04-29T09:09:46Z</time></trkpt><trkpt lat="43.37401112445077" lon="-0.5984506185701935"><ele>112.00000000000001</ele><time>2026-04-29T09:09:47Z</time></trkpt><trkpt lat="43.374038014679975" lon="-0.598547040975871"><ele>112.0</ele><time>2026-04-29T09:09:48Z</time></trkpt><trkpt lat="43.37406580843427" lon="-0.5986369102721089"><ele>112.0</ele><time>2026-04-29T09:09:49Z</time></trkpt><trkpt lat="43.374093786425696" lon="-0.598721620299915"><ele>112.0</ele><time>2026-04-29T09:09:50Z</time></trkpt><trkpt lat="43.37414936515178" lon="-0.5988652871867182"><ele>112.00000000000001</ele><time>2026-04-29T09:09:52.001Z</time></trkpt><trkpt lat="43.37420000778124" lon="-0.598986946170788"><ele>112.0</ele><time>2026-04-29T09:09:54.001Z</time></trkpt><trkpt lat="43.37423399740534" lon="-0.5990651043075412"><ele>112.00000000000001</ele><time>2026-04-29T09:09:56.001Z</time></trkpt><trkpt lat="43.37428050840316" lon="-0.5991535329236324"><ele>112.0</ele><time>2026-04-29T09:11:13Z</time></trkpt><trkpt lat="43.37433865289733" lon="-0.5992608652805571"><ele>112.0</ele><time>2026-04-29T09:11:15Z</time></trkpt><trkpt lat="43.374421217160595" lon="-0.5993861369464373"><ele>112.0</ele><time>2026-04-29T09:11:17Z</time></trkpt><trkpt lat="43.37446550541935" lon="-0.5994580075530884"><ele>112.00000000000001</ele><time>2026-04-29T09:11:18Z</time></trkpt><trkpt lat="43.37451492786781" lon="-0.5995287391645517"><ele>112.0</ele><time>2026-04-29T09:11:19Z</time></trkpt><trkpt lat="43.37456718185293" lon="-0.5996024122388957"><ele>112.16666666666667</ele><time>2026-04-29T09:11:20Z</time></trkpt><trkpt lat="43.374617991002204" lon="-0.5996811888440052"><ele>112.33333333333334</ele><time>2026-04-29T09:11:21Z</time></trkpt><trkpt lat="43.37467084664844" lon="-0.5997646486652094"><ele>112.5</ele><time>2026-04-29T09:11:22Z</time></trkpt><trkpt lat="43.37472705882739" lon="-0.5998459670884954"><ele>112.66666666666666</ele><time>2026-04-29T09:11:23Z</time></trkpt><trkpt lat="43.37478183006055" lon="-0.5999272157391129"><ele>112.83333333333333</ele><time>2026-04-29T09:11:24Z</time></trkpt><trkpt lat="43.374840064933565" lon="-0.6000080897106608"><ele>113.0</ele><time>2026-04-29T09:11:25Z</time></trkpt><trkpt lat="43.3748953290527" lon="-0.6000898532150868"><ele>112.99999999999999</ele><time>2026-04-29T09:11:26Z</time></trkpt><trkpt lat="43.37495292041594" lon="-0.6001737861459145"><ele>113.0</ele><time>2026-04-29T09:11:27Z</time></trkpt><trkpt lat="43.375007101144625" lon="-0.6002532521523892"><ele>113.0</ele><time>2026-04-29T09:11:28Z</time></trkpt><trkpt lat="43.3750618524199" lon="-0.6003341139984066"><ele>113.0</ele><time>2026-04-29T09:11:29Z</time></trkpt><trkpt lat="43.37511708167224" lon="-0.6004152668105186"><ele>112.99999999999999</ele><time>2026-04-29T09:11:30Z</time></trkpt><trkpt lat="43.37517143280009" lon="-0.6004963605824266"><ele>113.0</ele><time>2026-04-29T09:11:31Z</time></trkpt><trkpt lat="43.375226033005035" lon="-0.6005766947506318"><ele>113.0</ele><time>2026-04-29T09:11:32Z</time></trkpt><trkpt lat="43.37528151749077" lon="-0.6006556146984128"><ele>113.0</ele><time>2026-04-29T09:11:33Z</time></trkpt><trkpt lat="43.37533349027234" lon="-0.600730161742753"><ele>113.0</ele><time>2026-04-29T09:11:34Z</time></trkpt><trkpt lat="43.3753806428698" lon="-0.6008021600392759"><ele>113.0</ele><time>2026-04-29T09:11:35Z</time></trkpt><trkpt lat="43.375427221447914" lon="-0.6008700836514135"><ele>113.0</ele><time>2026-04-29T09:11:36Z</time></trkpt><trkpt lat="43.37546907085635" lon="-0.6009381300836746"><ele>113.0</ele><time>2026-04-29T09:11:37Z</time></trkpt><trkpt lat="43.37550987252195" lon="-0.6010041192595457"><ele>113.0</ele><time>2026-04-29T09:11:38Z</time></trkpt><trkpt lat="43.37559269834433" lon="-0.6011257866329555"><ele>112.57142857142857</ele><time>2026-04-29T09:11:40Z</time></trkpt><trkpt lat="43.37567662864722" lon="-0.6012476998768671"><ele>112.14285714285714</ele><time>2026-04-29T09:11:42Z</time></trkpt><trkpt lat="43.37572184194118" lon="-0.6013110489126958"><ele>111.71428571428571</ele><time>2026-04-29T09:11:43Z</time></trkpt><trkpt lat="43.37576384861816" lon="-0.6013759261577794"><ele>111.28571428571428</ele><time>2026-04-29T09:11:44Z</time></trkpt><trkpt lat="43.37580733760417" lon="-0.601440874837372"><ele>110.85714285714286</ele><time>2026-04-29T09:11:45Z</time></trkpt><trkpt lat="43.37584944778084" lon="-0.6015057352104194"><ele>110.42857142857142</ele><time>2026-04-29T09:11:46Z</time></trkpt><trkpt lat="43.375891387108005" lon="-0.6015731957237173"><ele>110.0</ele><time>2026-04-29T09:11:47Z</time></trkpt><trkpt lat="43.37593661140258" lon="-0.6016391286487172"><ele>109.99999999999999</ele><time>2026-04-29T09:11:48Z</time></trkpt><trkpt lat="43.3759829847712" lon="-0.601703267567432"><ele>110.0</ele><time>2026-04-29T09:11:49Z</time></trkpt><trkpt lat="43.37602728480847" lon="-0.6017701752349071"><ele>110.0</ele><time>2026-04-29T09:11:50Z</time></trkpt><trkpt lat="43.376072782001394" lon="-0.6018382024473878"><ele>110.0</ele><time>2026-04-29T09:11:51Z</time></trkpt><trkpt lat="43.37611894023519" lon="-0.6019055577607989"><ele>110.0</ele><time>2026-04-29T09:11:52Z</time></trkpt><trkpt lat="43.3761654869475" lon="-0.6019738764019538"><ele>109.99999999999999</ele><time>2026-04-29T09:11:53Z</time></trkpt><trkpt lat="43.376211442736796" lon="-0.6020415329806017"><ele>110.0</ele><time>2026-04-29T09:11:54Z</time></trkpt><trkpt lat="43.37625614957371" lon="-0.6021097979132356"><ele>109.99999999999999</ele><time>2026-04-29T09:11:55Z</time></trkpt><trkpt lat="43.37630087779354" lon="-0.6021791310637311"><ele>110.0</ele><time>2026-04-29T09:11:56Z</time></trkpt><trkpt lat="43.37634544364314" lon="-0.6022481913815843"><ele>110.0</ele><time>2026-04-29T09:11:57Z</time></trkpt><trkpt lat="43.376392199750796" lon="-0.6023162444287904"><ele>110.0</ele><time>2026-04-29T09:11:58Z</time></trkpt><trkpt lat="43.37647552412531" lon="-0.6024359868452733"><ele>109.99999999999999</ele><time>2026-04-29T09:12:00Z</time></trkpt><trkpt lat="43.376537929934635" lon="-0.6025244386299449"><ele>110.0</ele><time>2026-04-29T09:12:02Z</time></trkpt><trkpt lat="43.376611220819804" lon="-0.602637612923489"><ele>109.99999999999999</ele><time>2026-04-29T09:12:04.001Z</time></trkpt><trkpt lat="43.37666074267454" lon="-0.6027005655417013"><ele>110.0</ele><time>2026-04-29T09:12:05.001Z</time></trkpt><trkpt lat="43.37671464909746" lon="-0.6027665336195704"><ele>110.0</ele><time>2026-04-29T09:12:06.001Z</time></trkpt><trkpt lat="43.37677460251036" lon="-0.60282913267815"><ele>110.0</ele><time>2026-04-29T09:12:07.001Z</time></trkpt><trkpt lat="43.37683762562647" lon="-0.6028915175843035"><ele>109.99999999999999</ele><time>2026-04-29T09:12:08.001Z</time></trkpt><trkpt lat="43.37690552811938" lon="-0.6029466035264021"><ele>110.0</ele><time>2026-04-29T09:12:09.001Z</time></trkpt><trkpt lat="43.37697776501822" lon="-0.6029892135199115"><ele>109.99999999999999</ele><time>2026-04-29T09:12:10.001Z</time></trkpt><trkpt lat="43.37704680163331" lon="-0.6030276720934546"><ele>110.0</ele><time>2026-04-29T09:12:11.001Z</time></trkpt><trkpt lat="43.37711194953737" lon="-0.60306709667555"><ele>110.0</ele><time>2026-04-29T09:12:12.001Z</time></trkpt><trkpt lat="43.37720457089882" lon="-0.6031134973767351"><ele>110.0</ele><time>2026-04-29T09:12:14.001Z</time></trkpt><trkpt lat="43.37728722277533" lon="-0.6031322395958058"><ele>109.99999999999999</ele><time>2026-04-29T09:12:17.001Z</time></trkpt><trkpt lat="43.37739251698303" lon="-0.6031410452113027"><ele>110.0</ele><time>2026-04-29T09:12:19.001Z</time></trkpt><trkpt lat="43.37750445866322" lon="-0.6032078525315736"><ele>109.99999999999999</ele><time>2026-04-29T09:12:21.001Z</time></trkpt><trkpt lat="43.377570840879095" lon="-0.6033627620362458"><ele>110.0</ele><time>2026-04-29T09:12:23.001Z</time></trkpt><trkpt lat="43.377574346384876" lon="-0.6034638607912661"><ele>110.0</ele><time>2026-04-29T09:12:24.001Z</time></trkpt><trkpt lat="43.377571379552776" lon="-0.603564757979001"><ele>110.0</ele><time>2026-04-29T09:12:25.001Z</time></trkpt><trkpt lat="43.3775683422558" lon="-0.6036690826490049"><ele>109.99999999999999</ele><time>2026-04-29T09:12:26.001Z</time></trkpt><trkpt lat="43.37757137846316" lon="-0.6037741416879465"><ele>110.0</ele><time>2026-04-29T09:12:27.001Z</time></trkpt><trkpt lat="43.37758672986979" lon="-0.6038756295077508"><ele>109.66666666666666</ele><time>2026-04-29T09:12:28.001Z</time></trkpt><trkpt lat="43.37762067313055" lon="-0.603970723059195"><ele>109.33333333333333</ele><time>2026-04-29T09:12:29.001Z</time></trkpt><trkpt lat="43.377670525649954" lon="-0.6040540628773985"><ele>109.0</ele><time>2026-04-29T09:12:30.001Z</time></trkpt><trkpt lat="43.37772924920688" lon="-0.6041257091108437"><ele>108.66666666666666</ele><time>2026-04-29T09:12:31.001Z</time></trkpt><trkpt lat="43.3777885524007" lon="-0.6041956210936501"><ele>108.33333333333333</ele><time>2026-04-29T09:12:32.001Z</time></trkpt><trkpt lat="43.37784798240766" lon="-0.6042704078135537"><ele>108.0</ele><time>2026-04-29T09:12:33.001Z</time></trkpt><trkpt lat="43.377908550176926" lon="-0.6043467104745083"><ele>108.0</ele><time>2026-04-29T09:12:34.001Z</time></trkpt><trkpt lat="43.37796780398695" lon="-0.6044230718959968"><ele>108.0</ele><time>2026-04-29T09:12:35.001Z</time></trkpt><trkpt lat="43.378027067322535" lon="-0.6045017164186235"><ele>108.0</ele><time>2026-04-29T09:12:36.001Z</time></trkpt><trkpt lat="43.37808697815507" lon="-0.6045815462312037"><ele>108.0</ele><time>2026-04-29T09:12:37.001Z</time></trkpt><trkpt lat="43.37814812973404" lon="-0.6046637895828176"><ele>108.0</ele><time>2026-04-29T09:12:38.001Z</time></trkpt><trkpt lat="43.37820793946593" lon="-0.6047497538760567"><ele>108.0</ele><time>2026-04-29T09:12:39.001Z</time></trkpt><trkpt lat="43.37826853696958" lon="-0.6048357322976526"><ele>108.0</ele><time>2026-04-29T09:12:40.001Z</time></trkpt><trkpt lat="43.378329909775644" lon="-0.6049172404811147"><ele>108.0</ele><time>2026-04-29T09:12:41.001Z</time></trkpt><trkpt lat="43.37839248627554" lon="-0.6049984774631495"><ele>108.0</ele><time>2026-04-29T09:12:42.001Z</time></trkpt><trkpt lat="43.37845563272683" lon="-0.6050804663742451"><ele>108.0</ele><time>2026-04-29T09:12:43.001Z</time></trkpt><trkpt lat="43.37852100398525" lon="-0.6051606467668367"><ele>108.0</ele><time>2026-04-29T09:12:44.001Z</time></trkpt><trkpt lat="43.37858535710386" lon="-0.6052457598829781"><ele>108.0</ele><time>2026-04-29T09:12:45.001Z</time></trkpt><trkpt lat="43.378652087833686" lon="-0.6053282179774686"><ele>107.83333333333333</ele><time>2026-04-29T09:12:46.001Z</time></trkpt><trkpt lat="43.37871714841587" lon="-0.6054121566251287"><ele>107.66666666666666</ele><time>2026-04-29T09:12:47.001Z</time></trkpt><trkpt lat="43.378781692430834" lon="-0.6054979246945371"><ele>107.5</ele><time>2026-04-29T09:12:48.001Z</time></trkpt><trkpt lat="43.37884644826121" lon="-0.6055847211009551"><ele>107.33333333333333</ele><time>2026-04-29T09:12:49.001Z</time></trkpt><trkpt lat="43.378908989758706" lon="-0.6056715697064783"><ele>107.16666666666666</ele><time>2026-04-29T09:12:50.001Z</time></trkpt><trkpt lat="43.37897220506031" lon="-0.6057593039052533"><ele>107.0</ele><time>2026-04-29T09:12:51.001Z</time></trkpt><trkpt lat="43.379036225640725" lon="-0.6058486623755522"><ele>106.8</ele><time>2026-04-29T09:12:52.001Z</time></trkpt><trkpt lat="43.379099699826156" lon="-0.6059374856309534"><ele>106.6</ele><time>2026-04-29T09:12:53.001Z</time></trkpt><trkpt lat="43.37916374764708" lon="-0.6060272473870264"><ele>106.39999999999999</ele><time>2026-04-29T09:12:54.001Z</time></trkpt><trkpt lat="43.379227695469986" lon="-0.6061150894498768"><ele>106.19999999999999</ele><time>2026-04-29T09:12:55.001Z</time></trkpt><trkpt lat="43.379290401376956" lon="-0.6062007860252686"><ele>106.0</ele><time>2026-04-29T09:12:56.001Z</time></trkpt><trkpt lat="43.37935483101253" lon="-0.6062885793669771"><ele>106.0</ele><time>2026-04-29T09:12:57.001Z</time></trkpt><trkpt lat="43.379417800480354" lon="-0.606378285407111"><ele>106.0</ele><time>2026-04-29T09:12:58.001Z</time></trkpt><trkpt lat="43.37947975191506" lon="-0.6064672997834984"><ele>106.0</ele><time>2026-04-29T09:12:59.001Z</time></trkpt><trkpt lat="43.37954307324504" lon="-0.606556131616006"><ele>106.0</ele><time>2026-04-29T09:13:00.001Z</time></trkpt><trkpt lat="43.37960425158992" lon="-0.6066494229868756"><ele>106.0</ele><time>2026-04-29T09:13:01.001Z</time></trkpt><trkpt lat="43.37966767398256" lon="-0.6067334072968431"><ele>106.0</ele><time>2026-04-29T09:13:02.001Z</time></trkpt><trkpt lat="43.37972945427954" lon="-0.6068211779582018"><ele>106.0</ele><time>2026-04-29T09:13:03.001Z</time></trkpt><trkpt lat="43.37979326976276" lon="-0.6069066891857156"><ele>106.0</ele><time>2026-04-29T09:13:04.001Z</time></trkpt><trkpt lat="43.379855686025444" lon="-0.6069969663591704"><ele>106.0</ele><time>2026-04-29T09:13:05.001Z</time></trkpt><trkpt lat="43.37991891079117" lon="-0.6070820125443854"><ele>106.0</ele><time>2026-04-29T09:13:06.001Z</time></trkpt><trkpt lat="43.379985186511476" lon="-0.6071752973370544"><ele>106.0</ele><time>2026-04-29T09:13:07.001Z</time></trkpt><trkpt lat="43.380045908170906" lon="-0.6072593437403389"><ele>106.0</ele><time>2026-04-29T09:13:08.001Z</time></trkpt><trkpt lat="43.38010940344049" lon="-0.6073448907578599"><ele>106.0</ele><time>2026-04-29T09:13:09.001Z</time></trkpt><trkpt lat="43.38017330861664" lon="-0.6074355032196265"><ele>106.0</ele><time>2026-04-29T09:13:10.001Z</time></trkpt><trkpt lat="43.38023766703166" lon="-0.6075157528678017"><ele>106.0</ele><time>2026-04-29T09:13:11.001Z</time></trkpt><trkpt lat="43.38030478085724" lon="-0.6076120745443165"><ele>106.0</ele><time>2026-04-29T09:13:12.001Z</time></trkpt><trkpt lat="43.38038015669184" lon="-0.6077024524799445"><ele>106.0</ele><time>2026-04-29T09:13:13.001Z</time></trkpt><trkpt lat="43.38044251075595" lon="-0.6077907543617879"><ele>106.0</ele><time>2026-04-29T09:13:14Z</time></trkpt><trkpt lat="43.38050804049881" lon="-0.6078885806125965"><ele>106.0</ele><time>2026-04-29T09:13:15Z</time></trkpt><trkpt lat="43.38058747976711" lon="-0.6079890337090608"><ele>106.0</ele><time>2026-04-29T09:13:16Z</time></trkpt><trkpt lat="43.38066637948227" lon="-0.6080832181883536"><ele>106.0</ele><time>2026-04-29T09:13:17Z</time></trkpt><trkpt lat="43.38075313054994" lon="-0.6081649230758468"><ele>106.0</ele><time>2026-04-29T09:13:18Z</time></trkpt><trkpt lat="43.38082807060557" lon="-0.6082817722794135"><ele>106.0</ele><time>2026-04-29T09:13:19Z</time></trkpt><trkpt lat="43.38089197200993" lon="-0.6083877452558895"><ele>106.0</ele><time>2026-04-29T09:13:20Z</time></trkpt><trkpt lat="43.38096392942989" lon="-0.6084884563602133"><ele>106.0</ele><time>2026-04-29T09:13:21Z</time></trkpt><trkpt lat="43.38103700299044" lon="-0.6085907293514224"><ele>106.0</ele><time>2026-04-29T09:13:22Z</time></trkpt><trkpt lat="43.3811087170839" lon="-0.6086923580322205"><ele>106.0</ele><time>2026-04-29T09:13:23Z</time></trkpt><trkpt lat="43.38118921410563" lon="-0.6088463308646831"><ele>106.0</ele><time>2026-04-29T09:13:25Z</time></trkpt><trkpt lat="43.38126076283851" lon="-0.6089435961684506"><ele>106.0</ele><time>2026-04-29T09:13:26Z</time></trkpt><trkpt lat="43.381331169849894" lon="-0.6090390901366077"><ele>106.0</ele><time>2026-04-29T09:13:27Z</time></trkpt><trkpt lat="43.38139571253855" lon="-0.6091395250512126"><ele>106.0</ele><time>2026-04-29T09:13:28Z</time></trkpt><trkpt lat="43.38146715574766" lon="-0.6092340802885048"><ele>106.0</ele><time>2026-04-29T09:13:29Z</time></trkpt><trkpt lat="43.38153318498796" lon="-0.6093346873507205"><ele>106.0</ele><time>2026-04-29T09:13:30Z</time></trkpt><trkpt lat="43.38160410267026" lon="-0.6094277683697725"><ele>106.0</ele><time>2026-04-29T09:13:31Z</time></trkpt><trkpt lat="43.38167189382703" lon="-0.609521432819888"><ele>106.0</ele><time>2026-04-29T09:13:32Z</time></trkpt><trkpt lat="43.3817397539165" lon="-0.6096204038924075"><ele>106.0</ele><time>2026-04-29T09:13:33Z</time></trkpt><trkpt lat="43.381812239911035" lon="-0.6097117922437073"><ele>106.0</ele><time>2026-04-29T09:13:34Z</time></trkpt><trkpt lat="43.381886553445796" lon="-0.609802456123253"><ele>106.0</ele><time>2026-04-29T09:13:35Z</time></trkpt><trkpt lat="43.381964083574225" lon="-0.6098809933830303"><ele>106.0</ele><time>2026-04-29T09:13:36Z</time></trkpt><trkpt lat="43.382043727774025" lon="-0.6099576332676374"><ele>106.0</ele><time>2026-04-29T09:13:37Z</time></trkpt><trkpt lat="43.38212345893841" lon="-0.6100269624722071"><ele>105.8</ele><time>2026-04-29T09:13:38Z</time></trkpt><trkpt lat="43.38220417273034" lon="-0.6100954519826101"><ele>105.6</ele><time>2026-04-29T09:13:39Z</time></trkpt><trkpt lat="43.3822860110862" lon="-0.610166396335726"><ele>105.4</ele><time>2026-04-29T09:13:40Z</time></trkpt><trkpt lat="43.3823653313382" lon="-0.6102369733858122"><ele>105.2</ele><time>2026-04-29T09:13:41Z</time></trkpt><trkpt lat="43.38244543120332" lon="-0.6103023054570006"><ele>105.0</ele><time>2026-04-29T09:13:42Z</time></trkpt><trkpt lat="43.382524019167796" lon="-0.6103733812542363"><ele>104.83333333333333</ele><time>2026-04-29T09:13:43Z</time></trkpt><trkpt lat="43.38260279619227" lon="-0.6104426560797445"><ele>104.66666666666666</ele><time>2026-04-29T09:13:44Z</time></trkpt><trkpt lat="43.38268036405172" lon="-0.6105133610532306"><ele>104.5</ele><time>2026-04-29T09:13:45Z</time></trkpt><trkpt lat="43.38275348710435" lon="-0.6105859506480925"><ele>104.33333333333333</ele><time>2026-04-29T09:13:46Z</time></trkpt><trkpt lat="43.382819475280535" lon="-0.6106483698916048"><ele>104.16666666666666</ele><time>2026-04-29T09:13:47Z</time></trkpt><trkpt lat="43.382886393061675" lon="-0.6107068438938759"><ele>104.0</ele><time>2026-04-29T09:13:48Z</time></trkpt><trkpt lat="43.382944263339205" lon="-0.6107661522041683"><ele>103.99999999999999</ele><time>2026-04-29T09:13:49Z</time></trkpt><trkpt lat="43.38300459144572" lon="-0.6108149886611477"><ele>104.0</ele><time>2026-04-29T09:13:50Z</time></trkpt><trkpt lat="43.38306009971144" lon="-0.6108642740833801"><ele>104.0</ele><time>2026-04-29T09:13:51Z</time></trkpt><trkpt lat="43.3831180673599" lon="-0.610904858838836"><ele>104.0</ele><time>2026-04-29T09:13:52Z</time></trkpt><trkpt lat="43.383227382224206" lon="-0.6109456417298766"><ele>103.99999999999999</ele><time>2026-04-29T09:13:54Z</time></trkpt><trkpt lat="43.383296330892776" lon="-0.6109594057916169"><ele>104.0</ele><time>2026-04-29T09:13:55Z</time></trkpt><trkpt lat="43.383370040000166" lon="-0.6109659660440565"><ele>103.71428571428571</ele><time>2026-04-29T09:13:56Z</time></trkpt><trkpt lat="43.38344185640655" lon="-0.6109602234765307"><ele>103.42857142857143</ele><time>2026-04-29T09:13:57Z</time></trkpt><trkpt lat="43.38350686643074" lon="-0.6109629825741769"><ele>103.14285714285714</ele><time>2026-04-29T09:13:58Z</time></trkpt><trkpt lat="43.38357455153118" lon="-0.6110023230427302"><ele>102.85714285714286</ele><time>2026-04-29T09:13:59Z</time></trkpt><trkpt lat="43.383631508045376" lon="-0.6110839303051634"><ele>102.57142857142858</ele><time>2026-04-29T09:14:00Z</time></trkpt><trkpt lat="43.38365867570961" lon="-0.6111684253885317"><ele>102.28571428571429</ele><time>2026-04-29T09:14:01Z</time></trkpt><trkpt lat="43.38365881695212" lon="-0.6112562885487242"><ele>102.0</ele><time>2026-04-29T09:14:02Z</time></trkpt><trkpt lat="43.383606141611644" lon="-0.6114181517809802"><ele>102.57142857142857</ele><time>2026-04-29T09:14:04Z</time></trkpt><trkpt lat="43.38355972794901" lon="-0.6114769106210401"><ele>103.14285714285714</ele><time>2026-04-29T09:14:05Z</time></trkpt><trkpt lat="43.383502820006846" lon="-0.6115192174751243"><ele>103.71428571428572</ele><time>2026-04-29T09:14:06Z</time></trkpt><trkpt lat="43.383438707836575" lon="-0.6115509266804691"><ele>104.28571428571428</ele><time>2026-04-29T09:14:07Z</time></trkpt><trkpt lat="43.38337338825181" lon="-0.6115810548294478"><ele>104.85714285714285</ele><time>2026-04-29T09:14:08Z</time></trkpt><trkpt lat="43.38331179757322" lon="-0.6116294659474886"><ele>105.42857142857143</ele><time>2026-04-29T09:14:09Z</time></trkpt><trkpt lat="43.38326114003703" lon="-0.6117028499313987"><ele>106.0</ele><time>2026-04-29T09:14:10Z</time></trkpt><trkpt lat="43.38321533229387" lon="-0.6117765246588763"><ele>106.0</ele><time>2026-04-29T09:14:11Z</time></trkpt><trkpt lat="43.383175736607484" lon="-0.6118537360639518"><ele>106.0</ele><time>2026-04-29T09:14:12Z</time></trkpt><trkpt lat="43.38313072550981" lon="-0.6119369067464981"><ele>106.0</ele><time>2026-04-29T09:14:13Z</time></trkpt><trkpt lat="43.38308967653348" lon="-0.6120172053171192"><ele>106.0</ele><time>2026-04-29T09:14:14Z</time></trkpt><trkpt lat="43.38304916064517" lon="-0.6121077531663509"><ele>106.0</ele><time>2026-04-29T09:14:15Z</time></trkpt><trkpt lat="43.38300513269726" lon="-0.6121920690805088"><ele>106.0</ele><time>2026-04-29T09:14:16Z</time></trkpt><trkpt lat="43.382959877404055" lon="-0.6122783718613998"><ele>106.0</ele><time>2026-04-29T09:14:17Z</time></trkpt><trkpt lat="43.38291481526702" lon="-0.6123713505704155"><ele>106.00000000000001</ele><time>2026-04-29T09:14:18Z</time></trkpt><trkpt lat="43.3828716023882" lon="-0.6124605369365984"><ele>106.0</ele><time>2026-04-29T09:14:19Z</time></trkpt><trkpt lat="43.38282565842832" lon="-0.6125572211471393"><ele>106.0</ele><time>2026-04-29T09:14:20Z</time></trkpt><trkpt lat="43.38278275239937" lon="-0.6126463929659928"><ele>106.0</ele><time>2026-04-29T09:14:21Z</time></trkpt><trkpt lat="43.38273415956314" lon="-0.6127452645689022"><ele>106.00000000000001</ele><time>2026-04-29T09:14:22Z</time></trkpt><trkpt lat="43.38268704641014" lon="-0.6128381633966021"><ele>106.0</ele><time>2026-04-29T09:14:23Z</time></trkpt><trkpt lat="43.38263788375468" lon="-0.6129290799406919"><ele>106.00000000000001</ele><time>2026-04-29T09:14:24Z</time></trkpt><trkpt lat="43.38259335276175" lon="-0.6130281272103194"><ele>106.0</ele><time>2026-04-29T09:14:25Z</time></trkpt><trkpt lat="43.38255518029618" lon="-0.6131262017911877"><ele>106.0</ele><time>2026-04-29T09:14:26.001Z</time></trkpt><trkpt lat="43.38251067664687" lon="-0.6132247418378607"><ele>106.0</ele><time>2026-04-29T09:14:27.001Z</time></trkpt><trkpt lat="43.382463176052035" lon="-0.6133121713058437"><ele>106.00000000000001</ele><time>2026-04-29T09:14:28.001Z</time></trkpt><trkpt lat="43.38241659982392" lon="-0.6134076044872224"><ele>106.0</ele><time>2026-04-29T09:14:29.001Z</time></trkpt><trkpt lat="43.38236929407113" lon="-0.6134991596836108"><ele>106.00000000000001</ele><time>2026-04-29T09:14:30.001Z</time></trkpt><trkpt lat="43.38232725768861" lon="-0.6135920213283778"><ele>106.0</ele><time>2026-04-29T09:14:31.001Z</time></trkpt><trkpt lat="43.38228068652939" lon="-0.6136848670560192"><ele>106.0</ele><time>2026-04-29T09:14:32.001Z</time></trkpt><trkpt lat="43.382231745021606" lon="-0.6137798745198134"><ele>106.0</ele><time>2026-04-29T09:14:33.001Z</time></trkpt><trkpt lat="43.3821842295692" lon="-0.6138754496439676"><ele>106.00000000000001</ele><time>2026-04-29T09:14:34.001Z</time></trkpt><trkpt lat="43.38213757431216" lon="-0.6139767157223747"><ele>106.0</ele><time>2026-04-29T09:14:35.001Z</time></trkpt><trkpt lat="43.38209058170666" lon="-0.6140730830562425"><ele>106.19999999999999</ele><time>2026-04-29T09:14:36.001Z</time></trkpt><trkpt lat="43.38203559834683" lon="-0.6141760894172472"><ele>106.39999999999999</ele><time>2026-04-29T09:14:37.001Z</time></trkpt><trkpt lat="43.38198292297487" lon="-0.6142730734748654"><ele>106.6</ele><time>2026-04-29T09:14:38.001Z</time></trkpt><trkpt lat="43.38192846070755" lon="-0.6143733198717853"><ele>106.8</ele><time>2026-04-29T09:14:39.001Z</time></trkpt><trkpt lat="43.38187398322891" lon="-0.6144766791253387"><ele>107.0</ele><time>2026-04-29T09:14:40.001Z</time></trkpt><trkpt lat="43.381825227547985" lon="-0.6145862151293262"><ele>107.19999999999999</ele><time>2026-04-29T09:14:41.001Z</time></trkpt><trkpt lat="43.38176824881375" lon="-0.6146911460669202"><ele>107.39999999999999</ele><time>2026-04-29T09:14:42.001Z</time></trkpt><trkpt lat="43.38171429799197" lon="-0.6147991034245329"><ele>107.60000000000001</ele><time>2026-04-29T09:14:43.001Z</time></trkpt><trkpt lat="43.38166057602767" lon="-0.6149064706326464"><ele>107.80000000000001</ele><time>2026-04-29T09:14:44.001Z</time></trkpt><trkpt lat="43.38160758347059" lon="-0.6150153080599151"><ele>108.0</ele><time>2026-04-29T09:14:45.001Z</time></trkpt><trkpt lat="43.38155255135178" lon="-0.6151273676272226"><ele>108.0</ele><time>2026-04-29T09:14:46.001Z</time></trkpt><trkpt lat="43.381497738940006" lon="-0.6152379433859013"><ele>108.00000000000001</ele><time>2026-04-29T09:14:47.001Z</time></trkpt><trkpt lat="43.381443251546784" lon="-0.6153503058042337"><ele>108.00000000000001</ele><time>2026-04-29T09:14:48.001Z</time></trkpt><trkpt lat="43.38138694631922" lon="-0.6154571461314212"><ele>108.0</ele><time>2026-04-29T09:14:49.001Z</time></trkpt><trkpt lat="43.38132999184003" lon="-0.6155670734311127"><ele>108.0</ele><time>2026-04-29T09:14:50.001Z</time></trkpt><trkpt lat="43.381276693136925" lon="-0.6156820421567026"><ele>108.0</ele><time>2026-04-29T09:14:51.001Z</time></trkpt><trkpt lat="43.38122416536349" lon="-0.6157928070847656"><ele>108.00000000000001</ele><time>2026-04-29T09:14:52.001Z</time></trkpt><trkpt lat="43.38117012388606" lon="-0.6159066141511116"><ele>108.00000000000001</ele><time>2026-04-29T09:14:53.001Z</time></trkpt><trkpt lat="43.38111690047271" lon="-0.6160198135400795"><ele>108.0</ele><time>2026-04-29T09:14:54.001Z</time></trkpt><trkpt lat="43.381060287151996" lon="-0.6161280351684721"><ele>108.0</ele><time>2026-04-29T09:14:55.001Z</time></trkpt><trkpt lat="43.38100827887329" lon="-0.6162423788332215"><ele>108.0</ele><time>2026-04-29T09:14:56.001Z</time></trkpt><trkpt lat="43.380953150698694" lon="-0.6163539081418464"><ele>108.00000000000001</ele><time>2026-04-29T09:14:57.001Z</time></trkpt><trkpt lat="43.3808944288769" lon="-0.616465340188108"><ele>108.00000000000001</ele><time>2026-04-29T09:14:58.001Z</time></trkpt><trkpt lat="43.380841390463296" lon="-0.616578008721741"><ele>108.0</ele><time>2026-04-29T09:14:59.001Z</time></trkpt><trkpt lat="43.38078816465605" lon="-0.6166935102197287"><ele>108.0</ele><time>2026-04-29T09:15:00.001Z</time></trkpt><trkpt lat="43.380728799637424" lon="-0.6168076797016996"><ele>108.0</ele><time>2026-04-29T09:15:01.001Z</time></trkpt><trkpt lat="43.38068023029866" lon="-0.6169233220433813"><ele>108.00000000000001</ele><time>2026-04-29T09:15:02.001Z</time></trkpt><trkpt lat="43.38062323375883" lon="-0.6170330280026222"><ele>108.00000000000001</ele><time>2026-04-29T09:15:03.001Z</time></trkpt><trkpt lat="43.380564974087946" lon="-0.6171457497951883"><ele>108.0</ele><time>2026-04-29T09:15:04.001Z</time></trkpt><trkpt lat="43.38049292315206" lon="-0.61729114309108"><ele>108.0</ele><time>2026-04-29T09:15:05.001Z</time></trkpt><trkpt lat="43.38046343197203" lon="-0.6173797676456411"><ele>107.80000000000001</ele><time>2026-04-29T09:15:06.001Z</time></trkpt><trkpt lat="43.38043092150427" lon="-0.6174751636903252"><ele>107.60000000000001</ele><time>2026-04-29T09:15:07.001Z</time></trkpt><trkpt lat="43.38034862846602" lon="-0.6176089299911285"><ele>107.39999999999999</ele><time>2026-04-29T09:15:08.001Z</time></trkpt><trkpt lat="43.380290993560024" lon="-0.6177230008059889"><ele>107.19999999999999</ele><time>2026-04-29T09:15:09.001Z</time></trkpt><trkpt lat="43.38023191653123" lon="-0.6178344180657458"><ele>107.0</ele><time>2026-04-29T09:15:10.001Z</time></trkpt><trkpt lat="43.38017207069383" lon="-0.6179307037615234"><ele>107.0</ele><time>2026-04-29T09:15:11.001Z</time></trkpt><trkpt lat="43.380114116834434" lon="-0.6180501071206254"><ele>106.99999999999999</ele><time>2026-04-29T09:15:12.001Z</time></trkpt><trkpt lat="43.38005867528541" lon="-0.618164435555327"><ele>106.99999999999999</ele><time>2026-04-29T09:15:13.001Z</time></trkpt><trkpt lat="43.38000251954667" lon="-0.6182770008866506"><ele>107.0</ele><time>2026-04-29T09:15:14.001Z</time></trkpt><trkpt lat="43.37995038768427" lon="-0.6183947514658427"><ele>107.0</ele><time>2026-04-29T09:15:15.001Z</time></trkpt><trkpt lat="43.37989631693025" lon="-0.6185072463633646"><ele>107.0</ele><time>2026-04-29T09:15:16.001Z</time></trkpt><trkpt lat="43.37983962241038" lon="-0.6186214974140922"><ele>106.99999999999999</ele><time>2026-04-29T09:15:17.001Z</time></trkpt><trkpt lat="43.37977981470416" lon="-0.6187321276490952"><ele>106.99999999999999</ele><time>2026-04-29T09:15:18.001Z</time></trkpt><trkpt lat="43.37972322761159" lon="-0.618842263253522"><ele>107.0</ele><time>2026-04-29T09:15:19.001Z</time></trkpt><trkpt lat="43.37966272233185" lon="-0.6189517887979621"><ele>107.0</ele><time>2026-04-29T09:15:20Z</time></trkpt><trkpt lat="43.37961031691037" lon="-0.6190631752388885"><ele>107.39999999999999</ele><time>2026-04-29T09:15:21Z</time></trkpt><trkpt lat="43.37955812350381" lon="-0.6191769718664772"><ele>107.79999999999998</ele><time>2026-04-29T09:15:22Z</time></trkpt><trkpt lat="43.37950458025225" lon="-0.6192872947988335"><ele>108.2</ele><time>2026-04-29T09:15:23Z</time></trkpt><trkpt lat="43.37944914837833" lon="-0.6193967740470848"><ele>108.6</ele><time>2026-04-29T09:15:24Z</time></trkpt><trkpt lat="43.3793973197108" lon="-0.6195090748692864"><ele>109.0</ele><time>2026-04-29T09:15:25Z</time></trkpt><trkpt lat="43.37934634834497" lon="-0.6196146857588435"><ele>109.0</ele><time>2026-04-29T09:15:26Z</time></trkpt><trkpt lat="43.37929245722091" lon="-0.6197210068283233"><ele>109.0</ele><time>2026-04-29T09:15:27Z</time></trkpt><trkpt lat="43.37924393725996" lon="-0.6198248831326966"><ele>109.0</ele><time>2026-04-29T09:15:28Z</time></trkpt><trkpt lat="43.3791904279983" lon="-0.6199305311402571"><ele>109.0</ele><time>2026-04-29T09:15:29Z</time></trkpt><trkpt lat="43.379144535108296" lon="-0.6200410784071957"><ele>109.0</ele><time>2026-04-29T09:15:30Z</time></trkpt><trkpt lat="43.37909508798852" lon="-0.620148830587095"><ele>109.0</ele><time>2026-04-29T09:15:31Z</time></trkpt><trkpt lat="43.379043990736285" lon="-0.620255293924352"><ele>109.0</ele><time>2026-04-29T09:15:32Z</time></trkpt><trkpt lat="43.378992381765066" lon="-0.6203634543080998"><ele>109.0</ele><time>2026-04-29T09:15:33Z</time></trkpt><trkpt lat="43.37894334937361" lon="-0.6204705103502076"><ele>109.0</ele><time>2026-04-29T09:15:34Z</time></trkpt><trkpt lat="43.37889060912937" lon="-0.6205740720009316"><ele>109.0</ele><time>2026-04-29T09:15:35Z</time></trkpt><trkpt lat="43.37883862679331" lon="-0.6206730761409258"><ele>108.6</ele><time>2026-04-29T09:15:36Z</time></trkpt><trkpt lat="43.378783724047324" lon="-0.6207736480963674"><ele>108.2</ele><time>2026-04-29T09:15:37Z</time></trkpt><trkpt lat="43.37873106267348" lon="-0.620872220619377"><ele>107.79999999999998</ele><time>2026-04-29T09:15:38Z</time></trkpt><trkpt lat="43.378680932437994" lon="-0.6209725661043239"><ele>107.39999999999999</ele><time>2026-04-29T09:15:39Z</time></trkpt><trkpt lat="43.37862612899705" lon="-0.6210775265568381"><ele>107.0</ele><time>2026-04-29T09:15:40Z</time></trkpt><trkpt lat="43.37856658541963" lon="-0.6211732249177293"><ele>106.99999999999999</ele><time>2026-04-29T09:15:41Z</time></trkpt><trkpt lat="43.37850541018729" lon="-0.6212664658859893"><ele>107.0</ele><time>2026-04-29T09:15:42Z</time></trkpt><trkpt lat="43.3784432230714" lon="-0.6213501413050149"><ele>107.0</ele><time>2026-04-29T09:15:43Z</time></trkpt><trkpt lat="43.378377622952236" lon="-0.6214293560146372"><ele>107.0</ele><time>2026-04-29T09:15:44Z</time></trkpt><trkpt lat="43.378314529834654" lon="-0.6215077224213081"><ele>106.99999999999999</ele><time>2026-04-29T09:15:45Z</time></trkpt><trkpt lat="43.378244851379485" lon="-0.6215788776123202"><ele>107.0</ele><time>2026-04-29T09:15:46Z</time></trkpt><trkpt lat="43.37817780606458" lon="-0.6216479538456134"><ele>106.99999999999999</ele><time>2026-04-29T09:15:47Z</time></trkpt><trkpt lat="43.378106136020506" lon="-0.6217147346437539"><ele>107.0</ele><time>2026-04-29T09:15:48Z</time></trkpt><trkpt lat="43.37803490046884" lon="-0.6217719631933117"><ele>107.0</ele><time>2026-04-29T09:15:49Z</time></trkpt><trkpt lat="43.37796554286272" lon="-0.6218322009689929"><ele>107.0</ele><time>2026-04-29T09:15:50Z</time></trkpt><trkpt lat="43.37789702755029" lon="-0.6218895219120428"><ele>106.99999999999999</ele><time>2026-04-29T09:15:51Z</time></trkpt><trkpt lat="43.37783246111578" lon="-0.6219406307768699"><ele>107.0</ele><time>2026-04-29T09:15:52Z</time></trkpt><trkpt lat="43.37776738273152" lon="-0.6219939334796664"><ele>107.71428571428572</ele><time>2026-04-29T09:15:53Z</time></trkpt><trkpt lat="43.377702118249296" lon="-0.6220416923034313"><ele>108.42857142857143</ele><time>2026-04-29T09:15:54Z</time></trkpt><trkpt lat="43.37764064698828" lon="-0.6220913235500604"><ele>109.14285714285714</ele><time>2026-04-29T09:15:55Z</time></trkpt><trkpt lat="43.377584725639615" lon="-0.62215612218676"><ele>109.85714285714286</ele><time>2026-04-29T09:15:56Z</time></trkpt><trkpt lat="43.37754458957346" lon="-0.6222360541686527"><ele>110.57142857142857</ele><time>2026-04-29T09:15:57Z</time></trkpt><trkpt lat="43.37750473558601" lon="-0.6223294966732874"><ele>111.28571428571429</ele><time>2026-04-29T09:15:58Z</time></trkpt><trkpt lat="43.3774584911763" lon="-0.6223974087607769"><ele>112.0</ele><time>2026-04-29T09:15:59Z</time></trkpt><trkpt lat="43.377394851922624" lon="-0.622451993571557"><ele>112.00000000000001</ele><time>2026-04-29T09:16:00Z</time></trkpt><trkpt lat="43.37733353955526" lon="-0.6225147368556789"><ele>112.0</ele><time>2026-04-29T09:16:01Z</time></trkpt><trkpt lat="43.37724038198043" lon="-0.6225011481022916"><ele>112.0</ele><time>2026-04-29T09:16:02Z</time></trkpt><trkpt lat="43.377165231440486" lon="-0.622489395892135"><ele>112.0</ele><time>2026-04-29T09:16:03Z</time></trkpt><trkpt lat="43.37709003739576" lon="-0.6224857735284703"><ele>112.00000000000001</ele><time>2026-04-29T09:16:04Z</time></trkpt><trkpt lat="43.37700266463577" lon="-0.62249491158248"><ele>112.0</ele><time>2026-04-29T09:16:05Z</time></trkpt><trkpt lat="43.37692421153911" lon="-0.6225083097109089"><ele>111.66666666666667</ele><time>2026-04-29T09:16:06Z</time></trkpt><trkpt lat="43.37684298448736" lon="-0.6225278342818117"><ele>111.33333333333334</ele><time>2026-04-29T09:16:07Z</time></trkpt><trkpt lat="43.3767589023083" lon="-0.6225473473619269"><ele>111.0</ele><time>2026-04-29T09:16:08Z</time></trkpt><trkpt lat="43.376673885304115" lon="-0.6225663112996632"><ele>110.66666666666666</ele><time>2026-04-29T09:16:09Z</time></trkpt><trkpt lat="43.376587658788104" lon="-0.6225822575408274"><ele>110.33333333333333</ele><time>2026-04-29T09:16:10Z</time></trkpt><trkpt lat="43.376501254836136" lon="-0.6226032884460861"><ele>110.0</ele><time>2026-04-29T09:16:11Z</time></trkpt><trkpt lat="43.37641385168424" lon="-0.6226259057394323"><ele>111.2</ele><time>2026-04-29T09:16:12Z</time></trkpt><trkpt lat="43.37632454634881" lon="-0.6226519613842597"><ele>112.4</ele><time>2026-04-29T09:16:13Z</time></trkpt><trkpt lat="43.37623375705082" lon="-0.6226838120397283"><ele>113.6</ele><time>2026-04-29T09:16:14Z</time></trkpt><trkpt lat="43.37614632281947" lon="-0.6227185945794891"><ele>114.8</ele><time>2026-04-29T09:16:15Z</time></trkpt><trkpt lat="43.37605942463511" lon="-0.622756984261879"><ele>116.0</ele><time>2026-04-29T09:16:16Z</time></trkpt><trkpt lat="43.375969532241875" lon="-0.6227973914227724"><ele>114.0</ele><time>2026-04-29T09:16:17Z</time></trkpt><trkpt lat="43.37588166442136" lon="-0.6228448239804592"><ele>112.0</ele><time>2026-04-29T09:16:18Z</time></trkpt><trkpt lat="43.37579602138276" lon="-0.6228942524535294"><ele>110.0</ele><time>2026-04-29T09:16:19Z</time></trkpt><trkpt lat="43.37571352311429" lon="-0.6229428529143505"><ele>108.0</ele><time>2026-04-29T09:16:20Z</time></trkpt><trkpt lat="43.37563311614856" lon="-0.6229947688531013"><ele>106.0</ele><time>2026-04-29T09:16:21Z</time></trkpt><trkpt lat="43.375556353413735" lon="-0.6230482536074254"><ele>106.66666666666667</ele><time>2026-04-29T09:16:22Z</time></trkpt><trkpt lat="43.37547949407923" lon="-0.6231064929354779"><ele>107.33333333333334</ele><time>2026-04-29T09:16:23Z</time></trkpt><trkpt lat="43.37540390419444" lon="-0.6231692267347346"><ele>108.0</ele><time>2026-04-29T09:16:24Z</time></trkpt><trkpt lat="43.37532738010935" lon="-0.6232355102433014"><ele>108.66666666666666</ele><time>2026-04-29T09:16:25Z</time></trkpt><trkpt lat="43.37525218264052" lon="-0.6232934807413981"><ele>109.33333333333333</ele><time>2026-04-29T09:16:26Z</time></trkpt><trkpt lat="43.37517471224965" lon="-0.6233521828103902"><ele>110.0</ele><time>2026-04-29T09:16:27Z</time></trkpt><trkpt lat="43.375095128745414" lon="-0.623407501330603"><ele>109.99999999999999</ele><time>2026-04-29T09:16:28Z</time></trkpt><trkpt lat="43.375014397433695" lon="-0.6234583778051341"><ele>110.0</ele><time>2026-04-29T09:16:29Z</time></trkpt><trkpt lat="43.37493263634675" lon="-0.6235093543430966"><ele>110.0</ele><time>2026-04-29T09:16:30Z</time></trkpt><trkpt lat="43.37485155963747" lon="-0.623564278459505"><ele>110.0</ele><time>2026-04-29T09:16:31Z</time></trkpt><trkpt lat="43.37477260381377" lon="-0.6236159419438043"><ele>109.99999999999999</ele><time>2026-04-29T09:16:32Z</time></trkpt><trkpt lat="43.374696287745444" lon="-0.6236702037222092"><ele>110.0</ele><time>2026-04-29T09:16:33.001Z</time></trkpt><trkpt lat="43.3746233791189" lon="-0.6237202948304863"><ele>109.71428571428571</ele><time>2026-04-29T09:16:34.001Z</time></trkpt><trkpt lat="43.374555063677455" lon="-0.6237677612991659"><ele>109.42857142857143</ele><time>2026-04-29T09:16:35.001Z</time></trkpt><trkpt lat="43.37449091697273" lon="-0.6238115841549322"><ele>109.14285714285714</ele><time>2026-04-29T09:16:36.001Z</time></trkpt><trkpt lat="43.374430336830805" lon="-0.6238573436941727"><ele>108.85714285714286</ele><time>2026-04-29T09:16:37.001Z</time></trkpt><trkpt lat="43.374373259066154" lon="-0.6239027394606913"><ele>108.57142857142857</ele><time>2026-04-29T09:16:38.001Z</time></trkpt><trkpt lat="43.37431545546315" lon="-0.6239511982813288"><ele>108.28571428571428</ele><time>2026-04-29T09:16:39.001Z</time></trkpt><trkpt lat="43.37426158782157" lon="-0.6240055014357364"><ele>108.0</ele><time>2026-04-29T09:16:40.001Z</time></trkpt><trkpt lat="43.374219669649705" lon="-0.6240846660537894"><ele>108.0</ele><time>2026-04-29T09:16:41.001Z</time></trkpt><trkpt lat="43.374181493090774" lon="-0.624169565622205"><ele>108.0</ele><time>2026-04-29T09:16:42.001Z</time></trkpt><trkpt lat="43.37413039378931" lon="-0.6242486581534747"><ele>108.0</ele><time>2026-04-29T09:16:43.001Z</time></trkpt><trkpt lat="43.374081487575125" lon="-0.6243304971102461"><ele>108.0</ele><time>2026-04-29T09:16:44.001Z</time></trkpt><trkpt lat="43.37398865058317" lon="-0.6243371186747108"><ele>108.0</ele><time>2026-04-29T09:16:45.001Z</time></trkpt><trkpt lat="43.373912128436274" lon="-0.6243652315508595"><ele>108.0</ele><time>2026-04-29T09:16:46.001Z</time></trkpt><trkpt lat="43.37383575703887" lon="-0.6243918288277356"><ele>108.0</ele><time>2026-04-29T09:16:47.001Z</time></trkpt><trkpt lat="43.37376363601326" lon="-0.6244363493163546"><ele>108.0</ele><time>2026-04-29T09:16:48.001Z</time></trkpt><trkpt lat="43.373694791436066" lon="-0.6244866497860322"><ele>108.0</ele><time>2026-04-29T09:16:49.001Z</time></trkpt><trkpt lat="43.37362802055983" lon="-0.6245416795341356"><ele>108.0</ele><time>2026-04-29T09:16:50.001Z</time></trkpt><trkpt lat="43.373562372079725" lon="-0.6245948564634657"><ele>108.0</ele><time>2026-04-29T09:16:51.001Z</time></trkpt><trkpt lat="43.3734967401856" lon="-0.6246493450148566"><ele>108.0</ele><time>2026-04-29T09:16:52.001Z</time></trkpt><trkpt lat="43.37342966300456" lon="-0.6246990986636587"><ele>107.66666666666667</ele><time>2026-04-29T09:16:53.001Z</time></trkpt><trkpt lat="43.37336420082244" lon="-0.6247491747503183"><ele>107.33333333333334</ele><time>2026-04-29T09:16:54.001Z</time></trkpt><trkpt lat="43.37329701077655" lon="-0.6248009498318194"><ele>107.0</ele><time>2026-04-29T09:16:55.001Z</time></trkpt><trkpt lat="43.37323081160067" lon="-0.6248605828868025"><ele>106.66666666666667</ele><time>2026-04-29T09:16:56.001Z</time></trkpt><trkpt lat="43.3731677513761" lon="-0.6249320245119819"><ele>106.33333333333334</ele><time>2026-04-29T09:16:57.001Z</time></trkpt><trkpt lat="43.37310716593096" lon="-0.6250096751600683"><ele>106.0</ele><time>2026-04-29T09:16:58.001Z</time></trkpt><trkpt lat="43.37305447183971" lon="-0.6250893008502599"><ele>106.66666666666667</ele><time>2026-04-29T09:16:59.001Z</time></trkpt><trkpt lat="43.373009645888025" lon="-0.6251717812679969"><ele>107.33333333333334</ele><time>2026-04-29T09:17:00.001Z</time></trkpt><trkpt lat="43.37297531722253" lon="-0.6252486560786953"><ele>108.0</ele><time>2026-04-29T09:17:01.001Z</time></trkpt><trkpt lat="43.37293650071073" lon="-0.6253784495904686"><ele>108.66666666666666</ele><time>2026-04-29T09:17:03.001Z</time></trkpt><trkpt lat="43.372902749715294" lon="-0.6255250224337573"><ele>109.33333333333333</ele><time>2026-04-29T09:17:05.001Z</time></trkpt><trkpt lat="43.372885529970965" lon="-0.6256102942717481"><ele>110.0</ele><time>2026-04-29T09:17:06.001Z</time></trkpt><trkpt lat="43.37281257846319" lon="-0.6257563189365356"><ele>110.0</ele><time>2026-04-29T09:17:08.001Z</time></trkpt><trkpt lat="43.37273564163764" lon="-0.6258390528019971"><ele>110.0</ele><time>2026-04-29T09:17:10.001Z</time></trkpt><trkpt lat="43.37265566234854" lon="-0.6258397804385142"><ele>110.0</ele><time>2026-04-29T09:17:12.001Z</time></trkpt><trkpt lat="43.372635571424695" lon="-0.6259776526490775"><ele>110.0</ele><time>2026-04-29T09:17:13.001Z</time></trkpt><trkpt lat="43.37257193664831" lon="-0.626116235079083"><ele>110.0</ele><time>2026-04-29T09:17:15.001Z</time></trkpt><trkpt lat="43.37253356211271" lon="-0.6261876066149084"><ele>111.49999999999999</ele><time>2026-04-29T09:17:16.001Z</time></trkpt><trkpt lat="43.372495584587575" lon="-0.6262688435990754"><ele>113.0</ele><time>2026-04-29T09:17:17.001Z</time></trkpt><trkpt lat="43.37246112859533" lon="-0.6263527027126565"><ele>114.5</ele><time>2026-04-29T09:17:18.001Z</time></trkpt><trkpt lat="43.37242547153759" lon="-0.6264320819676906"><ele>116.0</ele><time>2026-04-29T09:17:19.001Z</time></trkpt><trkpt lat="43.37239166435345" lon="-0.6265067334292975"><ele>117.49999999999999</ele><time>2026-04-29T09:17:20.001Z</time></trkpt><trkpt lat="43.3723266127029" lon="-0.6266425834435592"><ele>119.0</ele><time>2026-04-29T09:17:22.001Z</time></trkpt><trkpt lat="43.372265879732865" lon="-0.6267761366779186"><ele>119.0</ele><time>2026-04-29T09:17:24.001Z</time></trkpt><trkpt lat="43.372205169708174" lon="-0.6269188322364375"><ele>119.0</ele><time>2026-04-29T09:17:26Z</time></trkpt><trkpt lat="43.37219639776651" lon="-0.6270868525727611"><ele>119.0</ele><time>2026-04-29T09:17:28Z</time></trkpt><trkpt lat="43.37223099916402" lon="-0.6272494844589699"><ele>119.0</ele><time>2026-04-29T09:17:30Z</time></trkpt><trkpt lat="43.37225820939415" lon="-0.6273301046832427"><ele>119.0</ele><time>2026-04-29T09:17:31Z</time></trkpt><trkpt lat="43.372288518402115" lon="-0.6274138060355967"><ele>119.42857142857143</ele><time>2026-04-29T09:17:32Z</time></trkpt><trkpt lat="43.37232265509568" lon="-0.6274984722793292"><ele>119.85714285714286</ele><time>2026-04-29T09:17:33Z</time></trkpt><trkpt lat="43.372361390773975" lon="-0.6275785509992993"><ele>120.28571428571428</ele><time>2026-04-29T09:17:34Z</time></trkpt><trkpt lat="43.37240199012505" lon="-0.6276590823990708"><ele>120.71428571428571</ele><time>2026-04-29T09:17:35Z</time></trkpt><trkpt lat="43.372441598728116" lon="-0.627743818250752"><ele>121.14285714285714</ele><time>2026-04-29T09:17:36Z</time></trkpt><trkpt lat="43.37248108871167" lon="-0.6278261004759303"><ele>121.57142857142856</ele><time>2026-04-29T09:17:37Z</time></trkpt><trkpt lat="43.372519014616095" lon="-0.6279092848294071"><ele>121.99999999999999</ele><time>2026-04-29T09:17:38Z</time></trkpt><trkpt lat="43.3725578689337" lon="-0.6279947939622529"><ele>122.28571428571428</ele><time>2026-04-29T09:17:39Z</time></trkpt><trkpt lat="43.372599504372275" lon="-0.6280813415040524"><ele>122.57142857142857</ele><time>2026-04-29T09:17:40Z</time></trkpt><trkpt lat="43.372639823781554" lon="-0.628171429282263"><ele>122.85714285714286</ele><time>2026-04-29T09:17:41Z</time></trkpt><trkpt lat="43.37266565119056" lon="-0.6282675023526336"><ele>123.14285714285714</ele><time>2026-04-29T09:17:42Z</time></trkpt><trkpt lat="43.37268161847231" lon="-0.6283655777759949"><ele>123.42857142857144</ele><time>2026-04-29T09:17:43Z</time></trkpt><trkpt lat="43.37268959181059" lon="-0.6284645506809243"><ele>123.71428571428572</ele><time>2026-04-29T09:17:44Z</time></trkpt><trkpt lat="43.372691427884575" lon="-0.6285631380420703"><ele>124.0</ele><time>2026-04-29T09:17:45Z</time></trkpt><trkpt lat="43.37267787507131" lon="-0.6286605460098295"><ele>124.0</ele><time>2026-04-29T09:17:46Z</time></trkpt><trkpt lat="43.37266114075708" lon="-0.6287473752540554"><ele>124.00000000000001</ele><time>2026-04-29T09:17:47Z</time></trkpt><trkpt lat="43.37263936851581" lon="-0.6288376431175622"><ele>124.0</ele><time>2026-04-29T09:17:48Z</time></trkpt><trkpt lat="43.37261607431168" lon="-0.6289273769037492"><ele>124.0</ele><time>2026-04-29T09:17:49Z</time></trkpt><trkpt lat="43.37259221077998" lon="-0.6290191035990355"><ele>124.00000000000001</ele><time>2026-04-29T09:17:50Z</time></trkpt><trkpt lat="43.37256820982591" lon="-0.6291132717394298"><ele>124.0</ele><time>2026-04-29T09:17:51Z</time></trkpt><trkpt lat="43.372544407695514" lon="-0.6292105810646218"><ele>124.0</ele><time>2026-04-29T09:17:52Z</time></trkpt><trkpt lat="43.37252118022775" lon="-0.6293071481499826"><ele>124.00000000000001</ele><time>2026-04-29T09:17:53Z</time></trkpt><trkpt lat="43.372496456284665" lon="-0.6294075731777855"><ele>124.0</ele><time>2026-04-29T09:17:54Z</time></trkpt><trkpt lat="43.372468375315584" lon="-0.6295065586505116"><ele>124.0</ele><time>2026-04-29T09:17:55Z</time></trkpt><trkpt lat="43.372430255485625" lon="-0.6296026706909332"><ele>124.0</ele><time>2026-04-29T09:17:56Z</time></trkpt><trkpt lat="43.37238617680238" lon="-0.6296952518657528"><ele>124.00000000000001</ele><time>2026-04-29T09:17:57Z</time></trkpt><trkpt lat="43.37234068326047" lon="-0.629783577682537"><ele>124.0</ele><time>2026-04-29T09:17:58Z</time></trkpt><trkpt lat="43.372291251217305" lon="-0.6298702417515191"><ele>124.00000000000001</ele><time>2026-04-29T09:17:59Z</time></trkpt><trkpt lat="43.37224009252933" lon="-0.6299477520690877"><ele>124.0</ele><time>2026-04-29T09:18:00Z</time></trkpt><trkpt lat="43.37218574590152" lon="-0.6300264744745415"><ele>124.0</ele><time>2026-04-29T09:18:01Z</time></trkpt><trkpt lat="43.372132689342756" lon="-0.6301035151106907"><ele>124.0</ele><time>2026-04-29T09:18:02Z</time></trkpt><trkpt lat="43.372078910461155" lon="-0.6301832019332511"><ele>124.00000000000001</ele><time>2026-04-29T09:18:03Z</time></trkpt><trkpt lat="43.3720296432329" lon="-0.6302649940647965"><ele>124.0</ele><time>2026-04-29T09:18:04Z</time></trkpt><trkpt lat="43.37198054830178" lon="-0.6303500754573702"><ele>124.16666666666667</ele><time>2026-04-29T09:18:05Z</time></trkpt><trkpt lat="43.371932450788684" lon="-0.6304313933332072"><ele>124.33333333333334</ele><time>2026-04-29T09:18:06Z</time></trkpt><trkpt lat="43.371885966775764" lon="-0.630511675178191"><ele>124.5</ele><time>2026-04-29T09:18:07Z</time></trkpt><trkpt lat="43.37183674327854" lon="-0.630592784728114"><ele>124.66666666666666</ele><time>2026-04-29T09:18:08Z</time></trkpt><trkpt lat="43.37178959963027" lon="-0.6306714790839345"><ele>124.83333333333333</ele><time>2026-04-29T09:18:09Z</time></trkpt><trkpt lat="43.371739673516245" lon="-0.6307535749466724"><ele>125.0</ele><time>2026-04-29T09:18:10Z</time></trkpt><trkpt lat="43.37168501107452" lon="-0.6308363624811764"><ele>125.0</ele><time>2026-04-29T09:18:11Z</time></trkpt><trkpt lat="43.37163576242975" lon="-0.6309173499777389"><ele>125.0</ele><time>2026-04-29T09:18:12Z</time></trkpt><trkpt lat="43.3715880135545" lon="-0.630999306900359"><ele>125.0</ele><time>2026-04-29T09:18:13Z</time></trkpt><trkpt lat="43.37154138198774" lon="-0.6310773944026744"><ele>125.0</ele><time>2026-04-29T09:18:14Z</time></trkpt><trkpt lat="43.37149522470211" lon="-0.6311513433544821"><ele>125.0</ele><time>2026-04-29T09:18:15Z</time></trkpt><trkpt lat="43.371449767237294" lon="-0.6312219373267529"><ele>125.0</ele><time>2026-04-29T09:18:16Z</time></trkpt><trkpt lat="43.37140632163874" lon="-0.6312957132979001"><ele>125.0</ele><time>2026-04-29T09:18:17Z</time></trkpt><trkpt lat="43.37136938698856" lon="-0.6313722021445642"><ele>125.66666666666666</ele><time>2026-04-29T09:18:18Z</time></trkpt><trkpt lat="43.37135144795892" lon="-0.6314571985946319"><ele>126.33333333333333</ele><time>2026-04-29T09:18:19Z</time></trkpt><trkpt lat="43.37135172333574" lon="-0.6315468366237691"><ele>127.0</ele><time>2026-04-29T09:18:20Z</time></trkpt><trkpt lat="43.37140540632321" lon="-0.6316985754068091"><ele>127.66666666666666</ele><time>2026-04-29T09:18:22Z</time></trkpt><trkpt lat="43.37144379741117" lon="-0.6317693769551084"><ele>128.33333333333334</ele><time>2026-04-29T09:18:23Z</time></trkpt><trkpt lat="43.37149078644064" lon="-0.6318376877905383"><ele>129.0</ele><time>2026-04-29T09:18:24Z</time></trkpt><trkpt lat="43.37153462303103" lon="-0.6319127618019609"><ele>129.0</ele><time>2026-04-29T09:18:25Z</time></trkpt><trkpt lat="43.37157896712056" lon="-0.6319919590150865"><ele>129.0</ele><time>2026-04-29T09:18:26Z</time></trkpt><trkpt lat="43.37162500430958" lon="-0.6320745452204719"><ele>129.0</ele><time>2026-04-29T09:18:27Z</time></trkpt><trkpt lat="43.371686535710204" lon="-0.6321348913473868"><ele>129.0</ele><time>2026-04-29T09:18:28Z</time></trkpt><trkpt lat="43.371735487504516" lon="-0.6322053392669708"><ele>129.0</ele><time>2026-04-29T09:18:29Z</time></trkpt><trkpt lat="43.371768678389834" lon="-0.6322851736908706"><ele>129.0</ele><time>2026-04-29T09:18:30Z</time></trkpt><trkpt lat="43.37184797962641" lon="-0.632391266365645"><ele>129.0</ele><time>2026-04-29T09:18:32.001Z</time></trkpt><trkpt lat="43.37191320695343" lon="-0.6324750934093284"><ele>129.0</ele><time>2026-04-29T09:18:34.001Z</time></trkpt><trkpt lat="43.37196411184115" lon="-0.6325545984073745"><ele>129.0</ele><time>2026-04-29T09:18:36.001Z</time></trkpt><trkpt lat="43.37202532983741" lon="-0.6326147585210649"><ele>129.0</ele><time>2026-04-29T09:18:38.001Z</time></trkpt><trkpt lat="43.37194374967325" lon="-0.6327626772090635"><ele>129.0</ele><time>2026-04-29T09:18:40.001Z</time></trkpt><trkpt lat="43.371862341196874" lon="-0.6328742481599704"><ele>129.66666666666666</ele><time>2026-04-29T09:18:42.001Z</time></trkpt><trkpt lat="43.37177510291892" lon="-0.6329834315133444"><ele>130.33333333333334</ele><time>2026-04-29T09:18:44.001Z</time></trkpt><trkpt lat="43.37166881048099" lon="-0.6330713408203528"><ele>131.0</ele><time>2026-04-29T09:18:46.001Z</time></trkpt><trkpt lat="43.371603051664856" lon="-0.6330844855771464"><ele>131.66666666666669</ele><time>2026-04-29T09:18:47.001Z</time></trkpt><trkpt lat="43.3715353047773" lon="-0.6330733670467072"><ele>132.33333333333334</ele><time>2026-04-29T09:18:48.001Z</time></trkpt><trkpt lat="43.37147458124481" lon="-0.6330356811070768"><ele>133.0</ele><time>2026-04-29T09:18:49.001Z</time></trkpt><trkpt lat="43.37141242348528" lon="-0.6330078320511323"><ele>134.14285714285714</ele><time>2026-04-29T09:18:50.001Z</time></trkpt><trkpt lat="43.37135017054291" lon="-0.6329785584082848"><ele>135.28571428571428</ele><time>2026-04-29T09:18:51.001Z</time></trkpt><trkpt lat="43.3712841127276" lon="-0.6329487747449952"><ele>136.42857142857144</ele><time>2026-04-29T09:18:52.001Z</time></trkpt><trkpt lat="43.37121930957042" lon="-0.6329238384881389"><ele>137.57142857142856</ele><time>2026-04-29T09:18:53.001Z</time></trkpt><trkpt lat="43.3711452755871" lon="-0.6328997434581667"><ele>138.71428571428572</ele><time>2026-04-29T09:18:54.001Z</time></trkpt><trkpt lat="43.371069257298046" lon="-0.6328909446222196"><ele>139.85714285714286</ele><time>2026-04-29T09:18:55.001Z</time></trkpt><trkpt lat="43.370991668111934" lon="-0.63288533718942"><ele>141.0</ele><time>2026-04-29T09:18:56.001Z</time></trkpt><trkpt lat="43.370912365131495" lon="-0.6328929492644173"><ele>141.0</ele><time>2026-04-29T09:18:57.001Z</time></trkpt><trkpt lat="43.37083050005947" lon="-0.6329079197380555"><ele>141.0</ele><time>2026-04-29T09:18:58.001Z</time></trkpt><trkpt lat="43.370749159002635" lon="-0.6329277846027215"><ele>141.0</ele><time>2026-04-29T09:18:59.001Z</time></trkpt><trkpt lat="43.370669510947714" lon="-0.6329570063325468"><ele>141.0</ele><time>2026-04-29T09:19:00.001Z</time></trkpt><trkpt lat="43.3705918078799" lon="-0.6329952624381635"><ele>141.0</ele><time>2026-04-29T09:19:01.001Z</time></trkpt><trkpt lat="43.370514034316855" lon="-0.6330406899990993"><ele>141.0</ele><time>2026-04-29T09:19:02.001Z</time></trkpt><trkpt lat="43.3704379756474" lon="-0.6330921767302672"><ele>142.16666666666666</ele><time>2026-04-29T09:19:03.001Z</time></trkpt><trkpt lat="43.370361434515175" lon="-0.6331464808432754"><ele>143.33333333333334</ele><time>2026-04-29T09:19:04.001Z</time></trkpt><trkpt lat="43.37028617760459" lon="-0.6332033926475189"><ele>144.5</ele><time>2026-04-29T09:19:05.001Z</time></trkpt><trkpt lat="43.37020972627559" lon="-0.633259124364638"><ele>145.66666666666669</ele><time>2026-04-29T09:19:06.001Z</time></trkpt><trkpt lat="43.370131716700584" lon="-0.6333136901168919"><ele>146.83333333333334</ele><time>2026-04-29T09:19:07.001Z</time></trkpt><trkpt lat="43.37005207568968" lon="-0.6333616103358771"><ele>148.0</ele><time>2026-04-29T09:19:08.001Z</time></trkpt><trkpt lat="43.369973007830275" lon="-0.6334080492597544"><ele>148.0</ele><time>2026-04-29T09:19:09.001Z</time></trkpt><trkpt lat="43.369893572990904" lon="-0.6334528754548673"><ele>148.0</ele><time>2026-04-29T09:19:10.001Z</time></trkpt><trkpt lat="43.369815531722324" lon="-0.633500396971059"><ele>148.0</ele><time>2026-04-29T09:19:11.001Z</time></trkpt><trkpt lat="43.36973878382613" lon="-0.633546368933852"><ele>148.0</ele><time>2026-04-29T09:19:12.001Z</time></trkpt><trkpt lat="43.369664188631845" lon="-0.6336045758538146"><ele>148.0</ele><time>2026-04-29T09:19:13.001Z</time></trkpt><trkpt lat="43.36959204843935" lon="-0.6336624998870615"><ele>148.0</ele><time>2026-04-29T09:19:14.001Z</time></trkpt><trkpt lat="43.36952521095609" lon="-0.6337307105795674"><ele>148.5</ele><time>2026-04-29T09:19:15.001Z</time></trkpt><trkpt lat="43.36946124405089" lon="-0.6338031196153876"><ele>149.0</ele><time>2026-04-29T09:19:16.001Z</time></trkpt><trkpt lat="43.369400594954115" lon="-0.6338818988287478"><ele>149.5</ele><time>2026-04-29T09:19:17.001Z</time></trkpt><trkpt lat="43.36934162734424" lon="-0.6339613446965268"><ele>150.0</ele><time>2026-04-29T09:19:18.001Z</time></trkpt><trkpt lat="43.36928406410091" lon="-0.6340391631716511"><ele>150.5</ele><time>2026-04-29T09:19:19.001Z</time></trkpt><trkpt lat="43.36922580101862" lon="-0.6341159369942515"><ele>151.0</ele><time>2026-04-29T09:19:20.001Z</time></trkpt><trkpt lat="43.36916566555037" lon="-0.6341968221149438"><ele>151.0</ele><time>2026-04-29T09:19:21.001Z</time></trkpt><trkpt lat="43.369104537783315" lon="-0.634284529625547"><ele>151.0</ele><time>2026-04-29T09:19:22.001Z</time></trkpt><trkpt lat="43.369040141718635" lon="-0.6343759718315893"><ele>151.0</ele><time>2026-04-29T09:19:23.001Z</time></trkpt><trkpt lat="43.368975448023136" lon="-0.6344705396890076"><ele>151.0</ele><time>2026-04-29T09:19:24.001Z</time></trkpt><trkpt lat="43.3689111891847" lon="-0.6345648891804558"><ele>151.0</ele><time>2026-04-29T09:19:25.001Z</time></trkpt><trkpt lat="43.36883885196887" lon="-0.6346577029885402"><ele>149.6</ele><time>2026-04-29T09:19:26.001Z</time></trkpt><trkpt lat="43.368755469680366" lon="-0.6347321194317169"><ele>148.2</ele><time>2026-04-29T09:19:27.001Z</time></trkpt><trkpt lat="43.368669083858144" lon="-0.6347983927759038"><ele>146.8</ele><time>2026-04-29T09:19:28.001Z</time></trkpt><trkpt lat="43.36858038223979" lon="-0.6348525246041203"><ele>145.4</ele><time>2026-04-29T09:19:29.001Z</time></trkpt><trkpt lat="43.36848571082642" lon="-0.6348897524936856"><ele>144.0</ele><time>2026-04-29T09:19:30.001Z</time></trkpt><trkpt lat="43.36838845481075" lon="-0.6349215974278855"><ele>144.0</ele><time>2026-04-29T09:19:31.001Z</time></trkpt><trkpt lat="43.36829112537915" lon="-0.6349494937223706"><ele>144.0</ele><time>2026-04-29T09:19:32Z</time></trkpt><trkpt lat="43.36819198399814" lon="-0.6349703763711185"><ele>144.0</ele><time>2026-04-29T09:19:33Z</time></trkpt><trkpt lat="43.368093847711556" lon="-0.6349802242042718"><ele>144.0</ele><time>2026-04-29T09:19:34Z</time></trkpt><trkpt lat="43.367995461509906" lon="-0.63498655963287"><ele>144.0</ele><time>2026-04-29T09:19:35Z</time></trkpt><trkpt lat="43.3678973557106" lon="-0.6349900223689223"><ele>142.6</ele><time>2026-04-29T09:19:36Z</time></trkpt><trkpt lat="43.36779789769308" lon="-0.6349935219534898"><ele>141.2</ele><time>2026-04-29T09:19:37Z</time></trkpt><trkpt lat="43.367696415109336" lon="-0.6349997041846421"><ele>139.79999999999998</ele><time>2026-04-29T09:19:38Z</time></trkpt><trkpt lat="43.36759594373375" lon="-0.6350058589081553"><ele>138.4</ele><time>2026-04-29T09:19:39Z</time></trkpt><trkpt lat="43.36750042579128" lon="-0.6350148477122294"><ele>137.0</ele><time>2026-04-29T09:19:40Z</time></trkpt><trkpt lat="43.36740341109911" lon="-0.6350311995311938"><ele>137.0</ele><time>2026-04-29T09:19:41Z</time></trkpt><trkpt lat="43.36730963094759" lon="-0.6350514542822396"><ele>137.0</ele><time>2026-04-29T09:19:42Z</time></trkpt><trkpt lat="43.36721621420808" lon="-0.6350715100387444"><ele>137.0</ele><time>2026-04-29T09:19:43Z</time></trkpt><trkpt lat="43.3671237299709" lon="-0.6350898273002946"><ele>137.0</ele><time>2026-04-29T09:19:44Z</time></trkpt><trkpt lat="43.36702881284225" lon="-0.6351109361948488"><ele>137.0</ele><time>2026-04-29T09:19:45Z</time></trkpt><trkpt lat="43.366934546727805" lon="-0.635125028775389"><ele>136.4</ele><time>2026-04-29T09:19:46Z</time></trkpt><trkpt lat="43.366839827616886" lon="-0.6351324928413775"><ele>135.79999999999998</ele><time>2026-04-29T09:19:47Z</time></trkpt><trkpt lat="43.36674500747318" lon="-0.6351436958982936"><ele>135.2</ele><time>2026-04-29T09:19:48Z</time></trkpt><trkpt lat="43.36664879520621" lon="-0.6351567409861398"><ele>134.6</ele><time>2026-04-29T09:19:49Z</time></trkpt><trkpt lat="43.366552203306206" lon="-0.6351714017526604"><ele>134.0</ele><time>2026-04-29T09:19:50Z</time></trkpt><trkpt lat="43.36645619530821" lon="-0.6351864057917473"><ele>133.2</ele><time>2026-04-29T09:19:51Z</time></trkpt><trkpt lat="43.36636074839925" lon="-0.6352050771744489"><ele>132.4</ele><time>2026-04-29T09:19:52Z</time></trkpt><trkpt lat="43.36626748875693" lon="-0.635239073424301"><ele>131.6</ele><time>2026-04-29T09:19:53Z</time></trkpt><trkpt lat="43.36617597634403" lon="-0.6352807511656124"><ele>130.8</ele><time>2026-04-29T09:19:54Z</time></trkpt><trkpt lat="43.36608756478533" lon="-0.635330798174068"><ele>130.0</ele><time>2026-04-29T09:19:55Z</time></trkpt><trkpt lat="43.36599907955159" lon="-0.6353826782577836"><ele>130.0</ele><time>2026-04-29T09:19:56Z</time></trkpt><trkpt lat="43.36590989552239" lon="-0.6354375155815427"><ele>130.0</ele><time>2026-04-29T09:19:57Z</time></trkpt><trkpt lat="43.36581935231086" lon="-0.6354920597323627"><ele>130.0</ele><time>2026-04-29T09:19:58Z</time></trkpt><trkpt lat="43.36572995994621" lon="-0.6355489069191352"><ele>130.0</ele><time>2026-04-29T09:19:59Z</time></trkpt><trkpt lat="43.365641275520474" lon="-0.6356057825575774"><ele>130.0</ele><time>2026-04-29T09:20:00Z</time></trkpt><trkpt lat="43.365553317949114" lon="-0.6356644039870333"><ele>130.6</ele><time>2026-04-29T09:20:01Z</time></trkpt><trkpt lat="43.365462247320494" lon="-0.6357204924005301"><ele>131.2</ele><time>2026-04-29T09:20:02Z</time></trkpt><trkpt lat="43.36537208961091" lon="-0.6357818020877996"><ele>131.8</ele><time>2026-04-29T09:20:03Z</time></trkpt><trkpt lat="43.36528315713657" lon="-0.6358444330652404"><ele>132.4</ele><time>2026-04-29T09:20:04Z</time></trkpt><trkpt lat="43.3651969305822" lon="-0.6359146367845723"><ele>133.0</ele><time>2026-04-29T09:20:05Z</time></trkpt><trkpt lat="43.36511367561653" lon="-0.6359930427144697"><ele>133.0</ele><time>2026-04-29T09:20:06Z</time></trkpt><trkpt lat="43.36503642875021" lon="-0.6360833341521251"><ele>133.0</ele><time>2026-04-29T09:20:07Z</time></trkpt><trkpt lat="43.36496874762143" lon="-0.6361964251065845"><ele>133.0</ele><time>2026-04-29T09:20:08Z</time></trkpt><trkpt lat="43.364911342489776" lon="-0.6363151712596146"><ele>133.0</ele><time>2026-04-29T09:20:09Z</time></trkpt><trkpt lat="43.364862768270385" lon="-0.6364370347908598"><ele>133.0</ele><time>2026-04-29T09:20:10Z</time></trkpt><trkpt lat="43.36482050555374" lon="-0.636565982800155"><ele>131.20000000000002</ele><time>2026-04-29T09:20:11Z</time></trkpt><trkpt lat="43.364796869517555" lon="-0.6366973541429413"><ele>129.4</ele><time>2026-04-29T09:20:12Z</time></trkpt><trkpt lat="43.36478779743664" lon="-0.6368320392392481"><ele>127.60000000000001</ele><time>2026-04-29T09:20:13Z</time></trkpt><trkpt lat="43.36478851406703" lon="-0.6369636633821961"><ele>125.80000000000001</ele><time>2026-04-29T09:20:14Z</time></trkpt><trkpt lat="43.36479643083843" lon="-0.6370939471490022"><ele>124.0</ele><time>2026-04-29T09:20:15Z</time></trkpt><trkpt lat="43.36481307051865" lon="-0.6372182113541538"><ele>123.50000000000001</ele><time>2026-04-29T09:20:16Z</time></trkpt><trkpt lat="43.36484278396133" lon="-0.6373347788420165"><ele>123.0</ele><time>2026-04-29T09:20:17Z</time></trkpt><trkpt lat="43.36487525046465" lon="-0.6374462740841179"><ele>122.5</ele><time>2026-04-29T09:20:18Z</time></trkpt><trkpt lat="43.36490711225063" lon="-0.6375546176069325"><ele>122.0</ele><time>2026-04-29T09:20:19Z</time></trkpt><trkpt lat="43.36494340761833" lon="-0.6376651937229306"><ele>121.50000000000001</ele><time>2026-04-29T09:20:20Z</time></trkpt><trkpt lat="43.36497376234944" lon="-0.6377665874128796"><ele>121.0</ele><time>2026-04-29T09:20:21Z</time></trkpt><trkpt lat="43.36500600087347" lon="-0.6378679035145832"><ele>121.00000000000001</ele><time>2026-04-29T09:20:22Z</time></trkpt><trkpt lat="43.36503742148591" lon="-0.637964120177029"><ele>121.0</ele><time>2026-04-29T09:20:23Z</time></trkpt><trkpt lat="43.36507058059258" lon="-0.6380667752389791"><ele>121.0</ele><time>2026-04-29T09:20:24Z</time></trkpt><trkpt lat="43.3651011752444" lon="-0.6381695968406961"><ele>121.0</ele><time>2026-04-29T09:20:25Z</time></trkpt><trkpt lat="43.36513250814433" lon="-0.6382692039585374"><ele>121.00000000000001</ele><time>2026-04-29T09:20:26Z</time></trkpt><trkpt lat="43.365165302724805" lon="-0.6383703847267437"><ele>121.0</ele><time>2026-04-29T09:20:27Z</time></trkpt><trkpt lat="43.36519593726693" lon="-0.6384762918636521"><ele>121.00000000000001</ele><time>2026-04-29T09:20:28Z</time></trkpt><trkpt lat="43.3652282723266" lon="-0.6385824986595496"><ele>121.0</ele><time>2026-04-29T09:20:29Z</time></trkpt><trkpt lat="43.36526065230803" lon="-0.6386872965526561"><ele>121.0</ele><time>2026-04-29T09:20:30Z</time></trkpt><trkpt lat="43.36529423339217" lon="-0.6387970197227212"><ele>121.0</ele><time>2026-04-29T09:20:31Z</time></trkpt><trkpt lat="43.36532405621823" lon="-0.6389022570382661"><ele>121.00000000000001</ele><time>2026-04-29T09:20:32Z</time></trkpt><trkpt lat="43.36535079526333" lon="-0.6390115662761534"><ele>121.0</ele><time>2026-04-29T09:20:33Z</time></trkpt><trkpt lat="43.36537999664196" lon="-0.639116408611245"><ele>121.50000000000001</ele><time>2026-04-29T09:20:34Z</time></trkpt><trkpt lat="43.36540418962294" lon="-0.6392274556053298"><ele>122.0</ele><time>2026-04-29T09:20:35Z</time></trkpt><trkpt lat="43.36543277494426" lon="-0.6393330435766135"><ele>122.5</ele><time>2026-04-29T09:20:36Z</time></trkpt><trkpt lat="43.36546067459781" lon="-0.6394391924217393"><ele>123.0</ele><time>2026-04-29T09:20:37.001Z</time></trkpt><trkpt lat="43.36548429826551" lon="-0.6395439394507612"><ele>123.50000000000001</ele><time>2026-04-29T09:20:38.001Z</time></trkpt><trkpt lat="43.36550685928961" lon="-0.6396545140394001"><ele>124.0</ele><time>2026-04-29T09:20:39.001Z</time></trkpt><trkpt lat="43.36552701441086" lon="-0.6397643111090533"><ele>125.00000000000001</ele><time>2026-04-29T09:20:40.001Z</time></trkpt><trkpt lat="43.36554220118212" lon="-0.6398753102609366"><ele>126.0</ele><time>2026-04-29T09:20:41.001Z</time></trkpt><trkpt lat="43.3655576258117" lon="-0.6399873319019966"><ele>127.0</ele><time>2026-04-29T09:20:42.001Z</time></trkpt><trkpt lat="43.36557247743639" lon="-0.6400968974988513"><ele>128.0</ele><time>2026-04-29T09:20:43.001Z</time></trkpt><trkpt lat="43.365586966881246" lon="-0.6402105072111008"><ele>129.0</ele><time>2026-04-29T09:20:44.001Z</time></trkpt><trkpt lat="43.36560215647972" lon="-0.6403250995864317"><ele>130.0</ele><time>2026-04-29T09:20:45.001Z</time></trkpt><trkpt lat="43.365617580044585" lon="-0.6404402052364618"><ele>130.83333333333334</ele><time>2026-04-29T09:20:46.001Z</time></trkpt><trkpt lat="43.36563265993313" lon="-0.6405545644070305"><ele>131.66666666666669</ele><time>2026-04-29T09:20:47.001Z</time></trkpt><trkpt lat="43.36564577258573" lon="-0.6406731825944213"><ele>132.5</ele><time>2026-04-29T09:20:48.001Z</time></trkpt><trkpt lat="43.36566173919318" lon="-0.6407949154560355"><ele>133.33333333333334</ele><time>2026-04-29T09:20:49.001Z</time></trkpt><trkpt lat="43.36567855222006" lon="-0.640913465465999"><ele>134.16666666666666</ele><time>2026-04-29T09:20:50.001Z</time></trkpt><trkpt lat="43.36569649959355" lon="-0.641035430304453"><ele>135.0</ele><time>2026-04-29T09:20:51.001Z</time></trkpt><trkpt lat="43.36571595530363" lon="-0.641156152468443"><ele>135.4</ele><time>2026-04-29T09:20:52.001Z</time></trkpt><trkpt lat="43.36573774268672" lon="-0.6412751490097636"><ele>135.8</ele><time>2026-04-29T09:20:53.001Z</time></trkpt><trkpt lat="43.365766114664716" lon="-0.6413960201651141"><ele>136.2</ele><time>2026-04-29T09:20:54.001Z</time></trkpt><trkpt lat="43.36579634381114" lon="-0.641506909694562"><ele>136.6</ele><time>2026-04-29T09:20:55.001Z</time></trkpt><trkpt lat="43.36582942249387" lon="-0.6416283318599513"><ele>137.0</ele><time>2026-04-29T09:20:56.001Z</time></trkpt><trkpt lat="43.365863253300745" lon="-0.6417424439999557"><ele>137.0</ele><time>2026-04-29T09:20:57.001Z</time></trkpt><trkpt lat="43.365896258427874" lon="-0.6418589502491645"><ele>137.0</ele><time>2026-04-29T09:20:58.001Z</time></trkpt><trkpt lat="43.36593265430122" lon="-0.6419685867445831"><ele>137.0</ele><time>2026-04-29T09:20:59.001Z</time></trkpt><trkpt lat="43.36597462719579" lon="-0.642077625006192"><ele>137.0</ele><time>2026-04-29T09:21:00.001Z</time></trkpt><trkpt lat="43.36601941010088" lon="-0.6421807972255918"><ele>137.0</ele><time>2026-04-29T09:21:01.001Z</time></trkpt><trkpt lat="43.366062875947485" lon="-0.64228652882786"><ele>137.0</ele><time>2026-04-29T09:21:02.001Z</time></trkpt><trkpt lat="43.36610691100249" lon="-0.6423954833208981"><ele>137.0</ele><time>2026-04-29T09:21:03.001Z</time></trkpt><trkpt lat="43.36615097180603" lon="-0.6425072538032698"><ele>137.0</ele><time>2026-04-29T09:21:04.001Z</time></trkpt><trkpt lat="43.366193484448175" lon="-0.6426101417120154"><ele>137.0</ele><time>2026-04-29T09:21:05.001Z</time></trkpt><trkpt lat="43.366235750800826" lon="-0.6427167424456746"><ele>137.0</ele><time>2026-04-29T09:21:06.001Z</time></trkpt><trkpt lat="43.36627936547331" lon="-0.6428229039426985"><ele>137.0</ele><time>2026-04-29T09:21:07.001Z</time></trkpt><trkpt lat="43.36632333916999" lon="-0.6429292669899059"><ele>137.0</ele><time>2026-04-29T09:21:08.001Z</time></trkpt><trkpt lat="43.3663692331951" lon="-0.6430363201959546"><ele>138.5</ele><time>2026-04-29T09:21:09.001Z</time></trkpt><trkpt lat="43.366414637118694" lon="-0.643144058468353"><ele>140.0</ele><time>2026-04-29T09:21:10.001Z</time></trkpt><trkpt lat="43.36646147602576" lon="-0.6432512060527626"><ele>141.5</ele><time>2026-04-29T09:21:11.001Z</time></trkpt><trkpt lat="43.36650461699457" lon="-0.643358162682497"><ele>143.0</ele><time>2026-04-29T09:21:12.001Z</time></trkpt><trkpt lat="43.36654404179693" lon="-0.6434674645785439"><ele>144.5</ele><time>2026-04-29T09:21:13.001Z</time></trkpt><trkpt lat="43.366583458196416" lon="-0.6435779247830977"><ele>146.0</ele><time>2026-04-29T09:21:14.001Z</time></trkpt><trkpt lat="43.366617379587645" lon="-0.6436914278771961"><ele>146.0</ele><time>2026-04-29T09:21:15.001Z</time></trkpt><trkpt lat="43.366648098875544" lon="-0.6438083128784152"><ele>146.0</ele><time>2026-04-29T09:21:16.001Z</time></trkpt><trkpt lat="43.36667444634736" lon="-0.6439267280009303"><ele>146.0</ele><time>2026-04-29T09:21:17.001Z</time></trkpt><trkpt lat="43.36669846624094" lon="-0.6440492588353209"><ele>146.0</ele><time>2026-04-29T09:21:18.001Z</time></trkpt><trkpt lat="43.366719835504604" lon="-0.6441766483237685"><ele>146.0</ele><time>2026-04-29T09:21:19.001Z</time></trkpt><trkpt lat="43.3667429832068" lon="-0.6443005462093555"><ele>146.0</ele><time>2026-04-29T09:21:20.001Z</time></trkpt><trkpt lat="43.36676786542742" lon="-0.6444243699311795"><ele>146.0</ele><time>2026-04-29T09:21:21.001Z</time></trkpt><trkpt lat="43.36679334600496" lon="-0.6445470851747869"><ele>146.0</ele><time>2026-04-29T09:21:22.001Z</time></trkpt><trkpt lat="43.366814775247036" lon="-0.6446722709801319"><ele>146.0</ele><time>2026-04-29T09:21:23.001Z</time></trkpt><trkpt lat="43.36683632915624" lon="-0.6447946833204129"><ele>146.0</ele><time>2026-04-29T09:21:24.001Z</time></trkpt><trkpt lat="43.36685874354603" lon="-0.6449206260962748"><ele>146.2</ele><time>2026-04-29T09:21:25.001Z</time></trkpt><trkpt lat="43.366880465781165" lon="-0.6450441170908422"><ele>146.39999999999998</ele><time>2026-04-29T09:21:26.001Z</time></trkpt><trkpt lat="43.36689985053729" lon="-0.6451671506464439"><ele>146.6</ele><time>2026-04-29T09:21:27.001Z</time></trkpt><trkpt lat="43.36692338407272" lon="-0.645289891218972"><ele>146.79999999999998</ele><time>2026-04-29T09:21:28.001Z</time></trkpt><trkpt lat="43.366949836661426" lon="-0.6454104709528862"><ele>147.0</ele><time>2026-04-29T09:21:29.001Z</time></trkpt><trkpt lat="43.366979152958045" lon="-0.6455315649128047"><ele>147.2</ele><time>2026-04-29T09:21:30.001Z</time></trkpt><trkpt lat="43.36701085897593" lon="-0.6456541061455339"><ele>147.39999999999998</ele><time>2026-04-29T09:21:31.001Z</time></trkpt><trkpt lat="43.36704424212976" lon="-0.6457732248684814"><ele>147.60000000000002</ele><time>2026-04-29T09:21:32.001Z</time></trkpt><trkpt lat="43.36707716403369" lon="-0.6458903019157581"><ele>147.8</ele><time>2026-04-29T09:21:33.001Z</time></trkpt><trkpt lat="43.36710979371945" lon="-0.6460132567851347"><ele>148.0</ele><time>2026-04-29T09:21:34.001Z</time></trkpt><trkpt lat="43.36714403788411" lon="-0.6461343590150118"><ele>148.4</ele><time>2026-04-29T09:21:35.001Z</time></trkpt><trkpt lat="43.3671737672156" lon="-0.6462584993445958"><ele>148.8</ele><time>2026-04-29T09:21:36.001Z</time></trkpt><trkpt lat="43.367200908892634" lon="-0.6463864781081736"><ele>149.2</ele><time>2026-04-29T09:21:37.001Z</time></trkpt><trkpt lat="43.36722474908364" lon="-0.6465167938534246"><ele>149.6</ele><time>2026-04-29T09:21:38Z</time></trkpt><trkpt lat="43.36724629359581" lon="-0.6466467598014436"><ele>150.0</ele><time>2026-04-29T09:21:39Z</time></trkpt><trkpt lat="43.367266636196504" lon="-0.6467751027040218"><ele>150.6</ele><time>2026-04-29T09:21:40Z</time></trkpt><trkpt lat="43.36728429306226" lon="-0.6469017618598145"><ele>151.2</ele><time>2026-04-29T09:21:41Z</time></trkpt><trkpt lat="43.36730085545583" lon="-0.6470342291370238"><ele>151.8</ele><time>2026-04-29T09:21:42Z</time></trkpt><trkpt lat="43.36731963677014" lon="-0.6471612757140994"><ele>152.4</ele><time>2026-04-29T09:21:43Z</time></trkpt><trkpt lat="43.367337574234185" lon="-0.6472909136872874"><ele>153.0</ele><time>2026-04-29T09:21:44Z</time></trkpt><trkpt lat="43.36735646952981" lon="-0.6474201036986028"><ele>153.6</ele><time>2026-04-29T09:21:45Z</time></trkpt><trkpt lat="43.36737187211241" lon="-0.6475509479420425"><ele>154.20000000000002</ele><time>2026-04-29T09:21:46Z</time></trkpt><trkpt lat="43.367388993409264" lon="-0.6476825914404385"><ele>154.8</ele><time>2026-04-29T09:21:47Z</time></trkpt><trkpt lat="43.367407832577676" lon="-0.6478139999234733"><ele>155.4</ele><time>2026-04-29T09:21:48Z</time></trkpt><trkpt lat="43.36742459624853" lon="-0.6479494169317093"><ele>156.0</ele><time>2026-04-29T09:21:49Z</time></trkpt><trkpt lat="43.36744228208925" lon="-0.6480793372031921"><ele>156.2</ele><time>2026-04-29T09:21:50Z</time></trkpt><trkpt lat="43.36745410557242" lon="-0.6482109182067287"><ele>156.39999999999998</ele><time>2026-04-29T09:21:51Z</time></trkpt><trkpt lat="43.367465477707" lon="-0.6483430415171667"><ele>156.6</ele><time>2026-04-29T09:21:52Z</time></trkpt><trkpt lat="43.36747102864096" lon="-0.648475955146277"><ele>156.79999999999998</ele><time>2026-04-29T09:21:53Z</time></trkpt><trkpt lat="43.36747172121235" lon="-0.6486083956712372"><ele>157.0</ele><time>2026-04-29T09:21:54Z</time></trkpt><trkpt lat="43.36746878993485" lon="-0.6487376594609463"><ele>157.8</ele><time>2026-04-29T09:21:55Z</time></trkpt><trkpt lat="43.36745877958141" lon="-0.6488690989771931"><ele>158.6</ele><time>2026-04-29T09:21:56Z</time></trkpt><trkpt lat="43.367448058766065" lon="-0.6490068941688112"><ele>159.4</ele><time>2026-04-29T09:21:57Z</time></trkpt><trkpt lat="43.36743650108723" lon="-0.6491405938663577"><ele>160.20000000000002</ele><time>2026-04-29T09:21:58Z</time></trkpt><trkpt lat="43.36742609577849" lon="-0.649271681159035"><ele>161.0</ele><time>2026-04-29T09:21:59Z</time></trkpt><trkpt lat="43.367414277034925" lon="-0.6494028653661031"><ele>161.4</ele><time>2026-04-29T09:22:00Z</time></trkpt><trkpt lat="43.36740744932577" lon="-0.6495364334131518"><ele>161.8</ele><time>2026-04-29T09:22:01Z</time></trkpt><trkpt lat="43.36740396066049" lon="-0.6496680381358053"><ele>162.20000000000002</ele><time>2026-04-29T09:22:02Z</time></trkpt><trkpt lat="43.36740008970705" lon="-0.6498014258667312"><ele>162.60000000000002</ele><time>2026-04-29T09:22:03Z</time></trkpt><trkpt lat="43.36740286899354" lon="-0.6499336865445754"><ele>163.0</ele><time>2026-04-29T09:22:04Z</time></trkpt><trkpt lat="43.36740816853529" lon="-0.6500652351861678"><ele>163.0</ele><time>2026-04-29T09:22:05Z</time></trkpt><trkpt lat="43.36741917758461" lon="-0.6502000758218274"><ele>163.0</ele><time>2026-04-29T09:22:06Z</time></trkpt><trkpt lat="43.36743477299453" lon="-0.6503229214788859"><ele>163.0</ele><time>2026-04-29T09:22:07Z</time></trkpt><trkpt lat="43.367448259685005" lon="-0.6504516761361433"><ele>163.0</ele><time>2026-04-29T09:22:08Z</time></trkpt><trkpt lat="43.367462114940004" lon="-0.6505803839471489"><ele>163.0</ele><time>2026-04-29T09:22:09Z</time></trkpt><trkpt lat="43.367472137895234" lon="-0.6507094899575816"><ele>163.2</ele><time>2026-04-29T09:22:10Z</time></trkpt><trkpt lat="43.36748460120381" lon="-0.6508382364986123"><ele>163.4</ele><time>2026-04-29T09:22:11Z</time></trkpt><trkpt lat="43.3674896101362" lon="-0.6509684931751738"><ele>163.6</ele><time>2026-04-29T09:22:12Z</time></trkpt><trkpt lat="43.36748869398354" lon="-0.6510992879526243"><ele>163.79999999999998</ele><time>2026-04-29T09:22:13Z</time></trkpt><trkpt lat="43.3674836815846" lon="-0.6512285271505501"><ele>164.0</ele><time>2026-04-29T09:22:14Z</time></trkpt><trkpt lat="43.36747641873852" lon="-0.6513557737749187"><ele>165.39999999999998</ele><time>2026-04-29T09:22:15Z</time></trkpt><trkpt lat="43.367464201741114" lon="-0.65148404579837"><ele>166.8</ele><time>2026-04-29T09:22:16Z</time></trkpt><trkpt lat="43.367448903216086" lon="-0.6516105186557175"><ele>168.2</ele><time>2026-04-29T09:22:17Z</time></trkpt><trkpt lat="43.36742777110527" lon="-0.6517361208865312"><ele>169.60000000000002</ele><time>2026-04-29T09:22:18Z</time></trkpt><trkpt lat="43.36740015564891" lon="-0.6518599305838201"><ele>171.0</ele><time>2026-04-29T09:22:19Z</time></trkpt><trkpt lat="43.36736662967883" lon="-0.6519850974007129"><ele>171.4</ele><time>2026-04-29T09:22:20Z</time></trkpt><trkpt lat="43.36732768798339" lon="-0.6521083064595835"><ele>171.8</ele><time>2026-04-29T09:22:21Z</time></trkpt><trkpt lat="43.36728644119617" lon="-0.6522324082495132"><ele>172.20000000000002</ele><time>2026-04-29T09:22:22Z</time></trkpt><trkpt lat="43.36724130294252" lon="-0.6523566621387805"><ele>172.60000000000002</ele><time>2026-04-29T09:22:23Z</time></trkpt><trkpt lat="43.36718278556047" lon="-0.6524708519714483"><ele>173.0</ele><time>2026-04-29T09:22:24Z</time></trkpt><trkpt lat="43.36711646742645" lon="-0.6525783691148082"><ele>172.2</ele><time>2026-04-29T09:22:25Z</time></trkpt><trkpt lat="43.367042194562934" lon="-0.6526784550080531"><ele>171.4</ele><time>2026-04-29T09:22:26Z</time></trkpt><trkpt lat="43.36696204196372" lon="-0.6527730058896326"><ele>170.6</ele><time>2026-04-29T09:22:27Z</time></trkpt><trkpt lat="43.36687565305013" lon="-0.6528549321322896"><ele>169.79999999999998</ele><time>2026-04-29T09:22:28Z</time></trkpt><trkpt lat="43.366785891432166" lon="-0.6529340724971653"><ele>169.0</ele><time>2026-04-29T09:22:29Z</time></trkpt><trkpt lat="43.366691471376065" lon="-0.653001235114268"><ele>168.79999999999998</ele><time>2026-04-29T09:22:30Z</time></trkpt><trkpt lat="43.36659480261288" lon="-0.6530633571362836"><ele>168.6</ele><time>2026-04-29T09:22:31Z</time></trkpt><trkpt lat="43.36649713451304" lon="-0.653128260643518"><ele>168.4</ele><time>2026-04-29T09:22:32Z</time></trkpt><trkpt lat="43.36639969719988" lon="-0.6531893587439555"><ele>168.2</ele><time>2026-04-29T09:22:33.001Z</time></trkpt><trkpt lat="43.36630276503554" lon="-0.6532492373580582"><ele>168.0</ele><time>2026-04-29T09:22:34.001Z</time></trkpt><trkpt lat="43.36620592952088" lon="-0.6533055202234719"><ele>168.0</ele><time>2026-04-29T09:22:35.001Z</time></trkpt><trkpt lat="43.366109884854254" lon="-0.653359148258285"><ele>168.0</ele><time>2026-04-29T09:22:36.001Z</time></trkpt><trkpt lat="43.36601247813255" lon="-0.6534122462185343"><ele>168.0</ele><time>2026-04-29T09:22:37.001Z</time></trkpt><trkpt lat="43.36591888231748" lon="-0.6534636738204412"><ele>168.0</ele><time>2026-04-29T09:22:38.001Z</time></trkpt><trkpt lat="43.36582587892247" lon="-0.6535189043670845"><ele>168.0</ele><time>2026-04-29T09:22:39.001Z</time></trkpt><trkpt lat="43.365733478894036" lon="-0.6535718781126536"><ele>168.0</ele><time>2026-04-29T09:22:40.001Z</time></trkpt><trkpt lat="43.36564103306062" lon="-0.6536271498416641"><ele>168.0</ele><time>2026-04-29T09:22:41.001Z</time></trkpt><trkpt lat="43.3655492086648" lon="-0.6536797150605369"><ele>168.0</ele><time>2026-04-29T09:22:42.001Z</time></trkpt><trkpt lat="43.3654595929402" lon="-0.6537352397385434"><ele>168.0</ele><time>2026-04-29T09:22:43.001Z</time></trkpt><trkpt lat="43.36536894832966" lon="-0.6537868980381457"><ele>168.0</ele><time>2026-04-29T09:22:44.001Z</time></trkpt><trkpt lat="43.3652788795936" lon="-0.6538363536937348"><ele>168.0</ele><time>2026-04-29T09:22:45.001Z</time></trkpt><trkpt lat="43.36518992799948" lon="-0.6538847792873177"><ele>168.0</ele><time>2026-04-29T09:22:46.001Z</time></trkpt><trkpt lat="43.365102406758254" lon="-0.6539320338340593"><ele>168.0</ele><time>2026-04-29T09:22:47.001Z</time></trkpt><trkpt lat="43.36501595644572" lon="-0.6539743955605064"><ele>168.0</ele><time>2026-04-29T09:22:48.001Z</time></trkpt><trkpt lat="43.364928030134685" lon="-0.6540104735382544"><ele>168.0</ele><time>2026-04-29T09:22:49.001Z</time></trkpt><trkpt lat="43.364839495361906" lon="-0.6540412372528943"><ele>168.0</ele><time>2026-04-29T09:22:50.001Z</time></trkpt><trkpt lat="43.36475146803236" lon="-0.6540672363751703"><ele>168.0</ele><time>2026-04-29T09:22:51.001Z</time></trkpt><trkpt lat="43.364664965298736" lon="-0.6540922648680182"><ele>168.0</ele><time>2026-04-29T09:22:52.001Z</time></trkpt><trkpt lat="43.36458200242543" lon="-0.6541147709567711"><ele>168.0</ele><time>2026-04-29T09:22:53.001Z</time></trkpt><trkpt lat="43.36450002108543" lon="-0.6541372180131446"><ele>168.0</ele><time>2026-04-29T09:22:54.001Z</time></trkpt><trkpt lat="43.364420858042855" lon="-0.6541556043399984"><ele>168.0</ele><time>2026-04-29T09:22:55.001Z</time></trkpt><trkpt lat="43.36434282356803" lon="-0.654175964187383"><ele>168.66666666666666</ele><time>2026-04-29T09:22:56.001Z</time></trkpt><trkpt lat="43.36426618092929" lon="-0.654190220171475"><ele>169.33333333333334</ele><time>2026-04-29T09:22:57.001Z</time></trkpt><trkpt lat="43.364190237480955" lon="-0.6542044537345566"><ele>170.0</ele><time>2026-04-29T09:22:58.001Z</time></trkpt><trkpt lat="43.36411418289797" lon="-0.654220211813341"><ele>170.66666666666669</ele><time>2026-04-29T09:22:59.001Z</time></trkpt><trkpt lat="43.364039747709185" lon="-0.6542385641091844"><ele>171.33333333333334</ele><time>2026-04-29T09:23:00.001Z</time></trkpt><trkpt lat="43.3639682423234" lon="-0.654256361410795"><ele>172.0</ele><time>2026-04-29T09:23:01.001Z</time></trkpt><trkpt lat="43.363898110309854" lon="-0.6542726513077797"><ele>172.71428571428572</ele><time>2026-04-29T09:23:02.001Z</time></trkpt><trkpt lat="43.36382884407285" lon="-0.6542880489709586"><ele>173.42857142857144</ele><time>2026-04-29T09:23:03.001Z</time></trkpt><trkpt lat="43.36375987352647" lon="-0.6542969192951865"><ele>174.14285714285717</ele><time>2026-04-29T09:23:04.001Z</time></trkpt><trkpt lat="43.36369215161997" lon="-0.6543030743948157"><ele>174.85714285714286</ele><time>2026-04-29T09:23:05.001Z</time></trkpt><trkpt lat="43.36362301027985" lon="-0.6543110265380309"><ele>175.57142857142856</ele><time>2026-04-29T09:23:06.001Z</time></trkpt><trkpt lat="43.36355760712562" lon="-0.6543284228813465"><ele>176.2857142857143</ele><time>2026-04-29T09:23:07.001Z</time></trkpt><trkpt lat="43.36349345355846" lon="-0.6543473985682419"><ele>177.0</ele><time>2026-04-29T09:23:08.001Z</time></trkpt><trkpt lat="43.363427955481974" lon="-0.6543647224891399"><ele>177.0</ele><time>2026-04-29T09:23:09.001Z</time></trkpt><trkpt lat="43.363361054813886" lon="-0.6543854894873157"><ele>177.0</ele><time>2026-04-29T09:23:10.001Z</time></trkpt><trkpt lat="43.36329394580992" lon="-0.6543977015085687"><ele>177.0</ele><time>2026-04-29T09:23:11.001Z</time></trkpt><trkpt lat="43.36322444907705" lon="-0.6544089122830505"><ele>177.0</ele><time>2026-04-29T09:23:12.001Z</time></trkpt><trkpt lat="43.36315389681434" lon="-0.6544211886601625"><ele>177.0</ele><time>2026-04-29T09:23:13.001Z</time></trkpt><trkpt lat="43.363082629004516" lon="-0.6544351590531322"><ele>177.0</ele><time>2026-04-29T09:23:14.001Z</time></trkpt><trkpt lat="43.36301030764467" lon="-0.6544457722722573"><ele>177.0</ele><time>2026-04-29T09:23:15.001Z</time></trkpt><trkpt lat="43.36293711621508" lon="-0.654463414505584"><ele>178.42857142857144</ele><time>2026-04-29T09:23:16.001Z</time></trkpt><trkpt lat="43.362866390556356" lon="-0.6544805173162143"><ele>179.85714285714283</ele><time>2026-04-29T09:23:17.001Z</time></trkpt><trkpt lat="43.362793526623136" lon="-0.6544958507226586"><ele>181.28571428571428</ele><time>2026-04-29T09:23:18.001Z</time></trkpt><trkpt lat="43.36272113569921" lon="-0.6545076406021891"><ele>182.71428571428572</ele><time>2026-04-29T09:23:19.001Z</time></trkpt><trkpt lat="43.36264584507674" lon="-0.6545232237988614"><ele>184.14285714285717</ele><time>2026-04-29T09:23:20.001Z</time></trkpt><trkpt lat="43.362573218432985" lon="-0.6545369559592285"><ele>185.57142857142856</ele><time>2026-04-29T09:23:21.001Z</time></trkpt><trkpt lat="43.362497482750236" lon="-0.6545520040695357"><ele>187.0</ele><time>2026-04-29T09:23:22.001Z</time></trkpt><trkpt lat="43.36242413954383" lon="-0.6545698284620564"><ele>187.0</ele><time>2026-04-29T09:23:23.001Z</time></trkpt><trkpt lat="43.36235172923981" lon="-0.6545928055736974"><ele>187.0</ele><time>2026-04-29T09:23:24.001Z</time></trkpt><trkpt lat="43.362280421710174" lon="-0.6546244292014775"><ele>187.0</ele><time>2026-04-29T09:23:25.001Z</time></trkpt><trkpt lat="43.36220727386924" lon="-0.6546565526529305"><ele>187.0</ele><time>2026-04-29T09:23:26.001Z</time></trkpt><trkpt lat="43.36213443413029" lon="-0.6546977453201198"><ele>187.0</ele><time>2026-04-29T09:23:27.001Z</time></trkpt><trkpt lat="43.36206396543543" lon="-0.654742775755315"><ele>187.0</ele><time>2026-04-29T09:23:28.001Z</time></trkpt><trkpt lat="43.36199539707887" lon="-0.654788557280601"><ele>187.33333333333334</ele><time>2026-04-29T09:23:29.001Z</time></trkpt><trkpt lat="43.361925232879464" lon="-0.6548422390476997"><ele>187.66666666666669</ele><time>2026-04-29T09:23:30.001Z</time></trkpt><trkpt lat="43.361853459834656" lon="-0.6548981659498583"><ele>188.0</ele><time>2026-04-29T09:23:31.001Z</time></trkpt><trkpt lat="43.36178361238297" lon="-0.6549611840245759"><ele>188.33333333333334</ele><time>2026-04-29T09:23:32.001Z</time></trkpt><trkpt lat="43.36171404574813" lon="-0.6550266175673329"><ele>188.66666666666666</ele><time>2026-04-29T09:23:33.001Z</time></trkpt><trkpt lat="43.36164539904183" lon="-0.6550951747461953"><ele>189.0</ele><time>2026-04-29T09:23:34.001Z</time></trkpt><trkpt lat="43.361576584817946" lon="-0.6551637641447008"><ele>189.0</ele><time>2026-04-29T09:23:35.001Z</time></trkpt><trkpt lat="43.36151053394944" lon="-0.6552397578096627"><ele>189.0</ele><time>2026-04-29T09:23:36.001Z</time></trkpt><trkpt lat="43.3614427164653" lon="-0.6553143690852795"><ele>189.0</ele><time>2026-04-29T09:23:37.001Z</time></trkpt><trkpt lat="43.36137284320321" lon="-0.6553907226906657"><ele>189.0</ele><time>2026-04-29T09:23:38.001Z</time></trkpt><trkpt lat="43.36130253317275" lon="-0.6554704667816738"><ele>189.0</ele><time>2026-04-29T09:23:39.001Z</time></trkpt><trkpt lat="43.36122761146531" lon="-0.6555488319511902"><ele>189.0</ele><time>2026-04-29T09:23:40.001Z</time></trkpt><trkpt lat="43.36115108495497" lon="-0.655629394050158"><ele>189.6</ele><time>2026-04-29T09:23:41.001Z</time></trkpt><trkpt lat="43.36107418983859" lon="-0.6557105791335714"><ele>190.2</ele><time>2026-04-29T09:23:42.001Z</time></trkpt><trkpt lat="43.36099491030931" lon="-0.6557928606738608"><ele>190.79999999999998</ele><time>2026-04-29T09:23:43.001Z</time></trkpt><trkpt lat="43.36091320748767" lon="-0.6558746092596958"><ele>191.39999999999998</ele><time>2026-04-29T09:23:44Z</time></trkpt><trkpt lat="43.36083167090127" lon="-0.6559611107581476"><ele>192.0</ele><time>2026-04-29T09:23:45Z</time></trkpt><trkpt lat="43.36075248216639" lon="-0.6560546491642953"><ele>192.0</ele><time>2026-04-29T09:23:46Z</time></trkpt><trkpt lat="43.36067706850311" lon="-0.6561568351480074"><ele>192.0</ele><time>2026-04-29T09:23:47Z</time></trkpt><trkpt lat="43.36060982462473" lon="-0.6562695957267862"><ele>192.0</ele><time>2026-04-29T09:23:48Z</time></trkpt><trkpt lat="43.360547782274374" lon="-0.6563798514832883"><ele>192.0</ele><time>2026-04-29T09:23:49Z</time></trkpt><trkpt lat="43.36048842170359" lon="-0.6564936688991005"><ele>192.0</ele><time>2026-04-29T09:23:50Z</time></trkpt><trkpt lat="43.36043321721136" lon="-0.6566103428183188"><ele>191.6</ele><time>2026-04-29T09:23:51Z</time></trkpt><trkpt lat="43.36037578593939" lon="-0.6567219592852884"><ele>191.2</ele><time>2026-04-29T09:23:52Z</time></trkpt><trkpt lat="43.360318732448775" lon="-0.6568332500914248"><ele>190.8</ele><time>2026-04-29T09:23:53Z</time></trkpt><trkpt lat="43.36026256083105" lon="-0.6569474918416377"><ele>190.4</ele><time>2026-04-29T09:23:54Z</time></trkpt><trkpt lat="43.360206148117456" lon="-0.6570573923479093"><ele>190.0</ele><time>2026-04-29T09:23:55Z</time></trkpt><trkpt lat="43.360153037651" lon="-0.6571697005994619"><ele>191.6</ele><time>2026-04-29T09:23:56Z</time></trkpt><trkpt lat="43.36009941162546" lon="-0.6572790802192978"><ele>193.2</ele><time>2026-04-29T09:23:57Z</time></trkpt><trkpt lat="43.3600463230322" lon="-0.6573919118470579"><ele>194.8</ele><time>2026-04-29T09:23:58Z</time></trkpt><trkpt lat="43.35999156755387" lon="-0.6574958904519617"><ele>196.4</ele><time>2026-04-29T09:23:59Z</time></trkpt><trkpt lat="43.359938121836315" lon="-0.6575976236617573"><ele>198.0</ele><time>2026-04-29T09:24:00Z</time></trkpt><trkpt lat="43.359888702397285" lon="-0.6577013341233264"><ele>198.33333333333334</ele><time>2026-04-29T09:24:01Z</time></trkpt><trkpt lat="43.35983881009452" lon="-0.6578060271008235"><ele>198.66666666666669</ele><time>2026-04-29T09:24:02Z</time></trkpt><trkpt lat="43.35979125066816" lon="-0.6579018483866282"><ele>199.0</ele><time>2026-04-29T09:24:03Z</time></trkpt><trkpt lat="43.35974585680582" lon="-0.6579970810217596"><ele>199.33333333333334</ele><time>2026-04-29T09:24:04Z</time></trkpt><trkpt lat="43.35970000239816" lon="-0.65809256486497"><ele>199.66666666666669</ele><time>2026-04-29T09:24:05Z</time></trkpt><trkpt lat="43.35965498193172" lon="-0.6581907863965947"><ele>200.0</ele><time>2026-04-29T09:24:06Z</time></trkpt><trkpt lat="43.359606208495386" lon="-0.6582807587935303"><ele>200.83333333333334</ele><time>2026-04-29T09:24:07Z</time></trkpt><trkpt lat="43.35955711205296" lon="-0.6583687521407626"><ele>201.66666666666669</ele><time>2026-04-29T09:24:08Z</time></trkpt><trkpt lat="43.359503209676426" lon="-0.6584495909162904"><ele>202.5</ele><time>2026-04-29T09:24:09Z</time></trkpt><trkpt lat="43.35944488187392" lon="-0.6585246695343298"><ele>203.33333333333331</ele><time>2026-04-29T09:24:10Z</time></trkpt><trkpt lat="43.359386404980995" lon="-0.6585960115807581"><ele>204.16666666666666</ele><time>2026-04-29T09:24:11Z</time></trkpt><trkpt lat="43.359327358171825" lon="-0.6586632643213323"><ele>205.0</ele><time>2026-04-29T09:24:12Z</time></trkpt><trkpt lat="43.35926464161077" lon="-0.6587243245715128"><ele>205.16666666666666</ele><time>2026-04-29T09:24:13Z</time></trkpt><trkpt lat="43.35920054912167" lon="-0.6587839142525839"><ele>205.33333333333331</ele><time>2026-04-29T09:24:14Z</time></trkpt><trkpt lat="43.35913532337287" lon="-0.6588418579116635"><ele>205.5</ele><time>2026-04-29T09:24:15Z</time></trkpt><trkpt lat="43.35906795285242" lon="-0.6589013785165276"><ele>205.66666666666669</ele><time>2026-04-29T09:24:16Z</time></trkpt><trkpt lat="43.35899749578063" lon="-0.6589619973296734"><ele>205.83333333333334</ele><time>2026-04-29T09:24:17Z</time></trkpt><trkpt lat="43.358923515211885" lon="-0.6590253234281079"><ele>206.0</ele><time>2026-04-29T09:24:18Z</time></trkpt><trkpt lat="43.35884916169569" lon="-0.6590872001379061"><ele>206.66666666666669</ele><time>2026-04-29T09:24:19Z</time></trkpt><trkpt lat="43.3587754586636" lon="-0.6591522125303704"><ele>207.33333333333334</ele><time>2026-04-29T09:24:20Z</time></trkpt><trkpt lat="43.35870159340128" lon="-0.6592121907447434"><ele>208.0</ele><time>2026-04-29T09:24:21Z</time></trkpt><trkpt lat="43.35862884152602" lon="-0.6592761207086235"><ele>208.66666666666669</ele><time>2026-04-29T09:24:22Z</time></trkpt><trkpt lat="43.35855750769725" lon="-0.6593428635343219"><ele>209.33333333333334</ele><time>2026-04-29T09:24:23Z</time></trkpt><trkpt lat="43.35848849136137" lon="-0.6594129116160715"><ele>210.0</ele><time>2026-04-29T09:24:24Z</time></trkpt><trkpt lat="43.358418242155956" lon="-0.6594826527673294"><ele>210.33333333333334</ele><time>2026-04-29T09:24:25Z</time></trkpt><trkpt lat="43.35835172424258" lon="-0.6595567695847265"><ele>210.66666666666669</ele><time>2026-04-29T09:24:26Z</time></trkpt><trkpt lat="43.35828655938198" lon="-0.6596349369375777"><ele>211.0</ele><time>2026-04-29T09:24:27.001Z</time></trkpt><trkpt lat="43.35823045746588" lon="-0.6597286824069064"><ele>211.33333333333334</ele><time>2026-04-29T09:24:28.001Z</time></trkpt><trkpt lat="43.35817957244516" lon="-0.6598283773679059"><ele>211.66666666666669</ele><time>2026-04-29T09:24:29.001Z</time></trkpt><trkpt lat="43.358133719511436" lon="-0.659935736710238"><ele>212.0</ele><time>2026-04-29T09:24:30.001Z</time></trkpt><trkpt lat="43.35809231095897" lon="-0.6600467538905888"><ele>212.0</ele><time>2026-04-29T09:24:31.001Z</time></trkpt><trkpt lat="43.35805715848081" lon="-0.6601624105043684"><ele>212.0</ele><time>2026-04-29T09:24:32.001Z</time></trkpt><trkpt lat="43.35803293966982" lon="-0.6602814126805561"><ele>212.0</ele><time>2026-04-29T09:24:33.001Z</time></trkpt><trkpt lat="43.35802322333479" lon="-0.660412208131126"><ele>212.0</ele><time>2026-04-29T09:24:34.001Z</time></trkpt><trkpt lat="43.35802577541521" lon="-0.660543300238395"><ele>212.0</ele><time>2026-04-29T09:24:35.001Z</time></trkpt><trkpt lat="43.35803275969551" lon="-0.6606734665999201"><ele>210.8</ele><time>2026-04-29T09:24:36.001Z</time></trkpt><trkpt lat="43.35804281588044" lon="-0.6608038426030424"><ele>209.6</ele><time>2026-04-29T09:24:37.001Z</time></trkpt><trkpt lat="43.35805107777229" lon="-0.6609319564398406"><ele>208.4</ele><time>2026-04-29T09:24:38.001Z</time></trkpt><trkpt lat="43.35805544836019" lon="-0.6610630400776607"><ele>207.20000000000002</ele><time>2026-04-29T09:24:39.001Z</time></trkpt><trkpt lat="43.358055052564" lon="-0.6611950014360641"><ele>206.0</ele><time>2026-04-29T09:24:40.001Z</time></trkpt><trkpt lat="43.358049059607886" lon="-0.6613259929929964"><ele>205.8</ele><time>2026-04-29T09:24:41.001Z</time></trkpt><trkpt lat="43.358041292569204" lon="-0.6614599507129367"><ele>205.60000000000002</ele><time>2026-04-29T09:24:42.001Z</time></trkpt><trkpt lat="43.358034456884866" lon="-0.6615923390640527"><ele>205.4</ele><time>2026-04-29T09:24:43.001Z</time></trkpt><trkpt lat="43.358027801514844" lon="-0.661727345537856"><ele>205.2</ele><time>2026-04-29T09:24:44.001Z</time></trkpt><trkpt lat="43.358016455562115" lon="-0.6618595184318842"><ele>205.0</ele><time>2026-04-29T09:24:45.001Z</time></trkpt><trkpt lat="43.358004475405636" lon="-0.6619920980039913"><ele>202.2</ele><time>2026-04-29T09:24:46.001Z</time></trkpt><trkpt lat="43.35799434863434" lon="-0.6621288209941599"><ele>199.4</ele><time>2026-04-29T09:24:47.001Z</time></trkpt><trkpt lat="43.35798053599526" lon="-0.6622619257435715"><ele>196.60000000000002</ele><time>2026-04-29T09:24:48.001Z</time></trkpt><trkpt lat="43.35797163535315" lon="-0.6623969007101718"><ele>193.8</ele><time>2026-04-29T09:24:49.001Z</time></trkpt><trkpt lat="43.35796481499053" lon="-0.6625308761709086"><ele>191.0</ele><time>2026-04-29T09:24:50.001Z</time></trkpt><trkpt lat="43.357958911398626" lon="-0.6626687601333828"><ele>190.0</ele><time>2026-04-29T09:24:51.001Z</time></trkpt><trkpt lat="43.35795511738518" lon="-0.6628034890193015"><ele>189.0</ele><time>2026-04-29T09:24:52.001Z</time></trkpt><trkpt lat="43.357950659470454" lon="-0.6629402577751828"><ele>188.0</ele><time>2026-04-29T09:24:53.001Z</time></trkpt><trkpt lat="43.35794860049828" lon="-0.663076170188337"><ele>187.0</ele><time>2026-04-29T09:24:54.001Z</time></trkpt><trkpt lat="43.35794528009711" lon="-0.6632105731692048"><ele>186.0</ele><time>2026-04-29T09:24:55.001Z</time></trkpt><trkpt lat="43.35794510227834" lon="-0.663344870804138"><ele>186.0</ele><time>2026-04-29T09:24:56.001Z</time></trkpt><trkpt lat="43.35794336648985" lon="-0.6634776815057959"><ele>186.0</ele><time>2026-04-29T09:24:57.001Z</time></trkpt><trkpt lat="43.35794061456772" lon="-0.663613628793473"><ele>186.0</ele><time>2026-04-29T09:24:58.001Z</time></trkpt><trkpt lat="43.357938516309275" lon="-0.6637474844429374"><ele>186.0</ele><time>2026-04-29T09:24:59.001Z</time></trkpt><trkpt lat="43.35792869100077" lon="-0.6638793925787"><ele>186.0</ele><time>2026-04-29T09:25:00.001Z</time></trkpt><trkpt lat="43.357917898311804" lon="-0.6640113945072045"><ele>185.4</ele><time>2026-04-29T09:25:01.001Z</time></trkpt><trkpt lat="43.35790267199852" lon="-0.6641345713717517"><ele>184.8</ele><time>2026-04-29T09:25:02.001Z</time></trkpt><trkpt lat="43.357884323403034" lon="-0.6642596191572234"><ele>184.20000000000002</ele><time>2026-04-29T09:25:03.001Z</time></trkpt><trkpt lat="43.35786439578555" lon="-0.6643838569937759"><ele>183.60000000000002</ele><time>2026-04-29T09:25:04.001Z</time></trkpt><trkpt lat="43.3578449551584" lon="-0.6645075677780138"><ele>183.0</ele><time>2026-04-29T09:25:05.001Z</time></trkpt><trkpt lat="43.35782958323533" lon="-0.6646312060416234"><ele>182.83333333333334</ele><time>2026-04-29T09:25:06.001Z</time></trkpt><trkpt lat="43.35781146421543" lon="-0.6647521652981263"><ele>182.66666666666666</ele><time>2026-04-29T09:25:07.001Z</time></trkpt><trkpt lat="43.357793235957196" lon="-0.6648725988323473"><ele>182.5</ele><time>2026-04-29T09:25:08.001Z</time></trkpt><trkpt lat="43.3577700376511" lon="-0.6649913309724773"><ele>182.33333333333331</ele><time>2026-04-29T09:25:09.001Z</time></trkpt><trkpt lat="43.35774542631061" lon="-0.6651086854175702"><ele>182.16666666666666</ele><time>2026-04-29T09:25:10.001Z</time></trkpt><trkpt lat="43.35771419773202" lon="-0.6652230450195058"><ele>182.0</ele><time>2026-04-29T09:25:11.001Z</time></trkpt><trkpt lat="43.357683203885976" lon="-0.66533616111875"><ele>182.33333333333331</ele><time>2026-04-29T09:25:12.001Z</time></trkpt><trkpt lat="43.35765247539202" lon="-0.6654503409459023"><ele>182.66666666666666</ele><time>2026-04-29T09:25:13.001Z</time></trkpt><trkpt lat="43.35761978243791" lon="-0.6655598788019469"><ele>183.0</ele><time>2026-04-29T09:25:14.001Z</time></trkpt><trkpt lat="43.35758814006691" lon="-0.6656721348187883"><ele>183.33333333333334</ele><time>2026-04-29T09:25:15.001Z</time></trkpt><trkpt lat="43.35756550905197" lon="-0.6657874265449055"><ele>183.66666666666669</ele><time>2026-04-29T09:25:16.001Z</time></trkpt><trkpt lat="43.35754449503187" lon="-0.6659051360479061"><ele>184.0</ele><time>2026-04-29T09:25:17.001Z</time></trkpt><trkpt lat="43.357525319702965" lon="-0.666025771571313"><ele>183.16666666666669</ele><time>2026-04-29T09:25:18.001Z</time></trkpt><trkpt lat="43.35750792075826" lon="-0.6661433865500904"><ele>182.33333333333334</ele><time>2026-04-29T09:25:19.001Z</time></trkpt><trkpt lat="43.35749421085135" lon="-0.6662659057321901"><ele>181.5</ele><time>2026-04-29T09:25:20.001Z</time></trkpt><trkpt lat="43.35748011846978" lon="-0.6663866102716247"><ele>180.66666666666666</ele><time>2026-04-29T09:25:21.001Z</time></trkpt><trkpt lat="43.357467241418846" lon="-0.6665080270995808"><ele>179.83333333333331</ele><time>2026-04-29T09:25:22.001Z</time></trkpt><trkpt lat="43.35745864674355" lon="-0.666630722576771"><ele>179.0</ele><time>2026-04-29T09:25:23.001Z</time></trkpt><trkpt lat="43.357449394582275" lon="-0.6667537143246788"><ele>179.0</ele><time>2026-04-29T09:25:24.001Z</time></trkpt><trkpt lat="43.35744063578611" lon="-0.6668784509861061"><ele>179.0</ele><time>2026-04-29T09:25:25.001Z</time></trkpt><trkpt lat="43.35742849524859" lon="-0.6669973059802827"><ele>179.0</ele><time>2026-04-29T09:25:26.001Z</time></trkpt><trkpt lat="43.35741138962157" lon="-0.6671181802531554"><ele>179.0</ele><time>2026-04-29T09:25:27.001Z</time></trkpt><trkpt lat="43.35738677029356" lon="-0.667235134761772"><ele>179.0</ele><time>2026-04-29T09:25:28.001Z</time></trkpt><trkpt lat="43.3573568879585" lon="-0.6673515321886204"><ele>179.0</ele><time>2026-04-29T09:25:29.001Z</time></trkpt><trkpt lat="43.35732717506895" lon="-0.6674674664658534"><ele>178.33333333333331</ele><time>2026-04-29T09:25:30.001Z</time></trkpt><trkpt lat="43.35729936617325" lon="-0.6675826329339101"><ele>177.66666666666666</ele><time>2026-04-29T09:25:31.001Z</time></trkpt><trkpt lat="43.35727448266078" lon="-0.6676962143228876"><ele>177.0</ele><time>2026-04-29T09:25:32.001Z</time></trkpt><trkpt lat="43.357247450736736" lon="-0.6678102657378002"><ele>176.33333333333334</ele><time>2026-04-29T09:25:33.001Z</time></trkpt><trkpt lat="43.35721983443573" lon="-0.667924251500127"><ele>175.66666666666669</ele><time>2026-04-29T09:25:34.001Z</time></trkpt><trkpt lat="43.3571937647372" lon="-0.6680365725621169"><ele>175.0</ele><time>2026-04-29T09:25:35.001Z</time></trkpt><trkpt lat="43.3571657787702" lon="-0.6681496438384883"><ele>172.66666666666669</ele><time>2026-04-29T09:25:36.001Z</time></trkpt><trkpt lat="43.357140238648434" lon="-0.6682604369595347"><ele>170.33333333333334</ele><time>2026-04-29T09:25:37.001Z</time></trkpt><trkpt lat="43.3571129510088" lon="-0.6683712480586865"><ele>168.0</ele><time>2026-04-29T09:25:38.001Z</time></trkpt><trkpt lat="43.35708637544118" lon="-0.6684823942894549"><ele>165.66666666666666</ele><time>2026-04-29T09:25:39.001Z</time></trkpt><trkpt lat="43.3570613506984" lon="-0.6685924457722008"><ele>163.33333333333331</ele><time>2026-04-29T09:25:40.001Z</time></trkpt><trkpt lat="43.35703578222315" lon="-0.668705289618228"><ele>161.0</ele><time>2026-04-29T09:25:41.001Z</time></trkpt><trkpt lat="43.35700819481202" lon="-0.668817053539941"><ele>160.5</ele><time>2026-04-29T09:25:42.001Z</time></trkpt><trkpt lat="43.3569809583143" lon="-0.6689265279351937"><ele>160.0</ele><time>2026-04-29T09:25:43.001Z</time></trkpt><trkpt lat="43.356953167499725" lon="-0.6690379427663655"><ele>159.5</ele><time>2026-04-29T09:25:44.001Z</time></trkpt><trkpt lat="43.35692625117613" lon="-0.6691502844015588"><ele>159.0</ele><time>2026-04-29T09:25:45.001Z</time></trkpt><trkpt lat="43.356898867572546" lon="-0.6692627982779858"><ele>158.5</ele><time>2026-04-29T09:25:46.001Z</time></trkpt><trkpt lat="43.35687353292583" lon="-0.6693777094235474"><ele>158.0</ele><time>2026-04-29T09:25:47.001Z</time></trkpt><trkpt lat="43.356855813230595" lon="-0.6694936562449701"><ele>157.16666666666666</ele><time>2026-04-29T09:25:48.001Z</time></trkpt><trkpt lat="43.35684739972651" lon="-0.6696138412605288"><ele>156.33333333333331</ele><time>2026-04-29T09:25:49.001Z</time></trkpt><trkpt lat="43.35684847325305" lon="-0.6697315890720323"><ele>155.5</ele><time>2026-04-29T09:25:50Z</time></trkpt><trkpt lat="43.35685321754146" lon="-0.6698521585042363"><ele>154.66666666666666</ele><time>2026-04-29T09:25:51Z</time></trkpt><trkpt lat="43.35686458923192" lon="-0.669972716976219"><ele>153.83333333333334</ele><time>2026-04-29T09:25:52Z</time></trkpt><trkpt lat="43.35688334232145" lon="-0.6700939854783007"><ele>153.0</ele><time>2026-04-29T09:25:53Z</time></trkpt><trkpt lat="43.35691078827191" lon="-0.6702100077939533"><ele>152.0</ele><time>2026-04-29T09:25:54Z</time></trkpt><trkpt lat="43.35694475891621" lon="-0.6703220262435754"><ele>151.0</ele><time>2026-04-29T09:25:55Z</time></trkpt><trkpt lat="43.3569842493729" lon="-0.6704305372773192"><ele>150.0</ele><time>2026-04-29T09:25:56Z</time></trkpt><trkpt lat="43.35702686437124" lon="-0.6705383675965737"><ele>149.0</ele><time>2026-04-29T09:25:57Z</time></trkpt><trkpt lat="43.35706958427773" lon="-0.6706441994903097"><ele>148.0</ele><time>2026-04-29T09:25:58Z</time></trkpt><trkpt lat="43.357114289571335" lon="-0.6707486780764145"><ele>147.0</ele><time>2026-04-29T09:25:59Z</time></trkpt><trkpt lat="43.357156683893635" lon="-0.6708552841917877"><ele>147.0</ele><time>2026-04-29T09:26:00Z</time></trkpt><trkpt lat="43.357198063921444" lon="-0.6709577018295074"><ele>147.0</ele><time>2026-04-29T09:26:01Z</time></trkpt><trkpt lat="43.357235739666265" lon="-0.6710650470310596"><ele>147.0</ele><time>2026-04-29T09:26:02Z</time></trkpt><trkpt lat="43.35727017850168" lon="-0.6711738798539815"><ele>147.0</ele><time>2026-04-29T09:26:03Z</time></trkpt><trkpt lat="43.35730036300472" lon="-0.6712850924018388"><ele>147.0</ele><time>2026-04-29T09:26:04Z</time></trkpt><trkpt lat="43.357325338908446" lon="-0.6713960609994961"><ele>147.0</ele><time>2026-04-29T09:26:05Z</time></trkpt><trkpt lat="43.35734475617834" lon="-0.6715087020857283"><ele>147.33333333333334</ele><time>2026-04-29T09:26:06Z</time></trkpt><trkpt lat="43.357359679933566" lon="-0.6716229368990461"><ele>147.66666666666666</ele><time>2026-04-29T09:26:07Z</time></trkpt><trkpt lat="43.35736598877345" lon="-0.6717398397543368"><ele>148.0</ele><time>2026-04-29T09:26:08Z</time></trkpt><trkpt lat="43.35736940492091" lon="-0.6718547368079674"><ele>148.33333333333331</ele><time>2026-04-29T09:26:09Z</time></trkpt><trkpt lat="43.35736498028242" lon="-0.6719724100730257"><ele>148.66666666666666</ele><time>2026-04-29T09:26:10Z</time></trkpt><trkpt lat="43.357353406421765" lon="-0.6720899405742319"><ele>149.0</ele><time>2026-04-29T09:26:11Z</time></trkpt><trkpt lat="43.35733804123398" lon="-0.6722087104406614"><ele>147.6</ele><time>2026-04-29T09:26:12Z</time></trkpt><trkpt lat="43.35731557167444" lon="-0.6723281788741073"><ele>146.2</ele><time>2026-04-29T09:26:13Z</time></trkpt><trkpt lat="43.35729276039329" lon="-0.6724473898479593"><ele>144.79999999999998</ele><time>2026-04-29T09:26:14Z</time></trkpt><trkpt lat="43.35727173256566" lon="-0.6725684199456675"><ele>143.4</ele><time>2026-04-29T09:26:15Z</time></trkpt><trkpt lat="43.35725245765684" lon="-0.6726896331793852"><ele>142.0</ele><time>2026-04-29T09:26:16Z</time></trkpt><trkpt lat="43.35722991684014" lon="-0.672808744439422"><ele>141.16666666666669</ele><time>2026-04-29T09:26:17Z</time></trkpt><trkpt lat="43.357204765407396" lon="-0.6729260270688423"><ele>140.33333333333334</ele><time>2026-04-29T09:26:18Z</time></trkpt><trkpt lat="43.35717551848464" lon="-0.673044248355016"><ele>139.5</ele><time>2026-04-29T09:26:19Z</time></trkpt><trkpt lat="43.357145997711804" lon="-0.6731610401091778"><ele>138.66666666666666</ele><time>2026-04-29T09:26:20Z</time></trkpt><trkpt lat="43.35711236619671" lon="-0.6732739411538077"><ele>137.83333333333331</ele><time>2026-04-29T09:26:21Z</time></trkpt><trkpt lat="43.35707836212954" lon="-0.6733841949224144"><ele>137.0</ele><time>2026-04-29T09:26:22Z</time></trkpt><trkpt lat="43.35704193287906" lon="-0.6734877941555097"><ele>136.5</ele><time>2026-04-29T09:26:23Z</time></trkpt><trkpt lat="43.3570049559403" lon="-0.6735877645936322"><ele>136.0</ele><time>2026-04-29T09:26:24Z</time></trkpt><trkpt lat="43.35696931101317" lon="-0.6736856999275349"><ele>135.5</ele><time>2026-04-29T09:26:25Z</time></trkpt><trkpt lat="43.35693250942512" lon="-0.6737824874419389"><ele>135.0</ele><time>2026-04-29T09:26:26Z</time></trkpt><trkpt lat="43.35690017719624" lon="-0.6738759881083015"><ele>134.5</ele><time>2026-04-29T09:26:27Z</time></trkpt><trkpt lat="43.35686767685156" lon="-0.6739657911751346"><ele>134.0</ele><time>2026-04-29T09:26:28Z</time></trkpt><trkpt lat="43.35683880209799" lon="-0.6740599138274663"><ele>133.85714285714286</ele><time>2026-04-29T09:26:29Z</time></trkpt><trkpt lat="43.35680959179585" lon="-0.6741516728611638"><ele>133.71428571428572</ele><time>2026-04-29T09:26:30Z</time></trkpt><trkpt lat="43.3567813212645" lon="-0.6742400507613372"><ele>133.57142857142856</ele><time>2026-04-29T09:26:31Z</time></trkpt><trkpt lat="43.356752178900095" lon="-0.6743266280260608"><ele>133.42857142857144</ele><time>2026-04-29T09:26:32Z</time></trkpt><trkpt lat="43.356724146189364" lon="-0.6744117955743414"><ele>133.28571428571428</ele><time>2026-04-29T09:26:33Z</time></trkpt><trkpt lat="43.35669805995952" lon="-0.6744966083532029"><ele>133.14285714285714</ele><time>2026-04-29T09:26:34Z</time></trkpt><trkpt lat="43.35667420167055" lon="-0.6745806520642211"><ele>133.0</ele><time>2026-04-29T09:26:35Z</time></trkpt><trkpt lat="43.356646777892934" lon="-0.6746642917151592"><ele>133.4</ele><time>2026-04-29T09:26:36Z</time></trkpt><trkpt lat="43.35662722286074" lon="-0.6747505715526673"><ele>133.8</ele><time>2026-04-29T09:26:37Z</time></trkpt><trkpt lat="43.35661104723699" lon="-0.6748360916419434"><ele>134.2</ele><time>2026-04-29T09:26:38Z</time></trkpt><trkpt lat="43.356589727008696" lon="-0.6750023976406296"><ele>134.6</ele><time>2026-04-29T09:26:40Z</time></trkpt><trkpt lat="43.35656847339337" lon="-0.6751575696869635"><ele>135.0</ele><time>2026-04-29T09:26:42Z</time></trkpt><trkpt lat="43.35654869392236" lon="-0.6752971485539484"><ele>135.0</ele><time>2026-04-29T09:26:44.001Z</time></trkpt><trkpt lat="43.35653292407662" lon="-0.6754208827226862"><ele>135.0</ele><time>2026-04-29T09:26:46.001Z</time></trkpt><trkpt lat="43.35651984452682" lon="-0.6755431340237272"><ele>135.0</ele><time>2026-04-29T09:26:48.001Z</time></trkpt><trkpt lat="43.35650680065437" lon="-0.6756523076585532"><ele>135.0</ele><time>2026-04-29T09:26:50.001Z</time></trkpt><trkpt lat="43.35648912544996" lon="-0.6757466281356646"><ele>135.0</ele><time>2026-04-29T09:26:52.001Z</time></trkpt><trkpt lat="43.35648153512813" lon="-0.67583524328321"><ele>135.0</ele><time>2026-04-29T09:26:54.001Z</time></trkpt><trkpt lat="43.356461911073204" lon="-0.6759220833424744"><ele>135.0</ele><time>2026-04-29T09:26:56.001Z</time></trkpt><trkpt lat="43.35643584521658" lon="-0.6760296581787809"><ele>135.0</ele><time>2026-04-29T09:26:59.001Z</time></trkpt><trkpt lat="43.35641391683903" lon="-0.6761202937313152"><ele>135.0</ele><time>2026-04-29T09:27:01.001Z</time></trkpt><trkpt lat="43.35639736560032" lon="-0.6762300876828451"><ele>135.0</ele><time>2026-04-29T09:27:03.001Z</time></trkpt><trkpt lat="43.356378035725314" lon="-0.6763571739592105"><ele>135.0</ele><time>2026-04-29T09:27:05.001Z</time></trkpt><trkpt lat="43.35636210104913" lon="-0.676505976885655"><ele>135.0</ele><time>2026-04-29T09:27:07.001Z</time></trkpt><trkpt lat="43.3563328237457" lon="-0.6766711279026022"><ele>135.57142857142856</ele><time>2026-04-29T09:27:09.001Z</time></trkpt><trkpt lat="43.3563148095818" lon="-0.6767567607054743"><ele>136.14285714285714</ele><time>2026-04-29T09:27:10.001Z</time></trkpt><trkpt lat="43.356298261923655" lon="-0.6768465517033261"><ele>136.71428571428572</ele><time>2026-04-29T09:27:11.001Z</time></trkpt><trkpt lat="43.356282962007604" lon="-0.6769382742412031"><ele>137.28571428571428</ele><time>2026-04-29T09:27:12.001Z</time></trkpt><trkpt lat="43.35626610491588" lon="-0.6770366857954243"><ele>137.85714285714286</ele><time>2026-04-29T09:27:13.001Z</time></trkpt><trkpt lat="43.35624891485111" lon="-0.6771339763042988"><ele>138.42857142857142</ele><time>2026-04-29T09:27:14.001Z</time></trkpt><trkpt lat="43.35622907065322" lon="-0.6772356777688282"><ele>139.0</ele><time>2026-04-29T09:27:15.001Z</time></trkpt><trkpt lat="43.356208449287415" lon="-0.6773421639875089"><ele>139.16666666666669</ele><time>2026-04-29T09:27:16.001Z</time></trkpt><trkpt lat="43.35619090361296" lon="-0.677450451871155"><ele>139.33333333333334</ele><time>2026-04-29T09:27:17.001Z</time></trkpt><trkpt lat="43.35617318256636" lon="-0.6775598339150902"><ele>139.5</ele><time>2026-04-29T09:27:18.001Z</time></trkpt><trkpt lat="43.35615544435547" lon="-0.6776747080859103"><ele>139.66666666666666</ele><time>2026-04-29T09:27:19.001Z</time></trkpt><trkpt lat="43.356140164192176" lon="-0.6777927444394084"><ele>139.83333333333331</ele><time>2026-04-29T09:27:20.001Z</time></trkpt><trkpt lat="43.35612383809603" lon="-0.6779105096647807"><ele>140.0</ele><time>2026-04-29T09:27:21.001Z</time></trkpt><trkpt lat="43.356107073706056" lon="-0.6780337215832305"><ele>140.2</ele><time>2026-04-29T09:27:22.001Z</time></trkpt><trkpt lat="43.356088584973975" lon="-0.6781592280647081"><ele>140.4</ele><time>2026-04-29T09:27:23.001Z</time></trkpt><trkpt lat="43.356073204917074" lon="-0.6782840438400548"><ele>140.6</ele><time>2026-04-29T09:27:24.001Z</time></trkpt><trkpt lat="43.35605710442603" lon="-0.6784077098174747"><ele>140.8</ele><time>2026-04-29T09:27:25.001Z</time></trkpt><trkpt lat="43.35604277694187" lon="-0.6785328834210941"><ele>141.0</ele><time>2026-04-29T09:27:26.001Z</time></trkpt><trkpt lat="43.356025777799914" lon="-0.6786552428963047"><ele>141.8</ele><time>2026-04-29T09:27:27.001Z</time></trkpt><trkpt lat="43.35600732571071" lon="-0.6787777419889002"><ele>142.6</ele><time>2026-04-29T09:27:28.001Z</time></trkpt><trkpt lat="43.35599019365191" lon="-0.6789039196334354"><ele>143.4</ele><time>2026-04-29T09:27:29.001Z</time></trkpt><trkpt lat="43.35596381476141" lon="-0.6790235846787303"><ele>144.2</ele><time>2026-04-29T09:27:30.001Z</time></trkpt><trkpt lat="43.355936967260796" lon="-0.6791464699594176"><ele>145.0</ele><time>2026-04-29T09:27:31.001Z</time></trkpt><trkpt lat="43.355904338564024" lon="-0.6792643519548013"><ele>145.0</ele><time>2026-04-29T09:27:32.001Z</time></trkpt><trkpt lat="43.35587201750638" lon="-0.6793823494845621"><ele>145.0</ele><time>2026-04-29T09:27:33.001Z</time></trkpt><trkpt lat="43.3558398643067" lon="-0.6794971050427664"><ele>145.0</ele><time>2026-04-29T09:27:34.001Z</time></trkpt><trkpt lat="43.355802020567324" lon="-0.6796145322449936"><ele>145.0</ele><time>2026-04-29T09:27:35.001Z</time></trkpt><trkpt lat="43.35576622068132" lon="-0.6797330226351119"><ele>145.0</ele><time>2026-04-29T09:27:36.001Z</time></trkpt><trkpt lat="43.35573076154924" lon="-0.6798488613368742"><ele>145.2</ele><time>2026-04-29T09:27:37.001Z</time></trkpt><trkpt lat="43.35570120554234" lon="-0.6799687213079809"><ele>145.4</ele><time>2026-04-29T09:27:38.001Z</time></trkpt><trkpt lat="43.355665566412426" lon="-0.6800842956416311"><ele>145.6</ele><time>2026-04-29T09:27:39.001Z</time></trkpt><trkpt lat="43.35563683773705" lon="-0.6802038757783383"><ele>145.8</ele><time>2026-04-29T09:27:40.001Z</time></trkpt><trkpt lat="43.35560134546463" lon="-0.6803259138445518"><ele>146.0</ele><time>2026-04-29T09:27:41.001Z</time></trkpt><trkpt lat="43.35555788473317" lon="-0.6804329961433275"><ele>146.6</ele><time>2026-04-29T09:27:42.001Z</time></trkpt><trkpt lat="43.35551499196938" lon="-0.6805463886138581"><ele>147.2</ele><time>2026-04-29T09:27:43.001Z</time></trkpt><trkpt lat="43.35547393949089" lon="-0.6806614468313645"><ele>147.8</ele><time>2026-04-29T09:27:44.001Z</time></trkpt><trkpt lat="43.3554386888803" lon="-0.6807916258121426"><ele>148.4</ele><time>2026-04-29T09:27:45.001Z</time></trkpt><trkpt lat="43.35540155839787" lon="-0.6809040839919835"><ele>149.0</ele><time>2026-04-29T09:27:46.001Z</time></trkpt><trkpt lat="43.3553561781846" lon="-0.6810180124957528"><ele>148.8</ele><time>2026-04-29T09:27:47.001Z</time></trkpt><trkpt lat="43.35530970809382" lon="-0.6811314544993098"><ele>148.60000000000002</ele><time>2026-04-29T09:27:48.001Z</time></trkpt><trkpt lat="43.35526493101236" lon="-0.6812480321964434"><ele>148.4</ele><time>2026-04-29T09:27:49.001Z</time></trkpt><trkpt lat="43.355222263853335" lon="-0.6813687654175637"><ele>148.20000000000002</ele><time>2026-04-29T09:27:50.001Z</time></trkpt><trkpt lat="43.3551759559061" lon="-0.6814835094317263"><ele>148.0</ele><time>2026-04-29T09:27:51.001Z</time></trkpt><trkpt lat="43.355128827829205" lon="-0.6816048897798627"><ele>148.0</ele><time>2026-04-29T09:27:52.001Z</time></trkpt><trkpt lat="43.35508562054119" lon="-0.6817271222597937"><ele>148.0</ele><time>2026-04-29T09:27:53.001Z</time></trkpt><trkpt lat="43.3550361495052" lon="-0.6818456211617644"><ele>148.0</ele><time>2026-04-29T09:27:54.001Z</time></trkpt><trkpt lat="43.3549951854104" lon="-0.6819690706716082"><ele>148.0</ele><time>2026-04-29T09:27:55.001Z</time></trkpt><trkpt lat="43.35495262382247" lon="-0.6820960004352843"><ele>148.0</ele><time>2026-04-29T09:27:56Z</time></trkpt><trkpt lat="43.35490626626589" lon="-0.6822205355605421"><ele>147.4</ele><time>2026-04-29T09:27:57Z</time></trkpt><trkpt lat="43.35485918050098" lon="-0.6823473657502289"><ele>146.8</ele><time>2026-04-29T09:27:58Z</time></trkpt><trkpt lat="43.354807551542564" lon="-0.6824666873949237"><ele>146.2</ele><time>2026-04-29T09:27:59Z</time></trkpt><trkpt lat="43.35475577516024" lon="-0.6825860945336624"><ele>145.6</ele><time>2026-04-29T09:28:00Z</time></trkpt><trkpt lat="43.35469854032392" lon="-0.682699187011165"><ele>145.0</ele><time>2026-04-29T09:28:01Z</time></trkpt><trkpt lat="43.35463606723892" lon="-0.6828115142897354"><ele>144.4</ele><time>2026-04-29T09:28:02Z</time></trkpt><trkpt lat="43.354577178369354" lon="-0.6829222999311145"><ele>143.8</ele><time>2026-04-29T09:28:03Z</time></trkpt><trkpt lat="43.35451717317642" lon="-0.6830310167886543"><ele>143.2</ele><time>2026-04-29T09:28:04Z</time></trkpt><trkpt lat="43.35445193779959" lon="-0.6831381236397791"><ele>142.6</ele><time>2026-04-29T09:28:05Z</time></trkpt><trkpt lat="43.35438731588383" lon="-0.6832455034304039"><ele>142.0</ele><time>2026-04-29T09:28:06Z</time></trkpt><trkpt lat="43.354316476020685" lon="-0.6833477233064417"><ele>142.0</ele><time>2026-04-29T09:28:07Z</time></trkpt><trkpt lat="43.35424345850697" lon="-0.6834429365883903"><ele>142.0</ele><time>2026-04-29T09:28:08Z</time></trkpt><trkpt lat="43.35417051259528" lon="-0.6835338933864966"><ele>142.0</ele><time>2026-04-29T09:28:09Z</time></trkpt><trkpt lat="43.3540966838" lon="-0.6836244636832719"><ele>142.0</ele><time>2026-04-29T09:28:10Z</time></trkpt><trkpt lat="43.35402221233093" lon="-0.68370991096348"><ele>142.0</ele><time>2026-04-29T09:28:11Z</time></trkpt><trkpt lat="43.35394805170187" lon="-0.6837946601654261"><ele>142.2</ele><time>2026-04-29T09:28:12Z</time></trkpt><trkpt lat="43.35387385859598" lon="-0.6838741687093962"><ele>142.39999999999998</ele><time>2026-04-29T09:28:13Z</time></trkpt><trkpt lat="43.35380056754674" lon="-0.6839527181020381"><ele>142.60000000000002</ele><time>2026-04-29T09:28:14Z</time></trkpt><trkpt lat="43.35372263903016" lon="-0.6840288110512613"><ele>142.8</ele><time>2026-04-29T09:28:15Z</time></trkpt><trkpt lat="43.353645005446666" lon="-0.6841046873264035"><ele>143.0</ele><time>2026-04-29T09:28:16Z</time></trkpt><trkpt lat="43.35356801509908" lon="-0.6841794916284144"><ele>143.0</ele><time>2026-04-29T09:28:17Z</time></trkpt><trkpt lat="43.35349483700417" lon="-0.684257182098273"><ele>143.0</ele><time>2026-04-29T09:28:18Z</time></trkpt><trkpt lat="43.353416899298075" lon="-0.6843320549627517"><ele>143.0</ele><time>2026-04-29T09:28:19Z</time></trkpt><trkpt lat="43.35334322769355" lon="-0.6844051831200367"><ele>143.0</ele><time>2026-04-29T09:28:20Z</time></trkpt><trkpt lat="43.35326513010102" lon="-0.6844753953508949"><ele>143.0</ele><time>2026-04-29T09:28:21Z</time></trkpt><trkpt lat="43.353192228018436" lon="-0.6845447907073747"><ele>142.83333333333331</ele><time>2026-04-29T09:28:22Z</time></trkpt><trkpt lat="43.35311719517066" lon="-0.6846144840652971"><ele>142.66666666666666</ele><time>2026-04-29T09:28:23Z</time></trkpt><trkpt lat="43.3530456055319" lon="-0.6846839200693506"><ele>142.5</ele><time>2026-04-29T09:28:24Z</time></trkpt><trkpt lat="43.35297041114117" lon="-0.6847542689106353"><ele>142.33333333333334</ele><time>2026-04-29T09:28:25Z</time></trkpt><trkpt lat="43.35289590661798" lon="-0.6848249318412546"><ele>142.16666666666669</ele><time>2026-04-29T09:28:26Z</time></trkpt><trkpt lat="43.35282239213964" lon="-0.6848923059816346"><ele>142.0</ele><time>2026-04-29T09:28:27Z</time></trkpt><trkpt lat="43.35274829293579" lon="-0.684965197343298"><ele>142.0</ele><time>2026-04-29T09:28:28Z</time></trkpt><trkpt lat="43.352676385337055" lon="-0.6850341540455696"><ele>142.0</ele><time>2026-04-29T09:28:29Z</time></trkpt><trkpt lat="43.352607162424114" lon="-0.6851029839006699"><ele>142.0</ele><time>2026-04-29T09:28:30Z</time></trkpt><trkpt lat="43.35253536925265" lon="-0.6851700710071161"><ele>142.0</ele><time>2026-04-29T09:28:31Z</time></trkpt><trkpt lat="43.35246294775825" lon="-0.6852359465824749"><ele>142.0</ele><time>2026-04-29T09:28:32Z</time></trkpt><trkpt lat="43.352387595838856" lon="-0.6853018295638486"><ele>142.0</ele><time>2026-04-29T09:28:33Z</time></trkpt><trkpt lat="43.352315190178295" lon="-0.6853707834992724"><ele>142.16666666666669</ele><time>2026-04-29T09:28:34Z</time></trkpt><trkpt lat="43.35224315809975" lon="-0.6854399265684504"><ele>142.33333333333334</ele><time>2026-04-29T09:28:35Z</time></trkpt><trkpt lat="43.35216949571355" lon="-0.6855122819577634"><ele>142.5</ele><time>2026-04-29T09:28:36Z</time></trkpt><trkpt lat="43.35209700704865" lon="-0.685581041326714"><ele>142.66666666666666</ele><time>2026-04-29T09:28:37Z</time></trkpt><trkpt lat="43.352023306423746" lon="-0.6856513745632709"><ele>142.83333333333331</ele><time>2026-04-29T09:28:38Z</time></trkpt><trkpt lat="43.35194986804033" lon="-0.6857159223662228"><ele>143.0</ele><time>2026-04-29T09:28:39Z</time></trkpt><trkpt lat="43.351875981389455" lon="-0.6857827060291847"><ele>143.16666666666666</ele><time>2026-04-29T09:28:40Z</time></trkpt><trkpt lat="43.35180377882512" lon="-0.6858452794150235"><ele>143.33333333333331</ele><time>2026-04-29T09:28:41Z</time></trkpt><trkpt lat="43.35173168767074" lon="-0.6859113470675839"><ele>143.5</ele><time>2026-04-29T09:28:42Z</time></trkpt><trkpt lat="43.35166174885899" lon="-0.685972032636693"><ele>143.66666666666666</ele><time>2026-04-29T09:28:43Z</time></trkpt><trkpt lat="43.35158004312777" lon="-0.686017408891979"><ele>143.83333333333334</ele><time>2026-04-29T09:28:44Z</time></trkpt><trkpt lat="43.35150269731251" lon="-0.686059871602959"><ele>144.0</ele><time>2026-04-29T09:28:45Z</time></trkpt><trkpt lat="43.351419109285175" lon="-0.6860978344750706"><ele>145.16666666666666</ele><time>2026-04-29T09:28:46Z</time></trkpt><trkpt lat="43.35133949569086" lon="-0.6861287250608036"><ele>146.33333333333334</ele><time>2026-04-29T09:28:47Z</time></trkpt><trkpt lat="43.35125495452411" lon="-0.6861546842644806"><ele>147.5</ele><time>2026-04-29T09:28:48Z</time></trkpt><trkpt lat="43.35117037681431" lon="-0.6861791539657457"><ele>148.66666666666669</ele><time>2026-04-29T09:28:49Z</time></trkpt><trkpt lat="43.35108225424833" lon="-0.6861996131608017"><ele>149.83333333333334</ele><time>2026-04-29T09:28:50Z</time></trkpt><trkpt lat="43.35099441767501" lon="-0.6862160978265797"><ele>151.0</ele><time>2026-04-29T09:28:51Z</time></trkpt><trkpt lat="43.350907324483046" lon="-0.6862275161800455"><ele>151.0</ele><time>2026-04-29T09:28:52Z</time></trkpt><trkpt lat="43.350820688328696" lon="-0.6862371829126503"><ele>151.0</ele><time>2026-04-29T09:28:53Z</time></trkpt><trkpt lat="43.35073223089187" lon="-0.6862423040398274"><ele>151.0</ele><time>2026-04-29T09:28:54Z</time></trkpt><trkpt lat="43.350648106950416" lon="-0.6862453345032893"><ele>151.0</ele><time>2026-04-29T09:28:55Z</time></trkpt><trkpt lat="43.35055814081845" lon="-0.6862469672367296"><ele>151.0</ele><time>2026-04-29T09:28:56Z</time></trkpt><trkpt lat="43.350465352564534" lon="-0.6862512268219562"><ele>151.0</ele><time>2026-04-29T09:28:57Z</time></trkpt><trkpt lat="43.35037721304829" lon="-0.686257017917749"><ele>151.0</ele><time>2026-04-29T09:28:58Z</time></trkpt><trkpt lat="43.350286117930445" lon="-0.6862604187527201"><ele>151.0</ele><time>2026-04-29T09:28:59.001Z</time></trkpt><trkpt lat="43.3501914211494" lon="-0.6862653250675432"><ele>151.0</ele><time>2026-04-29T09:29:00.001Z</time></trkpt><trkpt lat="43.35009546918245" lon="-0.6862653825050411"><ele>151.0</ele><time>2026-04-29T09:29:01.001Z</time></trkpt><trkpt lat="43.35000114299948" lon="-0.6862656767620833"><ele>151.0</ele><time>2026-04-29T09:29:02.001Z</time></trkpt><trkpt lat="43.34990554063918" lon="-0.6862631887587524"><ele>151.0</ele><time>2026-04-29T09:29:03.001Z</time></trkpt><trkpt lat="43.349807083680716" lon="-0.6862625144652417"><ele>151.0</ele><time>2026-04-29T09:29:04.001Z</time></trkpt><trkpt lat="43.34971190954649" lon="-0.6862691400738525"><ele>151.0</ele><time>2026-04-29T09:29:05.001Z</time></trkpt><trkpt lat="43.34961437754304" lon="-0.6862776055769988"><ele>151.0</ele><time>2026-04-29T09:29:06.001Z</time></trkpt><trkpt lat="43.349517212941386" lon="-0.6862878019150546"><ele>151.0</ele><time>2026-04-29T09:29:07.001Z</time></trkpt><trkpt lat="43.34941847136892" lon="-0.6863042465815956"><ele>151.2</ele><time>2026-04-29T09:29:08.001Z</time></trkpt><trkpt lat="43.34931929591961" lon="-0.6863183315086822"><ele>151.39999999999998</ele><time>2026-04-29T09:29:09.001Z</time></trkpt><trkpt lat="43.34921841159508" lon="-0.6863235706485641"><ele>151.6</ele><time>2026-04-29T09:29:10.001Z</time></trkpt><trkpt lat="43.349121156414654" lon="-0.686336140431116"><ele>151.79999999999998</ele><time>2026-04-29T09:29:11.001Z</time></trkpt><trkpt lat="43.349023129779184" lon="-0.6863518424927617"><ele>152.0</ele><time>2026-04-29T09:29:12.001Z</time></trkpt><trkpt lat="43.34892818220537" lon="-0.6863715631553498"><ele>151.79999999999998</ele><time>2026-04-29T09:29:13.001Z</time></trkpt><trkpt lat="43.34883268596083" lon="-0.6863952009395821"><ele>151.6</ele><time>2026-04-29T09:29:14.001Z</time></trkpt><trkpt lat="43.34873793916705" lon="-0.6864158550594193"><ele>151.39999999999998</ele><time>2026-04-29T09:29:15.001Z</time></trkpt><trkpt lat="43.348642226950375" lon="-0.686436239958806"><ele>151.2</ele><time>2026-04-29T09:29:16.001Z</time></trkpt><trkpt lat="43.348544483134795" lon="-0.6864565705842448"><ele>151.0</ele><time>2026-04-29T09:29:17.001Z</time></trkpt><trkpt lat="43.348446440588205" lon="-0.6864756117064612"><ele>151.0</ele><time>2026-04-29T09:29:18.001Z</time></trkpt><trkpt lat="43.348351716728445" lon="-0.6864934356681445"><ele>151.0</ele><time>2026-04-29T09:29:19.001Z</time></trkpt><trkpt lat="43.348254863546856" lon="-0.6865095646081848"><ele>151.0</ele><time>2026-04-29T09:29:20.001Z</time></trkpt><trkpt lat="43.348158405873825" lon="-0.6865319655223572"><ele>151.0</ele><time>2026-04-29T09:29:21.001Z</time></trkpt><trkpt lat="43.34806166906107" lon="-0.6865511201350034"><ele>151.0</ele><time>2026-04-29T09:29:22.001Z</time></trkpt><trkpt lat="43.34796562290674" lon="-0.68656620099658"><ele>151.8</ele><time>2026-04-29T09:29:23.001Z</time></trkpt><trkpt lat="43.3478663037496" lon="-0.686586650866981"><ele>152.6</ele><time>2026-04-29T09:29:24.001Z</time></trkpt><trkpt lat="43.34776700615959" lon="-0.6866080837987897"><ele>153.4</ele><time>2026-04-29T09:29:25.001Z</time></trkpt><trkpt lat="43.347666153277125" lon="-0.686627510908008"><ele>154.2</ele><time>2026-04-29T09:29:26.001Z</time></trkpt><trkpt lat="43.34756527345521" lon="-0.6866413654008259"><ele>155.0</ele><time>2026-04-29T09:29:27.001Z</time></trkpt><trkpt lat="43.34746497923416" lon="-0.6866649240404629"><ele>155.0</ele><time>2026-04-29T09:29:28.001Z</time></trkpt><trkpt lat="43.3473630395696" lon="-0.6866769821061289"><ele>155.0</ele><time>2026-04-29T09:29:29.001Z</time></trkpt><trkpt lat="43.34726346846195" lon="-0.6867048257178423"><ele>155.0</ele><time>2026-04-29T09:29:30.001Z</time></trkpt><trkpt lat="43.34716100307899" lon="-0.6867275978912489"><ele>155.0</ele><time>2026-04-29T09:29:31.001Z</time></trkpt><trkpt lat="43.347058584804635" lon="-0.6867492917664793"><ele>155.0</ele><time>2026-04-29T09:29:32.001Z</time></trkpt><trkpt lat="43.34695614493146" lon="-0.6867686642281966"><ele>155.0</ele><time>2026-04-29T09:29:33.001Z</time></trkpt><trkpt lat="43.346855521138394" lon="-0.6867865429424639"><ele>155.0</ele><time>2026-04-29T09:29:34.001Z</time></trkpt><trkpt lat="43.346752925936116" lon="-0.6868081856511975"><ele>155.0</ele><time>2026-04-29T09:29:35.001Z</time></trkpt><trkpt lat="43.346648849134716" lon="-0.6868331769845615"><ele>155.0</ele><time>2026-04-29T09:29:36.001Z</time></trkpt><trkpt lat="43.346545569178396" lon="-0.6868567645124113"><ele>155.0</ele><time>2026-04-29T09:29:37.001Z</time></trkpt><trkpt lat="43.3464426439942" lon="-0.6868811362902612"><ele>155.0</ele><time>2026-04-29T09:29:38.001Z</time></trkpt><trkpt lat="43.34633883184997" lon="-0.6869058824143588"><ele>155.0</ele><time>2026-04-29T09:29:39.001Z</time></trkpt><trkpt lat="43.34623796433735" lon="-0.6869228337998267"><ele>155.0</ele><time>2026-04-29T09:29:40.001Z</time></trkpt><trkpt lat="43.34613510111203" lon="-0.6869406332644636"><ele>155.0</ele><time>2026-04-29T09:29:41.001Z</time></trkpt><trkpt lat="43.34603262556529" lon="-0.686953786954528"><ele>155.0</ele><time>2026-04-29T09:29:42.001Z</time></trkpt><trkpt lat="43.34593719594227" lon="-0.6869735617591984"><ele>156.0</ele><time>2026-04-29T09:29:43.001Z</time></trkpt><trkpt lat="43.34583863621353" lon="-0.6869894470487695"><ele>157.0</ele><time>2026-04-29T09:29:44.001Z</time></trkpt><trkpt lat="43.34573860903335" lon="-0.6870072968454457"><ele>158.0</ele><time>2026-04-29T09:29:45.001Z</time></trkpt><trkpt lat="43.34564439366598" lon="-0.6870236869716315"><ele>159.0</ele><time>2026-04-29T09:29:46.001Z</time></trkpt><trkpt lat="43.345553111524495" lon="-0.6870511788759934"><ele>160.0</ele><time>2026-04-29T09:29:47.001Z</time></trkpt><trkpt lat="43.34546286147974" lon="-0.6870718558840139"><ele>160.66666666666669</ele><time>2026-04-29T09:29:48.001Z</time></trkpt><trkpt lat="43.345374749877294" lon="-0.6870940640353399"><ele>161.33333333333334</ele><time>2026-04-29T09:29:49.001Z</time></trkpt><trkpt lat="43.345287871635165" lon="-0.6871122534374583"><ele>162.0</ele><time>2026-04-29T09:29:50.001Z</time></trkpt><trkpt lat="43.34520312513278" lon="-0.687130594515688"><ele>162.66666666666666</ele><time>2026-04-29T09:29:51.001Z</time></trkpt><trkpt lat="43.34511847237533" lon="-0.6871493917308433"><ele>163.33333333333331</ele><time>2026-04-29T09:29:52.001Z</time></trkpt><trkpt lat="43.34503283287098" lon="-0.6871692430022042"><ele>164.0</ele><time>2026-04-29T09:29:53.001Z</time></trkpt><trkpt lat="43.34494861998275" lon="-0.6871926346702146"><ele>164.0</ele><time>2026-04-29T09:29:54.001Z</time></trkpt><trkpt lat="43.34486418847808" lon="-0.6872196894047274"><ele>164.0</ele><time>2026-04-29T09:29:55.001Z</time></trkpt><trkpt lat="43.34477909175847" lon="-0.6872489250096723"><ele>164.0</ele><time>2026-04-29T09:29:56.001Z</time></trkpt><trkpt lat="43.344697430733795" lon="-0.6872772615635367"><ele>164.0</ele><time>2026-04-29T09:29:57.001Z</time></trkpt><trkpt lat="43.344616474742594" lon="-0.6873091283044541"><ele>164.0</ele><time>2026-04-29T09:29:58.001Z</time></trkpt><trkpt lat="43.344533604770135" lon="-0.6873502164027246"><ele>164.0</ele><time>2026-04-29T09:29:59.001Z</time></trkpt><trkpt lat="43.34445272005673" lon="-0.6873899908767451"><ele>164.5</ele><time>2026-04-29T09:30:00.001Z</time></trkpt><trkpt lat="43.34436826230075" lon="-0.6874259626708653"><ele>165.0</ele><time>2026-04-29T09:30:01.001Z</time></trkpt><trkpt lat="43.34428483422376" lon="-0.6874675213611839"><ele>165.5</ele><time>2026-04-29T09:30:02Z</time></trkpt><trkpt lat="43.344203612169416" lon="-0.6874757079430633"><ele>166.0</ele><time>2026-04-29T09:30:03Z</time></trkpt><trkpt lat="43.34412436401214" lon="-0.6875073370744275"><ele>166.5</ele><time>2026-04-29T09:30:04Z</time></trkpt><trkpt lat="43.34404322077355" lon="-0.6875361026681092"><ele>167.0</ele><time>2026-04-29T09:30:05Z</time></trkpt><trkpt lat="43.343958925263536" lon="-0.6875742992176205"><ele>167.33333333333331</ele><time>2026-04-29T09:30:06Z</time></trkpt><trkpt lat="43.34387941853846" lon="-0.6876143402319995"><ele>167.66666666666666</ele><time>2026-04-29T09:30:07Z</time></trkpt><trkpt lat="43.34379702855613" lon="-0.6876547217643674"><ele>168.0</ele><time>2026-04-29T09:30:08Z</time></trkpt><trkpt lat="43.343715224935224" lon="-0.6876965630654303"><ele>168.33333333333334</ele><time>2026-04-29T09:30:09Z</time></trkpt><trkpt lat="43.343632734940826" lon="-0.6877291891803973"><ele>168.66666666666669</ele><time>2026-04-29T09:30:10Z</time></trkpt><trkpt lat="43.34355094556597" lon="-0.6877668284973664"><ele>169.0</ele><time>2026-04-29T09:30:11Z</time></trkpt><trkpt lat="43.343471108391874" lon="-0.6877999069566889"><ele>170.16666666666669</ele><time>2026-04-29T09:30:12Z</time></trkpt><trkpt lat="43.34339155963689" lon="-0.6878370054996541"><ele>171.33333333333334</ele><time>2026-04-29T09:30:13Z</time></trkpt><trkpt lat="43.34331109820653" lon="-0.6878776956410729"><ele>172.5</ele><time>2026-04-29T09:30:14Z</time></trkpt><trkpt lat="43.343232602005834" lon="-0.687925297400214"><ele>173.66666666666666</ele><time>2026-04-29T09:30:15Z</time></trkpt><trkpt lat="43.343153894751104" lon="-0.687978843111168"><ele>174.83333333333331</ele><time>2026-04-29T09:30:16Z</time></trkpt><trkpt lat="43.34307308493923" lon="-0.688031768739808"><ele>176.0</ele><time>2026-04-29T09:30:17Z</time></trkpt><trkpt lat="43.34299888739403" lon="-0.6880859391697752"><ele>176.5</ele><time>2026-04-29T09:30:18Z</time></trkpt><trkpt lat="43.342927239034" lon="-0.6881467160173037"><ele>177.0</ele><time>2026-04-29T09:30:19Z</time></trkpt><trkpt lat="43.34285746768697" lon="-0.6882184704956373"><ele>177.5</ele><time>2026-04-29T09:30:20Z</time></trkpt><trkpt lat="43.342795166165104" lon="-0.6883058905374083"><ele>178.0</ele><time>2026-04-29T09:30:21Z</time></trkpt><trkpt lat="43.342734733949385" lon="-0.6883966383679451"><ele>178.5</ele><time>2026-04-29T09:30:22Z</time></trkpt><trkpt lat="43.3426740673523" lon="-0.6884876472829262"><ele>179.0</ele><time>2026-04-29T09:30:23Z</time></trkpt><trkpt lat="43.34261344795799" lon="-0.6885799098593027"><ele>179.83333333333331</ele><time>2026-04-29T09:30:24Z</time></trkpt><trkpt lat="43.34255634648449" lon="-0.6886670399373793"><ele>180.66666666666666</ele><time>2026-04-29T09:30:25Z</time></trkpt><trkpt lat="43.342499222822674" lon="-0.6887605149434366"><ele>181.5</ele><time>2026-04-29T09:30:26Z</time></trkpt><trkpt lat="43.342434254875506" lon="-0.6888371926326292"><ele>182.33333333333334</ele><time>2026-04-29T09:30:27Z</time></trkpt><trkpt lat="43.34237149718273" lon="-0.6889244480552263"><ele>183.16666666666669</ele><time>2026-04-29T09:30:28Z</time></trkpt><trkpt lat="43.34230235450905" lon="-0.6889845090647505"><ele>184.0</ele><time>2026-04-29T09:30:29Z</time></trkpt><trkpt lat="43.34223162281642" lon="-0.6890426513246958"><ele>184.83333333333334</ele><time>2026-04-29T09:30:30Z</time></trkpt><trkpt lat="43.34216162544293" lon="-0.6891031474859529"><ele>185.66666666666669</ele><time>2026-04-29T09:30:31Z</time></trkpt><trkpt lat="43.3420894134309" lon="-0.6891578879400951"><ele>186.5</ele><time>2026-04-29T09:30:32Z</time></trkpt><trkpt lat="43.342011997193374" lon="-0.6892063890793299"><ele>187.33333333333334</ele><time>2026-04-29T09:30:33Z</time></trkpt><trkpt lat="43.34194531772535" lon="-0.6892758334358017"><ele>188.16666666666666</ele><time>2026-04-29T09:30:34Z</time></trkpt><trkpt lat="43.341871779451296" lon="-0.6893253156644136"><ele>189.0</ele><time>2026-04-29T09:30:35Z</time></trkpt><trkpt lat="43.34179799769982" lon="-0.6893669395761511"><ele>189.0</ele><time>2026-04-29T09:30:36Z</time></trkpt><trkpt lat="43.341719699275565" lon="-0.6893809499583005"><ele>189.0</ele><time>2026-04-29T09:30:37Z</time></trkpt><trkpt lat="43.34164798080038" lon="-0.6894144381149626"><ele>189.0</ele><time>2026-04-29T09:30:38Z</time></trkpt><trkpt lat="43.341578405471786" lon="-0.6894501764296194"><ele>189.0</ele><time>2026-04-29T09:30:39Z</time></trkpt><trkpt lat="43.341503955656044" lon="-0.6894676792007951"><ele>189.0</ele><time>2026-04-29T09:30:40Z</time></trkpt><trkpt lat="43.341427305862645" lon="-0.6894780846723176"><ele>189.0</ele><time>2026-04-29T09:30:41Z</time></trkpt><trkpt lat="43.34135416205588" lon="-0.6894843929164365"><ele>192.83333333333334</ele><time>2026-04-29T09:30:42Z</time></trkpt><trkpt lat="43.34128017071493" lon="-0.6895121347991605"><ele>196.66666666666669</ele><time>2026-04-29T09:30:43Z</time></trkpt><trkpt lat="43.34120417021003" lon="-0.6895166652356788"><ele>200.5</ele><time>2026-04-29T09:30:44Z</time></trkpt><trkpt lat="43.34112623738602" lon="-0.6895230979032917"><ele>204.33333333333334</ele><time>2026-04-29T09:30:45Z</time></trkpt><trkpt lat="43.34103919194367" lon="-0.6895159231967289"><ele>208.16666666666669</ele><time>2026-04-29T09:30:46Z</time></trkpt><trkpt lat="43.34095040317387" lon="-0.689504884147901"><ele>212.0</ele><time>2026-04-29T09:30:47Z</time></trkpt><trkpt lat="43.34085984884012" lon="-0.6894890501670395"><ele>212.00000000000003</ele><time>2026-04-29T09:30:48Z</time></trkpt><trkpt lat="43.34076077492353" lon="-0.6894656796131422"><ele>212.0</ele><time>2026-04-29T09:30:49Z</time></trkpt><trkpt lat="43.34067426932471" lon="-0.6894431602615141"><ele>212.0</ele><time>2026-04-29T09:30:50Z</time></trkpt><trkpt lat="43.340589260031905" lon="-0.6894198052961642"><ele>212.0</ele><time>2026-04-29T09:30:51Z</time></trkpt><trkpt lat="43.340512463076976" lon="-0.6893987065630358"><ele>212.00000000000003</ele><time>2026-04-29T09:30:52Z</time></trkpt><trkpt lat="43.340435533992796" lon="-0.6893775715327072"><ele>212.0</ele><time>2026-04-29T09:30:53Z</time></trkpt><trkpt lat="43.340323543389005" lon="-0.6893477970566219"><ele>210.16666666666669</ele><time>2026-04-29T09:30:55Z</time></trkpt><trkpt lat="43.34024592705726" lon="-0.6893272946302025"><ele>208.33333333333334</ele><time>2026-04-29T09:30:56Z</time></trkpt><trkpt lat="43.34016634077525" lon="-0.6893062717981584"><ele>206.5</ele><time>2026-04-29T09:30:57Z</time></trkpt><trkpt lat="43.34008787755652" lon="-0.6892758242924685"><ele>204.66666666666669</ele><time>2026-04-29T09:30:58Z</time></trkpt><trkpt lat="43.34000513999463" lon="-0.6892527921665882"><ele>202.83333333333334</ele><time>2026-04-29T09:30:59Z</time></trkpt><trkpt lat="43.33992081602927" lon="-0.6892369343486672"><ele>201.0</ele><time>2026-04-29T09:31:00Z</time></trkpt><trkpt lat="43.33983589181237" lon="-0.6892110740944838"><ele>201.0</ele><time>2026-04-29T09:31:01Z</time></trkpt><trkpt lat="43.33974931698859" lon="-0.689185553410524"><ele>201.0</ele><time>2026-04-29T09:31:02Z</time></trkpt><trkpt lat="43.33966300512836" lon="-0.6891632108424048"><ele>201.0</ele><time>2026-04-29T09:31:03Z</time></trkpt><trkpt lat="43.33957615051392" lon="-0.6891442959767545"><ele>201.0</ele><time>2026-04-29T09:31:04Z</time></trkpt><trkpt lat="43.33949006987309" lon="-0.6891389950629287"><ele>201.0</ele><time>2026-04-29T09:31:05Z</time></trkpt><trkpt lat="43.33940041923858" lon="-0.689144918748944"><ele>201.0</ele><time>2026-04-29T09:31:06Z</time></trkpt><trkpt lat="43.33931258296707" lon="-0.689171342608563"><ele>201.60000000000002</ele><time>2026-04-29T09:31:07Z</time></trkpt><trkpt lat="43.33922503357293" lon="-0.6892136879205502"><ele>202.2</ele><time>2026-04-29T09:31:08Z</time></trkpt><trkpt lat="43.33913605453385" lon="-0.6892688802150032"><ele>202.8</ele><time>2026-04-29T09:31:09.001Z</time></trkpt><trkpt lat="43.33905672129817" lon="-0.6893357120821247"><ele>203.39999999999998</ele><time>2026-04-29T09:31:10.001Z</time></trkpt><trkpt lat="43.33898943540574" lon="-0.6894154907361505"><ele>204.0</ele><time>2026-04-29T09:31:11.001Z</time></trkpt><trkpt lat="43.338933039083685" lon="-0.689510416696997"><ele>203.5</ele><time>2026-04-29T09:31:12.001Z</time></trkpt><trkpt lat="43.338884850905806" lon="-0.6896181871972771"><ele>203.0</ele><time>2026-04-29T09:31:13.001Z</time></trkpt><trkpt lat="43.33884966331211" lon="-0.6897341808272023"><ele>202.5</ele><time>2026-04-29T09:31:14.001Z</time></trkpt><trkpt lat="43.33881646042402" lon="-0.689843447138232"><ele>202.0</ele><time>2026-04-29T09:31:15.001Z</time></trkpt><trkpt lat="43.338789756776386" lon="-0.6899549199044178"><ele>201.5</ele><time>2026-04-29T09:31:16.001Z</time></trkpt><trkpt lat="43.338777862928026" lon="-0.6900733145272664"><ele>201.0</ele><time>2026-04-29T09:31:17.001Z</time></trkpt><trkpt lat="43.33876443070208" lon="-0.6901877172011761"><ele>201.83333333333334</ele><time>2026-04-29T09:31:18.001Z</time></trkpt><trkpt lat="43.33874721067335" lon="-0.6903013314185604"><ele>202.66666666666669</ele><time>2026-04-29T09:31:19.001Z</time></trkpt><trkpt lat="43.33872877200717" lon="-0.6904136763221393"><ele>203.5</ele><time>2026-04-29T09:31:20.001Z</time></trkpt><trkpt lat="43.33870720026818" lon="-0.6905262652883571"><ele>204.33333333333334</ele><time>2026-04-29T09:31:21.001Z</time></trkpt><trkpt lat="43.33869397809072" lon="-0.6906380330425567"><ele>205.16666666666669</ele><time>2026-04-29T09:31:22.001Z</time></trkpt><trkpt lat="43.33868041280978" lon="-0.6907490826482179"><ele>206.0</ele><time>2026-04-29T09:31:23.001Z</time></trkpt><trkpt lat="43.3386641186767" lon="-0.6908674145622683"><ele>206.00000000000003</ele><time>2026-04-29T09:31:24.001Z</time></trkpt><trkpt lat="43.33864370199544" lon="-0.690979388734126"><ele>206.0</ele><time>2026-04-29T09:31:25.001Z</time></trkpt><trkpt lat="43.338625243502946" lon="-0.6910941416538"><ele>206.0</ele><time>2026-04-29T09:31:26.001Z</time></trkpt><trkpt lat="43.338605681608065" lon="-0.6912089476506225"><ele>206.0</ele><time>2026-04-29T09:31:27.001Z</time></trkpt><trkpt lat="43.33858572375541" lon="-0.691321871564706"><ele>206.00000000000003</ele><time>2026-04-29T09:31:28.001Z</time></trkpt><trkpt lat="43.33856339156217" lon="-0.6914386588282101"><ele>206.0</ele><time>2026-04-29T09:31:29.001Z</time></trkpt><trkpt lat="43.338541398689316" lon="-0.6915555235671954"><ele>207.16666666666669</ele><time>2026-04-29T09:31:30.001Z</time></trkpt><trkpt lat="43.33852139395887" lon="-0.6916724547501626"><ele>208.33333333333334</ele><time>2026-04-29T09:31:31.001Z</time></trkpt><trkpt lat="43.33850019931951" lon="-0.6917915845284962"><ele>209.5</ele><time>2026-04-29T09:31:32.001Z</time></trkpt><trkpt lat="43.33848109576669" lon="-0.6919112466988107"><ele>210.66666666666669</ele><time>2026-04-29T09:31:33.001Z</time></trkpt><trkpt lat="43.33846198315599" lon="-0.6920317810166279"><ele>211.83333333333334</ele><time>2026-04-29T09:31:34.001Z</time></trkpt><trkpt lat="43.33844265704629" lon="-0.6921526110170637"><ele>213.0</ele><time>2026-04-29T09:31:35.001Z</time></trkpt><trkpt lat="43.33842095272089" lon="-0.692269816212273"><ele>214.66666666666666</ele><time>2026-04-29T09:31:36.001Z</time></trkpt><trkpt lat="43.33839310768803" lon="-0.6923862207192415"><ele>216.33333333333331</ele><time>2026-04-29T09:31:37.001Z</time></trkpt><trkpt lat="43.338367173096344" lon="-0.6924999459170292"><ele>218.0</ele><time>2026-04-29T09:31:38.001Z</time></trkpt><trkpt lat="43.33833937121073" lon="-0.6926136182300598"><ele>219.66666666666666</ele><time>2026-04-29T09:31:39.001Z</time></trkpt><trkpt lat="43.33830501085685" lon="-0.6927203480629361"><ele>221.33333333333331</ele><time>2026-04-29T09:31:40.001Z</time></trkpt><trkpt lat="43.338268391301575" lon="-0.6928269506875193"><ele>223.0</ele><time>2026-04-29T09:31:41.001Z</time></trkpt><trkpt lat="43.33822844934503" lon="-0.6929296932017803"><ele>223.33333333333331</ele><time>2026-04-29T09:31:42.001Z</time></trkpt><trkpt lat="43.33818133848054" lon="-0.6930272787046554"><ele>223.66666666666666</ele><time>2026-04-29T09:31:43.001Z</time></trkpt><trkpt lat="43.338117463811216" lon="-0.693103812902106"><ele>224.0</ele><time>2026-04-29T09:31:44.001Z</time></trkpt><trkpt lat="43.33806256627987" lon="-0.6931843310072326"><ele>224.33333333333331</ele><time>2026-04-29T09:31:45.001Z</time></trkpt><trkpt lat="43.33800748266039" lon="-0.6932632539235364"><ele>224.66666666666666</ele><time>2026-04-29T09:31:46.001Z</time></trkpt><trkpt lat="43.33795360842693" lon="-0.693337064959945"><ele>225.0</ele><time>2026-04-29T09:31:47.001Z</time></trkpt><trkpt lat="43.33790753916346" lon="-0.693423136376049"><ele>225.0</ele><time>2026-04-29T09:31:48.001Z</time></trkpt><trkpt lat="43.33785679035792" lon="-0.6934991976941087"><ele>225.0</ele><time>2026-04-29T09:31:49.001Z</time></trkpt><trkpt lat="43.33780741351311" lon="-0.6935814742241314"><ele>225.0</ele><time>2026-04-29T09:31:50.001Z</time></trkpt><trkpt lat="43.33775942905016" lon="-0.693665763497697"><ele>225.0</ele><time>2026-04-29T09:31:51.001Z</time></trkpt><trkpt lat="43.33771475205526" lon="-0.6937540326166199"><ele>225.0</ele><time>2026-04-29T09:31:52.001Z</time></trkpt><trkpt lat="43.33767013728535" lon="-0.6938390638805357"><ele>225.0</ele><time>2026-04-29T09:31:53.001Z</time></trkpt><trkpt lat="43.337625855970906" lon="-0.6939243484383295"><ele>227.16666666666666</ele><time>2026-04-29T09:31:54.001Z</time></trkpt><trkpt lat="43.33758490316696" lon="-0.6940165668697058"><ele>229.33333333333331</ele><time>2026-04-29T09:31:55.001Z</time></trkpt><trkpt lat="43.337543307492226" lon="-0.6941040067899354"><ele>231.5</ele><time>2026-04-29T09:31:56.001Z</time></trkpt><trkpt lat="43.33749961779426" lon="-0.6941884488241077"><ele>233.66666666666666</ele><time>2026-04-29T09:31:57.001Z</time></trkpt><trkpt lat="43.337455219039036" lon="-0.6942718094557597"><ele>235.83333333333331</ele><time>2026-04-29T09:31:58.001Z</time></trkpt><trkpt lat="43.33740685508167" lon="-0.6943482718475095"><ele>238.0</ele><time>2026-04-29T09:31:59.001Z</time></trkpt><trkpt lat="43.33735216952478" lon="-0.6944152756542975"><ele>239.85714285714286</ele><time>2026-04-29T09:32:00.001Z</time></trkpt><trkpt lat="43.33729230073606" lon="-0.6944786252851257"><ele>241.71428571428572</ele><time>2026-04-29T09:32:01.001Z</time></trkpt><trkpt lat="43.337227658196504" lon="-0.6945335387216026"><ele>243.57142857142856</ele><time>2026-04-29T09:32:02.001Z</time></trkpt><trkpt lat="43.33715988323022" lon="-0.6945745682059671"><ele>245.42857142857142</ele><time>2026-04-29T09:32:03.001Z</time></trkpt><trkpt lat="43.3370880570801" lon="-0.6946022545836738"><ele>247.28571428571428</ele><time>2026-04-29T09:32:04.001Z</time></trkpt><trkpt lat="43.33701544925053" lon="-0.6946245657925679"><ele>249.1428571428571</ele><time>2026-04-29T09:32:05.001Z</time></trkpt><trkpt lat="43.33694223602323" lon="-0.6946179328068008"><ele>250.99999999999997</ele><time>2026-04-29T09:32:06.001Z</time></trkpt><trkpt lat="43.33686912659166" lon="-0.6946004980723524"><ele>251.83333333333334</ele><time>2026-04-29T09:32:07.001Z</time></trkpt><trkpt lat="43.33679496053898" lon="-0.6945524307884738"><ele>252.66666666666669</ele><time>2026-04-29T09:32:08Z</time></trkpt><trkpt lat="43.33674422915627" lon="-0.6944617330544903"><ele>253.5</ele><time>2026-04-29T09:32:09Z</time></trkpt><trkpt lat="43.33670333336684" lon="-0.6943705131195237"><ele>254.33333333333331</ele><time>2026-04-29T09:32:10Z</time></trkpt><trkpt lat="43.336633615935646" lon="-0.6942239584592591"><ele>255.16666666666666</ele><time>2026-04-29T09:32:12Z</time></trkpt><trkpt lat="43.33660169316155" lon="-0.6941488598674064"><ele>256.0</ele><time>2026-04-29T09:32:13Z</time></trkpt><trkpt lat="43.336539965015795" lon="-0.6940095655896946"><ele>254.33333333333331</ele><time>2026-04-29T09:32:15Z</time></trkpt><trkpt lat="43.3364198939869" lon="-0.6937187071011652"><ele>252.66666666666669</ele><time>2026-04-29T09:32:16Z</time></trkpt><trkpt lat="43.336327821389055" lon="-0.6937047060337852"><ele>251.0</ele><time>2026-04-29T09:32:17Z</time></trkpt><trkpt lat="43.336216372194244" lon="-0.6936739686477688"><ele>250.99999999999997</ele><time>2026-04-29T09:32:18Z</time></trkpt><trkpt lat="43.336134044696045" lon="-0.6936871668739008"><ele>251.0</ele><time>2026-04-29T09:32:19Z</time></trkpt><trkpt lat="43.33606240508304" lon="-0.6937181931293449"><ele>250.99999999999997</ele><time>2026-04-29T09:32:20Z</time></trkpt><trkpt lat="43.33600363631849" lon="-0.6937669739425254"><ele>250.99999999999997</ele><time>2026-04-29T09:32:21Z</time></trkpt><trkpt lat="43.3359551307523" lon="-0.6938332057136006"><ele>251.0</ele><time>2026-04-29T09:32:22Z</time></trkpt><trkpt lat="43.33591431531282" lon="-0.6939069974186061"><ele>250.99999999999997</ele><time>2026-04-29T09:32:23Z</time></trkpt><trkpt lat="43.33587842418754" lon="-0.6939877560329925"><ele>250.99999999999997</ele><time>2026-04-29T09:32:24Z</time></trkpt><trkpt lat="43.335850095550335" lon="-0.6940779475295747"><ele>251.00000000000003</ele><time>2026-04-29T09:32:25Z</time></trkpt><trkpt lat="43.33582704893455" lon="-0.6941715685232228"><ele>251.0</ele><time>2026-04-29T09:32:26Z</time></trkpt><trkpt lat="43.33579939671476" lon="-0.694266723944035"><ele>251.0</ele><time>2026-04-29T09:32:27Z</time></trkpt><trkpt lat="43.33577233809964" lon="-0.6943656091099989"><ele>251.0</ele><time>2026-04-29T09:32:28Z</time></trkpt><trkpt lat="43.335746462510436" lon="-0.6944659000584057"><ele>251.00000000000003</ele><time>2026-04-29T09:32:29Z</time></trkpt><trkpt lat="43.335718300541224" lon="-0.6945618452010239"><ele>251.0</ele><time>2026-04-29T09:32:30Z</time></trkpt><trkpt lat="43.33569011744347" lon="-0.6946579339418375"><ele>251.83333333333334</ele><time>2026-04-29T09:32:31Z</time></trkpt><trkpt lat="43.335654133346964" lon="-0.6947500242369097"><ele>252.66666666666669</ele><time>2026-04-29T09:32:32Z</time></trkpt><trkpt lat="43.335611022246596" lon="-0.6948402986058047"><ele>253.5</ele><time>2026-04-29T09:32:33Z</time></trkpt><trkpt lat="43.33556720616371" lon="-0.69492930693869"><ele>254.33333333333331</ele><time>2026-04-29T09:32:34Z</time></trkpt><trkpt lat="43.33552069011404" lon="-0.6950160605047538"><ele>255.16666666666666</ele><time>2026-04-29T09:32:35Z</time></trkpt><trkpt lat="43.33547259961687" lon="-0.6951017874043709"><ele>256.0</ele><time>2026-04-29T09:32:36Z</time></trkpt><trkpt lat="43.33541946589802" lon="-0.6951846287353773"><ele>256.66666666666663</ele><time>2026-04-29T09:32:37Z</time></trkpt><trkpt lat="43.33536534968387" lon="-0.6952709822571697"><ele>257.3333333333333</ele><time>2026-04-29T09:32:38Z</time></trkpt><trkpt lat="43.33530765089735" lon="-0.6953568838333043"><ele>258.0</ele><time>2026-04-29T09:32:39Z</time></trkpt><trkpt lat="43.33524518720111" lon="-0.6954439693717167"><ele>258.6666666666667</ele><time>2026-04-29T09:32:40Z</time></trkpt><trkpt lat="43.335173260976646" lon="-0.695525477854283"><ele>259.33333333333337</ele><time>2026-04-29T09:32:41Z</time></trkpt><trkpt lat="43.335098586769426" lon="-0.6956089464687578"><ele>260.0</ele><time>2026-04-29T09:32:42Z</time></trkpt><trkpt lat="43.33502268081835" lon="-0.6956927616182362"><ele>260.0</ele><time>2026-04-29T09:32:43Z</time></trkpt><trkpt lat="43.334942983318875" lon="-0.6957744501056129"><ele>260.0</ele><time>2026-04-29T09:32:44Z</time></trkpt><trkpt lat="43.334862641289675" lon="-0.695863989573855"><ele>260.0</ele><time>2026-04-29T09:32:45Z</time></trkpt><trkpt lat="43.33477426881493" lon="-0.6959470569703904"><ele>260.0</ele><time>2026-04-29T09:32:46Z</time></trkpt><trkpt lat="43.334691548057194" lon="-0.6960390925962707"><ele>260.0</ele><time>2026-04-29T09:32:47Z</time></trkpt><trkpt lat="43.33460096385347" lon="-0.6961247293449601"><ele>260.4</ele><time>2026-04-29T09:32:48Z</time></trkpt><trkpt lat="43.33451835338312" lon="-0.696220112688938"><ele>260.8</ele><time>2026-04-29T09:32:49Z</time></trkpt><trkpt lat="43.33444009638214" lon="-0.6963145178053594"><ele>261.2</ele><time>2026-04-29T09:32:50Z</time></trkpt><trkpt lat="43.334362155930265" lon="-0.6964042561813807"><ele>261.6</ele><time>2026-04-29T09:32:51Z</time></trkpt><trkpt lat="43.334284394117255" lon="-0.6964983157094258"><ele>262.0</ele><time>2026-04-29T09:32:52Z</time></trkpt><trkpt lat="43.334209505433535" lon="-0.6965911743169875"><ele>262.0</ele><time>2026-04-29T09:32:53Z</time></trkpt><trkpt lat="43.3341402494464" lon="-0.6966886273584505"><ele>262.0</ele><time>2026-04-29T09:32:54Z</time></trkpt><trkpt lat="43.3340739407761" lon="-0.6967870917540936"><ele>262.0</ele><time>2026-04-29T09:32:55Z</time></trkpt><trkpt lat="43.334006496827065" lon="-0.6968813237001552"><ele>262.0</ele><time>2026-04-29T09:32:56Z</time></trkpt><trkpt lat="43.33394806221796" lon="-0.6969878056148677"><ele>262.0</ele><time>2026-04-29T09:32:57Z</time></trkpt><trkpt lat="43.333895701305636" lon="-0.6970998285527156"><ele>261.0</ele><time>2026-04-29T09:32:58Z</time></trkpt><trkpt lat="43.33384445508734" lon="-0.697214291543984"><ele>260.0</ele><time>2026-04-29T09:32:59Z</time></trkpt><trkpt lat="43.33379710776248" lon="-0.6973339027862158"><ele>259.0</ele><time>2026-04-29T09:33:00Z</time></trkpt><trkpt lat="43.33375605932061" lon="-0.6974610105975856"><ele>258.0</ele><time>2026-04-29T09:33:01Z</time></trkpt><trkpt lat="43.3337135850752" lon="-0.6975837730530311"><ele>257.0</ele><time>2026-04-29T09:33:02Z</time></trkpt><trkpt lat="43.33366925261871" lon="-0.6977102321479097"><ele>257.8</ele><time>2026-04-29T09:33:03Z</time></trkpt><trkpt lat="43.333628107367964" lon="-0.697837949896407"><ele>258.6</ele><time>2026-04-29T09:33:04Z</time></trkpt><trkpt lat="43.333582201117316" lon="-0.6979652524299435"><ele>259.40000000000003</ele><time>2026-04-29T09:33:05Z</time></trkpt><trkpt lat="43.333532864336775" lon="-0.6980905198475208"><ele>260.2</ele><time>2026-04-29T09:33:06Z</time></trkpt><trkpt lat="43.33348465190288" lon="-0.6982137871369289"><ele>261.0</ele><time>2026-04-29T09:33:07Z</time></trkpt><trkpt lat="43.33343342700347" lon="-0.6983370681183482"><ele>261.0</ele><time>2026-04-29T09:33:08Z</time></trkpt><trkpt lat="43.33337901785965" lon="-0.6984566219873967"><ele>261.0</ele><time>2026-04-29T09:33:09Z</time></trkpt><trkpt lat="43.33331591533768" lon="-0.6985683575408312"><ele>261.0</ele><time>2026-04-29T09:33:10Z</time></trkpt><trkpt lat="43.33324798740102" lon="-0.698674871893658"><ele>261.0</ele><time>2026-04-29T09:33:11Z</time></trkpt><trkpt lat="43.333178723837406" lon="-0.6987801563131498"><ele>261.0</ele><time>2026-04-29T09:33:12Z</time></trkpt><trkpt lat="43.33311059233275" lon="-0.6988852952475298"><ele>259.8</ele><time>2026-04-29T09:33:13Z</time></trkpt><trkpt lat="43.33304708792448" lon="-0.6989886554272813"><ele>258.6</ele><time>2026-04-29T09:33:14Z</time></trkpt><trkpt lat="43.33298191361871" lon="-0.6990893895356982"><ele>257.4</ele><time>2026-04-29T09:33:15.001Z</time></trkpt><trkpt lat="43.33291568570041" lon="-0.699190299115128"><ele>256.2</ele><time>2026-04-29T09:33:16.001Z</time></trkpt><trkpt lat="43.33284793487589" lon="-0.6992906736221751"><ele>255.0</ele><time>2026-04-29T09:33:17.001Z</time></trkpt><trkpt lat="43.3327823506002" lon="-0.6993891554078572"><ele>255.6</ele><time>2026-04-29T09:33:18.001Z</time></trkpt><trkpt lat="43.33272116240406" lon="-0.6994937211418831"><ele>256.2</ele><time>2026-04-29T09:33:19.001Z</time></trkpt><trkpt lat="43.3326687784397" lon="-0.6996055714149205"><ele>256.8</ele><time>2026-04-29T09:33:20.001Z</time></trkpt><trkpt lat="43.332620203662806" lon="-0.6997179885626701"><ele>257.4</ele><time>2026-04-29T09:33:21.001Z</time></trkpt><trkpt lat="43.33257533125994" lon="-0.6998337082932777"><ele>258.0</ele><time>2026-04-29T09:33:22.001Z</time></trkpt><trkpt lat="43.33253686243599" lon="-0.6999539125990852"><ele>258.0</ele><time>2026-04-29T09:33:23.001Z</time></trkpt><trkpt lat="43.332504310336084" lon="-0.7000756368324031"><ele>258.0</ele><time>2026-04-29T09:33:24.001Z</time></trkpt><trkpt lat="43.33248308605358" lon="-0.7002029314796069"><ele>258.0</ele><time>2026-04-29T09:33:25.001Z</time></trkpt><trkpt lat="43.33246960033725" lon="-0.7003290921035077"><ele>258.0</ele><time>2026-04-29T09:33:26.001Z</time></trkpt><trkpt lat="43.33245885018796" lon="-0.7004542279222877"><ele>258.0</ele><time>2026-04-29T09:33:27.001Z</time></trkpt><trkpt lat="43.332456812863704" lon="-0.7005814756754907"><ele>258.8</ele><time>2026-04-29T09:33:28.001Z</time></trkpt><trkpt lat="43.33245997844465" lon="-0.7007079654451026"><ele>259.6</ele><time>2026-04-29T09:33:29.001Z</time></trkpt><trkpt lat="43.3324679846517" lon="-0.7008335376908964"><ele>260.4</ele><time>2026-04-29T09:33:30.001Z</time></trkpt><trkpt lat="43.33247808819677" lon="-0.7009555902925834"><ele>261.2</ele><time>2026-04-29T09:33:31.001Z</time></trkpt><trkpt lat="43.33248783542563" lon="-0.7010768503924524"><ele>262.0</ele><time>2026-04-29T09:33:32.001Z</time></trkpt><trkpt lat="43.33249938579973" lon="-0.7011987947960521"><ele>262.8</ele><time>2026-04-29T09:33:33.001Z</time></trkpt><trkpt lat="43.33250983323485" lon="-0.7013216982037166"><ele>263.6</ele><time>2026-04-29T09:33:34.001Z</time></trkpt><trkpt lat="43.332520076407455" lon="-0.7014438066872682"><ele>264.40000000000003</ele><time>2026-04-29T09:33:35.001Z</time></trkpt><trkpt lat="43.332530915054264" lon="-0.7015671309410865"><ele>265.2</ele><time>2026-04-29T09:33:36.001Z</time></trkpt><trkpt lat="43.332535754057396" lon="-0.7016939260040522"><ele>266.0</ele><time>2026-04-29T09:33:37.001Z</time></trkpt><trkpt lat="43.33253916669859" lon="-0.7018197099479629"><ele>266.40000000000003</ele><time>2026-04-29T09:33:38.001Z</time></trkpt><trkpt lat="43.332545925352186" lon="-0.7019464228891495"><ele>266.8</ele><time>2026-04-29T09:33:39.001Z</time></trkpt><trkpt lat="43.33254561850523" lon="-0.7020733776039869"><ele>267.20000000000005</ele><time>2026-04-29T09:33:40.001Z</time></trkpt><trkpt lat="43.33253140019105" lon="-0.7021978749962655"><ele>267.6</ele><time>2026-04-29T09:33:41.001Z</time></trkpt><trkpt lat="43.33251332372016" lon="-0.7023209189596689"><ele>268.0</ele><time>2026-04-29T09:33:42.001Z</time></trkpt><trkpt lat="43.33249076647786" lon="-0.7024380682711807"><ele>268.0</ele><time>2026-04-29T09:33:43.001Z</time></trkpt><trkpt lat="43.33246825869589" lon="-0.7025596143523328"><ele>268.0</ele><time>2026-04-29T09:33:44.001Z</time></trkpt><trkpt lat="43.332445738178684" lon="-0.702681089708752"><ele>268.0</ele><time>2026-04-29T09:33:45.001Z</time></trkpt><trkpt lat="43.33242348505249" lon="-0.7028067918147057"><ele>268.0</ele><time>2026-04-29T09:33:46.001Z</time></trkpt><trkpt lat="43.33240759083243" lon="-0.7029309000318976"><ele>268.0</ele><time>2026-04-29T09:33:47.001Z</time></trkpt><trkpt lat="43.332400676998866" lon="-0.7030556044007581"><ele>268.6</ele><time>2026-04-29T09:33:48.001Z</time></trkpt><trkpt lat="43.33240578568985" lon="-0.7031816793622195"><ele>269.20000000000005</ele><time>2026-04-29T09:33:49.001Z</time></trkpt><trkpt lat="43.33241827409117" lon="-0.7033110263407629"><ele>269.8</ele><time>2026-04-29T09:33:50.001Z</time></trkpt><trkpt lat="43.33243086795719" lon="-0.7034353799991221"><ele>270.40000000000003</ele><time>2026-04-29T09:33:51.001Z</time></trkpt><trkpt lat="43.33244151084595" lon="-0.7035612075221619"><ele>271.0</ele><time>2026-04-29T09:33:52.001Z</time></trkpt><trkpt lat="43.332451970630096" lon="-0.7036903806790678"><ele>271.0</ele><time>2026-04-29T09:33:53.001Z</time></trkpt><trkpt lat="43.33246271434673" lon="-0.7038189602835606"><ele>271.0</ele><time>2026-04-29T09:33:54.001Z</time></trkpt><trkpt lat="43.332474898486645" lon="-0.7039531520338872"><ele>271.0</ele><time>2026-04-29T09:33:55.001Z</time></trkpt><trkpt lat="43.33248508440337" lon="-0.7040857907340422"><ele>271.0</ele><time>2026-04-29T09:33:56.001Z</time></trkpt><trkpt lat="43.332494339063636" lon="-0.7042211715641005"><ele>271.0</ele><time>2026-04-29T09:33:57.001Z</time></trkpt><trkpt lat="43.33250026958705" lon="-0.7043546861649271"><ele>270.6</ele><time>2026-04-29T09:33:58.001Z</time></trkpt><trkpt lat="43.332501831695005" lon="-0.7044863388764682"><ele>270.20000000000005</ele><time>2026-04-29T09:33:59.001Z</time></trkpt><trkpt lat="43.3324933348596" lon="-0.7046161970922658"><ele>269.79999999999995</ele><time>2026-04-29T09:34:00.001Z</time></trkpt><trkpt lat="43.33247792891591" lon="-0.7047465125283608"><ele>269.4</ele><time>2026-04-29T09:34:01.001Z</time></trkpt><trkpt lat="43.33245554394309" lon="-0.7048762346377369"><ele>269.0</ele><time>2026-04-29T09:34:02.001Z</time></trkpt><trkpt lat="43.332422199602505" lon="-0.7050005246231519"><ele>269.0</ele><time>2026-04-29T09:34:03.001Z</time></trkpt><trkpt lat="43.332382283679515" lon="-0.7051224329093649"><ele>269.0</ele><time>2026-04-29T09:34:04.001Z</time></trkpt><trkpt lat="43.332338095194395" lon="-0.7052415642821762"><ele>269.0</ele><time>2026-04-29T09:34:05.001Z</time></trkpt><trkpt lat="43.33228623561871" lon="-0.7053566511753302"><ele>269.0</ele><time>2026-04-29T09:34:06.001Z</time></trkpt><trkpt lat="43.33223189165845" lon="-0.705471896937636"><ele>269.0</ele><time>2026-04-29T09:34:07.001Z</time></trkpt><trkpt lat="43.33217436865769" lon="-0.7055857115272905"><ele>267.8</ele><time>2026-04-29T09:34:08.001Z</time></trkpt><trkpt lat="43.332117927251055" lon="-0.7056978244325212"><ele>266.59999999999997</ele><time>2026-04-29T09:34:09.001Z</time></trkpt><trkpt lat="43.332061490894795" lon="-0.7058081196452967"><ele>265.4</ele><time>2026-04-29T09:34:10.001Z</time></trkpt><trkpt lat="43.332004389742025" lon="-0.7059171129818259"><ele>264.2</ele><time>2026-04-29T09:34:11.001Z</time></trkpt><trkpt lat="43.33194649682157" lon="-0.7060254164043924"><ele>263.0</ele><time>2026-04-29T09:34:12.001Z</time></trkpt><trkpt lat="43.33189109338641" lon="-0.7061345668873841"><ele>262.8</ele><time>2026-04-29T09:34:13.001Z</time></trkpt><trkpt lat="43.33183680519428" lon="-0.7062434660268664"><ele>262.6</ele><time>2026-04-29T09:34:14Z</time></trkpt><trkpt lat="43.33178107234953" lon="-0.7063481625365987"><ele>262.4</ele><time>2026-04-29T09:34:15Z</time></trkpt><trkpt lat="43.33172805461824" lon="-0.70645755106566"><ele>262.2</ele><time>2026-04-29T09:34:16Z</time></trkpt><trkpt lat="43.33167886165282" lon="-0.7065664688793651"><ele>262.0</ele><time>2026-04-29T09:34:17Z</time></trkpt><trkpt lat="43.33163400293954" lon="-0.706680973212561"><ele>262.0</ele><time>2026-04-29T09:34:18Z</time></trkpt><trkpt lat="43.33159634473802" lon="-0.706800842975655"><ele>262.0</ele><time>2026-04-29T09:34:19Z</time></trkpt><trkpt lat="43.3315639882656" lon="-0.7069277878602228"><ele>262.0</ele><time>2026-04-29T09:34:20Z</time></trkpt><trkpt lat="43.331540444539975" lon="-0.7070607614377162"><ele>262.0</ele><time>2026-04-29T09:34:21Z</time></trkpt><trkpt lat="43.33153093504542" lon="-0.7071958811085921"><ele>262.0</ele><time>2026-04-29T09:34:22Z</time></trkpt><trkpt lat="43.33151635985002" lon="-0.70733147670234"><ele>261.6</ele><time>2026-04-29T09:34:23Z</time></trkpt><trkpt lat="43.331503805767916" lon="-0.7074708536577048"><ele>261.2</ele><time>2026-04-29T09:34:24Z</time></trkpt><trkpt lat="43.331496346386814" lon="-0.7076095363266959"><ele>260.8</ele><time>2026-04-29T09:34:25Z</time></trkpt><trkpt lat="43.33148816803248" lon="-0.7077479893977064"><ele>260.4</ele><time>2026-04-29T09:34:26Z</time></trkpt><trkpt lat="43.331484986948816" lon="-0.7078886494776592"><ele>260.0</ele><time>2026-04-29T09:34:27Z</time></trkpt><trkpt lat="43.331481988164995" lon="-0.7080286004063367"><ele>260.0</ele><time>2026-04-29T09:34:28Z</time></trkpt><trkpt lat="43.33147852781511" lon="-0.7081682575176386"><ele>260.0</ele><time>2026-04-29T09:34:29Z</time></trkpt><trkpt lat="43.33147881793737" lon="-0.7083050024216918"><ele>260.0</ele><time>2026-04-29T09:34:30Z</time></trkpt><trkpt lat="43.331477949200846" lon="-0.7084412972017348"><ele>260.0</ele><time>2026-04-29T09:34:31Z</time></trkpt><trkpt lat="43.33147750272694" lon="-0.708577553799508"><ele>260.0</ele><time>2026-04-29T09:34:32Z</time></trkpt><trkpt lat="43.33147943095529" lon="-0.7087143924957781"><ele>259.8</ele><time>2026-04-29T09:34:33Z</time></trkpt><trkpt lat="43.33147780835645" lon="-0.7088507943215333"><ele>259.6</ele><time>2026-04-29T09:34:34Z</time></trkpt><trkpt lat="43.33147802611023" lon="-0.7089873843668503"><ele>259.4</ele><time>2026-04-29T09:34:35Z</time></trkpt><trkpt lat="43.331478395766595" lon="-0.7091213517879886"><ele>259.2</ele><time>2026-04-29T09:34:36Z</time></trkpt><trkpt lat="43.33148275297474" lon="-0.7092555284397547"><ele>259.0</ele><time>2026-04-29T09:34:37Z</time></trkpt><trkpt lat="43.33148795666833" lon="-0.7093888377477494"><ele>258.2</ele><time>2026-04-29T09:34:38Z</time></trkpt><trkpt lat="43.3315017660443" lon="-0.7095183896415881"><ele>257.4</ele><time>2026-04-29T09:34:39Z</time></trkpt><trkpt lat="43.331524919713914" lon="-0.7096455902404575"><ele>256.6</ele><time>2026-04-29T09:34:40Z</time></trkpt><trkpt lat="43.33155586539197" lon="-0.7097714607335691"><ele>255.8</ele><time>2026-04-29T09:34:41Z</time></trkpt><trkpt lat="43.33159354921147" lon="-0.7098927970028402"><ele>255.0</ele><time>2026-04-29T09:34:42Z</time></trkpt><trkpt lat="43.331631512405075" lon="-0.7100141959065409"><ele>255.0</ele><time>2026-04-29T09:34:43Z</time></trkpt><trkpt lat="43.33167119523021" lon="-0.7101355471438476"><ele>255.0</ele><time>2026-04-29T09:34:44Z</time></trkpt><trkpt lat="43.33171024690419" lon="-0.7102599538286151"><ele>255.0</ele><time>2026-04-29T09:34:45Z</time></trkpt><trkpt lat="43.3317488730309" lon="-0.7103840017929949"><ele>255.0</ele><time>2026-04-29T09:34:46Z</time></trkpt><trkpt lat="43.33178714969982" lon="-0.7105054731595402"><ele>255.0</ele><time>2026-04-29T09:34:47Z</time></trkpt><trkpt lat="43.331826744670714" lon="-0.7106279759343168"><ele>254.4</ele><time>2026-04-29T09:34:48Z</time></trkpt><trkpt lat="43.331865597361734" lon="-0.7107504850036187"><ele>253.8</ele><time>2026-04-29T09:34:49Z</time></trkpt><trkpt lat="43.331898837693416" lon="-0.7108745024381067"><ele>253.2</ele><time>2026-04-29T09:34:50Z</time></trkpt><trkpt lat="43.33192475172126" lon="-0.7110029294453635"><ele>252.6</ele><time>2026-04-29T09:34:51Z</time></trkpt><trkpt lat="43.33194471614951" lon="-0.7111288416691629"><ele>252.0</ele><time>2026-04-29T09:34:52Z</time></trkpt><trkpt lat="43.33195879141875" lon="-0.7112555468857912"><ele>251.0</ele><time>2026-04-29T09:34:53Z</time></trkpt><trkpt lat="43.33196253293484" lon="-0.7113828420769118"><ele>250.0</ele><time>2026-04-29T09:34:54Z</time></trkpt><trkpt lat="43.331962301854574" lon="-0.7115088439942822"><ele>249.0</ele><time>2026-04-29T09:34:55Z</time></trkpt><trkpt lat="43.331954298247794" lon="-0.7116278964589597"><ele>248.0</ele><time>2026-04-29T09:34:56Z</time></trkpt><trkpt lat="43.33194055477667" lon="-0.7117390876644045"><ele>247.0</ele><time>2026-04-29T09:34:57Z</time></trkpt><trkpt lat="43.33192973642421" lon="-0.7118362999632171"><ele>246.0</ele><time>2026-04-29T09:34:58Z</time></trkpt><trkpt lat="43.331928629281805" lon="-0.7119605320058962"><ele>244.33333333333334</ele><time>2026-04-29T09:35:00Z</time></trkpt><trkpt lat="43.331898494632675" lon="-0.7120504644817748"><ele>242.66666666666669</ele><time>2026-04-29T09:39:33Z</time></trkpt><trkpt lat="43.33189812989275" lon="-0.7121555087435748"><ele>241.0</ele><time>2026-04-29T09:39:36Z</time></trkpt><trkpt lat="43.33188657241584" lon="-0.7123094820867165"><ele>239.33333333333334</ele><time>2026-04-29T09:39:38Z</time></trkpt><trkpt lat="43.331892985167194" lon="-0.712409459834648"><ele>237.66666666666669</ele><time>2026-04-29T09:39:39Z</time></trkpt><trkpt lat="43.33190407796653" lon="-0.7125187571101531"><ele>236.0</ele><time>2026-04-29T09:39:40Z</time></trkpt><trkpt lat="43.33191781959841" lon="-0.7126370873028909"><ele>235.0</ele><time>2026-04-29T09:39:41Z</time></trkpt><trkpt lat="43.331938758617696" lon="-0.7127632279827776"><ele>234.00000000000003</ele><time>2026-04-29T09:39:42Z</time></trkpt><trkpt lat="43.3319633634365" lon="-0.7128932251877581"><ele>233.00000000000003</ele><time>2026-04-29T09:39:43Z</time></trkpt><trkpt lat="43.33198137203838" lon="-0.7130314867710648"><ele>232.0</ele><time>2026-04-29T09:39:44.001Z</time></trkpt><trkpt lat="43.331994135841136" lon="-0.7131763200572083"><ele>231.0</ele><time>2026-04-29T09:39:45.001Z</time></trkpt><trkpt lat="43.33199062197957" lon="-0.7133251012420965"><ele>231.0</ele><time>2026-04-29T09:39:46.001Z</time></trkpt><trkpt lat="43.331974491962235" lon="-0.7134786003205098"><ele>231.00000000000003</ele><time>2026-04-29T09:39:47.001Z</time></trkpt><trkpt lat="43.33195500323406" lon="-0.7136317078307801"><ele>231.00000000000003</ele><time>2026-04-29T09:39:48.001Z</time></trkpt><trkpt lat="43.331933441560274" lon="-0.7137797454755354"><ele>231.0</ele><time>2026-04-29T09:39:49.001Z</time></trkpt><trkpt lat="43.33191195547022" lon="-0.7139271498955728"><ele>231.0</ele><time>2026-04-29T09:39:50.001Z</time></trkpt><trkpt lat="43.33188998568861" lon="-0.7140756246589873"><ele>229.4</ele><time>2026-04-29T09:39:51.001Z</time></trkpt><trkpt lat="43.331864123662506" lon="-0.714222394388573"><ele>227.8</ele><time>2026-04-29T09:39:52.001Z</time></trkpt><trkpt lat="43.331839232794124" lon="-0.7143659646097588"><ele>226.20000000000002</ele><time>2026-04-29T09:39:53.001Z</time></trkpt><trkpt lat="43.33181561429301" lon="-0.7144968834127401"><ele>224.60000000000002</ele><time>2026-04-29T09:39:54.001Z</time></trkpt><trkpt lat="43.33179125923907" lon="-0.7146174129442832"><ele>223.0</ele><time>2026-04-29T09:39:55.001Z</time></trkpt><trkpt lat="43.33176561896747" lon="-0.7147203119701794"><ele>223.0</ele><time>2026-04-29T09:39:56.001Z</time></trkpt><trkpt lat="43.33174090638795" lon="-0.7148067716184284"><ele>223.0</ele><time>2026-04-29T09:39:57.001Z</time></trkpt><trkpt lat="43.33169117765198" lon="-0.7149364678654301"><ele>223.0</ele><time>2026-04-29T09:39:59.001Z</time></trkpt><trkpt lat="43.33164988071295" lon="-0.7150102301293334"><ele>223.0</ele><time>2026-04-29T09:40:02.001Z</time></trkpt><trkpt lat="43.33156499744664" lon="-0.7150723846168341"><ele>223.0</ele><time>2026-04-29T09:40:36Z</time></trkpt><trkpt lat="43.33146957456525" lon="-0.715174554456187"><ele>222.66666666666666</ele><time>2026-04-29T09:40:38Z</time></trkpt><trkpt lat="43.33140967132742" lon="-0.7152394805281999"><ele>222.33333333333331</ele><time>2026-04-29T09:40:39Z</time></trkpt><trkpt lat="43.331342309227175" lon="-0.7153090552617597"><ele>222.0</ele><time>2026-04-29T09:40:40Z</time></trkpt><trkpt lat="43.3312669919859" lon="-0.7153790693288689"><ele>221.66666666666669</ele><time>2026-04-29T09:40:41Z</time></trkpt><trkpt lat="43.33118400455201" lon="-0.7154430682844166"><ele>221.33333333333334</ele><time>2026-04-29T09:40:42Z</time></trkpt><trkpt lat="43.33109341202206" lon="-0.7155077892053324"><ele>221.0</ele><time>2026-04-29T09:40:43Z</time></trkpt><trkpt lat="43.331002519694046" lon="-0.7155793389752143"><ele>219.60000000000002</ele><time>2026-04-29T09:40:44Z</time></trkpt><trkpt lat="43.33090794255547" lon="-0.7156524095677314"><ele>218.20000000000002</ele><time>2026-04-29T09:40:45Z</time></trkpt><trkpt lat="43.330809732934775" lon="-0.7157239787308599"><ele>216.79999999999998</ele><time>2026-04-29T09:40:46Z</time></trkpt><trkpt lat="43.33071008540231" lon="-0.7157996222330832"><ele>215.39999999999998</ele><time>2026-04-29T09:40:47Z</time></trkpt><trkpt lat="43.33060980366428" lon="-0.7158772377914582"><ele>214.0</ele><time>2026-04-29T09:40:48Z</time></trkpt><trkpt lat="43.33050759673469" lon="-0.7159540191732837"><ele>212.25</ele><time>2026-04-29T09:40:49Z</time></trkpt><trkpt lat="43.33040380961766" lon="-0.7160215394100707"><ele>210.5</ele><time>2026-04-29T09:40:50Z</time></trkpt><trkpt lat="43.330299537821034" lon="-0.7160960179026875"><ele>208.75</ele><time>2026-04-29T09:40:51Z</time></trkpt><trkpt lat="43.330195739828845" lon="-0.7161805431870047"><ele>207.0</ele><time>2026-04-29T09:40:52Z</time></trkpt><trkpt lat="43.33009203892578" lon="-0.7162638382343626"><ele>207.0</ele><time>2026-04-29T09:40:53Z</time></trkpt><trkpt lat="43.329994572007976" lon="-0.7163482182433849"><ele>207.0</ele><time>2026-04-29T09:40:54Z</time></trkpt><trkpt lat="43.329894528578635" lon="-0.7164303735276926"><ele>207.0</ele><time>2026-04-29T09:40:55Z</time></trkpt><trkpt lat="43.32980477884227" lon="-0.7165123655418445"><ele>207.0</ele><time>2026-04-29T09:40:56Z</time></trkpt><trkpt lat="43.329728168521044" lon="-0.7166109824836416"><ele>207.0</ele><time>2026-04-29T09:40:57Z</time></trkpt><trkpt lat="43.32957220581403" lon="-0.716624786310809"><ele>205.0</ele><time>2026-04-29T09:40:58Z</time></trkpt><trkpt lat="43.329466480202726" lon="-0.716697376408127"><ele>203.0</ele><time>2026-04-29T09:40:59Z</time></trkpt><trkpt lat="43.32935916352332" lon="-0.7167753269180233"><ele>201.0</ele><time>2026-04-29T09:41:00Z</time></trkpt><trkpt lat="43.32925311243427" lon="-0.7168553970219904"><ele>199.0</ele><time>2026-04-29T09:41:01Z</time></trkpt><trkpt lat="43.329152139602954" lon="-0.7169456901164394"><ele>199.0</ele><time>2026-04-29T09:41:02Z</time></trkpt><trkpt lat="43.32905794103834" lon="-0.7170500939354271"><ele>199.0</ele><time>2026-04-29T09:41:03Z</time></trkpt><trkpt lat="43.328992555473576" lon="-0.7171863929287386"><ele>199.0</ele><time>2026-04-29T09:41:04Z</time></trkpt><trkpt lat="43.328930388905704" lon="-0.7173285418490425"><ele>199.0</ele><time>2026-04-29T09:41:05Z</time></trkpt><trkpt lat="43.32888282635327" lon="-0.7174823736058191"><ele>196.5</ele><time>2026-04-29T09:41:06Z</time></trkpt><trkpt lat="43.32884803481749" lon="-0.717638002014464"><ele>194.0</ele><time>2026-04-29T09:41:07Z</time></trkpt><trkpt lat="43.32880334199145" lon="-0.7177971627651727"><ele>191.5</ele><time>2026-04-29T09:41:08Z</time></trkpt><trkpt lat="43.328831751271814" lon="-0.7179624024592549"><ele>189.0</ele><time>2026-04-29T09:41:09Z</time></trkpt><trkpt lat="43.328834683889426" lon="-0.718120022001667"><ele>188.0</ele><time>2026-04-29T09:41:10Z</time></trkpt><trkpt lat="43.328833343171986" lon="-0.718285717889709"><ele>187.0</ele><time>2026-04-29T09:41:11Z</time></trkpt><trkpt lat="43.32884055086981" lon="-0.7184472568980981"><ele>186.0</ele><time>2026-04-29T09:41:12Z</time></trkpt><trkpt lat="43.32884952184143" lon="-0.718607684210119"><ele>185.0</ele><time>2026-04-29T09:41:13Z</time></trkpt><trkpt lat="43.328854617892894" lon="-0.7187668382062528"><ele>184.2</ele><time>2026-04-29T09:41:14Z</time></trkpt><trkpt lat="43.32885999181319" lon="-0.7189192809561351"><ele>183.4</ele><time>2026-04-29T09:41:15Z</time></trkpt><trkpt lat="43.328863423186924" lon="-0.7190689411412208"><ele>182.60000000000002</ele><time>2026-04-29T09:41:16Z</time></trkpt><trkpt lat="43.328868035436024" lon="-0.719213839989624"><ele>181.8</ele><time>2026-04-29T09:41:17Z</time></trkpt><trkpt lat="43.3288740756941" lon="-0.7193590509699755"><ele>181.0</ele><time>2026-04-29T09:41:18Z</time></trkpt><trkpt lat="43.32887776434615" lon="-0.7195026129856369"><ele>181.8</ele><time>2026-04-29T09:41:19Z</time></trkpt><trkpt lat="43.32889510046418" lon="-0.7196406967016854"><ele>182.60000000000002</ele><time>2026-04-29T09:41:20Z</time></trkpt><trkpt lat="43.32891713477979" lon="-0.7197741054751774"><ele>183.4</ele><time>2026-04-29T09:41:21Z</time></trkpt><trkpt lat="43.32894345547823" lon="-0.7198905486155712"><ele>184.2</ele><time>2026-04-29T09:41:22Z</time></trkpt><trkpt lat="43.32898677175208" lon="-0.7199913324878203"><ele>185.0</ele><time>2026-04-29T09:41:23Z</time></trkpt><trkpt lat="43.32903845113165" lon="-0.7200832823944507"><ele>185.0</ele><time>2026-04-29T09:41:24Z</time></trkpt><trkpt lat="43.32908358196191" lon="-0.7201806895237326"><ele>185.0</ele><time>2026-04-29T09:41:25Z</time></trkpt><trkpt lat="43.32912912908699" lon="-0.7202734545248533"><ele>185.0</ele><time>2026-04-29T09:41:26Z</time></trkpt><trkpt lat="43.329176020917124" lon="-0.7203586772828489"><ele>185.0</ele><time>2026-04-29T09:41:27Z</time></trkpt><trkpt lat="43.32921795950855" lon="-0.7204485373309525"><ele>185.0</ele><time>2026-04-29T09:41:28Z</time></trkpt><trkpt lat="43.3292617163576" lon="-0.720528235840428"><ele>185.0</ele><time>2026-04-29T09:41:29Z</time></trkpt><trkpt lat="43.32930829968477" lon="-0.7206097045657706"><ele>183.83333333333331</ele><time>2026-04-29T09:41:30Z</time></trkpt><trkpt lat="43.32935606387975" lon="-0.7206910630902892"><ele>182.66666666666666</ele><time>2026-04-29T09:41:31Z</time></trkpt><trkpt lat="43.32940345066196" lon="-0.7207752887351927"><ele>181.5</ele><time>2026-04-29T09:41:32Z</time></trkpt><trkpt lat="43.32945016861716" lon="-0.7208630636391712"><ele>180.33333333333334</ele><time>2026-04-29T09:41:33Z</time></trkpt><trkpt lat="43.32949957895457" lon="-0.7209480716694873"><ele>179.16666666666669</ele><time>2026-04-29T09:41:34Z</time></trkpt><trkpt lat="43.32955008073033" lon="-0.7210394927855158"><ele>178.0</ele><time>2026-04-29T09:41:35Z</time></trkpt><trkpt lat="43.329602534814526" lon="-0.7211358093725384"><ele>176.5</ele><time>2026-04-29T09:41:36Z</time></trkpt><trkpt lat="43.3296548714936" lon="-0.7212309241471885"><ele>175.0</ele><time>2026-04-29T09:41:37Z</time></trkpt><trkpt lat="43.32970512115521" lon="-0.7213261185992897"><ele>173.5</ele><time>2026-04-29T09:41:38Z</time></trkpt><trkpt lat="43.329751799040054" lon="-0.721419630259195"><ele>172.0</ele><time>2026-04-29T09:41:39Z</time></trkpt><trkpt lat="43.32979814493108" lon="-0.7215092970734096"><ele>170.5</ele><time>2026-04-29T09:41:40Z</time></trkpt><trkpt lat="43.329845709630085" lon="-0.7216013955984197"><ele>169.0</ele><time>2026-04-29T09:41:41Z</time></trkpt><trkpt lat="43.32989285413137" lon="-0.7216917494464283"><ele>169.0</ele><time>2026-04-29T09:41:42Z</time></trkpt><trkpt lat="43.3299363140197" lon="-0.7217835880260178"><ele>169.0</ele><time>2026-04-29T09:41:43Z</time></trkpt><trkpt lat="43.329980160914744" lon="-0.7218733211023308"><ele>169.0</ele><time>2026-04-29T09:41:44Z</time></trkpt><trkpt lat="43.33002504418154" lon="-0.7219662572664793"><ele>169.0</ele><time>2026-04-29T09:41:45Z</time></trkpt><trkpt lat="43.33006750471149" lon="-0.7220535615155371"><ele>169.0</ele><time>2026-04-29T09:41:46Z</time></trkpt><trkpt lat="43.33010554989331" lon="-0.7221445449158037"><ele>169.0</ele><time>2026-04-29T09:41:47Z</time></trkpt><trkpt lat="43.33014054516885" lon="-0.7222347672199966"><ele>169.16666666666669</ele><time>2026-04-29T09:41:48Z</time></trkpt><trkpt lat="43.330173230447" lon="-0.7223288869613146"><ele>169.33333333333334</ele><time>2026-04-29T09:41:49Z</time></trkpt><trkpt lat="43.330201998823426" lon="-0.7224178575911918"><ele>169.5</ele><time>2026-04-29T09:41:50Z</time></trkpt><trkpt lat="43.330227524553536" lon="-0.7225050810766048"><ele>169.66666666666666</ele><time>2026-04-29T09:41:51Z</time></trkpt><trkpt lat="43.33024832479121" lon="-0.7225909638221149"><ele>169.83333333333331</ele><time>2026-04-29T09:41:52Z</time></trkpt><trkpt lat="43.33026749558381" lon="-0.722674062519624"><ele>170.0</ele><time>2026-04-29T09:41:53Z</time></trkpt><trkpt lat="43.33029611236642" lon="-0.72284311897389"><ele>170.0</ele><time>2026-04-29T09:41:55.001Z</time></trkpt><trkpt lat="43.330310821089995" lon="-0.7229343841032491"><ele>170.0</ele><time>2026-04-29T09:41:56.001Z</time></trkpt><trkpt lat="43.33031830170642" lon="-0.7230342150955005"><ele>170.0</ele><time>2026-04-29T09:41:57.001Z</time></trkpt><trkpt lat="43.3303225668099" lon="-0.723136333289106"><ele>170.0</ele><time>2026-04-29T09:41:58.001Z</time></trkpt><trkpt lat="43.330322053196525" lon="-0.7232326993878732"><ele>170.0</ele><time>2026-04-29T09:41:59.001Z</time></trkpt><trkpt lat="43.33031830429724" lon="-0.723335253147556"><ele>170.0</ele><time>2026-04-29T09:42:00.001Z</time></trkpt><trkpt lat="43.33030775599401" lon="-0.7234322850236142"><ele>170.0</ele><time>2026-04-29T09:42:01.001Z</time></trkpt><trkpt lat="43.33029079075169" lon="-0.7235286397298691"><ele>170.14285714285714</ele><time>2026-04-29T09:42:02.001Z</time></trkpt><trkpt lat="43.33026979256333" lon="-0.7236250013133564"><ele>170.28571428571428</ele><time>2026-04-29T09:42:03.001Z</time></trkpt><trkpt lat="43.330250012565266" lon="-0.7237183179111675"><ele>170.42857142857142</ele><time>2026-04-29T09:42:04.001Z</time></trkpt><trkpt lat="43.33023136881737" lon="-0.7238112037561404"><ele>170.57142857142856</ele><time>2026-04-29T09:42:05.001Z</time></trkpt><trkpt lat="43.33020509794783" lon="-0.723909607931143"><ele>170.71428571428572</ele><time>2026-04-29T09:42:06.001Z</time></trkpt><trkpt lat="43.330177166981414" lon="-0.724005086757323"><ele>170.85714285714283</ele><time>2026-04-29T09:42:07.001Z</time></trkpt><trkpt lat="43.33015080811831" lon="-0.7240992490059034"><ele>171.0</ele><time>2026-04-29T09:42:08.001Z</time></trkpt><trkpt lat="43.33012441478018" lon="-0.7241916751525794"><ele>170.99999999999997</ele><time>2026-04-29T09:42:09.001Z</time></trkpt><trkpt lat="43.33010121138564" lon="-0.7242883852177849"><ele>171.0</ele><time>2026-04-29T09:42:10.001Z</time></trkpt><trkpt lat="43.3300737873264" lon="-0.7243819242817134"><ele>171.0</ele><time>2026-04-29T09:42:11.001Z</time></trkpt><trkpt lat="43.330047655763714" lon="-0.7244766763064476"><ele>171.0</ele><time>2026-04-29T09:42:12.001Z</time></trkpt><trkpt lat="43.33002164107077" lon="-0.7245712818072809"><ele>171.0</ele><time>2026-04-29T09:42:13.001Z</time></trkpt><trkpt lat="43.32999617320627" lon="-0.7246631489254544"><ele>170.99999999999997</ele><time>2026-04-29T09:42:14.001Z</time></trkpt><trkpt lat="43.32997320590071" lon="-0.7247610863239775"><ele>171.0</ele><time>2026-04-29T09:42:15.001Z</time></trkpt><trkpt lat="43.32994554930479" lon="-0.7248582182128042"><ele>171.33333333333334</ele><time>2026-04-29T09:42:16.001Z</time></trkpt><trkpt lat="43.32992109381176" lon="-0.7249550731795975"><ele>171.66666666666666</ele><time>2026-04-29T09:42:17.001Z</time></trkpt><trkpt lat="43.32989250055141" lon="-0.7250580115882407"><ele>172.0</ele><time>2026-04-29T09:42:18.001Z</time></trkpt><trkpt lat="43.32986928979782" lon="-0.7251690166560744"><ele>172.33333333333331</ele><time>2026-04-29T09:42:19.001Z</time></trkpt><trkpt lat="43.32984778544038" lon="-0.7252823481742148"><ele>172.66666666666666</ele><time>2026-04-29T09:42:20.001Z</time></trkpt><trkpt lat="43.32982729739626" lon="-0.7253989956304632"><ele>173.0</ele><time>2026-04-29T09:42:21.001Z</time></trkpt><trkpt lat="43.32980672924839" lon="-0.7255107605564806"><ele>173.0</ele><time>2026-04-29T09:42:22.001Z</time></trkpt><trkpt lat="43.329784888622605" lon="-0.7256340649349853"><ele>173.0</ele><time>2026-04-29T09:42:23.001Z</time></trkpt><trkpt lat="43.329768047178455" lon="-0.7257514492219442"><ele>173.0</ele><time>2026-04-29T09:42:24.001Z</time></trkpt><trkpt lat="43.329749585876186" lon="-0.7258775040046703"><ele>173.0</ele><time>2026-04-29T09:42:25.001Z</time></trkpt><trkpt lat="43.32973263082366" lon="-0.7260031935339262"><ele>173.0</ele><time>2026-04-29T09:42:26.001Z</time></trkpt><trkpt lat="43.3297143969968" lon="-0.726128558020425"><ele>173.33333333333331</ele><time>2026-04-29T09:42:27.001Z</time></trkpt><trkpt lat="43.32969581261975" lon="-0.7262518611806636"><ele>173.66666666666666</ele><time>2026-04-29T09:42:28.001Z</time></trkpt><trkpt lat="43.32968101417034" lon="-0.7263741814726181"><ele>174.0</ele><time>2026-04-29T09:42:29.001Z</time></trkpt><trkpt lat="43.329664857637475" lon="-0.7264958511735623"><ele>174.33333333333334</ele><time>2026-04-29T09:42:30.001Z</time></trkpt><trkpt lat="43.32965040865679" lon="-0.7266111345262966"><ele>174.66666666666669</ele><time>2026-04-29T09:42:31.001Z</time></trkpt><trkpt lat="43.32963714024524" lon="-0.7267304350128224"><ele>175.0</ele><time>2026-04-29T09:42:32.001Z</time></trkpt><trkpt lat="43.3296232345364" lon="-0.726852920307691"><ele>174.5</ele><time>2026-04-29T09:42:33.001Z</time></trkpt><trkpt lat="43.32960904618013" lon="-0.7269703942464374"><ele>174.0</ele><time>2026-04-29T09:42:34.001Z</time></trkpt><trkpt lat="43.32960286387809" lon="-0.7270805473229198"><ele>173.5</ele><time>2026-04-29T09:42:35.001Z</time></trkpt><trkpt lat="43.32959539292062" lon="-0.7271946357204432"><ele>173.0</ele><time>2026-04-29T09:42:36.001Z</time></trkpt><trkpt lat="43.3295954567407" lon="-0.727318840211286"><ele>172.5</ele><time>2026-04-29T09:42:37.001Z</time></trkpt><trkpt lat="43.32958349051689" lon="-0.7274241586221101"><ele>172.0</ele><time>2026-04-29T09:42:38Z</time></trkpt><trkpt lat="43.32958042476196" lon="-0.7275347261417497"><ele>172.0</ele><time>2026-04-29T09:42:39Z</time></trkpt><trkpt lat="43.32957728385766" lon="-0.7276424267063483"><ele>172.0</ele><time>2026-04-29T09:42:40Z</time></trkpt><trkpt lat="43.32957972208021" lon="-0.7277401691578141"><ele>172.0</ele><time>2026-04-29T09:42:41Z</time></trkpt><trkpt lat="43.32957929523208" lon="-0.7278448895884411"><ele>172.0</ele><time>2026-04-29T09:42:42Z</time></trkpt><trkpt lat="43.329573598608924" lon="-0.7279528414146049"><ele>172.0</ele><time>2026-04-29T09:42:43Z</time></trkpt><trkpt lat="43.32956864424053" lon="-0.7280582129371385"><ele>172.0</ele><time>2026-04-29T09:42:44Z</time></trkpt><trkpt lat="43.329561943511486" lon="-0.7281747567345643"><ele>171.6</ele><time>2026-04-29T09:42:45Z</time></trkpt><trkpt lat="43.32956725839926" lon="-0.7283007076037816"><ele>171.2</ele><time>2026-04-29T09:42:46Z</time></trkpt><trkpt lat="43.32956240713668" lon="-0.7284393201696137"><ele>170.8</ele><time>2026-04-29T09:42:47Z</time></trkpt><trkpt lat="43.32955922893233" lon="-0.7285759649741923"><ele>170.4</ele><time>2026-04-29T09:42:48Z</time></trkpt><trkpt lat="43.32956298867075" lon="-0.7287137089763087"><ele>170.0</ele><time>2026-04-29T09:42:49Z</time></trkpt><trkpt lat="43.32955857719806" lon="-0.7288599821074253"><ele>169.0</ele><time>2026-04-29T09:42:50Z</time></trkpt><trkpt lat="43.32955274639106" lon="-0.7290036093641861"><ele>168.0</ele><time>2026-04-29T09:42:51Z</time></trkpt><trkpt lat="43.32954835249889" lon="-0.7291416483239338"><ele>167.0</ele><time>2026-04-29T09:42:52Z</time></trkpt><trkpt lat="43.3295460311931" lon="-0.7292874033179765"><ele>166.0</ele><time>2026-04-29T09:42:53Z</time></trkpt><trkpt lat="43.329539195737674" lon="-0.7294271757628253"><ele>165.0</ele><time>2026-04-29T09:42:54Z</time></trkpt><trkpt lat="43.32953463112326" lon="-0.7295669915930567"><ele>165.0</ele><time>2026-04-29T09:42:55Z</time></trkpt><trkpt lat="43.3295334667537" lon="-0.7297063263862612"><ele>165.0</ele><time>2026-04-29T09:42:56Z</time></trkpt><trkpt lat="43.32952820810958" lon="-0.7298405142887607"><ele>165.0</ele><time>2026-04-29T09:42:57Z</time></trkpt><trkpt lat="43.32952366369415" lon="-0.7299778714715938"><ele>165.0</ele><time>2026-04-29T09:42:58Z</time></trkpt><trkpt lat="43.329516811381964" lon="-0.7301118912570389"><ele>165.0</ele><time>2026-04-29T09:42:59Z</time></trkpt><trkpt lat="43.32953252941066" lon="-0.7302027557339728"><ele>165.0</ele><time>2026-04-29T09:43:00Z</time></trkpt><trkpt lat="43.32951987889193" lon="-0.7303658400882509"><ele>165.0</ele><time>2026-04-29T09:43:01Z</time></trkpt><trkpt lat="43.32950910317576" lon="-0.7304997176395791"><ele>165.0</ele><time>2026-04-29T09:43:02Z</time></trkpt><trkpt lat="43.329508624821074" lon="-0.7306338369789148"><ele>165.0</ele><time>2026-04-29T09:43:03Z</time></trkpt><trkpt lat="43.329502521254625" lon="-0.7307690693179072"><ele>165.0</ele><time>2026-04-29T09:43:04Z</time></trkpt><trkpt lat="43.329497723916816" lon="-0.7309007280016349"><ele>165.0</ele><time>2026-04-29T09:43:05Z</time></trkpt><trkpt lat="43.32949500420739" lon="-0.7310346774939608"><ele>165.0</ele><time>2026-04-29T09:43:06Z</time></trkpt><trkpt lat="43.32949071885028" lon="-0.7311660607485992"><ele>165.0</ele><time>2026-04-29T09:43:07Z</time></trkpt><trkpt lat="43.32948788323026" lon="-0.731297884883751"><ele>165.0</ele><time>2026-04-29T09:43:08Z</time></trkpt><trkpt lat="43.32948441387231" lon="-0.7314327483291121"><ele>165.0</ele><time>2026-04-29T09:43:09Z</time></trkpt><trkpt lat="43.329485388495186" lon="-0.7315600585510731"><ele>164.8</ele><time>2026-04-29T09:43:10Z</time></trkpt><trkpt lat="43.32948250464768" lon="-0.7316875344548444"><ele>164.6</ele><time>2026-04-29T09:43:11Z</time></trkpt><trkpt lat="43.329486086789935" lon="-0.7318167491646254"><ele>164.39999999999998</ele><time>2026-04-29T09:43:12Z</time></trkpt><trkpt lat="43.32948630476831" lon="-0.7319441686794798"><ele>164.2</ele><time>2026-04-29T09:43:13Z</time></trkpt><trkpt lat="43.329493449877006" lon="-0.7320626090419068"><ele>164.0</ele><time>2026-04-29T09:43:14Z</time></trkpt><trkpt lat="43.32949800914055" lon="-0.7321871312046975"><ele>164.0</ele><time>2026-04-29T09:43:15Z</time></trkpt><trkpt lat="43.32950185295852" lon="-0.7323089011351978"><ele>164.0</ele><time>2026-04-29T09:43:16Z</time></trkpt><trkpt lat="43.32950453080348" lon="-0.7324337389886381"><ele>164.0</ele><time>2026-04-29T09:43:17Z</time></trkpt><trkpt lat="43.329517129813304" lon="-0.7325524621562178"><ele>164.0</ele><time>2026-04-29T09:43:18Z</time></trkpt><trkpt lat="43.32952502527295" lon="-0.7326713191791365"><ele>164.0</ele><time>2026-04-29T09:43:19Z</time></trkpt><trkpt lat="43.32953415225315" lon="-0.7327966043493196"><ele>164.0</ele><time>2026-04-29T09:43:20Z</time></trkpt><trkpt lat="43.32954892487138" lon="-0.7329192671934887"><ele>164.0</ele><time>2026-04-29T09:43:21Z</time></trkpt><trkpt lat="43.32956217595199" lon="-0.7330415575610046"><ele>164.0</ele><time>2026-04-29T09:43:22Z</time></trkpt><trkpt lat="43.329579782966995" lon="-0.733162352867575"><ele>164.0</ele><time>2026-04-29T09:43:23Z</time></trkpt><trkpt lat="43.32959561810208" lon="-0.7332768359854294"><ele>164.0</ele><time>2026-04-29T09:43:24Z</time></trkpt><trkpt lat="43.32961112745757" lon="-0.7333952993259055"><ele>164.0</ele><time>2026-04-29T09:43:25Z</time></trkpt><trkpt lat="43.329628495447835" lon="-0.7335150811792613"><ele>164.0</ele><time>2026-04-29T09:43:26Z</time></trkpt><trkpt lat="43.329648419822966" lon="-0.7336319327103301"><ele>164.16666666666666</ele><time>2026-04-29T09:43:27Z</time></trkpt><trkpt lat="43.32966498404611" lon="-0.7337440876103242"><ele>164.33333333333331</ele><time>2026-04-29T09:43:28Z</time></trkpt><trkpt lat="43.32968565786848" lon="-0.7338580919930712"><ele>164.5</ele><time>2026-04-29T09:43:29Z</time></trkpt><trkpt lat="43.32969999456942" lon="-0.733975040995159"><ele>164.66666666666666</ele><time>2026-04-29T09:43:30Z</time></trkpt><trkpt lat="43.32971264205672" lon="-0.734093075318027"><ele>164.83333333333334</ele><time>2026-04-29T09:43:31Z</time></trkpt><trkpt lat="43.329736167418496" lon="-0.7342048467778719"><ele>165.0</ele><time>2026-04-29T09:43:32Z</time></trkpt><trkpt lat="43.329756971844304" lon="-0.7343213298181388"><ele>166.16666666666666</ele><time>2026-04-29T09:43:33Z</time></trkpt><trkpt lat="43.32977696371497" lon="-0.734435592683615"><ele>167.33333333333334</ele><time>2026-04-29T09:43:34Z</time></trkpt><trkpt lat="43.32979410437956" lon="-0.7345473762131158"><ele>168.5</ele><time>2026-04-29T09:43:35Z</time></trkpt><trkpt lat="43.32981077320051" lon="-0.734664074047834"><ele>169.66666666666669</ele><time>2026-04-29T09:43:36Z</time></trkpt><trkpt lat="43.329827125169956" lon="-0.7347816431645677"><ele>170.83333333333334</ele><time>2026-04-29T09:43:37Z</time></trkpt><trkpt lat="43.32984718930943" lon="-0.7348956470516899"><ele>172.0</ele><time>2026-04-29T09:43:38Z</time></trkpt><trkpt lat="43.32986786995307" lon="-0.7350105160612234"><ele>172.0</ele><time>2026-04-29T09:43:39Z</time></trkpt><trkpt lat="43.32988792451745" lon="-0.7351242106796061"><ele>172.0</ele><time>2026-04-29T09:43:40Z</time></trkpt><trkpt lat="43.32990787633435" lon="-0.7352366605302865"><ele>172.0</ele><time>2026-04-29T09:43:41Z</time></trkpt><trkpt lat="43.32992695403226" lon="-0.7353510437755039"><ele>172.0</ele><time>2026-04-29T09:43:42Z</time></trkpt><trkpt lat="43.32994447742449" lon="-0.7354626171769211"><ele>172.0</ele><time>2026-04-29T09:43:43Z</time></trkpt><trkpt lat="43.329965782927296" lon="-0.7355741504935522"><ele>172.0</ele><time>2026-04-29T09:43:44Z</time></trkpt><trkpt lat="43.329987404133504" lon="-0.7356853193585147"><ele>171.5</ele><time>2026-04-29T09:43:45Z</time></trkpt><trkpt lat="43.33000555404836" lon="-0.7357993290629065"><ele>171.0</ele><time>2026-04-29T09:43:46Z</time></trkpt><trkpt lat="43.330025105052336" lon="-0.7359140158014008"><ele>170.5</ele><time>2026-04-29T09:43:47Z</time></trkpt><trkpt lat="43.33004515049181" lon="-0.7360271320868939"><ele>170.0</ele><time>2026-04-29T09:43:48Z</time></trkpt><trkpt lat="43.33006862436739" lon="-0.7361402609118612"><ele>169.5</ele><time>2026-04-29T09:43:49Z</time></trkpt><trkpt lat="43.330090028726154" lon="-0.7362531808438754"><ele>169.0</ele><time>2026-04-29T09:43:50Z</time></trkpt><trkpt lat="43.330113390524396" lon="-0.7363648181887668"><ele>167.33333333333334</ele><time>2026-04-29T09:43:51Z</time></trkpt><trkpt lat="43.330135050460754" lon="-0.7364803504723292"><ele>165.66666666666669</ele><time>2026-04-29T09:43:52Z</time></trkpt><trkpt lat="43.330153649762934" lon="-0.7365920625125195"><ele>164.0</ele><time>2026-04-29T09:43:53Z</time></trkpt><trkpt lat="43.330173416214855" lon="-0.7367087363562519"><ele>162.33333333333334</ele><time>2026-04-29T09:43:54Z</time></trkpt><trkpt lat="43.330193464042175" lon="-0.7368242508348253"><ele>160.66666666666666</ele><time>2026-04-29T09:43:55Z</time></trkpt><trkpt lat="43.33021541673161" lon="-0.7369413575291869"><ele>159.0</ele><time>2026-04-29T09:43:56Z</time></trkpt><trkpt lat="43.33023757312099" lon="-0.7370577482224843"><ele>158.5</ele><time>2026-04-29T09:43:57Z</time></trkpt><trkpt lat="43.330258216151606" lon="-0.7371725802779815"><ele>158.0</ele><time>2026-04-29T09:43:58Z</time></trkpt><trkpt lat="43.3302745283972" lon="-0.73728892730797"><ele>157.5</ele><time>2026-04-29T09:43:59Z</time></trkpt><trkpt lat="43.330289225391695" lon="-0.7374072978203562"><ele>157.0</ele><time>2026-04-29T09:44:00Z</time></trkpt><trkpt lat="43.330301187292214" lon="-0.7375290686087878"><ele>156.5</ele><time>2026-04-29T09:44:01Z</time></trkpt><trkpt lat="43.33030510090982" lon="-0.7376561433449202"><ele>156.0</ele><time>2026-04-29T09:44:02Z</time></trkpt><trkpt lat="43.33030758851238" lon="-0.7377834907824742"><ele>156.0</ele><time>2026-04-29T09:44:03Z</time></trkpt><trkpt lat="43.33030719026391" lon="-0.7379137457479824"><ele>156.0</ele><time>2026-04-29T09:44:04Z</time></trkpt><trkpt lat="43.33030535364796" lon="-0.7380419887648606"><ele>156.0</ele><time>2026-04-29T09:44:05Z</time></trkpt><trkpt lat="43.33030026632113" lon="-0.738169647815108"><ele>156.0</ele><time>2026-04-29T09:44:06Z</time></trkpt><trkpt lat="43.33028921782099" lon="-0.7383023328361502"><ele>156.0</ele><time>2026-04-29T09:44:07Z</time></trkpt><trkpt lat="43.33027646376673" lon="-0.738436829077262"><ele>155.6</ele><time>2026-04-29T09:44:08Z</time></trkpt><trkpt lat="43.33025960786416" lon="-0.738571700037882"><ele>155.2</ele><time>2026-04-29T09:44:09Z</time></trkpt><trkpt lat="43.33023616531137" lon="-0.738708541015684"><ele>154.8</ele><time>2026-04-29T09:44:10Z</time></trkpt><trkpt lat="43.330211191848804" lon="-0.738840212130771"><ele>154.4</ele><time>2026-04-29T09:44:11Z</time></trkpt><trkpt lat="43.330184773536075" lon="-0.7389699388763842"><ele>154.0</ele><time>2026-04-29T09:44:12Z</time></trkpt><trkpt lat="43.330153668910405" lon="-0.7390973425788626"><ele>154.0</ele><time>2026-04-29T09:44:13Z</time></trkpt><trkpt lat="43.33012078367963" lon="-0.739226370336887"><ele>154.0</ele><time>2026-04-29T09:44:14Z</time></trkpt><trkpt lat="43.33008007527162" lon="-0.7393497081018829"><ele>154.0</ele><time>2026-04-29T09:44:15Z</time></trkpt><trkpt lat="43.33003983130653" lon="-0.7394723449565584"><ele>154.0</ele><time>2026-04-29T09:44:16Z</time></trkpt><trkpt lat="43.3299967616813" lon="-0.7395942505556441"><ele>154.0</ele><time>2026-04-29T09:44:17Z</time></trkpt><trkpt lat="43.32995024158712" lon="-0.7397123792690146"><ele>154.2</ele><time>2026-04-29T09:44:18Z</time></trkpt><trkpt lat="43.3299002577604" lon="-0.7398285625290032"><ele>154.4</ele><time>2026-04-29T09:44:19Z</time></trkpt><trkpt lat="43.32984666331588" lon="-0.7399406822862524"><ele>154.6</ele><time>2026-04-29T09:44:20Z</time></trkpt><trkpt lat="43.32979159356698" lon="-0.7400477524690584"><ele>154.8</ele><time>2026-04-29T09:44:21Z</time></trkpt><trkpt lat="43.32973831319929" lon="-0.7401537337969033"><ele>155.0</ele><time>2026-04-29T09:44:22Z</time></trkpt><trkpt lat="43.32968294946546" lon="-0.7402572604297343"><ele>154.6</ele><time>2026-04-29T09:44:23Z</time></trkpt><trkpt lat="43.32962404248311" lon="-0.7403585236905179"><ele>154.2</ele><time>2026-04-29T09:44:24Z</time></trkpt><trkpt lat="43.329561558412" lon="-0.7404583653788109"><ele>153.8</ele><time>2026-04-29T09:44:25Z</time></trkpt><trkpt lat="43.32949720812073" lon="-0.7405520879886083"><ele>153.4</ele><time>2026-04-29T09:44:26Z</time></trkpt><trkpt lat="43.32943590703526" lon="-0.7406480809991061"><ele>153.0</ele><time>2026-04-29T09:44:27Z</time></trkpt><trkpt lat="43.32937263857401" lon="-0.7407481395950348"><ele>153.0</ele><time>2026-04-29T09:44:28Z</time></trkpt><trkpt lat="43.32930994619844" lon="-0.7408454380881471"><ele>153.0</ele><time>2026-04-29T09:44:29Z</time></trkpt><trkpt lat="43.329247107018375" lon="-0.7409421870382281"><ele>153.0</ele><time>2026-04-29T09:44:30Z</time></trkpt><trkpt lat="43.32918427809061" lon="-0.7410402198248768"><ele>153.0</ele><time>2026-04-29T09:44:31.001Z</time></trkpt><trkpt lat="43.32912174737707" lon="-0.7411382374590355"><ele>153.0</ele><time>2026-04-29T09:44:32.001Z</time></trkpt><trkpt lat="43.32905876388343" lon="-0.7412375726703361"><ele>152.8</ele><time>2026-04-29T09:44:33.001Z</time></trkpt><trkpt lat="43.32899635760678" lon="-0.7413364895116471"><ele>152.60000000000002</ele><time>2026-04-29T09:44:34.001Z</time></trkpt><trkpt lat="43.32893303764434" lon="-0.7414338936361473"><ele>152.39999999999998</ele><time>2026-04-29T09:44:35.001Z</time></trkpt><trkpt lat="43.32886983043424" lon="-0.7415335269569583"><ele>152.2</ele><time>2026-04-29T09:44:36.001Z</time></trkpt><trkpt lat="43.328807729081944" lon="-0.7416310238808838"><ele>152.0</ele><time>2026-04-29T09:44:37.001Z</time></trkpt><trkpt lat="43.328745430504874" lon="-0.7417280265316585"><ele>151.4</ele><time>2026-04-29T09:44:38.001Z</time></trkpt><trkpt lat="43.328684284357855" lon="-0.7418244215455211"><ele>150.79999999999998</ele><time>2026-04-29T09:44:39.001Z</time></trkpt><trkpt lat="43.32862492752817" lon="-0.7419211831220018"><ele>150.2</ele><time>2026-04-29T09:44:40.001Z</time></trkpt><trkpt lat="43.328565108976655" lon="-0.7420124415363057"><ele>149.6</ele><time>2026-04-29T09:44:41.001Z</time></trkpt><trkpt lat="43.328506590990145" lon="-0.7421035659917091"><ele>149.0</ele><time>2026-04-29T09:44:42.001Z</time></trkpt><trkpt lat="43.32844781674659" lon="-0.7421974061256558"><ele>149.0</ele><time>2026-04-29T09:44:43.001Z</time></trkpt><trkpt lat="43.32838979202793" lon="-0.742288926068219"><ele>149.0</ele><time>2026-04-29T09:44:44Z</time></trkpt><trkpt lat="43.328332810677786" lon="-0.7423782764807768"><ele>149.0</ele><time>2026-04-29T09:44:45Z</time></trkpt><trkpt lat="43.32827577128071" lon="-0.7424680546506751"><ele>149.0</ele><time>2026-04-29T09:44:46Z</time></trkpt><trkpt lat="43.328217057342634" lon="-0.7425579544546451"><ele>149.0</ele><time>2026-04-29T09:44:47Z</time></trkpt><trkpt lat="43.32816004360802" lon="-0.7426485863195937"><ele>149.0</ele><time>2026-04-29T09:44:48Z</time></trkpt><trkpt lat="43.32810191968238" lon="-0.7427414490141455"><ele>148.8</ele><time>2026-04-29T09:44:49Z</time></trkpt><trkpt lat="43.32804177244081" lon="-0.7428326909113488"><ele>148.60000000000002</ele><time>2026-04-29T09:44:50Z</time></trkpt><trkpt lat="43.32798402248555" lon="-0.7429250806574537"><ele>148.4</ele><time>2026-04-29T09:44:51Z</time></trkpt><trkpt lat="43.32792497523122" lon="-0.7430200896888727"><ele>148.20000000000002</ele><time>2026-04-29T09:44:52Z</time></trkpt><trkpt lat="43.32786500770749" lon="-0.7431133467808652"><ele>148.0</ele><time>2026-04-29T09:44:53Z</time></trkpt><trkpt lat="43.32780458748423" lon="-0.7432061336033258"><ele>148.0</ele><time>2026-04-29T09:44:54Z</time></trkpt><trkpt lat="43.32774169731246" lon="-0.7432949981026079"><ele>148.0</ele><time>2026-04-29T09:44:55Z</time></trkpt><trkpt lat="43.32768449147357" lon="-0.7433883003311278"><ele>148.0</ele><time>2026-04-29T09:44:56Z</time></trkpt><trkpt lat="43.32762530662167" lon="-0.7434796332433193"><ele>148.0</ele><time>2026-04-29T09:44:57Z</time></trkpt><trkpt lat="43.32756958108515" lon="-0.7435717678828143"><ele>148.0</ele><time>2026-04-29T09:44:58Z</time></trkpt><trkpt lat="43.327512761078765" lon="-0.7436665818371992"><ele>148.0</ele><time>2026-04-29T09:44:59Z</time></trkpt><trkpt lat="43.32745637717926" lon="-0.7437606306300442"><ele>147.66666666666669</ele><time>2026-04-29T09:45:00Z</time></trkpt><trkpt lat="43.327399145344614" lon="-0.7438515872461824"><ele>147.33333333333334</ele><time>2026-04-29T09:45:01Z</time></trkpt><trkpt lat="43.327340998777046" lon="-0.7439476035402954"><ele>147.0</ele><time>2026-04-29T09:45:02Z</time></trkpt><trkpt lat="43.32728254183355" lon="-0.744041006275267"><ele>146.66666666666666</ele><time>2026-04-29T09:45:03Z</time></trkpt><trkpt lat="43.327224452887535" lon="-0.7441365721967352"><ele>146.33333333333331</ele><time>2026-04-29T09:45:04Z</time></trkpt><trkpt lat="43.32716910905433" lon="-0.7442315305682976"><ele>146.0</ele><time>2026-04-29T09:45:05Z</time></trkpt><trkpt lat="43.327114805862976" lon="-0.74432299809715"><ele>146.33333333333331</ele><time>2026-04-29T09:45:06Z</time></trkpt><trkpt lat="43.32706055228496" lon="-0.7444156646924787"><ele>146.66666666666666</ele><time>2026-04-29T09:45:07Z</time></trkpt><trkpt lat="43.32701075436033" lon="-0.7445087950508574"><ele>147.0</ele><time>2026-04-29T09:45:08Z</time></trkpt><trkpt lat="43.32696289112174" lon="-0.7446038620215284"><ele>147.33333333333334</ele><time>2026-04-29T09:45:09Z</time></trkpt><trkpt lat="43.326916672781984" lon="-0.7447008921649686"><ele>147.66666666666669</ele><time>2026-04-29T09:45:10Z</time></trkpt><trkpt lat="43.326875850009316" lon="-0.7447971840764277"><ele>148.0</ele><time>2026-04-29T09:45:11Z</time></trkpt><trkpt lat="43.32683732965686" lon="-0.7448956491995563"><ele>148.0</ele><time>2026-04-29T09:45:12Z</time></trkpt><trkpt lat="43.326801092243585" lon="-0.7449956813717565"><ele>148.0</ele><time>2026-04-29T09:45:13Z</time></trkpt><trkpt lat="43.32676686015934" lon="-0.7450947935544178"><ele>148.0</ele><time>2026-04-29T09:45:14Z</time></trkpt><trkpt lat="43.326732820778226" lon="-0.7451955919600819"><ele>148.0</ele><time>2026-04-29T09:45:15Z</time></trkpt><trkpt lat="43.326700919934176" lon="-0.745295818087942"><ele>148.0</ele><time>2026-04-29T09:45:16Z</time></trkpt><trkpt lat="43.32667207566091" lon="-0.7453959694527874"><ele>148.0</ele><time>2026-04-29T09:45:17Z</time></trkpt><trkpt lat="43.32664801918746" lon="-0.7454978028080915"><ele>148.16666666666669</ele><time>2026-04-29T09:45:18Z</time></trkpt><trkpt lat="43.32662737548156" lon="-0.745599637485441"><ele>148.33333333333334</ele><time>2026-04-29T09:45:19Z</time></trkpt><trkpt lat="43.326607816861596" lon="-0.7457015891935779"><ele>148.5</ele><time>2026-04-29T09:45:20Z</time></trkpt><trkpt lat="43.32658945987607" lon="-0.7458000072995804"><ele>148.66666666666666</ele><time>2026-04-29T09:45:21Z</time></trkpt><trkpt lat="43.326573128857575" lon="-0.7459000511484932"><ele>148.83333333333331</ele><time>2026-04-29T09:45:22Z</time></trkpt><trkpt lat="43.32655986639702" lon="-0.7460008010776541"><ele>149.0</ele><time>2026-04-29T09:45:23Z</time></trkpt><trkpt lat="43.326548598298956" lon="-0.7460998792270469"><ele>149.71428571428572</ele><time>2026-04-29T09:45:24Z</time></trkpt><trkpt lat="43.32653746818399" lon="-0.7461986662280715"><ele>150.42857142857142</ele><time>2026-04-29T09:45:25Z</time></trkpt><trkpt lat="43.326528052838086" lon="-0.7462921338207397"><ele>151.14285714285714</ele><time>2026-04-29T09:45:26Z</time></trkpt><trkpt lat="43.3265249174073" lon="-0.746389519747063"><ele>151.85714285714286</ele><time>2026-04-29T09:45:27Z</time></trkpt><trkpt lat="43.326524501321074" lon="-0.7464892450932703"><ele>152.57142857142856</ele><time>2026-04-29T09:45:28Z</time></trkpt><trkpt lat="43.32652418343162" lon="-0.7465883682939778"><ele>153.28571428571428</ele><time>2026-04-29T09:45:29Z</time></trkpt><trkpt lat="43.326527686629845" lon="-0.7466846433644868"><ele>154.0</ele><time>2026-04-29T09:45:30Z</time></trkpt><trkpt lat="43.32652898461462" lon="-0.7467779279626211"><ele>154.0</ele><time>2026-04-29T09:45:31Z</time></trkpt><trkpt lat="43.32653484965879" lon="-0.7468723302678449"><ele>154.0</ele><time>2026-04-29T09:45:32Z</time></trkpt><trkpt lat="43.326542444597976" lon="-0.7469653771321161"><ele>154.0</ele><time>2026-04-29T09:45:33Z</time></trkpt><trkpt lat="43.32655262468699" lon="-0.7470601355470695"><ele>154.0</ele><time>2026-04-29T09:45:34Z</time></trkpt><trkpt lat="43.32656619337642" lon="-0.7471557713676498"><ele>154.0</ele><time>2026-04-29T09:45:35Z</time></trkpt><trkpt lat="43.32658026688904" lon="-0.747253559493747"><ele>154.0</ele><time>2026-04-29T09:45:36Z</time></trkpt><trkpt lat="43.32659311025635" lon="-0.7473528151832141"><ele>154.0</ele><time>2026-04-29T09:45:37Z</time></trkpt><trkpt lat="43.326608795372714" lon="-0.7474517194423576"><ele>154.83333333333334</ele><time>2026-04-29T09:45:38Z</time></trkpt><trkpt lat="43.32662821286305" lon="-0.7475501334347603"><ele>155.66666666666669</ele><time>2026-04-29T09:45:39Z</time></trkpt><trkpt lat="43.3266490416456" lon="-0.7476488025172974"><ele>156.5</ele><time>2026-04-29T09:45:40Z</time></trkpt><trkpt lat="43.326671088409206" lon="-0.7477469019070684"><ele>157.33333333333334</ele><time>2026-04-29T09:45:41Z</time></trkpt><trkpt lat="43.326696005116105" lon="-0.7478460827528906"><ele>158.16666666666666</ele><time>2026-04-29T09:45:42Z</time></trkpt><trkpt lat="43.32672273164018" lon="-0.7479465487852046"><ele>159.0</ele><time>2026-04-29T09:45:43Z</time></trkpt><trkpt lat="43.32675217858975" lon="-0.7480456487166496"><ele>160.0</ele><time>2026-04-29T09:45:44Z</time></trkpt><trkpt lat="43.32678329644489" lon="-0.7481444786288091"><ele>161.0</ele><time>2026-04-29T09:45:45Z</time></trkpt><trkpt lat="43.326814947083676" lon="-0.748243779381732"><ele>162.0</ele><time>2026-04-29T09:45:46Z</time></trkpt><trkpt lat="43.32684965112717" lon="-0.7483449501010381"><ele>163.0</ele><time>2026-04-29T09:45:47Z</time></trkpt><trkpt lat="43.32688329842759" lon="-0.7484490212934045"><ele>164.0</ele><time>2026-04-29T09:45:48Z</time></trkpt><trkpt lat="43.32691683942882" lon="-0.7485534440060146"><ele>165.0</ele><time>2026-04-29T09:45:49Z</time></trkpt><trkpt lat="43.32695217754005" lon="-0.7486624045308178"><ele>165.0</ele><time>2026-04-29T09:45:50Z</time></trkpt><trkpt lat="43.3269859844506" lon="-0.7487692167059654"><ele>165.0</ele><time>2026-04-29T09:45:51Z</time></trkpt><trkpt lat="43.32701720817923" lon="-0.7488743895549904"><ele>165.0</ele><time>2026-04-29T09:45:52Z</time></trkpt><trkpt lat="43.32704995225372" lon="-0.7489753943662045"><ele>165.0</ele><time>2026-04-29T09:45:53Z</time></trkpt><trkpt lat="43.32708329841581" lon="-0.749078117799215"><ele>165.0</ele><time>2026-04-29T09:45:54Z</time></trkpt><trkpt lat="43.3271188200163" lon="-0.7491819535021251"><ele>165.0</ele><time>2026-04-29T09:45:55Z</time></trkpt><trkpt lat="43.32715317166162" lon="-0.7492878265292855"><ele>165.0</ele><time>2026-04-29T09:45:56Z</time></trkpt><trkpt lat="43.32718793453454" lon="-0.7493948256005842"><ele>165.0</ele><time>2026-04-29T09:45:57Z</time></trkpt><trkpt lat="43.3272222572975" lon="-0.7495035479059663"><ele>165.0</ele><time>2026-04-29T09:45:58Z</time></trkpt><trkpt lat="43.32725736066401" lon="-0.7496148182823182"><ele>165.0</ele><time>2026-04-29T09:45:59Z</time></trkpt><trkpt lat="43.32729212657643" lon="-0.7497261249905216"><ele>165.0</ele><time>2026-04-29T09:46:00Z</time></trkpt><trkpt lat="43.32732952395278" lon="-0.7498389292133323"><ele>165.0</ele><time>2026-04-29T09:46:01Z</time></trkpt><trkpt lat="43.327364943675214" lon="-0.7499569607772284"><ele>164.0</ele><time>2026-04-29T09:46:02Z</time></trkpt><trkpt lat="43.32739757600258" lon="-0.750078740152723"><ele>163.0</ele><time>2026-04-29T09:46:03Z</time></trkpt><trkpt lat="43.32742879284397" lon="-0.7502042646231545"><ele>162.0</ele><time>2026-04-29T09:46:04Z</time></trkpt><trkpt lat="43.32746068861089" lon="-0.7503335688917362"><ele>161.0</ele><time>2026-04-29T09:46:05Z</time></trkpt><trkpt lat="43.327491739525904" lon="-0.7504670414255169"><ele>160.0</ele><time>2026-04-29T09:46:06Z</time></trkpt><trkpt lat="43.327521114297916" lon="-0.7506038629008025"><ele>160.0</ele><time>2026-04-29T09:46:07Z</time></trkpt><trkpt lat="43.32754523455949" lon="-0.7507446746486269"><ele>160.0</ele><time>2026-04-29T09:46:08Z</time></trkpt><trkpt lat="43.327567286658116" lon="-0.7508881712785895"><ele>160.0</ele><time>2026-04-29T09:46:09Z</time></trkpt><trkpt lat="43.327583628080966" lon="-0.75103526613853"><ele>160.0</ele><time>2026-04-29T09:46:10Z</time></trkpt><trkpt lat="43.327595485912035" lon="-0.7511840166634502"><ele>160.0</ele><time>2026-04-29T09:46:11Z</time></trkpt><trkpt lat="43.327601506401614" lon="-0.7513321146364679"><ele>159.2</ele><time>2026-04-29T09:46:12Z</time></trkpt><trkpt lat="43.32760939990984" lon="-0.7514797116788529"><ele>158.4</ele><time>2026-04-29T09:46:13Z</time></trkpt><trkpt lat="43.327617413670225" lon="-0.7516266105857585"><ele>157.6</ele><time>2026-04-29T09:46:14Z</time></trkpt><trkpt lat="43.32762165217931" lon="-0.7517768894385999"><ele>156.8</ele><time>2026-04-29T09:46:15Z</time></trkpt><trkpt lat="43.327621901686776" lon="-0.7519261391144382"><ele>156.0</ele><time>2026-04-29T09:46:16Z</time></trkpt><trkpt lat="43.32761869028578" lon="-0.7520721003651001"><ele>154.8</ele><time>2026-04-29T09:46:17Z</time></trkpt><trkpt lat="43.32761345045101" lon="-0.7522169529971815"><ele>153.6</ele><time>2026-04-29T09:46:18Z</time></trkpt><trkpt lat="43.32760359734772" lon="-0.7523623213255922"><ele>152.4</ele><time>2026-04-29T09:46:19Z</time></trkpt><trkpt lat="43.32758509559471" lon="-0.7525025507017467"><ele>151.2</ele><time>2026-04-29T09:46:20Z</time></trkpt><trkpt lat="43.32756382581756" lon="-0.7526422216068472"><ele>150.0</ele><time>2026-04-29T09:46:21Z</time></trkpt><trkpt lat="43.32753359163902" lon="-0.752790500360436"><ele>148.4</ele><time>2026-04-29T09:46:22Z</time></trkpt><trkpt lat="43.327502425411005" lon="-0.7529344617886481"><ele>146.8</ele><time>2026-04-29T09:46:23Z</time></trkpt><trkpt lat="43.327473673644676" lon="-0.7530731355342581"><ele>145.2</ele><time>2026-04-29T09:46:24Z</time></trkpt><trkpt lat="43.32745876147616" lon="-0.7532100804951356"><ele>143.6</ele><time>2026-04-29T09:46:25Z</time></trkpt><trkpt lat="43.32743065937406" lon="-0.7533566039864209"><ele>142.0</ele><time>2026-04-29T09:46:26Z</time></trkpt><trkpt lat="43.327391429152065" lon="-0.753500526169984"><ele>140.6</ele><time>2026-04-29T09:46:27Z</time></trkpt><trkpt lat="43.327354627789454" lon="-0.7536336951516441"><ele>139.2</ele><time>2026-04-29T09:46:28Z</time></trkpt><trkpt lat="43.32730988751402" lon="-0.7537695404143868"><ele>137.8</ele><time>2026-04-29T09:46:29Z</time></trkpt><trkpt lat="43.32726412523062" lon="-0.7539049206363224"><ele>136.4</ele><time>2026-04-29T09:46:30Z</time></trkpt><trkpt lat="43.327216773743274" lon="-0.7540379249734316"><ele>135.0</ele><time>2026-04-29T09:46:31Z</time></trkpt><trkpt lat="43.327166148246164" lon="-0.7541693682019531"><ele>135.0</ele><time>2026-04-29T09:46:32Z</time></trkpt><trkpt lat="43.32711652796527" lon="-0.7542993563240732"><ele>135.0</ele><time>2026-04-29T09:46:33.001Z</time></trkpt><trkpt lat="43.327064452714794" lon="-0.7544280185447971"><ele>135.0</ele><time>2026-04-29T09:46:34.001Z</time></trkpt><trkpt lat="43.32701254755711" lon="-0.754554705710725"><ele>135.0</ele><time>2026-04-29T09:46:35.001Z</time></trkpt><trkpt lat="43.32695931300301" lon="-0.7546788817113965"><ele>135.0</ele><time>2026-04-29T09:46:36.001Z</time></trkpt><trkpt lat="43.32690565055406" lon="-0.7548047905355575"><ele>134.6</ele><time>2026-04-29T09:46:37.001Z</time></trkpt><trkpt lat="43.32684910328882" lon="-0.7549240658164429"><ele>134.2</ele><time>2026-04-29T09:46:38.001Z</time></trkpt><trkpt lat="43.326797226775824" lon="-0.7550440832925132"><ele>133.8</ele><time>2026-04-29T09:46:39.001Z</time></trkpt><trkpt lat="43.32674426508325" lon="-0.7551637034827118"><ele>133.4</ele><time>2026-04-29T09:46:40.001Z</time></trkpt><trkpt lat="43.32669323074039" lon="-0.7552819488300404"><ele>133.0</ele><time>2026-04-29T09:46:41.001Z</time></trkpt><trkpt lat="43.326645719329164" lon="-0.7553992369142353"><ele>132.8</ele><time>2026-04-29T09:46:42.001Z</time></trkpt><trkpt lat="43.32659771865766" lon="-0.7555140761949086"><ele>132.60000000000002</ele><time>2026-04-29T09:46:43.001Z</time></trkpt><trkpt lat="43.32655013894088" lon="-0.7556295895208567"><ele>132.39999999999998</ele><time>2026-04-29T09:46:44.001Z</time></trkpt><trkpt lat="43.32650124113303" lon="-0.7557415334932879"><ele>132.2</ele><time>2026-04-29T09:46:45.001Z</time></trkpt><trkpt lat="43.32645292799758" lon="-0.7558528009365114"><ele>132.0</ele><time>2026-04-29T09:46:46.001Z</time></trkpt><trkpt lat="43.3264060193581" lon="-0.7559643530023039"><ele>131.79999999999998</ele><time>2026-04-29T09:46:47.001Z</time></trkpt><trkpt lat="43.32636218309811" lon="-0.7560782487540335"><ele>131.6</ele><time>2026-04-29T09:46:48.001Z</time></trkpt><trkpt lat="43.32631633956246" lon="-0.7561894052873483"><ele>131.39999999999998</ele><time>2026-04-29T09:46:49.001Z</time></trkpt><trkpt lat="43.32627077201348" lon="-0.7562962364648185"><ele>131.2</ele><time>2026-04-29T09:46:50Z</time></trkpt><trkpt lat="43.32622390515484" lon="-0.7563996306631994"><ele>131.0</ele><time>2026-04-29T09:46:51Z</time></trkpt><trkpt lat="43.326176923379826" lon="-0.7565029223448769"><ele>131.0</ele><time>2026-04-29T09:46:52Z</time></trkpt><trkpt lat="43.326129053196055" lon="-0.7566050832158147"><ele>131.0</ele><time>2026-04-29T09:46:53Z</time></trkpt><trkpt lat="43.32607921358042" lon="-0.7567085956012608"><ele>131.0</ele><time>2026-04-29T09:46:54Z</time></trkpt><trkpt lat="43.32602859482526" lon="-0.7568062017175121"><ele>131.0</ele><time>2026-04-29T09:46:55Z</time></trkpt><trkpt lat="43.325975617180504" lon="-0.7568959317456674"><ele>131.0</ele><time>2026-04-29T09:46:56Z</time></trkpt><trkpt lat="43.325921736159934" lon="-0.7569819243873157"><ele>131.0</ele><time>2026-04-29T09:46:57Z</time></trkpt><trkpt lat="43.325865742519994" lon="-0.7570649357125269"><ele>131.0</ele><time>2026-04-29T09:46:58Z</time></trkpt><trkpt lat="43.32580622920979" lon="-0.7571452406784142"><ele>131.0</ele><time>2026-04-29T09:46:59Z</time></trkpt><trkpt lat="43.325742252325455" lon="-0.757217452780689"><ele>131.0</ele><time>2026-04-29T09:47:00Z</time></trkpt><trkpt lat="43.32568168747743" lon="-0.7572837153859703"><ele>131.0</ele><time>2026-04-29T09:47:01Z</time></trkpt><trkpt lat="43.325621988833696" lon="-0.7573483663275891"><ele>131.0</ele><time>2026-04-29T09:47:02Z</time></trkpt><trkpt lat="43.325561536489616" lon="-0.757412009867707"><ele>131.0</ele><time>2026-04-29T09:47:03Z</time></trkpt><trkpt lat="43.325498658920225" lon="-0.7574675312912968"><ele>130.85714285714286</ele><time>2026-04-29T09:47:04Z</time></trkpt><trkpt lat="43.32543788606048" lon="-0.7575199864920921"><ele>130.71428571428572</ele><time>2026-04-29T09:47:05Z</time></trkpt><trkpt lat="43.325377357835066" lon="-0.757568874026288"><ele>130.57142857142858</ele><time>2026-04-29T09:47:06Z</time></trkpt><trkpt lat="43.32531566194815" lon="-0.75761700548686"><ele>130.42857142857144</ele><time>2026-04-29T09:47:07Z</time></trkpt><trkpt lat="43.32525527472969" lon="-0.7576611240701029"><ele>130.28571428571428</ele><time>2026-04-29T09:47:08Z</time></trkpt><trkpt lat="43.32519664754988" lon="-0.7577047486933208"><ele>130.14285714285717</ele><time>2026-04-29T09:47:09Z</time></trkpt><trkpt lat="43.32513648497836" lon="-0.7577464048578596"><ele>130.0</ele><time>2026-04-29T09:47:10Z</time></trkpt><trkpt lat="43.32507794807041" lon="-0.7577848624188281"><ele>130.0</ele><time>2026-04-29T09:47:11Z</time></trkpt><trkpt lat="43.32502007313044" lon="-0.7578223537688258"><ele>130.0</ele><time>2026-04-29T09:47:12Z</time></trkpt><trkpt lat="43.32496201592301" lon="-0.7578612683519975"><ele>130.0</ele><time>2026-04-29T09:47:13Z</time></trkpt><trkpt lat="43.324851403681095" lon="-0.7579359479202094"><ele>130.0</ele><time>2026-04-29T09:47:15Z</time></trkpt><trkpt lat="43.32475098364829" lon="-0.7580136424811686"><ele>130.0</ele><time>2026-04-29T09:47:17Z</time></trkpt><trkpt lat="43.3246620482495" lon="-0.7580790844638023"><ele>129.83333333333334</ele><time>2026-04-29T09:47:19Z</time></trkpt><trkpt lat="43.32460512398356" lon="-0.7581818100157198"><ele>129.66666666666669</ele><time>2026-04-29T09:47:21Z</time></trkpt><trkpt lat="43.32458126933072" lon="-0.7583059748261638"><ele>129.5</ele><time>2026-04-29T09:47:23Z</time></trkpt><trkpt lat="43.32454625923876" lon="-0.7584209730015483"><ele>129.33333333333334</ele><time>2026-04-29T09:47:25Z</time></trkpt><trkpt lat="43.324490618310385" lon="-0.7585085339305704"><ele>129.16666666666666</ele><time>2026-04-29T09:47:27Z</time></trkpt><trkpt lat="43.32443783029108" lon="-0.7585935997296959"><ele>129.0</ele><time>2026-04-29T09:47:29Z</time></trkpt><trkpt lat="43.32449770449982" lon="-0.7587225313927346"><ele>129.0</ele><time>2026-04-29T09:47:30Z</time></trkpt><trkpt lat="43.3245157653272" lon="-0.7588583978983054"><ele>129.0</ele><time>2026-04-29T09:47:32Z</time></trkpt><trkpt lat="43.324536540937466" lon="-0.7589953810481092"><ele>129.0</ele><time>2026-04-29T09:47:34Z</time></trkpt><trkpt lat="43.32456398749123" lon="-0.7591173773027214"><ele>129.0</ele><time>2026-04-29T09:47:36Z</time></trkpt><trkpt lat="43.32458714987452" lon="-0.7592187401745863"><ele>129.0</ele><time>2026-04-29T09:47:38Z</time></trkpt><trkpt lat="43.32459564851064" lon="-0.7593062605742968"><ele>129.0</ele><time>2026-04-29T09:47:41Z</time></trkpt><trkpt lat="43.32463127312571" lon="-0.7593797540270479"><ele>128.6</ele><time>2026-04-29T09:57:43Z</time></trkpt><trkpt lat="43.32460995677943" lon="-0.7594803592598194"><ele>128.2</ele><time>2026-04-29T09:57:47Z</time></trkpt><trkpt lat="43.32459246853244" lon="-0.7595862412150727"><ele>127.79999999999998</ele><time>2026-04-29T09:57:50Z</time></trkpt><trkpt lat="43.324549889060556" lon="-0.7597242965147523"><ele>127.39999999999999</ele><time>2026-04-29T09:57:52Z</time></trkpt><trkpt lat="43.32449268694087" lon="-0.7598742532026987"><ele>127.0</ele><time>2026-04-29T09:57:54Z</time></trkpt><trkpt lat="43.32445205226319" lon="-0.7599462257246874"><ele>127.00000000000001</ele><time>2026-04-29T09:57:55Z</time></trkpt><trkpt lat="43.32440538759215" lon="-0.7600183310589097"><ele>127.0</ele><time>2026-04-29T09:57:56Z</time></trkpt><trkpt lat="43.32435431558669" lon="-0.7600918031552562"><ele>127.0</ele><time>2026-04-29T09:57:57Z</time></trkpt><trkpt lat="43.32429990634767" lon="-0.7601683991611677"><ele>127.0</ele><time>2026-04-29T09:57:58Z</time></trkpt><trkpt lat="43.324253157337694" lon="-0.7602519097447956"><ele>127.00000000000001</ele><time>2026-04-29T09:57:59Z</time></trkpt><trkpt lat="43.324208263147106" lon="-0.7603386477672158"><ele>127.0</ele><time>2026-04-29T09:58:00Z</time></trkpt><trkpt lat="43.32416775952548" lon="-0.760432792787665"><ele>127.00000000000001</ele><time>2026-04-29T09:58:01Z</time></trkpt><trkpt lat="43.32412915040134" lon="-0.7605300160622697"><ele>127.0</ele><time>2026-04-29T09:58:02Z</time></trkpt><trkpt lat="43.32409424306966" lon="-0.7606316865163841"><ele>127.0</ele><time>2026-04-29T09:58:03Z</time></trkpt><trkpt lat="43.32407441332946" lon="-0.7607426809471322"><ele>127.0</ele><time>2026-04-29T09:58:04Z</time></trkpt><trkpt lat="43.32406607530721" lon="-0.7608579847838833"><ele>127.00000000000001</ele><time>2026-04-29T09:58:05Z</time></trkpt><trkpt lat="43.32406912276458" lon="-0.7609683176751982"><ele>127.0</ele><time>2026-04-29T09:58:06Z</time></trkpt><trkpt lat="43.32408094573451" lon="-0.7610762149438789"><ele>126.66666666666667</ele><time>2026-04-29T09:58:07Z</time></trkpt><trkpt lat="43.32409906655552" lon="-0.7611848658756942"><ele>126.33333333333334</ele><time>2026-04-29T09:58:08Z</time></trkpt><trkpt lat="43.32411652150881" lon="-0.7612922091039835"><ele>126.0</ele><time>2026-04-29T09:58:09Z</time></trkpt><trkpt lat="43.32413340765813" lon="-0.7613995296094633"><ele>125.66666666666666</ele><time>2026-04-29T09:58:10Z</time></trkpt><trkpt lat="43.32415680378737" lon="-0.7615029461800902"><ele>125.33333333333333</ele><time>2026-04-29T09:58:11Z</time></trkpt><trkpt lat="43.32417639490064" lon="-0.7616038385112041"><ele>125.0</ele><time>2026-04-29T09:58:12Z</time></trkpt><trkpt lat="43.32419691578695" lon="-0.7617082794393726"><ele>124.99999999999999</ele><time>2026-04-29T09:58:13Z</time></trkpt><trkpt lat="43.32421539260009" lon="-0.761814621280018"><ele>125.0</ele><time>2026-04-29T09:58:14Z</time></trkpt><trkpt lat="43.32423663056886" lon="-0.7619198944393193"><ele>125.0</ele><time>2026-04-29T09:58:15Z</time></trkpt><trkpt lat="43.32426074534367" lon="-0.7620212721929548"><ele>125.0</ele><time>2026-04-29T09:58:16Z</time></trkpt><trkpt lat="43.32427908071011" lon="-0.7621252606194159"><ele>124.99999999999999</ele><time>2026-04-29T09:58:17Z</time></trkpt><trkpt lat="43.32429978682036" lon="-0.762223200379348"><ele>125.0</ele><time>2026-04-29T09:58:18Z</time></trkpt><trkpt lat="43.324318042630125" lon="-0.7623258713423826"><ele>124.85714285714286</ele><time>2026-04-29T09:58:19Z</time></trkpt><trkpt lat="43.324330216657295" lon="-0.7624277717317294"><ele>124.71428571428572</ele><time>2026-04-29T09:58:20Z</time></trkpt><trkpt lat="43.324328292227804" lon="-0.7625239419939994"><ele>124.57142857142858</ele><time>2026-04-29T09:58:21Z</time></trkpt><trkpt lat="43.32430600000415" lon="-0.762624642627535"><ele>124.42857142857143</ele><time>2026-04-29T09:58:22Z</time></trkpt><trkpt lat="43.324269504506915" lon="-0.7627031880038413"><ele>124.2857142857143</ele><time>2026-04-29T09:58:23Z</time></trkpt><trkpt lat="43.32422039066698" lon="-0.7627615960802028"><ele>124.14285714285715</ele><time>2026-04-29T09:58:24Z</time></trkpt><trkpt lat="43.3241608545788" lon="-0.7628030827560146"><ele>124.0</ele><time>2026-04-29T09:58:25Z</time></trkpt><trkpt lat="43.32409786976833" lon="-0.7628341350142878"><ele>122.57142857142858</ele><time>2026-04-29T09:58:26Z</time></trkpt><trkpt lat="43.3240337059495" lon="-0.7628572291469018"><ele>121.14285714285715</ele><time>2026-04-29T09:58:27Z</time></trkpt><trkpt lat="43.323968163697856" lon="-0.76287036267041"><ele>119.71428571428572</ele><time>2026-04-29T09:58:28Z</time></trkpt><trkpt lat="43.32390047298439" lon="-0.76287434934872"><ele>118.28571428571428</ele><time>2026-04-29T09:58:29Z</time></trkpt><trkpt lat="43.32383261846376" lon="-0.7628701481605973"><ele>116.85714285714285</ele><time>2026-04-29T09:58:30Z</time></trkpt><trkpt lat="43.32376607319462" lon="-0.7628670184397066"><ele>115.42857142857142</ele><time>2026-04-29T09:58:31Z</time></trkpt><trkpt lat="43.323698942608914" lon="-0.7628630549802654"><ele>114.0</ele><time>2026-04-29T09:58:32Z</time></trkpt><trkpt lat="43.32362552291696" lon="-0.7628638349971498"><ele>113.57142857142857</ele><time>2026-04-29T09:58:33Z</time></trkpt><trkpt lat="43.3235492416315" lon="-0.7628593943686645"><ele>113.14285714285714</ele><time>2026-04-29T09:58:34Z</time></trkpt><trkpt lat="43.32347837000723" lon="-0.7628529008543874"><ele>112.71428571428571</ele><time>2026-04-29T09:58:35Z</time></trkpt><trkpt lat="43.32340240005443" lon="-0.7628436818810783"><ele>112.28571428571428</ele><time>2026-04-29T09:58:36Z</time></trkpt><trkpt lat="43.323332852546024" lon="-0.7628414674952627"><ele>111.85714285714286</ele><time>2026-04-29T09:58:37Z</time></trkpt><trkpt lat="43.32326374246323" lon="-0.7628376515458061"><ele>111.42857142857142</ele><time>2026-04-29T09:58:38Z</time></trkpt><trkpt lat="43.323193189676104" lon="-0.7628337221759711"><ele>111.0</ele><time>2026-04-29T09:58:39Z</time></trkpt><trkpt lat="43.3231239992964" lon="-0.7628283819610338"><ele>111.28571428571428</ele><time>2026-04-29T09:58:40Z</time></trkpt><trkpt lat="43.32305635761797" lon="-0.7628247614017508"><ele>111.57142857142858</ele><time>2026-04-29T09:58:41Z</time></trkpt><trkpt lat="43.32299172936312" lon="-0.7628238363492922"><ele>111.85714285714286</ele><time>2026-04-29T09:58:42Z</time></trkpt><trkpt lat="43.32292662684319" lon="-0.76282510582312"><ele>112.14285714285714</ele><time>2026-04-29T09:58:43.001Z</time></trkpt><trkpt lat="43.322861689246814" lon="-0.7628266666444906"><ele>112.42857142857142</ele><time>2026-04-29T09:58:44.001Z</time></trkpt><trkpt lat="43.322794143144996" lon="-0.7628256098427632"><ele>112.71428571428572</ele><time>2026-04-29T09:58:45.001Z</time></trkpt><trkpt lat="43.3227244641588" lon="-0.7628214278326355"><ele>113.0</ele><time>2026-04-29T09:58:46.001Z</time></trkpt><trkpt lat="43.32265939350751" lon="-0.7628177585549085"><ele>112.99999999999999</ele><time>2026-04-29T09:58:47.001Z</time></trkpt><trkpt lat="43.32253562115124" lon="-0.7628295181295489"><ele>113.0</ele><time>2026-04-29T09:58:49.001Z</time></trkpt><trkpt lat="43.32247583355799" lon="-0.7628587228543033"><ele>113.0</ele><time>2026-04-29T09:58:50.001Z</time></trkpt><trkpt lat="43.32242117057055" lon="-0.7629023365059525"><ele>113.0</ele><time>2026-04-29T09:58:51.001Z</time></trkpt><trkpt lat="43.32235273529963" lon="-0.7630356579400501"><ele>112.99999999999999</ele><time>2026-04-29T09:58:53.001Z</time></trkpt><trkpt lat="43.322340526131896" lon="-0.763121845347192"><ele>113.0</ele><time>2026-04-29T09:58:54.001Z</time></trkpt><trkpt lat="43.32235122066007" lon="-0.7632989928745724"><ele>113.0</ele><time>2026-04-29T09:58:56.001Z</time></trkpt><trkpt lat="43.32236700196165" lon="-0.7633937401041003"><ele>113.0</ele><time>2026-04-29T09:58:57.001Z</time></trkpt><trkpt lat="43.32239089494913" lon="-0.7634937016293661"><ele>113.0</ele><time>2026-04-29T09:58:58.001Z</time></trkpt><trkpt lat="43.32241600345778" lon="-0.7635902553749273"><ele>113.0</ele><time>2026-04-29T09:58:59.001Z</time></trkpt><trkpt lat="43.32243976641137" lon="-0.7636879491485847"><ele>113.0</ele><time>2026-04-29T09:59:00.001Z</time></trkpt><trkpt lat="43.32246412016059" lon="-0.7637852881751405"><ele>113.0</ele><time>2026-04-29T09:59:01.001Z</time></trkpt><trkpt lat="43.322485950713514" lon="-0.76387931991196"><ele>113.0</ele><time>2026-04-29T09:59:02.001Z</time></trkpt><trkpt lat="43.32250783853061" lon="-0.7639759530974829"><ele>112.66666666666666</ele><time>2026-04-29T09:59:03.001Z</time></trkpt><trkpt lat="43.32253071119581" lon="-0.7640749021848774"><ele>112.33333333333333</ele><time>2026-04-29T09:59:04.001Z</time></trkpt><trkpt lat="43.322552654446895" lon="-0.7641747557037991"><ele>112.0</ele><time>2026-04-29T09:59:05.001Z</time></trkpt><trkpt lat="43.32257166174497" lon="-0.7642780734162424"><ele>111.66666666666666</ele><time>2026-04-29T09:59:06.001Z</time></trkpt><trkpt lat="43.32259371472563" lon="-0.7643811112724538"><ele>111.33333333333333</ele><time>2026-04-29T09:59:07.001Z</time></trkpt><trkpt lat="43.32261780142607" lon="-0.7644799459805909"><ele>111.0</ele><time>2026-04-29T09:59:08.001Z</time></trkpt><trkpt lat="43.322642142962096" lon="-0.7645780147728999"><ele>111.0</ele><time>2026-04-29T09:59:09.001Z</time></trkpt><trkpt lat="43.322666893476836" lon="-0.7646741972770823"><ele>111.0</ele><time>2026-04-29T09:59:10.001Z</time></trkpt><trkpt lat="43.32269095188947" lon="-0.7647709804654493"><ele>111.0</ele><time>2026-04-29T09:59:11.001Z</time></trkpt><trkpt lat="43.32270115331399" lon="-0.7648736833158901"><ele>111.0</ele><time>2026-04-29T09:59:12.001Z</time></trkpt><trkpt lat="43.32271107595103" lon="-0.7649704263516898"><ele>111.0</ele><time>2026-04-29T09:59:13.001Z</time></trkpt><trkpt lat="43.32271959344911" lon="-0.7650602282976908"><ele>111.0</ele><time>2026-04-29T09:59:14.001Z</time></trkpt><trkpt lat="43.32270573612537" lon="-0.7652150835803495"><ele>112.83333333333333</ele><time>2026-04-29T09:59:16.001Z</time></trkpt><trkpt lat="43.322618736851446" lon="-0.7653124600995199"><ele>114.66666666666666</ele><time>2026-04-29T09:59:18.001Z</time></trkpt><trkpt lat="43.322493853426714" lon="-0.7653294286756713"><ele>116.5</ele><time>2026-04-29T09:59:20.001Z</time></trkpt><trkpt lat="43.32243049963711" lon="-0.7653236235523857"><ele>118.33333333333333</ele><time>2026-04-29T09:59:21.001Z</time></trkpt><trkpt lat="43.32236865266982" lon="-0.765301950411827"><ele>120.16666666666666</ele><time>2026-04-29T09:59:22.001Z</time></trkpt><trkpt lat="43.322302075567144" lon="-0.7652889636471208"><ele>122.0</ele><time>2026-04-29T09:59:23.001Z</time></trkpt><trkpt lat="43.32223757756501" lon="-0.7652844286288921"><ele>121.85714285714283</ele><time>2026-04-29T09:59:24.001Z</time></trkpt><trkpt lat="43.32217054210059" lon="-0.7652801962793836"><ele>121.71428571428571</ele><time>2026-04-29T09:59:25.001Z</time></trkpt><trkpt lat="43.3221012397742" lon="-0.7652778047280571"><ele>121.57142857142856</ele><time>2026-04-29T09:59:25.999Z</time></trkpt><trkpt lat="43.3220309377868" lon="-0.7652808434073018"><ele>121.42857142857142</ele><time>2026-04-29T09:59:26.999Z</time></trkpt><trkpt lat="43.32195872470365" lon="-0.765289301240807"><ele>121.28571428571428</ele><time>2026-04-29T09:59:27.999Z</time></trkpt><trkpt lat="43.32188805664602" lon="-0.7652984196413164"><ele>121.14285714285714</ele><time>2026-04-29T09:59:28.999Z</time></trkpt><trkpt lat="43.32181612924991" lon="-0.7653044499785078"><ele>121.0</ele><time>2026-04-29T09:59:29.999Z</time></trkpt><trkpt lat="43.321741790904596" lon="-0.7653162086274541"><ele>121.00000000000001</ele><time>2026-04-29T09:59:30.999Z</time></trkpt><trkpt lat="43.32166590953987" lon="-0.7653339734199271"><ele>121.0</ele><time>2026-04-29T09:59:31.999Z</time></trkpt><trkpt lat="43.32159052365439" lon="-0.7653530131367405"><ele>121.0</ele><time>2026-04-29T09:59:32.999Z</time></trkpt><trkpt lat="43.32151370027942" lon="-0.7653733553057889"><ele>121.0</ele><time>2026-04-29T09:59:34Z</time></trkpt><trkpt lat="43.321437526564814" lon="-0.765393356951472"><ele>121.00000000000001</ele><time>2026-04-29T09:59:35Z</time></trkpt><trkpt lat="43.32136261990816" lon="-0.7654118545990128"><ele>121.0</ele><time>2026-04-29T09:59:36Z</time></trkpt><trkpt lat="43.32128217169744" lon="-0.7654234904637156"><ele>121.66666666666667</ele><time>2026-04-29T09:59:37Z</time></trkpt><trkpt lat="43.3212099490208" lon="-0.7654339370669394"><ele>122.33333333333334</ele><time>2026-04-29T09:59:38Z</time></trkpt><trkpt lat="43.32114316104041" lon="-0.7654378835687472"><ele>123.0</ele><time>2026-04-29T09:59:39Z</time></trkpt><trkpt lat="43.32108071446278" lon="-0.765450052809827"><ele>123.66666666666666</ele><time>2026-04-29T09:59:40Z</time></trkpt><trkpt lat="43.32098867827476" lon="-0.7654679516905832"><ele>124.33333333333333</ele><time>2026-04-29T09:59:42Z</time></trkpt><trkpt lat="43.32090264886716" lon="-0.7654888051297316"><ele>125.0</ele><time>2026-04-29T09:59:45Z</time></trkpt><trkpt lat="43.32082267983903" lon="-0.7655113344990976"><ele>125.0</ele><time>2026-04-29T09:59:48Z</time></trkpt><trkpt lat="43.320891654155716" lon="-0.7654827269749596"><ele>125.0</ele><time>2026-04-29T09:59:55Z</time></trkpt><trkpt lat="43.321008292299446" lon="-0.7654567454782032"><ele>125.0</ele><time>2026-04-29T09:59:57Z</time></trkpt><trkpt lat="43.32107082325739" lon="-0.7654436139105546"><ele>125.0</ele><time>2026-04-29T09:59:58Z</time></trkpt><trkpt lat="43.32118487301436" lon="-0.7654237157383812"><ele>125.0</ele><time>2026-04-29T10:00:00Z</time></trkpt><trkpt lat="43.32127782373645" lon="-0.765408067403143"><ele>124.99999999999999</ele><time>2026-04-29T10:00:02Z</time></trkpt><trkpt lat="43.32136158601" lon="-0.7653784362545013"><ele>125.0</ele><time>2026-04-29T10:00:04Z</time></trkpt><trkpt lat="43.321422297495445" lon="-0.7654405922046309"><ele>125.0</ele><time>2026-04-29T10:00:07Z</time></trkpt><trkpt lat="43.321362315761995" lon="-0.7654942554487142"><ele>125.0</ele><time>2026-04-29T10:02:26Z</time></trkpt><trkpt lat="43.32129803254066" lon="-0.7654357516441723"><ele>124.99999999999999</ele><time>2026-04-29T10:02:30Z</time></trkpt><trkpt lat="43.32121463613388" lon="-0.7654260038912741"><ele>125.0</ele><time>2026-04-29T10:02:32Z</time></trkpt><trkpt lat="43.32111801490316" lon="-0.7654522991097641"><ele>125.0</ele><time>2026-04-29T10:02:34Z</time></trkpt><trkpt lat="43.32100991153559" lon="-0.7654656066791267"><ele>125.0</ele><time>2026-04-29T10:02:36Z</time></trkpt><trkpt lat="43.32089589132547" lon="-0.7654932692497786"><ele>125.0</ele><time>2026-04-29T10:02:38Z</time></trkpt><trkpt lat="43.32077480183806" lon="-0.7655349987795682"><ele>125.0</ele><time>2026-04-29T10:02:40Z</time></trkpt><trkpt lat="43.32070770573752" lon="-0.7655642229247719"><ele>125.0</ele><time>2026-04-29T10:02:41Z</time></trkpt><trkpt lat="43.32064051394373" lon="-0.7656064361289824"><ele>124.99999999999999</ele><time>2026-04-29T10:02:42Z</time></trkpt><trkpt lat="43.32058023597031" lon="-0.7656576734735443"><ele>125.0</ele><time>2026-04-29T10:02:43Z</time></trkpt><trkpt lat="43.32052185871896" lon="-0.7657202511672163"><ele>125.0</ele><time>2026-04-29T10:02:44Z</time></trkpt><trkpt lat="43.32046118595485" lon="-0.7657883465921069"><ele>125.0</ele><time>2026-04-29T10:02:45Z</time></trkpt><trkpt lat="43.32040038744803" lon="-0.7658632901406309"><ele>124.99999999999999</ele><time>2026-04-29T10:02:46Z</time></trkpt><trkpt lat="43.32033950351488" lon="-0.7659404484465224"><ele>125.0</ele><time>2026-04-29T10:02:47Z</time></trkpt><trkpt lat="43.32027909060602" lon="-0.7660139537086322"><ele>125.16666666666666</ele><time>2026-04-29T10:02:48Z</time></trkpt><trkpt lat="43.32021505245728" lon="-0.7660862324479462"><ele>125.33333333333333</ele><time>2026-04-29T10:02:49Z</time></trkpt><trkpt lat="43.32014479481304" lon="-0.7661571818422522"><ele>125.5</ele><time>2026-04-29T10:02:50.001Z</time></trkpt><trkpt lat="43.32008051121187" lon="-0.7662339434068239"><ele>125.66666666666666</ele><time>2026-04-29T10:02:51.001Z</time></trkpt><trkpt lat="43.320013765688714" lon="-0.766306840011822"><ele>125.83333333333333</ele><time>2026-04-29T10:02:52.001Z</time></trkpt><trkpt lat="43.31994629073221" lon="-0.7663823795784571"><ele>126.0</ele><time>2026-04-29T10:02:53.001Z</time></trkpt><trkpt lat="43.31987746093327" lon="-0.7664578077872141"><ele>126.0</ele><time>2026-04-29T10:02:54.001Z</time></trkpt><trkpt lat="43.3198136385048" lon="-0.766530865786355"><ele>126.0</ele><time>2026-04-29T10:02:55.001Z</time></trkpt><trkpt lat="43.31974879831653" lon="-0.7666053103181621"><ele>126.0</ele><time>2026-04-29T10:02:56.001Z</time></trkpt><trkpt lat="43.319683802056375" lon="-0.7666765482276676"><ele>126.0</ele><time>2026-04-29T10:02:57.001Z</time></trkpt><trkpt lat="43.31962047239267" lon="-0.7667510708112657"><ele>126.0</ele><time>2026-04-29T10:02:58.001Z</time></trkpt><trkpt lat="43.319561027313625" lon="-0.7668239047163397"><ele>126.0</ele><time>2026-04-29T10:02:59.001Z</time></trkpt><trkpt lat="43.31950485316675" lon="-0.7668958053746799"><ele>126.14285714285714</ele><time>2026-04-29T10:03:00.001Z</time></trkpt><trkpt lat="43.31945049838482" lon="-0.7669680625849803"><ele>126.28571428571428</ele><time>2026-04-29T10:03:01.001Z</time></trkpt><trkpt lat="43.31938955743628" lon="-0.7670319197531881"><ele>126.42857142857143</ele><time>2026-04-29T10:03:02.001Z</time></trkpt><trkpt lat="43.31932934796912" lon="-0.7670928306050689"><ele>126.57142857142857</ele><time>2026-04-29T10:03:03.001Z</time></trkpt><trkpt lat="43.31927160150517" lon="-0.7671562499493323"><ele>126.71428571428571</ele><time>2026-04-29T10:03:04.001Z</time></trkpt><trkpt lat="43.31921784354323" lon="-0.7672234073458672"><ele>126.85714285714286</ele><time>2026-04-29T10:03:05.001Z</time></trkpt><trkpt lat="43.31916295246656" lon="-0.7672903735851198"><ele>127.0</ele><time>2026-04-29T10:03:06.001Z</time></trkpt><trkpt lat="43.31910035241388" lon="-0.767345046838471"><ele>127.00000000000001</ele><time>2026-04-29T10:03:07.001Z</time></trkpt><trkpt lat="43.3190374625384" lon="-0.7674001818330973"><ele>127.0</ele><time>2026-04-29T10:03:08.001Z</time></trkpt><trkpt lat="43.318979941851886" lon="-0.7674641613948693"><ele>127.0</ele><time>2026-04-29T10:03:09.001Z</time></trkpt><trkpt lat="43.3189215361343" lon="-0.7675236794783103"><ele>127.0</ele><time>2026-04-29T10:03:10.001Z</time></trkpt><trkpt lat="43.318852535978394" lon="-0.7675733358014282"><ele>127.00000000000001</ele><time>2026-04-29T10:03:11.001Z</time></trkpt><trkpt lat="43.318786117412756" lon="-0.7676240636348386"><ele>127.0</ele><time>2026-04-29T10:03:12.001Z</time></trkpt><trkpt lat="43.31871266069705" lon="-0.7676709388918695"><ele>127.33333333333334</ele><time>2026-04-29T10:03:13.001Z</time></trkpt><trkpt lat="43.318637575022166" lon="-0.7677099235550071"><ele>127.66666666666667</ele><time>2026-04-29T10:03:14.001Z</time></trkpt><trkpt lat="43.31856160656707" lon="-0.7677463925697509"><ele>128.0</ele><time>2026-04-29T10:03:15.001Z</time></trkpt><trkpt lat="43.31848294284445" lon="-0.767778480267204"><ele>128.33333333333334</ele><time>2026-04-29T10:03:16.001Z</time></trkpt><trkpt lat="43.318402550442265" lon="-0.7678084930482832"><ele>128.66666666666666</ele><time>2026-04-29T10:03:17.001Z</time></trkpt><trkpt lat="43.31831880717884" lon="-0.7678325795037765"><ele>129.0</ele><time>2026-04-29T10:03:18.001Z</time></trkpt><trkpt lat="43.31823665144748" lon="-0.7678580550884045"><ele>129.0</ele><time>2026-04-29T10:03:19.001Z</time></trkpt><trkpt lat="43.31815526461611" lon="-0.7678862460725233"><ele>129.0</ele><time>2026-04-29T10:03:20.001Z</time></trkpt><trkpt lat="43.31807240135334" lon="-0.7679183223407261"><ele>129.0</ele><time>2026-04-29T10:03:21.001Z</time></trkpt><trkpt lat="43.31798881141528" lon="-0.7679480169726465"><ele>129.0</ele><time>2026-04-29T10:03:22.001Z</time></trkpt><trkpt lat="43.31790619953073" lon="-0.7679757823717631"><ele>129.0</ele><time>2026-04-29T10:03:23.001Z</time></trkpt><trkpt lat="43.317824210427396" lon="-0.7680017315239946"><ele>129.0</ele><time>2026-04-29T10:03:24.001Z</time></trkpt><trkpt lat="43.3177419803073" lon="-0.7680271288653548"><ele>129.6</ele><time>2026-04-29T10:03:25.001Z</time></trkpt><trkpt lat="43.31765963874808" lon="-0.7680531971563739"><ele>130.2</ele><time>2026-04-29T10:03:26.001Z</time></trkpt><trkpt lat="43.31757350655682" lon="-0.7680861410968585"><ele>130.79999999999998</ele><time>2026-04-29T10:03:27.001Z</time></trkpt><trkpt lat="43.31748656923398" lon="-0.7681231313735745"><ele>131.4</ele><time>2026-04-29T10:03:28.001Z</time></trkpt><trkpt lat="43.31739795354627" lon="-0.7681563454308868"><ele>132.0</ele><time>2026-04-29T10:03:29.001Z</time></trkpt><trkpt lat="43.31730567260182" lon="-0.7681882988269586"><ele>131.79999999999998</ele><time>2026-04-29T10:03:30.001Z</time></trkpt><trkpt lat="43.31721409016717" lon="-0.7682182088316382"><ele>131.6</ele><time>2026-04-29T10:03:31.001Z</time></trkpt><trkpt lat="43.31712145370014" lon="-0.7682467539570141"><ele>131.39999999999998</ele><time>2026-04-29T10:03:32.001Z</time></trkpt><trkpt lat="43.317029500863875" lon="-0.7682812612373313"><ele>131.2</ele><time>2026-04-29T10:03:33.001Z</time></trkpt><trkpt lat="43.31693692761787" lon="-0.7683149981313498"><ele>131.0</ele><time>2026-04-29T10:03:34.001Z</time></trkpt><trkpt lat="43.316844529867986" lon="-0.7683482857423951"><ele>131.0</ele><time>2026-04-29T10:03:35.001Z</time></trkpt><trkpt lat="43.3167522524887" lon="-0.7683787248208903"><ele>131.0</ele><time>2026-04-29T10:03:36.001Z</time></trkpt><trkpt lat="43.31665918443887" lon="-0.768405048624303"><ele>131.0</ele><time>2026-04-29T10:03:37.001Z</time></trkpt><trkpt lat="43.31656877652655" lon="-0.7684367340020102"><ele>131.0</ele><time>2026-04-29T10:03:38Z</time></trkpt><trkpt lat="43.3164775147708" lon="-0.768469592696789"><ele>131.0</ele><time>2026-04-29T10:03:39Z</time></trkpt><trkpt lat="43.31638781890916" lon="-0.7685024113556231"><ele>131.16666666666666</ele><time>2026-04-29T10:03:40Z</time></trkpt><trkpt lat="43.316296126549815" lon="-0.7685371416834897"><ele>131.33333333333331</ele><time>2026-04-29T10:03:41Z</time></trkpt><trkpt lat="43.31620607981938" lon="-0.7685677078515878"><ele>131.5</ele><time>2026-04-29T10:03:42Z</time></trkpt><trkpt lat="43.316117597575676" lon="-0.7685841811225013"><ele>131.66666666666666</ele><time>2026-04-29T10:03:43Z</time></trkpt><trkpt lat="43.31602847104109" lon="-0.7686019165392964"><ele>131.83333333333334</ele><time>2026-04-29T10:03:44Z</time></trkpt><trkpt lat="43.31594778276804" lon="-0.7686139651636639"><ele>132.0</ele><time>2026-04-29T10:03:45Z</time></trkpt><trkpt lat="43.31587605147328" lon="-0.7686261231344583"><ele>132.0</ele><time>2026-04-29T10:03:46Z</time></trkpt><trkpt lat="43.31580997336485" lon="-0.7686612370944471"><ele>132.0</ele><time>2026-04-29T10:03:47Z</time></trkpt><trkpt lat="43.31575900406176" lon="-0.7687262937741702"><ele>132.0</ele><time>2026-04-29T10:03:48Z</time></trkpt><trkpt lat="43.315739634905356" lon="-0.768817457819515"><ele>132.0</ele><time>2026-04-29T10:03:49Z</time></trkpt><trkpt lat="43.3157251451943" lon="-0.7689993888252068"><ele>132.0</ele><time>2026-04-29T10:03:51Z</time></trkpt><trkpt lat="43.31568366070006" lon="-0.7690700566215303"><ele>132.0</ele><time>2026-04-29T10:03:52Z</time></trkpt><trkpt lat="43.315631053995645" lon="-0.7691229176593926"><ele>132.0</ele><time>2026-04-29T10:03:53Z</time></trkpt><trkpt lat="43.31557659649914" lon="-0.7691748986731229"><ele>132.0</ele><time>2026-04-29T10:03:54Z</time></trkpt><trkpt lat="43.31552506178104" lon="-0.7692418946551072"><ele>132.0</ele><time>2026-04-29T10:03:55Z</time></trkpt><trkpt lat="43.31547245005194" lon="-0.7693155179628276"><ele>132.0</ele><time>2026-04-29T10:03:56Z</time></trkpt><trkpt lat="43.31541704718204" lon="-0.7693859710653568"><ele>132.0</ele><time>2026-04-29T10:03:57Z</time></trkpt><trkpt lat="43.315351970447935" lon="-0.7694459740195896"><ele>132.0</ele><time>2026-04-29T10:03:58Z</time></trkpt><trkpt lat="43.31527763287209" lon="-0.7694855347909096"><ele>132.0</ele><time>2026-04-29T10:03:59Z</time></trkpt><trkpt lat="43.31520295121847" lon="-0.769529389909974"><ele>132.0</ele><time>2026-04-29T10:04:00Z</time></trkpt><trkpt lat="43.31511127269549" lon="-0.7694934310310725"><ele>132.0</ele><time>2026-04-29T10:04:01Z</time></trkpt><trkpt lat="43.31502958683685" lon="-0.7694900504802641"><ele>132.0</ele><time>2026-04-29T10:04:02Z</time></trkpt><trkpt lat="43.314946203258074" lon="-0.7694858584093455"><ele>132.0</ele><time>2026-04-29T10:04:03Z</time></trkpt><trkpt lat="43.314863662262496" lon="-0.7694999656965712"><ele>132.0</ele><time>2026-04-29T10:04:04Z</time></trkpt><trkpt lat="43.314782971462975" lon="-0.7695315702111535"><ele>132.0</ele><time>2026-04-29T10:04:05Z</time></trkpt><trkpt lat="43.31470337714134" lon="-0.7695736033853788"><ele>132.2</ele><time>2026-04-29T10:04:06Z</time></trkpt><trkpt lat="43.31462244138892" lon="-0.7696267397618587"><ele>132.39999999999998</ele><time>2026-04-29T10:04:07Z</time></trkpt><trkpt lat="43.31454800251045" lon="-0.7696988187296232"><ele>132.60000000000002</ele><time>2026-04-29T10:04:08Z</time></trkpt><trkpt lat="43.31447632563289" lon="-0.7697776259722388"><ele>132.8</ele><time>2026-04-29T10:04:09Z</time></trkpt><trkpt lat="43.3144067446246" lon="-0.769855767444823"><ele>133.0</ele><time>2026-04-29T10:04:10Z</time></trkpt><trkpt lat="43.31433480347604" lon="-0.7699394768271988"><ele>133.0</ele><time>2026-04-29T10:04:11Z</time></trkpt><trkpt lat="43.31426409498596" lon="-0.7700225642548213"><ele>133.0</ele><time>2026-04-29T10:04:12Z</time></trkpt><trkpt lat="43.31419311186999" lon="-0.7701099451957062"><ele>133.0</ele><time>2026-04-29T10:04:13Z</time></trkpt><trkpt lat="43.31412064067565" lon="-0.7701927047778664"><ele>133.0</ele><time>2026-04-29T10:04:14Z</time></trkpt><trkpt lat="43.31404796897963" lon="-0.7702778393039987"><ele>133.0</ele><time>2026-04-29T10:04:15Z</time></trkpt><trkpt lat="43.313973745739034" lon="-0.770364126010753"><ele>133.20000000000002</ele><time>2026-04-29T10:04:16Z</time></trkpt><trkpt lat="43.31389854549096" lon="-0.7704469448006839"><ele>133.4</ele><time>2026-04-29T10:04:17Z</time></trkpt><trkpt lat="43.31382340639971" lon="-0.7705309311910248"><ele>133.60000000000002</ele><time>2026-04-29T10:04:18Z</time></trkpt><trkpt lat="43.31374896281389" lon="-0.7706170089863996"><ele>133.8</ele><time>2026-04-29T10:04:19Z</time></trkpt><trkpt lat="43.313674610597154" lon="-0.7707019036897041"><ele>134.0</ele><time>2026-04-29T10:04:20Z</time></trkpt><trkpt lat="43.31359893553852" lon="-0.7707874817778358"><ele>134.0</ele><time>2026-04-29T10:04:21Z</time></trkpt><trkpt lat="43.31352364713296" lon="-0.7708757192540634"><ele>134.0</ele><time>2026-04-29T10:04:22Z</time></trkpt><trkpt lat="43.313447154685676" lon="-0.7709617131969064"><ele>134.0</ele><time>2026-04-29T10:04:23Z</time></trkpt><trkpt lat="43.31337068210979" lon="-0.7710470764330012"><ele>134.0</ele><time>2026-04-29T10:04:24Z</time></trkpt><trkpt lat="43.31329362186173" lon="-0.771135498158835"><ele>134.0</ele><time>2026-04-29T10:04:25Z</time></trkpt><trkpt lat="43.31321684661653" lon="-0.7712211658591424"><ele>134.2</ele><time>2026-04-29T10:04:26Z</time></trkpt><trkpt lat="43.31314037750691" lon="-0.7713055303722275"><ele>134.4</ele><time>2026-04-29T10:04:27Z</time></trkpt><trkpt lat="43.31306552182319" lon="-0.7713921771776403"><ele>134.6</ele><time>2026-04-29T10:04:28Z</time></trkpt><trkpt lat="43.31298910527141" lon="-0.7714798506719445"><ele>134.8</ele><time>2026-04-29T10:04:29Z</time></trkpt><trkpt lat="43.312912208683585" lon="-0.7715641576345907"><ele>135.0</ele><time>2026-04-29T10:04:30Z</time></trkpt><trkpt lat="43.31283719118453" lon="-0.7716507812888911"><ele>135.6</ele><time>2026-04-29T10:04:31Z</time></trkpt><trkpt lat="43.31275967075214" lon="-0.7717390926017356"><ele>136.2</ele><time>2026-04-29T10:04:32Z</time></trkpt><trkpt lat="43.31268268119886" lon="-0.7718288375337777"><ele>136.8</ele><time>2026-04-29T10:04:33Z</time></trkpt><trkpt lat="43.31260898951945" lon="-0.7719204013261497"><ele>137.4</ele><time>2026-04-29T10:04:34Z</time></trkpt><trkpt lat="43.31253266099393" lon="-0.772010695911134"><ele>138.0</ele><time>2026-04-29T10:04:35Z</time></trkpt><trkpt lat="43.31245884028377" lon="-0.7721020971048206"><ele>138.0</ele><time>2026-04-29T10:04:36Z</time></trkpt><trkpt lat="43.31238651236919" lon="-0.7721969014593747"><ele>138.0</ele><time>2026-04-29T10:04:37Z</time></trkpt><trkpt lat="43.312318311882805" lon="-0.7722969108350732"><ele>138.0</ele><time>2026-04-29T10:04:38Z</time></trkpt><trkpt lat="43.31225496654179" lon="-0.7724057809725063"><ele>138.0</ele><time>2026-04-29T10:04:39Z</time></trkpt><trkpt lat="43.312197472269766" lon="-0.7725167179239678"><ele>138.0</ele><time>2026-04-29T10:04:40Z</time></trkpt><trkpt lat="43.31214160525697" lon="-0.7726331467913816"><ele>138.20000000000002</ele><time>2026-04-29T10:04:41Z</time></trkpt><trkpt lat="43.312088464642464" lon="-0.7727513945091653"><ele>138.4</ele><time>2026-04-29T10:04:42.001Z</time></trkpt><trkpt lat="43.312033922568205" lon="-0.7728715768892201"><ele>138.60000000000002</ele><time>2026-04-29T10:04:43.001Z</time></trkpt><trkpt lat="43.31198129803846" lon="-0.772990817818917"><ele>138.8</ele><time>2026-04-29T10:04:44.001Z</time></trkpt><trkpt lat="43.31192837776874" lon="-0.7731095031906036"><ele>139.0</ele><time>2026-04-29T10:04:45.001Z</time></trkpt><trkpt lat="43.31187620903909" lon="-0.7732283334169062"><ele>139.0</ele><time>2026-04-29T10:04:46.001Z</time></trkpt><trkpt lat="43.311822373617936" lon="-0.7733487996962874"><ele>139.0</ele><time>2026-04-29T10:04:47.001Z</time></trkpt><trkpt lat="43.31176489305151" lon="-0.7734662082412413"><ele>139.0</ele><time>2026-04-29T10:04:48.001Z</time></trkpt><trkpt lat="43.31171337174018" lon="-0.7735825041746087"><ele>139.0</ele><time>2026-04-29T10:04:49.001Z</time></trkpt><trkpt lat="43.31165589214654" lon="-0.7736958297846169"><ele>139.0</ele><time>2026-04-29T10:04:50.001Z</time></trkpt><trkpt lat="43.31159754139308" lon="-0.7738095133012091"><ele>139.2</ele><time>2026-04-29T10:04:51.001Z</time></trkpt><trkpt lat="43.31153839797863" lon="-0.7739238862460807"><ele>139.4</ele><time>2026-04-29T10:04:52.001Z</time></trkpt><trkpt lat="43.31147357919145" lon="-0.7740320233769398"><ele>139.6</ele><time>2026-04-29T10:04:53.001Z</time></trkpt><trkpt lat="43.31140197340443" lon="-0.7741325203344857"><ele>139.8</ele><time>2026-04-29T10:04:54.001Z</time></trkpt><trkpt lat="43.311329312967096" lon="-0.7742300362776517"><ele>140.0</ele><time>2026-04-29T10:04:55.001Z</time></trkpt><trkpt lat="43.311252710022" lon="-0.7743166347125146"><ele>141.8</ele><time>2026-04-29T10:04:56.001Z</time></trkpt><trkpt lat="43.31117866850212" lon="-0.7743956626195186"><ele>143.6</ele><time>2026-04-29T10:04:57.001Z</time></trkpt><trkpt lat="43.311101755253276" lon="-0.7744671751865805"><ele>145.4</ele><time>2026-04-29T10:04:58.001Z</time></trkpt><trkpt lat="43.31102717561137" lon="-0.7745371841260317"><ele>147.2</ele><time>2026-04-29T10:04:59.001Z</time></trkpt><trkpt lat="43.31095078963348" lon="-0.7745983140800305"><ele>149.0</ele><time>2026-04-29T10:05:00.001Z</time></trkpt><trkpt lat="43.310873215309414" lon="-0.7746542756739276"><ele>149.0</ele><time>2026-04-29T10:05:01.001Z</time></trkpt><trkpt lat="43.310796065540856" lon="-0.7747116765108618"><ele>149.0</ele><time>2026-04-29T10:05:02.001Z</time></trkpt><trkpt lat="43.310720869598725" lon="-0.7747736467353863"><ele>149.0</ele><time>2026-04-29T10:05:03.001Z</time></trkpt><trkpt lat="43.31064606352914" lon="-0.7748304776272452"><ele>149.0</ele><time>2026-04-29T10:05:04.001Z</time></trkpt><trkpt lat="43.31056970813928" lon="-0.7748914303016143"><ele>149.0</ele><time>2026-04-29T10:05:05.001Z</time></trkpt><trkpt lat="43.31049213615942" lon="-0.7749530940833451"><ele>149.0</ele><time>2026-04-29T10:05:06.001Z</time></trkpt><trkpt lat="43.31041350075959" lon="-0.7750161418631082"><ele>149.4</ele><time>2026-04-29T10:05:07.001Z</time></trkpt><trkpt lat="43.31033338672746" lon="-0.7750742394910664"><ele>149.8</ele><time>2026-04-29T10:05:08.001Z</time></trkpt><trkpt lat="43.310254002669346" lon="-0.7751352878024201"><ele>150.2</ele><time>2026-04-29T10:05:09.001Z</time></trkpt><trkpt lat="43.31017361119299" lon="-0.7751879373279924"><ele>150.6</ele><time>2026-04-29T10:05:10.001Z</time></trkpt><trkpt lat="43.31008881777692" lon="-0.7752295266120258"><ele>151.0</ele><time>2026-04-29T10:05:11.001Z</time></trkpt><trkpt lat="43.310002073178424" lon="-0.775263180538134"><ele>151.0</ele><time>2026-04-29T10:05:12.001Z</time></trkpt><trkpt lat="43.30991404097623" lon="-0.7752956589563312"><ele>151.0</ele><time>2026-04-29T10:05:13.001Z</time></trkpt><trkpt lat="43.30982632509034" lon="-0.775321142252079"><ele>151.0</ele><time>2026-04-29T10:05:14.001Z</time></trkpt><trkpt lat="43.309738719215396" lon="-0.775340959299696"><ele>151.0</ele><time>2026-04-29T10:05:15.001Z</time></trkpt><trkpt lat="43.309651899960876" lon="-0.7753521947051016"><ele>151.0</ele><time>2026-04-29T10:05:16.001Z</time></trkpt><trkpt lat="43.30956609504686" lon="-0.7753615892198594"><ele>151.0</ele><time>2026-04-29T10:05:17.001Z</time></trkpt><trkpt lat="43.30948131566879" lon="-0.775368925556305"><ele>152.33333333333334</ele><time>2026-04-29T10:05:18.001Z</time></trkpt><trkpt lat="43.30939752524543" lon="-0.7753765908234943"><ele>153.66666666666669</ele><time>2026-04-29T10:05:19.001Z</time></trkpt><trkpt lat="43.309315492456875" lon="-0.7753825068511898"><ele>155.0</ele><time>2026-04-29T10:05:20.001Z</time></trkpt><trkpt lat="43.30923464665201" lon="-0.7753883015001595"><ele>156.33333333333334</ele><time>2026-04-29T10:05:21.001Z</time></trkpt><trkpt lat="43.309154196317216" lon="-0.7753927451594107"><ele>157.66666666666666</ele><time>2026-04-29T10:05:22.001Z</time></trkpt><trkpt lat="43.30907471633457" lon="-0.775396671469567"><ele>159.0</ele><time>2026-04-29T10:05:23.001Z</time></trkpt><trkpt lat="43.30899638950725" lon="-0.7754022493141084"><ele>159.0</ele><time>2026-04-29T10:05:24.001Z</time></trkpt><trkpt lat="43.30891549231511" lon="-0.7754088993513195"><ele>159.0</ele><time>2026-04-29T10:05:25.001Z</time></trkpt><trkpt lat="43.30883406559318" lon="-0.7754148731603302"><ele>159.0</ele><time>2026-04-29T10:05:26.001Z</time></trkpt><trkpt lat="43.30875215688698" lon="-0.775414841102355"><ele>159.0</ele><time>2026-04-29T10:05:27.001Z</time></trkpt><trkpt lat="43.30867039635855" lon="-0.7754231425905006"><ele>159.0</ele><time>2026-04-29T10:05:28.001Z</time></trkpt><trkpt lat="43.30858961669964" lon="-0.7754274208908754"><ele>159.0</ele><time>2026-04-29T10:05:29.001Z</time></trkpt><trkpt lat="43.30850630850505" lon="-0.77543783537958"><ele>159.5</ele><time>2026-04-29T10:05:30.001Z</time></trkpt><trkpt lat="43.30842461076041" lon="-0.775443451940074"><ele>160.0</ele><time>2026-04-29T10:05:31.001Z</time></trkpt><trkpt lat="43.30833841401018" lon="-0.7754484124724383"><ele>160.5</ele><time>2026-04-29T10:05:32.001Z</time></trkpt><trkpt lat="43.308256815258495" lon="-0.7754553138818492"><ele>161.0</ele><time>2026-04-29T10:05:33.001Z</time></trkpt><trkpt lat="43.308170964133446" lon="-0.7754660068307153"><ele>161.5</ele><time>2026-04-29T10:05:34.001Z</time></trkpt><trkpt lat="43.30808345458092" lon="-0.775475714976554"><ele>162.0</ele><time>2026-04-29T10:05:35.001Z</time></trkpt><trkpt lat="43.30799619102469" lon="-0.7754796220849465"><ele>162.39999999999998</ele><time>2026-04-29T10:05:36.001Z</time></trkpt><trkpt lat="43.30790780808879" lon="-0.7754839253661143"><ele>162.79999999999998</ele><time>2026-04-29T10:05:37.001Z</time></trkpt><trkpt lat="43.307818565943805" lon="-0.7754878746262001"><ele>163.2</ele><time>2026-04-29T10:05:38.001Z</time></trkpt><trkpt lat="43.30772777095138" lon="-0.7754888518744054"><ele>163.6</ele><time>2026-04-29T10:05:39.001Z</time></trkpt><trkpt lat="43.30763410688318" lon="-0.7754923753700552"><ele>164.0</ele><time>2026-04-29T10:05:40.001Z</time></trkpt><trkpt lat="43.307542992305045" lon="-0.7754957192885963"><ele>164.0</ele><time>2026-04-29T10:05:41.001Z</time></trkpt><trkpt lat="43.30744870262805" lon="-0.7754836853656265"><ele>164.0</ele><time>2026-04-29T10:05:42.001Z</time></trkpt><trkpt lat="43.30735053760338" lon="-0.7754722323646884"><ele>164.0</ele><time>2026-04-29T10:05:43.001Z</time></trkpt><trkpt lat="43.30725263083639" lon="-0.7754602515440542"><ele>164.0</ele><time>2026-04-29T10:05:44Z</time></trkpt><trkpt lat="43.3071546539515" lon="-0.7754461855964797"><ele>164.0</ele><time>2026-04-29T10:05:45Z</time></trkpt><trkpt lat="43.30705254692118" lon="-0.7754318361419993"><ele>164.2</ele><time>2026-04-29T10:05:46Z</time></trkpt><trkpt lat="43.30695242572817" lon="-0.7754216794746874"><ele>164.39999999999998</ele><time>2026-04-29T10:05:47Z</time></trkpt><trkpt lat="43.30685226071584" lon="-0.77540869641042"><ele>164.6</ele><time>2026-04-29T10:05:48Z</time></trkpt><trkpt lat="43.30674991143973" lon="-0.775396563612379"><ele>164.8</ele><time>2026-04-29T10:05:49Z</time></trkpt><trkpt lat="43.306647795663565" lon="-0.7753818871989573"><ele>165.0</ele><time>2026-04-29T10:05:50Z</time></trkpt><trkpt lat="43.30654933676799" lon="-0.7753656408628796"><ele>165.0</ele><time>2026-04-29T10:05:51Z</time></trkpt><trkpt lat="43.306451213300065" lon="-0.7753523303502711"><ele>165.0</ele><time>2026-04-29T10:05:52Z</time></trkpt><trkpt lat="43.30635176207853" lon="-0.7753423642807451"><ele>165.0</ele><time>2026-04-29T10:05:53Z</time></trkpt><trkpt lat="43.30624976176942" lon="-0.7753240390814304"><ele>165.0</ele><time>2026-04-29T10:05:54Z</time></trkpt><trkpt lat="43.306150675471166" lon="-0.7753146407931352"><ele>165.0</ele><time>2026-04-29T10:05:55Z</time></trkpt><trkpt lat="43.306053461446446" lon="-0.7752987354415957"><ele>165.2</ele><time>2026-04-29T10:05:56Z</time></trkpt><trkpt lat="43.30595251290627" lon="-0.7752853625215678"><ele>165.4</ele><time>2026-04-29T10:05:57Z</time></trkpt><trkpt lat="43.30585205665476" lon="-0.7752707963741716"><ele>165.60000000000002</ele><time>2026-04-29T10:05:58Z</time></trkpt><trkpt lat="43.30575344383828" lon="-0.775252484125953"><ele>165.8</ele><time>2026-04-29T10:05:59Z</time></trkpt><trkpt lat="43.305653946381284" lon="-0.7752337672335581"><ele>166.0</ele><time>2026-04-29T10:06:00Z</time></trkpt><trkpt lat="43.30555568911851" lon="-0.7752094334252244"><ele>165.60000000000002</ele><time>2026-04-29T10:06:01Z</time></trkpt><trkpt lat="43.30545372422833" lon="-0.7751854922059687"><ele>165.2</ele><time>2026-04-29T10:06:02Z</time></trkpt><trkpt lat="43.30535345983835" lon="-0.7751567403810682"><ele>164.8</ele><time>2026-04-29T10:06:03Z</time></trkpt><trkpt lat="43.30525310882249" lon="-0.7751205901351169"><ele>164.39999999999998</ele><time>2026-04-29T10:06:04Z</time></trkpt><trkpt lat="43.305159027693136" lon="-0.7750775645794667"><ele>164.0</ele><time>2026-04-29T10:06:05Z</time></trkpt><trkpt lat="43.305065285938504" lon="-0.7750294177441929"><ele>164.0</ele><time>2026-04-29T10:06:06Z</time></trkpt><trkpt lat="43.30497074156895" lon="-0.7749775597629043"><ele>164.0</ele><time>2026-04-29T10:06:07Z</time></trkpt><trkpt lat="43.30487915893706" lon="-0.7749218071436529"><ele>164.0</ele><time>2026-04-29T10:06:08Z</time></trkpt><trkpt lat="43.304787410902314" lon="-0.7748632113755689"><ele>164.0</ele><time>2026-04-29T10:06:09Z</time></trkpt><trkpt lat="43.30469638251375" lon="-0.7748028899994004"><ele>164.0</ele><time>2026-04-29T10:06:10Z</time></trkpt><trkpt lat="43.30460259579351" lon="-0.7747459757144942"><ele>164.6</ele><time>2026-04-29T10:06:11Z</time></trkpt><trkpt lat="43.30451197014494" lon="-0.7746833783303818"><ele>165.2</ele><time>2026-04-29T10:06:12Z</time></trkpt><trkpt lat="43.30442094831945" lon="-0.774620235948388"><ele>165.79999999999998</ele><time>2026-04-29T10:06:13Z</time></trkpt><trkpt lat="43.304330177485774" lon="-0.7745576776738722"><ele>166.39999999999998</ele><time>2026-04-29T10:06:14Z</time></trkpt><trkpt lat="43.30423618828769" lon="-0.7744975369809352"><ele>167.0</ele><time>2026-04-29T10:06:15Z</time></trkpt><trkpt lat="43.30414552985046" lon="-0.7744356971860991"><ele>167.0</ele><time>2026-04-29T10:06:16Z</time></trkpt><trkpt lat="43.30405171575807" lon="-0.7743735423689715"><ele>167.0</ele><time>2026-04-29T10:06:17Z</time></trkpt><trkpt lat="43.3039559654448" lon="-0.7743111555359966"><ele>167.0</ele><time>2026-04-29T10:06:18Z</time></trkpt><trkpt lat="43.303873792383506" lon="-0.7742479158124885"><ele>167.0</ele><time>2026-04-29T10:06:19Z</time></trkpt><trkpt lat="43.30378685116648" lon="-0.7741878806884679"><ele>167.0</ele><time>2026-04-29T10:06:20Z</time></trkpt><trkpt lat="43.30369897471456" lon="-0.7741256085246546"><ele>166.83333333333331</ele><time>2026-04-29T10:06:21Z</time></trkpt><trkpt lat="43.303611751357664" lon="-0.7740671138135322"><ele>166.66666666666666</ele><time>2026-04-29T10:06:22Z</time></trkpt><trkpt lat="43.30353473086421" lon="-0.7740140475713285"><ele>166.5</ele><time>2026-04-29T10:06:23Z</time></trkpt><trkpt lat="43.30346379381023" lon="-0.7739618277313395"><ele>166.33333333333334</ele><time>2026-04-29T10:06:24Z</time></trkpt><trkpt lat="43.30339352666364" lon="-0.7739114205400511"><ele>166.16666666666669</ele><time>2026-04-29T10:06:25Z</time></trkpt><trkpt lat="43.30332903476875" lon="-0.7738676434330516"><ele>166.0</ele><time>2026-04-29T10:06:26Z</time></trkpt><trkpt lat="43.30327134879441" lon="-0.7738313200049721"><ele>166.0</ele><time>2026-04-29T10:06:27Z</time></trkpt><trkpt lat="43.303213300456726" lon="-0.7737775741940454"><ele>166.0</ele><time>2026-04-29T10:06:28Z</time></trkpt><trkpt lat="43.30315603254756" lon="-0.7737373629445677"><ele>166.0</ele><time>2026-04-29T10:06:29Z</time></trkpt><trkpt lat="43.30309419045135" lon="-0.7736901335966824"><ele>166.0</ele><time>2026-04-29T10:06:30Z</time></trkpt><trkpt lat="43.30303335634368" lon="-0.7736472277263838"><ele>166.0</ele><time>2026-04-29T10:06:31Z</time></trkpt><trkpt lat="43.3029714774479" lon="-0.773602582686191"><ele>166.0</ele><time>2026-04-29T10:06:32Z</time></trkpt><trkpt lat="43.302904389426615" lon="-0.7735656572753178"><ele>166.0</ele><time>2026-04-29T10:06:33Z</time></trkpt><trkpt lat="43.30283364007684" lon="-0.7735407266212705"><ele>166.16666666666669</ele><time>2026-04-29T10:06:34Z</time></trkpt><trkpt lat="43.30276167550015" lon="-0.7735203007683471"><ele>166.33333333333334</ele><time>2026-04-29T10:06:35Z</time></trkpt><trkpt lat="43.30268916286263" lon="-0.7735119254132625"><ele>166.5</ele><time>2026-04-29T10:06:36Z</time></trkpt><trkpt lat="43.30261899899873" lon="-0.7735164847408849"><ele>166.66666666666666</ele><time>2026-04-29T10:06:37Z</time></trkpt><trkpt lat="43.30254156727431" lon="-0.7735287978550109"><ele>166.83333333333331</ele><time>2026-04-29T10:06:38Z</time></trkpt><trkpt lat="43.30246198702504" lon="-0.7735516189301463"><ele>167.0</ele><time>2026-04-29T10:06:39Z</time></trkpt><trkpt lat="43.30238079573311" lon="-0.773584085724523"><ele>167.0</ele><time>2026-04-29T10:06:40Z</time></trkpt><trkpt lat="43.302307806533626" lon="-0.7736308601443056"><ele>167.0</ele><time>2026-04-29T10:06:41Z</time></trkpt><trkpt lat="43.30223465205102" lon="-0.7736758300307076"><ele>167.0</ele><time>2026-04-29T10:06:42Z</time></trkpt><trkpt lat="43.302160887601765" lon="-0.7737326774058275"><ele>167.0</ele><time>2026-04-29T10:06:43Z</time></trkpt><trkpt lat="43.30208730317562" lon="-0.7737882508527274"><ele>167.0</ele><time>2026-04-29T10:06:44Z</time></trkpt><trkpt lat="43.30200966644601" lon="-0.7738456833746156"><ele>167.0</ele><time>2026-04-29T10:06:45Z</time></trkpt><trkpt lat="43.301937293929115" lon="-0.7738987811368223"><ele>166.83333333333331</ele><time>2026-04-29T10:06:46Z</time></trkpt><trkpt lat="43.301862634273064" lon="-0.7739495008067051"><ele>166.66666666666666</ele><time>2026-04-29T10:06:47Z</time></trkpt><trkpt lat="43.30179035742267" lon="-0.7740047696554753"><ele>166.5</ele><time>2026-04-29T10:06:48Z</time></trkpt><trkpt lat="43.30171653649452" lon="-0.7740642703857163"><ele>166.33333333333334</ele><time>2026-04-29T10:06:49Z</time></trkpt><trkpt lat="43.3016502619957" lon="-0.7741143500523968"><ele>166.16666666666669</ele><time>2026-04-29T10:06:50Z</time></trkpt><trkpt lat="43.3015835962817" lon="-0.7741636020386131"><ele>166.0</ele><time>2026-04-29T10:06:51.001Z</time></trkpt><trkpt lat="43.30151966720474" lon="-0.7742124010359093"><ele>166.0</ele><time>2026-04-29T10:06:52.001Z</time></trkpt><trkpt lat="43.301451660172425" lon="-0.7742541056824634"><ele>166.0</ele><time>2026-04-29T10:06:53.001Z</time></trkpt><trkpt lat="43.301382484726986" lon="-0.7743010305768254"><ele>166.0</ele><time>2026-04-29T10:06:54.001Z</time></trkpt><trkpt lat="43.30131436544592" lon="-0.7743526423952422"><ele>166.0</ele><time>2026-04-29T10:06:55.001Z</time></trkpt><trkpt lat="43.30124524096361" lon="-0.774404883613929"><ele>166.0</ele><time>2026-04-29T10:06:56.001Z</time></trkpt><trkpt lat="43.3011781643784" lon="-0.7744604008052386"><ele>166.0</ele><time>2026-04-29T10:06:57.001Z</time></trkpt><trkpt lat="43.30110918019291" lon="-0.774514886906087"><ele>165.83333333333334</ele><time>2026-04-29T10:06:58.001Z</time></trkpt><trkpt lat="43.301032333047665" lon="-0.7745656339445962"><ele>165.66666666666669</ele><time>2026-04-29T10:06:59.001Z</time></trkpt><trkpt lat="43.30095271380245" lon="-0.7746153425844262"><ele>165.5</ele><time>2026-04-29T10:07:00.001Z</time></trkpt><trkpt lat="43.30089214916899" lon="-0.7746563242154225"><ele>165.33333333333334</ele><time>2026-04-29T10:07:01.001Z</time></trkpt><trkpt lat="43.30081834708141" lon="-0.7746969636520713"><ele>165.16666666666666</ele><time>2026-04-29T10:07:02.001Z</time></trkpt><trkpt lat="43.30074125812343" lon="-0.7747312954366817"><ele>165.0</ele><time>2026-04-29T10:07:03.001Z</time></trkpt><trkpt lat="43.30067034498541" lon="-0.7747913224508817"><ele>165.0</ele><time>2026-04-29T10:07:04.001Z</time></trkpt><trkpt lat="43.30059243460551" lon="-0.7748372377933953"><ele>165.0</ele><time>2026-04-29T10:07:05.001Z</time></trkpt><trkpt lat="43.30051232038736" lon="-0.7748812158250388"><ele>165.0</ele><time>2026-04-29T10:07:06.001Z</time></trkpt><trkpt lat="43.300433397667504" lon="-0.7749371618881861"><ele>165.0</ele><time>2026-04-29T10:07:07.001Z</time></trkpt><trkpt lat="43.300348453718506" lon="-0.7749897396267451"><ele>165.0</ele><time>2026-04-29T10:07:08.001Z</time></trkpt><trkpt lat="43.300259157400966" lon="-0.7750454373992559"><ele>165.4</ele><time>2026-04-29T10:07:09.001Z</time></trkpt><trkpt lat="43.300166202531884" lon="-0.7751085627419217"><ele>165.8</ele><time>2026-04-29T10:07:10.001Z</time></trkpt><trkpt lat="43.30007739697606" lon="-0.7751755737945594"><ele>166.2</ele><time>2026-04-29T10:07:11.001Z</time></trkpt><trkpt lat="43.29999113297776" lon="-0.7752581146201729"><ele>166.6</ele><time>2026-04-29T10:07:12.001Z</time></trkpt><trkpt lat="43.29990902450075" lon="-0.775342951632759"><ele>167.0</ele><time>2026-04-29T10:07:13.001Z</time></trkpt><trkpt lat="43.29982399123624" lon="-0.7754335296721396"><ele>164.2</ele><time>2026-04-29T10:07:14.001Z</time></trkpt><trkpt lat="43.29973417863372" lon="-0.7755228625113236"><ele>161.39999999999998</ele><time>2026-04-29T10:07:15.001Z</time></trkpt><trkpt lat="43.299650895150535" lon="-0.7756152075972049"><ele>158.60000000000002</ele><time>2026-04-29T10:07:16.001Z</time></trkpt><trkpt lat="43.29956958117807" lon="-0.7757060581067636"><ele>155.8</ele><time>2026-04-29T10:07:17.001Z</time></trkpt><trkpt lat="43.29947556886691" lon="-0.7757858542247622"><ele>153.0</ele><time>2026-04-29T10:07:18.001Z</time></trkpt><trkpt lat="43.2993794513268" lon="-0.7758617183679767"><ele>153.0</ele><time>2026-04-29T10:07:19.001Z</time></trkpt><trkpt lat="43.29928442903011" lon="-0.7759350761847449"><ele>153.0</ele><time>2026-04-29T10:07:20.001Z</time></trkpt><trkpt lat="43.29919021666136" lon="-0.7760145888275783"><ele>153.0</ele><time>2026-04-29T10:07:21.001Z</time></trkpt><trkpt lat="43.299097769276635" lon="-0.7761003980585195"><ele>153.0</ele><time>2026-04-29T10:07:22.001Z</time></trkpt><trkpt lat="43.2990120401261" lon="-0.7762021454436401"><ele>153.0</ele><time>2026-04-29T10:07:23.001Z</time></trkpt><trkpt lat="43.29892689614859" lon="-0.7762994943105209"><ele>150.25</ele><time>2026-04-29T10:07:24.001Z</time></trkpt><trkpt lat="43.29884016941652" lon="-0.7763978165874594"><ele>147.5</ele><time>2026-04-29T10:07:25.001Z</time></trkpt><trkpt lat="43.29875317711729" lon="-0.776502398331045"><ele>144.75</ele><time>2026-04-29T10:07:26.001Z</time></trkpt><trkpt lat="43.29866495870823" lon="-0.7766030007903997"><ele>142.0</ele><time>2026-04-29T10:07:27.001Z</time></trkpt><trkpt lat="43.29858182524815" lon="-0.7767147974591851"><ele>142.0</ele><time>2026-04-29T10:07:28.001Z</time></trkpt><trkpt lat="43.29848969524903" lon="-0.7768080892181332"><ele>142.0</ele><time>2026-04-29T10:07:29.001Z</time></trkpt><trkpt lat="43.29839505721251" lon="-0.7769240538465618"><ele>142.0</ele><time>2026-04-29T10:07:30.001Z</time></trkpt><trkpt lat="43.29831061548873" lon="-0.7770244842507045"><ele>142.0</ele><time>2026-04-29T10:07:31.001Z</time></trkpt><trkpt lat="43.29822744320875" lon="-0.7771438780246129"><ele>141.0</ele><time>2026-04-29T10:07:32.001Z</time></trkpt><trkpt lat="43.298145592249924" lon="-0.7772576314151047"><ele>140.0</ele><time>2026-04-29T10:07:33.001Z</time></trkpt><trkpt lat="43.29806733460865" lon="-0.7773652488914643"><ele>139.0</ele><time>2026-04-29T10:07:34.001Z</time></trkpt><trkpt lat="43.29799601132179" lon="-0.7774829298405904"><ele>138.0</ele><time>2026-04-29T10:07:35.001Z</time></trkpt><trkpt lat="43.29793496078917" lon="-0.777605393377275"><ele>137.0</ele><time>2026-04-29T10:07:36.001Z</time></trkpt><trkpt lat="43.29788100661462" lon="-0.7777228311792167"><ele>136.2</ele><time>2026-04-29T10:07:37.001Z</time></trkpt><trkpt lat="43.29783874115925" lon="-0.777841411976677"><ele>135.39999999999998</ele><time>2026-04-29T10:07:38.001Z</time></trkpt><trkpt lat="43.297794730636696" lon="-0.7779664525277484"><ele>134.60000000000002</ele><time>2026-04-29T10:07:39.001Z</time></trkpt><trkpt lat="43.29775770481906" lon="-0.7780888669923985"><ele>133.8</ele><time>2026-04-29T10:07:40.001Z</time></trkpt><trkpt lat="43.29772233501236" lon="-0.778206297633015"><ele>133.0</ele><time>2026-04-29T10:07:41.001Z</time></trkpt><trkpt lat="43.297684609420074" lon="-0.7783136984372206"><ele>133.0</ele><time>2026-04-29T10:07:42.001Z</time></trkpt><trkpt lat="43.29764808239861" lon="-0.7784253927012825"><ele>133.0</ele><time>2026-04-29T10:07:43.001Z</time></trkpt><trkpt lat="43.29761241071659" lon="-0.7785308019418332"><ele>133.0</ele><time>2026-04-29T10:07:44.001Z</time></trkpt><trkpt lat="43.29757545873484" lon="-0.7786350155355416"><ele>133.0</ele><time>2026-04-29T10:07:45.001Z</time></trkpt><trkpt lat="43.297543011592985" lon="-0.7787314649163649"><ele>133.0</ele><time>2026-04-29T10:07:46.001Z</time></trkpt><trkpt lat="43.29751125616632" lon="-0.7788278173981958"><ele>133.0</ele><time>2026-04-29T10:07:47.001Z</time></trkpt><trkpt lat="43.297481815507886" lon="-0.778921593540631"><ele>132.85714285714286</ele><time>2026-04-29T10:07:48.001Z</time></trkpt><trkpt lat="43.297450638294634" lon="-0.7790128228990892"><ele>132.71428571428572</ele><time>2026-04-29T10:07:49.001Z</time></trkpt><trkpt lat="43.297421191444236" lon="-0.7791060833308103"><ele>132.57142857142856</ele><time>2026-04-29T10:07:50Z</time></trkpt><trkpt lat="43.29739779009061" lon="-0.7792033976355385"><ele>132.42857142857144</ele><time>2026-04-29T10:07:51Z</time></trkpt><trkpt lat="43.29736891771531" lon="-0.7792941233483773"><ele>132.28571428571428</ele><time>2026-04-29T10:07:52Z</time></trkpt><trkpt lat="43.29733681175642" lon="-0.7793809321781016"><ele>132.14285714285714</ele><time>2026-04-29T10:07:53Z</time></trkpt><trkpt lat="43.29730927168101" lon="-0.7794735043435499"><ele>132.0</ele><time>2026-04-29T10:07:54Z</time></trkpt><trkpt lat="43.29727980673294" lon="-0.7795609654976782"><ele>132.57142857142856</ele><time>2026-04-29T10:07:55Z</time></trkpt><trkpt lat="43.29724837635336" lon="-0.7796496124045078"><ele>133.14285714285714</ele><time>2026-04-29T10:07:56Z</time></trkpt><trkpt lat="43.29722051633114" lon="-0.7797389065099899"><ele>133.71428571428572</ele><time>2026-04-29T10:07:57Z</time></trkpt><trkpt lat="43.29719283270212" lon="-0.7798283418702313"><ele>134.28571428571428</ele><time>2026-04-29T10:07:58Z</time></trkpt><trkpt lat="43.297162045632355" lon="-0.779915701848346"><ele>134.85714285714286</ele><time>2026-04-29T10:07:59Z</time></trkpt><trkpt lat="43.2971322325521" lon="-0.7800038495115647"><ele>135.42857142857142</ele><time>2026-04-29T10:08:00Z</time></trkpt><trkpt lat="43.297099851959246" lon="-0.7800934277341036"><ele>136.0</ele><time>2026-04-29T10:08:01Z</time></trkpt><trkpt lat="43.29707195960485" lon="-0.780185434372501"><ele>135.99999999999997</ele><time>2026-04-29T10:08:02Z</time></trkpt><trkpt lat="43.2970426576923" lon="-0.7802759365463543"><ele>136.0</ele><time>2026-04-29T10:08:03Z</time></trkpt><trkpt lat="43.297012200669215" lon="-0.7803658787664834"><ele>136.0</ele><time>2026-04-29T10:08:04Z</time></trkpt><trkpt lat="43.29698343104622" lon="-0.7804549619974386"><ele>136.0</ele><time>2026-04-29T10:08:05Z</time></trkpt><trkpt lat="43.29695249846917" lon="-0.7805468938046362"><ele>136.0</ele><time>2026-04-29T10:08:06Z</time></trkpt><trkpt lat="43.29692057999948" lon="-0.7806335665996927"><ele>135.99999999999997</ele><time>2026-04-29T10:08:07Z</time></trkpt><trkpt lat="43.29688771338511" lon="-0.7807215407092354"><ele>136.0</ele><time>2026-04-29T10:08:08Z</time></trkpt><trkpt lat="43.29685874136528" lon="-0.7808087720761081"><ele>135.99999999999997</ele><time>2026-04-29T10:08:09Z</time></trkpt><trkpt lat="43.296829686089204" lon="-0.7808951781067558"><ele>136.0</ele><time>2026-04-29T10:08:10Z</time></trkpt><trkpt lat="43.296799680437815" lon="-0.7809804426162673"><ele>136.0</ele><time>2026-04-29T10:08:11Z</time></trkpt><trkpt lat="43.29676931920568" lon="-0.7810650097070593"><ele>136.0</ele><time>2026-04-29T10:08:12Z</time></trkpt><trkpt lat="43.29673963184803" lon="-0.7811483730492484"><ele>136.0</ele><time>2026-04-29T10:08:13Z</time></trkpt><trkpt lat="43.29671242289176" lon="-0.7812315589462232"><ele>135.99999999999997</ele><time>2026-04-29T10:08:14Z</time></trkpt><trkpt lat="43.296688414091584" lon="-0.7813132505586688"><ele>136.0</ele><time>2026-04-29T10:08:15Z</time></trkpt><trkpt lat="43.29666259226222" lon="-0.7813977953947734"><ele>136.14285714285714</ele><time>2026-04-29T10:08:16Z</time></trkpt><trkpt lat="43.29663636152473" lon="-0.7814786373424204"><ele>136.28571428571428</ele><time>2026-04-29T10:08:17Z</time></trkpt><trkpt lat="43.296608739774406" lon="-0.7815592584753831"><ele>136.42857142857144</ele><time>2026-04-29T10:08:18Z</time></trkpt><trkpt lat="43.296581657982514" lon="-0.7816389465788939"><ele>136.57142857142856</ele><time>2026-04-29T10:08:19Z</time></trkpt><trkpt lat="43.296532006380346" lon="-0.7817943446847333"><ele>136.71428571428572</ele><time>2026-04-29T10:08:21Z</time></trkpt><trkpt lat="43.296505190344135" lon="-0.7818748204641204"><ele>136.85714285714286</ele><time>2026-04-29T10:08:22Z</time></trkpt><trkpt lat="43.296483016884274" lon="-0.7819635085959769"><ele>137.0</ele><time>2026-04-29T10:08:23Z</time></trkpt><trkpt lat="43.29645432108392" lon="-0.7820470854011863"><ele>137.57142857142858</ele><time>2026-04-29T10:08:24Z</time></trkpt><trkpt lat="43.296426492643185" lon="-0.7821286858298682"><ele>138.14285714285714</ele><time>2026-04-29T10:08:25Z</time></trkpt><trkpt lat="43.29639907945908" lon="-0.7822087939478827"><ele>138.71428571428572</ele><time>2026-04-29T10:08:26Z</time></trkpt><trkpt lat="43.29636650930336" lon="-0.7822916863374018"><ele>139.28571428571428</ele><time>2026-04-29T10:08:27Z</time></trkpt><trkpt lat="43.296337371279705" lon="-0.782374301275502"><ele>139.85714285714286</ele><time>2026-04-29T10:08:28Z</time></trkpt><trkpt lat="43.29631147411169" lon="-0.7824585638515552"><ele>140.42857142857144</ele><time>2026-04-29T10:08:29Z</time></trkpt><trkpt lat="43.29628373911115" lon="-0.7825382063683087"><ele>141.0</ele><time>2026-04-29T10:08:30Z</time></trkpt><trkpt lat="43.29625392568056" lon="-0.7826183774313302"><ele>141.85714285714286</ele><time>2026-04-29T10:08:31Z</time></trkpt><trkpt lat="43.29622450901283" lon="-0.7826995491909662"><ele>142.71428571428572</ele><time>2026-04-29T10:08:32Z</time></trkpt><trkpt lat="43.29619691808328" lon="-0.7827806881335188"><ele>143.57142857142856</ele><time>2026-04-29T10:08:33Z</time></trkpt><trkpt lat="43.29616729185322" lon="-0.782858590202582"><ele>144.42857142857144</ele><time>2026-04-29T10:08:34Z</time></trkpt><trkpt lat="43.2961387463339" lon="-0.7829484678585961"><ele>145.28571428571428</ele><time>2026-04-29T10:08:35Z</time></trkpt><trkpt lat="43.296112199870805" lon="-0.7830403240726439"><ele>146.14285714285714</ele><time>2026-04-29T10:08:36Z</time></trkpt><trkpt lat="43.29608356144064" lon="-0.7831246949068904"><ele>147.0</ele><time>2026-04-29T10:08:37Z</time></trkpt><trkpt lat="43.296055359128864" lon="-0.7832169933375863"><ele>147.0</ele><time>2026-04-29T10:08:38Z</time></trkpt><trkpt lat="43.29602974137317" lon="-0.7833122134091749"><ele>147.0</ele><time>2026-04-29T10:08:39Z</time></trkpt><trkpt lat="43.296000388682984" lon="-0.78340423466641"><ele>147.0</ele><time>2026-04-29T10:08:40Z</time></trkpt><trkpt lat="43.29596866394897" lon="-0.7834985545428825"><ele>147.0</ele><time>2026-04-29T10:08:41Z</time></trkpt><trkpt lat="43.29593800992551" lon="-0.7835924402103026"><ele>147.0</ele><time>2026-04-29T10:08:42Z</time></trkpt><trkpt lat="43.2959063729899" lon="-0.783688513085432"><ele>147.0</ele><time>2026-04-29T10:08:43Z</time></trkpt><trkpt lat="43.29587342374587" lon="-0.783784314391483"><ele>147.33333333333334</ele><time>2026-04-29T10:08:44Z</time></trkpt><trkpt lat="43.29584355583355" lon="-0.7838833011307086"><ele>147.66666666666666</ele><time>2026-04-29T10:08:45Z</time></trkpt><trkpt lat="43.29581277162851" lon="-0.7839796144275715"><ele>148.0</ele><time>2026-04-29T10:08:46Z</time></trkpt><trkpt lat="43.29577783818246" lon="-0.7840753137644882"><ele>148.33333333333331</ele><time>2026-04-29T10:08:47Z</time></trkpt><trkpt lat="43.29574275862744" lon="-0.7841713075529658"><ele>148.66666666666666</ele><time>2026-04-29T10:08:48Z</time></trkpt><trkpt lat="43.295706771837104" lon="-0.7842666368455483"><ele>149.0</ele><time>2026-04-29T10:08:49Z</time></trkpt><trkpt lat="43.29567575837446" lon="-0.7843686117101892"><ele>150.33333333333331</ele><time>2026-04-29T10:08:50.001Z</time></trkpt><trkpt lat="43.29564424813822" lon="-0.7844680243679132"><ele>151.66666666666666</ele><time>2026-04-29T10:08:51.001Z</time></trkpt><trkpt lat="43.295612029380905" lon="-0.7845725825524525"><ele>153.0</ele><time>2026-04-29T10:08:52.001Z</time></trkpt><trkpt lat="43.29557806179527" lon="-0.7846722873402403"><ele>154.33333333333334</ele><time>2026-04-29T10:08:53.001Z</time></trkpt><trkpt lat="43.29554115211513" lon="-0.78477467698936"><ele>155.66666666666669</ele><time>2026-04-29T10:08:54.001Z</time></trkpt><trkpt lat="43.29551187977108" lon="-0.7848755688369485"><ele>157.0</ele><time>2026-04-29T10:08:55.001Z</time></trkpt><trkpt lat="43.29548059267274" lon="-0.7849760084874755"><ele>157.16666666666669</ele><time>2026-04-29T10:08:56.001Z</time></trkpt><trkpt lat="43.29544759137455" lon="-0.7850790268428014"><ele>157.33333333333334</ele><time>2026-04-29T10:08:57.001Z</time></trkpt><trkpt lat="43.29541511211502" lon="-0.7851781290147639"><ele>157.5</ele><time>2026-04-29T10:08:58.001Z</time></trkpt><trkpt lat="43.295383080775856" lon="-0.7852765493972124"><ele>157.66666666666666</ele><time>2026-04-29T10:08:59.001Z</time></trkpt><trkpt lat="43.29535002944133" lon="-0.785376124304311"><ele>157.83333333333331</ele><time>2026-04-29T10:09:00.001Z</time></trkpt><trkpt lat="43.29531754579243" lon="-0.7854757268331699"><ele>158.0</ele><time>2026-04-29T10:09:01.001Z</time></trkpt><trkpt lat="43.295287208249846" lon="-0.7855756736043173"><ele>158.57142857142858</ele><time>2026-04-29T10:09:02.001Z</time></trkpt><trkpt lat="43.29525675266882" lon="-0.785672539980243"><ele>159.14285714285714</ele><time>2026-04-29T10:09:03.001Z</time></trkpt><trkpt lat="43.295227133663765" lon="-0.7857688558990813"><ele>159.71428571428572</ele><time>2026-04-29T10:09:04.001Z</time></trkpt><trkpt lat="43.29519703856184" lon="-0.7858601754108206"><ele>160.28571428571428</ele><time>2026-04-29T10:09:05.001Z</time></trkpt><trkpt lat="43.29516490637991" lon="-0.7859513611584037"><ele>160.85714285714286</ele><time>2026-04-29T10:09:06.001Z</time></trkpt><trkpt lat="43.29513125125312" lon="-0.7860422354817646"><ele>161.42857142857144</ele><time>2026-04-29T10:09:07.001Z</time></trkpt><trkpt lat="43.295100227305326" lon="-0.786135120855353"><ele>162.0</ele><time>2026-04-29T10:09:08.001Z</time></trkpt><trkpt lat="43.29507076270188" lon="-0.7862277784990167"><ele>162.66666666666666</ele><time>2026-04-29T10:09:09.001Z</time></trkpt><trkpt lat="43.2950412337504" lon="-0.7863202408963861"><ele>163.33333333333334</ele><time>2026-04-29T10:09:10.001Z</time></trkpt><trkpt lat="43.29500732406608" lon="-0.7864146485754638"><ele>164.0</ele><time>2026-04-29T10:09:11.001Z</time></trkpt><trkpt lat="43.294975793150506" lon="-0.7865128233207925"><ele>164.66666666666669</ele><time>2026-04-29T10:09:12.001Z</time></trkpt><trkpt lat="43.294937516601905" lon="-0.7866162338668482"><ele>165.33333333333334</ele><time>2026-04-29T10:09:13.001Z</time></trkpt><trkpt lat="43.29490662878258" lon="-0.7867232180147204"><ele>166.0</ele><time>2026-04-29T10:09:14.001Z</time></trkpt><trkpt lat="43.294870516999204" lon="-0.7868252129145838"><ele>166.4</ele><time>2026-04-29T10:09:15.001Z</time></trkpt><trkpt lat="43.2948321763145" lon="-0.7869513563311006"><ele>166.8</ele><time>2026-04-29T10:09:16.001Z</time></trkpt><trkpt lat="43.29478666169393" lon="-0.7870880873057642"><ele>167.20000000000002</ele><time>2026-04-29T10:09:17.001Z</time></trkpt><trkpt lat="43.29473803481765" lon="-0.7872353426555389"><ele>167.60000000000002</ele><time>2026-04-29T10:09:18.001Z</time></trkpt><trkpt lat="43.294685515906934" lon="-0.7873795183865749"><ele>168.0</ele><time>2026-04-29T10:09:19.001Z</time></trkpt><trkpt lat="43.29462737917501" lon="-0.7875209418903675"><ele>168.5</ele><time>2026-04-29T10:09:20.001Z</time></trkpt><trkpt lat="43.29456875584688" lon="-0.7876831801248714"><ele>169.0</ele><time>2026-04-29T10:09:21.001Z</time></trkpt><trkpt lat="43.29452929706763" lon="-0.7878663760630694"><ele>169.5</ele><time>2026-04-29T10:09:24.001Z</time></trkpt><trkpt lat="43.29449186638345" lon="-0.787980759178707"><ele>170.0</ele><time>2026-04-29T10:09:25.001Z</time></trkpt><trkpt lat="43.29445418626964" lon="-0.7880934986989033"><ele>170.0</ele><time>2026-04-29T10:09:26.001Z</time></trkpt><trkpt lat="43.29441788637607" lon="-0.7882092661035257"><ele>170.0</ele><time>2026-04-29T10:09:27.001Z</time></trkpt><trkpt lat="43.2943812035514" lon="-0.788324212909333"><ele>170.0</ele><time>2026-04-29T10:09:28.001Z</time></trkpt><trkpt lat="43.29434212104949" lon="-0.7884393729595327"><ele>170.0</ele><time>2026-04-29T10:09:29.001Z</time></trkpt><trkpt lat="43.29430721635615" lon="-0.78855328206401"><ele>170.0</ele><time>2026-04-29T10:09:30.001Z</time></trkpt><trkpt lat="43.29426933680258" lon="-0.78866857148264"><ele>170.2</ele><time>2026-04-29T10:09:31.001Z</time></trkpt><trkpt lat="43.294231486517816" lon="-0.7887813384010628"><ele>170.4</ele><time>2026-04-29T10:09:32.001Z</time></trkpt><trkpt lat="43.29419463186461" lon="-0.788894211755587"><ele>170.60000000000002</ele><time>2026-04-29T10:09:33.001Z</time></trkpt><trkpt lat="43.29415821183629" lon="-0.7890071260498215"><ele>170.8</ele><time>2026-04-29T10:09:34.001Z</time></trkpt><trkpt lat="43.29411806606562" lon="-0.7891192646329909"><ele>171.0</ele><time>2026-04-29T10:09:35.001Z</time></trkpt><trkpt lat="43.29408370183358" lon="-0.7892332445321505"><ele>171.33333333333334</ele><time>2026-04-29T10:09:36.001Z</time></trkpt><trkpt lat="43.29404659931556" lon="-0.7893463793143255"><ele>171.66666666666666</ele><time>2026-04-29T10:09:37.001Z</time></trkpt><trkpt lat="43.29400922325743" lon="-0.7894563652655829"><ele>172.0</ele><time>2026-04-29T10:09:38.001Z</time></trkpt><trkpt lat="43.29397538657888" lon="-0.7895638981545636"><ele>172.33333333333331</ele><time>2026-04-29T10:09:39.001Z</time></trkpt><trkpt lat="43.29394051469324" lon="-0.7896703950826028"><ele>172.66666666666666</ele><time>2026-04-29T10:09:40.001Z</time></trkpt><trkpt lat="43.293903070206014" lon="-0.7897790528238271"><ele>173.0</ele><time>2026-04-29T10:09:41.001Z</time></trkpt><trkpt lat="43.29386688505789" lon="-0.7898910221099005"><ele>173.66666666666666</ele><time>2026-04-29T10:09:42.001Z</time></trkpt><trkpt lat="43.29383168182273" lon="-0.7900053603858211"><ele>174.33333333333331</ele><time>2026-04-29T10:09:43.001Z</time></trkpt><trkpt lat="43.29379997445411" lon="-0.7901105997022436"><ele>175.0</ele><time>2026-04-29T10:09:44.001Z</time></trkpt><trkpt lat="43.29376069584349" lon="-0.7902208716868188"><ele>175.66666666666666</ele><time>2026-04-29T10:09:45.001Z</time></trkpt><trkpt lat="43.293721781176444" lon="-0.790316654571976"><ele>176.33333333333334</ele><time>2026-04-29T10:09:46.001Z</time></trkpt><trkpt lat="43.293686781924826" lon="-0.7904306642631571"><ele>177.0</ele><time>2026-04-29T10:09:47.001Z</time></trkpt><trkpt lat="43.29364710057083" lon="-0.7905406457819234"><ele>177.5</ele><time>2026-04-29T10:09:48.001Z</time></trkpt><trkpt lat="43.29361322211681" lon="-0.7906513138564621"><ele>178.0</ele><time>2026-04-29T10:09:49.001Z</time></trkpt><trkpt lat="43.293575972564746" lon="-0.790761600566451"><ele>178.5</ele><time>2026-04-29T10:09:50.001Z</time></trkpt><trkpt lat="43.29353871626105" lon="-0.7908718836212375"><ele>179.0</ele><time>2026-04-29T10:09:51.001Z</time></trkpt><trkpt lat="43.29350211047365" lon="-0.790983794984394"><ele>179.5</ele><time>2026-04-29T10:09:52.001Z</time></trkpt><trkpt lat="43.293462688055456" lon="-0.7910918657991214"><ele>180.0</ele><time>2026-04-29T10:09:53.001Z</time></trkpt><trkpt lat="43.29342868977119" lon="-0.7912002458415952"><ele>181.0</ele><time>2026-04-29T10:09:54.001Z</time></trkpt><trkpt lat="43.293398838734035" lon="-0.7913062120889941"><ele>182.0</ele><time>2026-04-29T10:09:55.001Z</time></trkpt><trkpt lat="43.29336108316462" lon="-0.7914136874773262"><ele>183.0</ele><time>2026-04-29T10:09:56Z</time></trkpt><trkpt lat="43.293328471954716" lon="-0.7915219272722672"><ele>184.0</ele><time>2026-04-29T10:09:57Z</time></trkpt><trkpt lat="43.29329830853318" lon="-0.7916308293649768"><ele>185.0</ele><time>2026-04-29T10:09:58Z</time></trkpt><trkpt lat="43.29326264696184" lon="-0.7917332268044637"><ele>186.0</ele><time>2026-04-29T10:09:59Z</time></trkpt><trkpt lat="43.29322799916254" lon="-0.7918425114522796"><ele>186.16666666666666</ele><time>2026-04-29T10:10:00Z</time></trkpt><trkpt lat="43.29319327699048" lon="-0.791949552469212"><ele>186.33333333333334</ele><time>2026-04-29T10:10:01Z</time></trkpt><trkpt lat="43.293159268759425" lon="-0.7920538291016697"><ele>186.5</ele><time>2026-04-29T10:10:02Z</time></trkpt><trkpt lat="43.29312704996847" lon="-0.7921601878554245"><ele>186.66666666666669</ele><time>2026-04-29T10:10:03Z</time></trkpt><trkpt lat="43.293095563163924" lon="-0.7922667258350424"><ele>186.83333333333334</ele><time>2026-04-29T10:10:04Z</time></trkpt><trkpt lat="43.29306019593856" lon="-0.7923758543152455"><ele>187.0</ele><time>2026-04-29T10:10:05Z</time></trkpt><trkpt lat="43.293025860843436" lon="-0.792483099322449"><ele>187.0</ele><time>2026-04-29T10:10:06Z</time></trkpt><trkpt lat="43.2929895656363" lon="-0.7925882289682363"><ele>187.0</ele><time>2026-04-29T10:10:07Z</time></trkpt><trkpt lat="43.29295317850985" lon="-0.7926950473717969"><ele>187.0</ele><time>2026-04-29T10:10:08Z</time></trkpt><trkpt lat="43.29292066721381" lon="-0.7927992081302335"><ele>187.0</ele><time>2026-04-29T10:10:09Z</time></trkpt><trkpt lat="43.292889172086355" lon="-0.7929051490523152"><ele>187.0</ele><time>2026-04-29T10:10:10Z</time></trkpt><trkpt lat="43.292854186246934" lon="-0.7930077836865012"><ele>187.0</ele><time>2026-04-29T10:10:11Z</time></trkpt><trkpt lat="43.29282194413192" lon="-0.7931096322669254"><ele>187.33333333333334</ele><time>2026-04-29T10:10:12Z</time></trkpt><trkpt lat="43.292788797570005" lon="-0.7932099346390569"><ele>187.66666666666669</ele><time>2026-04-29T10:10:13Z</time></trkpt><trkpt lat="43.29275662199649" lon="-0.7933112264965588"><ele>188.0</ele><time>2026-04-29T10:10:14Z</time></trkpt><trkpt lat="43.29272414140848" lon="-0.7934106116850969"><ele>188.33333333333334</ele><time>2026-04-29T10:10:15Z</time></trkpt><trkpt lat="43.29269107297222" lon="-0.7935108350654543"><ele>188.66666666666666</ele><time>2026-04-29T10:10:16Z</time></trkpt><trkpt lat="43.29265597099745" lon="-0.7936118013378886"><ele>189.0</ele><time>2026-04-29T10:10:17Z</time></trkpt><trkpt lat="43.29261983977179" lon="-0.793714980618569"><ele>189.0</ele><time>2026-04-29T10:10:18Z</time></trkpt><trkpt lat="43.292580017959416" lon="-0.793824728720945"><ele>189.0</ele><time>2026-04-29T10:10:19Z</time></trkpt><trkpt lat="43.29253461178632" lon="-0.7939326463103717"><ele>189.0</ele><time>2026-04-29T10:10:20Z</time></trkpt><trkpt lat="43.292488635708224" lon="-0.794047260663017"><ele>189.0</ele><time>2026-04-29T10:10:21Z</time></trkpt><trkpt lat="43.29242149032855" lon="-0.7941686944336523"><ele>189.0</ele><time>2026-04-29T10:10:22Z</time></trkpt><trkpt lat="43.29236397162321" lon="-0.7942818568779603"><ele>188.25</ele><time>2026-04-29T10:10:23Z</time></trkpt><trkpt lat="43.29229088782582" lon="-0.7943953750210577"><ele>187.5</ele><time>2026-04-29T10:10:24Z</time></trkpt><trkpt lat="43.29221412355464" lon="-0.7945120418666054"><ele>186.75</ele><time>2026-04-29T10:10:25Z</time></trkpt><trkpt lat="43.29213192735229" lon="-0.7946267816266034"><ele>186.0</ele><time>2026-04-29T10:10:26Z</time></trkpt><trkpt lat="43.2920578653753" lon="-0.7947397440882814"><ele>186.0</ele><time>2026-04-29T10:10:27Z</time></trkpt><trkpt lat="43.29197977194347" lon="-0.7948560381459746"><ele>186.0</ele><time>2026-04-29T10:10:28Z</time></trkpt><trkpt lat="43.291904449597524" lon="-0.7949695690916446"><ele>186.0</ele><time>2026-04-29T10:10:29Z</time></trkpt><trkpt lat="43.291831976042516" lon="-0.7950778027992733"><ele>186.0</ele><time>2026-04-29T10:10:30Z</time></trkpt><trkpt lat="43.291758570893194" lon="-0.7951868086519014"><ele>186.0</ele><time>2026-04-29T10:10:31Z</time></trkpt><trkpt lat="43.291686432611854" lon="-0.7952922205533226"><ele>185.8</ele><time>2026-04-29T10:10:32Z</time></trkpt><trkpt lat="43.29161403385339" lon="-0.7953961469551578"><ele>185.60000000000002</ele><time>2026-04-29T10:10:33Z</time></trkpt><trkpt lat="43.291545148925266" lon="-0.7954968690742514"><ele>185.4</ele><time>2026-04-29T10:10:34Z</time></trkpt><trkpt lat="43.291476122415084" lon="-0.7955988457690667"><ele>185.2</ele><time>2026-04-29T10:10:35Z</time></trkpt><trkpt lat="43.29141115119572" lon="-0.7956948604943778"><ele>185.0</ele><time>2026-04-29T10:10:36Z</time></trkpt><trkpt lat="43.29134650554613" lon="-0.7957930766867236"><ele>186.2</ele><time>2026-04-29T10:10:37Z</time></trkpt><trkpt lat="43.29128201769391" lon="-0.7958899398653813"><ele>187.4</ele><time>2026-04-29T10:10:38Z</time></trkpt><trkpt lat="43.29121753208721" lon="-0.7959827951915901"><ele>188.60000000000002</ele><time>2026-04-29T10:10:39Z</time></trkpt><trkpt lat="43.291155265872305" lon="-0.7960754361914626"><ele>189.8</ele><time>2026-04-29T10:10:40Z</time></trkpt><trkpt lat="43.291094679504695" lon="-0.7961674232249664"><ele>191.0</ele><time>2026-04-29T10:10:41Z</time></trkpt><trkpt lat="43.2910353579219" lon="-0.7962540708300678"><ele>191.0</ele><time>2026-04-29T10:10:42Z</time></trkpt><trkpt lat="43.290975786241205" lon="-0.7963412197318563"><ele>191.0</ele><time>2026-04-29T10:10:43Z</time></trkpt><trkpt lat="43.290918385867144" lon="-0.7964268516169504"><ele>191.0</ele><time>2026-04-29T10:10:44Z</time></trkpt><trkpt lat="43.290860470730834" lon="-0.7965099433043644"><ele>191.0</ele><time>2026-04-29T10:10:45Z</time></trkpt><trkpt lat="43.29080374868522" lon="-0.7965945315576393"><ele>191.0</ele><time>2026-04-29T10:10:46Z</time></trkpt><trkpt lat="43.290747010490264" lon="-0.7966776551691975"><ele>191.0</ele><time>2026-04-29T10:10:47Z</time></trkpt><trkpt lat="43.290689475956434" lon="-0.7967619749545862"><ele>190.83333333333331</ele><time>2026-04-29T10:10:48Z</time></trkpt><trkpt lat="43.29063446123629" lon="-0.7968469272848503"><ele>190.66666666666666</ele><time>2026-04-29T10:10:49Z</time></trkpt><trkpt lat="43.29056980629295" lon="-0.7969321320538348"><ele>190.5</ele><time>2026-04-29T10:10:50Z</time></trkpt><trkpt lat="43.29051089830687" lon="-0.7970191954758231"><ele>190.33333333333334</ele><time>2026-04-29T10:10:51.001Z</time></trkpt><trkpt lat="43.290455419443305" lon="-0.7971065829984421"><ele>190.16666666666669</ele><time>2026-04-29T10:10:52.001Z</time></trkpt><trkpt lat="43.29039738397978" lon="-0.7971891428886723"><ele>190.0</ele><time>2026-04-29T10:10:53.001Z</time></trkpt><trkpt lat="43.29034104237359" lon="-0.7972713886451824"><ele>191.66666666666669</ele><time>2026-04-29T10:10:54.001Z</time></trkpt><trkpt lat="43.29028113405115" lon="-0.7973508461247512"><ele>193.33333333333334</ele><time>2026-04-29T10:10:55.001Z</time></trkpt><trkpt lat="43.29022531915479" lon="-0.7974325393284235"><ele>195.0</ele><time>2026-04-29T10:10:56.001Z</time></trkpt><trkpt lat="43.29017311569095" lon="-0.7975136918083122"><ele>196.66666666666669</ele><time>2026-04-29T10:10:57.001Z</time></trkpt><trkpt lat="43.29012121820352" lon="-0.7975929378098768"><ele>198.33333333333334</ele><time>2026-04-29T10:10:58.001Z</time></trkpt><trkpt lat="43.2900674403109" lon="-0.7976718923189429"><ele>200.0</ele><time>2026-04-29T10:10:59.001Z</time></trkpt><trkpt lat="43.290015936400806" lon="-0.7977495416926"><ele>200.00000000000003</ele><time>2026-04-29T10:11:00.001Z</time></trkpt><trkpt lat="43.28996528248962" lon="-0.7978267254140118"><ele>200.0</ele><time>2026-04-29T10:11:01.001Z</time></trkpt><trkpt lat="43.289912803022" lon="-0.7979100465555979"><ele>200.0</ele><time>2026-04-29T10:11:02.001Z</time></trkpt><trkpt lat="43.28986201985186" lon="-0.797990455216203"><ele>200.0</ele><time>2026-04-29T10:11:03.001Z</time></trkpt><trkpt lat="43.28981034489235" lon="-0.7980757622236643"><ele>200.00000000000003</ele><time>2026-04-29T10:11:04.001Z</time></trkpt><trkpt lat="43.28976201300191" lon="-0.7981650835371965"><ele>200.0</ele><time>2026-04-29T10:11:05.001Z</time></trkpt><trkpt lat="43.28971369257858" lon="-0.7982593918773635"><ele>200.00000000000003</ele><time>2026-04-29T10:11:06.001Z</time></trkpt><trkpt lat="43.28966864530859" lon="-0.7983548703516884"><ele>200.0</ele><time>2026-04-29T10:11:07.001Z</time></trkpt><trkpt lat="43.289610762361086" lon="-0.7984550515212419"><ele>200.0</ele><time>2026-04-29T10:11:08.001Z</time></trkpt><trkpt lat="43.28955825023389" lon="-0.7985574244298971"><ele>200.0</ele><time>2026-04-29T10:11:09.001Z</time></trkpt><trkpt lat="43.289506738476625" lon="-0.7986582325878707"><ele>200.00000000000003</ele><time>2026-04-29T10:11:10.001Z</time></trkpt><trkpt lat="43.28945431874609" lon="-0.7987550547668393"><ele>200.0</ele><time>2026-04-29T10:11:11.001Z</time></trkpt><trkpt lat="43.28939623400781" lon="-0.798854621959956"><ele>200.0</ele><time>2026-04-29T10:11:12.001Z</time></trkpt><trkpt lat="43.28934207007369" lon="-0.7989549599041083"><ele>200.0</ele><time>2026-04-29T10:11:13.001Z</time></trkpt><trkpt lat="43.28928532734157" lon="-0.7990565759846787"><ele>200.0</ele><time>2026-04-29T10:11:14.001Z</time></trkpt><trkpt lat="43.28922734864957" lon="-0.7991475772268021"><ele>200.0</ele><time>2026-04-29T10:11:15.001Z</time></trkpt><trkpt lat="43.28916346557101" lon="-0.799237305743443"><ele>200.0</ele><time>2026-04-29T10:11:16.001Z</time></trkpt><trkpt lat="43.28908971855457" lon="-0.7993138039769876"><ele>200.4</ele><time>2026-04-29T10:11:17.001Z</time></trkpt><trkpt lat="43.28901411708497" lon="-0.7993835570110137"><ele>200.8</ele><time>2026-04-29T10:11:18.001Z</time></trkpt><trkpt lat="43.288936576706185" lon="-0.7994459850133737"><ele>201.2</ele><time>2026-04-29T10:11:19.001Z</time></trkpt><trkpt lat="43.288857954018184" lon="-0.7995080443841092"><ele>201.6</ele><time>2026-04-29T10:11:20.001Z</time></trkpt><trkpt lat="43.28876482197177" lon="-0.7995534756973276"><ele>202.0</ele><time>2026-04-29T10:11:21.001Z</time></trkpt><trkpt lat="43.28867085313157" lon="-0.7995931109654448"><ele>202.39999999999998</ele><time>2026-04-29T10:11:22.001Z</time></trkpt><trkpt lat="43.288586273121076" lon="-0.7996300880092416"><ele>202.79999999999998</ele><time>2026-04-29T10:11:23.001Z</time></trkpt><trkpt lat="43.28848505798019" lon="-0.7996478448951249"><ele>203.2</ele><time>2026-04-29T10:11:24.001Z</time></trkpt><trkpt lat="43.28839305563627" lon="-0.7996756107439711"><ele>203.6</ele><time>2026-04-29T10:11:25.001Z</time></trkpt><trkpt lat="43.288304118338345" lon="-0.7997013613971029"><ele>204.0</ele><time>2026-04-29T10:11:26.001Z</time></trkpt><trkpt lat="43.28821138223135" lon="-0.7997262026614137"><ele>204.0</ele><time>2026-04-29T10:11:27.001Z</time></trkpt><trkpt lat="43.28811945539183" lon="-0.7997526328298715"><ele>204.0</ele><time>2026-04-29T10:11:28.001Z</time></trkpt><trkpt lat="43.288026757885156" lon="-0.7997818264183146"><ele>204.0</ele><time>2026-04-29T10:11:29.001Z</time></trkpt><trkpt lat="43.28793824890723" lon="-0.7998091847962019"><ele>204.0</ele><time>2026-04-29T10:11:30.001Z</time></trkpt><trkpt lat="43.28784900032846" lon="-0.7998402889805809"><ele>204.0</ele><time>2026-04-29T10:11:31.001Z</time></trkpt><trkpt lat="43.28776041738903" lon="-0.7998805904151689"><ele>204.0</ele><time>2026-04-29T10:11:32.001Z</time></trkpt><trkpt lat="43.28768662148027" lon="-0.7999235055323601"><ele>204.0</ele><time>2026-04-29T10:11:33.001Z</time></trkpt><trkpt lat="43.2876032753214" lon="-0.7999765069229301"><ele>204.0</ele><time>2026-04-29T10:11:34.001Z</time></trkpt><trkpt lat="43.28751944587389" lon="-0.8000393625744407"><ele>204.0</ele><time>2026-04-29T10:11:35.001Z</time></trkpt><trkpt lat="43.28744839599054" lon="-0.8001136606357019"><ele>204.0</ele><time>2026-04-29T10:11:36.001Z</time></trkpt><trkpt lat="43.28737842918662" lon="-0.8001874017910598"><ele>204.0</ele><time>2026-04-29T10:11:37.001Z</time></trkpt><trkpt lat="43.28731071165056" lon="-0.800261510425877"><ele>204.33333333333334</ele><time>2026-04-29T10:11:38.001Z</time></trkpt><trkpt lat="43.287246586361555" lon="-0.800337456316408"><ele>204.66666666666669</ele><time>2026-04-29T10:11:39.001Z</time></trkpt><trkpt lat="43.287183752237446" lon="-0.8004136176299012"><ele>205.0</ele><time>2026-04-29T10:11:40.001Z</time></trkpt><trkpt lat="43.287120328685205" lon="-0.8004894537192271"><ele>205.33333333333334</ele><time>2026-04-29T10:11:41.001Z</time></trkpt><trkpt lat="43.28705810552023" lon="-0.8005640906146809"><ele>205.66666666666669</ele><time>2026-04-29T10:11:42.001Z</time></trkpt><trkpt lat="43.28699519291836" lon="-0.8006378219213541"><ele>206.0</ele><time>2026-04-29T10:11:43.001Z</time></trkpt><trkpt lat="43.28693256768006" lon="-0.8007139836050976"><ele>206.00000000000003</ele><time>2026-04-29T10:11:44.001Z</time></trkpt><trkpt lat="43.28686893268824" lon="-0.8007875756703254"><ele>206.0</ele><time>2026-04-29T10:11:45.001Z</time></trkpt><trkpt lat="43.28680307868176" lon="-0.8008647346219222"><ele>206.0</ele><time>2026-04-29T10:11:46.001Z</time></trkpt><trkpt lat="43.286735565953244" lon="-0.8009428903046398"><ele>206.0</ele><time>2026-04-29T10:11:47.001Z</time></trkpt><trkpt lat="43.28666605478044" lon="-0.8010258903527381"><ele>206.00000000000003</ele><time>2026-04-29T10:11:48.001Z</time></trkpt><trkpt lat="43.28659159682597" lon="-0.80111102742911"><ele>206.0</ele><time>2026-04-29T10:11:49.001Z</time></trkpt><trkpt lat="43.28651378102155" lon="-0.8011991093515717"><ele>206.20000000000002</ele><time>2026-04-29T10:11:50.001Z</time></trkpt><trkpt lat="43.28643820150399" lon="-0.8012920808304504"><ele>206.4</ele><time>2026-04-29T10:11:51.001Z</time></trkpt><trkpt lat="43.28636074893445" lon="-0.8013874650135009"><ele>206.6</ele><time>2026-04-29T10:11:52.001Z</time></trkpt><trkpt lat="43.286284464004204" lon="-0.801482516620779"><ele>206.8</ele><time>2026-04-29T10:11:53.001Z</time></trkpt><trkpt lat="43.28620722178765" lon="-0.8015823436962383"><ele>207.0</ele><time>2026-04-29T10:11:54.001Z</time></trkpt><trkpt lat="43.28612812280792" lon="-0.801680287854731"><ele>207.0</ele><time>2026-04-29T10:11:55.001Z</time></trkpt><trkpt lat="43.28605170880759" lon="-0.801778992936801"><ele>207.0</ele><time>2026-04-29T10:11:56.001Z</time></trkpt><trkpt lat="43.28597515789343" lon="-0.8018794208806839"><ele>207.0</ele><time>2026-04-29T10:11:57.001Z</time></trkpt><trkpt lat="43.28590100335015" lon="-0.8019781722162275"><ele>207.0</ele><time>2026-04-29T10:11:58.001Z</time></trkpt><trkpt lat="43.28582544696871" lon="-0.8020742043269883"><ele>207.0</ele><time>2026-04-29T10:11:59.001Z</time></trkpt><trkpt lat="43.28575130451691" lon="-0.8021657849720176"><ele>207.0</ele><time>2026-04-29T10:12:00.001Z</time></trkpt><trkpt lat="43.28567916328973" lon="-0.8022599495017725"><ele>207.0</ele><time>2026-04-29T10:12:01.001Z</time></trkpt><trkpt lat="43.28560585043721" lon="-0.8023558218816074"><ele>207.0</ele><time>2026-04-29T10:12:02Z</time></trkpt><trkpt lat="43.28553282879951" lon="-0.8024485768769164"><ele>207.0</ele><time>2026-04-29T10:12:03Z</time></trkpt><trkpt lat="43.28545985840509" lon="-0.8025416323608294"><ele>207.0</ele><time>2026-04-29T10:12:04Z</time></trkpt><trkpt lat="43.285388310042926" lon="-0.8026366186127999"><ele>207.8</ele><time>2026-04-29T10:12:05Z</time></trkpt><trkpt lat="43.28531469479708" lon="-0.802731707273212"><ele>208.6</ele><time>2026-04-29T10:12:06Z</time></trkpt><trkpt lat="43.28523926602796" lon="-0.8028207555282985"><ele>209.4</ele><time>2026-04-29T10:12:07Z</time></trkpt><trkpt lat="43.28515984155493" lon="-0.8029049282846751"><ele>210.20000000000002</ele><time>2026-04-29T10:12:08Z</time></trkpt><trkpt lat="43.285076436440576" lon="-0.8029823611788051"><ele>211.0</ele><time>2026-04-29T10:12:09Z</time></trkpt><trkpt lat="43.284987760695074" lon="-0.8030494022691425"><ele>211.0</ele><time>2026-04-29T10:12:10Z</time></trkpt><trkpt lat="43.28489572899029" lon="-0.8031013001880386"><ele>211.0</ele><time>2026-04-29T10:12:11Z</time></trkpt><trkpt lat="43.28480171930997" lon="-0.8031401910521032"><ele>211.0</ele><time>2026-04-29T10:12:12Z</time></trkpt><trkpt lat="43.284711466026614" lon="-0.8031751401365298"><ele>211.0</ele><time>2026-04-29T10:12:13Z</time></trkpt><trkpt lat="43.28462427491726" lon="-0.8032112860502858"><ele>211.0</ele><time>2026-04-29T10:12:14Z</time></trkpt><trkpt lat="43.28453621640418" lon="-0.8032417387606344"><ele>211.99999999999997</ele><time>2026-04-29T10:12:15Z</time></trkpt><trkpt lat="43.28445348062695" lon="-0.8032750946848768"><ele>213.0</ele><time>2026-04-29T10:12:16Z</time></trkpt><trkpt lat="43.28437486340152" lon="-0.8033065115215723"><ele>214.0</ele><time>2026-04-29T10:12:17Z</time></trkpt><trkpt lat="43.28429974176739" lon="-0.803334613632935"><ele>215.0</ele><time>2026-04-29T10:12:18Z</time></trkpt><trkpt lat="43.28422964446078" lon="-0.8033654476578185"><ele>215.99999999999997</ele><time>2026-04-29T10:12:19Z</time></trkpt><trkpt lat="43.28416484768463" lon="-0.8033936355102566"><ele>217.0</ele><time>2026-04-29T10:12:20Z</time></trkpt><trkpt lat="43.284094853773276" lon="-0.8034181024498851"><ele>217.0</ele><time>2026-04-29T10:12:21Z</time></trkpt><trkpt lat="43.28402572715168" lon="-0.8034454748088113"><ele>217.0</ele><time>2026-04-29T10:12:22Z</time></trkpt><trkpt lat="43.28395650473146" lon="-0.8034744522421937"><ele>217.0</ele><time>2026-04-29T10:12:23Z</time></trkpt><trkpt lat="43.283887535553006" lon="-0.8035089335177155"><ele>217.0</ele><time>2026-04-29T10:12:24Z</time></trkpt><trkpt lat="43.283816820580384" lon="-0.80353661719331"><ele>217.0</ele><time>2026-04-29T10:12:25Z</time></trkpt><trkpt lat="43.28374443289548" lon="-0.803558320689394"><ele>217.0</ele><time>2026-04-29T10:12:26Z</time></trkpt><trkpt lat="43.28367088357982" lon="-0.8035980550641342"><ele>217.0</ele><time>2026-04-29T10:12:27Z</time></trkpt><trkpt lat="43.28359444440625" lon="-0.803637194660122"><ele>218.16666666666666</ele><time>2026-04-29T10:12:28Z</time></trkpt><trkpt lat="43.28351789206802" lon="-0.8036803394592746"><ele>219.33333333333331</ele><time>2026-04-29T10:12:29Z</time></trkpt><trkpt lat="43.28343947388188" lon="-0.8037289542012035"><ele>220.5</ele><time>2026-04-29T10:12:30Z</time></trkpt><trkpt lat="43.28336022088239" lon="-0.8037888629012547"><ele>221.66666666666669</ele><time>2026-04-29T10:12:31Z</time></trkpt><trkpt lat="43.28327389353964" lon="-0.8038385992091793"><ele>222.83333333333334</ele><time>2026-04-29T10:12:32Z</time></trkpt><trkpt lat="43.28318871222174" lon="-0.8038922732988178"><ele>224.0</ele><time>2026-04-29T10:12:33Z</time></trkpt><trkpt lat="43.28309890729791" lon="-0.8039543680696664"><ele>223.6</ele><time>2026-04-29T10:12:34Z</time></trkpt><trkpt lat="43.2830058913857" lon="-0.804009314918844"><ele>223.2</ele><time>2026-04-29T10:12:35Z</time></trkpt><trkpt lat="43.28290881691121" lon="-0.8040631755353455"><ele>222.79999999999998</ele><time>2026-04-29T10:12:36Z</time></trkpt><trkpt lat="43.2828115289947" lon="-0.804115343935169"><ele>222.39999999999998</ele><time>2026-04-29T10:12:37Z</time></trkpt><trkpt lat="43.28271492880602" lon="-0.8041696271998453"><ele>222.0</ele><time>2026-04-29T10:12:38Z</time></trkpt><trkpt lat="43.28261459930657" lon="-0.8041995420731354"><ele>222.0</ele><time>2026-04-29T10:12:39Z</time></trkpt><trkpt lat="43.2825146422451" lon="-0.8042080886848667"><ele>222.0</ele><time>2026-04-29T10:12:40Z</time></trkpt><trkpt lat="43.28241804816083" lon="-0.8041993423123079"><ele>222.0</ele><time>2026-04-29T10:12:41Z</time></trkpt><trkpt lat="43.28232561237166" lon="-0.8041774214501245"><ele>222.0</ele><time>2026-04-29T10:12:42Z</time></trkpt><trkpt lat="43.282240909416224" lon="-0.8041449490803166"><ele>222.0</ele><time>2026-04-29T10:12:43Z</time></trkpt><trkpt lat="43.28216123317659" lon="-0.8041084434834866"><ele>223.83333333333334</ele><time>2026-04-29T10:12:44Z</time></trkpt><trkpt lat="43.282083878450656" lon="-0.8040711338287687"><ele>225.66666666666669</ele><time>2026-04-29T10:12:45Z</time></trkpt><trkpt lat="43.28201020625815" lon="-0.80403648496715"><ele>227.5</ele><time>2026-04-29T10:12:46Z</time></trkpt><trkpt lat="43.28193784212139" lon="-0.8039983287392795"><ele>229.33333333333334</ele><time>2026-04-29T10:12:47Z</time></trkpt><trkpt lat="43.28186764976651" lon="-0.8039640102596051"><ele>231.16666666666669</ele><time>2026-04-29T10:12:48Z</time></trkpt><trkpt lat="43.28179945145916" lon="-0.8039284498745196"><ele>233.0</ele><time>2026-04-29T10:12:49Z</time></trkpt><trkpt lat="43.28173355210429" lon="-0.8038925092272644"><ele>233.0</ele><time>2026-04-29T10:12:50Z</time></trkpt><trkpt lat="43.28166719838867" lon="-0.803861858634115"><ele>233.0</ele><time>2026-04-29T10:12:51Z</time></trkpt><trkpt lat="43.281597414276405" lon="-0.8038387747435666"><ele>233.0</ele><time>2026-04-29T10:12:52Z</time></trkpt><trkpt lat="43.281525428010745" lon="-0.8038183146231932"><ele>233.0</ele><time>2026-04-29T10:12:53Z</time></trkpt><trkpt lat="43.281452325262016" lon="-0.8038046142291241"><ele>233.0</ele><time>2026-04-29T10:12:54Z</time></trkpt><trkpt lat="43.28137769445263" lon="-0.8037937617107053"><ele>233.0</ele><time>2026-04-29T10:12:55Z</time></trkpt><trkpt lat="43.281301297543266" lon="-0.8038041612165269"><ele>233.0</ele><time>2026-04-29T10:12:56Z</time></trkpt><trkpt lat="43.28122433732815" lon="-0.8038293174630711"><ele>232.83333333333334</ele><time>2026-04-29T10:12:57Z</time></trkpt><trkpt lat="43.28114788739683" lon="-0.8038600122289135"><ele>232.66666666666669</ele><time>2026-04-29T10:12:58Z</time></trkpt><trkpt lat="43.281067994450616" lon="-0.8038921921071307"><ele>232.5</ele><time>2026-04-29T10:12:59Z</time></trkpt><trkpt lat="43.280986890271606" lon="-0.8039224206519698"><ele>232.33333333333331</ele><time>2026-04-29T10:13:00.001Z</time></trkpt><trkpt lat="43.28090193487345" lon="-0.8039633935983519"><ele>232.16666666666666</ele><time>2026-04-29T10:13:01.001Z</time></trkpt><trkpt lat="43.28081584604669" lon="-0.803999434511757"><ele>232.0</ele><time>2026-04-29T10:13:02.001Z</time></trkpt><trkpt lat="43.28072552191789" lon="-0.8040285308637884"><ele>232.0</ele><time>2026-04-29T10:13:03.001Z</time></trkpt><trkpt lat="43.28062959037692" lon="-0.8040641988618786"><ele>232.0</ele><time>2026-04-29T10:13:04.001Z</time></trkpt><trkpt lat="43.28053271484414" lon="-0.8040952516153358"><ele>232.0</ele><time>2026-04-29T10:13:05.001Z</time></trkpt><trkpt lat="43.28043672806131" lon="-0.804127736782892"><ele>232.0</ele><time>2026-04-29T10:13:06.001Z</time></trkpt><trkpt lat="43.28033972041829" lon="-0.8041583203894486"><ele>232.0</ele><time>2026-04-29T10:13:07.001Z</time></trkpt><trkpt lat="43.280244499822736" lon="-0.8041938428112314"><ele>232.0</ele><time>2026-04-29T10:13:08.001Z</time></trkpt><trkpt lat="43.280150635908576" lon="-0.8042204507860911"><ele>232.0</ele><time>2026-04-29T10:13:09.001Z</time></trkpt><trkpt lat="43.28005976042819" lon="-0.8042487699716058"><ele>232.0</ele><time>2026-04-29T10:13:10.001Z</time></trkpt><trkpt lat="43.27996711205967" lon="-0.8042776493389054"><ele>232.0</ele><time>2026-04-29T10:13:11.001Z</time></trkpt><trkpt lat="43.279879449838695" lon="-0.8043037903316897"><ele>232.0</ele><time>2026-04-29T10:13:12.001Z</time></trkpt><trkpt lat="43.279792590589636" lon="-0.8043303946401584"><ele>232.33333333333331</ele><time>2026-04-29T10:13:13.001Z</time></trkpt><trkpt lat="43.27970793590085" lon="-0.8043576016522573"><ele>232.66666666666666</ele><time>2026-04-29T10:13:14.001Z</time></trkpt><trkpt lat="43.27962411168471" lon="-0.804382497721096"><ele>233.0</ele><time>2026-04-29T10:13:15.001Z</time></trkpt><trkpt lat="43.279542592602866" lon="-0.8044105367437931"><ele>233.33333333333331</ele><time>2026-04-29T10:13:16.001Z</time></trkpt><trkpt lat="43.279460324074016" lon="-0.8044385003051061"><ele>233.66666666666666</ele><time>2026-04-29T10:13:17.001Z</time></trkpt><trkpt lat="43.27938104789077" lon="-0.8044722095874832"><ele>234.0</ele><time>2026-04-29T10:13:18.001Z</time></trkpt><trkpt lat="43.27929932895099" lon="-0.8045092788972099"><ele>234.0</ele><time>2026-04-29T10:13:19.001Z</time></trkpt><trkpt lat="43.279218355328524" lon="-0.8045546122879779"><ele>233.99999999999997</ele><time>2026-04-29T10:13:20.001Z</time></trkpt><trkpt lat="43.27913510926305" lon="-0.8046076158889781"><ele>233.99999999999997</ele><time>2026-04-29T10:13:21.001Z</time></trkpt><trkpt lat="43.279051860602316" lon="-0.8046617463330562"><ele>234.0</ele><time>2026-04-29T10:13:22.001Z</time></trkpt><trkpt lat="43.27896280882698" lon="-0.8047116470950764"><ele>234.0</ele><time>2026-04-29T10:13:23.001Z</time></trkpt><trkpt lat="43.278874978719934" lon="-0.8047708351972187"><ele>233.39999999999998</ele><time>2026-04-29T10:13:24.001Z</time></trkpt><trkpt lat="43.27878420312605" lon="-0.8048293893673373"><ele>232.79999999999998</ele><time>2026-04-29T10:13:25.001Z</time></trkpt><trkpt lat="43.27869085165642" lon="-0.8048878343131729"><ele>232.20000000000002</ele><time>2026-04-29T10:13:26.001Z</time></trkpt><trkpt lat="43.2785970866482" lon="-0.8049494506513603"><ele>231.60000000000002</ele><time>2026-04-29T10:13:27.001Z</time></trkpt><trkpt lat="43.278505956112326" lon="-0.8050091695442751"><ele>231.0</ele><time>2026-04-29T10:13:28.001Z</time></trkpt><trkpt lat="43.27841603341919" lon="-0.8050657207659387"><ele>231.0</ele><time>2026-04-29T10:13:29.001Z</time></trkpt><trkpt lat="43.27832416280609" lon="-0.805127770452666"><ele>231.00000000000003</ele><time>2026-04-29T10:13:30.001Z</time></trkpt><trkpt lat="43.27823784807878" lon="-0.8051815816494003"><ele>231.00000000000003</ele><time>2026-04-29T10:13:31.001Z</time></trkpt><trkpt lat="43.278145276676945" lon="-0.8052372099504361"><ele>231.0</ele><time>2026-04-29T10:13:32.001Z</time></trkpt><trkpt lat="43.27806237282069" lon="-0.8052909008833075"><ele>231.0</ele><time>2026-04-29T10:13:33.001Z</time></trkpt><trkpt lat="43.27797495583048" lon="-0.8053469771402572"><ele>231.33333333333334</ele><time>2026-04-29T10:13:34.001Z</time></trkpt><trkpt lat="43.2778942088031" lon="-0.8053880275076757"><ele>231.66666666666669</ele><time>2026-04-29T10:13:35.001Z</time></trkpt><trkpt lat="43.27781354847061" lon="-0.8054387213230862"><ele>232.0</ele><time>2026-04-29T10:13:36.001Z</time></trkpt><trkpt lat="43.27773396955173" lon="-0.8054790272878284"><ele>232.33333333333334</ele><time>2026-04-29T10:13:37.001Z</time></trkpt><trkpt lat="43.27765806306573" lon="-0.8055231913877788"><ele>232.66666666666669</ele><time>2026-04-29T10:13:38.001Z</time></trkpt><trkpt lat="43.27758427971731" lon="-0.8055740144864165"><ele>233.0</ele><time>2026-04-29T10:13:39.001Z</time></trkpt><trkpt lat="43.277513277572346" lon="-0.805629087517355"><ele>233.00000000000003</ele><time>2026-04-29T10:13:40.001Z</time></trkpt><trkpt lat="43.27744248407362" lon="-0.8056896000060645"><ele>233.0</ele><time>2026-04-29T10:13:41.001Z</time></trkpt><trkpt lat="43.27737349284494" lon="-0.8057507676713351"><ele>233.0</ele><time>2026-04-29T10:13:42.001Z</time></trkpt><trkpt lat="43.27730385124902" lon="-0.8058163098354016"><ele>233.0</ele><time>2026-04-29T10:13:43.001Z</time></trkpt><trkpt lat="43.277233087402855" lon="-0.8058823674856357"><ele>233.00000000000003</ele><time>2026-04-29T10:13:44.001Z</time></trkpt><trkpt lat="43.27716220785324" lon="-0.8059722060710813"><ele>233.0</ele><time>2026-04-29T10:13:45.001Z</time></trkpt><trkpt lat="43.27708298100623" lon="-0.8060413243465722"><ele>233.60000000000002</ele><time>2026-04-29T10:13:46.001Z</time></trkpt><trkpt lat="43.27700753373231" lon="-0.8061185410363221"><ele>234.20000000000002</ele><time>2026-04-29T10:13:47.001Z</time></trkpt><trkpt lat="43.27694571568742" lon="-0.8062030754388415"><ele>234.8</ele><time>2026-04-29T10:13:48.001Z</time></trkpt><trkpt lat="43.27688017304288" lon="-0.8062898074244332"><ele>235.4</ele><time>2026-04-29T10:13:49.001Z</time></trkpt><trkpt lat="43.276814458041954" lon="-0.8063772547683354"><ele>236.0</ele><time>2026-04-29T10:13:50.001Z</time></trkpt><trkpt lat="43.276747334437616" lon="-0.8064579500551603"><ele>236.0</ele><time>2026-04-29T10:13:51.001Z</time></trkpt><trkpt lat="43.27668219513112" lon="-0.8065512436144671"><ele>236.00000000000003</ele><time>2026-04-29T10:13:52.001Z</time></trkpt><trkpt lat="43.27661436373205" lon="-0.8066340980135027"><ele>236.00000000000003</ele><time>2026-04-29T10:13:53.001Z</time></trkpt><trkpt lat="43.27654635622714" lon="-0.806716998154777"><ele>236.0</ele><time>2026-04-29T10:13:54.001Z</time></trkpt><trkpt lat="43.276478745393135" lon="-0.8068015923853347"><ele>236.0</ele><time>2026-04-29T10:13:55.001Z</time></trkpt><trkpt lat="43.27641246732929" lon="-0.8068850347832655"><ele>237.0</ele><time>2026-04-29T10:13:56.001Z</time></trkpt><trkpt lat="43.27634471619509" lon="-0.8069638546424425"><ele>238.00000000000003</ele><time>2026-04-29T10:13:57.001Z</time></trkpt><trkpt lat="43.27627759780363" lon="-0.8070494163832044"><ele>239.00000000000003</ele><time>2026-04-29T10:13:58.001Z</time></trkpt><trkpt lat="43.27621124722111" lon="-0.8071454707295749"><ele>240.0</ele><time>2026-04-29T10:13:59.001Z</time></trkpt><trkpt lat="43.27611460855732" lon="-0.8073396351219627"><ele>241.0</ele><time>2026-04-29T10:14:00.001Z</time></trkpt><trkpt lat="43.27597120059317" lon="-0.8074661875912521"><ele>241.0</ele><time>2026-04-29T10:14:01.001Z</time></trkpt><trkpt lat="43.27601682023742" lon="-0.8073729297436533"><ele>241.00000000000003</ele><time>2026-04-29T10:14:02.001Z</time></trkpt><trkpt lat="43.2759412788913" lon="-0.8074470343399295"><ele>241.00000000000003</ele><time>2026-04-29T10:14:03.001Z</time></trkpt><trkpt lat="43.27586049986618" lon="-0.8075170685552606"><ele>241.0</ele><time>2026-04-29T10:14:04.001Z</time></trkpt><trkpt lat="43.27577810697429" lon="-0.8075729374838718"><ele>241.0</ele><time>2026-04-29T10:14:05.001Z</time></trkpt><trkpt lat="43.275689759191394" lon="-0.8076280370215948"><ele>241.20000000000002</ele><time>2026-04-29T10:14:06.001Z</time></trkpt><trkpt lat="43.2756000013103" lon="-0.8076791927436939"><ele>241.40000000000003</ele><time>2026-04-29T10:14:07.001Z</time></trkpt><trkpt lat="43.275506917797145" lon="-0.8077249211678872"><ele>241.6</ele><time>2026-04-29T10:14:08Z</time></trkpt><trkpt lat="43.27541793087622" lon="-0.8077680460669733"><ele>241.8</ele><time>2026-04-29T10:14:09Z</time></trkpt><trkpt lat="43.2753248027668" lon="-0.8078145815465553"><ele>242.0</ele><time>2026-04-29T10:14:10Z</time></trkpt><trkpt lat="43.2752337731786" lon="-0.8078601386168743"><ele>242.0</ele><time>2026-04-29T10:14:11Z</time></trkpt><trkpt lat="43.27514721242998" lon="-0.8079069733319998"><ele>242.0</ele><time>2026-04-29T10:14:12Z</time></trkpt><trkpt lat="43.27505828231564" lon="-0.8079506203960674"><ele>242.0</ele><time>2026-04-29T10:14:13Z</time></trkpt><trkpt lat="43.27497339762331" lon="-0.8080021192067999"><ele>242.0</ele><time>2026-04-29T10:14:14Z</time></trkpt><trkpt lat="43.27489338858097" lon="-0.8080595602691416"><ele>242.0</ele><time>2026-04-29T10:14:15Z</time></trkpt><trkpt lat="43.27480899922833" lon="-0.8081091356834733"><ele>243.2</ele><time>2026-04-29T10:14:16Z</time></trkpt><trkpt lat="43.27473674352411" lon="-0.8081853972737666"><ele>244.39999999999998</ele><time>2026-04-29T10:14:17Z</time></trkpt><trkpt lat="43.27465976409561" lon="-0.8082604535117939"><ele>245.60000000000002</ele><time>2026-04-29T10:14:18Z</time></trkpt><trkpt lat="43.27459001604561" lon="-0.8083438865735464"><ele>246.8</ele><time>2026-04-29T10:14:19Z</time></trkpt><trkpt lat="43.27452267724367" lon="-0.8084247555661712"><ele>248.0</ele><time>2026-04-29T10:14:20Z</time></trkpt><trkpt lat="43.27445922340822" lon="-0.8085085142629327"><ele>248.00000000000003</ele><time>2026-04-29T10:14:21Z</time></trkpt><trkpt lat="43.274394181131115" lon="-0.8085949712500627"><ele>248.0</ele><time>2026-04-29T10:14:22Z</time></trkpt><trkpt lat="43.274331912349645" lon="-0.8086812595852477"><ele>248.0</ele><time>2026-04-29T10:14:23Z</time></trkpt><trkpt lat="43.2742727583049" lon="-0.8087606508955343"><ele>248.0</ele><time>2026-04-29T10:14:24Z</time></trkpt><trkpt lat="43.27420952176535" lon="-0.8088391814066124"><ele>248.00000000000003</ele><time>2026-04-29T10:14:25Z</time></trkpt><trkpt lat="43.274143243628394" lon="-0.8089335454802208"><ele>248.0</ele><time>2026-04-29T10:14:26Z</time></trkpt><trkpt lat="43.274059766309904" lon="-0.8090888948927598"><ele>248.0</ele><time>2026-04-29T10:14:27Z</time></trkpt><trkpt lat="43.27395571449318" lon="-0.809261583941131"><ele>248.0</ele><time>2026-04-29T10:14:28Z</time></trkpt><trkpt lat="43.27396409178228" lon="-0.8091621211955501"><ele>248.0</ele><time>2026-04-29T10:14:29Z</time></trkpt><trkpt lat="43.27390501078274" lon="-0.8092428534553835"><ele>248.0</ele><time>2026-04-29T10:14:30Z</time></trkpt><trkpt lat="43.27384799048439" lon="-0.8093235728892533"><ele>248.0</ele><time>2026-04-29T10:14:31Z</time></trkpt><trkpt lat="43.27378967246483" lon="-0.8094036279490183"><ele>249.00000000000003</ele><time>2026-04-29T10:14:32Z</time></trkpt><trkpt lat="43.273733776903214" lon="-0.8094876078773788"><ele>250.0</ele><time>2026-04-29T10:14:33Z</time></trkpt><trkpt lat="43.273681212634216" lon="-0.8095756036182212"><ele>251.0</ele><time>2026-04-29T10:14:34Z</time></trkpt><trkpt lat="43.27362825284709" lon="-0.8096660487370354"><ele>252.0</ele><time>2026-04-29T10:14:35Z</time></trkpt><trkpt lat="43.27357949012945" lon="-0.8097592014871386"><ele>253.00000000000003</ele><time>2026-04-29T10:14:36Z</time></trkpt><trkpt lat="43.27353480866369" lon="-0.8098591550091881"><ele>254.0</ele><time>2026-04-29T10:14:37Z</time></trkpt><trkpt lat="43.273499892560814" lon="-0.8099679250857514"><ele>254.0</ele><time>2026-04-29T10:14:38Z</time></trkpt><trkpt lat="43.27346987926924" lon="-0.8100789735571623"><ele>253.99999999999997</ele><time>2026-04-29T10:14:39Z</time></trkpt><trkpt lat="43.273441674474334" lon="-0.8101932583043094"><ele>253.99999999999997</ele><time>2026-04-29T10:14:40Z</time></trkpt><trkpt lat="43.273427139417485" lon="-0.8103178988277887"><ele>254.0</ele><time>2026-04-29T10:14:41Z</time></trkpt><trkpt lat="43.27342450872335" lon="-0.810445215293184"><ele>254.0</ele><time>2026-04-29T10:14:42Z</time></trkpt><trkpt lat="43.27342536250947" lon="-0.8105778450758363"><ele>253.79999999999998</ele><time>2026-04-29T10:14:43Z</time></trkpt><trkpt lat="43.27344159754016" lon="-0.8107083208493892"><ele>253.59999999999997</ele><time>2026-04-29T10:14:44Z</time></trkpt><trkpt lat="43.273458465008346" lon="-0.8108465292723428"><ele>253.4</ele><time>2026-04-29T10:14:45Z</time></trkpt><trkpt lat="43.273475635728914" lon="-0.8109853175698755"><ele>253.2</ele><time>2026-04-29T10:14:46Z</time></trkpt><trkpt lat="43.2734876845756" lon="-0.8111228677932785"><ele>253.0</ele><time>2026-04-29T10:14:47Z</time></trkpt><trkpt lat="43.27347929023195" lon="-0.8112668174872858"><ele>251.8</ele><time>2026-04-29T10:14:48Z</time></trkpt><trkpt lat="43.27345934718415" lon="-0.8114113080959846"><ele>250.60000000000002</ele><time>2026-04-29T10:14:49Z</time></trkpt><trkpt lat="43.273426635327844" lon="-0.8115509444234577"><ele>249.39999999999998</ele><time>2026-04-29T10:14:50Z</time></trkpt><trkpt lat="43.2733429019117" lon="-0.8116656663827337"><ele>248.2</ele><time>2026-04-29T10:14:51Z</time></trkpt><trkpt lat="43.27325568478123" lon="-0.8117642609580558"><ele>247.0</ele><time>2026-04-29T10:14:52Z</time></trkpt><trkpt lat="43.273173926042595" lon="-0.8118425924333896"><ele>245.0</ele><time>2026-04-29T10:14:53Z</time></trkpt><trkpt lat="43.27307995641368" lon="-0.8118957908437937"><ele>243.0</ele><time>2026-04-29T10:14:54Z</time></trkpt><trkpt lat="43.27297842890376" lon="-0.8119362910569999"><ele>241.0</ele><time>2026-04-29T10:14:55Z</time></trkpt><trkpt lat="43.27288002387059" lon="-0.8119772498314065"><ele>239.0</ele><time>2026-04-29T10:14:56Z</time></trkpt><trkpt lat="43.27277868475081" lon="-0.8120149762570558"><ele>237.0</ele><time>2026-04-29T10:14:57Z</time></trkpt><trkpt lat="43.272681603862296" lon="-0.8120651982045612"><ele>237.0</ele><time>2026-04-29T10:14:58Z</time></trkpt><trkpt lat="43.27258051624929" lon="-0.8121115099915186"><ele>237.0</ele><time>2026-04-29T10:14:59Z</time></trkpt><trkpt lat="43.27248193541923" lon="-0.8121659834489343"><ele>237.0</ele><time>2026-04-29T10:15:00Z</time></trkpt><trkpt lat="43.27238439015475" lon="-0.8122139855831301"><ele>237.0</ele><time>2026-04-29T10:15:01Z</time></trkpt><trkpt lat="43.27228613896567" lon="-0.8122609684321973"><ele>237.0</ele><time>2026-04-29T10:15:02.001Z</time></trkpt><trkpt lat="43.27219405699204" lon="-0.8123239096156025"><ele>237.2</ele><time>2026-04-29T10:15:03.001Z</time></trkpt><trkpt lat="43.27210305333184" lon="-0.8123894137823211"><ele>237.39999999999998</ele><time>2026-04-29T10:15:04.001Z</time></trkpt><trkpt lat="43.27200855252503" lon="-0.8124585317406522"><ele>237.60000000000002</ele><time>2026-04-29T10:15:05.001Z</time></trkpt><trkpt lat="43.27192011912749" lon="-0.8125425660197441"><ele>237.8</ele><time>2026-04-29T10:15:06.001Z</time></trkpt><trkpt lat="43.27183779085249" lon="-0.8126282158966237"><ele>238.0</ele><time>2026-04-29T10:15:07.001Z</time></trkpt><trkpt lat="43.27175071976958" lon="-0.8126983707946298"><ele>238.0</ele><time>2026-04-29T10:15:08.001Z</time></trkpt><trkpt lat="43.27166389917038" lon="-0.8127697080448144"><ele>238.0</ele><time>2026-04-29T10:15:09.001Z</time></trkpt><trkpt lat="43.27158110526851" lon="-0.8128400211018395"><ele>238.0</ele><time>2026-04-29T10:15:10.001Z</time></trkpt><trkpt lat="43.27150414131056" lon="-0.8129103715121786"><ele>238.0</ele><time>2026-04-29T10:15:11.001Z</time></trkpt><trkpt lat="43.27142655126133" lon="-0.812979427809467"><ele>238.0</ele><time>2026-04-29T10:15:12.001Z</time></trkpt><trkpt lat="43.271349439531754" lon="-0.8130464672457844"><ele>237.66666666666666</ele><time>2026-04-29T10:15:13.001Z</time></trkpt><trkpt lat="43.27127351975411" lon="-0.81311016045234"><ele>237.33333333333331</ele><time>2026-04-29T10:15:14.001Z</time></trkpt><trkpt lat="43.271200162527016" lon="-0.8131743660347478"><ele>237.0</ele><time>2026-04-29T10:15:15.001Z</time></trkpt><trkpt lat="43.27112672367204" lon="-0.8132357382546558"><ele>236.66666666666669</ele><time>2026-04-29T10:15:16.001Z</time></trkpt><trkpt lat="43.27105621574397" lon="-0.8133014110338217"><ele>236.33333333333334</ele><time>2026-04-29T10:15:17.001Z</time></trkpt><trkpt lat="43.270987829174764" lon="-0.8133681716597034"><ele>236.0</ele><time>2026-04-29T10:15:18.001Z</time></trkpt><trkpt lat="43.27091843564641" lon="-0.8134373882647097"><ele>236.00000000000003</ele><time>2026-04-29T10:15:19.001Z</time></trkpt><trkpt lat="43.27085158487139" lon="-0.8135148595826629"><ele>236.0</ele><time>2026-04-29T10:15:20.001Z</time></trkpt><trkpt lat="43.270785619828324" lon="-0.8135927755995346"><ele>236.0</ele><time>2026-04-29T10:15:21.001Z</time></trkpt><trkpt lat="43.270728340608024" lon="-0.8136813387277249"><ele>236.0</ele><time>2026-04-29T10:15:22.001Z</time></trkpt><trkpt lat="43.27066853059705" lon="-0.8137715152090842"><ele>236.00000000000003</ele><time>2026-04-29T10:15:23.001Z</time></trkpt><trkpt lat="43.27059854715671" lon="-0.8138586741362597"><ele>236.0</ele><time>2026-04-29T10:15:24.001Z</time></trkpt><trkpt lat="43.27053247575755" lon="-0.8139513489665745"><ele>236.0</ele><time>2026-04-29T10:15:25.001Z</time></trkpt><trkpt lat="43.27047499496197" lon="-0.8140446582630185"><ele>236.00000000000003</ele><time>2026-04-29T10:15:26.001Z</time></trkpt><trkpt lat="43.27041398952817" lon="-0.8141283851359135"><ele>236.00000000000003</ele><time>2026-04-29T10:15:27.001Z</time></trkpt><trkpt lat="43.27033892398987" lon="-0.8142138271567153"><ele>236.0</ele><time>2026-04-29T10:15:28.001Z</time></trkpt><trkpt lat="43.27026430780824" lon="-0.8142894859466365"><ele>236.0</ele><time>2026-04-29T10:15:29.001Z</time></trkpt><trkpt lat="43.27018833110971" lon="-0.8143611968470724"><ele>235.0</ele><time>2026-04-29T10:15:30.001Z</time></trkpt><trkpt lat="43.27010950230654" lon="-0.8144220954319836"><ele>234.00000000000003</ele><time>2026-04-29T10:15:31.001Z</time></trkpt><trkpt lat="43.27002604785613" lon="-0.8144785405972204"><ele>233.00000000000003</ele><time>2026-04-29T10:15:32.001Z</time></trkpt><trkpt lat="43.269943553443554" lon="-0.8145295501199822"><ele>232.0</ele><time>2026-04-29T10:15:33.001Z</time></trkpt><trkpt lat="43.26986050979004" lon="-0.8145731161980967"><ele>231.0</ele><time>2026-04-29T10:15:34.001Z</time></trkpt><trkpt lat="43.26978015773054" lon="-0.8146211084048794"><ele>232.0</ele><time>2026-04-29T10:15:35.001Z</time></trkpt><trkpt lat="43.269700091554654" lon="-0.8146665095827361"><ele>233.0</ele><time>2026-04-29T10:15:36.001Z</time></trkpt><trkpt lat="43.2696206563785" lon="-0.8147153516929814"><ele>234.0</ele><time>2026-04-29T10:15:37.001Z</time></trkpt><trkpt lat="43.269542010476336" lon="-0.8147561236799836"><ele>235.0</ele><time>2026-04-29T10:15:38.001Z</time></trkpt><trkpt lat="43.269461789494855" lon="-0.8147951616736668"><ele>236.0</ele><time>2026-04-29T10:15:39.001Z</time></trkpt><trkpt lat="43.2693867440669" lon="-0.8148413873971673"><ele>237.0</ele><time>2026-04-29T10:15:40.001Z</time></trkpt><trkpt lat="43.2693139355118" lon="-0.8148845440291194"><ele>237.0</ele><time>2026-04-29T10:15:41.001Z</time></trkpt><trkpt lat="43.26923761093148" lon="-0.8149208889602001"><ele>237.0</ele><time>2026-04-29T10:15:42.001Z</time></trkpt><trkpt lat="43.2691620324686" lon="-0.8149655672436847"><ele>237.0</ele><time>2026-04-29T10:15:43.001Z</time></trkpt><trkpt lat="43.269088620673145" lon="-0.8150143890408821"><ele>237.0</ele><time>2026-04-29T10:15:44.001Z</time></trkpt><trkpt lat="43.2690181048258" lon="-0.8150649903608423"><ele>237.0</ele><time>2026-04-29T10:15:45.001Z</time></trkpt><trkpt lat="43.268944064962206" lon="-0.8151122735322491"><ele>237.0</ele><time>2026-04-29T10:15:46.001Z</time></trkpt><trkpt lat="43.268869584378784" lon="-0.8151645565881456"><ele>237.83333333333334</ele><time>2026-04-29T10:15:47.001Z</time></trkpt><trkpt lat="43.26880014217059" lon="-0.8152254471338638"><ele>238.66666666666669</ele><time>2026-04-29T10:15:48.001Z</time></trkpt><trkpt lat="43.26873477060422" lon="-0.8152883980781792"><ele>239.5</ele><time>2026-04-29T10:15:49.001Z</time></trkpt><trkpt lat="43.26867289046968" lon="-0.8153612302847096"><ele>240.33333333333334</ele><time>2026-04-29T10:15:50.001Z</time></trkpt><trkpt lat="43.26860898468338" lon="-0.8154304479869375"><ele>241.16666666666669</ele><time>2026-04-29T10:15:51.001Z</time></trkpt><trkpt lat="43.26854541026115" lon="-0.8155024629682766"><ele>242.0</ele><time>2026-04-29T10:15:52.001Z</time></trkpt><trkpt lat="43.268483452080154" lon="-0.8155746381603748"><ele>242.00000000000003</ele><time>2026-04-29T10:15:53.001Z</time></trkpt><trkpt lat="43.26842583416991" lon="-0.8156483836028573"><ele>242.0</ele><time>2026-04-29T10:15:54.001Z</time></trkpt><trkpt lat="43.2683668097447" lon="-0.8157199079949318"><ele>242.0</ele><time>2026-04-29T10:15:55.001Z</time></trkpt><trkpt lat="43.26831112656734" lon="-0.8157959779102608"><ele>242.0</ele><time>2026-04-29T10:15:56.001Z</time></trkpt><trkpt lat="43.268255234016074" lon="-0.8158693721469844"><ele>242.00000000000003</ele><time>2026-04-29T10:15:57.001Z</time></trkpt><trkpt lat="43.26819427249543" lon="-0.8159406771267463"><ele>242.0</ele><time>2026-04-29T10:15:58.001Z</time></trkpt><trkpt lat="43.26813524654345" lon="-0.8160122769703745"><ele>243.66666666666669</ele><time>2026-04-29T10:15:59.001Z</time></trkpt><trkpt lat="43.26807722362457" lon="-0.8160841977130385"><ele>245.33333333333334</ele><time>2026-04-29T10:16:00.001Z</time></trkpt><trkpt lat="43.26801881324619" lon="-0.81615470999019"><ele>247.0</ele><time>2026-04-29T10:16:01.001Z</time></trkpt><trkpt lat="43.26796097814674" lon="-0.8162336330057129"><ele>248.66666666666669</ele><time>2026-04-29T10:16:02.001Z</time></trkpt><trkpt lat="43.2679133613201" lon="-0.8163186508507037"><ele>250.33333333333334</ele><time>2026-04-29T10:16:03.001Z</time></trkpt><trkpt lat="43.26787900839748" lon="-0.8164199667819845"><ele>252.0</ele><time>2026-04-29T10:16:04.001Z</time></trkpt><trkpt lat="43.267857745021175" lon="-0.8165280565712123"><ele>252.0</ele><time>2026-04-29T10:16:05.001Z</time></trkpt><trkpt lat="43.26785345752386" lon="-0.816639831085192"><ele>252.0</ele><time>2026-04-29T10:16:06.001Z</time></trkpt><trkpt lat="43.267865350278996" lon="-0.816750163675005"><ele>252.0</ele><time>2026-04-29T10:16:07.001Z</time></trkpt><trkpt lat="43.26789500961383" lon="-0.816853942816755"><ele>252.0</ele><time>2026-04-29T10:16:08.001Z</time></trkpt><trkpt lat="43.26793962864078" lon="-0.8169385948564112"><ele>252.0</ele><time>2026-04-29T10:16:09.001Z</time></trkpt><trkpt lat="43.26800307929113" lon="-0.8170048368586984"><ele>252.0</ele><time>2026-04-29T10:16:10.001Z</time></trkpt><trkpt lat="43.26805976957843" lon="-0.8170694665740776"><ele>251.83333333333334</ele><time>2026-04-29T10:16:11.001Z</time></trkpt><trkpt lat="43.26811810175644" lon="-0.817129724010899"><ele>251.66666666666669</ele><time>2026-04-29T10:16:12.001Z</time></trkpt><trkpt lat="43.26817455766863" lon="-0.8171956327133495"><ele>251.5</ele><time>2026-04-29T10:16:13.001Z</time></trkpt><trkpt lat="43.26822401648792" lon="-0.8172691939457738"><ele>251.33333333333334</ele><time>2026-04-29T10:16:14Z</time></trkpt><trkpt lat="43.268265535884105" lon="-0.8173576847438764"><ele>251.16666666666669</ele><time>2026-04-29T10:16:15Z</time></trkpt><trkpt lat="43.26829865798578" lon="-0.8174533343173634"><ele>251.0</ele><time>2026-04-29T10:16:16Z</time></trkpt><trkpt lat="43.26832373889923" lon="-0.8175555480793018"><ele>251.00000000000003</ele><time>2026-04-29T10:16:17Z</time></trkpt><trkpt lat="43.26833664012501" lon="-0.8176652352425314"><ele>251.0</ele><time>2026-04-29T10:16:18Z</time></trkpt><trkpt lat="43.268338943828105" lon="-0.8177759257253046"><ele>251.0</ele><time>2026-04-29T10:16:19Z</time></trkpt><trkpt lat="43.26832947550087" lon="-0.8178877723934486"><ele>251.0</ele><time>2026-04-29T10:16:20Z</time></trkpt><trkpt lat="43.26831270570787" lon="-0.8179969530040717"><ele>251.00000000000003</ele><time>2026-04-29T10:16:21Z</time></trkpt><trkpt lat="43.26827346141182" lon="-0.8180981153579995"><ele>251.0</ele><time>2026-04-29T10:16:22Z</time></trkpt><trkpt lat="43.26822398777266" lon="-0.8181950073268739"><ele>251.0</ele><time>2026-04-29T10:16:23Z</time></trkpt><trkpt lat="43.26816285134612" lon="-0.8182794032427811"><ele>251.00000000000003</ele><time>2026-04-29T10:16:24Z</time></trkpt><trkpt lat="43.26810202650381" lon="-0.8183544168614938"><ele>251.00000000000003</ele><time>2026-04-29T10:16:25Z</time></trkpt><trkpt lat="43.268029604009485" lon="-0.8184433990909494"><ele>251.0</ele><time>2026-04-29T10:16:26Z</time></trkpt><trkpt lat="43.26795547791377" lon="-0.8185199373567035"><ele>251.0</ele><time>2026-04-29T10:16:27Z</time></trkpt><trkpt lat="43.26787230468165" lon="-0.8186080778701927"><ele>250.8</ele><time>2026-04-29T10:16:28Z</time></trkpt><trkpt lat="43.267809554581795" lon="-0.8186796833228949"><ele>250.60000000000002</ele><time>2026-04-29T10:16:29Z</time></trkpt><trkpt lat="43.2677454483823" lon="-0.8187603483358957"><ele>250.4</ele><time>2026-04-29T10:16:30Z</time></trkpt><trkpt lat="43.26764010598586" lon="-0.818872855132626"><ele>250.2</ele><time>2026-04-29T10:16:31Z</time></trkpt><trkpt lat="43.267557711446464" lon="-0.8189682340314487"><ele>250.0</ele><time>2026-04-29T10:16:32Z</time></trkpt><trkpt lat="43.26746779113575" lon="-0.8190556628547572"><ele>250.0</ele><time>2026-04-29T10:16:33Z</time></trkpt><trkpt lat="43.26737475157425" lon="-0.819139575201732"><ele>250.0</ele><time>2026-04-29T10:16:34Z</time></trkpt><trkpt lat="43.267287962681394" lon="-0.8192492971948179"><ele>250.0</ele><time>2026-04-29T10:16:35Z</time></trkpt><trkpt lat="43.26720191506796" lon="-0.8193475539058634"><ele>250.0</ele><time>2026-04-29T10:16:36Z</time></trkpt><trkpt lat="43.26712864709873" lon="-0.8194487684711466"><ele>250.0</ele><time>2026-04-29T10:16:37Z</time></trkpt><trkpt lat="43.26704624619149" lon="-0.8195522400289603"><ele>249.8</ele><time>2026-04-29T10:16:38Z</time></trkpt><trkpt lat="43.2669637926979" lon="-0.8196517779375161"><ele>249.6</ele><time>2026-04-29T10:16:39Z</time></trkpt><trkpt lat="43.26689059990106" lon="-0.8197672343431892"><ele>249.39999999999998</ele><time>2026-04-29T10:16:40Z</time></trkpt><trkpt lat="43.26682430550166" lon="-0.8198905048166072"><ele>249.2</ele><time>2026-04-29T10:16:41Z</time></trkpt><trkpt lat="43.26676373008887" lon="-0.8200193577335025"><ele>249.0</ele><time>2026-04-29T10:16:42Z</time></trkpt><trkpt lat="43.266716289401266" lon="-0.8201533929603234"><ele>249.0</ele><time>2026-04-29T10:16:43Z</time></trkpt><trkpt lat="43.26668363414508" lon="-0.8202961983226458"><ele>248.99999999999997</ele><time>2026-04-29T10:16:44Z</time></trkpt><trkpt lat="43.26665114056923" lon="-0.8204414428251251"><ele>248.99999999999997</ele><time>2026-04-29T10:16:45Z</time></trkpt><trkpt lat="43.26661957977766" lon="-0.8205815696239573"><ele>249.0</ele><time>2026-04-29T10:16:46Z</time></trkpt><trkpt lat="43.26658853802836" lon="-0.8207235638358498"><ele>249.0</ele><time>2026-04-29T10:16:47Z</time></trkpt><trkpt lat="43.266554862463884" lon="-0.8208648775484562"><ele>248.39999999999998</ele><time>2026-04-29T10:16:48Z</time></trkpt><trkpt lat="43.26652199367172" lon="-0.8210078024709885"><ele>247.79999999999998</ele><time>2026-04-29T10:16:49Z</time></trkpt><trkpt lat="43.26649068628798" lon="-0.8211557141716752"><ele>247.20000000000002</ele><time>2026-04-29T10:16:50Z</time></trkpt><trkpt lat="43.26645962286164" lon="-0.8213003155908986"><ele>246.60000000000002</ele><time>2026-04-29T10:16:51Z</time></trkpt><trkpt lat="43.26642811453646" lon="-0.8214412979656835"><ele>246.0</ele><time>2026-04-29T10:16:52Z</time></trkpt><trkpt lat="43.266394333836686" lon="-0.821583484692419"><ele>246.0</ele><time>2026-04-29T10:16:53Z</time></trkpt><trkpt lat="43.26636146338104" lon="-0.821724541554381"><ele>246.00000000000003</ele><time>2026-04-29T10:16:54Z</time></trkpt><trkpt lat="43.2663303209007" lon="-0.8218611302214264"><ele>246.00000000000003</ele><time>2026-04-29T10:16:55Z</time></trkpt><trkpt lat="43.26629917629076" lon="-0.8219956276222603"><ele>246.0</ele><time>2026-04-29T10:16:56Z</time></trkpt><trkpt lat="43.26626832828785" lon="-0.8221285559579996"><ele>246.0</ele><time>2026-04-29T10:16:57Z</time></trkpt><trkpt lat="43.266235200819665" lon="-0.8222594993095913"><ele>246.0</ele><time>2026-04-29T10:16:58Z</time></trkpt><trkpt lat="43.266202628314645" lon="-0.8223828678812412"><ele>246.00000000000003</ele><time>2026-04-29T10:16:59Z</time></trkpt><trkpt lat="43.26617141592645" lon="-0.8225078783990944"><ele>246.00000000000003</ele><time>2026-04-29T10:17:00Z</time></trkpt><trkpt lat="43.26614452249883" lon="-0.822627675655149"><ele>246.0</ele><time>2026-04-29T10:17:01Z</time></trkpt><trkpt lat="43.26611419773064" lon="-0.8227490837832007"><ele>246.0</ele><time>2026-04-29T10:17:02Z</time></trkpt><trkpt lat="43.26608135367871" lon="-0.822871810449838"><ele>245.8</ele><time>2026-04-29T10:17:03Z</time></trkpt><trkpt lat="43.26604653767745" lon="-0.8229986815117799"><ele>245.60000000000002</ele><time>2026-04-29T10:17:04Z</time></trkpt><trkpt lat="43.26601602040163" lon="-0.8231277443423362"><ele>245.4</ele><time>2026-04-29T10:17:05Z</time></trkpt><trkpt lat="43.26598968356701" lon="-0.8232563795560865"><ele>245.2</ele><time>2026-04-29T10:17:06Z</time></trkpt><trkpt lat="43.26595970105088" lon="-0.8233877172423234"><ele>245.0</ele><time>2026-04-29T10:17:07Z</time></trkpt><trkpt lat="43.26592598557269" lon="-0.8235193977506088"><ele>244.8</ele><time>2026-04-29T10:17:08Z</time></trkpt><trkpt lat="43.26589663284994" lon="-0.8236464494730625"><ele>244.6</ele><time>2026-04-29T10:17:09Z</time></trkpt><trkpt lat="43.265867019602226" lon="-0.8237794403643033"><ele>244.39999999999998</ele><time>2026-04-29T10:17:10Z</time></trkpt><trkpt lat="43.2658401203483" lon="-0.8239069838413308"><ele>244.2</ele><time>2026-04-29T10:17:11Z</time></trkpt><trkpt lat="43.265811637966095" lon="-0.8240364838663715"><ele>244.0</ele><time>2026-04-29T10:17:12Z</time></trkpt><trkpt lat="43.265788402154165" lon="-0.8241665483472548"><ele>243.99999999999997</ele><time>2026-04-29T10:17:13Z</time></trkpt><trkpt lat="43.26577074322098" lon="-0.8242938512581056"><ele>244.0</ele><time>2026-04-29T10:17:14Z</time></trkpt><trkpt lat="43.26575742468351" lon="-0.8244172247758023"><ele>244.0</ele><time>2026-04-29T10:17:15Z</time></trkpt><trkpt lat="43.265747139885384" lon="-0.8245344048716708"><ele>244.0</ele><time>2026-04-29T10:17:16Z</time></trkpt><trkpt lat="43.26574277214715" lon="-0.8246501089100389"><ele>243.99999999999997</ele><time>2026-04-29T10:17:17Z</time></trkpt><trkpt lat="43.265741556469536" lon="-0.8247642985462377"><ele>244.0</ele><time>2026-04-29T10:17:18Z</time></trkpt><trkpt lat="43.26574421879701" lon="-0.8248754813923196"><ele>244.16666666666666</ele><time>2026-04-29T10:17:19Z</time></trkpt><trkpt lat="43.26575324292401" lon="-0.8249851134530014"><ele>244.33333333333331</ele><time>2026-04-29T10:17:20Z</time></trkpt><trkpt lat="43.26575821375382" lon="-0.8250937442039407"><ele>244.5</ele><time>2026-04-29T10:17:21Z</time></trkpt><trkpt lat="43.265763502769566" lon="-0.8252021030716431"><ele>244.66666666666669</ele><time>2026-04-29T10:17:22Z</time></trkpt><trkpt lat="43.26577282647509" lon="-0.8253124568490265"><ele>244.83333333333334</ele><time>2026-04-29T10:17:23Z</time></trkpt><trkpt lat="43.265779995110066" lon="-0.8254195519947649"><ele>245.0</ele><time>2026-04-29T10:17:24Z</time></trkpt><trkpt lat="43.265788902040995" lon="-0.8255276853349554"><ele>245.00000000000003</ele><time>2026-04-29T10:17:25Z</time></trkpt><trkpt lat="43.26579634965242" lon="-0.8256330327523942"><ele>245.0</ele><time>2026-04-29T10:17:26Z</time></trkpt><trkpt lat="43.26580312203279" lon="-0.8257379370513966"><ele>245.0</ele><time>2026-04-29T10:17:27Z</time></trkpt><trkpt lat="43.265811799914644" lon="-0.8258410425478468"><ele>245.0</ele><time>2026-04-29T10:17:28Z</time></trkpt><trkpt lat="43.26581957406122" lon="-0.825944736407281"><ele>245.00000000000003</ele><time>2026-04-29T10:17:29Z</time></trkpt><trkpt lat="43.26583007734674" lon="-0.8260493191693236"><ele>245.0</ele><time>2026-04-29T10:17:30Z</time></trkpt><trkpt lat="43.26583770214656" lon="-0.8261568423857035"><ele>244.83333333333334</ele><time>2026-04-29T10:17:31Z</time></trkpt><trkpt lat="43.26584445847285" lon="-0.8262633457053502"><ele>244.66666666666669</ele><time>2026-04-29T10:17:32Z</time></trkpt><trkpt lat="43.265856834751695" lon="-0.8263724172220491"><ele>244.5</ele><time>2026-04-29T10:17:33Z</time></trkpt><trkpt lat="43.26586531301131" lon="-0.8264811813307869"><ele>244.33333333333331</ele><time>2026-04-29T10:17:34.001Z</time></trkpt><trkpt lat="43.26586990243031" lon="-0.8265904925102479"><ele>244.16666666666666</ele><time>2026-04-29T10:17:35.001Z</time></trkpt><trkpt lat="43.26587666889855" lon="-0.8267018990498284"><ele>244.0</ele><time>2026-04-29T10:17:36.001Z</time></trkpt><trkpt lat="43.2658872754489" lon="-0.8268129718944447"><ele>244.49999999999997</ele><time>2026-04-29T10:17:37.001Z</time></trkpt><trkpt lat="43.2658985844285" lon="-0.8269229783045057"><ele>245.0</ele><time>2026-04-29T10:17:38.001Z</time></trkpt><trkpt lat="43.26590766390853" lon="-0.8270328186393596"><ele>245.5</ele><time>2026-04-29T10:17:39.001Z</time></trkpt><trkpt lat="43.265917641486645" lon="-0.8271426713193729"><ele>246.0</ele><time>2026-04-29T10:17:40.001Z</time></trkpt><trkpt lat="43.26592792991301" lon="-0.8272531070117548"><ele>246.49999999999997</ele><time>2026-04-29T10:17:41.001Z</time></trkpt><trkpt lat="43.26593380008765" lon="-0.827361927429499"><ele>247.0</ele><time>2026-04-29T10:17:42.001Z</time></trkpt><trkpt lat="43.26593973208168" lon="-0.8274704462405145"><ele>246.99999999999997</ele><time>2026-04-29T10:17:43.001Z</time></trkpt><trkpt lat="43.265942992836116" lon="-0.8275828035846482"><ele>247.0</ele><time>2026-04-29T10:17:44.001Z</time></trkpt><trkpt lat="43.26594455096092" lon="-0.827693324324071"><ele>247.0</ele><time>2026-04-29T10:17:45.001Z</time></trkpt><trkpt lat="43.2659452373117" lon="-0.8278071806243971"><ele>247.0</ele><time>2026-04-29T10:17:46.001Z</time></trkpt><trkpt lat="43.265941936880125" lon="-0.827921300103176"><ele>246.99999999999997</ele><time>2026-04-29T10:17:47.001Z</time></trkpt><trkpt lat="43.265934908316524" lon="-0.82803900681909"><ele>247.0</ele><time>2026-04-29T10:17:48.001Z</time></trkpt><trkpt lat="43.26592500198132" lon="-0.8281568508952741"><ele>247.2</ele><time>2026-04-29T10:17:49.001Z</time></trkpt><trkpt lat="43.26591410776967" lon="-0.8282741839476172"><ele>247.39999999999998</ele><time>2026-04-29T10:17:50.001Z</time></trkpt><trkpt lat="43.26590574020837" lon="-0.8283959430820832"><ele>247.60000000000002</ele><time>2026-04-29T10:17:51.001Z</time></trkpt><trkpt lat="43.265890388518635" lon="-0.8285190405723423"><ele>247.8</ele><time>2026-04-29T10:17:52.001Z</time></trkpt><trkpt lat="43.26587512337758" lon="-0.8286453621002825"><ele>248.0</ele><time>2026-04-29T10:17:53.001Z</time></trkpt><trkpt lat="43.265859876001606" lon="-0.8287776647194273"><ele>247.0</ele><time>2026-04-29T10:17:54.001Z</time></trkpt><trkpt lat="43.2658446318453" lon="-0.828908280516209"><ele>246.0</ele><time>2026-04-29T10:17:55.001Z</time></trkpt><trkpt lat="43.26582888399741" lon="-0.8290467216419858"><ele>245.0</ele><time>2026-04-29T10:17:56.001Z</time></trkpt><trkpt lat="43.26581177529677" lon="-0.8291870292112297"><ele>244.0</ele><time>2026-04-29T10:17:57.001Z</time></trkpt><trkpt lat="43.26579304043663" lon="-0.8293278018708983"><ele>243.0</ele><time>2026-04-29T10:17:58.001Z</time></trkpt><trkpt lat="43.26577601644595" lon="-0.829467889004428"><ele>243.0</ele><time>2026-04-29T10:17:59.001Z</time></trkpt><trkpt lat="43.265759616819444" lon="-0.8296066995877336"><ele>243.0</ele><time>2026-04-29T10:18:00.001Z</time></trkpt><trkpt lat="43.265743878439544" lon="-0.8297425348416042"><ele>243.0</ele><time>2026-04-29T10:18:01.001Z</time></trkpt><trkpt lat="43.26572931276939" lon="-0.8298773187726632"><ele>243.0</ele><time>2026-04-29T10:18:02.001Z</time></trkpt><trkpt lat="43.26571894257479" lon="-0.8300144478310126"><ele>243.0</ele><time>2026-04-29T10:18:03.001Z</time></trkpt><trkpt lat="43.26571449196038" lon="-0.8301523703568174"><ele>243.4</ele><time>2026-04-29T10:18:04.001Z</time></trkpt><trkpt lat="43.26571507263753" lon="-0.8302878547192506"><ele>243.8</ele><time>2026-04-29T10:18:05.001Z</time></trkpt><trkpt lat="43.26571964772547" lon="-0.8304257858931982"><ele>244.2</ele><time>2026-04-29T10:18:06.001Z</time></trkpt><trkpt lat="43.265733660539915" lon="-0.8305602194924547"><ele>244.6</ele><time>2026-04-29T10:18:07.001Z</time></trkpt><trkpt lat="43.26573526221615" lon="-0.8307003308183591"><ele>245.0</ele><time>2026-04-29T10:18:08.001Z</time></trkpt><trkpt lat="43.265745036255616" lon="-0.8308355874243355"><ele>245.0</ele><time>2026-04-29T10:18:09.001Z</time></trkpt><trkpt lat="43.26575515485826" lon="-0.8309684082798235"><ele>245.0</ele><time>2026-04-29T10:18:10.001Z</time></trkpt><trkpt lat="43.26575708821831" lon="-0.8310976351274292"><ele>245.0</ele><time>2026-04-29T10:18:11.001Z</time></trkpt><trkpt lat="43.26578039620182" lon="-0.8312211232195983"><ele>245.0</ele><time>2026-04-29T10:18:12.001Z</time></trkpt><trkpt lat="43.26579788072772" lon="-0.8313425330384199"><ele>245.0</ele><time>2026-04-29T10:18:13.001Z</time></trkpt><trkpt lat="43.26581668363928" lon="-0.8314592788228998"><ele>244.66666666666669</ele><time>2026-04-29T10:18:14.001Z</time></trkpt><trkpt lat="43.26583538205522" lon="-0.8315772770389287"><ele>244.33333333333334</ele><time>2026-04-29T10:18:15.001Z</time></trkpt><trkpt lat="43.26585419392333" lon="-0.831693609518598"><ele>244.0</ele><time>2026-04-29T10:18:16.001Z</time></trkpt><trkpt lat="43.26587517977762" lon="-0.8318105685238725"><ele>243.66666666666669</ele><time>2026-04-29T10:18:17.001Z</time></trkpt><trkpt lat="43.26589901517362" lon="-0.8319290733919823"><ele>243.33333333333334</ele><time>2026-04-29T10:18:18.001Z</time></trkpt><trkpt lat="43.2659194625173" lon="-0.8320505045482822"><ele>243.0</ele><time>2026-04-29T10:18:19.001Z</time></trkpt><trkpt lat="43.26594172452148" lon="-0.8321765591298336"><ele>243.0</ele><time>2026-04-29T10:18:20Z</time></trkpt><trkpt lat="43.26596022600758" lon="-0.8323040408566915"><ele>243.0</ele><time>2026-04-29T10:18:21Z</time></trkpt><trkpt lat="43.26597687994821" lon="-0.8324300836882679"><ele>243.0</ele><time>2026-04-29T10:18:22Z</time></trkpt><trkpt lat="43.26598878942849" lon="-0.8325602739589575"><ele>243.0</ele><time>2026-04-29T10:18:23Z</time></trkpt><trkpt lat="43.26600117798863" lon="-0.8326853992127855"><ele>243.0</ele><time>2026-04-29T10:18:24Z</time></trkpt><trkpt lat="43.26600734928315" lon="-0.8328154403400098"><ele>243.0</ele><time>2026-04-29T10:18:25Z</time></trkpt><trkpt lat="43.26601260970845" lon="-0.8329390700150234"><ele>243.0</ele><time>2026-04-29T10:18:26Z</time></trkpt><trkpt lat="43.26601780458964" lon="-0.8330563887124787"><ele>243.0</ele><time>2026-04-29T10:18:27Z</time></trkpt><trkpt lat="43.26601482937837" lon="-0.8331680358872058"><ele>243.0</ele><time>2026-04-29T10:18:28Z</time></trkpt><trkpt lat="43.26601496098308" lon="-0.8332766997815084"><ele>243.0</ele><time>2026-04-29T10:18:29Z</time></trkpt><trkpt lat="43.266011507465635" lon="-0.8333805781085897"><ele>243.0</ele><time>2026-04-29T10:18:30Z</time></trkpt><trkpt lat="43.266009086305154" lon="-0.8334864950346841"><ele>243.5</ele><time>2026-04-29T10:18:31Z</time></trkpt><trkpt lat="43.26600340559926" lon="-0.8335961658228241"><ele>244.0</ele><time>2026-04-29T10:18:32Z</time></trkpt><trkpt lat="43.26600156660584" lon="-0.8337063344693695"><ele>244.5</ele><time>2026-04-29T10:18:33Z</time></trkpt><trkpt lat="43.265999389831016" lon="-0.8338168301250747"><ele>245.0</ele><time>2026-04-29T10:18:34Z</time></trkpt><trkpt lat="43.26599594171785" lon="-0.8339298029987938"><ele>245.5</ele><time>2026-04-29T10:18:35Z</time></trkpt><trkpt lat="43.2659920517273" lon="-0.8340434821293544"><ele>246.0</ele><time>2026-04-29T10:18:36Z</time></trkpt><trkpt lat="43.26598746764865" lon="-0.834157321319686"><ele>246.0</ele><time>2026-04-29T10:18:37Z</time></trkpt><trkpt lat="43.265983995422495" lon="-0.8342712180705507"><ele>246.0</ele><time>2026-04-29T10:18:38Z</time></trkpt><trkpt lat="43.26598376293634" lon="-0.8343861991184605"><ele>246.0</ele><time>2026-04-29T10:18:39Z</time></trkpt><trkpt lat="43.26598989075078" lon="-0.8344992940838213"><ele>246.0</ele><time>2026-04-29T10:18:40Z</time></trkpt><trkpt lat="43.26599755793028" lon="-0.8346179313430333"><ele>246.0</ele><time>2026-04-29T10:18:41Z</time></trkpt><trkpt lat="43.26600786136285" lon="-0.8347363745599868"><ele>246.0</ele><time>2026-04-29T10:18:42Z</time></trkpt><trkpt lat="43.266022764707856" lon="-0.8348514271494428"><ele>246.0</ele><time>2026-04-29T10:18:43Z</time></trkpt><trkpt lat="43.2660428891592" lon="-0.8349616627840296"><ele>246.0</ele><time>2026-04-29T10:18:44Z</time></trkpt><trkpt lat="43.26606523350503" lon="-0.8350712461924229"><ele>246.0</ele><time>2026-04-29T10:18:45Z</time></trkpt><trkpt lat="43.26609062082312" lon="-0.8351751282533694"><ele>246.0</ele><time>2026-04-29T10:18:46Z</time></trkpt><trkpt lat="43.26611787257597" lon="-0.8352808749539616"><ele>246.0</ele><time>2026-04-29T10:18:47Z</time></trkpt><trkpt lat="43.26614734316006" lon="-0.8353836402973764"><ele>246.0</ele><time>2026-04-29T10:18:48Z</time></trkpt><trkpt lat="43.26617788165753" lon="-0.8354887559885755"><ele>246.0</ele><time>2026-04-29T10:18:49Z</time></trkpt><trkpt lat="43.266210600369334" lon="-0.8355904029908156"><ele>246.0</ele><time>2026-04-29T10:18:50Z</time></trkpt><trkpt lat="43.26624309243037" lon="-0.8356927771827312"><ele>246.0</ele><time>2026-04-29T10:18:51Z</time></trkpt><trkpt lat="43.26627125803184" lon="-0.8357935783362026"><ele>246.0</ele><time>2026-04-29T10:18:52Z</time></trkpt><trkpt lat="43.26630343489799" lon="-0.8358943369935514"><ele>246.0</ele><time>2026-04-29T10:18:53Z</time></trkpt><trkpt lat="43.266331402180924" lon="-0.8359932577334911"><ele>246.0</ele><time>2026-04-29T10:18:54Z</time></trkpt><trkpt lat="43.26636013589126" lon="-0.8360941292282248"><ele>246.16666666666666</ele><time>2026-04-29T10:18:55Z</time></trkpt><trkpt lat="43.26639268659788" lon="-0.8361986328661043"><ele>246.33333333333331</ele><time>2026-04-29T10:18:56Z</time></trkpt><trkpt lat="43.2664241041274" lon="-0.8363039626417073"><ele>246.5</ele><time>2026-04-29T10:18:57Z</time></trkpt><trkpt lat="43.26645560863247" lon="-0.8364110470139368"><ele>246.66666666666666</ele><time>2026-04-29T10:18:58Z</time></trkpt><trkpt lat="43.26648892976291" lon="-0.8365172621164008"><ele>246.83333333333331</ele><time>2026-04-29T10:18:59Z</time></trkpt><trkpt lat="43.266522572713136" lon="-0.8366289573616152"><ele>247.0</ele><time>2026-04-29T10:19:00Z</time></trkpt><trkpt lat="43.26655526531545" lon="-0.8367445237967431"><ele>246.2</ele><time>2026-04-29T10:19:01Z</time></trkpt><trkpt lat="43.26659099998372" lon="-0.8368601166601793"><ele>245.39999999999998</ele><time>2026-04-29T10:19:02Z</time></trkpt><trkpt lat="43.26662658731683" lon="-0.8369792508041081"><ele>244.60000000000002</ele><time>2026-04-29T10:19:03Z</time></trkpt><trkpt lat="43.266663537537625" lon="-0.8371020528567676"><ele>243.8</ele><time>2026-04-29T10:19:04Z</time></trkpt><trkpt lat="43.26670290794374" lon="-0.8372241774385307"><ele>243.0</ele><time>2026-04-29T10:19:05Z</time></trkpt><trkpt lat="43.266741570003454" lon="-0.8373489312381425"><ele>243.0</ele><time>2026-04-29T10:19:06Z</time></trkpt><trkpt lat="43.26678057665823" lon="-0.8374770424731403"><ele>243.0</ele><time>2026-04-29T10:19:07Z</time></trkpt><trkpt lat="43.26681787258773" lon="-0.8376081107364756"><ele>243.0</ele><time>2026-04-29T10:19:08Z</time></trkpt><trkpt lat="43.26685599506202" lon="-0.8377409605370401"><ele>243.0</ele><time>2026-04-29T10:19:09Z</time></trkpt><trkpt lat="43.26689597361746" lon="-0.8378805526983305"><ele>243.0</ele><time>2026-04-29T10:19:10Z</time></trkpt><trkpt lat="43.26693218078188" lon="-0.8380185720384473"><ele>242.2</ele><time>2026-04-29T10:19:11Z</time></trkpt><trkpt lat="43.26696217302023" lon="-0.838163201845684"><ele>241.4</ele><time>2026-04-29T10:19:12Z</time></trkpt><trkpt lat="43.266988122012016" lon="-0.8383099735588888"><ele>240.59999999999997</ele><time>2026-04-29T10:19:13Z</time></trkpt><trkpt lat="43.26701365001382" lon="-0.8384571034750571"><ele>239.79999999999998</ele><time>2026-04-29T10:19:14Z</time></trkpt><trkpt lat="43.26703292276325" lon="-0.8386078033808515"><ele>239.0</ele><time>2026-04-29T10:19:15Z</time></trkpt><trkpt lat="43.26704975082282" lon="-0.8387575790128635"><ele>238.39999999999998</ele><time>2026-04-29T10:19:16Z</time></trkpt><trkpt lat="43.267062791631105" lon="-0.8389052711287863"><ele>237.79999999999998</ele><time>2026-04-29T10:19:17Z</time></trkpt><trkpt lat="43.26707625508449" lon="-0.8390546376717829"><ele>237.20000000000002</ele><time>2026-04-29T10:19:18Z</time></trkpt><trkpt lat="43.26708788355145" lon="-0.839205495218455"><ele>236.60000000000002</ele><time>2026-04-29T10:19:19Z</time></trkpt><trkpt lat="43.26709939575842" lon="-0.8393544917880699"><ele>236.0</ele><time>2026-04-29T10:19:20Z</time></trkpt><trkpt lat="43.2671120863819" lon="-0.8395033292719802"><ele>236.0</ele><time>2026-04-29T10:19:21Z</time></trkpt><trkpt lat="43.26712546192462" lon="-0.8396473625146647"><ele>236.00000000000003</ele><time>2026-04-29T10:19:22Z</time></trkpt><trkpt lat="43.26713795055395" lon="-0.839788663161384"><ele>236.00000000000003</ele><time>2026-04-29T10:19:23Z</time></trkpt><trkpt lat="43.26714851086013" lon="-0.8399283457950463"><ele>236.0</ele><time>2026-04-29T10:19:24Z</time></trkpt><trkpt lat="43.267158536983544" lon="-0.8400663003462338"><ele>236.0</ele><time>2026-04-29T10:19:25Z</time></trkpt><trkpt lat="43.267172785651944" lon="-0.8402030044324976"><ele>236.0</ele><time>2026-04-29T10:19:26Z</time></trkpt><trkpt lat="43.26718586266354" lon="-0.8403396776042301"><ele>236.00000000000003</ele><time>2026-04-29T10:19:27Z</time></trkpt><trkpt lat="43.26719747056476" lon="-0.8404744694170028"><ele>236.00000000000003</ele><time>2026-04-29T10:19:28Z</time></trkpt><trkpt lat="43.267208539653495" lon="-0.8406100139085237"><ele>236.0</ele><time>2026-04-29T10:19:29Z</time></trkpt><trkpt lat="43.2672231764497" lon="-0.8407431325016065"><ele>236.0</ele><time>2026-04-29T10:19:30Z</time></trkpt><trkpt lat="43.26723722275012" lon="-0.8408746839752056"><ele>236.16666666666669</ele><time>2026-04-29T10:19:31Z</time></trkpt><trkpt lat="43.26725134568154" lon="-0.841005810955278"><ele>236.33333333333334</ele><time>2026-04-29T10:19:32Z</time></trkpt><trkpt lat="43.267263341417866" lon="-0.841132009543058"><ele>236.5</ele><time>2026-04-29T10:19:33Z</time></trkpt><trkpt lat="43.26727212235505" lon="-0.8412516685241482"><ele>236.66666666666669</ele><time>2026-04-29T10:19:34Z</time></trkpt><trkpt lat="43.2672677927663" lon="-0.8413652528115578"><ele>236.83333333333334</ele><time>2026-04-29T10:19:35Z</time></trkpt><trkpt lat="43.26724643435345" lon="-0.8414660430945688"><ele>237.0</ele><time>2026-04-29T10:19:36Z</time></trkpt><trkpt lat="43.26724502615461" lon="-0.8415626046826943"><ele>237.0</ele><time>2026-04-29T10:19:37Z</time></trkpt><trkpt lat="43.267227781295446" lon="-0.8416536083897623"><ele>237.0</ele><time>2026-04-29T10:19:38Z</time></trkpt><trkpt lat="43.26719140358323" lon="-0.8418225942210128"><ele>237.0</ele><time>2026-04-29T10:19:40Z</time></trkpt><trkpt lat="43.26715705104793" lon="-0.8419039635483822"><ele>237.0</ele><time>2026-04-29T10:19:41Z</time></trkpt><trkpt lat="43.26714369480482" lon="-0.8419954682639964"><ele>237.0</ele><time>2026-04-29T10:19:42Z</time></trkpt><trkpt lat="43.26712069040481" lon="-0.8420839833703313"><ele>237.0</ele><time>2026-04-29T10:19:43Z</time></trkpt><trkpt lat="43.26709966973592" lon="-0.8421761045770644"><ele>236.99999999999997</ele><time>2026-04-29T10:19:44Z</time></trkpt><trkpt lat="43.26707745587974" lon="-0.842264986304967"><ele>237.0</ele><time>2026-04-29T10:19:45Z</time></trkpt><trkpt lat="43.267055689773194" lon="-0.8423547496433876"><ele>236.99999999999997</ele><time>2026-04-29T10:19:46Z</time></trkpt><trkpt lat="43.26703674630838" lon="-0.8424455672983707"><ele>236.99999999999997</ele><time>2026-04-29T10:19:47Z</time></trkpt><trkpt lat="43.26701671363" lon="-0.8425364541971322"><ele>237.0</ele><time>2026-04-29T10:19:48Z</time></trkpt><trkpt lat="43.26699116524852" lon="-0.8426296584583078"><ele>236.99999999999997</ele><time>2026-04-29T10:19:49Z</time></trkpt><trkpt lat="43.266965036806546" lon="-0.842720482783879"><ele>236.99999999999997</ele><time>2026-04-29T10:19:50Z</time></trkpt><trkpt lat="43.26694000079462" lon="-0.8428145244040287"><ele>237.0</ele><time>2026-04-29T10:19:51Z</time></trkpt><trkpt lat="43.266915995531924" lon="-0.8429097814613685"><ele>237.0</ele><time>2026-04-29T10:19:52Z</time></trkpt><trkpt lat="43.26689236897395" lon="-0.8430077453448068"><ele>237.0</ele><time>2026-04-29T10:19:53Z</time></trkpt><trkpt lat="43.26686811109916" lon="-0.8431056291346444"><ele>237.0</ele><time>2026-04-29T10:19:54Z</time></trkpt><trkpt lat="43.266842757946606" lon="-0.8432043475257827"><ele>237.0</ele><time>2026-04-29T10:19:55Z</time></trkpt><trkpt lat="43.2668161460684" lon="-0.8433058430129241"><ele>237.0</ele><time>2026-04-29T10:19:56.001Z</time></trkpt><trkpt lat="43.26679102525394" lon="-0.8434090593843317"><ele>237.0</ele><time>2026-04-29T10:19:57.001Z</time></trkpt><trkpt lat="43.26676586746984" lon="-0.8435123248330726"><ele>237.0</ele><time>2026-04-29T10:19:58.001Z</time></trkpt><trkpt lat="43.26673900313983" lon="-0.8436171622205113"><ele>237.0</ele><time>2026-04-29T10:19:59.001Z</time></trkpt><trkpt lat="43.26671370209295" lon="-0.8437240266485199"><ele>237.0</ele><time>2026-04-29T10:20:00.001Z</time></trkpt><trkpt lat="43.26668862696081" lon="-0.8438317439910282"><ele>237.0</ele><time>2026-04-29T10:20:01.001Z</time></trkpt><trkpt lat="43.26666302311084" lon="-0.8439351797277902"><ele>237.0</ele><time>2026-04-29T10:20:02.001Z</time></trkpt><trkpt lat="43.266640796524655" lon="-0.8440388627641205"><ele>237.0</ele><time>2026-04-29T10:20:03.001Z</time></trkpt><trkpt lat="43.26662145087032" lon="-0.8441430750738527"><ele>237.0</ele><time>2026-04-29T10:20:04.001Z</time></trkpt><trkpt lat="43.26659741741462" lon="-0.8442475407345527"><ele>237.0</ele><time>2026-04-29T10:20:05.001Z</time></trkpt><trkpt lat="43.26656973430993" lon="-0.8443504340615089"><ele>237.0</ele><time>2026-04-29T10:20:06.001Z</time></trkpt><trkpt lat="43.266536587897754" lon="-0.8444606200064477"><ele>237.0</ele><time>2026-04-29T10:20:07.001Z</time></trkpt><trkpt lat="43.26650934068244" lon="-0.8445664846845984"><ele>237.0</ele><time>2026-04-29T10:20:08.001Z</time></trkpt><trkpt lat="43.26648225010809" lon="-0.8446738936919981"><ele>237.5</ele><time>2026-04-29T10:20:09.001Z</time></trkpt><trkpt lat="43.26645364641726" lon="-0.8447792042268436"><ele>238.0</ele><time>2026-04-29T10:20:10.001Z</time></trkpt><trkpt lat="43.26642657133063" lon="-0.8448856287703784"><ele>238.5</ele><time>2026-04-29T10:20:11.001Z</time></trkpt><trkpt lat="43.266398959355385" lon="-0.8449925034940357"><ele>239.0</ele><time>2026-04-29T10:20:12.001Z</time></trkpt><trkpt lat="43.26637352887833" lon="-0.8450970978942722"><ele>239.5</ele><time>2026-04-29T10:20:13.001Z</time></trkpt><trkpt lat="43.26634645072739" lon="-0.845202023900082"><ele>240.0</ele><time>2026-04-29T10:20:14.001Z</time></trkpt><trkpt lat="43.26632043418869" lon="-0.8453099089052156"><ele>241.5</ele><time>2026-04-29T10:20:15.001Z</time></trkpt><trkpt lat="43.26629541044246" lon="-0.8454174283246914"><ele>243.0</ele><time>2026-04-29T10:20:16.001Z</time></trkpt><trkpt lat="43.266269545735966" lon="-0.8455269902672455"><ele>244.5</ele><time>2026-04-29T10:20:17.001Z</time></trkpt><trkpt lat="43.26624180783171" lon="-0.8456361508378065"><ele>246.0</ele><time>2026-04-29T10:20:18.001Z</time></trkpt><trkpt lat="43.266213197127335" lon="-0.8457445034277119"><ele>247.5</ele><time>2026-04-29T10:20:19.001Z</time></trkpt><trkpt lat="43.26618381927537" lon="-0.8458516417687441"><ele>249.0</ele><time>2026-04-29T10:20:20.001Z</time></trkpt><trkpt lat="43.266155798677374" lon="-0.8459561046868787"><ele>248.79999999999998</ele><time>2026-04-29T10:20:21.001Z</time></trkpt><trkpt lat="43.26612981723527" lon="-0.8460548138180866"><ele>248.59999999999997</ele><time>2026-04-29T10:20:22.001Z</time></trkpt><trkpt lat="43.26610718890618" lon="-0.8461456692954723"><ele>248.4</ele><time>2026-04-29T10:20:23.001Z</time></trkpt><trkpt lat="43.26608766355771" lon="-0.8462319151042688"><ele>248.2</ele><time>2026-04-29T10:20:24.001Z</time></trkpt><trkpt lat="43.266049734811475" lon="-0.8463920322653219"><ele>248.0</ele><time>2026-04-29T10:20:26Z</time></trkpt><trkpt lat="43.26600626795456" lon="-0.8465563296275431"><ele>248.00000000000003</ele><time>2026-04-29T10:20:28Z</time></trkpt><trkpt lat="43.26596141924113" lon="-0.8467191122089355"><ele>248.0</ele><time>2026-04-29T10:20:30Z</time></trkpt><trkpt lat="43.265940876628505" lon="-0.8468020456818358"><ele>248.0</ele><time>2026-04-29T10:20:31Z</time></trkpt><trkpt lat="43.26591922335354" lon="-0.8468867919748341"><ele>248.0</ele><time>2026-04-29T10:20:32Z</time></trkpt><trkpt lat="43.2658953452974" lon="-0.8469726268098919"><ele>248.00000000000003</ele><time>2026-04-29T10:20:33Z</time></trkpt><trkpt lat="43.26587333857711" lon="-0.8470578219588422"><ele>248.0</ele><time>2026-04-29T10:20:34Z</time></trkpt><trkpt lat="43.26585090261159" lon="-0.8471464499118868"><ele>247.85714285714286</ele><time>2026-04-29T10:20:35Z</time></trkpt><trkpt lat="43.26583134331608" lon="-0.8472386191269393"><ele>247.71428571428572</ele><time>2026-04-29T10:20:36Z</time></trkpt><trkpt lat="43.2658106834773" lon="-0.847333753888257"><ele>247.57142857142858</ele><time>2026-04-29T10:20:37Z</time></trkpt><trkpt lat="43.26578435546764" lon="-0.8474278368939903"><ele>247.42857142857144</ele><time>2026-04-29T10:20:38Z</time></trkpt><trkpt lat="43.265755750575465" lon="-0.8475293194105301"><ele>247.28571428571428</ele><time>2026-04-29T10:20:39Z</time></trkpt><trkpt lat="43.265729196604255" lon="-0.8476235792503943"><ele>247.14285714285717</ele><time>2026-04-29T10:20:40Z</time></trkpt><trkpt lat="43.265700360997045" lon="-0.8477172832969774"><ele>247.0</ele><time>2026-04-29T10:20:41Z</time></trkpt><trkpt lat="43.26567782354733" lon="-0.8478100152796619"><ele>246.99999999999997</ele><time>2026-04-29T10:20:42Z</time></trkpt><trkpt lat="43.2656458420821" lon="-0.8478991056273176"><ele>247.0</ele><time>2026-04-29T10:20:43Z</time></trkpt><trkpt lat="43.26560273110717" lon="-0.8479830408085857"><ele>247.0</ele><time>2026-04-29T10:20:44Z</time></trkpt><trkpt lat="43.265556018194076" lon="-0.8480645109307418"><ele>247.0</ele><time>2026-04-29T10:20:45Z</time></trkpt><trkpt lat="43.265494457725204" lon="-0.8481365009825638"><ele>246.99999999999997</ele><time>2026-04-29T10:20:46Z</time></trkpt><trkpt lat="43.265430191496804" lon="-0.8482061105927753"><ele>247.0</ele><time>2026-04-29T10:20:47Z</time></trkpt><trkpt lat="43.26535962853933" lon="-0.8482626347828426"><ele>245.6</ele><time>2026-04-29T10:20:48Z</time></trkpt><trkpt lat="43.26528001090647" lon="-0.8483091864078436"><ele>244.2</ele><time>2026-04-29T10:20:49Z</time></trkpt><trkpt lat="43.265197773735494" lon="-0.8483511756991927"><ele>242.8</ele><time>2026-04-29T10:20:50Z</time></trkpt><trkpt lat="43.26511324340137" lon="-0.848404105484179"><ele>241.4</ele><time>2026-04-29T10:20:51Z</time></trkpt><trkpt lat="43.26502318789603" lon="-0.848460078951286"><ele>240.0</ele><time>2026-04-29T10:20:52Z</time></trkpt><trkpt lat="43.26493060043442" lon="-0.8485144980644894"><ele>240.0</ele><time>2026-04-29T10:20:53Z</time></trkpt><trkpt lat="43.264837911523195" lon="-0.848572955474358"><ele>240.0</ele><time>2026-04-29T10:20:54Z</time></trkpt><trkpt lat="43.26474542555647" lon="-0.848632962837702"><ele>240.0</ele><time>2026-04-29T10:20:55Z</time></trkpt><trkpt lat="43.26465530843627" lon="-0.8486964166772926"><ele>240.0</ele><time>2026-04-29T10:20:56Z</time></trkpt><trkpt lat="43.26456480671769" lon="-0.8487615048619573"><ele>240.0</ele><time>2026-04-29T10:20:57Z</time></trkpt><trkpt lat="43.26447107329589" lon="-0.8488276765576986"><ele>238.4</ele><time>2026-04-29T10:20:58Z</time></trkpt><trkpt lat="43.26437815073767" lon="-0.8488947880124755"><ele>236.8</ele><time>2026-04-29T10:20:59Z</time></trkpt><trkpt lat="43.264284888825664" lon="-0.8489612194132099"><ele>235.2</ele><time>2026-04-29T10:21:00Z</time></trkpt><trkpt lat="43.26418012618161" lon="-0.849031218692574"><ele>233.6</ele><time>2026-04-29T10:21:01Z</time></trkpt><trkpt lat="43.26409063061302" lon="-0.8491207313918248"><ele>232.0</ele><time>2026-04-29T10:21:02Z</time></trkpt><trkpt lat="43.264005574283374" lon="-0.8491891813979343"><ele>231.6</ele><time>2026-04-29T10:21:03Z</time></trkpt><trkpt lat="43.26392723916947" lon="-0.8492545602488043"><ele>231.2</ele><time>2026-04-29T10:21:04Z</time></trkpt><trkpt lat="43.263796624363174" lon="-0.8493513985548188"><ele>230.8</ele><time>2026-04-29T10:21:05Z</time></trkpt><trkpt lat="43.263710979216526" lon="-0.8494250330131089"><ele>230.4</ele><time>2026-04-29T10:21:06Z</time></trkpt><trkpt lat="43.263630926206694" lon="-0.8494933266089599"><ele>230.0</ele><time>2026-04-29T10:21:07Z</time></trkpt><trkpt lat="43.2635549830406" lon="-0.8495547912479761"><ele>229.99999999999997</ele><time>2026-04-29T10:21:08Z</time></trkpt><trkpt lat="43.26348646741056" lon="-0.8496134142871803"><ele>230.0</ele><time>2026-04-29T10:21:09Z</time></trkpt><trkpt lat="43.26342132472786" lon="-0.8496686547856703"><ele>229.99999999999997</ele><time>2026-04-29T10:21:10Z</time></trkpt><trkpt lat="43.26336113022811" lon="-0.8497203630319378"><ele>229.99999999999997</ele><time>2026-04-29T10:21:11Z</time></trkpt><trkpt lat="43.26330676236287" lon="-0.8497681404396962"><ele>230.0</ele><time>2026-04-29T10:21:12Z</time></trkpt><trkpt lat="43.263249542260404" lon="-0.8498191201971046"><ele>229.99999999999997</ele><time>2026-04-29T10:21:13Z</time></trkpt><trkpt lat="43.26318521367536" lon="-0.8498773645421787"><ele>229.99999999999997</ele><time>2026-04-29T10:21:14Z</time></trkpt><trkpt lat="43.263116098685735" lon="-0.8499309268188295"><ele>229.50000000000003</ele><time>2026-04-29T10:21:15Z</time></trkpt><trkpt lat="43.263040433158956" lon="-0.8499748741815528"><ele>229.0</ele><time>2026-04-29T10:21:16Z</time></trkpt><trkpt lat="43.26297216690379" lon="-0.850032596941694"><ele>228.5</ele><time>2026-04-29T10:21:17Z</time></trkpt><trkpt lat="43.26290313688167" lon="-0.8500913808352372"><ele>228.0</ele><time>2026-04-29T10:21:18Z</time></trkpt><trkpt lat="43.262844299302515" lon="-0.8501625156744991"><ele>227.50000000000003</ele><time>2026-04-29T10:21:19Z</time></trkpt><trkpt lat="43.262777737524885" lon="-0.8502071535902586"><ele>227.0</ele><time>2026-04-29T10:21:20Z</time></trkpt><trkpt lat="43.26270387011726" lon="-0.8502378423414992"><ele>227.00000000000003</ele><time>2026-04-29T10:21:21Z</time></trkpt><trkpt lat="43.26263263963874" lon="-0.8502857342694857"><ele>227.0</ele><time>2026-04-29T10:21:22Z</time></trkpt><trkpt lat="43.26256234269237" lon="-0.8503216208664597"><ele>227.0</ele><time>2026-04-29T10:21:23Z</time></trkpt><trkpt lat="43.2624894809672" lon="-0.8503580857848037"><ele>227.0</ele><time>2026-04-29T10:21:24Z</time></trkpt><trkpt lat="43.2624119138306" lon="-0.8503925039382312"><ele>227.00000000000003</ele><time>2026-04-29T10:21:25Z</time></trkpt><trkpt lat="43.262337029541854" lon="-0.8504226765157771"><ele>227.0</ele><time>2026-04-29T10:21:26Z</time></trkpt><trkpt lat="43.262264084935694" lon="-0.8504599656558851"><ele>226.50000000000003</ele><time>2026-04-29T10:21:27Z</time></trkpt><trkpt lat="43.2621864136708" lon="-0.8504916560121711"><ele>226.0</ele><time>2026-04-29T10:21:28Z</time></trkpt><trkpt lat="43.26211046236251" lon="-0.8505252001392509"><ele>225.5</ele><time>2026-04-29T10:21:29Z</time></trkpt><trkpt lat="43.262037412319" lon="-0.8505688014555769"><ele>225.0</ele><time>2026-04-29T10:21:30Z</time></trkpt><trkpt lat="43.26196833517193" lon="-0.8506243241701185"><ele>224.50000000000003</ele><time>2026-04-29T10:21:31Z</time></trkpt><trkpt lat="43.261900528701986" lon="-0.8506869360120055"><ele>224.0</ele><time>2026-04-29T10:21:32Z</time></trkpt><trkpt lat="43.26183457005064" lon="-0.8507591582935258"><ele>224.00000000000003</ele><time>2026-04-29T10:21:33Z</time></trkpt><trkpt lat="43.261762186129545" lon="-0.8508187229635404"><ele>224.0</ele><time>2026-04-29T10:21:34Z</time></trkpt><trkpt lat="43.26168200387848" lon="-0.8508694826506138"><ele>224.0</ele><time>2026-04-29T10:21:35Z</time></trkpt><trkpt lat="43.26160333432726" lon="-0.8509191681273981"><ele>224.0</ele><time>2026-04-29T10:21:36Z</time></trkpt><trkpt lat="43.26152875296649" lon="-0.8509689643431501"><ele>224.00000000000003</ele><time>2026-04-29T10:21:37Z</time></trkpt><trkpt lat="43.26145328502135" lon="-0.8510234723546861"><ele>224.0</ele><time>2026-04-29T10:21:38Z</time></trkpt><trkpt lat="43.261376756120335" lon="-0.8510812799749029"><ele>223.66666666666669</ele><time>2026-04-29T10:21:39Z</time></trkpt><trkpt lat="43.26129969652548" lon="-0.8511386692912638"><ele>223.33333333333334</ele><time>2026-04-29T10:21:40Z</time></trkpt><trkpt lat="43.26122115532432" lon="-0.8512001337180056"><ele>223.0</ele><time>2026-04-29T10:21:41Z</time></trkpt><trkpt lat="43.26114830590805" lon="-0.8512710702640207"><ele>222.66666666666669</ele><time>2026-04-29T10:21:42Z</time></trkpt><trkpt lat="43.26107465909371" lon="-0.8513535901906423"><ele>222.33333333333334</ele><time>2026-04-29T10:21:43Z</time></trkpt><trkpt lat="43.261012569059" lon="-0.8514370198403904"><ele>222.0</ele><time>2026-04-29T10:21:44Z</time></trkpt><trkpt lat="43.26095851363729" lon="-0.851527745940697"><ele>222.0</ele><time>2026-04-29T10:21:45Z</time></trkpt><trkpt lat="43.26090779698458" lon="-0.8516230450243463"><ele>222.0</ele><time>2026-04-29T10:21:46Z</time></trkpt><trkpt lat="43.26086357962968" lon="-0.8517211469818478"><ele>222.0</ele><time>2026-04-29T10:21:47Z</time></trkpt><trkpt lat="43.260825711946765" lon="-0.8518239236914813"><ele>222.0</ele><time>2026-04-29T10:21:48Z</time></trkpt><trkpt lat="43.26079281166183" lon="-0.8519326217824295"><ele>222.0</ele><time>2026-04-29T10:21:49Z</time></trkpt><trkpt lat="43.26076294470939" lon="-0.8520469348859504"><ele>222.0</ele><time>2026-04-29T10:21:50Z</time></trkpt><trkpt lat="43.26073085930777" lon="-0.8521628698745648"><ele>220.6</ele><time>2026-04-29T10:21:51Z</time></trkpt><trkpt lat="43.26070056000152" lon="-0.8522846453616778"><ele>219.2</ele><time>2026-04-29T10:21:52Z</time></trkpt><trkpt lat="43.2606696118335" lon="-0.8524087314839195"><ele>217.8</ele><time>2026-04-29T10:21:53Z</time></trkpt><trkpt lat="43.26063275284376" lon="-0.8525305394172285"><ele>216.4</ele><time>2026-04-29T10:21:54Z</time></trkpt><trkpt lat="43.26058726363916" lon="-0.8526499514322978"><ele>215.0</ele><time>2026-04-29T10:21:55Z</time></trkpt><trkpt lat="43.26053458090371" lon="-0.8527662478346268"><ele>213.8</ele><time>2026-04-29T10:21:56Z</time></trkpt><trkpt lat="43.26047249201558" lon="-0.8528714946495417"><ele>212.6</ele><time>2026-04-29T10:21:57Z</time></trkpt><trkpt lat="43.260408344725775" lon="-0.8529741838523108"><ele>211.39999999999998</ele><time>2026-04-29T10:21:58Z</time></trkpt><trkpt lat="43.26033742072319" lon="-0.8530703395953368"><ele>210.2</ele><time>2026-04-29T10:21:59Z</time></trkpt><trkpt lat="43.26026444040646" lon="-0.8531491872831491"><ele>209.0</ele><time>2026-04-29T10:22:00Z</time></trkpt><trkpt lat="43.26018725772821" lon="-0.8532244357372765"><ele>209.0</ele><time>2026-04-29T10:22:01Z</time></trkpt><trkpt lat="43.26010629079885" lon="-0.8532922729431534"><ele>209.0</ele><time>2026-04-29T10:22:02.001Z</time></trkpt><trkpt lat="43.26002821680039" lon="-0.8533500433593877"><ele>209.0</ele><time>2026-04-29T10:22:03.001Z</time></trkpt><trkpt lat="43.25994834390178" lon="-0.853404892941096"><ele>209.0</ele><time>2026-04-29T10:22:04.001Z</time></trkpt><trkpt lat="43.25986711686568" lon="-0.8534606940489583"><ele>209.0</ele><time>2026-04-29T10:22:05.001Z</time></trkpt><trkpt lat="43.259785951003" lon="-0.853512887064359"><ele>207.83333333333334</ele><time>2026-04-29T10:22:06.001Z</time></trkpt><trkpt lat="43.25970494326805" lon="-0.8535667069929249"><ele>206.66666666666669</ele><time>2026-04-29T10:22:07.001Z</time></trkpt><trkpt lat="43.25962260491491" lon="-0.8536238279857233"><ele>205.5</ele><time>2026-04-29T10:22:08.001Z</time></trkpt><trkpt lat="43.259543707767115" lon="-0.8536746614576116"><ele>204.33333333333331</ele><time>2026-04-29T10:22:09.001Z</time></trkpt><trkpt lat="43.259467673812146" lon="-0.8537286144862224"><ele>203.16666666666666</ele><time>2026-04-29T10:22:10.001Z</time></trkpt><trkpt lat="43.25938654003885" lon="-0.8537841524597595"><ele>202.0</ele><time>2026-04-29T10:22:11.001Z</time></trkpt><trkpt lat="43.259310877101015" lon="-0.8538362273729974"><ele>201.99999999999997</ele><time>2026-04-29T10:22:12.001Z</time></trkpt><trkpt lat="43.25923561847456" lon="-0.8538898482755484"><ele>202.0</ele><time>2026-04-29T10:22:13.001Z</time></trkpt><trkpt lat="43.259148092706084" lon="-0.8539438436498634"><ele>202.0</ele><time>2026-04-29T10:22:14.001Z</time></trkpt><trkpt lat="43.25906967234802" lon="-0.8540020274676694"><ele>202.0</ele><time>2026-04-29T10:22:15.001Z</time></trkpt><trkpt lat="43.25899248780611" lon="-0.854058171799121"><ele>201.99999999999997</ele><time>2026-04-29T10:22:16.001Z</time></trkpt><trkpt lat="43.25891540025633" lon="-0.8541098556067055"><ele>202.0</ele><time>2026-04-29T10:22:17.001Z</time></trkpt><trkpt lat="43.25883825409447" lon="-0.8541651813673545"><ele>202.83333333333331</ele><time>2026-04-29T10:22:18.001Z</time></trkpt><trkpt lat="43.2587590000776" lon="-0.8542148251356347"><ele>203.66666666666666</ele><time>2026-04-29T10:22:19.001Z</time></trkpt><trkpt lat="43.25868211670788" lon="-0.8542670714140826"><ele>204.5</ele><time>2026-04-29T10:22:20.001Z</time></trkpt><trkpt lat="43.25860370017228" lon="-0.8543180975785145"><ele>205.33333333333331</ele><time>2026-04-29T10:22:21.001Z</time></trkpt><trkpt lat="43.25852569739235" lon="-0.8543717445517315"><ele>206.16666666666666</ele><time>2026-04-29T10:22:22.001Z</time></trkpt><trkpt lat="43.25844894260819" lon="-0.8544228861554032"><ele>207.0</ele><time>2026-04-29T10:22:23.001Z</time></trkpt><trkpt lat="43.258369685267006" lon="-0.8544751943971882"><ele>205.33333333333334</ele><time>2026-04-29T10:22:24.001Z</time></trkpt><trkpt lat="43.258289948080375" lon="-0.8545256477654277"><ele>203.66666666666669</ele><time>2026-04-29T10:22:25.001Z</time></trkpt><trkpt lat="43.25821218396692" lon="-0.854575358089337"><ele>202.0</ele><time>2026-04-29T10:22:26.001Z</time></trkpt><trkpt lat="43.25813479429101" lon="-0.8546218853706707"><ele>200.33333333333334</ele><time>2026-04-29T10:22:27.001Z</time></trkpt><trkpt lat="43.25805571487885" lon="-0.8546644399946111"><ele>198.66666666666669</ele><time>2026-04-29T10:22:28.001Z</time></trkpt><trkpt lat="43.25797619610754" lon="-0.8546994845243916"><ele>197.0</ele><time>2026-04-29T10:22:29.001Z</time></trkpt><trkpt lat="43.25789785952179" lon="-0.8547258769269928"><ele>196.50000000000003</ele><time>2026-04-29T10:22:30.001Z</time></trkpt><trkpt lat="43.25781764384706" lon="-0.8547495569731568"><ele>196.0</ele><time>2026-04-29T10:22:31.001Z</time></trkpt><trkpt lat="43.25773605940496" lon="-0.8547745302830594"><ele>195.5</ele><time>2026-04-29T10:22:32Z</time></trkpt><trkpt lat="43.257656098520776" lon="-0.8547949772702527"><ele>195.0</ele><time>2026-04-29T10:22:33Z</time></trkpt><trkpt lat="43.257571640801146" lon="-0.8548090305682232"><ele>194.50000000000003</ele><time>2026-04-29T10:22:34Z</time></trkpt><trkpt lat="43.25748415038881" lon="-0.8548181139591953"><ele>194.0</ele><time>2026-04-29T10:22:35Z</time></trkpt><trkpt lat="43.25739353957115" lon="-0.8548246420593301"><ele>194.0</ele><time>2026-04-29T10:22:36Z</time></trkpt><trkpt lat="43.25730257486093" lon="-0.8548253431244984"><ele>194.0</ele><time>2026-04-29T10:22:37Z</time></trkpt><trkpt lat="43.25720202494382" lon="-0.8548325670927615"><ele>194.0</ele><time>2026-04-29T10:22:38Z</time></trkpt><trkpt lat="43.257104330562285" lon="-0.854835750893942"><ele>194.0</ele><time>2026-04-29T10:22:39Z</time></trkpt><trkpt lat="43.257002086846384" lon="-0.8548309489657178"><ele>194.0</ele><time>2026-04-29T10:22:40Z</time></trkpt><trkpt lat="43.25689901245753" lon="-0.8548306592825032"><ele>192.6</ele><time>2026-04-29T10:22:41Z</time></trkpt><trkpt lat="43.256797118431166" lon="-0.8548220230456862"><ele>191.2</ele><time>2026-04-29T10:22:42Z</time></trkpt><trkpt lat="43.256692658606326" lon="-0.8548125466059302"><ele>189.79999999999998</ele><time>2026-04-29T10:22:43Z</time></trkpt><trkpt lat="43.256585813915336" lon="-0.8548059313196645"><ele>188.39999999999998</ele><time>2026-04-29T10:22:44Z</time></trkpt><trkpt lat="43.256483221260225" lon="-0.8547978468985338"><ele>187.0</ele><time>2026-04-29T10:22:45Z</time></trkpt><trkpt lat="43.25638533229765" lon="-0.8547916731658968"><ele>186.0</ele><time>2026-04-29T10:22:46Z</time></trkpt><trkpt lat="43.25628920990087" lon="-0.8547810212506899"><ele>185.0</ele><time>2026-04-29T10:22:47Z</time></trkpt><trkpt lat="43.25619856361853" lon="-0.8547762483602447"><ele>184.0</ele><time>2026-04-29T10:22:48Z</time></trkpt><trkpt lat="43.25610845923914" lon="-0.8547671805876521"><ele>183.0</ele><time>2026-04-29T10:22:49Z</time></trkpt><trkpt lat="43.25602094174077" lon="-0.8547577818443334"><ele>182.0</ele><time>2026-04-29T10:22:50Z</time></trkpt><trkpt lat="43.25593359398363" lon="-0.8547489272167402"><ele>182.0</ele><time>2026-04-29T10:22:51Z</time></trkpt><trkpt lat="43.25584163984405" lon="-0.8547414938308504"><ele>182.0</ele><time>2026-04-29T10:22:52Z</time></trkpt><trkpt lat="43.25575087764186" lon="-0.8547267470886474"><ele>182.0</ele><time>2026-04-29T10:22:53Z</time></trkpt><trkpt lat="43.255659181682795" lon="-0.8547131664067568"><ele>182.0</ele><time>2026-04-29T10:22:54Z</time></trkpt><trkpt lat="43.2555677613688" lon="-0.8546989796551785"><ele>182.0</ele><time>2026-04-29T10:22:55Z</time></trkpt><trkpt lat="43.2554786646504" lon="-0.8546950080103437"><ele>180.8</ele><time>2026-04-29T10:22:56Z</time></trkpt><trkpt lat="43.25538695759713" lon="-0.8546892497771164"><ele>179.6</ele><time>2026-04-29T10:22:57Z</time></trkpt><trkpt lat="43.25529439652585" lon="-0.8546714343791524"><ele>178.4</ele><time>2026-04-29T10:22:58Z</time></trkpt><trkpt lat="43.25520217412622" lon="-0.8546521878768351"><ele>177.20000000000002</ele><time>2026-04-29T10:22:59Z</time></trkpt><trkpt lat="43.255107286370404" lon="-0.8546419128115699"><ele>176.0</ele><time>2026-04-29T10:23:00Z</time></trkpt><trkpt lat="43.2550116398676" lon="-0.8546367983202414"><ele>176.0</ele><time>2026-04-29T10:23:01Z</time></trkpt><trkpt lat="43.254923061654395" lon="-0.8546217798189714"><ele>176.0</ele><time>2026-04-29T10:23:02Z</time></trkpt><trkpt lat="43.254833132025425" lon="-0.8546151596019713"><ele>176.0</ele><time>2026-04-29T10:23:03Z</time></trkpt><trkpt lat="43.25474315319555" lon="-0.8546063697900507"><ele>176.0</ele><time>2026-04-29T10:23:04Z</time></trkpt><trkpt lat="43.254654523663746" lon="-0.8546016680116248"><ele>176.0</ele><time>2026-04-29T10:23:05Z</time></trkpt><trkpt lat="43.25456316421429" lon="-0.8545938430974375"><ele>175.60000000000002</ele><time>2026-04-29T10:23:06Z</time></trkpt><trkpt lat="43.25447139120179" lon="-0.8545853917360785"><ele>175.2</ele><time>2026-04-29T10:23:07Z</time></trkpt><trkpt lat="43.25437836361954" lon="-0.8545875679571644"><ele>174.8</ele><time>2026-04-29T10:23:08Z</time></trkpt><trkpt lat="43.25428628209708" lon="-0.8545840950020953"><ele>174.39999999999998</ele><time>2026-04-29T10:23:09Z</time></trkpt><trkpt lat="43.25419359712438" lon="-0.8545934065928263"><ele>174.0</ele><time>2026-04-29T10:23:10Z</time></trkpt><trkpt lat="43.25409947201174" lon="-0.8546001976583637"><ele>174.0</ele><time>2026-04-29T10:23:11Z</time></trkpt><trkpt lat="43.25400777152721" lon="-0.8546069093037578"><ele>174.0</ele><time>2026-04-29T10:23:12Z</time></trkpt><trkpt lat="43.253915973335396" lon="-0.8546199712723469"><ele>174.0</ele><time>2026-04-29T10:23:13Z</time></trkpt><trkpt lat="43.253827635099185" lon="-0.8546329395119343"><ele>174.0</ele><time>2026-04-29T10:23:14Z</time></trkpt><trkpt lat="43.25373872082704" lon="-0.8546462658459979"><ele>174.0</ele><time>2026-04-29T10:23:15Z</time></trkpt><trkpt lat="43.253651641349215" lon="-0.8546548445548412"><ele>173.83333333333334</ele><time>2026-04-29T10:23:16Z</time></trkpt><trkpt lat="43.25356954935448" lon="-0.8546615935120585"><ele>173.66666666666666</ele><time>2026-04-29T10:23:17Z</time></trkpt><trkpt lat="43.253488011967185" lon="-0.8546695720831096"><ele>173.5</ele><time>2026-04-29T10:23:18Z</time></trkpt><trkpt lat="43.25340831497928" lon="-0.8546667449087046"><ele>173.33333333333331</ele><time>2026-04-29T10:23:19Z</time></trkpt><trkpt lat="43.25332860380092" lon="-0.854660442948625"><ele>173.16666666666666</ele><time>2026-04-29T10:23:20Z</time></trkpt><trkpt lat="43.25324478841105" lon="-0.8546520839603212"><ele>173.0</ele><time>2026-04-29T10:23:21Z</time></trkpt><trkpt lat="43.25316121761818" lon="-0.8546404932633023"><ele>172.16666666666666</ele><time>2026-04-29T10:23:22Z</time></trkpt><trkpt lat="43.25307680052307" lon="-0.8546264746557327"><ele>171.33333333333331</ele><time>2026-04-29T10:23:23Z</time></trkpt><trkpt lat="43.2529919132323" lon="-0.8546142638500018"><ele>170.5</ele><time>2026-04-29T10:23:24Z</time></trkpt><trkpt lat="43.25290697751743" lon="-0.8545985689066672"><ele>169.66666666666666</ele><time>2026-04-29T10:23:25Z</time></trkpt><trkpt lat="43.25282675650786" lon="-0.854578732030698"><ele>168.83333333333334</ele><time>2026-04-29T10:23:26Z</time></trkpt><trkpt lat="43.25274608033729" lon="-0.854561515818188"><ele>168.0</ele><time>2026-04-29T10:23:27Z</time></trkpt><trkpt lat="43.252666729374965" lon="-0.8545479073197447"><ele>168.0</ele><time>2026-04-29T10:23:28Z</time></trkpt><trkpt lat="43.2525919011747" lon="-0.8545421539807149"><ele>168.0</ele><time>2026-04-29T10:23:29Z</time></trkpt><trkpt lat="43.2525173937744" lon="-0.8545371626898305"><ele>168.0</ele><time>2026-04-29T10:23:30Z</time></trkpt><trkpt lat="43.25244496250989" lon="-0.8545311595371299"><ele>168.0</ele><time>2026-04-29T10:23:31Z</time></trkpt><trkpt lat="43.252370909333635" lon="-0.8545247577274145"><ele>168.0</ele><time>2026-04-29T10:23:32Z</time></trkpt><trkpt lat="43.252296281047556" lon="-0.8545211006322031"><ele>168.0</ele><time>2026-04-29T10:23:33Z</time></trkpt><trkpt lat="43.25222558238903" lon="-0.8545136595033849"><ele>168.0</ele><time>2026-04-29T10:23:34Z</time></trkpt><trkpt lat="43.25215366412826" lon="-0.8545119418483339"><ele>168.0</ele><time>2026-04-29T10:23:35Z</time></trkpt><trkpt lat="43.2520797094501" lon="-0.8545069384552102"><ele>168.0</ele><time>2026-04-29T10:23:36Z</time></trkpt><trkpt lat="43.25200860876804" lon="-0.8545122614095363"><ele>168.0</ele><time>2026-04-29T10:23:37Z</time></trkpt><trkpt lat="43.25193688105528" lon="-0.8545139718022019"><ele>168.0</ele><time>2026-04-29T10:23:38Z</time></trkpt><trkpt lat="43.251873115316066" lon="-0.8545275571504113"><ele>168.0</ele><time>2026-04-29T10:23:39Z</time></trkpt><trkpt lat="43.251797608143015" lon="-0.8545466326337379"><ele>168.0</ele><time>2026-04-29T10:23:40Z</time></trkpt><trkpt lat="43.25173043492364" lon="-0.8545798937239906"><ele>168.0</ele><time>2026-04-29T10:23:41Z</time></trkpt><trkpt lat="43.25166617252365" lon="-0.8546111878382471"><ele>168.0</ele><time>2026-04-29T10:23:42Z</time></trkpt><trkpt lat="43.25160218616514" lon="-0.8546470541563744"><ele>168.0</ele><time>2026-04-29T10:23:43Z</time></trkpt><trkpt lat="43.2515346114995" lon="-0.8546889040493371"><ele>168.0</ele><time>2026-04-29T10:23:44Z</time></trkpt><trkpt lat="43.25147090761876" lon="-0.8547387357352796"><ele>168.0</ele><time>2026-04-29T10:23:45Z</time></trkpt><trkpt lat="43.25141122491985" lon="-0.8547968563723081"><ele>168.0</ele><time>2026-04-29T10:23:46Z</time></trkpt><trkpt lat="43.25135521041722" lon="-0.8548594087151179"><ele>168.0</ele><time>2026-04-29T10:23:47Z</time></trkpt><trkpt lat="43.251302488506894" lon="-0.8549304102498496"><ele>168.0</ele><time>2026-04-29T10:23:48Z</time></trkpt><trkpt lat="43.2512512567063" lon="-0.8549998331758019"><ele>168.16666666666666</ele><time>2026-04-29T10:23:49Z</time></trkpt><trkpt lat="43.25119740992807" lon="-0.8550735131278305"><ele>168.33333333333334</ele><time>2026-04-29T10:23:50Z</time></trkpt><trkpt lat="43.25114576883169" lon="-0.8551598952259287"><ele>168.5</ele><time>2026-04-29T10:23:51Z</time></trkpt><trkpt lat="43.251100998942185" lon="-0.8552529260324787"><ele>168.66666666666669</ele><time>2026-04-29T10:23:52Z</time></trkpt><trkpt lat="43.251059360596734" lon="-0.8553469645677709"><ele>168.83333333333334</ele><time>2026-04-29T10:23:53Z</time></trkpt><trkpt lat="43.25101922345827" lon="-0.8554430328846043"><ele>169.0</ele><time>2026-04-29T10:23:54Z</time></trkpt><trkpt lat="43.25098040217036" lon="-0.8555411777802362"><ele>169.0</ele><time>2026-04-29T10:23:55Z</time></trkpt><trkpt lat="43.25094373273751" lon="-0.8556439863765205"><ele>169.0</ele><time>2026-04-29T10:23:56Z</time></trkpt><trkpt lat="43.25090426121205" lon="-0.8557473092973646"><ele>169.0</ele><time>2026-04-29T10:23:57Z</time></trkpt><trkpt lat="43.25087002065285" lon="-0.855851732040991"><ele>169.0</ele><time>2026-04-29T10:23:58Z</time></trkpt><trkpt lat="43.250827877234244" lon="-0.8559469947163536"><ele>169.0</ele><time>2026-04-29T10:23:59Z</time></trkpt><trkpt lat="43.250787166249786" lon="-0.8560393617140294"><ele>169.0</ele><time>2026-04-29T10:24:00Z</time></trkpt><trkpt lat="43.250741255119166" lon="-0.8561303729393566"><ele>168.85714285714286</ele><time>2026-04-29T10:24:01Z</time></trkpt><trkpt lat="43.250694966215256" lon="-0.8562172594791639"><ele>168.71428571428572</ele><time>2026-04-29T10:24:02Z</time></trkpt><trkpt lat="43.25065314665367" lon="-0.8563033445919267"><ele>168.57142857142856</ele><time>2026-04-29T10:24:03Z</time></trkpt><trkpt lat="43.25060598388985" lon="-0.8563810179294405"><ele>168.42857142857144</ele><time>2026-04-29T10:24:04Z</time></trkpt><trkpt lat="43.250559785840075" lon="-0.856458644929018"><ele>168.28571428571428</ele><time>2026-04-29T10:24:05Z</time></trkpt><trkpt lat="43.25051263100746" lon="-0.8565346511580323"><ele>168.14285714285714</ele><time>2026-04-29T10:24:06Z</time></trkpt><trkpt lat="43.25046564231956" lon="-0.8566083125778318"><ele>168.0</ele><time>2026-04-29T10:24:07Z</time></trkpt><trkpt lat="43.25041920962974" lon="-0.8566800740380507"><ele>168.14285714285714</ele><time>2026-04-29T10:24:08Z</time></trkpt><trkpt lat="43.25037086831009" lon="-0.8567499529048835"><ele>168.28571428571428</ele><time>2026-04-29T10:24:09Z</time></trkpt><trkpt lat="43.25032156044662" lon="-0.856824740820513"><ele>168.42857142857144</ele><time>2026-04-29T10:24:10Z</time></trkpt><trkpt lat="43.25027152695526" lon="-0.8568955592042392"><ele>168.57142857142856</ele><time>2026-04-29T10:24:11Z</time></trkpt><trkpt lat="43.2502208870929" lon="-0.8569674585688111"><ele>168.71428571428572</ele><time>2026-04-29T10:24:12Z</time></trkpt><trkpt lat="43.2501691353059" lon="-0.8570415828719667"><ele>168.85714285714286</ele><time>2026-04-29T10:24:13Z</time></trkpt><trkpt lat="43.2501155635588" lon="-0.857122281853951"><ele>169.0</ele><time>2026-04-29T10:24:14Z</time></trkpt><trkpt lat="43.25006283158147" lon="-0.8572078296384542"><ele>169.0</ele><time>2026-04-29T10:24:15Z</time></trkpt><trkpt lat="43.250007339440394" lon="-0.8572907889937953"><ele>169.0</ele><time>2026-04-29T10:24:16Z</time></trkpt><trkpt lat="43.249949170365596" lon="-0.8573656981747145"><ele>169.0</ele><time>2026-04-29T10:24:17Z</time></trkpt><trkpt lat="43.249892789266475" lon="-0.8574424809237087"><ele>169.0</ele><time>2026-04-29T10:24:18Z</time></trkpt><trkpt lat="43.24983326124462" lon="-0.8575217444689367"><ele>169.0</ele><time>2026-04-29T10:24:19Z</time></trkpt><trkpt lat="43.249770807424426" lon="-0.8575987621132443"><ele>169.0</ele><time>2026-04-29T10:24:20Z</time></trkpt><trkpt lat="43.24971158176634" lon="-0.857669522946662"><ele>168.83333333333334</ele><time>2026-04-29T10:24:21Z</time></trkpt><trkpt lat="43.24964515593507" lon="-0.8577410972496795"><ele>168.66666666666669</ele><time>2026-04-29T10:24:22Z</time></trkpt><trkpt lat="43.24957490629337" lon="-0.8578043395991"><ele>168.5</ele><time>2026-04-29T10:24:23Z</time></trkpt><trkpt lat="43.24950002422709" lon="-0.8578640660523758"><ele>168.33333333333334</ele><time>2026-04-29T10:24:24Z</time></trkpt><trkpt lat="43.24942196699886" lon="-0.8579192517377974"><ele>168.16666666666666</ele><time>2026-04-29T10:24:25Z</time></trkpt><trkpt lat="43.249342187007755" lon="-0.8579717712969627"><ele>168.0</ele><time>2026-04-29T10:24:26Z</time></trkpt><trkpt lat="43.24925690354827" lon="-0.8580175449427708"><ele>168.0</ele><time>2026-04-29T10:24:27Z</time></trkpt><trkpt lat="43.249169836760984" lon="-0.8580656072628976"><ele>168.0</ele><time>2026-04-29T10:24:28Z</time></trkpt><trkpt lat="43.24907902007251" lon="-0.8581107614435108"><ele>168.0</ele><time>2026-04-29T10:24:29Z</time></trkpt><trkpt lat="43.248989785930625" lon="-0.8581543830510613"><ele>168.0</ele><time>2026-04-29T10:24:30Z</time></trkpt><trkpt lat="43.248901126520664" lon="-0.8582075526080442"><ele>168.0</ele><time>2026-04-29T10:24:31Z</time></trkpt><trkpt lat="43.24880873253625" lon="-0.8582567584263696"><ele>167.8</ele><time>2026-04-29T10:24:32Z</time></trkpt><trkpt lat="43.24871688559973" lon="-0.8583013472843024"><ele>167.60000000000002</ele><time>2026-04-29T10:24:33Z</time></trkpt><trkpt lat="43.24862752349363" lon="-0.8583438191558015"><ele>167.39999999999998</ele><time>2026-04-29T10:24:34Z</time></trkpt><trkpt lat="43.24853853566416" lon="-0.8583945785230952"><ele>167.2</ele><time>2026-04-29T10:24:35Z</time></trkpt><trkpt lat="43.24845062507451" lon="-0.8584438243083405"><ele>167.0</ele><time>2026-04-29T10:24:36.001Z</time></trkpt><trkpt lat="43.24836312205894" lon="-0.8584890122982994"><ele>167.0</ele><time>2026-04-29T10:24:37.001Z</time></trkpt><trkpt lat="43.248278462960414" lon="-0.8585329014139393"><ele>167.0</ele><time>2026-04-29T10:24:38Z</time></trkpt><trkpt lat="43.24819337314809" lon="-0.8585787679866183"><ele>167.0</ele><time>2026-04-29T10:24:39Z</time></trkpt><trkpt lat="43.24810791870388" lon="-0.8586231663645943"><ele>167.0</ele><time>2026-04-29T10:24:40Z</time></trkpt><trkpt lat="43.24802089298589" lon="-0.8586663702817828"><ele>167.0</ele><time>2026-04-29T10:24:41Z</time></trkpt><trkpt lat="43.24793944534405" lon="-0.8587083315144202"><ele>166.33333333333331</ele><time>2026-04-29T10:24:42Z</time></trkpt><trkpt lat="43.247860825993016" lon="-0.8587493808307173"><ele>165.66666666666666</ele><time>2026-04-29T10:24:43Z</time></trkpt><trkpt lat="43.247786757399886" lon="-0.8587915463394051"><ele>165.0</ele><time>2026-04-29T10:24:44Z</time></trkpt><trkpt lat="43.24772448383218" lon="-0.8588269398689303"><ele>164.33333333333334</ele><time>2026-04-29T10:24:45Z</time></trkpt><trkpt lat="43.247659484402824" lon="-0.8588646288494362"><ele>163.66666666666669</ele><time>2026-04-29T10:24:47Z</time></trkpt><trkpt lat="43.24772118200079" lon="-0.8588097586141111"><ele>163.0</ele><time>2026-04-29T10:24:51Z</time></trkpt><trkpt lat="43.247829538597394" lon="-0.8587239844555179"><ele>163.0</ele><time>2026-04-29T10:24:53Z</time></trkpt><trkpt lat="43.24789298516888" lon="-0.8586834608531181"><ele>163.0</ele><time>2026-04-29T10:24:54Z</time></trkpt><trkpt lat="43.247968409399334" lon="-0.8586481944138913"><ele>163.0</ele><time>2026-04-29T10:24:55Z</time></trkpt><trkpt lat="43.24803730264063" lon="-0.8586114827337047"><ele>163.0</ele><time>2026-04-29T10:24:56Z</time></trkpt><trkpt lat="43.248106005357926" lon="-0.8585690888988183"><ele>163.0</ele><time>2026-04-29T10:24:57Z</time></trkpt><trkpt lat="43.24817787131152" lon="-0.8585302888956591"><ele>163.0</ele><time>2026-04-29T10:24:58Z</time></trkpt><trkpt lat="43.248244612242814" lon="-0.8584955146721573"><ele>163.0</ele><time>2026-04-29T10:24:59Z</time></trkpt><trkpt lat="43.24830554506836" lon="-0.8584635166761241"><ele>162.4</ele><time>2026-04-29T10:25:00Z</time></trkpt><trkpt lat="43.248410085524654" lon="-0.8584039867479943"><ele>161.8</ele><time>2026-04-29T10:25:02Z</time></trkpt><trkpt lat="43.24850542803482" lon="-0.8583665167997736"><ele>161.2</ele><time>2026-04-29T10:25:04Z</time></trkpt><trkpt lat="43.24860208510163" lon="-0.8583584661209687"><ele>160.6</ele><time>2026-04-29T10:25:06Z</time></trkpt><trkpt lat="43.248522523603405" lon="-0.8583965947462961"><ele>160.0</ele><time>2026-04-29T10:27:35Z</time></trkpt><trkpt lat="43.24842952950684" lon="-0.8584375772676268"><ele>160.5</ele><time>2026-04-29T10:27:37Z</time></trkpt><trkpt lat="43.24834996192872" lon="-0.8584749582717169"><ele>161.0</ele><time>2026-04-29T10:27:38Z</time></trkpt><trkpt lat="43.248271964404736" lon="-0.8585094255289266"><ele>161.5</ele><time>2026-04-29T10:27:39Z</time></trkpt><trkpt lat="43.24820853994813" lon="-0.8585404728128663"><ele>162.0</ele><time>2026-04-29T10:27:40Z</time></trkpt><trkpt lat="43.24814108153333" lon="-0.8585748372456683"><ele>162.5</ele><time>2026-04-29T10:27:41Z</time></trkpt><trkpt lat="43.24807295445933" lon="-0.8586255617840534"><ele>163.0</ele><time>2026-04-29T10:27:42Z</time></trkpt><trkpt lat="43.24799736867936" lon="-0.8586638088254679"><ele>163.0</ele><time>2026-04-29T10:27:43Z</time></trkpt><trkpt lat="43.24792343096054" lon="-0.8587064630349345"><ele>163.0</ele><time>2026-04-29T10:27:44Z</time></trkpt><trkpt lat="43.24784657923389" lon="-0.8587480725933695"><ele>163.0</ele><time>2026-04-29T10:27:45Z</time></trkpt><trkpt lat="43.24776949596075" lon="-0.8587923076773293"><ele>163.0</ele><time>2026-04-29T10:27:46Z</time></trkpt><trkpt lat="43.24769012887081" lon="-0.858837796831619"><ele>163.0</ele><time>2026-04-29T10:27:47Z</time></trkpt><trkpt lat="43.24761188170639" lon="-0.8588842517235474"><ele>163.0</ele><time>2026-04-29T10:27:48Z</time></trkpt><trkpt lat="43.24753191087103" lon="-0.8589286961587216"><ele>163.0</ele><time>2026-04-29T10:27:49Z</time></trkpt><trkpt lat="43.247450596775494" lon="-0.8589709508824525"><ele>163.0</ele><time>2026-04-29T10:27:50Z</time></trkpt><trkpt lat="43.24736901905527" lon="-0.8590160518531164"><ele>163.0</ele><time>2026-04-29T10:27:51Z</time></trkpt><trkpt lat="43.24729299161235" lon="-0.8590493400689907"><ele>163.0</ele><time>2026-04-29T10:27:52Z</time></trkpt><trkpt lat="43.24720889160916" lon="-0.859084980200929"><ele>163.0</ele><time>2026-04-29T10:27:53Z</time></trkpt><trkpt lat="43.247123871718586" lon="-0.8591276719279864"><ele>163.0</ele><time>2026-04-29T10:27:54Z</time></trkpt><trkpt lat="43.24702238338168" lon="-0.8587511325896261"><ele>162.0</ele><time>2026-04-29T10:27:55Z</time></trkpt><trkpt lat="43.24693332940265" lon="-0.8592351010159919"><ele>161.0</ele><time>2026-04-29T10:27:56Z</time></trkpt><trkpt lat="43.24684530751188" lon="-0.8592783086941238"><ele>161.60000000000002</ele><time>2026-04-29T10:27:57Z</time></trkpt><trkpt lat="43.246755717569656" lon="-0.8593238708565933"><ele>162.2</ele><time>2026-04-29T10:27:58Z</time></trkpt><trkpt lat="43.24666194948355" lon="-0.8593702826043819"><ele>162.8</ele><time>2026-04-29T10:27:59Z</time></trkpt><trkpt lat="43.24656557926041" lon="-0.8594224769930477"><ele>163.39999999999998</ele><time>2026-04-29T10:28:00Z</time></trkpt><trkpt lat="43.2464792772227" lon="-0.8594666952046276"><ele>164.0</ele><time>2026-04-29T10:28:01Z</time></trkpt><trkpt lat="43.24639262460341" lon="-0.859516101041363"><ele>164.0</ele><time>2026-04-29T10:28:02Z</time></trkpt><trkpt lat="43.246308888274136" lon="-0.8595760270556024"><ele>164.0</ele><time>2026-04-29T10:28:03Z</time></trkpt><trkpt lat="43.2462289794214" lon="-0.8596419220355288"><ele>164.0</ele><time>2026-04-29T10:28:04Z</time></trkpt><trkpt lat="43.246153930989344" lon="-0.8597122579344169"><ele>164.0</ele><time>2026-04-29T10:28:05Z</time></trkpt><trkpt lat="43.246082709086245" lon="-0.8597815679761268"><ele>164.0</ele><time>2026-04-29T10:28:06Z</time></trkpt><trkpt lat="43.246017082323796" lon="-0.8598522655674558"><ele>164.0</ele><time>2026-04-29T10:28:07Z</time></trkpt><trkpt lat="43.245954287696684" lon="-0.8599220675103194"><ele>164.0</ele><time>2026-04-29T10:28:08Z</time></trkpt><trkpt lat="43.24589860634613" lon="-0.8599974744261377"><ele>164.0</ele><time>2026-04-29T10:28:09Z</time></trkpt><trkpt lat="43.24584244120079" lon="-0.8600816601031948"><ele>164.0</ele><time>2026-04-29T10:28:10Z</time></trkpt><trkpt lat="43.24579034683104" lon="-0.8601652901625879"><ele>164.0</ele><time>2026-04-29T10:28:11Z</time></trkpt><trkpt lat="43.24572880648106" lon="-0.8602504490056733"><ele>164.0</ele><time>2026-04-29T10:28:12Z</time></trkpt><trkpt lat="43.245670148205576" lon="-0.8603382462259885"><ele>164.0</ele><time>2026-04-29T10:28:13Z</time></trkpt><trkpt lat="43.24561646499767" lon="-0.860423937882633"><ele>162.6</ele><time>2026-04-29T10:28:14Z</time></trkpt><trkpt lat="43.24555889284889" lon="-0.8605157206992715"><ele>161.2</ele><time>2026-04-29T10:28:15Z</time></trkpt><trkpt lat="43.24549757390596" lon="-0.8606181661559084"><ele>159.79999999999998</ele><time>2026-04-29T10:28:16Z</time></trkpt><trkpt lat="43.24544287095763" lon="-0.8607138497332165"><ele>158.39999999999998</ele><time>2026-04-29T10:28:17Z</time></trkpt><trkpt lat="43.24539032256478" lon="-0.8608155055727489"><ele>157.0</ele><time>2026-04-29T10:28:18Z</time></trkpt><trkpt lat="43.245337570391904" lon="-0.8609217527381366"><ele>157.4</ele><time>2026-04-29T10:28:19Z</time></trkpt><trkpt lat="43.24529354431452" lon="-0.8610376966424057"><ele>157.79999999999998</ele><time>2026-04-29T10:28:20Z</time></trkpt><trkpt lat="43.24524667065257" lon="-0.8611551746486407"><ele>158.2</ele><time>2026-04-29T10:28:21Z</time></trkpt><trkpt lat="43.24520979409436" lon="-0.8612778254592486"><ele>158.6</ele><time>2026-04-29T10:28:22Z</time></trkpt><trkpt lat="43.24517396721895" lon="-0.8614041395194946"><ele>159.0</ele><time>2026-04-29T10:28:23Z</time></trkpt><trkpt lat="43.24513994308933" lon="-0.8615322047757675"><ele>159.0</ele><time>2026-04-29T10:28:24Z</time></trkpt><trkpt lat="43.24509594216056" lon="-0.8616598255262418"><ele>159.0</ele><time>2026-04-29T10:28:25Z</time></trkpt><trkpt lat="43.24506060708948" lon="-0.8617965168641589"><ele>159.0</ele><time>2026-04-29T10:28:26Z</time></trkpt><trkpt lat="43.245021609151834" lon="-0.8619344036015839"><ele>159.0</ele><time>2026-04-29T10:28:27Z</time></trkpt><trkpt lat="43.24498728573835" lon="-0.8620713184809315"><ele>159.0</ele><time>2026-04-29T10:28:28Z</time></trkpt><trkpt lat="43.24494388939669" lon="-0.8622072289741881"><ele>159.2</ele><time>2026-04-29T10:28:29Z</time></trkpt><trkpt lat="43.24489259571808" lon="-0.8623382810013491"><ele>159.4</ele><time>2026-04-29T10:28:30Z</time></trkpt><trkpt lat="43.24483950949231" lon="-0.862465348048338"><ele>159.6</ele><time>2026-04-29T10:28:31Z</time></trkpt><trkpt lat="43.24478174756085" lon="-0.8625819388748365"><ele>159.8</ele><time>2026-04-29T10:28:32Z</time></trkpt><trkpt lat="43.244717817684794" lon="-0.8626930749989764"><ele>160.0</ele><time>2026-04-29T10:28:33Z</time></trkpt><trkpt lat="43.24466098667608" lon="-0.8628029733071655"><ele>157.8</ele><time>2026-04-29T10:28:34Z</time></trkpt><trkpt lat="43.24459425502856" lon="-0.8629009835132205"><ele>155.6</ele><time>2026-04-29T10:28:35Z</time></trkpt><trkpt lat="43.244527936779505" lon="-0.8629979797563051"><ele>153.4</ele><time>2026-04-29T10:28:36Z</time></trkpt><trkpt lat="43.24446602613739" lon="-0.8630970084794798"><ele>151.2</ele><time>2026-04-29T10:28:37Z</time></trkpt><trkpt lat="43.24440000336114" lon="-0.8631987294240916"><ele>149.0</ele><time>2026-04-29T10:28:38.001Z</time></trkpt><trkpt lat="43.244357637982375" lon="-0.8633255169970475"><ele>148.0</ele><time>2026-04-29T10:28:39.001Z</time></trkpt><trkpt lat="43.24432980174669" lon="-0.8634601235209117"><ele>147.0</ele><time>2026-04-29T10:28:40.001Z</time></trkpt><trkpt lat="43.2443122022921" lon="-0.863607803184082"><ele>146.0</ele><time>2026-04-29T10:28:41.001Z</time></trkpt><trkpt lat="43.24430655973629" lon="-0.8637581277680502"><ele>145.0</ele><time>2026-04-29T10:28:42.001Z</time></trkpt><trkpt lat="43.24431456956105" lon="-0.8639013515519239"><ele>144.0</ele><time>2026-04-29T10:28:43.001Z</time></trkpt><trkpt lat="43.2443219532728" lon="-0.8640451899965188"><ele>144.0</ele><time>2026-04-29T10:28:44.001Z</time></trkpt><trkpt lat="43.244323859179794" lon="-0.8641867722431258"><ele>144.0</ele><time>2026-04-29T10:28:45.001Z</time></trkpt><trkpt lat="43.24432428513048" lon="-0.8643255876315342"><ele>144.0</ele><time>2026-04-29T10:28:46.001Z</time></trkpt><trkpt lat="43.24433060883734" lon="-0.8644576296611336"><ele>144.0</ele><time>2026-04-29T10:28:47.001Z</time></trkpt><trkpt lat="43.244336628312006" lon="-0.8645919456807131"><ele>144.0</ele><time>2026-04-29T10:28:48.001Z</time></trkpt><trkpt lat="43.24434674950003" lon="-0.864722646505478"><ele>144.0</ele><time>2026-04-29T10:28:49.001Z</time></trkpt><trkpt lat="43.244356976735645" lon="-0.8648533796269974"><ele>144.0</ele><time>2026-04-29T10:28:49.999Z</time></trkpt><trkpt lat="43.244362619028394" lon="-0.864984612941126"><ele>144.0</ele><time>2026-04-29T10:28:50.999Z</time></trkpt><trkpt lat="43.244365378862874" lon="-0.8651165689842661"><ele>144.0</ele><time>2026-04-29T10:28:51.999Z</time></trkpt><trkpt lat="43.244364782280215" lon="-0.8652471277357208"><ele>144.0</ele><time>2026-04-29T10:28:52.999Z</time></trkpt><trkpt lat="43.24435892813458" lon="-0.8653728117845244"><ele>145.0</ele><time>2026-04-29T10:28:53.999Z</time></trkpt><trkpt lat="43.24434314887292" lon="-0.8654961791466044"><ele>146.0</ele><time>2026-04-29T10:28:54.999Z</time></trkpt><trkpt lat="43.24433545528067" lon="-0.8656244515678131"><ele>147.0</ele><time>2026-04-29T10:28:55.999Z</time></trkpt><trkpt lat="43.244296903204365" lon="-0.8657484975604499"><ele>148.0</ele><time>2026-04-29T10:28:56.999Z</time></trkpt><trkpt lat="43.24423646010316" lon="-0.8658542473538107"><ele>149.0</ele><time>2026-04-29T10:28:57.999Z</time></trkpt><trkpt lat="43.24418872333787" lon="-0.8659638359333751"><ele>148.0</ele><time>2026-04-29T10:28:58.999Z</time></trkpt><trkpt lat="43.24413085183627" lon="-0.8660636354587335"><ele>147.0</ele><time>2026-04-29T10:28:59.999Z</time></trkpt><trkpt lat="43.24407019888099" lon="-0.8661539357710749"><ele>146.0</ele><time>2026-04-29T10:29:00.999Z</time></trkpt><trkpt lat="43.244004700681515" lon="-0.8662265311851022"><ele>145.0</ele><time>2026-04-29T10:29:01.999Z</time></trkpt><trkpt lat="43.24393893512209" lon="-0.8662998455054816"><ele>144.0</ele><time>2026-04-29T10:29:02.999Z</time></trkpt><trkpt lat="43.24387648539753" lon="-0.8663764997836965"><ele>143.0</ele><time>2026-04-29T10:29:03.999Z</time></trkpt><trkpt lat="43.24381200579318" lon="-0.8664492831972773"><ele>143.0</ele><time>2026-04-29T10:29:04.999Z</time></trkpt><trkpt lat="43.24374693602441" lon="-0.8665255588796755"><ele>143.0</ele><time>2026-04-29T10:29:05.999Z</time></trkpt><trkpt lat="43.24368217960191" lon="-0.8666068060841796"><ele>143.0</ele><time>2026-04-29T10:29:06.999Z</time></trkpt><trkpt lat="43.24362679836141" lon="-0.8666775212253166"><ele>143.0</ele><time>2026-04-29T10:29:07.999Z</time></trkpt><trkpt lat="43.243578737398494" lon="-0.8667739961717494"><ele>143.0</ele><time>2026-04-29T10:29:09Z</time></trkpt><trkpt lat="43.24353062045568" lon="-0.8668547701323727"><ele>143.0</ele><time>2026-04-29T10:29:10Z</time></trkpt><trkpt lat="43.24348260513732" lon="-0.8669391473050769"><ele>142.83333333333331</ele><time>2026-04-29T10:29:11Z</time></trkpt><trkpt lat="43.243440489489046" lon="-0.8670300850324782"><ele>142.66666666666666</ele><time>2026-04-29T10:29:12Z</time></trkpt><trkpt lat="43.24339706472477" lon="-0.8671153941547863"><ele>142.5</ele><time>2026-04-29T10:29:13Z</time></trkpt><trkpt lat="43.243359241924644" lon="-0.8672014832671993"><ele>142.33333333333334</ele><time>2026-04-29T10:29:14Z</time></trkpt><trkpt lat="43.243319757171484" lon="-0.8672970190261954"><ele>142.16666666666669</ele><time>2026-04-29T10:29:15Z</time></trkpt><trkpt lat="43.24328661876379" lon="-0.8673981539067781"><ele>142.0</ele><time>2026-04-29T10:29:16Z</time></trkpt><trkpt lat="43.24325408524456" lon="-0.8675049020359145"><ele>141.6</ele><time>2026-04-29T10:29:17Z</time></trkpt><trkpt lat="43.243218922058325" lon="-0.8676162401104214"><ele>141.2</ele><time>2026-04-29T10:29:18Z</time></trkpt><trkpt lat="43.24318271038757" lon="-0.867729542891998"><ele>140.8</ele><time>2026-04-29T10:29:19Z</time></trkpt><trkpt lat="43.243144893059885" lon="-0.8678521664929812"><ele>140.4</ele><time>2026-04-29T10:29:20Z</time></trkpt><trkpt lat="43.243107862050856" lon="-0.8679721399681773"><ele>140.0</ele><time>2026-04-29T10:29:21Z</time></trkpt><trkpt lat="43.243072194164355" lon="-0.8680950062809799"><ele>141.0</ele><time>2026-04-29T10:29:22Z</time></trkpt><trkpt lat="43.24303617910071" lon="-0.8682264795817903"><ele>142.0</ele><time>2026-04-29T10:29:23Z</time></trkpt><trkpt lat="43.24300144563205" lon="-0.868355964953643"><ele>143.0</ele><time>2026-04-29T10:29:24Z</time></trkpt><trkpt lat="43.242964109864374" lon="-0.8684861545454025"><ele>144.0</ele><time>2026-04-29T10:29:25Z</time></trkpt><trkpt lat="43.24293091101666" lon="-0.8686144273894193"><ele>145.0</ele><time>2026-04-29T10:29:26Z</time></trkpt><trkpt lat="43.24289250196117" lon="-0.8687493263102938"><ele>145.0</ele><time>2026-04-29T10:29:27Z</time></trkpt><trkpt lat="43.24285880299744" lon="-0.8688778510925125"><ele>145.0</ele><time>2026-04-29T10:29:28Z</time></trkpt><trkpt lat="43.24282375344975" lon="-0.8690013309653281"><ele>145.0</ele><time>2026-04-29T10:29:29Z</time></trkpt><trkpt lat="43.242788385588604" lon="-0.869132121738496"><ele>145.0</ele><time>2026-04-29T10:29:30Z</time></trkpt><trkpt lat="43.242757470061655" lon="-0.8692536476272449"><ele>145.0</ele><time>2026-04-29T10:29:31Z</time></trkpt><trkpt lat="43.242719987749034" lon="-0.8693683331262364"><ele>143.0</ele><time>2026-04-29T10:29:32Z</time></trkpt><trkpt lat="43.24267992692724" lon="-0.869486460767525"><ele>141.0</ele><time>2026-04-29T10:29:33Z</time></trkpt><trkpt lat="43.242634500972656" lon="-0.8695903300410878"><ele>139.0</ele><time>2026-04-29T10:29:34Z</time></trkpt><trkpt lat="43.242583781127635" lon="-0.8696901373653698"><ele>137.0</ele><time>2026-04-29T10:29:35Z</time></trkpt><trkpt lat="43.24250580677525" lon="-0.8697790968611121"><ele>135.0</ele><time>2026-04-29T10:29:36Z</time></trkpt><trkpt lat="43.242455913109175" lon="-0.8698679709846234"><ele>135.0</ele><time>2026-04-29T10:29:37Z</time></trkpt><trkpt lat="43.242383237823816" lon="-0.8699460296954884"><ele>135.0</ele><time>2026-04-29T10:29:38Z</time></trkpt><trkpt lat="43.24230404647415" lon="-0.8700073251653584"><ele>135.0</ele><time>2026-04-29T10:29:39Z</time></trkpt><trkpt lat="43.242225443059375" lon="-0.8700621410372631"><ele>135.0</ele><time>2026-04-29T10:29:40Z</time></trkpt><trkpt lat="43.242147088115594" lon="-0.8701040298521463"><ele>135.0</ele><time>2026-04-29T10:29:41Z</time></trkpt><trkpt lat="43.24206944591745" lon="-0.8701302826028083"><ele>135.0</ele><time>2026-04-29T10:29:42Z</time></trkpt><trkpt lat="43.24199491978746" lon="-0.8701449491438421"><ele>134.28571428571428</ele><time>2026-04-29T10:29:43Z</time></trkpt><trkpt lat="43.24192309696652" lon="-0.870143076470117"><ele>133.57142857142856</ele><time>2026-04-29T10:29:44Z</time></trkpt><trkpt lat="43.24185219571879" lon="-0.8701377515740408"><ele>132.85714285714286</ele><time>2026-04-29T10:29:45Z</time></trkpt><trkpt lat="43.241781988785576" lon="-0.8701273235331486"><ele>132.14285714285714</ele><time>2026-04-29T10:29:46Z</time></trkpt><trkpt lat="43.24171137553235" lon="-0.8701144072027344"><ele>131.42857142857144</ele><time>2026-04-29T10:29:47Z</time></trkpt><trkpt lat="43.241640923662736" lon="-0.8701236532164045"><ele>130.71428571428572</ele><time>2026-04-29T10:29:48Z</time></trkpt><trkpt lat="43.24157930602059" lon="-0.8701632511716458"><ele>130.0</ele><time>2026-04-29T10:29:49Z</time></trkpt><trkpt lat="43.241513474037184" lon="-0.8701953981440532"><ele>130.0</ele><time>2026-04-29T10:29:50Z</time></trkpt><trkpt lat="43.24146526710941" lon="-0.8702791440036934"><ele>130.0</ele><time>2026-04-29T10:29:51Z</time></trkpt><trkpt lat="43.24147579563336" lon="-0.8704189594031894"><ele>130.0</ele><time>2026-04-29T10:29:52Z</time></trkpt><trkpt lat="43.24146469890312" lon="-0.8705281502365096"><ele>130.0</ele><time>2026-04-29T10:29:53Z</time></trkpt><trkpt lat="43.241458281798096" lon="-0.8706389122064676"><ele>130.0</ele><time>2026-04-29T10:29:54Z</time></trkpt><trkpt lat="43.24144456006946" lon="-0.8707539878549572"><ele>130.0</ele><time>2026-04-29T10:29:55Z</time></trkpt><trkpt lat="43.24143599146724" lon="-0.8708719750258775"><ele>129.6</ele><time>2026-04-29T10:29:56Z</time></trkpt><trkpt lat="43.24142846575477" lon="-0.8709911635287311"><ele>129.2</ele><time>2026-04-29T10:29:57Z</time></trkpt><trkpt lat="43.24142774282699" lon="-0.8711118269820248"><ele>128.8</ele><time>2026-04-29T10:29:58Z</time></trkpt><trkpt lat="43.241434597066196" lon="-0.8712470651050445"><ele>128.4</ele><time>2026-04-29T10:29:59Z</time></trkpt><trkpt lat="43.24145045236062" lon="-0.8713824220927293"><ele>128.0</ele><time>2026-04-29T10:30:00Z</time></trkpt><trkpt lat="43.24146929421665" lon="-0.8715198532964539"><ele>127.60000000000001</ele><time>2026-04-29T10:30:01Z</time></trkpt><trkpt lat="43.241493403165045" lon="-0.8716548312345112"><ele>127.20000000000002</ele><time>2026-04-29T10:30:02Z</time></trkpt><trkpt lat="43.24151618075076" lon="-0.8717927063759353"><ele>126.8</ele><time>2026-04-29T10:30:03Z</time></trkpt><trkpt lat="43.24154223963481" lon="-0.8719334366986864"><ele>126.4</ele><time>2026-04-29T10:30:04Z</time></trkpt><trkpt lat="43.24157198871515" lon="-0.8720717046538087"><ele>126.0</ele><time>2026-04-29T10:30:05Z</time></trkpt><trkpt lat="43.241602515910586" lon="-0.8722136014445946"><ele>125.8</ele><time>2026-04-29T10:30:06Z</time></trkpt><trkpt lat="43.241635792525564" lon="-0.8723468699482616"><ele>125.6</ele><time>2026-04-29T10:30:07Z</time></trkpt><trkpt lat="43.241673128565836" lon="-0.8724818841759309"><ele>125.4</ele><time>2026-04-29T10:30:08Z</time></trkpt><trkpt lat="43.241713731245696" lon="-0.8726105796080479"><ele>125.2</ele><time>2026-04-29T10:30:09Z</time></trkpt><trkpt lat="43.24175805243786" lon="-0.8727359128889992"><ele>125.0</ele><time>2026-04-29T10:30:10Z</time></trkpt><trkpt lat="43.24179713646478" lon="-0.8728644495476603"><ele>125.0</ele><time>2026-04-29T10:30:11Z</time></trkpt><trkpt lat="43.241835863326386" lon="-0.8729914243767927"><ele>125.0</ele><time>2026-04-29T10:30:12Z</time></trkpt><trkpt lat="43.24187161396598" lon="-0.8731134530147315"><ele>125.0</ele><time>2026-04-29T10:30:13Z</time></trkpt><trkpt lat="43.24190307664931" lon="-0.8732397325166256"><ele>125.0</ele><time>2026-04-29T10:30:14Z</time></trkpt><trkpt lat="43.24193675503303" lon="-0.8733645450352484"><ele>125.0</ele><time>2026-04-29T10:30:15Z</time></trkpt><trkpt lat="43.24196589423801" lon="-0.8734959618808797"><ele>125.0</ele><time>2026-04-29T10:30:16Z</time></trkpt><trkpt lat="43.24198962308788" lon="-0.8736252914476242"><ele>125.0</ele><time>2026-04-29T10:30:17Z</time></trkpt><trkpt lat="43.24201097547722" lon="-0.8737632810866278"><ele>125.0</ele><time>2026-04-29T10:30:18Z</time></trkpt><trkpt lat="43.24202899621876" lon="-0.8738981008467536"><ele>125.0</ele><time>2026-04-29T10:30:19Z</time></trkpt><trkpt lat="43.24204352584802" lon="-0.8740339642114046"><ele>125.0</ele><time>2026-04-29T10:30:20Z</time></trkpt><trkpt lat="43.24204977381678" lon="-0.8741728286004239"><ele>125.4</ele><time>2026-04-29T10:30:21Z</time></trkpt><trkpt lat="43.242050235217285" lon="-0.8743122218649896"><ele>125.8</ele><time>2026-04-29T10:30:22Z</time></trkpt><trkpt lat="43.2420437228112" lon="-0.8744517806112082"><ele>126.19999999999999</ele><time>2026-04-29T10:30:23Z</time></trkpt><trkpt lat="43.242032702830436" lon="-0.8745907511084638"><ele>126.6</ele><time>2026-04-29T10:30:24Z</time></trkpt><trkpt lat="43.24202209481038" lon="-0.874731074737646"><ele>127.0</ele><time>2026-04-29T10:30:25Z</time></trkpt><trkpt lat="43.24201294398437" lon="-0.8748709491875253"><ele>127.0</ele><time>2026-04-29T10:30:26Z</time></trkpt><trkpt lat="43.24200261056808" lon="-0.8750116861255071"><ele>126.99999999999999</ele><time>2026-04-29T10:30:27Z</time></trkpt><trkpt lat="43.24198905584135" lon="-0.875149242949223"><ele>126.99999999999999</ele><time>2026-04-29T10:30:28Z</time></trkpt><trkpt lat="43.24198161765539" lon="-0.8752871088590966"><ele>127.0</ele><time>2026-04-29T10:30:29Z</time></trkpt><trkpt lat="43.241973818970436" lon="-0.8754222586067713"><ele>127.0</ele><time>2026-04-29T10:30:30Z</time></trkpt><trkpt lat="43.24196272358898" lon="-0.8755586718215028"><ele>127.19999999999999</ele><time>2026-04-29T10:30:31.001Z</time></trkpt><trkpt lat="43.24195521063269" lon="-0.8756940176792279"><ele>127.39999999999999</ele><time>2026-04-29T10:30:32.001Z</time></trkpt><trkpt lat="43.24193876024964" lon="-0.8758345254323587"><ele>127.60000000000001</ele><time>2026-04-29T10:30:33.001Z</time></trkpt><trkpt lat="43.24191735465274" lon="-0.8759706834399019"><ele>127.80000000000001</ele><time>2026-04-29T10:30:34.001Z</time></trkpt><trkpt lat="43.241895648626" lon="-0.876106384429857"><ele>128.0</ele><time>2026-04-29T10:30:35.001Z</time></trkpt><trkpt lat="43.24186829280061" lon="-0.8762384647957949"><ele>127.80000000000001</ele><time>2026-04-29T10:30:36.001Z</time></trkpt><trkpt lat="43.241834610464565" lon="-0.8763691872001421"><ele>127.60000000000001</ele><time>2026-04-29T10:30:37.001Z</time></trkpt><trkpt lat="43.24179624559737" lon="-0.8764965987787595"><ele>127.39999999999999</ele><time>2026-04-29T10:30:38.001Z</time></trkpt><trkpt lat="43.24175138939402" lon="-0.8766222341976372"><ele>127.19999999999999</ele><time>2026-04-29T10:30:39.001Z</time></trkpt><trkpt lat="43.24170617969971" lon="-0.8767439281050541"><ele>127.0</ele><time>2026-04-29T10:30:40.001Z</time></trkpt><trkpt lat="43.2416605879721" lon="-0.876862665329924"><ele>127.0</ele><time>2026-04-29T10:30:41.001Z</time></trkpt><trkpt lat="43.24161133325533" lon="-0.876982998604005"><ele>126.99999999999999</ele><time>2026-04-29T10:30:42.001Z</time></trkpt><trkpt lat="43.24156346937252" lon="-0.8771000741228254"><ele>126.99999999999999</ele><time>2026-04-29T10:30:43.001Z</time></trkpt><trkpt lat="43.241516265259754" lon="-0.8772240787734797"><ele>127.0</ele><time>2026-04-29T10:30:44.001Z</time></trkpt><trkpt lat="43.241473949785615" lon="-0.8773434210059541"><ele>127.0</ele><time>2026-04-29T10:30:45.001Z</time></trkpt><trkpt lat="43.24143457339227" lon="-0.8774655761558228"><ele>127.39999999999999</ele><time>2026-04-29T10:30:46.001Z</time></trkpt><trkpt lat="43.24139847274448" lon="-0.8775845357063321"><ele>127.79999999999998</ele><time>2026-04-29T10:30:47.001Z</time></trkpt><trkpt lat="43.241361224043764" lon="-0.8777006595544458"><ele>128.2</ele><time>2026-04-29T10:30:48.001Z</time></trkpt><trkpt lat="43.2413229040045" lon="-0.8778162370300232"><ele>128.6</ele><time>2026-04-29T10:30:49.001Z</time></trkpt><trkpt lat="43.24128745444022" lon="-0.8779331184520348"><ele>129.0</ele><time>2026-04-29T10:30:50.001Z</time></trkpt><trkpt lat="43.241258508923956" lon="-0.8780453046537883"><ele>129.16666666666666</ele><time>2026-04-29T10:30:51.001Z</time></trkpt><trkpt lat="43.24123126873736" lon="-0.8781537194466452"><ele>129.33333333333334</ele><time>2026-04-29T10:30:52.001Z</time></trkpt><trkpt lat="43.24120528186621" lon="-0.8782565619013938"><ele>129.5</ele><time>2026-04-29T10:30:53.001Z</time></trkpt><trkpt lat="43.241189394532086" lon="-0.8783588957811541"><ele>129.66666666666669</ele><time>2026-04-29T10:30:54.001Z</time></trkpt><trkpt lat="43.241193392223444" lon="-0.8784565397512657"><ele>129.83333333333334</ele><time>2026-04-29T10:30:55.001Z</time></trkpt><trkpt lat="43.241240418424496" lon="-0.878610751675125"><ele>130.0</ele><time>2026-04-29T10:30:57Z</time></trkpt><trkpt lat="43.24131167556615" lon="-0.8787478395747347"><ele>130.0</ele><time>2026-04-29T10:30:59Z</time></trkpt><trkpt lat="43.241321812652544" lon="-0.8788914007931026"><ele>130.0</ele><time>2026-04-29T10:31:01Z</time></trkpt><trkpt lat="43.24124644033682" lon="-0.8789912211438047"><ele>130.0</ele><time>2026-04-29T10:31:03Z</time></trkpt><trkpt lat="43.24113776185155" lon="-0.878967071339151"><ele>130.0</ele><time>2026-04-29T10:31:05Z</time></trkpt><trkpt lat="43.24102529310553" lon="-0.8789168435022462"><ele>130.0</ele><time>2026-04-29T10:31:07Z</time></trkpt><trkpt lat="43.240961927872036" lon="-0.878909682934648"><ele>130.00000000000003</ele><time>2026-04-29T10:31:08Z</time></trkpt><trkpt lat="43.240894214309954" lon="-0.8788983241099299"><ele>130.0</ele><time>2026-04-29T10:31:09Z</time></trkpt><trkpt lat="43.2408249846076" lon="-0.8788888140301013"><ele>130.0</ele><time>2026-04-29T10:31:10Z</time></trkpt><trkpt lat="43.24075125450079" lon="-0.8788847384492027"><ele>130.0</ele><time>2026-04-29T10:31:11Z</time></trkpt><trkpt lat="43.240675289329914" lon="-0.8788838740824165"><ele>130.0</ele><time>2026-04-29T10:31:12Z</time></trkpt><trkpt lat="43.24059964559084" lon="-0.8788839749046902"><ele>130.00000000000003</ele><time>2026-04-29T10:31:13Z</time></trkpt><trkpt lat="43.240522724159135" lon="-0.8788872058671926"><ele>130.0</ele><time>2026-04-29T10:31:14Z</time></trkpt><trkpt lat="43.24044167833259" lon="-0.8788858660157197"><ele>129.83333333333334</ele><time>2026-04-29T10:31:15Z</time></trkpt><trkpt lat="43.24035980910974" lon="-0.8788862468361944"><ele>129.66666666666669</ele><time>2026-04-29T10:31:16Z</time></trkpt><trkpt lat="43.24027550067884" lon="-0.8788869045129366"><ele>129.5</ele><time>2026-04-29T10:31:17Z</time></trkpt><trkpt lat="43.240190351150595" lon="-0.8788910029787986"><ele>129.33333333333334</ele><time>2026-04-29T10:31:18Z</time></trkpt><trkpt lat="43.24010462815467" lon="-0.8788885699438634"><ele>129.16666666666666</ele><time>2026-04-29T10:31:19Z</time></trkpt><trkpt lat="43.2400158891808" lon="-0.8788895198828811"><ele>129.0</ele><time>2026-04-29T10:31:20Z</time></trkpt><trkpt lat="43.23992705053889" lon="-0.8788904193665116"><ele>129.0</ele><time>2026-04-29T10:31:21Z</time></trkpt><trkpt lat="43.23983650043764" lon="-0.8788942496497909"><ele>129.0</ele><time>2026-04-29T10:31:22Z</time></trkpt><trkpt lat="43.23974829625552" lon="-0.8788963648254611"><ele>129.0</ele><time>2026-04-29T10:31:23Z</time></trkpt><trkpt lat="43.23965889787893" lon="-0.8789013156775171"><ele>129.0</ele><time>2026-04-29T10:31:24Z</time></trkpt><trkpt lat="43.239568775795746" lon="-0.8789102788981338"><ele>129.0</ele><time>2026-04-29T10:31:25Z</time></trkpt><trkpt lat="43.23947677541053" lon="-0.8789199921481254"><ele>129.6</ele><time>2026-04-29T10:31:26Z</time></trkpt><trkpt lat="43.23938689709817" lon="-0.8789279359641501"><ele>130.2</ele><time>2026-04-29T10:31:27Z</time></trkpt><trkpt lat="43.23929459978772" lon="-0.878935952264394"><ele>130.79999999999998</ele><time>2026-04-29T10:31:28Z</time></trkpt><trkpt lat="43.239204500358866" lon="-0.8789450610861942"><ele>131.4</ele><time>2026-04-29T10:31:29Z</time></trkpt><trkpt lat="43.239114470853984" lon="-0.878947072064226"><ele>132.0</ele><time>2026-04-29T10:31:30Z</time></trkpt><trkpt lat="43.23902349134645" lon="-0.8789486894537551"><ele>132.0</ele><time>2026-04-29T10:31:31Z</time></trkpt><trkpt lat="43.238933784001674" lon="-0.8789484369255379"><ele>132.0</ele><time>2026-04-29T10:31:32Z</time></trkpt><trkpt lat="43.23884365095845" lon="-0.8789462387375561"><ele>132.0</ele><time>2026-04-29T10:31:33Z</time></trkpt><trkpt lat="43.23875274003442" lon="-0.8789424993522469"><ele>132.0</ele><time>2026-04-29T10:31:34Z</time></trkpt><trkpt lat="43.23865946726094" lon="-0.878929026228703"><ele>132.0</ele><time>2026-04-29T10:31:35Z</time></trkpt><trkpt lat="43.23856590689134" lon="-0.8789099576701856"><ele>132.0</ele><time>2026-04-29T10:31:36Z</time></trkpt><trkpt lat="43.23847397211741" lon="-0.8788907434751182"><ele>132.0</ele><time>2026-04-29T10:31:37Z</time></trkpt><trkpt lat="43.23838286395994" lon="-0.8788691761138272"><ele>132.0</ele><time>2026-04-29T10:31:38Z</time></trkpt><trkpt lat="43.23829078239653" lon="-0.8788423552849142"><ele>132.0</ele><time>2026-04-29T10:31:39Z</time></trkpt><trkpt lat="43.238198197809275" lon="-0.8788099133701107"><ele>132.0</ele><time>2026-04-29T10:31:40Z</time></trkpt><trkpt lat="43.23810903637299" lon="-0.8787702160715478"><ele>132.0</ele><time>2026-04-29T10:31:41Z</time></trkpt><trkpt lat="43.23801644191252" lon="-0.8787289423254983"><ele>132.0</ele><time>2026-04-29T10:31:42Z</time></trkpt><trkpt lat="43.23792466334293" lon="-0.8786864653361912"><ele>132.0</ele><time>2026-04-29T10:31:43Z</time></trkpt><trkpt lat="43.23783420169603" lon="-0.8786437926027317"><ele>132.0</ele><time>2026-04-29T10:31:44Z</time></trkpt><trkpt lat="43.23773960354386" lon="-0.8786063776642669"><ele>132.0</ele><time>2026-04-29T10:31:45Z</time></trkpt><trkpt lat="43.23764378696622" lon="-0.8785702675453233"><ele>132.0</ele><time>2026-04-29T10:31:46Z</time></trkpt><trkpt lat="43.237547548601384" lon="-0.8785330048209337"><ele>132.0</ele><time>2026-04-29T10:31:47Z</time></trkpt><trkpt lat="43.237450177359705" lon="-0.8784951193084407"><ele>132.0</ele><time>2026-04-29T10:31:48Z</time></trkpt><trkpt lat="43.23735403511942" lon="-0.8784579171075599"><ele>132.0</ele><time>2026-04-29T10:31:49Z</time></trkpt><trkpt lat="43.23725879782994" lon="-0.8784135474332954"><ele>132.0</ele><time>2026-04-29T10:31:50Z</time></trkpt><trkpt lat="43.23716358243537" lon="-0.8783704327420213"><ele>131.4</ele><time>2026-04-29T10:31:51Z</time></trkpt><trkpt lat="43.23706892508519" lon="-0.8783247497362594"><ele>130.79999999999998</ele><time>2026-04-29T10:31:52Z</time></trkpt><trkpt lat="43.23697588336397" lon="-0.8782858278760116"><ele>130.2</ele><time>2026-04-29T10:31:53Z</time></trkpt><trkpt lat="43.23688029430096" lon="-0.8782452720669859"><ele>129.6</ele><time>2026-04-29T10:31:54Z</time></trkpt><trkpt lat="43.23678268933031" lon="-0.8782083715343934"><ele>129.0</ele><time>2026-04-29T10:31:55Z</time></trkpt><trkpt lat="43.23668677935619" lon="-0.87816988864459"><ele>129.0</ele><time>2026-04-29T10:31:56Z</time></trkpt><trkpt lat="43.23659118480945" lon="-0.8781330362964919"><ele>129.0</ele><time>2026-04-29T10:31:57Z</time></trkpt><trkpt lat="43.236494334814914" lon="-0.8780970658331075"><ele>129.0</ele><time>2026-04-29T10:31:58Z</time></trkpt><trkpt lat="43.23639847693796" lon="-0.8780639412100639"><ele>129.0</ele><time>2026-04-29T10:31:59Z</time></trkpt><trkpt lat="43.23630017500452" lon="-0.8780279478431893"><ele>129.0</ele><time>2026-04-29T10:32:00Z</time></trkpt><trkpt lat="43.236202890936156" lon="-0.877991147885289"><ele>130.2</ele><time>2026-04-29T10:32:01Z</time></trkpt><trkpt lat="43.23610627005972" lon="-0.8779515715236627"><ele>131.4</ele><time>2026-04-29T10:32:02Z</time></trkpt><trkpt lat="43.236002641569534" lon="-0.8779220266323289"><ele>132.6</ele><time>2026-04-29T10:32:03Z</time></trkpt><trkpt lat="43.23590848030977" lon="-0.8778835045051285"><ele>133.8</ele><time>2026-04-29T10:32:04Z</time></trkpt><trkpt lat="43.23582311968412" lon="-0.877846063909262"><ele>135.0</ele><time>2026-04-29T10:32:05Z</time></trkpt><trkpt lat="43.23573195197347" lon="-0.8778072648473048"><ele>135.0</ele><time>2026-04-29T10:32:06Z</time></trkpt><trkpt lat="43.235639648298985" lon="-0.8777697792384228"><ele>135.0</ele><time>2026-04-29T10:32:07Z</time></trkpt><trkpt lat="43.23554600001835" lon="-0.8777333122300949"><ele>135.0</ele><time>2026-04-29T10:32:08Z</time></trkpt><trkpt lat="43.2354520529654" lon="-0.8777011139870158"><ele>135.0</ele><time>2026-04-29T10:32:09Z</time></trkpt><trkpt lat="43.235357170205646" lon="-0.8776751013085733"><ele>135.0</ele><time>2026-04-29T10:32:10Z</time></trkpt><trkpt lat="43.23526125532173" lon="-0.8776712229385664"><ele>137.2</ele><time>2026-04-29T10:32:11Z</time></trkpt><trkpt lat="43.23516369405707" lon="-0.8776678770122714"><ele>139.4</ele><time>2026-04-29T10:32:12.001Z</time></trkpt><trkpt lat="43.23506573510917" lon="-0.8776691156725354"><ele>141.6</ele><time>2026-04-29T10:32:13.001Z</time></trkpt><trkpt lat="43.23496873331993" lon="-0.8776758949057637"><ele>143.8</ele><time>2026-04-29T10:32:14.001Z</time></trkpt><trkpt lat="43.23487220053541" lon="-0.8776879921448937"><ele>146.0</ele><time>2026-04-29T10:32:15.001Z</time></trkpt><trkpt lat="43.234776369710936" lon="-0.8776912779965182"><ele>146.8</ele><time>2026-04-29T10:32:16.001Z</time></trkpt><trkpt lat="43.23468319618692" lon="-0.87769098214053"><ele>147.6</ele><time>2026-04-29T10:32:17.001Z</time></trkpt><trkpt lat="43.23458892781535" lon="-0.8776881377368911"><ele>148.4</ele><time>2026-04-29T10:32:18.001Z</time></trkpt><trkpt lat="43.234494310582235" lon="-0.8776873574284013"><ele>149.2</ele><time>2026-04-29T10:32:19.001Z</time></trkpt><trkpt lat="43.234397700982235" lon="-0.8776782549922019"><ele>150.0</ele><time>2026-04-29T10:32:20.001Z</time></trkpt><trkpt lat="43.23430559331902" lon="-0.877668625136518"><ele>150.0</ele><time>2026-04-29T10:32:21.001Z</time></trkpt><trkpt lat="43.23421356233236" lon="-0.8776587980699205"><ele>150.0</ele><time>2026-04-29T10:32:22.001Z</time></trkpt><trkpt lat="43.23411981750178" lon="-0.8776444529121119"><ele>150.0</ele><time>2026-04-29T10:32:23.001Z</time></trkpt><trkpt lat="43.234029772076596" lon="-0.8776275251283894"><ele>150.0</ele><time>2026-04-29T10:32:24.001Z</time></trkpt><trkpt lat="43.23393544411647" lon="-0.8776074764976263"><ele>150.0</ele><time>2026-04-29T10:32:25.001Z</time></trkpt><trkpt lat="43.23384259035641" lon="-0.8775856262051807"><ele>149.0</ele><time>2026-04-29T10:32:26.001Z</time></trkpt><trkpt lat="43.23374935621147" lon="-0.8775682037511919"><ele>148.0</ele><time>2026-04-29T10:32:27.001Z</time></trkpt><trkpt lat="43.23365706141742" lon="-0.8775478349026983"><ele>147.0</ele><time>2026-04-29T10:32:28.001Z</time></trkpt><trkpt lat="43.233567244171525" lon="-0.8775259810194491"><ele>146.0</ele><time>2026-04-29T10:32:29.001Z</time></trkpt><trkpt lat="43.23347638305879" lon="-0.877506409872763"><ele>145.0</ele><time>2026-04-29T10:32:30.001Z</time></trkpt><trkpt lat="43.23338305552416" lon="-0.8774850952833667"><ele>145.0</ele><time>2026-04-29T10:32:31.001Z</time></trkpt><trkpt lat="43.233286461785035" lon="-0.8774710212941266"><ele>145.0</ele><time>2026-04-29T10:32:32.001Z</time></trkpt><trkpt lat="43.233189781578744" lon="-0.8774652597446425"><ele>145.0</ele><time>2026-04-29T10:32:33.001Z</time></trkpt><trkpt lat="43.233095541207334" lon="-0.8774707683480092"><ele>145.0</ele><time>2026-04-29T10:32:34.001Z</time></trkpt><trkpt lat="43.232999663037766" lon="-0.877484410156198"><ele>145.0</ele><time>2026-04-29T10:32:35.001Z</time></trkpt><trkpt lat="43.23290251339615" lon="-0.8775025705639751"><ele>144.2</ele><time>2026-04-29T10:32:36.001Z</time></trkpt><trkpt lat="43.23281227298447" lon="-0.8775246707871586"><ele>143.4</ele><time>2026-04-29T10:32:37.001Z</time></trkpt><trkpt lat="43.23272000306929" lon="-0.8775530867683029"><ele>142.6</ele><time>2026-04-29T10:32:38.001Z</time></trkpt><trkpt lat="43.23262833093779" lon="-0.8775885287238108"><ele>141.8</ele><time>2026-04-29T10:32:39.001Z</time></trkpt><trkpt lat="43.2325359524742" lon="-0.8776256518664265"><ele>141.0</ele><time>2026-04-29T10:32:40.001Z</time></trkpt><trkpt lat="43.23244421651276" lon="-0.8776675184763576"><ele>141.2</ele><time>2026-04-29T10:32:41.001Z</time></trkpt><trkpt lat="43.23235210089559" lon="-0.8777079249189754"><ele>141.39999999999998</ele><time>2026-04-29T10:32:42.001Z</time></trkpt><trkpt lat="43.23226123325426" lon="-0.8777547950415957"><ele>141.6</ele><time>2026-04-29T10:32:43.001Z</time></trkpt><trkpt lat="43.23217357810879" lon="-0.8778178262230245"><ele>141.79999999999998</ele><time>2026-04-29T10:32:44.001Z</time></trkpt><trkpt lat="43.23208789040848" lon="-0.8778804745465437"><ele>142.0</ele><time>2026-04-29T10:32:45.001Z</time></trkpt><trkpt lat="43.232006212705656" lon="-0.8779520438470848"><ele>142.0</ele><time>2026-04-29T10:32:46.001Z</time></trkpt><trkpt lat="43.23192572019434" lon="-0.8780205575404445"><ele>142.0</ele><time>2026-04-29T10:32:47.001Z</time></trkpt><trkpt lat="43.231852891255585" lon="-0.8781020930863402"><ele>142.0</ele><time>2026-04-29T10:32:48.001Z</time></trkpt><trkpt lat="43.231782150985644" lon="-0.8781884251321166"><ele>142.0</ele><time>2026-04-29T10:32:49.001Z</time></trkpt><trkpt lat="43.23171584033325" lon="-0.878284715212655"><ele>142.0</ele><time>2026-04-29T10:32:50.001Z</time></trkpt><trkpt lat="43.23165401433762" lon="-0.8783825369420996"><ele>141.83333333333334</ele><time>2026-04-29T10:32:51.001Z</time></trkpt><trkpt lat="43.23159121703153" lon="-0.8784748634468862"><ele>141.66666666666669</ele><time>2026-04-29T10:32:52.001Z</time></trkpt><trkpt lat="43.231530514793924" lon="-0.878569472459915"><ele>141.5</ele><time>2026-04-29T10:32:53.001Z</time></trkpt><trkpt lat="43.231474354289475" lon="-0.8786660623707997"><ele>141.33333333333334</ele><time>2026-04-29T10:32:54.001Z</time></trkpt><trkpt lat="43.231429740287325" lon="-0.8787704694087782"><ele>141.16666666666666</ele><time>2026-04-29T10:32:55.001Z</time></trkpt><trkpt lat="43.23140119361723" lon="-0.8788796863067584"><ele>141.0</ele><time>2026-04-29T10:32:56.001Z</time></trkpt><trkpt lat="43.231364786393634" lon="-0.8789851353016994"><ele>141.0</ele><time>2026-04-29T10:32:57.001Z</time></trkpt><trkpt lat="43.23131347406103" lon="-0.8790729522288244"><ele>141.0</ele><time>2026-04-29T10:32:58.001Z</time></trkpt><trkpt lat="43.23124090603048" lon="-0.8791424946608436"><ele>141.0</ele><time>2026-04-29T10:32:59.001Z</time></trkpt><trkpt lat="43.231161853733106" lon="-0.879203582447568"><ele>141.0</ele><time>2026-04-29T10:33:00.001Z</time></trkpt><trkpt lat="43.23109231600283" lon="-0.8792833722150977"><ele>141.0</ele><time>2026-04-29T10:33:01.001Z</time></trkpt><trkpt lat="43.231028591840236" lon="-0.879375708747701"><ele>141.0</ele><time>2026-04-29T10:33:02Z</time></trkpt><trkpt lat="43.230964822821605" lon="-0.8794647616313191"><ele>142.2</ele><time>2026-04-29T10:33:03Z</time></trkpt><trkpt lat="43.23090137599729" lon="-0.8795587455015081"><ele>143.39999999999998</ele><time>2026-04-29T10:33:04Z</time></trkpt><trkpt lat="43.23083978919425" lon="-0.8796567312917934"><ele>144.6</ele><time>2026-04-29T10:33:05Z</time></trkpt><trkpt lat="43.2307773121016" lon="-0.8797584017367704"><ele>145.79999999999998</ele><time>2026-04-29T10:33:06Z</time></trkpt><trkpt lat="43.23071606011479" lon="-0.8798564088024714"><ele>147.0</ele><time>2026-04-29T10:33:07Z</time></trkpt><trkpt lat="43.23065366513147" lon="-0.8799551014348038"><ele>146.2</ele><time>2026-04-29T10:33:08Z</time></trkpt><trkpt lat="43.2305946342409" lon="-0.8800597289423152"><ele>145.39999999999998</ele><time>2026-04-29T10:33:09Z</time></trkpt><trkpt lat="43.23053761140856" lon="-0.8801655317066788"><ele>144.60000000000002</ele><time>2026-04-29T10:33:10Z</time></trkpt><trkpt lat="43.23048106715232" lon="-0.8802709213779201"><ele>143.8</ele><time>2026-04-29T10:33:11Z</time></trkpt><trkpt lat="43.23042677912065" lon="-0.8803820923248493"><ele>143.0</ele><time>2026-04-29T10:33:12Z</time></trkpt><trkpt lat="43.23037619263498" lon="-0.8804956388279459"><ele>143.0</ele><time>2026-04-29T10:33:13Z</time></trkpt><trkpt lat="43.23033046875613" lon="-0.8806155905254764"><ele>143.0</ele><time>2026-04-29T10:33:14Z</time></trkpt><trkpt lat="43.23028293737575" lon="-0.8807264285475984"><ele>143.0</ele><time>2026-04-29T10:33:15Z</time></trkpt><trkpt lat="43.230234526472536" lon="-0.8808437974222747"><ele>143.0</ele><time>2026-04-29T10:33:16Z</time></trkpt><trkpt lat="43.230192268926444" lon="-0.8809640618360067"><ele>143.0</ele><time>2026-04-29T10:33:17Z</time></trkpt><trkpt lat="43.230153755626986" lon="-0.8810862819207058"><ele>143.0</ele><time>2026-04-29T10:33:18Z</time></trkpt><trkpt lat="43.23011606754702" lon="-0.8812119704491743"><ele>143.0</ele><time>2026-04-29T10:33:19Z</time></trkpt><trkpt lat="43.23007903536215" lon="-0.881338232411338"><ele>143.0</ele><time>2026-04-29T10:33:20Z</time></trkpt><trkpt lat="43.230042828147724" lon="-0.8814635879920674"><ele>143.0</ele><time>2026-04-29T10:33:21Z</time></trkpt><trkpt lat="43.230007312634584" lon="-0.8815940108786721"><ele>143.0</ele><time>2026-04-29T10:33:22Z</time></trkpt><trkpt lat="43.22997462087642" lon="-0.8817248915447892"><ele>144.4</ele><time>2026-04-29T10:33:23Z</time></trkpt><trkpt lat="43.22994414047041" lon="-0.881853915019481"><ele>145.8</ele><time>2026-04-29T10:33:24Z</time></trkpt><trkpt lat="43.22991167938428" lon="-0.8819817239671934"><ele>147.2</ele><time>2026-04-29T10:33:25Z</time></trkpt><trkpt lat="43.22988022651801" lon="-0.8821082790501804"><ele>148.6</ele><time>2026-04-29T10:33:26Z</time></trkpt><trkpt lat="43.229847393541974" lon="-0.8822333688348155"><ele>150.0</ele><time>2026-04-29T10:33:27Z</time></trkpt><trkpt lat="43.22981477740747" lon="-0.882357765720741"><ele>147.6</ele><time>2026-04-29T10:33:28Z</time></trkpt><trkpt lat="43.229781825580986" lon="-0.8824825597824241"><ele>145.2</ele><time>2026-04-29T10:33:29Z</time></trkpt><trkpt lat="43.229748035851074" lon="-0.8826063747957723"><ele>142.8</ele><time>2026-04-29T10:33:30Z</time></trkpt><trkpt lat="43.2297157736623" lon="-0.8827301150001822"><ele>140.4</ele><time>2026-04-29T10:33:31Z</time></trkpt><trkpt lat="43.22968329356939" lon="-0.8828530957380981"><ele>138.0</ele><time>2026-04-29T10:33:32Z</time></trkpt><trkpt lat="43.229649686817154" lon="-0.8829785740228366"><ele>138.0</ele><time>2026-04-29T10:33:33Z</time></trkpt><trkpt lat="43.229616870454166" lon="-0.883101632911203"><ele>138.0</ele><time>2026-04-29T10:33:34Z</time></trkpt><trkpt lat="43.22958378048225" lon="-0.8832256854568444"><ele>138.0</ele><time>2026-04-29T10:33:35Z</time></trkpt><trkpt lat="43.22955124936894" lon="-0.8833510954319695"><ele>138.0</ele><time>2026-04-29T10:33:36Z</time></trkpt><trkpt lat="43.229517164384184" lon="-0.8834779254179042"><ele>138.0</ele><time>2026-04-29T10:33:37Z</time></trkpt><trkpt lat="43.229479783169026" lon="-0.8836024665217456"><ele>138.6</ele><time>2026-04-29T10:33:38Z</time></trkpt><trkpt lat="43.22943872848511" lon="-0.8837272787831701"><ele>139.20000000000002</ele><time>2026-04-29T10:33:39Z</time></trkpt><trkpt lat="43.22939739858183" lon="-0.8838523627853714"><ele>139.8</ele><time>2026-04-29T10:33:40Z</time></trkpt><trkpt lat="43.229357102650475" lon="-0.8839794369518756"><ele>140.4</ele><time>2026-04-29T10:33:41Z</time></trkpt><trkpt lat="43.2293135689818" lon="-0.8841010760547664"><ele>141.0</ele><time>2026-04-29T10:33:42Z</time></trkpt><trkpt lat="43.22926858697494" lon="-0.8842144797434737"><ele>141.0</ele><time>2026-04-29T10:33:43Z</time></trkpt><trkpt lat="43.229218361315205" lon="-0.884331010449426"><ele>141.0</ele><time>2026-04-29T10:33:44Z</time></trkpt><trkpt lat="43.22916942363035" lon="-0.8844461860916534"><ele>141.0</ele><time>2026-04-29T10:33:45Z</time></trkpt><trkpt lat="43.229119092685565" lon="-0.8845634031963744"><ele>141.0</ele><time>2026-04-29T10:33:46Z</time></trkpt><trkpt lat="43.22906504637669" lon="-0.8846806406494808"><ele>141.0</ele><time>2026-04-29T10:33:47Z</time></trkpt><trkpt lat="43.22900977011822" lon="-0.884798764968337"><ele>140.6</ele><time>2026-04-29T10:33:48Z</time></trkpt><trkpt lat="43.22895354220459" lon="-0.8849132778335445"><ele>140.2</ele><time>2026-04-29T10:33:49Z</time></trkpt><trkpt lat="43.22889670416954" lon="-0.8850280791733766"><ele>139.8</ele><time>2026-04-29T10:33:50Z</time></trkpt><trkpt lat="43.22883744649773" lon="-0.8851417578288852"><ele>139.4</ele><time>2026-04-29T10:33:51Z</time></trkpt><trkpt lat="43.228775227826915" lon="-0.885251055614424"><ele>139.0</ele><time>2026-04-29T10:33:52Z</time></trkpt><trkpt lat="43.22871070890132" lon="-0.885362579430293"><ele>139.0</ele><time>2026-04-29T10:33:53Z</time></trkpt><trkpt lat="43.22864798599606" lon="-0.8854698653551141"><ele>139.0</ele><time>2026-04-29T10:33:54Z</time></trkpt><trkpt lat="43.22858427116912" lon="-0.8855781876522313"><ele>139.0</ele><time>2026-04-29T10:33:55Z</time></trkpt><trkpt lat="43.22851975943939" lon="-0.885689359933178"><ele>139.0</ele><time>2026-04-29T10:33:56Z</time></trkpt><trkpt lat="43.22845652040802" lon="-0.885800029101729"><ele>139.0</ele><time>2026-04-29T10:33:57Z</time></trkpt><trkpt lat="43.22839013229516" lon="-0.8859084155786254"><ele>139.0</ele><time>2026-04-29T10:33:58Z</time></trkpt><trkpt lat="43.228322539043695" lon="-0.886018522700318"><ele>139.0</ele><time>2026-04-29T10:33:59Z</time></trkpt><trkpt lat="43.22825875401448" lon="-0.8861286683811676"><ele>139.0</ele><time>2026-04-29T10:34:00Z</time></trkpt><trkpt lat="43.22819643833658" lon="-0.8862404789105646"><ele>139.0</ele><time>2026-04-29T10:34:01Z</time></trkpt><trkpt lat="43.22813347976504" lon="-0.8863515352215005"><ele>139.0</ele><time>2026-04-29T10:34:02Z</time></trkpt><trkpt lat="43.228069144264886" lon="-0.8864583690805115"><ele>139.0</ele><time>2026-04-29T10:34:03.001Z</time></trkpt><trkpt lat="43.22800580786349" lon="-0.8865716949791969"><ele>139.0</ele><time>2026-04-29T10:34:04Z</time></trkpt><trkpt lat="43.22794073734809" lon="-0.8866785187483397"><ele>139.0</ele><time>2026-04-29T10:34:05Z</time></trkpt><trkpt lat="43.22787614085035" lon="-0.8867907045608"><ele>139.0</ele><time>2026-04-29T10:34:06Z</time></trkpt><trkpt lat="43.227810370983555" lon="-0.8869003259536434"><ele>139.0</ele><time>2026-04-29T10:34:07.001Z</time></trkpt><trkpt lat="43.227743018995355" lon="-0.8870060649295617"><ele>139.4</ele><time>2026-04-29T10:34:08.001Z</time></trkpt><trkpt lat="43.227666971518715" lon="-0.8871055031353603"><ele>139.8</ele><time>2026-04-29T10:34:09.001Z</time></trkpt><trkpt lat="43.22759303482844" lon="-0.887199616638741"><ele>140.2</ele><time>2026-04-29T10:34:10.001Z</time></trkpt><trkpt lat="43.227522330352336" lon="-0.8872909827650841"><ele>140.6</ele><time>2026-04-29T10:34:11.001Z</time></trkpt><trkpt lat="43.22744838802276" lon="-0.8873750569945437"><ele>141.0</ele><time>2026-04-29T10:34:12.001Z</time></trkpt><trkpt lat="43.22737784834228" lon="-0.8874525384225427"><ele>140.66666666666666</ele><time>2026-04-29T10:34:13.001Z</time></trkpt><trkpt lat="43.2273089413727" lon="-0.8875208384648126"><ele>140.33333333333334</ele><time>2026-04-29T10:34:14.001Z</time></trkpt><trkpt lat="43.22724104603107" lon="-0.887583134521976"><ele>140.0</ele><time>2026-04-29T10:34:15.001Z</time></trkpt><trkpt lat="43.22717890515679" lon="-0.8876420812079042"><ele>139.66666666666669</ele><time>2026-04-29T10:34:16.001Z</time></trkpt><trkpt lat="43.2271287220602" lon="-0.8877115208182276"><ele>139.33333333333334</ele><time>2026-04-29T10:34:17.001Z</time></trkpt><trkpt lat="43.227104550600664" lon="-0.8878044557456517"><ele>139.0</ele><time>2026-04-29T10:34:18.001Z</time></trkpt><trkpt lat="43.227102042391444" lon="-0.8879008322673831"><ele>138.8</ele><time>2026-04-29T10:34:19.001Z</time></trkpt><trkpt lat="43.22708741286884" lon="-0.8879872028757826"><ele>138.60000000000002</ele><time>2026-04-29T10:34:20.001Z</time></trkpt><trkpt lat="43.22700305203449" lon="-0.8880989883175032"><ele>138.4</ele><time>2026-04-29T10:34:22.001Z</time></trkpt><trkpt lat="43.22690065433824" lon="-0.8881128111758269"><ele>138.20000000000002</ele><time>2026-04-29T10:34:24.001Z</time></trkpt><trkpt lat="43.22678127395604" lon="-0.8880818594915131"><ele>138.0</ele><time>2026-04-29T10:34:26.001Z</time></trkpt><trkpt lat="43.22671025497566" lon="-0.888107799379421"><ele>138.0</ele><time>2026-04-29T10:34:27.001Z</time></trkpt><trkpt lat="43.226646591846524" lon="-0.8881615126869554"><ele>138.0</ele><time>2026-04-29T10:34:28.001Z</time></trkpt><trkpt lat="43.22658332249951" lon="-0.8882247433549626"><ele>138.0</ele><time>2026-04-29T10:34:29.001Z</time></trkpt><trkpt lat="43.22651399671936" lon="-0.8882863622448239"><ele>138.0</ele><time>2026-04-29T10:34:30.001Z</time></trkpt><trkpt lat="43.22644038106156" lon="-0.8883474796760875"><ele>138.0</ele><time>2026-04-29T10:34:31.001Z</time></trkpt><trkpt lat="43.226363502296785" lon="-0.8884114097055638"><ele>138.0</ele><time>2026-04-29T10:34:32.001Z</time></trkpt><trkpt lat="43.226285060854124" lon="-0.8884815037820647"><ele>138.4</ele><time>2026-04-29T10:34:33.001Z</time></trkpt><trkpt lat="43.22620937920836" lon="-0.8885553987640588"><ele>138.8</ele><time>2026-04-29T10:34:34.001Z</time></trkpt><trkpt lat="43.226131882602864" lon="-0.8886229342625711"><ele>139.2</ele><time>2026-04-29T10:34:35.001Z</time></trkpt><trkpt lat="43.22605507223292" lon="-0.8886906357890552"><ele>139.6</ele><time>2026-04-29T10:34:36.001Z</time></trkpt><trkpt lat="43.225976849173925" lon="-0.8887607945577884"><ele>140.0</ele><time>2026-04-29T10:34:37.001Z</time></trkpt><trkpt lat="43.2258983674485" lon="-0.8888381204536469"><ele>140.0</ele><time>2026-04-29T10:34:38.001Z</time></trkpt><trkpt lat="43.2258245462483" lon="-0.8889260065774404"><ele>140.0</ele><time>2026-04-29T10:34:39.001Z</time></trkpt><trkpt lat="43.225756771128225" lon="-0.8890225222031625"><ele>140.0</ele><time>2026-04-29T10:34:40.001Z</time></trkpt><trkpt lat="43.22569416841192" lon="-0.8891163364426092"><ele>140.0</ele><time>2026-04-29T10:34:41.001Z</time></trkpt><trkpt lat="43.2256349081878" lon="-0.8892178903249525"><ele>140.0</ele><time>2026-04-29T10:34:42.001Z</time></trkpt><trkpt lat="43.2255789242996" lon="-0.8893281361113352"><ele>140.2</ele><time>2026-04-29T10:34:43.001Z</time></trkpt><trkpt lat="43.22552277890882" lon="-0.8894363583074987"><ele>140.4</ele><time>2026-04-29T10:34:44.001Z</time></trkpt><trkpt lat="43.22546594744346" lon="-0.8895439984028981"><ele>140.6</ele><time>2026-04-29T10:34:45.001Z</time></trkpt><trkpt lat="43.22539875951631" lon="-0.889636008401377"><ele>140.8</ele><time>2026-04-29T10:34:46.001Z</time></trkpt><trkpt lat="43.225344422097045" lon="-0.8897416764721763"><ele>141.0</ele><time>2026-04-29T10:34:47.001Z</time></trkpt><trkpt lat="43.22528876806696" lon="-0.8898500741114017"><ele>141.0</ele><time>2026-04-29T10:34:48.001Z</time></trkpt><trkpt lat="43.22523143353677" lon="-0.8899592101858306"><ele>141.0</ele><time>2026-04-29T10:34:49.001Z</time></trkpt><trkpt lat="43.22517502073741" lon="-0.890065865836218"><ele>141.0</ele><time>2026-04-29T10:34:50.001Z</time></trkpt><trkpt lat="43.22511262674101" lon="-0.8901689580456911"><ele>141.0</ele><time>2026-04-29T10:34:51.001Z</time></trkpt><trkpt lat="43.22505248478103" lon="-0.8902753066086038"><ele>141.0</ele><time>2026-04-29T10:34:52.001Z</time></trkpt><trkpt lat="43.224993762581256" lon="-0.8903786815458005"><ele>141.0</ele><time>2026-04-29T10:34:53.001Z</time></trkpt><trkpt lat="43.22493794541005" lon="-0.8904830602599282"><ele>141.0</ele><time>2026-04-29T10:34:54.001Z</time></trkpt><trkpt lat="43.22487769881251" lon="-0.8905905957448931"><ele>141.0</ele><time>2026-04-29T10:34:55.001Z</time></trkpt><trkpt lat="43.22481471841344" lon="-0.8906960392114547"><ele>141.0</ele><time>2026-04-29T10:34:56.001Z</time></trkpt><trkpt lat="43.224754778831375" lon="-0.8908078075485258"><ele>141.0</ele><time>2026-04-29T10:34:57.001Z</time></trkpt><trkpt lat="43.224693563229856" lon="-0.8909285592876206"><ele>140.8</ele><time>2026-04-29T10:34:58.001Z</time></trkpt><trkpt lat="43.22463719640138" lon="-0.8910440747448208"><ele>140.6</ele><time>2026-04-29T10:34:59.001Z</time></trkpt><trkpt lat="43.22458144208224" lon="-0.891150703471183"><ele>140.4</ele><time>2026-04-29T10:35:00.001Z</time></trkpt><trkpt lat="43.224527172148214" lon="-0.8912575244652932"><ele>140.2</ele><time>2026-04-29T10:35:01.001Z</time></trkpt><trkpt lat="43.22447237014359" lon="-0.8913643211624109"><ele>140.0</ele><time>2026-04-29T10:35:02.001Z</time></trkpt><trkpt lat="43.224415498248014" lon="-0.8914722749308513"><ele>140.0</ele><time>2026-04-29T10:35:03.001Z</time></trkpt><trkpt lat="43.2243603930291" lon="-0.8915777992091749"><ele>140.0</ele><time>2026-04-29T10:35:04.001Z</time></trkpt><trkpt lat="43.224305793847826" lon="-0.891680903535303"><ele>140.0</ele><time>2026-04-29T10:35:05.001Z</time></trkpt><trkpt lat="43.22425079659973" lon="-0.8917846780280997"><ele>140.0</ele><time>2026-04-29T10:35:06.001Z</time></trkpt><trkpt lat="43.224196866309825" lon="-0.891889951816433"><ele>140.0</ele><time>2026-04-29T10:35:07.001Z</time></trkpt><trkpt lat="43.224141904099184" lon="-0.8919956454478588"><ele>140.6</ele><time>2026-04-29T10:35:08Z</time></trkpt><trkpt lat="43.224087074197385" lon="-0.8921049123391281"><ele>141.2</ele><time>2026-04-29T10:35:09Z</time></trkpt><trkpt lat="43.22403270524535" lon="-0.8922164282879896"><ele>141.8</ele><time>2026-04-29T10:35:10Z</time></trkpt><trkpt lat="43.223977222637515" lon="-0.8923257300909344"><ele>142.4</ele><time>2026-04-29T10:35:11Z</time></trkpt><trkpt lat="43.22392258143991" lon="-0.8924396541485352"><ele>143.0</ele><time>2026-04-29T10:35:12Z</time></trkpt><trkpt lat="43.22386850864542" lon="-0.8925507386337179"><ele>145.4</ele><time>2026-04-29T10:35:13Z</time></trkpt><trkpt lat="43.223811227662296" lon="-0.8926608902069227"><ele>147.8</ele><time>2026-04-29T10:35:14Z</time></trkpt><trkpt lat="43.223752688920364" lon="-0.8927704459867953"><ele>150.2</ele><time>2026-04-29T10:35:15Z</time></trkpt><trkpt lat="43.22369258718317" lon="-0.8928757431872871"><ele>152.6</ele><time>2026-04-29T10:35:16Z</time></trkpt><trkpt lat="43.22362728224211" lon="-0.8929757977020841"><ele>155.0</ele><time>2026-04-29T10:35:17Z</time></trkpt><trkpt lat="43.223562041410936" lon="-0.8930732098722758"><ele>155.0</ele><time>2026-04-29T10:35:18Z</time></trkpt><trkpt lat="43.223492217711176" lon="-0.8931627228750978"><ele>155.0</ele><time>2026-04-29T10:35:19Z</time></trkpt><trkpt lat="43.223418325118644" lon="-0.8932455464927491"><ele>155.0</ele><time>2026-04-29T10:35:20Z</time></trkpt><trkpt lat="43.22334046672768" lon="-0.8933194807614953"><ele>155.0</ele><time>2026-04-29T10:35:21Z</time></trkpt><trkpt lat="43.22326118026006" lon="-0.8933839409085552"><ele>155.0</ele><time>2026-04-29T10:35:22Z</time></trkpt><trkpt lat="43.22318355817458" lon="-0.8934465608073486"><ele>154.8</ele><time>2026-04-29T10:35:23Z</time></trkpt><trkpt lat="43.22310235905569" lon="-0.8935020655950875"><ele>154.6</ele><time>2026-04-29T10:35:24Z</time></trkpt><trkpt lat="43.223022625187745" lon="-0.8935589583759174"><ele>154.4</ele><time>2026-04-29T10:35:25Z</time></trkpt><trkpt lat="43.22294197796389" lon="-0.893610665001037"><ele>154.2</ele><time>2026-04-29T10:35:26Z</time></trkpt><trkpt lat="43.222861793647844" lon="-0.893669429634927"><ele>154.0</ele><time>2026-04-29T10:35:27Z</time></trkpt><trkpt lat="43.222781968403375" lon="-0.8937280902556347"><ele>154.0</ele><time>2026-04-29T10:35:28Z</time></trkpt><trkpt lat="43.22270228362948" lon="-0.893793432415932"><ele>154.0</ele><time>2026-04-29T10:35:29Z</time></trkpt><trkpt lat="43.222631995751094" lon="-0.8938648753660716"><ele>154.0</ele><time>2026-04-29T10:35:30Z</time></trkpt><trkpt lat="43.22256806881921" lon="-0.8939346153386384"><ele>154.0</ele><time>2026-04-29T10:35:31Z</time></trkpt><trkpt lat="43.222514518976475" lon="-0.8940087148327683"><ele>154.0</ele><time>2026-04-29T10:35:32Z</time></trkpt><trkpt lat="43.222464846032516" lon="-0.8940817294412811"><ele>154.0</ele><time>2026-04-29T10:35:33Z</time></trkpt><trkpt lat="43.222412525348844" lon="-0.894147860772467"><ele>154.8</ele><time>2026-04-29T10:35:34Z</time></trkpt><trkpt lat="43.22233625753948" lon="-0.8942740629147924"><ele>155.60000000000002</ele><time>2026-04-29T10:35:36Z</time></trkpt><trkpt lat="43.22225584065559" lon="-0.8944029191446033"><ele>156.4</ele><time>2026-04-29T10:35:38Z</time></trkpt><trkpt lat="43.22220261163515" lon="-0.8944670956462228"><ele>157.20000000000002</ele><time>2026-04-29T10:35:39Z</time></trkpt><trkpt lat="43.222148951807235" lon="-0.8945348668319071"><ele>158.0</ele><time>2026-04-29T10:35:40Z</time></trkpt><trkpt lat="43.22207514723358" lon="-0.8945882405766226"><ele>156.4</ele><time>2026-04-29T10:35:41Z</time></trkpt><trkpt lat="43.22199345030437" lon="-0.8946326691571725"><ele>154.8</ele><time>2026-04-29T10:35:42Z</time></trkpt><trkpt lat="43.221902544152115" lon="-0.8946533288547996"><ele>153.2</ele><time>2026-04-29T10:35:43Z</time></trkpt><trkpt lat="43.22180945921371" lon="-0.8946481735480113"><ele>151.6</ele><time>2026-04-29T10:35:44Z</time></trkpt><trkpt lat="43.221716123263164" lon="-0.8946243601957619"><ele>150.0</ele><time>2026-04-29T10:35:45Z</time></trkpt><trkpt lat="43.221634391699595" lon="-0.8945704862025643"><ele>150.0</ele><time>2026-04-29T10:35:46Z</time></trkpt><trkpt lat="43.22156657589771" lon="-0.8944960494865339"><ele>150.0</ele><time>2026-04-29T10:35:47Z</time></trkpt><trkpt lat="43.221505576130035" lon="-0.894418405973121"><ele>150.0</ele><time>2026-04-29T10:35:48Z</time></trkpt><trkpt lat="43.22145246406831" lon="-0.8943409724828848"><ele>150.0</ele><time>2026-04-29T10:35:49Z</time></trkpt><trkpt lat="43.22140727048075" lon="-0.8942644505053124"><ele>150.0</ele><time>2026-04-29T10:35:50Z</time></trkpt><trkpt lat="43.22135649174146" lon="-0.8941883415537633"><ele>150.0</ele><time>2026-04-29T10:35:51Z</time></trkpt><trkpt lat="43.22130541323864" lon="-0.8941082145905762"><ele>151.16666666666666</ele><time>2026-04-29T10:35:52Z</time></trkpt><trkpt lat="43.22124507185446" lon="-0.8940303832305746"><ele>152.33333333333334</ele><time>2026-04-29T10:35:53Z</time></trkpt><trkpt lat="43.221175435067416" lon="-0.8939548813663333"><ele>153.5</ele><time>2026-04-29T10:35:54.001Z</time></trkpt><trkpt lat="43.22110033223553" lon="-0.8938872584908375"><ele>154.66666666666669</ele><time>2026-04-29T10:35:55.001Z</time></trkpt><trkpt lat="43.22102319454951" lon="-0.8938209765081797"><ele>155.83333333333334</ele><time>2026-04-29T10:35:56.001Z</time></trkpt><trkpt lat="43.22094051676069" lon="-0.8937559330695021"><ele>157.0</ele><time>2026-04-29T10:35:57.001Z</time></trkpt><trkpt lat="43.22085820842665" lon="-0.8936943426785066"><ele>157.0</ele><time>2026-04-29T10:35:58.001Z</time></trkpt><trkpt lat="43.22077243095562" lon="-0.8936434065885525"><ele>157.0</ele><time>2026-04-29T10:35:59.001Z</time></trkpt><trkpt lat="43.22068388607921" lon="-0.8935955989009409"><ele>157.0</ele><time>2026-04-29T10:36:00.001Z</time></trkpt><trkpt lat="43.2205910953061" lon="-0.8935544888320996"><ele>157.0</ele><time>2026-04-29T10:36:01.001Z</time></trkpt><trkpt lat="43.22049595209292" lon="-0.8935145195504094"><ele>157.0</ele><time>2026-04-29T10:36:02.001Z</time></trkpt><trkpt lat="43.220398984381625" lon="-0.8934797916764923"><ele>158.6</ele><time>2026-04-29T10:36:03.001Z</time></trkpt><trkpt lat="43.22030205301198" lon="-0.8934584745797521"><ele>160.2</ele><time>2026-04-29T10:36:04.001Z</time></trkpt><trkpt lat="43.22020925415604" lon="-0.8934375971872291"><ele>161.8</ele><time>2026-04-29T10:36:05.001Z</time></trkpt><trkpt lat="43.2201225781975" lon="-0.8934243453060914"><ele>163.4</ele><time>2026-04-29T10:36:06.001Z</time></trkpt><trkpt lat="43.2200344258622" lon="-0.8934134136687225"><ele>165.0</ele><time>2026-04-29T10:36:07.001Z</time></trkpt><trkpt lat="43.21994468399657" lon="-0.8934020892856743"><ele>162.0</ele><time>2026-04-29T10:36:08.001Z</time></trkpt><trkpt lat="43.219856485529824" lon="-0.8933940549892708"><ele>159.0</ele><time>2026-04-29T10:36:09.001Z</time></trkpt><trkpt lat="43.219767550491376" lon="-0.8933909546676998"><ele>156.0</ele><time>2026-04-29T10:36:10.001Z</time></trkpt><trkpt lat="43.21967707347216" lon="-0.893386757769349"><ele>153.0</ele><time>2026-04-29T10:36:11.001Z</time></trkpt><trkpt lat="43.219592145998696" lon="-0.8933955893264431"><ele>150.0</ele><time>2026-04-29T10:36:12.001Z</time></trkpt><trkpt lat="43.21951987885732" lon="-0.8934091524852539"><ele>147.0</ele><time>2026-04-29T10:36:13.001Z</time></trkpt><trkpt lat="43.21944936530954" lon="-0.8934146720423314"><ele>146.83333333333334</ele><time>2026-04-29T10:36:14.001Z</time></trkpt><trkpt lat="43.21937559645805" lon="-0.8934206672339695"><ele>146.66666666666666</ele><time>2026-04-29T10:36:15.001Z</time></trkpt><trkpt lat="43.21929786447233" lon="-0.8934331599984194"><ele>146.5</ele><time>2026-04-29T10:36:16.001Z</time></trkpt><trkpt lat="43.219216947067785" lon="-0.8934490357134792"><ele>146.33333333333331</ele><time>2026-04-29T10:36:17.001Z</time></trkpt><trkpt lat="43.21913477600792" lon="-0.8934669581355846"><ele>146.16666666666666</ele><time>2026-04-29T10:36:18.001Z</time></trkpt><trkpt lat="43.21905231577666" lon="-0.8934915728514939"><ele>146.0</ele><time>2026-04-29T10:36:19.001Z</time></trkpt><trkpt lat="43.21896718197189" lon="-0.8935188133071708"><ele>146.6</ele><time>2026-04-29T10:36:20.001Z</time></trkpt><trkpt lat="43.21887796348996" lon="-0.893549284257817"><ele>147.2</ele><time>2026-04-29T10:36:21.001Z</time></trkpt><trkpt lat="43.21879023474344" lon="-0.8935842634402512"><ele>147.8</ele><time>2026-04-29T10:36:22.001Z</time></trkpt><trkpt lat="43.21869874164194" lon="-0.8936243480684424"><ele>148.4</ele><time>2026-04-29T10:36:23.001Z</time></trkpt><trkpt lat="43.218610056435466" lon="-0.8936689336128814"><ele>149.0</ele><time>2026-04-29T10:36:24.001Z</time></trkpt><trkpt lat="43.2185203122444" lon="-0.8937149846702643"><ele>149.0</ele><time>2026-04-29T10:36:25.001Z</time></trkpt><trkpt lat="43.21843175893477" lon="-0.893763842909229"><ele>149.0</ele><time>2026-04-29T10:36:26.001Z</time></trkpt><trkpt lat="43.218342759482226" lon="-0.8938150318629977"><ele>149.0</ele><time>2026-04-29T10:36:27.001Z</time></trkpt><trkpt lat="43.21825204307975" lon="-0.8938665939408841"><ele>149.0</ele><time>2026-04-29T10:36:28.001Z</time></trkpt><trkpt lat="43.21816142749031" lon="-0.8939207066045993"><ele>149.0</ele><time>2026-04-29T10:36:29.001Z</time></trkpt><trkpt lat="43.218067255017615" lon="-0.8939694503086456"><ele>148.2</ele><time>2026-04-29T10:36:30.001Z</time></trkpt><trkpt lat="43.2179754855182" lon="-0.8940204001936112"><ele>147.4</ele><time>2026-04-29T10:36:31.001Z</time></trkpt><trkpt lat="43.217884875471356" lon="-0.8940723397171111"><ele>146.6</ele><time>2026-04-29T10:36:32.001Z</time></trkpt><trkpt lat="43.21779373092649" lon="-0.8941186104244058"><ele>145.8</ele><time>2026-04-29T10:36:33.001Z</time></trkpt><trkpt lat="43.21770721919507" lon="-0.8941555447158706"><ele>145.0</ele><time>2026-04-29T10:36:34.001Z</time></trkpt><trkpt lat="43.21763002386629" lon="-0.8941853574518008"><ele>145.0</ele><time>2026-04-29T10:36:35.001Z</time></trkpt><trkpt lat="43.21755756064331" lon="-0.8942137682727518"><ele>145.0</ele><time>2026-04-29T10:36:36.001Z</time></trkpt><trkpt lat="43.21749327097337" lon="-0.894264589612481"><ele>145.0</ele><time>2026-04-29T10:36:37.001Z</time></trkpt><trkpt lat="43.2174254382125" lon="-0.8942958912210283"><ele>145.0</ele><time>2026-04-29T10:36:38.001Z</time></trkpt><trkpt lat="43.2173749210822" lon="-0.8943935014373301"><ele>145.0</ele><time>2026-04-29T10:36:39.001Z</time></trkpt><trkpt lat="43.21730563562237" lon="-0.8944445583090666"><ele>145.0</ele><time>2026-04-29T10:36:40.001Z</time></trkpt><trkpt lat="43.21722830399807" lon="-0.894471771070581"><ele>145.5</ele><time>2026-04-29T10:36:41.001Z</time></trkpt><trkpt lat="43.21714529945964" lon="-0.8944849471481422"><ele>146.0</ele><time>2026-04-29T10:36:42.001Z</time></trkpt><trkpt lat="43.217064334120224" lon="-0.8945010831388188"><ele>146.5</ele><time>2026-04-29T10:36:43.001Z</time></trkpt><trkpt lat="43.21698888350548" lon="-0.894529290849545"><ele>147.0</ele><time>2026-04-29T10:36:44.001Z</time></trkpt><trkpt lat="43.21691589400637" lon="-0.8945704639133347"><ele>147.5</ele><time>2026-04-29T10:36:45.001Z</time></trkpt><trkpt lat="43.216846688804374" lon="-0.8946242873460248"><ele>148.0</ele><time>2026-04-29T10:36:46.001Z</time></trkpt><trkpt lat="43.2167830611449" lon="-0.8946901864661819"><ele>148.0</ele><time>2026-04-29T10:36:47.001Z</time></trkpt><trkpt lat="43.21672079789193" lon="-0.894758432998792"><ele>148.0</ele><time>2026-04-29T10:36:48.001Z</time></trkpt><trkpt lat="43.21665961868728" lon="-0.8948288401027964"><ele>148.0</ele><time>2026-04-29T10:36:49.001Z</time></trkpt><trkpt lat="43.216595231063884" lon="-0.894896559118365"><ele>148.0</ele><time>2026-04-29T10:36:50.001Z</time></trkpt><trkpt lat="43.21652724876819" lon="-0.8949638378759294"><ele>148.0</ele><time>2026-04-29T10:36:51.001Z</time></trkpt><trkpt lat="43.21645810005412" lon="-0.8950327673743632"><ele>148.0</ele><time>2026-04-29T10:36:52.001Z</time></trkpt><trkpt lat="43.21638729692478" lon="-0.8951014806817803"><ele>148.5</ele><time>2026-04-29T10:36:53.001Z</time></trkpt><trkpt lat="43.21631573772511" lon="-0.8951716186674671"><ele>149.0</ele><time>2026-04-29T10:36:54.001Z</time></trkpt><trkpt lat="43.21624419731526" lon="-0.8952409098989438"><ele>149.5</ele><time>2026-04-29T10:36:55.001Z</time></trkpt><trkpt lat="43.21617228822758" lon="-0.895312390094135"><ele>150.0</ele><time>2026-04-29T10:36:56.001Z</time></trkpt><trkpt lat="43.2161017916349" lon="-0.8953820143441975"><ele>150.5</ele><time>2026-04-29T10:36:57.001Z</time></trkpt><trkpt lat="43.21603207841772" lon="-0.8954539033163182"><ele>151.0</ele><time>2026-04-29T10:36:58.001Z</time></trkpt><trkpt lat="43.21596136554112" lon="-0.8955245650587147"><ele>151.0</ele><time>2026-04-29T10:36:59.001Z</time></trkpt><trkpt lat="43.215889733968126" lon="-0.8955969473560527"><ele>151.0</ele><time>2026-04-29T10:37:00.001Z</time></trkpt><trkpt lat="43.21581745613973" lon="-0.8956712309669294"><ele>151.0</ele><time>2026-04-29T10:37:01.001Z</time></trkpt><trkpt lat="43.215744329371894" lon="-0.8957461082995725"><ele>151.0</ele><time>2026-04-29T10:37:02.001Z</time></trkpt><trkpt lat="43.21567076611107" lon="-0.8958207567721729"><ele>151.0</ele><time>2026-04-29T10:37:03.001Z</time></trkpt><trkpt lat="43.21559826749821" lon="-0.8958973836636737"><ele>150.8</ele><time>2026-04-29T10:37:04.001Z</time></trkpt><trkpt lat="43.21552783920245" lon="-0.8959751994957155"><ele>150.6</ele><time>2026-04-29T10:37:05.001Z</time></trkpt><trkpt lat="43.21545584161805" lon="-0.8960526207012576"><ele>150.4</ele><time>2026-04-29T10:37:06.001Z</time></trkpt><trkpt lat="43.215383190799415" lon="-0.8961293847036157"><ele>150.2</ele><time>2026-04-29T10:37:07.001Z</time></trkpt><trkpt lat="43.215310692120454" lon="-0.8962050031471305"><ele>150.0</ele><time>2026-04-29T10:37:08.001Z</time></trkpt><trkpt lat="43.21524063633582" lon="-0.8962780495254291"><ele>150.0</ele><time>2026-04-29T10:37:09.001Z</time></trkpt><trkpt lat="43.21516969465974" lon="-0.8963527837348536"><ele>150.0</ele><time>2026-04-29T10:37:10.001Z</time></trkpt><trkpt lat="43.21510121859979" lon="-0.8964273206580865"><ele>150.0</ele><time>2026-04-29T10:37:11.001Z</time></trkpt><trkpt lat="43.21503145478314" lon="-0.896501252451067"><ele>150.0</ele><time>2026-04-29T10:37:12.001Z</time></trkpt><trkpt lat="43.21496247490891" lon="-0.8965801338957667"><ele>150.0</ele><time>2026-04-29T10:37:13.001Z</time></trkpt><trkpt lat="43.21490150067497" lon="-0.8966736129575504"><ele>150.0</ele><time>2026-04-29T10:37:14Z</time></trkpt><trkpt lat="43.21484437962124" lon="-0.8967690207072153"><ele>149.6</ele><time>2026-04-29T10:37:15Z</time></trkpt><trkpt lat="43.21479728294035" lon="-0.8968784971951212"><ele>149.2</ele><time>2026-04-29T10:37:16Z</time></trkpt><trkpt lat="43.21475665512818" lon="-0.8969883484610861"><ele>148.8</ele><time>2026-04-29T10:37:17Z</time></trkpt><trkpt lat="43.21471290842783" lon="-0.8970991925657675"><ele>148.4</ele><time>2026-04-29T10:37:18Z</time></trkpt><trkpt lat="43.21466662849082" lon="-0.8972061184037363"><ele>148.0</ele><time>2026-04-29T10:37:19Z</time></trkpt><trkpt lat="43.21462023559817" lon="-0.8973142083365018"><ele>148.0</ele><time>2026-04-29T10:37:20Z</time></trkpt><trkpt lat="43.21458013919766" lon="-0.8974262297569571"><ele>148.0</ele><time>2026-04-29T10:37:21Z</time></trkpt><trkpt lat="43.21453597227073" lon="-0.8975338663024681"><ele>148.0</ele><time>2026-04-29T10:37:22Z</time></trkpt><trkpt lat="43.21448969170691" lon="-0.8976445280153339"><ele>148.0</ele><time>2026-04-29T10:37:23Z</time></trkpt><trkpt lat="43.21444576846288" lon="-0.8977593966885493"><ele>148.0</ele><time>2026-04-29T10:37:24Z</time></trkpt><trkpt lat="43.21440605660461" lon="-0.8978808879280964"><ele>148.4</ele><time>2026-04-29T10:37:25Z</time></trkpt><trkpt lat="43.21436423401085" lon="-0.8979996115730873"><ele>148.8</ele><time>2026-04-29T10:37:26Z</time></trkpt><trkpt lat="43.21431823249352" lon="-0.8981154048280495"><ele>149.2</ele><time>2026-04-29T10:37:27Z</time></trkpt><trkpt lat="43.214272811526705" lon="-0.898232732330313"><ele>149.6</ele><time>2026-04-29T10:37:28Z</time></trkpt><trkpt lat="43.21422265969682" lon="-0.8983484244080607"><ele>150.0</ele><time>2026-04-29T10:37:29Z</time></trkpt><trkpt lat="43.214172515335434" lon="-0.8984664095189454"><ele>149.6</ele><time>2026-04-29T10:37:30Z</time></trkpt><trkpt lat="43.21412522940151" lon="-0.8985835122652706"><ele>149.2</ele><time>2026-04-29T10:37:31Z</time></trkpt><trkpt lat="43.21408401828135" lon="-0.8986976251050987"><ele>148.8</ele><time>2026-04-29T10:37:32Z</time></trkpt><trkpt lat="43.214040702928955" lon="-0.898807924279873"><ele>148.4</ele><time>2026-04-29T10:37:33Z</time></trkpt><trkpt lat="43.21399709583437" lon="-0.898919814276128"><ele>148.0</ele><time>2026-04-29T10:37:34Z</time></trkpt><trkpt lat="43.213956446397184" lon="-0.8990280721912087"><ele>148.0</ele><time>2026-04-29T10:37:35Z</time></trkpt><trkpt lat="43.21391144922735" lon="-0.8991353589180128"><ele>148.0</ele><time>2026-04-29T10:37:36Z</time></trkpt><trkpt lat="43.213865524301866" lon="-0.8992414044715917"><ele>148.0</ele><time>2026-04-29T10:37:37Z</time></trkpt><trkpt lat="43.213822210672994" lon="-0.8993504717995943"><ele>148.0</ele><time>2026-04-29T10:37:38Z</time></trkpt><trkpt lat="43.213778269024125" lon="-0.8994588774031923"><ele>148.0</ele><time>2026-04-29T10:37:39Z</time></trkpt><trkpt lat="43.2137336666758" lon="-0.8995684537187838"><ele>148.4</ele><time>2026-04-29T10:37:40Z</time></trkpt><trkpt lat="43.21368930189976" lon="-0.899676781328802"><ele>148.8</ele><time>2026-04-29T10:37:41Z</time></trkpt><trkpt lat="43.21364553468811" lon="-0.8997867119069197"><ele>149.2</ele><time>2026-04-29T10:37:42Z</time></trkpt><trkpt lat="43.21360166373274" lon="-0.899900668725785"><ele>149.6</ele><time>2026-04-29T10:37:43Z</time></trkpt><trkpt lat="43.21355691214823" lon="-0.9000185256092587"><ele>150.0</ele><time>2026-04-29T10:37:44Z</time></trkpt><trkpt lat="43.2135106317632" lon="-0.900133611025126"><ele>150.6</ele><time>2026-04-29T10:37:45Z</time></trkpt><trkpt lat="43.21346446458426" lon="-0.9002502073985382"><ele>151.2</ele><time>2026-04-29T10:37:46Z</time></trkpt><trkpt lat="43.213415182973996" lon="-0.9003644744647602"><ele>151.8</ele><time>2026-04-29T10:37:47Z</time></trkpt><trkpt lat="43.21336526310121" lon="-0.900476239728399"><ele>152.4</ele><time>2026-04-29T10:37:48Z</time></trkpt><trkpt lat="43.21332331863607" lon="-0.9005906246715967"><ele>153.0</ele><time>2026-04-29T10:37:49Z</time></trkpt><trkpt lat="43.21326207808268" lon="-0.9006831062376219"><ele>153.0</ele><time>2026-04-29T10:37:50Z</time></trkpt><trkpt lat="43.21321046521455" lon="-0.9007719980885831"><ele>153.0</ele><time>2026-04-29T10:37:51Z</time></trkpt><trkpt lat="43.213162140900195" lon="-0.9008562700253879"><ele>153.0</ele><time>2026-04-29T10:37:52Z</time></trkpt><trkpt lat="43.21311137260601" lon="-0.9009305518028032"><ele>153.0</ele><time>2026-04-29T10:37:53Z</time></trkpt><trkpt lat="43.21306340775455" lon="-0.9009998091046143"><ele>153.0</ele><time>2026-04-29T10:37:54Z</time></trkpt><trkpt lat="43.2130167845825" lon="-0.9010734073983012"><ele>153.0</ele><time>2026-04-29T10:37:55Z</time></trkpt><trkpt lat="43.21297070393084" lon="-0.9011495974685405"><ele>153.0</ele><time>2026-04-29T10:37:56Z</time></trkpt><trkpt lat="43.2129216893089" lon="-0.9012267344190737"><ele>153.16666666666666</ele><time>2026-04-29T10:37:57Z</time></trkpt><trkpt lat="43.212869191965446" lon="-0.9013006571617904"><ele>153.33333333333334</ele><time>2026-04-29T10:37:58Z</time></trkpt><trkpt lat="43.212816150350925" lon="-0.9013729391509133"><ele>153.5</ele><time>2026-04-29T10:37:59Z</time></trkpt><trkpt lat="43.21276804909777" lon="-0.9014410297425342"><ele>153.66666666666669</ele><time>2026-04-29T10:38:00Z</time></trkpt><trkpt lat="43.21272182975538" lon="-0.9015070392456249"><ele>153.83333333333334</ele><time>2026-04-29T10:38:01Z</time></trkpt><trkpt lat="43.21268034924286" lon="-0.9015726058496523"><ele>154.0</ele><time>2026-04-29T10:38:02Z</time></trkpt><trkpt lat="43.21259714268002" lon="-0.9016917461956773"><ele>154.0</ele><time>2026-04-29T10:38:04Z</time></trkpt><trkpt lat="43.21253229986889" lon="-0.9017824552652509"><ele>154.0</ele><time>2026-04-29T10:38:06Z</time></trkpt><trkpt lat="43.21247723387714" lon="-0.9018585881973691"><ele>154.0</ele><time>2026-04-29T10:38:08Z</time></trkpt><trkpt lat="43.21241691810203" lon="-0.9019563602706406"><ele>154.0</ele><time>2026-04-29T10:38:11.001Z</time></trkpt><trkpt lat="43.21237220520692" lon="-0.9020259087241852"><ele>154.0</ele><time>2026-04-29T10:38:13.001Z</time></trkpt><trkpt lat="43.212333243142616" lon="-0.9021068020855182"><ele>154.0</ele><time>2026-04-29T10:38:16.001Z</time></trkpt><trkpt lat="43.21225583630076" lon="-0.9021540113699769"><ele>154.0</ele><time>2026-04-29T10:39:34Z</time></trkpt><trkpt lat="43.21215675648741" lon="-0.9022258490210703"><ele>154.0</ele><time>2026-04-29T10:39:36Z</time></trkpt><trkpt lat="43.212059936770366" lon="-0.9023234873107109"><ele>154.0</ele><time>2026-04-29T10:39:38Z</time></trkpt><trkpt lat="43.21195766172439" lon="-0.9024244482685579"><ele>154.0</ele><time>2026-04-29T10:39:40Z</time></trkpt><trkpt lat="43.211902767984235" lon="-0.9024759214890454"><ele>154.0</ele><time>2026-04-29T10:39:41Z</time></trkpt><trkpt lat="43.21184447564137" lon="-0.9025303736174208"><ele>154.42857142857142</ele><time>2026-04-29T10:39:42Z</time></trkpt><trkpt lat="43.211785340232936" lon="-0.9025924362809569"><ele>154.85714285714286</ele><time>2026-04-29T10:39:43Z</time></trkpt><trkpt lat="43.2117237516662" lon="-0.9026494298795997"><ele>155.28571428571428</ele><time>2026-04-29T10:39:44Z</time></trkpt><trkpt lat="43.21166232990516" lon="-0.9027066788878427"><ele>155.71428571428572</ele><time>2026-04-29T10:39:45Z</time></trkpt><trkpt lat="43.211599729395296" lon="-0.902763796635977"><ele>156.14285714285714</ele><time>2026-04-29T10:39:46Z</time></trkpt><trkpt lat="43.21153763533114" lon="-0.9028191589058434"><ele>156.57142857142856</ele><time>2026-04-29T10:39:47Z</time></trkpt><trkpt lat="43.21147442943334" lon="-0.9028772221057354"><ele>157.0</ele><time>2026-04-29T10:39:48Z</time></trkpt><trkpt lat="43.21140834268785" lon="-0.9029327850052511"><ele>157.0</ele><time>2026-04-29T10:39:49Z</time></trkpt><trkpt lat="43.2113423867021" lon="-0.9029904657769865"><ele>157.0</ele><time>2026-04-29T10:39:50Z</time></trkpt><trkpt lat="43.21127616151083" lon="-0.903052043649469"><ele>157.0</ele><time>2026-04-29T10:39:51Z</time></trkpt><trkpt lat="43.211208557324866" lon="-0.9031185515079141"><ele>157.0</ele><time>2026-04-29T10:39:52Z</time></trkpt><trkpt lat="43.21113895199269" lon="-0.903185253496924"><ele>157.0</ele><time>2026-04-29T10:39:53Z</time></trkpt><trkpt lat="43.21106798335818" lon="-0.9032505939011828"><ele>157.0</ele><time>2026-04-29T10:39:54Z</time></trkpt><trkpt lat="43.21099535346397" lon="-0.9033127657996085"><ele>157.0</ele><time>2026-04-29T10:39:55Z</time></trkpt><trkpt lat="43.21092338670762" lon="-0.9033786337421837"><ele>157.0</ele><time>2026-04-29T10:39:56Z</time></trkpt><trkpt lat="43.21085058905207" lon="-0.9034476010391058"><ele>157.0</ele><time>2026-04-29T10:39:57Z</time></trkpt><trkpt lat="43.21077715943238" lon="-0.9035181349110543"><ele>157.0</ele><time>2026-04-29T10:39:58Z</time></trkpt><trkpt lat="43.210701611170386" lon="-0.9035862923901905"><ele>157.0</ele><time>2026-04-29T10:39:59Z</time></trkpt><trkpt lat="43.21062911552941" lon="-0.9036576217685596"><ele>157.0</ele><time>2026-04-29T10:40:00Z</time></trkpt><trkpt lat="43.210553549278764" lon="-0.90372743187891"><ele>157.8</ele><time>2026-04-29T10:40:01Z</time></trkpt><trkpt lat="43.210470939006946" lon="-0.9037895025751317"><ele>158.6</ele><time>2026-04-29T10:40:02.001Z</time></trkpt><trkpt lat="43.21039646042451" lon="-0.9038659531759842"><ele>159.4</ele><time>2026-04-29T10:40:03.001Z</time></trkpt><trkpt lat="43.210317138442846" lon="-0.9039336313950908"><ele>160.20000000000002</ele><time>2026-04-29T10:40:04.001Z</time></trkpt><trkpt lat="43.210240549836655" lon="-0.9040091721142177"><ele>161.0</ele><time>2026-04-29T10:40:05.001Z</time></trkpt><trkpt lat="43.21016310398437" lon="-0.9040862383519144"><ele>161.0</ele><time>2026-04-29T10:40:06.001Z</time></trkpt><trkpt lat="43.21008489363974" lon="-0.9041588965642516"><ele>161.0</ele><time>2026-04-29T10:40:07.001Z</time></trkpt><trkpt lat="43.210006277321405" lon="-0.9042336371572769"><ele>161.0</ele><time>2026-04-29T10:40:08.001Z</time></trkpt><trkpt lat="43.20992849442184" lon="-0.9043020332203907"><ele>161.0</ele><time>2026-04-29T10:40:09.001Z</time></trkpt><trkpt lat="43.20985133421584" lon="-0.9043696000222244"><ele>161.0</ele><time>2026-04-29T10:40:10.001Z</time></trkpt><trkpt lat="43.209770746129465" lon="-0.9044419998512369"><ele>160.4</ele><time>2026-04-29T10:40:11.001Z</time></trkpt><trkpt lat="43.209692535832666" lon="-0.9045173795924868"><ele>159.8</ele><time>2026-04-29T10:40:12.001Z</time></trkpt><trkpt lat="43.20961352625101" lon="-0.9045965623616111"><ele>159.20000000000002</ele><time>2026-04-29T10:40:13.001Z</time></trkpt><trkpt lat="43.209536437652666" lon="-0.9046715055796852"><ele>158.60000000000002</ele><time>2026-04-29T10:40:14.001Z</time></trkpt><trkpt lat="43.20945966588965" lon="-0.9047477239315674"><ele>158.0</ele><time>2026-04-29T10:40:15.001Z</time></trkpt><trkpt lat="43.209385373347494" lon="-0.9048142484117355"><ele>158.0</ele><time>2026-04-29T10:40:16.001Z</time></trkpt><trkpt lat="43.20931260596012" lon="-0.904884206234239"><ele>158.0</ele><time>2026-04-29T10:40:17.001Z</time></trkpt><trkpt lat="43.20924075735713" lon="-0.9049504094593052"><ele>158.0</ele><time>2026-04-29T10:40:18.001Z</time></trkpt><trkpt lat="43.209168864585635" lon="-0.9050182711073814"><ele>158.0</ele><time>2026-04-29T10:40:19.001Z</time></trkpt><trkpt lat="43.209098311543926" lon="-0.9050897878089338"><ele>158.0</ele><time>2026-04-29T10:40:20.001Z</time></trkpt><trkpt lat="43.20903036019985" lon="-0.9051599202612823"><ele>158.0</ele><time>2026-04-29T10:40:21.001Z</time></trkpt><trkpt lat="43.208966369261624" lon="-0.905243821879427"><ele>157.66666666666666</ele><time>2026-04-29T10:40:22.001Z</time></trkpt><trkpt lat="43.20891054693944" lon="-0.9053241632156146"><ele>157.33333333333331</ele><time>2026-04-29T10:40:23.001Z</time></trkpt><trkpt lat="43.208857312319964" lon="-0.9054066836065751"><ele>157.0</ele><time>2026-04-29T10:40:24.001Z</time></trkpt><trkpt lat="43.208809092566725" lon="-0.9054928222464874"><ele>156.66666666666666</ele><time>2026-04-29T10:40:25.001Z</time></trkpt><trkpt lat="43.208761147713616" lon="-0.9055793862651244"><ele>156.33333333333334</ele><time>2026-04-29T10:40:26.001Z</time></trkpt><trkpt lat="43.208712180542264" lon="-0.9056566037150693"><ele>156.0</ele><time>2026-04-29T10:40:27.001Z</time></trkpt><trkpt lat="43.20867169211706" lon="-0.9057482115902766"><ele>156.0</ele><time>2026-04-29T10:40:28.001Z</time></trkpt><trkpt lat="43.20857310586693" lon="-0.905769265528411"><ele>156.0</ele><time>2026-04-29T10:40:29.001Z</time></trkpt><trkpt lat="43.20848656324061" lon="-0.9057853595003175"><ele>156.0</ele><time>2026-04-29T10:40:30.001Z</time></trkpt><trkpt lat="43.20839232054096" lon="-0.905809060085139"><ele>156.0</ele><time>2026-04-29T10:40:31.001Z</time></trkpt><trkpt lat="43.208295931049946" lon="-0.9058292493572406"><ele>156.0</ele><time>2026-04-29T10:40:32.001Z</time></trkpt><trkpt lat="43.20820728134438" lon="-0.9058469403892611"><ele>156.33333333333334</ele><time>2026-04-29T10:40:33.001Z</time></trkpt><trkpt lat="43.20812692010729" lon="-0.9058626827598173"><ele>156.66666666666666</ele><time>2026-04-29T10:40:34.001Z</time></trkpt><trkpt lat="43.20805001470469" lon="-0.9058753766471895"><ele>157.0</ele><time>2026-04-29T10:40:35.001Z</time></trkpt><trkpt lat="43.2079836662599" lon="-0.9058861817964838"><ele>157.33333333333331</ele><time>2026-04-29T10:40:36.001Z</time></trkpt><trkpt lat="43.20788643302236" lon="-0.9059105110258155"><ele>157.66666666666666</ele><time>2026-04-29T10:40:38.001Z</time></trkpt><trkpt lat="43.20780375571778" lon="-0.905924893877725"><ele>158.0</ele><time>2026-04-29T10:40:45.001Z</time></trkpt><trkpt lat="43.207738295146235" lon="-0.9059538440600741"><ele>159.83333333333331</ele><time>2026-04-29T10:40:47.001Z</time></trkpt><trkpt lat="43.20763040662797" lon="-0.9059752837194402"><ele>161.66666666666666</ele><time>2026-04-29T10:40:49.001Z</time></trkpt><trkpt lat="43.207565114829166" lon="-0.9059687965641943"><ele>163.5</ele><time>2026-04-29T10:40:50.001Z</time></trkpt><trkpt lat="43.20749645266525" lon="-0.9060009855473837"><ele>165.33333333333334</ele><time>2026-04-29T10:40:51.001Z</time></trkpt><trkpt lat="43.20742119425156" lon="-0.9060155272527233"><ele>167.16666666666669</ele><time>2026-04-29T10:40:52.001Z</time></trkpt><trkpt lat="43.20734394742322" lon="-0.9060304531866565"><ele>169.0</ele><time>2026-04-29T10:40:53.001Z</time></trkpt><trkpt lat="43.20726810836685" lon="-0.9060451070893403"><ele>169.16666666666669</ele><time>2026-04-29T10:40:54.001Z</time></trkpt><trkpt lat="43.20718988435715" lon="-0.9060602218320961"><ele>169.33333333333334</ele><time>2026-04-29T10:40:55.001Z</time></trkpt><trkpt lat="43.207109122661016" lon="-0.9060617994692722"><ele>169.5</ele><time>2026-04-29T10:40:56.001Z</time></trkpt><trkpt lat="43.207027917769075" lon="-0.9060738598581785"><ele>169.66666666666666</ele><time>2026-04-29T10:40:57.001Z</time></trkpt><trkpt lat="43.206942859990285" lon="-0.9060940882537482"><ele>169.83333333333331</ele><time>2026-04-29T10:40:58.001Z</time></trkpt><trkpt lat="43.20685414723697" lon="-0.9061078339001455"><ele>170.0</ele><time>2026-04-29T10:40:59.001Z</time></trkpt><trkpt lat="43.2067648633051" lon="-0.9061224282638708"><ele>170.0</ele><time>2026-04-29T10:41:00.001Z</time></trkpt><trkpt lat="43.20667358966329" lon="-0.9061452023745288"><ele>170.0</ele><time>2026-04-29T10:41:01.001Z</time></trkpt><trkpt lat="43.206578722624734" lon="-0.9061599805786297"><ele>170.0</ele><time>2026-04-29T10:41:02.001Z</time></trkpt><trkpt lat="43.20648336613633" lon="-0.9061830861935013"><ele>170.0</ele><time>2026-04-29T10:41:03.001Z</time></trkpt><trkpt lat="43.20638338144417" lon="-0.9062039240196701"><ele>170.0</ele><time>2026-04-29T10:41:04.001Z</time></trkpt><trkpt lat="43.206284489467535" lon="-0.9062306978218039"><ele>167.8</ele><time>2026-04-29T10:41:05.001Z</time></trkpt><trkpt lat="43.20618669068134" lon="-0.9062474936202124"><ele>165.6</ele><time>2026-04-29T10:41:06.001Z</time></trkpt><trkpt lat="43.20608856274656" lon="-0.9062710705108721"><ele>163.4</ele><time>2026-04-29T10:41:07.001Z</time></trkpt><trkpt lat="43.205991231415645" lon="-0.9063116602673789"><ele>161.2</ele><time>2026-04-29T10:41:08.001Z</time></trkpt><trkpt lat="43.205894972680355" lon="-0.9063666504153595"><ele>159.0</ele><time>2026-04-29T10:41:09.001Z</time></trkpt><trkpt lat="43.20580301359495" lon="-0.9064334441762455"><ele>159.0</ele><time>2026-04-29T10:41:10.001Z</time></trkpt><trkpt lat="43.205722903682705" lon="-0.9065125986537775"><ele>159.0</ele><time>2026-04-29T10:41:11.001Z</time></trkpt><trkpt lat="43.20564685528842" lon="-0.9066023133479675"><ele>159.0</ele><time>2026-04-29T10:41:12.001Z</time></trkpt><trkpt lat="43.20557163840358" lon="-0.9066977290986051"><ele>159.0</ele><time>2026-04-29T10:41:13.001Z</time></trkpt><trkpt lat="43.20549698373239" lon="-0.9067962788859699"><ele>159.0</ele><time>2026-04-29T10:41:14.001Z</time></trkpt><trkpt lat="43.205434635381465" lon="-0.9069055652781548"><ele>158.8</ele><time>2026-04-29T10:41:15.001Z</time></trkpt><trkpt lat="43.20534787031396" lon="-0.9069994408289513"><ele>158.60000000000002</ele><time>2026-04-29T10:41:16.001Z</time></trkpt><trkpt lat="43.20527575492985" lon="-0.9071070573117027"><ele>158.4</ele><time>2026-04-29T10:41:17.001Z</time></trkpt><trkpt lat="43.20520266492018" lon="-0.9072168022450848"><ele>158.20000000000002</ele><time>2026-04-29T10:41:18.001Z</time></trkpt><trkpt lat="43.2051348720697" lon="-0.9073226089958056"><ele>158.0</ele><time>2026-04-29T10:41:19.001Z</time></trkpt><trkpt lat="43.20506724772371" lon="-0.9074325586817379"><ele>158.0</ele><time>2026-04-29T10:41:20.001Z</time></trkpt><trkpt lat="43.204997257008564" lon="-0.907538703181656"><ele>158.0</ele><time>2026-04-29T10:41:21.001Z</time></trkpt><trkpt lat="43.20492742684552" lon="-0.9076436580784704"><ele>158.0</ele><time>2026-04-29T10:41:22.001Z</time></trkpt><trkpt lat="43.204853041846974" lon="-0.9077409713731722"><ele>158.0</ele><time>2026-04-29T10:41:23.001Z</time></trkpt><trkpt lat="43.204778560555475" lon="-0.9078343094697631"><ele>158.0</ele><time>2026-04-29T10:41:24.001Z</time></trkpt><trkpt lat="43.20470315345674" lon="-0.9079292923654549"><ele>158.0</ele><time>2026-04-29T10:41:25.001Z</time></trkpt><trkpt lat="43.204631254862704" lon="-0.9080288651443078"><ele>158.0</ele><time>2026-04-29T10:41:26Z</time></trkpt><trkpt lat="43.20456024272874" lon="-0.9081300660019918"><ele>158.0</ele><time>2026-04-29T10:41:27Z</time></trkpt><trkpt lat="43.20448655401175" lon="-0.908231490154751"><ele>158.0</ele><time>2026-04-29T10:41:28Z</time></trkpt><trkpt lat="43.2044149919381" lon="-0.9083331343898402"><ele>158.0</ele><time>2026-04-29T10:41:29Z</time></trkpt><trkpt lat="43.20434308067018" lon="-0.9084332393960665"><ele>157.8</ele><time>2026-04-29T10:41:30Z</time></trkpt><trkpt lat="43.20427226010083" lon="-0.9085360378448262"><ele>157.60000000000002</ele><time>2026-04-29T10:41:31Z</time></trkpt><trkpt lat="43.20420052421565" lon="-0.9086359765666641"><ele>157.39999999999998</ele><time>2026-04-29T10:41:32Z</time></trkpt><trkpt lat="43.20413070963763" lon="-0.908733935093952"><ele>157.2</ele><time>2026-04-29T10:41:33Z</time></trkpt><trkpt lat="43.20406057511088" lon="-0.9088308026897196"><ele>157.0</ele><time>2026-04-29T10:41:34Z</time></trkpt><trkpt lat="43.20399638566683" lon="-0.9089306922496173"><ele>157.0</ele><time>2026-04-29T10:41:35Z</time></trkpt><trkpt lat="43.20393491508544" lon="-0.9090072613438146"><ele>157.0</ele><time>2026-04-29T10:41:36Z</time></trkpt><trkpt lat="43.203881125674336" lon="-0.9090863480590592"><ele>157.0</ele><time>2026-04-29T10:41:37Z</time></trkpt><trkpt lat="43.20382734170533" lon="-0.9091598364971504"><ele>157.0</ele><time>2026-04-29T10:41:38Z</time></trkpt><trkpt lat="43.203780789308524" lon="-0.9092438662719229"><ele>157.0</ele><time>2026-04-29T10:41:39Z</time></trkpt><trkpt lat="43.203726941472574" lon="-0.9093187627535367"><ele>157.0</ele><time>2026-04-29T10:41:40Z</time></trkpt><trkpt lat="43.20367068444549" lon="-0.9093994340968063"><ele>158.5</ele><time>2026-04-29T10:41:41Z</time></trkpt><trkpt lat="43.20360965534069" lon="-0.9094819499132156"><ele>160.0</ele><time>2026-04-29T10:41:42Z</time></trkpt><trkpt lat="43.20354917060566" lon="-0.9095658047640829"><ele>161.5</ele><time>2026-04-29T10:41:43Z</time></trkpt><trkpt lat="43.20348610880786" lon="-0.9096561293829366"><ele>163.0</ele><time>2026-04-29T10:41:44Z</time></trkpt><trkpt lat="43.203424796164846" lon="-0.9097460905309968"><ele>164.5</ele><time>2026-04-29T10:41:45Z</time></trkpt><trkpt lat="43.2033620948297" lon="-0.9098404620360176"><ele>166.0</ele><time>2026-04-29T10:41:46Z</time></trkpt><trkpt lat="43.20329581580386" lon="-0.909931981260362"><ele>166.0</ele><time>2026-04-29T10:41:47Z</time></trkpt><trkpt lat="43.20322967048653" lon="-0.9100248090031124"><ele>166.0</ele><time>2026-04-29T10:41:48Z</time></trkpt><trkpt lat="43.203165461121394" lon="-0.9101160208155706"><ele>166.0</ele><time>2026-04-29T10:41:49Z</time></trkpt><trkpt lat="43.20310007233613" lon="-0.9102101457028927"><ele>166.0</ele><time>2026-04-29T10:41:50Z</time></trkpt><trkpt lat="43.203034983482794" lon="-0.9103002019164415"><ele>166.0</ele><time>2026-04-29T10:41:51Z</time></trkpt><trkpt lat="43.20296941910372" lon="-0.9103906091406583"><ele>164.8</ele><time>2026-04-29T10:41:52Z</time></trkpt><trkpt lat="43.20290384052395" lon="-0.9104881820964429"><ele>163.60000000000002</ele><time>2026-04-29T10:41:53Z</time></trkpt><trkpt lat="43.20283716246784" lon="-0.9105784284687561"><ele>162.4</ele><time>2026-04-29T10:41:54Z</time></trkpt><trkpt lat="43.202772102021655" lon="-0.9106643646374577"><ele>161.2</ele><time>2026-04-29T10:41:55Z</time></trkpt><trkpt lat="43.202720633192634" lon="-0.9107607531941091"><ele>160.0</ele><time>2026-04-29T10:41:56Z</time></trkpt><trkpt lat="43.202664160783975" lon="-0.9108434051060103"><ele>159.5</ele><time>2026-04-29T10:41:57Z</time></trkpt><trkpt lat="43.20260785151575" lon="-0.9109246015192864"><ele>159.0</ele><time>2026-04-29T10:41:58Z</time></trkpt><trkpt lat="43.202550466442894" lon="-0.9110041092299931"><ele>158.5</ele><time>2026-04-29T10:41:59Z</time></trkpt><trkpt lat="43.20249069010976" lon="-0.9110854415762807"><ele>158.0</ele><time>2026-04-29T10:42:00Z</time></trkpt><trkpt lat="43.20242945621181" lon="-0.911166718291469"><ele>157.5</ele><time>2026-04-29T10:42:01Z</time></trkpt><trkpt lat="43.202367124282866" lon="-0.9112497792410789"><ele>157.0</ele><time>2026-04-29T10:42:02Z</time></trkpt><trkpt lat="43.20230860390648" lon="-0.9113360464878553"><ele>157.0</ele><time>2026-04-29T10:42:03Z</time></trkpt><trkpt lat="43.20224808685595" lon="-0.9114248519568963"><ele>157.0</ele><time>2026-04-29T10:42:04Z</time></trkpt><trkpt lat="43.202189242024595" lon="-0.9115197556692629"><ele>157.0</ele><time>2026-04-29T10:42:05Z</time></trkpt><trkpt lat="43.202134591978975" lon="-0.9116151425399265"><ele>157.0</ele><time>2026-04-29T10:42:06Z</time></trkpt><trkpt lat="43.202077490870295" lon="-0.9117113119732491"><ele>157.0</ele><time>2026-04-29T10:42:07Z</time></trkpt><trkpt lat="43.20202267926835" lon="-0.9118106026792872"><ele>157.0</ele><time>2026-04-29T10:42:08Z</time></trkpt><trkpt lat="43.201972766290076" lon="-0.9119086612307576"><ele>158.0</ele><time>2026-04-29T10:42:09Z</time></trkpt><trkpt lat="43.201924044284695" lon="-0.9120134350766033"><ele>159.0</ele><time>2026-04-29T10:42:10Z</time></trkpt><trkpt lat="43.20187549926911" lon="-0.9121216661828356"><ele>160.0</ele><time>2026-04-29T10:42:11Z</time></trkpt><trkpt lat="43.201828750862035" lon="-0.9122330842687575"><ele>161.0</ele><time>2026-04-29T10:42:12Z</time></trkpt><trkpt lat="43.20178103896248" lon="-0.9123556154524193"><ele>162.0</ele><time>2026-04-29T10:42:13Z</time></trkpt><trkpt lat="43.20173212232788" lon="-0.9124703127864509"><ele>162.8</ele><time>2026-04-29T10:42:14Z</time></trkpt><trkpt lat="43.2016863487414" lon="-0.9125850249247212"><ele>163.6</ele><time>2026-04-29T10:42:15Z</time></trkpt><trkpt lat="43.201639474864265" lon="-0.9127063144654668"><ele>164.4</ele><time>2026-04-29T10:42:16Z</time></trkpt><trkpt lat="43.201593194080296" lon="-0.9128277773695065"><ele>165.20000000000002</ele><time>2026-04-29T10:42:17.001Z</time></trkpt><trkpt lat="43.20154541530561" lon="-0.9129473462812555"><ele>166.0</ele><time>2026-04-29T10:42:18.001Z</time></trkpt><trkpt lat="43.20149811935462" lon="-0.9130644473293843"><ele>164.4</ele><time>2026-04-29T10:42:19.001Z</time></trkpt><trkpt lat="43.2014520688141" lon="-0.9131823228958684"><ele>162.8</ele><time>2026-04-29T10:42:20.001Z</time></trkpt><trkpt lat="43.201402601846226" lon="-0.913298795729344"><ele>161.20000000000002</ele><time>2026-04-29T10:42:21.001Z</time></trkpt><trkpt lat="43.2013497466299" lon="-0.9134145153459531"><ele>159.60000000000002</ele><time>2026-04-29T10:42:22.001Z</time></trkpt><trkpt lat="43.201289644665685" lon="-0.9135269183629647"><ele>158.0</ele><time>2026-04-29T10:42:23.001Z</time></trkpt><trkpt lat="43.20122052971991" lon="-0.9136314618563687"><ele>161.4</ele><time>2026-04-29T10:42:24.001Z</time></trkpt><trkpt lat="43.20115011789501" lon="-0.9137239872582302"><ele>164.8</ele><time>2026-04-29T10:42:25.001Z</time></trkpt><trkpt lat="43.20107147662477" lon="-0.9138186005785695"><ele>168.2</ele><time>2026-04-29T10:42:26.001Z</time></trkpt><trkpt lat="43.20098773846633" lon="-0.913895976814321"><ele>171.6</ele><time>2026-04-29T10:42:27.001Z</time></trkpt><trkpt lat="43.200899565899526" lon="-0.9139716934640598"><ele>175.0</ele><time>2026-04-29T10:42:28.001Z</time></trkpt><trkpt lat="43.20080702204879" lon="-0.9140408501012102"><ele>175.0</ele><time>2026-04-29T10:42:29.001Z</time></trkpt><trkpt lat="43.20071950175511" lon="-0.9141171838824015"><ele>175.0</ele><time>2026-04-29T10:42:30.001Z</time></trkpt><trkpt lat="43.20062682432689" lon="-0.9141905478502308"><ele>175.0</ele><time>2026-04-29T10:42:31.001Z</time></trkpt><trkpt lat="43.20053642256827" lon="-0.9142677991918503"><ele>175.0</ele><time>2026-04-29T10:42:32.001Z</time></trkpt><trkpt lat="43.200447295945416" lon="-0.9143422710205776"><ele>175.0</ele><time>2026-04-29T10:42:33.001Z</time></trkpt><trkpt lat="43.20035400690212" lon="-0.9144168246719242"><ele>176.4</ele><time>2026-04-29T10:42:34.001Z</time></trkpt><trkpt lat="43.20026225609341" lon="-0.9144870657334202"><ele>177.8</ele><time>2026-04-29T10:42:35.001Z</time></trkpt><trkpt lat="43.200171095243455" lon="-0.9145602472822874"><ele>179.2</ele><time>2026-04-29T10:42:36.001Z</time></trkpt><trkpt lat="43.200076929651594" lon="-0.9146340802929653"><ele>180.6</ele><time>2026-04-29T10:42:37.001Z</time></trkpt><trkpt lat="43.1999871338907" lon="-0.9147132684964655"><ele>182.0</ele><time>2026-04-29T10:42:38.001Z</time></trkpt><trkpt lat="43.199891750628915" lon="-0.9147862142007299"><ele>181.8</ele><time>2026-04-29T10:42:39.001Z</time></trkpt><trkpt lat="43.199801191835434" lon="-0.9148643159013143"><ele>181.6</ele><time>2026-04-29T10:42:40.001Z</time></trkpt><trkpt lat="43.19970957077881" lon="-0.9149398374401491"><ele>181.4</ele><time>2026-04-29T10:42:41.001Z</time></trkpt><trkpt lat="43.19961859035121" lon="-0.9150157993462535"><ele>181.20000000000002</ele><time>2026-04-29T10:42:42.001Z</time></trkpt><trkpt lat="43.19952598903093" lon="-0.9150911758934883"><ele>181.0</ele><time>2026-04-29T10:42:43.001Z</time></trkpt><trkpt lat="43.199437258095436" lon="-0.9151670088491125"><ele>181.0</ele><time>2026-04-29T10:42:44.001Z</time></trkpt><trkpt lat="43.19934287505509" lon="-0.915239880905763"><ele>181.0</ele><time>2026-04-29T10:42:45.001Z</time></trkpt><trkpt lat="43.199248485586224" lon="-0.9153117476447471"><ele>181.0</ele><time>2026-04-29T10:42:46.001Z</time></trkpt><trkpt lat="43.19915386920504" lon="-0.9153840443057228"><ele>181.0</ele><time>2026-04-29T10:42:47.001Z</time></trkpt><trkpt lat="43.199061371632645" lon="-0.9154596659064709"><ele>181.0</ele><time>2026-04-29T10:42:48.001Z</time></trkpt><trkpt lat="43.19896858677871" lon="-0.91553396076955"><ele>180.4</ele><time>2026-04-29T10:42:49.001Z</time></trkpt><trkpt lat="43.19888142282638" lon="-0.9156167691908148"><ele>179.8</ele><time>2026-04-29T10:42:50.001Z</time></trkpt><trkpt lat="43.19878923822729" lon="-0.9156920728839235"><ele>179.20000000000002</ele><time>2026-04-29T10:42:51.001Z</time></trkpt><trkpt lat="43.198696178423084" lon="-0.9157646211735251"><ele>178.60000000000002</ele><time>2026-04-29T10:42:52.001Z</time></trkpt><trkpt lat="43.198607372359696" lon="-0.9158441016616855"><ele>178.0</ele><time>2026-04-29T10:42:53.001Z</time></trkpt><trkpt lat="43.19851884757915" lon="-0.9159259863033747"><ele>178.0</ele><time>2026-04-29T10:42:54.001Z</time></trkpt><trkpt lat="43.19843267219463" lon="-0.9160085280070811"><ele>178.0</ele><time>2026-04-29T10:42:55.001Z</time></trkpt><trkpt lat="43.19834761149406" lon="-0.9160946913361986"><ele>178.0</ele><time>2026-04-29T10:42:56.001Z</time></trkpt><trkpt lat="43.19826452000731" lon="-0.9161783970607887"><ele>178.0</ele><time>2026-04-29T10:42:57.001Z</time></trkpt><trkpt lat="43.19818308066044" lon="-0.9162699367326628"><ele>178.0</ele><time>2026-04-29T10:42:58.001Z</time></trkpt><trkpt lat="43.19810592063632" lon="-0.9163662458091544"><ele>177.0</ele><time>2026-04-29T10:42:59.001Z</time></trkpt><trkpt lat="43.19802970051942" lon="-0.9164710558174994"><ele>176.0</ele><time>2026-04-29T10:43:00.001Z</time></trkpt><trkpt lat="43.19795469567633" lon="-0.9165746693468905"><ele>175.0</ele><time>2026-04-29T10:43:01.001Z</time></trkpt><trkpt lat="43.19788414255253" lon="-0.9166807034285381"><ele>174.0</ele><time>2026-04-29T10:43:02.001Z</time></trkpt><trkpt lat="43.197812766508626" lon="-0.9167877892792485"><ele>173.0</ele><time>2026-04-29T10:43:03.001Z</time></trkpt><trkpt lat="43.197742646265056" lon="-0.9168916406001278"><ele>173.0</ele><time>2026-04-29T10:43:04.001Z</time></trkpt><trkpt lat="43.19767290254157" lon="-0.9169937182219583"><ele>173.0</ele><time>2026-04-29T10:43:05.001Z</time></trkpt><trkpt lat="43.19760390348789" lon="-0.9170975997672365"><ele>173.0</ele><time>2026-04-29T10:43:06.001Z</time></trkpt><trkpt lat="43.19752985167419" lon="-0.9172005654211762"><ele>173.0</ele><time>2026-04-29T10:43:07.001Z</time></trkpt><trkpt lat="43.19746249661129" lon="-0.9173050006651198"><ele>173.0</ele><time>2026-04-29T10:43:08.001Z</time></trkpt><trkpt lat="43.197394376448685" lon="-0.9174088610766149"><ele>171.8</ele><time>2026-04-29T10:43:09.001Z</time></trkpt><trkpt lat="43.1973210538985" lon="-0.9175110874921003"><ele>170.60000000000002</ele><time>2026-04-29T10:43:10.001Z</time></trkpt><trkpt lat="43.197253499064026" lon="-0.9176158132002187"><ele>169.39999999999998</ele><time>2026-04-29T10:43:11.001Z</time></trkpt><trkpt lat="43.19718452904568" lon="-0.9177180626392522"><ele>168.2</ele><time>2026-04-29T10:43:12.001Z</time></trkpt><trkpt lat="43.1971170219756" lon="-0.9178201214299666"><ele>167.0</ele><time>2026-04-29T10:43:13.001Z</time></trkpt><trkpt lat="43.197049933648465" lon="-0.91792560996729"><ele>167.0</ele><time>2026-04-29T10:43:14.001Z</time></trkpt><trkpt lat="43.19698219334807" lon="-0.9180285674995713"><ele>167.0</ele><time>2026-04-29T10:43:15.001Z</time></trkpt><trkpt lat="43.1969103847806" lon="-0.918127015571739"><ele>167.0</ele><time>2026-04-29T10:43:16.001Z</time></trkpt><trkpt lat="43.196842084799385" lon="-0.9182268340362487"><ele>167.0</ele><time>2026-04-29T10:43:17.001Z</time></trkpt><trkpt lat="43.196776717043946" lon="-0.9183306262990729"><ele>167.0</ele><time>2026-04-29T10:43:18.001Z</time></trkpt><trkpt lat="43.19670741367879" lon="-0.9184335121140043"><ele>167.0</ele><time>2026-04-29T10:43:19.001Z</time></trkpt><trkpt lat="43.196638003011124" lon="-0.9185356327880859"><ele>167.0</ele><time>2026-04-29T10:43:20.001Z</time></trkpt><trkpt lat="43.19656929891446" lon="-0.9186345645796876"><ele>167.0</ele><time>2026-04-29T10:43:21.001Z</time></trkpt><trkpt lat="43.19650030342488" lon="-0.918739035012379"><ele>167.0</ele><time>2026-04-29T10:43:22.001Z</time></trkpt><trkpt lat="43.196435741160364" lon="-0.9188411879187929"><ele>167.0</ele><time>2026-04-29T10:43:23.001Z</time></trkpt><trkpt lat="43.196365753768816" lon="-0.918936900883834"><ele>166.6</ele><time>2026-04-29T10:43:24.001Z</time></trkpt><trkpt lat="43.19629792917541" lon="-0.9190343971560476"><ele>166.2</ele><time>2026-04-29T10:43:25.001Z</time></trkpt><trkpt lat="43.196231267131424" lon="-0.9191397371020359"><ele>165.8</ele><time>2026-04-29T10:43:26.001Z</time></trkpt><trkpt lat="43.19616661401385" lon="-0.9192425657309249"><ele>165.4</ele><time>2026-04-29T10:43:27.001Z</time></trkpt><trkpt lat="43.19609556479482" lon="-0.9193413210797087"><ele>165.0</ele><time>2026-04-29T10:43:28.001Z</time></trkpt><trkpt lat="43.19602398384804" lon="-0.9194438328942605"><ele>165.0</ele><time>2026-04-29T10:43:29.001Z</time></trkpt><trkpt lat="43.19595569325902" lon="-0.9195471947644899"><ele>165.0</ele><time>2026-04-29T10:43:30.001Z</time></trkpt><trkpt lat="43.1958856301187" lon="-0.9196510169049943"><ele>165.0</ele><time>2026-04-29T10:43:31.001Z</time></trkpt><trkpt lat="43.19581593065665" lon="-0.9197571564917895"><ele>165.0</ele><time>2026-04-29T10:43:32Z</time></trkpt><trkpt lat="43.19574531931707" lon="-0.9198646965194236"><ele>165.0</ele><time>2026-04-29T10:43:33Z</time></trkpt><trkpt lat="43.19567167668419" lon="-0.9199719347666947"><ele>164.6</ele><time>2026-04-29T10:43:34Z</time></trkpt><trkpt lat="43.19559623097622" lon="-0.9200762617347841"><ele>164.2</ele><time>2026-04-29T10:43:35Z</time></trkpt><trkpt lat="43.19552186802009" lon="-0.9201865243227361"><ele>163.8</ele><time>2026-04-29T10:43:36Z</time></trkpt><trkpt lat="43.195450394074506" lon="-0.9202956263486676"><ele>163.4</ele><time>2026-04-29T10:43:37Z</time></trkpt><trkpt lat="43.19537537310995" lon="-0.9204027068362947"><ele>163.0</ele><time>2026-04-29T10:43:38Z</time></trkpt><trkpt lat="43.195301995928844" lon="-0.9205075884122543"><ele>163.0</ele><time>2026-04-29T10:43:39Z</time></trkpt><trkpt lat="43.19523017729057" lon="-0.9206111343100171"><ele>163.0</ele><time>2026-04-29T10:43:40Z</time></trkpt><trkpt lat="43.19515961375172" lon="-0.9207142163954488"><ele>163.0</ele><time>2026-04-29T10:43:41Z</time></trkpt><trkpt lat="43.19508932588453" lon="-0.9208175055740682"><ele>163.0</ele><time>2026-04-29T10:43:42Z</time></trkpt><trkpt lat="43.19501910546417" lon="-0.9209130646997846"><ele>163.0</ele><time>2026-04-29T10:43:43Z</time></trkpt><trkpt lat="43.19494430432785" lon="-0.921001753139065"><ele>163.0</ele><time>2026-04-29T10:43:44Z</time></trkpt><trkpt lat="43.19486729857398" lon="-0.9210896750029365"><ele>163.0</ele><time>2026-04-29T10:43:45Z</time></trkpt><trkpt lat="43.194787958742396" lon="-0.92117928731233"><ele>163.0</ele><time>2026-04-29T10:43:46Z</time></trkpt><trkpt lat="43.194710486763796" lon="-0.9212712582345025"><ele>163.0</ele><time>2026-04-29T10:43:47Z</time></trkpt><trkpt lat="43.1946330408931" lon="-0.9213654904143682"><ele>163.0</ele><time>2026-04-29T10:43:48Z</time></trkpt><trkpt lat="43.194551608495324" lon="-0.921455540374963"><ele>163.0</ele><time>2026-04-29T10:43:49Z</time></trkpt><trkpt lat="43.19447358891077" lon="-0.9215420581156638"><ele>163.0</ele><time>2026-04-29T10:43:50Z</time></trkpt><trkpt lat="43.19439711383134" lon="-0.9216287156935498"><ele>163.0</ele><time>2026-04-29T10:43:51Z</time></trkpt><trkpt lat="43.19432125690013" lon="-0.9217167411909447"><ele>163.0</ele><time>2026-04-29T10:43:52Z</time></trkpt><trkpt lat="43.19424709186081" lon="-0.9218102026046632"><ele>163.0</ele><time>2026-04-29T10:43:53Z</time></trkpt><trkpt lat="43.194177972426914" lon="-0.9219102973707438"><ele>163.2</ele><time>2026-04-29T10:43:54Z</time></trkpt><trkpt lat="43.19412023449103" lon="-0.922023059129106"><ele>163.4</ele><time>2026-04-29T10:43:55Z</time></trkpt><trkpt lat="43.194071953274545" lon="-0.9221419110208359"><ele>163.6</ele><time>2026-04-29T10:43:56Z</time></trkpt><trkpt lat="43.194026796174334" lon="-0.9222669135769953"><ele>163.79999999999998</ele><time>2026-04-29T10:43:57Z</time></trkpt><trkpt lat="43.193988659458405" lon="-0.922393667612002"><ele>164.0</ele><time>2026-04-29T10:43:58Z</time></trkpt><trkpt lat="43.19396248497815" lon="-0.9225224636726007"><ele>163.39999999999998</ele><time>2026-04-29T10:43:59Z</time></trkpt><trkpt lat="43.193947986352136" lon="-0.9226538418803331"><ele>162.8</ele><time>2026-04-29T10:44:00Z</time></trkpt><trkpt lat="43.193939376402206" lon="-0.9227885738808711"><ele>162.2</ele><time>2026-04-29T10:44:01Z</time></trkpt><trkpt lat="43.193933429812674" lon="-0.9229231300082441"><ele>161.60000000000002</ele><time>2026-04-29T10:44:02Z</time></trkpt><trkpt lat="43.19392831985633" lon="-0.9230543932605441"><ele>161.0</ele><time>2026-04-29T10:44:03Z</time></trkpt><trkpt lat="43.19392887566219" lon="-0.9231829823469109"><ele>161.0</ele><time>2026-04-29T10:44:04Z</time></trkpt><trkpt lat="43.19393161422813" lon="-0.9233105912108163"><ele>161.0</ele><time>2026-04-29T10:44:05Z</time></trkpt><trkpt lat="43.19393840610916" lon="-0.923439310811791"><ele>161.0</ele><time>2026-04-29T10:44:06Z</time></trkpt><trkpt lat="43.19393540025841" lon="-0.9235724777953337"><ele>161.0</ele><time>2026-04-29T10:44:07Z</time></trkpt><trkpt lat="43.19392959079201" lon="-0.9236897037659787"><ele>161.0</ele><time>2026-04-29T10:44:08Z</time></trkpt><trkpt lat="43.19392826950084" lon="-0.9238084376802195"><ele>161.5</ele><time>2026-04-29T10:44:09Z</time></trkpt><trkpt lat="43.19392641153981" lon="-0.9239265233771963"><ele>162.0</ele><time>2026-04-29T10:44:10Z</time></trkpt><trkpt lat="43.193927184869025" lon="-0.9240425970857725"><ele>162.5</ele><time>2026-04-29T10:44:11Z</time></trkpt><trkpt lat="43.19392795044965" lon="-0.9241576523048508"><ele>163.0</ele><time>2026-04-29T10:44:12Z</time></trkpt><trkpt lat="43.1939254286336" lon="-0.9242720059060352"><ele>163.5</ele><time>2026-04-29T10:44:13Z</time></trkpt><trkpt lat="43.193921583406336" lon="-0.9243849065179076"><ele>164.0</ele><time>2026-04-29T10:44:14Z</time></trkpt><trkpt lat="43.19392101925186" lon="-0.9244970292562449"><ele>164.16666666666666</ele><time>2026-04-29T10:44:15Z</time></trkpt><trkpt lat="43.19392076988656" lon="-0.924608239939166"><ele>164.33333333333331</ele><time>2026-04-29T10:44:16Z</time></trkpt><trkpt lat="43.19392100281941" lon="-0.9247201136825332"><ele>164.5</ele><time>2026-04-29T10:44:17Z</time></trkpt><trkpt lat="43.19391966950494" lon="-0.9248340318162519"><ele>164.66666666666666</ele><time>2026-04-29T10:44:18Z</time></trkpt><trkpt lat="43.193920136801516" lon="-0.9249476438467839"><ele>164.83333333333334</ele><time>2026-04-29T10:44:19Z</time></trkpt><trkpt lat="43.19392142941888" lon="-0.9250619876518021"><ele>165.0</ele><time>2026-04-29T10:44:20Z</time></trkpt><trkpt lat="43.193922452500644" lon="-0.9251763094582174"><ele>165.16666666666666</ele><time>2026-04-29T10:44:21Z</time></trkpt><trkpt lat="43.19392646042247" lon="-0.9252887534844567"><ele>165.33333333333334</ele><time>2026-04-29T10:44:22Z</time></trkpt><trkpt lat="43.19393528193945" lon="-0.9253999544505449"><ele>165.5</ele><time>2026-04-29T10:44:23Z</time></trkpt><trkpt lat="43.19394402193975" lon="-0.9255148108388692"><ele>165.66666666666669</ele><time>2026-04-29T10:44:24Z</time></trkpt><trkpt lat="43.193958747252715" lon="-0.9256296926971841"><ele>165.83333333333334</ele><time>2026-04-29T10:44:25Z</time></trkpt><trkpt lat="43.193980207873054" lon="-0.9257436957940416"><ele>166.0</ele><time>2026-04-29T10:44:26Z</time></trkpt><trkpt lat="43.19400671365583" lon="-0.9258567654880225"><ele>166.33333333333334</ele><time>2026-04-29T10:44:27Z</time></trkpt><trkpt lat="43.19403620674847" lon="-0.9259675108358941"><ele>166.66666666666669</ele><time>2026-04-29T10:44:28Z</time></trkpt><trkpt lat="43.19406513471305" lon="-0.9260821641063366"><ele>167.0</ele><time>2026-04-29T10:44:29Z</time></trkpt><trkpt lat="43.19409220577027" lon="-0.926198883242749"><ele>167.33333333333334</ele><time>2026-04-29T10:44:30Z</time></trkpt><trkpt lat="43.194120117925294" lon="-0.9263168861750253"><ele>167.66666666666666</ele><time>2026-04-29T10:44:31Z</time></trkpt><trkpt lat="43.194149431068325" lon="-0.9264369178630446"><ele>168.0</ele><time>2026-04-29T10:44:32Z</time></trkpt><trkpt lat="43.19418105744002" lon="-0.9265550673985367"><ele>168.0</ele><time>2026-04-29T10:44:33Z</time></trkpt><trkpt lat="43.1942109469183" lon="-0.9266731296565315"><ele>168.0</ele><time>2026-04-29T10:44:34Z</time></trkpt><trkpt lat="43.19424161760999" lon="-0.9267934835476231"><ele>168.0</ele><time>2026-04-29T10:44:35Z</time></trkpt><trkpt lat="43.19427201287071" lon="-0.9269114609573343"><ele>168.0</ele><time>2026-04-29T10:44:36Z</time></trkpt><trkpt lat="43.19430352316386" lon="-0.9270310209385202"><ele>168.0</ele><time>2026-04-29T10:44:37Z</time></trkpt><trkpt lat="43.19433623355704" lon="-0.9271495040520006"><ele>168.0</ele><time>2026-04-29T10:44:38Z</time></trkpt><trkpt lat="43.19436783988978" lon="-0.927269807968759"><ele>168.0</ele><time>2026-04-29T10:44:39Z</time></trkpt><trkpt lat="43.19439409193983" lon="-0.9273880198963393"><ele>168.0</ele><time>2026-04-29T10:44:40Z</time></trkpt><trkpt lat="43.19441534859277" lon="-0.9275113031990303"><ele>168.0</ele><time>2026-04-29T10:44:41Z</time></trkpt><trkpt lat="43.19442752778384" lon="-0.9276379702863021"><ele>168.0</ele><time>2026-04-29T10:44:42Z</time></trkpt><trkpt lat="43.19443194663523" lon="-0.9277652932616256"><ele>168.0</ele><time>2026-04-29T10:44:43Z</time></trkpt><trkpt lat="43.19442492916208" lon="-0.9278921349403924"><ele>168.0</ele><time>2026-04-29T10:44:44Z</time></trkpt><trkpt lat="43.19442516914253" lon="-0.9280259234673904"><ele>168.0</ele><time>2026-04-29T10:44:45Z</time></trkpt><trkpt lat="43.19442651692718" lon="-0.9281552248680708"><ele>168.0</ele><time>2026-04-29T10:44:46Z</time></trkpt><trkpt lat="43.19442528551782" lon="-0.9282824373528655"><ele>168.0</ele><time>2026-04-29T10:44:47Z</time></trkpt><trkpt lat="43.19442380485483" lon="-0.9284106133169743"><ele>168.0</ele><time>2026-04-29T10:44:48Z</time></trkpt><trkpt lat="43.19442363045751" lon="-0.9285394604181771"><ele>168.0</ele><time>2026-04-29T10:44:49Z</time></trkpt><trkpt lat="43.19441763386045" lon="-0.9286704842789957"><ele>168.0</ele><time>2026-04-29T10:44:50Z</time></trkpt><trkpt lat="43.19440894811105" lon="-0.9288038354773758"><ele>168.0</ele><time>2026-04-29T10:44:51Z</time></trkpt><trkpt lat="43.19440501707161" lon="-0.9289385528077516"><ele>168.0</ele><time>2026-04-29T10:44:52Z</time></trkpt><trkpt lat="43.194408401323024" lon="-0.9290750943060243"><ele>168.0</ele><time>2026-04-29T10:44:53Z</time></trkpt><trkpt lat="43.19441016214299" lon="-0.9292138341729137"><ele>168.0</ele><time>2026-04-29T10:44:54Z</time></trkpt><trkpt lat="43.19440657688754" lon="-0.9293565520063006"><ele>168.0</ele><time>2026-04-29T10:44:55Z</time></trkpt><trkpt lat="43.1943985813216" lon="-0.9294968134077168"><ele>168.0</ele><time>2026-04-29T10:44:56Z</time></trkpt><trkpt lat="43.194388338319484" lon="-0.9296395642361749"><ele>168.0</ele><time>2026-04-29T10:44:57Z</time></trkpt><trkpt lat="43.19438073428637" lon="-0.9297777400028406"><ele>168.2</ele><time>2026-04-29T10:44:58Z</time></trkpt><trkpt lat="43.19437267884062" lon="-0.929915492231232"><ele>168.4</ele><time>2026-04-29T10:44:59Z</time></trkpt><trkpt lat="43.19436431123392" lon="-0.9300490331948588"><ele>168.6</ele><time>2026-04-29T10:45:00Z</time></trkpt><trkpt lat="43.19435492477008" lon="-0.9301891090566292"><ele>168.79999999999998</ele><time>2026-04-29T10:45:01Z</time></trkpt><trkpt lat="43.194344346054336" lon="-0.9303291628817271"><ele>169.0</ele><time>2026-04-29T10:45:02Z</time></trkpt><trkpt lat="43.19433150206457" lon="-0.9304696090728231"><ele>169.0</ele><time>2026-04-29T10:45:03.001Z</time></trkpt><trkpt lat="43.19431679300217" lon="-0.930610474971119"><ele>169.0</ele><time>2026-04-29T10:45:04.001Z</time></trkpt><trkpt lat="43.19429601921668" lon="-0.9307532856618242"><ele>169.0</ele><time>2026-04-29T10:45:05.001Z</time></trkpt><trkpt lat="43.19426682443741" lon="-0.9308853113822239"><ele>169.0</ele><time>2026-04-29T10:45:06.001Z</time></trkpt><trkpt lat="43.19422298527896" lon="-0.9310186015090994"><ele>169.0</ele><time>2026-04-29T10:45:07.001Z</time></trkpt><trkpt lat="43.19416887536744" lon="-0.9311376198453724"><ele>169.79999999999998</ele><time>2026-04-29T10:45:08.001Z</time></trkpt><trkpt lat="43.19410048252747" lon="-0.9312378081383375"><ele>170.6</ele><time>2026-04-29T10:45:09.001Z</time></trkpt><trkpt lat="43.19401883189556" lon="-0.9313185334787436"><ele>171.4</ele><time>2026-04-29T10:45:10.001Z</time></trkpt><trkpt lat="43.19393370844091" lon="-0.9313773589094858"><ele>172.2</ele><time>2026-04-29T10:45:11.001Z</time></trkpt><trkpt lat="43.19383892223264" lon="-0.9314157482314009"><ele>173.0</ele><time>2026-04-29T10:45:12.001Z</time></trkpt><trkpt lat="43.193743436003636" lon="-0.9314328986666766"><ele>174.16666666666666</ele><time>2026-04-29T10:45:13.001Z</time></trkpt><trkpt lat="43.19365076578755" lon="-0.9314357794850949"><ele>175.33333333333331</ele><time>2026-04-29T10:45:14.001Z</time></trkpt><trkpt lat="43.19356338885854" lon="-0.9314257694194729"><ele>176.5</ele><time>2026-04-29T10:45:15.001Z</time></trkpt><trkpt lat="43.19347296590852" lon="-0.9314109499156894"><ele>177.66666666666666</ele><time>2026-04-29T10:45:16.001Z</time></trkpt><trkpt lat="43.19338726829088" lon="-0.9314247986667129"><ele>178.83333333333334</ele><time>2026-04-29T10:45:17.001Z</time></trkpt><trkpt lat="43.193302461295296" lon="-0.9314378985788371"><ele>180.0</ele><time>2026-04-29T10:45:18.001Z</time></trkpt><trkpt lat="43.19322218844403" lon="-0.9314607443716317"><ele>180.0</ele><time>2026-04-29T10:45:19.001Z</time></trkpt><trkpt lat="43.19314596549954" lon="-0.9315016621490436"><ele>180.0</ele><time>2026-04-29T10:45:20.001Z</time></trkpt><trkpt lat="43.193076897554505" lon="-0.9315608889900646"><ele>180.0</ele><time>2026-04-29T10:45:21.001Z</time></trkpt><trkpt lat="43.19301420673321" lon="-0.9316381432998397"><ele>180.0</ele><time>2026-04-29T10:45:22.001Z</time></trkpt><trkpt lat="43.19295488251147" lon="-0.9317076188871483"><ele>180.0</ele><time>2026-04-29T10:45:23.001Z</time></trkpt><trkpt lat="43.19289327545792" lon="-0.9317915151196553"><ele>180.0</ele><time>2026-04-29T10:45:24.001Z</time></trkpt><trkpt lat="43.19283688868727" lon="-0.9318723002940439"><ele>180.0</ele><time>2026-04-29T10:45:25.001Z</time></trkpt><trkpt lat="43.192777546128205" lon="-0.9319598164928843"><ele>180.0</ele><time>2026-04-29T10:45:26.001Z</time></trkpt><trkpt lat="43.19271716499194" lon="-0.9320543025760673"><ele>180.0</ele><time>2026-04-29T10:45:27.001Z</time></trkpt><trkpt lat="43.19266371377187" lon="-0.9321624407738083"><ele>180.0</ele><time>2026-04-29T10:45:28.001Z</time></trkpt><trkpt lat="43.19261608816092" lon="-0.9322842140422231"><ele>180.0</ele><time>2026-04-29T10:45:29.001Z</time></trkpt><trkpt lat="43.19257540482243" lon="-0.9324032970816889"><ele>180.0</ele><time>2026-04-29T10:45:30.001Z</time></trkpt><trkpt lat="43.19254567333696" lon="-0.9325450382160534"><ele>180.0</ele><time>2026-04-29T10:45:31.001Z</time></trkpt><trkpt lat="43.192522348680704" lon="-0.9326863442623173"><ele>180.0</ele><time>2026-04-29T10:45:32.001Z</time></trkpt><trkpt lat="43.19250484538165" lon="-0.9328348454426995"><ele>180.0</ele><time>2026-04-29T10:45:33.001Z</time></trkpt><trkpt lat="43.19248759911337" lon="-0.9329817913205187"><ele>180.0</ele><time>2026-04-29T10:45:34.001Z</time></trkpt><trkpt lat="43.1924648919473" lon="-0.9331328416403101"><ele>180.0</ele><time>2026-04-29T10:45:35.001Z</time></trkpt><trkpt lat="43.192442795998744" lon="-0.9332853503316189"><ele>180.0</ele><time>2026-04-29T10:45:36.001Z</time></trkpt><trkpt lat="43.19242339727873" lon="-0.9334368872567796"><ele>180.0</ele><time>2026-04-29T10:45:37.001Z</time></trkpt><trkpt lat="43.1924037051316" lon="-0.9335871162863266"><ele>180.0</ele><time>2026-04-29T10:45:38Z</time></trkpt><trkpt lat="43.19238179660087" lon="-0.9337329358216534"><ele>180.0</ele><time>2026-04-29T10:45:39Z</time></trkpt><trkpt lat="43.19235776751669" lon="-0.9338787269497809"><ele>178.2</ele><time>2026-04-29T10:45:40Z</time></trkpt><trkpt lat="43.19233284326194" lon="-0.9340246762427125"><ele>176.4</ele><time>2026-04-29T10:45:41Z</time></trkpt><trkpt lat="43.19231043038592" lon="-0.9341735196582573"><ele>174.60000000000002</ele><time>2026-04-29T10:45:42Z</time></trkpt><trkpt lat="43.19229167002879" lon="-0.9343217567230184"><ele>172.8</ele><time>2026-04-29T10:45:43Z</time></trkpt><trkpt lat="43.19227180013877" lon="-0.9344683372085256"><ele>171.0</ele><time>2026-04-29T10:45:44Z</time></trkpt><trkpt lat="43.192251966224156" lon="-0.9346154152848155"><ele>171.0</ele><time>2026-04-29T10:45:45Z</time></trkpt><trkpt lat="43.192232051325554" lon="-0.9347607422283275"><ele>171.0</ele><time>2026-04-29T10:45:46Z</time></trkpt><trkpt lat="43.19221088413138" lon="-0.9349062595832851"><ele>171.0</ele><time>2026-04-29T10:45:47Z</time></trkpt><trkpt lat="43.19219090315631" lon="-0.9350534270805902"><ele>171.0</ele><time>2026-04-29T10:45:48Z</time></trkpt><trkpt lat="43.19216871071442" lon="-0.9351987237753088"><ele>171.0</ele><time>2026-04-29T10:45:49Z</time></trkpt><trkpt lat="43.192148689766064" lon="-0.9353396065961351"><ele>171.20000000000002</ele><time>2026-04-29T10:45:50Z</time></trkpt><trkpt lat="43.192127750429286" lon="-0.935480118559526"><ele>171.4</ele><time>2026-04-29T10:45:51Z</time></trkpt><trkpt lat="43.19210779264375" lon="-0.935623324902595"><ele>171.6</ele><time>2026-04-29T10:45:52Z</time></trkpt><trkpt lat="43.192088992643356" lon="-0.9357654921699097"><ele>171.8</ele><time>2026-04-29T10:45:53Z</time></trkpt><trkpt lat="43.192068254464075" lon="-0.935910017277209"><ele>172.0</ele><time>2026-04-29T10:45:54Z</time></trkpt><trkpt lat="43.19205137332729" lon="-0.936051520199372"><ele>172.0</ele><time>2026-04-29T10:45:55Z</time></trkpt><trkpt lat="43.19202970583388" lon="-0.9361952548407049"><ele>172.0</ele><time>2026-04-29T10:45:56Z</time></trkpt><trkpt lat="43.19200655485255" lon="-0.9363398112255006"><ele>172.0</ele><time>2026-04-29T10:45:57Z</time></trkpt><trkpt lat="43.19198589712697" lon="-0.9364841777493076"><ele>172.0</ele><time>2026-04-29T10:45:58Z</time></trkpt><trkpt lat="43.19196423579574" lon="-0.9366256847749057"><ele>172.0</ele><time>2026-04-29T10:45:59Z</time></trkpt><trkpt lat="43.19193913284159" lon="-0.9367647559754348"><ele>172.2</ele><time>2026-04-29T10:46:00Z</time></trkpt><trkpt lat="43.191907816011486" lon="-0.9368993328765907"><ele>172.39999999999998</ele><time>2026-04-29T10:46:01Z</time></trkpt><trkpt lat="43.19187279551933" lon="-0.9370333752195815"><ele>172.60000000000002</ele><time>2026-04-29T10:46:02Z</time></trkpt><trkpt lat="43.191827325209374" lon="-0.9371603183605582"><ele>172.8</ele><time>2026-04-29T10:46:03Z</time></trkpt><trkpt lat="43.19177687325568" lon="-0.9372908882731934"><ele>173.0</ele><time>2026-04-29T10:46:04Z</time></trkpt><trkpt lat="43.19171957894452" lon="-0.9374170755137178"><ele>173.0</ele><time>2026-04-29T10:46:05Z</time></trkpt><trkpt lat="43.19166201983249" lon="-0.9375420523121948"><ele>173.0</ele><time>2026-04-29T10:46:06Z</time></trkpt><trkpt lat="43.191608527126604" lon="-0.9376642483852763"><ele>173.0</ele><time>2026-04-29T10:46:07Z</time></trkpt><trkpt lat="43.19156362164411" lon="-0.937781040078172"><ele>173.0</ele><time>2026-04-29T10:46:08Z</time></trkpt><trkpt lat="43.19150900739142" lon="-0.9379036031177389"><ele>173.0</ele><time>2026-04-29T10:46:09Z</time></trkpt><trkpt lat="43.191452144764654" lon="-0.9380199817999553"><ele>172.60000000000002</ele><time>2026-04-29T10:46:10Z</time></trkpt><trkpt lat="43.19139497451124" lon="-0.938138155983463"><ele>172.20000000000002</ele><time>2026-04-29T10:46:11Z</time></trkpt><trkpt lat="43.19134007866645" lon="-0.9382569938210782"><ele>171.8</ele><time>2026-04-29T10:46:12Z</time></trkpt><trkpt lat="43.19128824416297" lon="-0.9383727225525962"><ele>171.4</ele><time>2026-04-29T10:46:13Z</time></trkpt><trkpt lat="43.19123449791557" lon="-0.9384875521465851"><ele>171.0</ele><time>2026-04-29T10:46:14Z</time></trkpt><trkpt lat="43.191178324768046" lon="-0.9386021291069914"><ele>171.0</ele><time>2026-04-29T10:46:15Z</time></trkpt><trkpt lat="43.19112598206774" lon="-0.9387191098982293"><ele>171.0</ele><time>2026-04-29T10:46:16Z</time></trkpt><trkpt lat="43.191072896710274" lon="-0.9388356858613343"><ele>171.0</ele><time>2026-04-29T10:46:17Z</time></trkpt><trkpt lat="43.19101927847966" lon="-0.9389541840088965"><ele>171.0</ele><time>2026-04-29T10:46:18Z</time></trkpt><trkpt lat="43.19096447621295" lon="-0.9390699637891134"><ele>171.0</ele><time>2026-04-29T10:46:19Z</time></trkpt><trkpt lat="43.19090809301431" lon="-0.9391887047893158"><ele>171.20000000000002</ele><time>2026-04-29T10:46:20Z</time></trkpt><trkpt lat="43.1908540269777" lon="-0.9393041098558311"><ele>171.4</ele><time>2026-04-29T10:46:21Z</time></trkpt><trkpt lat="43.19079823281348" lon="-0.9394131908707267"><ele>171.6</ele><time>2026-04-29T10:46:22Z</time></trkpt><trkpt lat="43.19074167978246" lon="-0.9395285354202845"><ele>171.8</ele><time>2026-04-29T10:46:23Z</time></trkpt><trkpt lat="43.19069213426068" lon="-0.9396517141077259"><ele>172.0</ele><time>2026-04-29T10:46:24Z</time></trkpt><trkpt lat="43.19063931531803" lon="-0.9397637841155124"><ele>172.0</ele><time>2026-04-29T10:46:25Z</time></trkpt><trkpt lat="43.190588621071626" lon="-0.939877027634806"><ele>172.0</ele><time>2026-04-29T10:46:26Z</time></trkpt><trkpt lat="43.19053526142068" lon="-0.9399933840646146"><ele>172.0</ele><time>2026-04-29T10:46:27Z</time></trkpt><trkpt lat="43.19048334037791" lon="-0.9401101571531976"><ele>172.0</ele><time>2026-04-29T10:46:28Z</time></trkpt><trkpt lat="43.19043037238207" lon="-0.9402308460237856"><ele>172.0</ele><time>2026-04-29T10:46:29Z</time></trkpt><trkpt lat="43.19037770643432" lon="-0.9403448606200777"><ele>172.39999999999998</ele><time>2026-04-29T10:46:30Z</time></trkpt><trkpt lat="43.190322888457196" lon="-0.940459866081679"><ele>172.79999999999998</ele><time>2026-04-29T10:46:31Z</time></trkpt><trkpt lat="43.190266076324626" lon="-0.9405689366816862"><ele>173.2</ele><time>2026-04-29T10:46:32Z</time></trkpt><trkpt lat="43.19021201611809" lon="-0.9406773532806401"><ele>173.6</ele><time>2026-04-29T10:46:33Z</time></trkpt><trkpt lat="43.190159769211846" lon="-0.9407879659391895"><ele>174.0</ele><time>2026-04-29T10:46:34Z</time></trkpt><trkpt lat="43.19010780044315" lon="-0.9408873727968625"><ele>174.66666666666666</ele><time>2026-04-29T10:46:35Z</time></trkpt><trkpt lat="43.19005524616659" lon="-0.9409952054832325"><ele>175.33333333333334</ele><time>2026-04-29T10:46:36Z</time></trkpt><trkpt lat="43.19001358914124" lon="-0.9410987369135302"><ele>176.0</ele><time>2026-04-29T10:46:37Z</time></trkpt><trkpt lat="43.18996904433015" lon="-0.9412002168287735"><ele>176.66666666666669</ele><time>2026-04-29T10:46:38Z</time></trkpt><trkpt lat="43.18992990002548" lon="-0.9412993741876928"><ele>177.33333333333334</ele><time>2026-04-29T10:46:39Z</time></trkpt><trkpt lat="43.189894103465946" lon="-0.9414029737956942"><ele>178.0</ele><time>2026-04-29T10:46:40Z</time></trkpt><trkpt lat="43.18986412835177" lon="-0.9415096231000724"><ele>178.0</ele><time>2026-04-29T10:46:41Z</time></trkpt><trkpt lat="43.18984467820757" lon="-0.9416218460350934"><ele>178.0</ele><time>2026-04-29T10:46:42Z</time></trkpt><trkpt lat="43.189830220410855" lon="-0.9417387161263869"><ele>178.0</ele><time>2026-04-29T10:46:43Z</time></trkpt><trkpt lat="43.189821729350236" lon="-0.941855547908126"><ele>178.0</ele><time>2026-04-29T10:46:44Z</time></trkpt><trkpt lat="43.189819886226175" lon="-0.9419736099387414"><ele>178.0</ele><time>2026-04-29T10:46:45Z</time></trkpt><trkpt lat="43.18982141043812" lon="-0.9420865138062082"><ele>178.0</ele><time>2026-04-29T10:46:46Z</time></trkpt><trkpt lat="43.189821226252526" lon="-0.9421977937207378"><ele>178.0</ele><time>2026-04-29T10:46:47Z</time></trkpt><trkpt lat="43.18981913978487" lon="-0.9423079997769731"><ele>178.0</ele><time>2026-04-29T10:46:48Z</time></trkpt><trkpt lat="43.18982049651769" lon="-0.9424148165796976"><ele>178.0</ele><time>2026-04-29T10:46:49Z</time></trkpt><trkpt lat="43.1898293076806" lon="-0.9425188682515186"><ele>178.0</ele><time>2026-04-29T10:46:50Z</time></trkpt><trkpt lat="43.18984285480044" lon="-0.9426239630466613"><ele>178.0</ele><time>2026-04-29T10:46:51Z</time></trkpt><trkpt lat="43.189860228228454" lon="-0.9427282810536617"><ele>178.0</ele><time>2026-04-29T10:46:52Z</time></trkpt><trkpt lat="43.189881344297966" lon="-0.9428369161467133"><ele>179.16666666666669</ele><time>2026-04-29T10:46:53Z</time></trkpt><trkpt lat="43.189907527919374" lon="-0.9429467315988472"><ele>180.33333333333334</ele><time>2026-04-29T10:46:54Z</time></trkpt><trkpt lat="43.189935341993596" lon="-0.9430562303889768"><ele>181.5</ele><time>2026-04-29T10:46:55.001Z</time></trkpt><trkpt lat="43.18996473679851" lon="-0.9431730932142335"><ele>182.66666666666666</ele><time>2026-04-29T10:46:56.001Z</time></trkpt><trkpt lat="43.18999733747219" lon="-0.9432900654225952"><ele>183.83333333333331</ele><time>2026-04-29T10:46:57.001Z</time></trkpt><trkpt lat="43.1900313092801" lon="-0.9434072903910926"><ele>185.0</ele><time>2026-04-29T10:46:58.001Z</time></trkpt><trkpt lat="43.19006500806721" lon="-0.9435301337109658"><ele>185.0</ele><time>2026-04-29T10:46:59.001Z</time></trkpt><trkpt lat="43.19009797547432" lon="-0.9436543201130082"><ele>185.0</ele><time>2026-04-29T10:47:00.001Z</time></trkpt><trkpt lat="43.19013166224915" lon="-0.9437775255999582"><ele>185.0</ele><time>2026-04-29T10:47:01.001Z</time></trkpt><trkpt lat="43.1901673900761" lon="-0.9438998267848508"><ele>185.0</ele><time>2026-04-29T10:47:02.001Z</time></trkpt><trkpt lat="43.19019865815377" lon="-0.9440267729957746"><ele>185.0</ele><time>2026-04-29T10:47:03.001Z</time></trkpt><trkpt lat="43.19023246232419" lon="-0.9441522389657897"><ele>185.2</ele><time>2026-04-29T10:47:04.001Z</time></trkpt><trkpt lat="43.19026586123567" lon="-0.944281789214434"><ele>185.4</ele><time>2026-04-29T10:47:05.001Z</time></trkpt><trkpt lat="43.19030174270293" lon="-0.9444088236441933"><ele>185.60000000000002</ele><time>2026-04-29T10:47:06.001Z</time></trkpt><trkpt lat="43.19033931183251" lon="-0.9445407752247952"><ele>185.8</ele><time>2026-04-29T10:47:07.001Z</time></trkpt><trkpt lat="43.19037712751132" lon="-0.9446709368263821"><ele>186.0</ele><time>2026-04-29T10:47:08.001Z</time></trkpt><trkpt lat="43.190414971328266" lon="-0.9448013058031871"><ele>186.0</ele><time>2026-04-29T10:47:09.001Z</time></trkpt><trkpt lat="43.190451566417856" lon="-0.9449330581839313"><ele>186.0</ele><time>2026-04-29T10:47:10.001Z</time></trkpt><trkpt lat="43.19048453058731" lon="-0.9450713156554634"><ele>186.0</ele><time>2026-04-29T10:47:11.001Z</time></trkpt><trkpt lat="43.19052144409224" lon="-0.9452023554514519"><ele>186.0</ele><time>2026-04-29T10:47:12.001Z</time></trkpt><trkpt lat="43.19055760790825" lon="-0.9453361935563197"><ele>186.0</ele><time>2026-04-29T10:47:13.001Z</time></trkpt><trkpt lat="43.19059164048519" lon="-0.9454733299782798"><ele>186.20000000000002</ele><time>2026-04-29T10:47:14.001Z</time></trkpt><trkpt lat="43.19062801458674" lon="-0.9456088525756414"><ele>186.4</ele><time>2026-04-29T10:47:15.001Z</time></trkpt><trkpt lat="43.1906686982299" lon="-0.9457446248441734"><ele>186.6</ele><time>2026-04-29T10:47:16.001Z</time></trkpt><trkpt lat="43.190709885639706" lon="-0.9458834805954247"><ele>186.8</ele><time>2026-04-29T10:47:17.001Z</time></trkpt><trkpt lat="43.190750743840255" lon="-0.9460231867284082"><ele>187.0</ele><time>2026-04-29T10:47:18.001Z</time></trkpt><trkpt lat="43.19079627609724" lon="-0.946159933547886"><ele>187.25</ele><time>2026-04-29T10:47:19.001Z</time></trkpt><trkpt lat="43.19084292505801" lon="-0.9463008646601662"><ele>187.5</ele><time>2026-04-29T10:47:20.001Z</time></trkpt><trkpt lat="43.19089253118899" lon="-0.9464398543061324"><ele>187.75</ele><time>2026-04-29T10:47:21.001Z</time></trkpt><trkpt lat="43.19093938000156" lon="-0.9465800221151022"><ele>188.0</ele><time>2026-04-29T10:47:22.001Z</time></trkpt><trkpt lat="43.19099196884737" lon="-0.9467229288113836"><ele>187.5</ele><time>2026-04-29T10:47:23.001Z</time></trkpt><trkpt lat="43.19104239429773" lon="-0.9468671896511742"><ele>187.0</ele><time>2026-04-29T10:47:24.001Z</time></trkpt><trkpt lat="43.191096647132845" lon="-0.9470096547664745"><ele>186.5</ele><time>2026-04-29T10:47:25.001Z</time></trkpt><trkpt lat="43.19114991864512" lon="-0.9471521719908658"><ele>186.0</ele><time>2026-04-29T10:47:26.001Z</time></trkpt><trkpt lat="43.19119952001729" lon="-0.9472937216008014"><ele>186.0</ele><time>2026-04-29T10:47:27.001Z</time></trkpt><trkpt lat="43.19124945268105" lon="-0.947432876282314"><ele>186.0</ele><time>2026-04-29T10:47:28.001Z</time></trkpt><trkpt lat="43.19129946332124" lon="-0.9475678649398864"><ele>186.0</ele><time>2026-04-29T10:47:29.001Z</time></trkpt><trkpt lat="43.19135212437253" lon="-0.9477035849210977"><ele>186.0</ele><time>2026-04-29T10:47:30.001Z</time></trkpt><trkpt lat="43.19140007622811" lon="-0.9478345373672971"><ele>186.0</ele><time>2026-04-29T10:47:31.001Z</time></trkpt><trkpt lat="43.19145118301716" lon="-0.9479649799235482"><ele>186.0</ele><time>2026-04-29T10:47:32.001Z</time></trkpt><trkpt lat="43.19149812300711" lon="-0.9480905576651616"><ele>186.0</ele><time>2026-04-29T10:47:33.001Z</time></trkpt><trkpt lat="43.19154673838763" lon="-0.9482156415498654"><ele>186.0</ele><time>2026-04-29T10:47:34.001Z</time></trkpt><trkpt lat="43.191591748036224" lon="-0.9483421000226642"><ele>186.0</ele><time>2026-04-29T10:47:35.001Z</time></trkpt><trkpt lat="43.19163480121222" lon="-0.9484636358815289"><ele>186.0</ele><time>2026-04-29T10:47:36.001Z</time></trkpt><trkpt lat="43.19168027807524" lon="-0.9485861067894661"><ele>187.60000000000002</ele><time>2026-04-29T10:47:37.001Z</time></trkpt><trkpt lat="43.191726966825044" lon="-0.9487044408178102"><ele>189.2</ele><time>2026-04-29T10:47:38.001Z</time></trkpt><trkpt lat="43.191774986126056" lon="-0.9488181752242449"><ele>190.8</ele><time>2026-04-29T10:47:39.001Z</time></trkpt><trkpt lat="43.1918230608939" lon="-0.9489340232273186"><ele>192.39999999999998</ele><time>2026-04-29T10:47:40.001Z</time></trkpt><trkpt lat="43.19186675197945" lon="-0.9490485739703625"><ele>194.0</ele><time>2026-04-29T10:47:41.001Z</time></trkpt><trkpt lat="43.191908882686626" lon="-0.9491651649448676"><ele>196.0</ele><time>2026-04-29T10:47:42.001Z</time></trkpt><trkpt lat="43.19195712002107" lon="-0.9492766496500663"><ele>198.0</ele><time>2026-04-29T10:47:42.999Z</time></trkpt><trkpt lat="43.192012703956344" lon="-0.9493770411238561"><ele>200.0</ele><time>2026-04-29T10:47:43.999Z</time></trkpt><trkpt lat="43.19207182750129" lon="-0.9494717169876647"><ele>202.0</ele><time>2026-04-29T10:47:44.999Z</time></trkpt><trkpt lat="43.19213069569624" lon="-0.94956311668219"><ele>204.0</ele><time>2026-04-29T10:47:45.999Z</time></trkpt><trkpt lat="43.19218974817299" lon="-0.9496574483930805"><ele>204.0</ele><time>2026-04-29T10:47:46.999Z</time></trkpt><trkpt lat="43.1922450191652" lon="-0.9497531909552297"><ele>204.0</ele><time>2026-04-29T10:47:47.999Z</time></trkpt><trkpt lat="43.19230122701246" lon="-0.9498482143656717"><ele>204.0</ele><time>2026-04-29T10:47:48.999Z</time></trkpt><trkpt lat="43.192354860583926" lon="-0.9499421297743592"><ele>204.0</ele><time>2026-04-29T10:47:49.999Z</time></trkpt><trkpt lat="43.1924102105565" lon="-0.9500317344737567"><ele>204.0</ele><time>2026-04-29T10:47:50.999Z</time></trkpt><trkpt lat="43.19246762724372" lon="-0.9501238049157864"><ele>204.0</ele><time>2026-04-29T10:47:51.999Z</time></trkpt><trkpt lat="43.19251972352979" lon="-0.9502153647445242"><ele>204.0</ele><time>2026-04-29T10:47:52.999Z</time></trkpt><trkpt lat="43.19257214845926" lon="-0.9503126276306837"><ele>204.0</ele><time>2026-04-29T10:47:53.999Z</time></trkpt><trkpt lat="43.19261806243056" lon="-0.9504153388437466"><ele>204.0</ele><time>2026-04-29T10:47:54.999Z</time></trkpt><trkpt lat="43.19265159561541" lon="-0.950532874889014"><ele>204.0</ele><time>2026-04-29T10:47:55.999Z</time></trkpt><trkpt lat="43.19267645321305" lon="-0.9506489522649448"><ele>204.0</ele><time>2026-04-29T10:47:56.999Z</time></trkpt><trkpt lat="43.192692707448124" lon="-0.9507750046885702"><ele>205.6</ele><time>2026-04-29T10:47:57.999Z</time></trkpt><trkpt lat="43.19269980450864" lon="-0.9508967459470598"><ele>207.2</ele><time>2026-04-29T10:47:58.999Z</time></trkpt><trkpt lat="43.192700751185065" lon="-0.9510227925803648"><ele>208.79999999999998</ele><time>2026-04-29T10:47:59.999Z</time></trkpt><trkpt lat="43.19269717054056" lon="-0.9511490146278923"><ele>210.39999999999998</ele><time>2026-04-29T10:48:00.999Z</time></trkpt><trkpt lat="43.19269191409764" lon="-0.9512757038734282"><ele>212.0</ele><time>2026-04-29T10:48:01.999Z</time></trkpt><trkpt lat="43.19269215583067" lon="-0.9514001625157761"><ele>212.00000000000003</ele><time>2026-04-29T10:48:02.999Z</time></trkpt><trkpt lat="43.192694230450556" lon="-0.9515202425926915"><ele>212.0</ele><time>2026-04-29T10:48:03.999Z</time></trkpt><trkpt lat="43.192695464094825" lon="-0.9516368446096631"><ele>212.0</ele><time>2026-04-29T10:48:04.999Z</time></trkpt><trkpt lat="43.192695359547606" lon="-0.9517549844430475"><ele>212.0</ele><time>2026-04-29T10:48:05.999Z</time></trkpt><trkpt lat="43.192697700847994" lon="-0.9518703950571231"><ele>212.00000000000003</ele><time>2026-04-29T10:48:06.999Z</time></trkpt><trkpt lat="43.19270427789589" lon="-0.9519895805917961"><ele>212.0</ele><time>2026-04-29T10:48:07.999Z</time></trkpt><trkpt lat="43.192712976873345" lon="-0.9521056394001671"><ele>212.50000000000003</ele><time>2026-04-29T10:48:08.999Z</time></trkpt><trkpt lat="43.19272198126663" lon="-0.9522191181524073"><ele>213.0</ele><time>2026-04-29T10:48:09.999Z</time></trkpt><trkpt lat="43.1927356609302" lon="-0.9523334369748627"><ele>213.5</ele><time>2026-04-29T10:48:10.999Z</time></trkpt><trkpt lat="43.19275333936571" lon="-0.9524430301899378"><ele>214.0</ele><time>2026-04-29T10:48:11.999Z</time></trkpt><trkpt lat="43.19276822718772" lon="-0.9525560601311175"><ele>214.50000000000003</ele><time>2026-04-29T10:48:12.999Z</time></trkpt><trkpt lat="43.19278515866357" lon="-0.9526721920718665"><ele>215.0</ele><time>2026-04-29T10:48:13.999Z</time></trkpt><trkpt lat="43.19279735142617" lon="-0.9527854424849671"><ele>215.00000000000003</ele><time>2026-04-29T10:48:14.999Z</time></trkpt><trkpt lat="43.192814090190865" lon="-0.9529026730386188"><ele>215.0</ele><time>2026-04-29T10:48:15.999Z</time></trkpt><trkpt lat="43.19283058946946" lon="-0.9530190419815799"><ele>215.0</ele><time>2026-04-29T10:48:16.999Z</time></trkpt><trkpt lat="43.1928468604046" lon="-0.9531369743252079"><ele>215.0</ele><time>2026-04-29T10:48:17.999Z</time></trkpt><trkpt lat="43.19286601257168" lon="-0.9532557910817957"><ele>215.00000000000003</ele><time>2026-04-29T10:48:18.999Z</time></trkpt><trkpt lat="43.19288377698964" lon="-0.9533765326560334"><ele>215.0</ele><time>2026-04-29T10:48:20Z</time></trkpt><trkpt lat="43.19290231577801" lon="-0.9534964709195582"><ele>214.6</ele><time>2026-04-29T10:48:21Z</time></trkpt><trkpt lat="43.19292241315776" lon="-0.9536227069972278"><ele>214.2</ele><time>2026-04-29T10:48:22Z</time></trkpt><trkpt lat="43.19293958614969" lon="-0.9537509900662273"><ele>213.8</ele><time>2026-04-29T10:48:23Z</time></trkpt><trkpt lat="43.19295785594821" lon="-0.9538871036246527"><ele>213.4</ele><time>2026-04-29T10:48:24Z</time></trkpt><trkpt lat="43.19297731507248" lon="-0.9540239819593275"><ele>213.0</ele><time>2026-04-29T10:48:25Z</time></trkpt><trkpt lat="43.19299618298668" lon="-0.9541654482778109"><ele>212.0</ele><time>2026-04-29T10:48:26Z</time></trkpt><trkpt lat="43.19301436835183" lon="-0.9543068489188915"><ele>211.0</ele><time>2026-04-29T10:48:27Z</time></trkpt><trkpt lat="43.19303243698267" lon="-0.9544498770695724"><ele>210.0</ele><time>2026-04-29T10:48:28Z</time></trkpt><trkpt lat="43.193052269120635" lon="-0.9545954526291822"><ele>209.0</ele><time>2026-04-29T10:48:29Z</time></trkpt><trkpt lat="43.193071980552894" lon="-0.9547420040687211"><ele>208.0</ele><time>2026-04-29T10:48:30Z</time></trkpt><trkpt lat="43.19309342079681" lon="-0.954895144853329"><ele>208.0</ele><time>2026-04-29T10:48:31Z</time></trkpt><trkpt lat="43.19311358330078" lon="-0.9550501013035978"><ele>208.0</ele><time>2026-04-29T10:48:32Z</time></trkpt><trkpt lat="43.193135007746285" lon="-0.9552015449842295"><ele>208.0</ele><time>2026-04-29T10:48:33Z</time></trkpt><trkpt lat="43.19315529090726" lon="-0.9553600010311668"><ele>208.0</ele><time>2026-04-29T10:48:34Z</time></trkpt><trkpt lat="43.19317677522199" lon="-0.955509320524313"><ele>208.0</ele><time>2026-04-29T10:48:35Z</time></trkpt><trkpt lat="43.19320082396127" lon="-0.9556657289977987"><ele>208.0</ele><time>2026-04-29T10:48:36Z</time></trkpt><trkpt lat="43.193223309561226" lon="-0.9558200368415655"><ele>208.0</ele><time>2026-04-29T10:48:37Z</time></trkpt><trkpt lat="43.193240334377705" lon="-0.9559733339521019"><ele>208.0</ele><time>2026-04-29T10:48:38Z</time></trkpt><trkpt lat="43.19325945715108" lon="-0.9561218972872756"><ele>206.4</ele><time>2026-04-29T10:48:39Z</time></trkpt><trkpt lat="43.193280026903466" lon="-0.9562709048872161"><ele>204.8</ele><time>2026-04-29T10:48:40Z</time></trkpt><trkpt lat="43.19330168771381" lon="-0.9564202154687552"><ele>203.2</ele><time>2026-04-29T10:48:41Z</time></trkpt><trkpt lat="43.193322820199654" lon="-0.9565723030591327"><ele>201.6</ele><time>2026-04-29T10:48:42Z</time></trkpt><trkpt lat="43.19334131714961" lon="-0.9567245100948677"><ele>200.0</ele><time>2026-04-29T10:48:43Z</time></trkpt><trkpt lat="43.19336250173109" lon="-0.9568722891267711"><ele>198.6</ele><time>2026-04-29T10:48:44Z</time></trkpt><trkpt lat="43.19338224304074" lon="-0.9570195265405699"><ele>197.2</ele><time>2026-04-29T10:48:45Z</time></trkpt><trkpt lat="43.193402957644864" lon="-0.9571692653280859"><ele>195.8</ele><time>2026-04-29T10:48:46Z</time></trkpt><trkpt lat="43.193424460692285" lon="-0.957316292415698"><ele>194.4</ele><time>2026-04-29T10:48:47Z</time></trkpt><trkpt lat="43.1934490560003" lon="-0.9574645837604763"><ele>193.0</ele><time>2026-04-29T10:48:48Z</time></trkpt><trkpt lat="43.193480283646096" lon="-0.9576083676123394"><ele>192.60000000000002</ele><time>2026-04-29T10:48:49Z</time></trkpt><trkpt lat="43.193516761344235" lon="-0.9577496363038713"><ele>192.20000000000002</ele><time>2026-04-29T10:48:50Z</time></trkpt><trkpt lat="43.193555438151556" lon="-0.9578897535319344"><ele>191.8</ele><time>2026-04-29T10:48:51Z</time></trkpt><trkpt lat="43.19359545625715" lon="-0.9580250897862679"><ele>191.4</ele><time>2026-04-29T10:48:52Z</time></trkpt><trkpt lat="43.19363714745636" lon="-0.958161605716089"><ele>191.0</ele><time>2026-04-29T10:48:53Z</time></trkpt><trkpt lat="43.19368052387171" lon="-0.9582963766943894"><ele>190.4</ele><time>2026-04-29T10:48:54Z</time></trkpt><trkpt lat="43.19372117391992" lon="-0.9584345947394957"><ele>189.8</ele><time>2026-04-29T10:48:55Z</time></trkpt><trkpt lat="43.19375854416227" lon="-0.9585716745317593"><ele>189.20000000000002</ele><time>2026-04-29T10:48:56Z</time></trkpt><trkpt lat="43.19380078499677" lon="-0.9587051227814731"><ele>188.60000000000002</ele><time>2026-04-29T10:48:57Z</time></trkpt><trkpt lat="43.19383119284542" lon="-0.9588497504617735"><ele>188.0</ele><time>2026-04-29T10:48:58Z</time></trkpt><trkpt lat="43.19385697520897" lon="-0.9589950067405172"><ele>188.0</ele><time>2026-04-29T10:48:59Z</time></trkpt><trkpt lat="43.19388206959735" lon="-0.959140982386545"><ele>188.0</ele><time>2026-04-29T10:49:00Z</time></trkpt><trkpt lat="43.193904277950466" lon="-0.9592840969847178"><ele>188.0</ele><time>2026-04-29T10:49:01Z</time></trkpt><trkpt lat="43.19392430568329" lon="-0.9594266472972922"><ele>188.0</ele><time>2026-04-29T10:49:02Z</time></trkpt><trkpt lat="43.19394415701131" lon="-0.9595660399263467"><ele>188.0</ele><time>2026-04-29T10:49:03Z</time></trkpt><trkpt lat="43.19396571395677" lon="-0.9597033019350129"><ele>188.60000000000002</ele><time>2026-04-29T10:49:04Z</time></trkpt><trkpt lat="43.19398691766435" lon="-0.9598409520725485"><ele>189.20000000000002</ele><time>2026-04-29T10:49:05Z</time></trkpt><trkpt lat="43.19400444341016" lon="-0.9599784889892989"><ele>189.8</ele><time>2026-04-29T10:49:06Z</time></trkpt><trkpt lat="43.19402406475436" lon="-0.9601150439769426"><ele>190.4</ele><time>2026-04-29T10:49:07Z</time></trkpt><trkpt lat="43.19404710119324" lon="-0.9602502340818574"><ele>191.0</ele><time>2026-04-29T10:49:08Z</time></trkpt><trkpt lat="43.194067105618466" lon="-0.9603804752319216"><ele>191.20000000000002</ele><time>2026-04-29T10:49:09Z</time></trkpt><trkpt lat="43.19408448704111" lon="-0.9605043880347558"><ele>191.4</ele><time>2026-04-29T10:49:10Z</time></trkpt><trkpt lat="43.19410060499121" lon="-0.9606278667400829"><ele>191.6</ele><time>2026-04-29T10:49:11Z</time></trkpt><trkpt lat="43.19411704172741" lon="-0.9607490474271174"><ele>191.8</ele><time>2026-04-29T10:49:12Z</time></trkpt><trkpt lat="43.19413258405551" lon="-0.9608693011675189"><ele>192.0</ele><time>2026-04-29T10:49:13Z</time></trkpt><trkpt lat="43.19414802043962" lon="-0.9609878482348168"><ele>192.66666666666666</ele><time>2026-04-29T10:49:14Z</time></trkpt><trkpt lat="43.194160088732446" lon="-0.9611065972295085"><ele>193.33333333333331</ele><time>2026-04-29T10:49:15Z</time></trkpt><trkpt lat="43.194175793785774" lon="-0.9612232773727525"><ele>194.0</ele><time>2026-04-29T10:49:16Z</time></trkpt><trkpt lat="43.19419163893559" lon="-0.9613398998056563"><ele>194.66666666666666</ele><time>2026-04-29T10:49:17Z</time></trkpt><trkpt lat="43.19420793074921" lon="-0.9614565471256445"><ele>195.33333333333331</ele><time>2026-04-29T10:49:18Z</time></trkpt><trkpt lat="43.194221773052774" lon="-0.961569857301982"><ele>196.0</ele><time>2026-04-29T10:49:19Z</time></trkpt><trkpt lat="43.19423701984757" lon="-0.9616826429684034"><ele>196.66666666666666</ele><time>2026-04-29T10:49:20Z</time></trkpt><trkpt lat="43.19425037172806" lon="-0.9617931878144741"><ele>197.33333333333331</ele><time>2026-04-29T10:49:21Z</time></trkpt><trkpt lat="43.19426769489743" lon="-0.9619063305817424"><ele>198.0</ele><time>2026-04-29T10:49:22Z</time></trkpt><trkpt lat="43.19428399386918" lon="-0.9620213939926479"><ele>198.66666666666669</ele><time>2026-04-29T10:49:23Z</time></trkpt><trkpt lat="43.19429844401644" lon="-0.9621351360855407"><ele>199.33333333333334</ele><time>2026-04-29T10:49:24Z</time></trkpt><trkpt lat="43.19431485223106" lon="-0.9622515586813909"><ele>200.0</ele><time>2026-04-29T10:49:25Z</time></trkpt><trkpt lat="43.194329576471056" lon="-0.9623635060344217"><ele>200.00000000000003</ele><time>2026-04-29T10:49:26Z</time></trkpt><trkpt lat="43.194343147599994" lon="-0.962471886417663"><ele>200.0</ele><time>2026-04-29T10:49:27Z</time></trkpt><trkpt lat="43.194359905196166" lon="-0.9625813403072075"><ele>200.0</ele><time>2026-04-29T10:49:28Z</time></trkpt><trkpt lat="43.19437771126391" lon="-0.9626910759748859"><ele>200.0</ele><time>2026-04-29T10:49:29Z</time></trkpt><trkpt lat="43.194397972731934" lon="-0.9628022357930432"><ele>200.00000000000003</ele><time>2026-04-29T10:49:30Z</time></trkpt><trkpt lat="43.19441531876741" lon="-0.9629145238398871"><ele>200.0</ele><time>2026-04-29T10:49:31Z</time></trkpt><trkpt lat="43.194429645546506" lon="-0.9630233822985188"><ele>201.16666666666669</ele><time>2026-04-29T10:49:32Z</time></trkpt><trkpt lat="43.1944465372015" lon="-0.9631329763724273"><ele>202.33333333333334</ele><time>2026-04-29T10:49:33Z</time></trkpt><trkpt lat="43.194461425854115" lon="-0.963242712602027"><ele>203.5</ele><time>2026-04-29T10:49:34Z</time></trkpt><trkpt lat="43.194475857901566" lon="-0.9633533022497507"><ele>204.66666666666669</ele><time>2026-04-29T10:49:35Z</time></trkpt><trkpt lat="43.19449036126216" lon="-0.9634645045059502"><ele>205.83333333333334</ele><time>2026-04-29T10:49:36Z</time></trkpt><trkpt lat="43.194505687461735" lon="-0.963573057506771"><ele>207.0</ele><time>2026-04-29T10:49:37Z</time></trkpt><trkpt lat="43.194519568989065" lon="-0.9636833994427011"><ele>208.0</ele><time>2026-04-29T10:49:38Z</time></trkpt><trkpt lat="43.19453466320347" lon="-0.9637929392122849"><ele>209.0</ele><time>2026-04-29T10:49:39Z</time></trkpt><trkpt lat="43.1945524311773" lon="-0.9639041540099846"><ele>210.0</ele><time>2026-04-29T10:49:40Z</time></trkpt><trkpt lat="43.1945706863538" lon="-0.9640168905716514"><ele>211.0</ele><time>2026-04-29T10:49:41Z</time></trkpt><trkpt lat="43.19458981034184" lon="-0.9641307526397019"><ele>212.0</ele><time>2026-04-29T10:49:42Z</time></trkpt><trkpt lat="43.194607990320385" lon="-0.9642458631318548"><ele>213.0</ele><time>2026-04-29T10:49:43Z</time></trkpt><trkpt lat="43.19462633797924" lon="-0.9643595716617182"><ele>213.5</ele><time>2026-04-29T10:49:44.001Z</time></trkpt><trkpt lat="43.19464418177658" lon="-0.9644761875409671"><ele>214.0</ele><time>2026-04-29T10:49:45.001Z</time></trkpt><trkpt lat="43.194662068592855" lon="-0.9645910523311186"><ele>214.5</ele><time>2026-04-29T10:49:46.001Z</time></trkpt><trkpt lat="43.19467571318131" lon="-0.964701334687262"><ele>215.0</ele><time>2026-04-29T10:49:47.001Z</time></trkpt><trkpt lat="43.194696912029976" lon="-0.964801748561421"><ele>215.5</ele><time>2026-04-29T10:49:48.001Z</time></trkpt><trkpt lat="43.19472323599286" lon="-0.964897036616104"><ele>216.0</ele><time>2026-04-29T10:49:48.999Z</time></trkpt><trkpt lat="43.19475480589051" lon="-0.9649887658802391"><ele>215.66666666666666</ele><time>2026-04-29T10:49:49.999Z</time></trkpt><trkpt lat="43.19479931279445" lon="-0.9650771193690433"><ele>215.33333333333331</ele><time>2026-04-29T10:49:50.999Z</time></trkpt><trkpt lat="43.194849214678015" lon="-0.9651613464900368"><ele>215.0</ele><time>2026-04-29T10:49:51.999Z</time></trkpt><trkpt lat="43.19490242028343" lon="-0.9652386691366487"><ele>214.66666666666666</ele><time>2026-04-29T10:49:52.999Z</time></trkpt><trkpt lat="43.19495871836983" lon="-0.9653121017745904"><ele>214.33333333333331</ele><time>2026-04-29T10:49:53.999Z</time></trkpt><trkpt lat="43.195018796525844" lon="-0.9653784003227133"><ele>214.0</ele><time>2026-04-29T10:49:54.999Z</time></trkpt><trkpt lat="43.19508358231337" lon="-0.965431930677426"><ele>214.66666666666666</ele><time>2026-04-29T10:49:55.999Z</time></trkpt><trkpt lat="43.19515662435696" lon="-0.9654748683857354"><ele>215.33333333333331</ele><time>2026-04-29T10:49:56.999Z</time></trkpt><trkpt lat="43.195227773935294" lon="-0.9655341927660435"><ele>216.0</ele><time>2026-04-29T10:49:57.999Z</time></trkpt><trkpt lat="43.195299902842194" lon="-0.965573070676822"><ele>216.66666666666669</ele><time>2026-04-29T10:49:58.999Z</time></trkpt><trkpt lat="43.19537025675527" lon="-0.9656272786418149"><ele>217.33333333333334</ele><time>2026-04-29T10:49:59.999Z</time></trkpt><trkpt lat="43.19543559689513" lon="-0.965683074973719"><ele>218.0</ele><time>2026-04-29T10:50:00.999Z</time></trkpt><trkpt lat="43.195510332083906" lon="-0.9657136012027483"><ele>218.00000000000003</ele><time>2026-04-29T10:50:01.999Z</time></trkpt><trkpt lat="43.19557867782666" lon="-0.9657712402201072"><ele>218.0</ele><time>2026-04-29T10:50:02.999Z</time></trkpt><trkpt lat="43.195654772877155" lon="-0.9657937910800382"><ele>218.0</ele><time>2026-04-29T10:50:04Z</time></trkpt><trkpt lat="43.19572673496769" lon="-0.96583020264871"><ele>218.0</ele><time>2026-04-29T10:50:05Z</time></trkpt><trkpt lat="43.19580332047284" lon="-0.9658560637697575"><ele>218.00000000000003</ele><time>2026-04-29T10:50:06Z</time></trkpt><trkpt lat="43.19587822573005" lon="-0.9658707886893027"><ele>218.0</ele><time>2026-04-29T10:50:07Z</time></trkpt><trkpt lat="43.195954994240964" lon="-0.965885650469833"><ele>218.66666666666669</ele><time>2026-04-29T10:50:08Z</time></trkpt><trkpt lat="43.19603195249299" lon="-0.9658971246622657"><ele>219.33333333333334</ele><time>2026-04-29T10:50:09Z</time></trkpt><trkpt lat="43.19611310515653" lon="-0.9659061486268457"><ele>220.0</ele><time>2026-04-29T10:50:10Z</time></trkpt><trkpt lat="43.19619556590429" lon="-0.9659146168561249"><ele>220.66666666666669</ele><time>2026-04-29T10:50:11Z</time></trkpt><trkpt lat="43.19627842254623" lon="-0.9659271579493416"><ele>221.33333333333334</ele><time>2026-04-29T10:50:12Z</time></trkpt><trkpt lat="43.19635912842723" lon="-0.96594362111262"><ele>222.0</ele><time>2026-04-29T10:50:13Z</time></trkpt><trkpt lat="43.19644268086809" lon="-0.9659564392540517"><ele>223.16666666666666</ele><time>2026-04-29T10:50:14Z</time></trkpt><trkpt lat="43.19652653157196" lon="-0.9659734080277452"><ele>224.33333333333331</ele><time>2026-04-29T10:50:15Z</time></trkpt><trkpt lat="43.19660783943394" lon="-0.9659910231718134"><ele>225.5</ele><time>2026-04-29T10:50:16Z</time></trkpt><trkpt lat="43.19669308596851" lon="-0.9660081140331963"><ele>226.66666666666666</ele><time>2026-04-29T10:50:17Z</time></trkpt><trkpt lat="43.19677434510066" lon="-0.9660237815594421"><ele>227.83333333333331</ele><time>2026-04-29T10:50:18Z</time></trkpt><trkpt lat="43.196856483501605" lon="-0.9660345558921023"><ele>229.0</ele><time>2026-04-29T10:50:19Z</time></trkpt><trkpt lat="43.1969392587855" lon="-0.9660434430927639"><ele>228.99999999999997</ele><time>2026-04-29T10:50:20Z</time></trkpt><trkpt lat="43.197023596122484" lon="-0.9660541472506299"><ele>229.0</ele><time>2026-04-29T10:50:21Z</time></trkpt><trkpt lat="43.197105574144686" lon="-0.9660692338031797"><ele>229.0</ele><time>2026-04-29T10:50:22Z</time></trkpt><trkpt lat="43.19718854054778" lon="-0.9660836223920946"><ele>229.0</ele><time>2026-04-29T10:50:23Z</time></trkpt><trkpt lat="43.19727142414838" lon="-0.9660958430979371"><ele>228.99999999999997</ele><time>2026-04-29T10:50:24Z</time></trkpt><trkpt lat="43.19735291609416" lon="-0.9661036527748321"><ele>229.0</ele><time>2026-04-29T10:50:25Z</time></trkpt><trkpt lat="43.197432527673826" lon="-0.9661134875836764"><ele>229.99999999999997</ele><time>2026-04-29T10:50:26Z</time></trkpt><trkpt lat="43.19751066246787" lon="-0.9661173702634571"><ele>231.0</ele><time>2026-04-29T10:50:27Z</time></trkpt><trkpt lat="43.197588750755095" lon="-0.9661135543743109"><ele>232.0</ele><time>2026-04-29T10:50:28Z</time></trkpt><trkpt lat="43.19766514981231" lon="-0.9661011055991197"><ele>233.0</ele><time>2026-04-29T10:50:29Z</time></trkpt><trkpt lat="43.19773869034066" lon="-0.9660884558590767"><ele>233.99999999999997</ele><time>2026-04-29T10:50:30Z</time></trkpt><trkpt lat="43.1978129978835" lon="-0.9660831634681138"><ele>235.0</ele><time>2026-04-29T10:50:31Z</time></trkpt><trkpt lat="43.19788781776738" lon="-0.9660822674562682"><ele>235.0</ele><time>2026-04-29T10:50:32Z</time></trkpt><trkpt lat="43.197959185595145" lon="-0.9660783488862293"><ele>234.99999999999997</ele><time>2026-04-29T10:50:33Z</time></trkpt><trkpt lat="43.19803152655708" lon="-0.9660679893663227"><ele>235.0</ele><time>2026-04-29T10:50:34Z</time></trkpt><trkpt lat="43.198105586867555" lon="-0.9660578681322979"><ele>235.0</ele><time>2026-04-29T10:50:35Z</time></trkpt><trkpt lat="43.19817917970859" lon="-0.9660491224141615"><ele>234.99999999999997</ele><time>2026-04-29T10:50:36Z</time></trkpt><trkpt lat="43.198254732074815" lon="-0.9660344235170844"><ele>235.0</ele><time>2026-04-29T10:50:37Z</time></trkpt><trkpt lat="43.1983304672666" lon="-0.9660234305312229"><ele>235.0</ele><time>2026-04-29T10:50:38Z</time></trkpt><trkpt lat="43.198405237103195" lon="-0.9660137548214613"><ele>236.33333333333331</ele><time>2026-04-29T10:50:39Z</time></trkpt><trkpt lat="43.19848314265497" lon="-0.9660035239411754"><ele>237.66666666666666</ele><time>2026-04-29T10:50:40Z</time></trkpt><trkpt lat="43.198562765887175" lon="-0.9660017086654074"><ele>239.0</ele><time>2026-04-29T10:50:41Z</time></trkpt><trkpt lat="43.198640806600444" lon="-0.9660047606669837"><ele>240.33333333333331</ele><time>2026-04-29T10:50:42Z</time></trkpt><trkpt lat="43.19872005741436" lon="-0.9660054408523623"><ele>241.66666666666666</ele><time>2026-04-29T10:50:43Z</time></trkpt><trkpt lat="43.198801430774246" lon="-0.9660132341794904"><ele>243.0</ele><time>2026-04-29T10:50:44Z</time></trkpt><trkpt lat="43.19888457041621" lon="-0.9660195150192735"><ele>243.0</ele><time>2026-04-29T10:50:45Z</time></trkpt><trkpt lat="43.19896781435116" lon="-0.9660266184263917"><ele>243.0</ele><time>2026-04-29T10:50:46Z</time></trkpt><trkpt lat="43.1990509284859" lon="-0.9660370175948567"><ele>243.0</ele><time>2026-04-29T10:50:47Z</time></trkpt><trkpt lat="43.199134068198106" lon="-0.9660468448474651"><ele>243.0</ele><time>2026-04-29T10:50:48Z</time></trkpt><trkpt lat="43.199220621348836" lon="-0.9660546937897547"><ele>243.0</ele><time>2026-04-29T10:50:49Z</time></trkpt><trkpt lat="43.1993037175224" lon="-0.9660695644969421"><ele>243.0</ele><time>2026-04-29T10:50:50Z</time></trkpt><trkpt lat="43.199388315457966" lon="-0.9660782098282262"><ele>244.5</ele><time>2026-04-29T10:50:51Z</time></trkpt><trkpt lat="43.19947496519826" lon="-0.9660857501724476"><ele>246.0</ele><time>2026-04-29T10:50:52Z</time></trkpt><trkpt lat="43.19955988258632" lon="-0.9660977157111743"><ele>247.5</ele><time>2026-04-29T10:50:53Z</time></trkpt><trkpt lat="43.19964777629539" lon="-0.9661076128770607"><ele>249.0</ele><time>2026-04-29T10:50:54Z</time></trkpt><trkpt lat="43.199737053118646" lon="-0.9661160542785996"><ele>250.5</ele><time>2026-04-29T10:50:55Z</time></trkpt><trkpt lat="43.1998270860639" lon="-0.9661227280048448"><ele>252.0</ele><time>2026-04-29T10:50:56Z</time></trkpt><trkpt lat="43.199914911304354" lon="-0.9661330514650251"><ele>253.16666666666666</ele><time>2026-04-29T10:50:57Z</time></trkpt><trkpt lat="43.19999988231701" lon="-0.9661491228998861"><ele>254.33333333333331</ele><time>2026-04-29T10:50:58Z</time></trkpt><trkpt lat="43.200084953240925" lon="-0.9661645036645661"><ele>255.5</ele><time>2026-04-29T10:50:59Z</time></trkpt><trkpt lat="43.20017298708769" lon="-0.9661786677472349"><ele>256.66666666666663</ele><time>2026-04-29T10:51:00Z</time></trkpt><trkpt lat="43.20025983671792" lon="-0.9661974617977444"><ele>257.8333333333333</ele><time>2026-04-29T10:51:01Z</time></trkpt><trkpt lat="43.200343297573646" lon="-0.9662251385237748"><ele>259.0</ele><time>2026-04-29T10:51:02Z</time></trkpt><trkpt lat="43.20042607536039" lon="-0.9662574328757925"><ele>259.0</ele><time>2026-04-29T10:51:03Z</time></trkpt><trkpt lat="43.20050906392555" lon="-0.9662884273426665"><ele>259.0</ele><time>2026-04-29T10:51:04.001Z</time></trkpt><trkpt lat="43.200591024880865" lon="-0.9663235686188095"><ele>259.0</ele><time>2026-04-29T10:51:05.001Z</time></trkpt><trkpt lat="43.20067250323031" lon="-0.9663709559320328"><ele>259.0</ele><time>2026-04-29T10:51:06.001Z</time></trkpt><trkpt lat="43.20074917471084" lon="-0.9664223349519108"><ele>259.0</ele><time>2026-04-29T10:51:07.001Z</time></trkpt><trkpt lat="43.200818934806016" lon="-0.9664936493228199"><ele>259.0</ele><time>2026-04-29T10:51:08.001Z</time></trkpt><trkpt lat="43.20088403755779" lon="-0.9665736066581228"><ele>259.66666666666663</ele><time>2026-04-29T10:51:09.001Z</time></trkpt><trkpt lat="43.200942546734225" lon="-0.9666623109849487"><ele>260.3333333333333</ele><time>2026-04-29T10:51:10.001Z</time></trkpt><trkpt lat="43.20099708975538" lon="-0.9667509188723251"><ele>261.0</ele><time>2026-04-29T10:51:11.001Z</time></trkpt><trkpt lat="43.201047700680235" lon="-0.9668434938090901"><ele>261.6666666666667</ele><time>2026-04-29T10:51:12.001Z</time></trkpt><trkpt lat="43.201099440970246" lon="-0.9669373669151089"><ele>262.33333333333337</ele><time>2026-04-29T10:51:13.001Z</time></trkpt><trkpt lat="43.20114866634123" lon="-0.9670319826050142"><ele>263.0</ele><time>2026-04-29T10:51:14.001Z</time></trkpt><trkpt lat="43.20119806019019" lon="-0.9671242905447611"><ele>263.83333333333337</ele><time>2026-04-29T10:51:15.001Z</time></trkpt><trkpt lat="43.2012485165114" lon="-0.9672146397730972"><ele>264.6666666666667</ele><time>2026-04-29T10:51:16.001Z</time></trkpt><trkpt lat="43.20129917819483" lon="-0.9673049971220311"><ele>265.5</ele><time>2026-04-29T10:51:17.001Z</time></trkpt><trkpt lat="43.20135013597208" lon="-0.9673968195586014"><ele>266.3333333333333</ele><time>2026-04-29T10:51:18.001Z</time></trkpt><trkpt lat="43.20140003288915" lon="-0.9674891206238628"><ele>267.16666666666663</ele><time>2026-04-29T10:51:19.001Z</time></trkpt><trkpt lat="43.201449507817" lon="-0.9675810355782533"><ele>268.0</ele><time>2026-04-29T10:51:20.001Z</time></trkpt><trkpt lat="43.20149818884941" lon="-0.9676741388300178"><ele>268.8333333333333</ele><time>2026-04-29T10:51:21.001Z</time></trkpt><trkpt lat="43.201545433221945" lon="-0.9677673638163677"><ele>269.66666666666663</ele><time>2026-04-29T10:51:22.001Z</time></trkpt><trkpt lat="43.20158940514519" lon="-0.9678631810305482"><ele>270.5</ele><time>2026-04-29T10:51:23.001Z</time></trkpt><trkpt lat="43.201630247491906" lon="-0.9679615209255169"><ele>271.3333333333333</ele><time>2026-04-29T10:51:24.001Z</time></trkpt><trkpt lat="43.20166765465327" lon="-0.9680597206258668"><ele>272.1666666666667</ele><time>2026-04-29T10:51:25.001Z</time></trkpt><trkpt lat="43.20170060166622" lon="-0.9681634789186361"><ele>273.0</ele><time>2026-04-29T10:51:26.001Z</time></trkpt><trkpt lat="43.2017284461377" lon="-0.9682685208509968"><ele>273.1666666666667</ele><time>2026-04-29T10:51:27.001Z</time></trkpt><trkpt lat="43.201754177832385" lon="-0.9683744045625406"><ele>273.3333333333333</ele><time>2026-04-29T10:51:28.001Z</time></trkpt><trkpt lat="43.201783539685" lon="-0.9684766492488024"><ele>273.5</ele><time>2026-04-29T10:51:29.001Z</time></trkpt><trkpt lat="43.20181202940399" lon="-0.9685793737697408"><ele>273.66666666666663</ele><time>2026-04-29T10:51:30.001Z</time></trkpt><trkpt lat="43.20183951897569" lon="-0.968680122657337"><ele>273.8333333333333</ele><time>2026-04-29T10:51:31.001Z</time></trkpt><trkpt lat="43.20186652100255" lon="-0.9687838645905518"><ele>274.0</ele><time>2026-04-29T10:51:32.001Z</time></trkpt><trkpt lat="43.20189384629865" lon="-0.9688867871608551"><ele>274.0</ele><time>2026-04-29T10:51:33.001Z</time></trkpt><trkpt lat="43.20191981841518" lon="-0.9689876868758451"><ele>274.0</ele><time>2026-04-29T10:51:34.001Z</time></trkpt><trkpt lat="43.20195172536536" lon="-0.9690909019298635"><ele>274.0</ele><time>2026-04-29T10:51:35.001Z</time></trkpt><trkpt lat="43.201983899268654" lon="-0.9691959517015601"><ele>274.0</ele><time>2026-04-29T10:51:36.001Z</time></trkpt><trkpt lat="43.20201401296638" lon="-0.9693014765319039"><ele>274.0</ele><time>2026-04-29T10:51:37.001Z</time></trkpt><trkpt lat="43.202044739396165" lon="-0.9694041596968657"><ele>274.0</ele><time>2026-04-29T10:51:38.001Z</time></trkpt><trkpt lat="43.20207549426014" lon="-0.9695079850046557"><ele>273.5</ele><time>2026-04-29T10:51:39.001Z</time></trkpt><trkpt lat="43.20210469746201" lon="-0.9696109848396469"><ele>273.0</ele><time>2026-04-29T10:51:40.001Z</time></trkpt><trkpt lat="43.20213416762284" lon="-0.9697155717545896"><ele>272.5</ele><time>2026-04-29T10:51:41.001Z</time></trkpt><trkpt lat="43.20216428587628" lon="-0.9698199606125418"><ele>272.0</ele><time>2026-04-29T10:51:42.001Z</time></trkpt><trkpt lat="43.2021940863794" lon="-0.9699233225618719"><ele>271.5</ele><time>2026-04-29T10:51:43.001Z</time></trkpt><trkpt lat="43.20222766187932" lon="-0.970024441753045"><ele>271.0</ele><time>2026-04-29T10:51:44.001Z</time></trkpt><trkpt lat="43.20226783304394" lon="-0.9701213239942249"><ele>270.5</ele><time>2026-04-29T10:51:45.001Z</time></trkpt><trkpt lat="43.202314406248355" lon="-0.9702145719251077"><ele>270.0</ele><time>2026-04-29T10:51:46.001Z</time></trkpt><trkpt lat="43.20237110691817" lon="-0.9702953352010236"><ele>269.5</ele><time>2026-04-29T10:51:47.001Z</time></trkpt><trkpt lat="43.20242843853812" lon="-0.970377292345038"><ele>269.0</ele><time>2026-04-29T10:51:48.001Z</time></trkpt><trkpt lat="43.20248867304868" lon="-0.9704545412102806"><ele>268.5</ele><time>2026-04-29T10:51:49.001Z</time></trkpt><trkpt lat="43.202549414144386" lon="-0.9705287348707394"><ele>268.0</ele><time>2026-04-29T10:51:50.001Z</time></trkpt><trkpt lat="43.202610889789696" lon="-0.970606060867608"><ele>269.5</ele><time>2026-04-29T10:51:51.001Z</time></trkpt><trkpt lat="43.20267270836452" lon="-0.9706788315632269"><ele>271.0</ele><time>2026-04-29T10:51:52.001Z</time></trkpt><trkpt lat="43.2027352915389" lon="-0.9707517099362617"><ele>272.5</ele><time>2026-04-29T10:51:53.001Z</time></trkpt><trkpt lat="43.20279803851971" lon="-0.9708257092855407"><ele>274.0</ele><time>2026-04-29T10:51:54.001Z</time></trkpt><trkpt lat="43.20285952630451" lon="-0.9708989236481419"><ele>275.5</ele><time>2026-04-29T10:51:55Z</time></trkpt><trkpt lat="43.20292198616095" lon="-0.9709705647826008"><ele>277.0</ele><time>2026-04-29T10:51:56Z</time></trkpt><trkpt lat="43.2029832689536" lon="-0.9710457770492987"><ele>277.0</ele><time>2026-04-29T10:51:57Z</time></trkpt><trkpt lat="43.20304590749626" lon="-0.9711160643365817"><ele>277.0</ele><time>2026-04-29T10:51:58Z</time></trkpt><trkpt lat="43.20310793204121" lon="-0.9711881749350578"><ele>277.0</ele><time>2026-04-29T10:51:59Z</time></trkpt><trkpt lat="43.20316933832796" lon="-0.9712645226226898"><ele>277.0</ele><time>2026-04-29T10:52:00Z</time></trkpt><trkpt lat="43.2032322674017" lon="-0.9713407295773938"><ele>277.0</ele><time>2026-04-29T10:52:01Z</time></trkpt><trkpt lat="43.2032948509227" lon="-0.9714161172422883"><ele>277.0</ele><time>2026-04-29T10:52:02Z</time></trkpt><trkpt lat="43.20335700511053" lon="-0.9714912867204478"><ele>278.5</ele><time>2026-04-29T10:52:03Z</time></trkpt><trkpt lat="43.20341837345132" lon="-0.9715681203872071"><ele>280.0</ele><time>2026-04-29T10:52:04Z</time></trkpt><trkpt lat="43.203480661208815" lon="-0.9716439498708684"><ele>281.5</ele><time>2026-04-29T10:52:05Z</time></trkpt><trkpt lat="43.20354226230209" lon="-0.9717217636528479"><ele>283.0</ele><time>2026-04-29T10:52:06Z</time></trkpt><trkpt lat="43.20360519183923" lon="-0.9717961280498727"><ele>284.5</ele><time>2026-04-29T10:52:07Z</time></trkpt><trkpt lat="43.20366639288778" lon="-0.9718715172877508"><ele>286.0</ele><time>2026-04-29T10:52:08Z</time></trkpt><trkpt lat="43.2037297505431" lon="-0.9719450093366837"><ele>286.0</ele><time>2026-04-29T10:52:09Z</time></trkpt><trkpt lat="43.20379085116336" lon="-0.9720237300887484"><ele>286.0</ele><time>2026-04-29T10:52:10Z</time></trkpt><trkpt lat="43.203853951106886" lon="-0.9720986744308617"><ele>286.0</ele><time>2026-04-29T10:52:11Z</time></trkpt><trkpt lat="43.20391827853356" lon="-0.9721678143152517"><ele>286.0</ele><time>2026-04-29T10:52:12Z</time></trkpt><trkpt lat="43.203982537463254" lon="-0.9722399363386548"><ele>286.0</ele><time>2026-04-29T10:52:13Z</time></trkpt><trkpt lat="43.20404664075414" lon="-0.9723142839485065"><ele>286.0</ele><time>2026-04-29T10:52:14Z</time></trkpt><trkpt lat="43.20410839645407" lon="-0.97238926498714"><ele>288.0</ele><time>2026-04-29T10:52:15Z</time></trkpt><trkpt lat="43.20417395926015" lon="-0.9724593341060841"><ele>290.0</ele><time>2026-04-29T10:52:16Z</time></trkpt><trkpt lat="43.2042405110719" lon="-0.9725261118770203"><ele>292.0</ele><time>2026-04-29T10:52:17Z</time></trkpt><trkpt lat="43.20431144596239" lon="-0.97258324339632"><ele>294.0</ele><time>2026-04-29T10:52:18Z</time></trkpt><trkpt lat="43.204388240988955" lon="-0.9726305471365104"><ele>296.0</ele><time>2026-04-29T10:52:19Z</time></trkpt><trkpt lat="43.20446664423402" lon="-0.9726713157394813"><ele>298.0</ele><time>2026-04-29T10:52:20Z</time></trkpt><trkpt lat="43.20454188651739" lon="-0.9727091530046836"><ele>298.0</ele><time>2026-04-29T10:52:21Z</time></trkpt><trkpt lat="43.2046183952799" lon="-0.9727439166046415"><ele>298.0</ele><time>2026-04-29T10:52:22Z</time></trkpt><trkpt lat="43.20469397810931" lon="-0.9727756560016366"><ele>298.0</ele><time>2026-04-29T10:52:23Z</time></trkpt><trkpt lat="43.20476897991347" lon="-0.9728078310470113"><ele>298.0</ele><time>2026-04-29T10:52:24Z</time></trkpt><trkpt lat="43.20484755837451" lon="-0.9728421487895685"><ele>298.0</ele><time>2026-04-29T10:52:25Z</time></trkpt><trkpt lat="43.204926090602946" lon="-0.9728807995389225"><ele>298.0</ele><time>2026-04-29T10:52:26Z</time></trkpt><trkpt lat="43.20500581838513" lon="-0.9729167165757405"><ele>300.0</ele><time>2026-04-29T10:52:27Z</time></trkpt><trkpt lat="43.205083179754595" lon="-0.972953050990924"><ele>302.0</ele><time>2026-04-29T10:52:28Z</time></trkpt><trkpt lat="43.20516124889104" lon="-0.9729922904460321"><ele>304.0</ele><time>2026-04-29T10:52:29Z</time></trkpt><trkpt lat="43.20523922681811" lon="-0.9730358089238699"><ele>306.0</ele><time>2026-04-29T10:52:30Z</time></trkpt><trkpt lat="43.205312455917934" lon="-0.9730770622738365"><ele>308.0</ele><time>2026-04-29T10:52:31Z</time></trkpt><trkpt lat="43.205388639377965" lon="-0.973117748395331"><ele>310.0</ele><time>2026-04-29T10:52:32.001Z</time></trkpt><trkpt lat="43.20546360108682" lon="-0.9731572978471751"><ele>310.0</ele><time>2026-04-29T10:52:33.001Z</time></trkpt><trkpt lat="43.20553918121487" lon="-0.9731982402538822"><ele>310.0</ele><time>2026-04-29T10:52:34.001Z</time></trkpt><trkpt lat="43.20561402533133" lon="-0.9732366704038078"><ele>310.0</ele><time>2026-04-29T10:52:35.001Z</time></trkpt><trkpt lat="43.20568581037423" lon="-0.9732782167996616"><ele>310.0</ele><time>2026-04-29T10:52:36.001Z</time></trkpt><trkpt lat="43.20576067729838" lon="-0.9733233535647013"><ele>310.0</ele><time>2026-04-29T10:52:37.001Z</time></trkpt><trkpt lat="43.20583448227524" lon="-0.9733664122817459"><ele>310.0</ele><time>2026-04-29T10:52:38.001Z</time></trkpt><trkpt lat="43.20590909348592" lon="-0.9734135523285357"><ele>310.8333333333333</ele><time>2026-04-29T10:52:39.001Z</time></trkpt><trkpt lat="43.205980683807496" lon="-0.9734630726624545"><ele>311.66666666666663</ele><time>2026-04-29T10:52:40.001Z</time></trkpt><trkpt lat="43.20605246884759" lon="-0.9735139055997052"><ele>312.5</ele><time>2026-04-29T10:52:41.001Z</time></trkpt><trkpt lat="43.206120842813526" lon="-0.9735695214930388"><ele>313.3333333333333</ele><time>2026-04-29T10:52:42.001Z</time></trkpt><trkpt lat="43.206188785660395" lon="-0.973627629591309"><ele>314.1666666666667</ele><time>2026-04-29T10:52:43.001Z</time></trkpt><trkpt lat="43.20625625569969" lon="-0.9736799731502277"><ele>315.0</ele><time>2026-04-29T10:52:44.001Z</time></trkpt><trkpt lat="43.206326172181164" lon="-0.9737363458843978"><ele>315.0</ele><time>2026-04-29T10:52:45.001Z</time></trkpt><trkpt lat="43.20639670812845" lon="-0.973793138186528"><ele>315.0</ele><time>2026-04-29T10:52:46.001Z</time></trkpt><trkpt lat="43.206470537919806" lon="-0.9738351879483103"><ele>315.0</ele><time>2026-04-29T10:52:47.001Z</time></trkpt><trkpt lat="43.20654749681943" lon="-0.9738640553106878"><ele>315.0</ele><time>2026-04-29T10:52:48.001Z</time></trkpt><trkpt lat="43.20662714729489" lon="-0.9738841029104286"><ele>315.0</ele><time>2026-04-29T10:52:49.001Z</time></trkpt><trkpt lat="43.20670671488495" lon="-0.9738931008606801"><ele>315.0</ele><time>2026-04-29T10:52:50.001Z</time></trkpt><trkpt lat="43.20678566278309" lon="-0.973896418851705"><ele>316.3333333333333</ele><time>2026-04-29T10:52:51.001Z</time></trkpt><trkpt lat="43.206864607089074" lon="-0.9738906334027813"><ele>317.6666666666667</ele><time>2026-04-29T10:52:52.001Z</time></trkpt><trkpt lat="43.20694141916798" lon="-0.9738856139581273"><ele>319.0</ele><time>2026-04-29T10:52:53.001Z</time></trkpt><trkpt lat="43.20701762838982" lon="-0.9738791557023827"><ele>320.33333333333337</ele><time>2026-04-29T10:52:54.001Z</time></trkpt><trkpt lat="43.2070944584246" lon="-0.9738661011063243"><ele>321.6666666666667</ele><time>2026-04-29T10:52:55.001Z</time></trkpt><trkpt lat="43.20717014502565" lon="-0.973858569147494"><ele>323.0</ele><time>2026-04-29T10:52:56.001Z</time></trkpt><trkpt lat="43.207242400026985" lon="-0.9738519231193542"><ele>323.00000000000006</ele><time>2026-04-29T10:52:57.001Z</time></trkpt><trkpt lat="43.20731504620751" lon="-0.9738439136813589"><ele>323.0</ele><time>2026-04-29T10:52:58.001Z</time></trkpt><trkpt lat="43.20738563050367" lon="-0.9738375404187719"><ele>323.0</ele><time>2026-04-29T10:52:59.001Z</time></trkpt><trkpt lat="43.20745824938652" lon="-0.9738331708570964"><ele>323.0</ele><time>2026-04-29T10:53:00.001Z</time></trkpt><trkpt lat="43.20753059836688" lon="-0.973831510116975"><ele>323.0</ele><time>2026-04-29T10:53:01.001Z</time></trkpt><trkpt lat="43.207604297580495" lon="-0.9738319064603562"><ele>323.00000000000006</ele><time>2026-04-29T10:53:02.001Z</time></trkpt><trkpt lat="43.20767491091735" lon="-0.9738355256529818"><ele>323.0</ele><time>2026-04-29T10:53:03.001Z</time></trkpt><trkpt lat="43.207744851476754" lon="-0.9738466064509642"><ele>324.14285714285717</ele><time>2026-04-29T10:53:04.001Z</time></trkpt><trkpt lat="43.20781542760665" lon="-0.9738640019415795"><ele>325.2857142857143</ele><time>2026-04-29T10:53:05.001Z</time></trkpt><trkpt lat="43.207889286312344" lon="-0.9738818638285374"><ele>326.42857142857144</ele><time>2026-04-29T10:53:06.001Z</time></trkpt><trkpt lat="43.20796304841187" lon="-0.9738991195227068"><ele>327.57142857142856</ele><time>2026-04-29T10:53:07.001Z</time></trkpt><trkpt lat="43.20803487105443" lon="-0.9739214890428046"><ele>328.7142857142857</ele><time>2026-04-29T10:53:08.001Z</time></trkpt><trkpt lat="43.20810945400035" lon="-0.9739440256770181"><ele>329.8571428571429</ele><time>2026-04-29T10:53:09.001Z</time></trkpt><trkpt lat="43.208181720364955" lon="-0.9739681552241026"><ele>331.0</ele><time>2026-04-29T10:53:10.001Z</time></trkpt><trkpt lat="43.20825317834593" lon="-0.9739955305798299"><ele>332.8333333333333</ele><time>2026-04-29T10:53:11.001Z</time></trkpt><trkpt lat="43.20832331371532" lon="-0.9740288002555519"><ele>334.66666666666663</ele><time>2026-04-29T10:53:12.001Z</time></trkpt><trkpt lat="43.2083923640173" lon="-0.9740604623005541"><ele>336.5</ele><time>2026-04-29T10:53:13.001Z</time></trkpt><trkpt lat="43.208462237607186" lon="-0.9740975249222713"><ele>338.3333333333333</ele><time>2026-04-29T10:53:14.001Z</time></trkpt><trkpt lat="43.20853280512913" lon="-0.974134623163511"><ele>340.1666666666667</ele><time>2026-04-29T10:53:15.001Z</time></trkpt><trkpt lat="43.208604142016725" lon="-0.9741719105340798"><ele>342.0</ele><time>2026-04-29T10:53:16.001Z</time></trkpt><trkpt lat="43.20867514862336" lon="-0.9742121222906647"><ele>342.0</ele><time>2026-04-29T10:53:17.001Z</time></trkpt><trkpt lat="43.20874533576806" lon="-0.9742584468030305"><ele>342.0</ele><time>2026-04-29T10:53:18.001Z</time></trkpt><trkpt lat="43.20881484051315" lon="-0.974307822695712"><ele>342.0</ele><time>2026-04-29T10:53:19.001Z</time></trkpt><trkpt lat="43.2088841103702" lon="-0.9743592660041613"><ele>342.0</ele><time>2026-04-29T10:53:20.001Z</time></trkpt><trkpt lat="43.208951489431925" lon="-0.9744105821072298"><ele>342.0</ele><time>2026-04-29T10:53:21.001Z</time></trkpt><trkpt lat="43.20901675932248" lon="-0.9744678808610324"><ele>342.0</ele><time>2026-04-29T10:53:22.001Z</time></trkpt><trkpt lat="43.20907855679175" lon="-0.9745304383353569"><ele>345.3333333333333</ele><time>2026-04-29T10:53:23.001Z</time></trkpt><trkpt lat="43.20912993405999" lon="-0.9746107662693988"><ele>348.6666666666667</ele><time>2026-04-29T10:53:24.001Z</time></trkpt><trkpt lat="43.2091729455506" lon="-0.9746949178808747"><ele>352.0</ele><time>2026-04-29T10:53:25.001Z</time></trkpt><trkpt lat="43.20920993706777" lon="-0.9747946200159598"><ele>355.33333333333337</ele><time>2026-04-29T10:53:26.001Z</time></trkpt><trkpt lat="43.20921840115783" lon="-0.9748944123872169"><ele>358.6666666666667</ele><time>2026-04-29T10:53:27.001Z</time></trkpt><trkpt lat="43.20921816421036" lon="-0.9750055222826862"><ele>362.0</ele><time>2026-04-29T10:53:28.001Z</time></trkpt><trkpt lat="43.20920328793372" lon="-0.9751110129604239"><ele>361.5</ele><time>2026-04-29T10:53:29.001Z</time></trkpt><trkpt lat="43.20916694397496" lon="-0.9752028236567587"><ele>361.0</ele><time>2026-04-29T10:53:30.001Z</time></trkpt><trkpt lat="43.209118089382" lon="-0.9752823672537775"><ele>360.5</ele><time>2026-04-29T10:53:31.001Z</time></trkpt><trkpt lat="43.209049599413426" lon="-0.9753527279787314"><ele>360.0</ele><time>2026-04-29T10:53:32.001Z</time></trkpt><trkpt lat="43.20897983387621" lon="-0.9754108144536194"><ele>359.5</ele><time>2026-04-29T10:53:33.001Z</time></trkpt><trkpt lat="43.208905209477486" lon="-0.9754639599625409"><ele>359.0</ele><time>2026-04-29T10:53:34.001Z</time></trkpt><trkpt lat="43.20882817341556" lon="-0.9755169572180701"><ele>359.0</ele><time>2026-04-29T10:53:35.001Z</time></trkpt><trkpt lat="43.208760541290424" lon="-0.9755776311131856"><ele>359.0</ele><time>2026-04-29T10:53:36.001Z</time></trkpt><trkpt lat="43.208688875725315" lon="-0.9756407080219293"><ele>359.0</ele><time>2026-04-29T10:53:37.001Z</time></trkpt><trkpt lat="43.208616847568834" lon="-0.9757089902514005"><ele>359.0</ele><time>2026-04-29T10:53:38.001Z</time></trkpt><trkpt lat="43.208548979008754" lon="-0.9757822776973339"><ele>359.0</ele><time>2026-04-29T10:53:39.001Z</time></trkpt><trkpt lat="43.20848014455766" lon="-0.9758539455801554"><ele>359.0</ele><time>2026-04-29T10:53:40.001Z</time></trkpt><trkpt lat="43.20841250634337" lon="-0.9759253118499513"><ele>356.6666666666667</ele><time>2026-04-29T10:53:41.001Z</time></trkpt><trkpt lat="43.20834596526083" lon="-0.9759992823321149"><ele>354.33333333333337</ele><time>2026-04-29T10:53:42.001Z</time></trkpt><trkpt lat="43.208282838291304" lon="-0.9760790004719025"><ele>352.0</ele><time>2026-04-29T10:53:43.001Z</time></trkpt><trkpt lat="43.20822973308693" lon="-0.9761715240157661"><ele>349.6666666666667</ele><time>2026-04-29T10:53:44.001Z</time></trkpt><trkpt lat="43.208188595804685" lon="-0.9762730034587253"><ele>347.3333333333333</ele><time>2026-04-29T10:53:45.001Z</time></trkpt><trkpt lat="43.20816396666235" lon="-0.9763853639706832"><ele>345.0</ele><time>2026-04-29T10:53:46.001Z</time></trkpt><trkpt lat="43.208151428550735" lon="-0.97649556911685"><ele>345.0</ele><time>2026-04-29T10:53:47.001Z</time></trkpt><trkpt lat="43.20814666330411" lon="-0.9766092316505559"><ele>345.0</ele><time>2026-04-29T10:53:48.001Z</time></trkpt><trkpt lat="43.20814768082843" lon="-0.9767214214522495"><ele>345.0</ele><time>2026-04-29T10:53:49.001Z</time></trkpt><trkpt lat="43.20815406086355" lon="-0.976834050318414"><ele>345.0</ele><time>2026-04-29T10:53:50.001Z</time></trkpt><trkpt lat="43.20816556831039" lon="-0.9769472050971569"><ele>345.0</ele><time>2026-04-29T10:53:51.001Z</time></trkpt><trkpt lat="43.20817578660768" lon="-0.9770579308361667"><ele>345.0</ele><time>2026-04-29T10:53:52.001Z</time></trkpt><trkpt lat="43.20818955960675" lon="-0.9771683525351834"><ele>349.0</ele><time>2026-04-29T10:53:53.001Z</time></trkpt><trkpt lat="43.20820631737071" lon="-0.977279112300902"><ele>353.0</ele><time>2026-04-29T10:53:54.001Z</time></trkpt><trkpt lat="43.208228626848005" lon="-0.9773891012258379"><ele>357.0</ele><time>2026-04-29T10:53:55.001Z</time></trkpt><trkpt lat="43.20825448573561" lon="-0.9774994747200177"><ele>361.0</ele><time>2026-04-29T10:53:56.001Z</time></trkpt><trkpt lat="43.20828452268822" lon="-0.9776067325398007"><ele>365.0</ele><time>2026-04-29T10:53:57.001Z</time></trkpt><trkpt lat="43.20832178958481" lon="-0.9777144594842875"><ele>369.0</ele><time>2026-04-29T10:53:58.001Z</time></trkpt><trkpt lat="43.208365060286305" lon="-0.9778135640868417"><ele>369.0</ele><time>2026-04-29T10:53:59.002Z</time></trkpt><trkpt lat="43.208412402373824" lon="-0.9779089677057508"><ele>369.0</ele><time>2026-04-29T10:54:00.002Z</time></trkpt><trkpt lat="43.208459273824886" lon="-0.9780025995024401"><ele>369.0</ele><time>2026-04-29T10:54:01.001Z</time></trkpt><trkpt lat="43.20851134560716" lon="-0.9780941787043113"><ele>369.0</ele><time>2026-04-29T10:54:02.001Z</time></trkpt><trkpt lat="43.208561797254504" lon="-0.9781847938962337"><ele>369.0</ele><time>2026-04-29T10:54:03.001Z</time></trkpt><trkpt lat="43.20861617573339" lon="-0.9782740357138621"><ele>369.0</ele><time>2026-04-29T10:54:04.001Z</time></trkpt><trkpt lat="43.20867082709928" lon="-0.9783585997128849"><ele>367.5</ele><time>2026-04-29T10:54:05.001Z</time></trkpt><trkpt lat="43.20872547099015" lon="-0.9784450134233895"><ele>366.0</ele><time>2026-04-29T10:54:06.001Z</time></trkpt><trkpt lat="43.20877827500625" lon="-0.978529074008827"><ele>364.5</ele><time>2026-04-29T10:54:07.001Z</time></trkpt><trkpt lat="43.20883098350621" lon="-0.9786130072058385"><ele>363.0</ele><time>2026-04-29T10:54:08.001Z</time></trkpt><trkpt lat="43.20888182215988" lon="-0.9786981168736355"><ele>361.5</ele><time>2026-04-29T10:54:09.001Z</time></trkpt><trkpt lat="43.2089293078929" lon="-0.9787855726931824"><ele>360.0</ele><time>2026-04-29T10:54:10.001Z</time></trkpt><trkpt lat="43.20897350569682" lon="-0.9788799727083873"><ele>363.6666666666667</ele><time>2026-04-29T10:54:11.001Z</time></trkpt><trkpt lat="43.2090135621386" lon="-0.9789782376297865"><ele>367.3333333333333</ele><time>2026-04-29T10:54:12.001Z</time></trkpt><trkpt lat="43.20905748532079" lon="-0.9790754957755046"><ele>371.0</ele><time>2026-04-29T10:54:13.001Z</time></trkpt><trkpt lat="43.20909737727006" lon="-0.9791735405322248"><ele>374.66666666666663</ele><time>2026-04-29T10:54:14.001Z</time></trkpt><trkpt lat="43.20913362763197" lon="-0.9792742005856317"><ele>378.3333333333333</ele><time>2026-04-29T10:54:15.001Z</time></trkpt><trkpt lat="43.209168475292174" lon="-0.9793743348147295"><ele>382.0</ele><time>2026-04-29T10:54:16.001Z</time></trkpt><trkpt lat="43.209203652899006" lon="-0.9794754847672469"><ele>382.0</ele><time>2026-04-29T10:54:17.001Z</time></trkpt><trkpt lat="43.20924050247828" lon="-0.9795774378118945"><ele>382.0</ele><time>2026-04-29T10:54:18.001Z</time></trkpt><trkpt lat="43.20927876779958" lon="-0.9796791113437123"><ele>382.0</ele><time>2026-04-29T10:54:19.001Z</time></trkpt><trkpt lat="43.20931968699781" lon="-0.9797826993348873"><ele>382.0</ele><time>2026-04-29T10:54:20.001Z</time></trkpt><trkpt lat="43.20935106786478" lon="-0.9798800022088597"><ele>382.0</ele><time>2026-04-29T10:54:21.001Z</time></trkpt><trkpt lat="43.209401374546296" lon="-0.9800103437136757"><ele>382.0</ele><time>2026-04-29T10:54:22.001Z</time></trkpt><trkpt lat="43.20944938233854" lon="-0.9801303376621631"><ele>382.0</ele><time>2026-04-29T10:54:23.001Z</time></trkpt><trkpt lat="43.20948473028751" lon="-0.9802483086857736"><ele>382.0</ele><time>2026-04-29T10:54:24.001Z</time></trkpt><trkpt lat="43.20952008979909" lon="-0.9803775402284081"><ele>382.0</ele><time>2026-04-29T10:54:25.001Z</time></trkpt><trkpt lat="43.209594042415276" lon="-0.9805458305726776"><ele>382.0</ele><time>2026-04-29T10:54:26.001Z</time></trkpt><trkpt lat="43.20960603003995" lon="-0.9807268436663156"><ele>382.0</ele><time>2026-04-29T10:54:27.001Z</time></trkpt><trkpt lat="43.20954082472563" lon="-0.9808410085857132"><ele>382.0</ele><time>2026-04-29T10:54:29.001Z</time></trkpt><trkpt lat="43.20953042097551" lon="-0.9809632896630996"><ele>382.0</ele><time>2026-04-29T10:54:30.001Z</time></trkpt><trkpt lat="43.20951946338806" lon="-0.9810855727284824"><ele>382.0</ele><time>2026-04-29T10:54:31.001Z</time></trkpt><trkpt lat="43.20950887285206" lon="-0.9812059800521452"><ele>382.0</ele><time>2026-04-29T10:54:32.001Z</time></trkpt><trkpt lat="43.20950635366044" lon="-0.9813248406745433"><ele>382.8333333333333</ele><time>2026-04-29T10:54:33.001Z</time></trkpt><trkpt lat="43.209521411082896" lon="-0.9814398962645843"><ele>383.66666666666663</ele><time>2026-04-29T10:54:34.001Z</time></trkpt><trkpt lat="43.20954082493063" lon="-0.981552587250745"><ele>384.5</ele><time>2026-04-29T10:54:35.001Z</time></trkpt><trkpt lat="43.20956219558322" lon="-0.9816655377234113"><ele>385.3333333333333</ele><time>2026-04-29T10:54:36.001Z</time></trkpt><trkpt lat="43.20958609154746" lon="-0.9817804526554953"><ele>386.1666666666667</ele><time>2026-04-29T10:54:37.001Z</time></trkpt><trkpt lat="43.209609478618276" lon="-0.9818902851700115"><ele>387.0</ele><time>2026-04-29T10:54:38.001Z</time></trkpt><trkpt lat="43.209633923239224" lon="-0.9819974135787678"><ele>388.8333333333333</ele><time>2026-04-29T10:54:39.001Z</time></trkpt><trkpt lat="43.209663376508665" lon="-0.9821000519363469"><ele>390.66666666666663</ele><time>2026-04-29T10:54:40.001Z</time></trkpt><trkpt lat="43.209692321334394" lon="-0.9822071048287976"><ele>392.5</ele><time>2026-04-29T10:54:41.001Z</time></trkpt><trkpt lat="43.20970361972578" lon="-0.9823170569154025"><ele>394.3333333333333</ele><time>2026-04-29T10:54:42.001Z</time></trkpt><trkpt lat="43.20970214965601" lon="-0.9824315588317447"><ele>396.16666666666663</ele><time>2026-04-29T10:54:43.001Z</time></trkpt><trkpt lat="43.20968286151137" lon="-0.9825430195792211"><ele>398.0</ele><time>2026-04-29T10:54:44.001Z</time></trkpt><trkpt lat="43.20964789470642" lon="-0.9826462362251261"><ele>400.66666666666663</ele><time>2026-04-29T10:54:45.001Z</time></trkpt><trkpt lat="43.20959043773766" lon="-0.9827326075551429"><ele>403.3333333333333</ele><time>2026-04-29T10:54:46.001Z</time></trkpt><trkpt lat="43.209527135929136" lon="-0.9828128054590969"><ele>406.0</ele><time>2026-04-29T10:54:47.001Z</time></trkpt><trkpt lat="43.209456466138654" lon="-0.9828812633807792"><ele>408.66666666666663</ele><time>2026-04-29T10:54:48.001Z</time></trkpt><trkpt lat="43.20938463472112" lon="-0.9829442922378316"><ele>411.3333333333333</ele><time>2026-04-29T10:54:49.001Z</time></trkpt><trkpt lat="43.209309358991895" lon="-0.9830008000423504"><ele>414.0</ele><time>2026-04-29T10:54:50.001Z</time></trkpt><trkpt lat="43.20923393819395" lon="-0.9830431699781456"><ele>414.0</ele><time>2026-04-29T10:54:51.001Z</time></trkpt><trkpt lat="43.20917539840237" lon="-0.983116167953344"><ele>414.0</ele><time>2026-04-29T10:54:52.001Z</time></trkpt><trkpt lat="43.20913086594832" lon="-0.9832056101780559"><ele>414.0</ele><time>2026-04-29T10:54:53.001Z</time></trkpt><trkpt lat="43.20910122730493" lon="-0.9833088035927188"><ele>414.0</ele><time>2026-04-29T10:54:54.001Z</time></trkpt><trkpt lat="43.20908375275443" lon="-0.9834183674653131"><ele>414.0</ele><time>2026-04-29T10:54:55.001Z</time></trkpt><trkpt lat="43.2090755099675" lon="-0.9835310240716234"><ele>414.0</ele><time>2026-04-29T10:54:56.001Z</time></trkpt><trkpt lat="43.20908328343138" lon="-0.9836454670725989"><ele>415.5</ele><time>2026-04-29T10:54:57.001Z</time></trkpt><trkpt lat="43.209077032403115" lon="-0.9837531427983867"><ele>417.0</ele><time>2026-04-29T10:54:58.001Z</time></trkpt><trkpt lat="43.20907084485803" lon="-0.9838619264660252"><ele>418.5</ele><time>2026-04-29T10:54:59.001Z</time></trkpt><trkpt lat="43.20906269840802" lon="-0.9839627837685205"><ele>420.0</ele><time>2026-04-29T10:55:00.001Z</time></trkpt><trkpt lat="43.20903904583636" lon="-0.9841171775545641"><ele>421.5</ele><time>2026-04-29T10:55:02.001Z</time></trkpt><trkpt lat="43.20899153028246" lon="-0.9842380975634968"><ele>423.0</ele><time>2026-04-29T10:55:04.001Z</time></trkpt><trkpt lat="43.20897344845649" lon="-0.9843298948988212"><ele>424.4</ele><time>2026-04-29T10:55:08.001Z</time></trkpt><trkpt lat="43.20889342123185" lon="-0.9843279306230792"><ele>425.79999999999995</ele><time>2026-04-29T10:55:50.001Z</time></trkpt><trkpt lat="43.20882498774942" lon="-0.9844030702510498"><ele>427.2</ele><time>2026-04-29T10:55:52.001Z</time></trkpt><trkpt lat="43.20871744458945" lon="-0.9844613039825467"><ele>428.6</ele><time>2026-04-29T10:55:54.001Z</time></trkpt><trkpt lat="43.20859616162872" lon="-0.984486768647393"><ele>430.0</ele><time>2026-04-29T10:55:56.001Z</time></trkpt><trkpt lat="43.208534272991464" lon="-0.9845127763189574"><ele>430.0</ele><time>2026-04-29T10:55:57.001Z</time></trkpt><trkpt lat="43.208473077158395" lon="-0.9845458402271428"><ele>430.0</ele><time>2026-04-29T10:55:58.001Z</time></trkpt><trkpt lat="43.20841666382057" lon="-0.9845937935381487"><ele>430.0</ele><time>2026-04-29T10:55:59.001Z</time></trkpt><trkpt lat="43.208346475026964" lon="-0.9846240843413184"><ele>430.0</ele><time>2026-04-29T10:56:00.001Z</time></trkpt><trkpt lat="43.20828023369737" lon="-0.9846711806192271"><ele>430.0</ele><time>2026-04-29T10:56:01.001Z</time></trkpt><trkpt lat="43.20822128232117" lon="-0.9847255873933161"><ele>430.0</ele><time>2026-04-29T10:56:02.001Z</time></trkpt><trkpt lat="43.208161170519105" lon="-0.9847896491782276"><ele>430.0</ele><time>2026-04-29T10:56:03.001Z</time></trkpt><trkpt lat="43.20810386456527" lon="-0.9848590805183948"><ele>427.50000000000006</ele><time>2026-04-29T10:56:04.001Z</time></trkpt><trkpt lat="43.208055489729524" lon="-0.9849405986965939"><ele>425.0</ele><time>2026-04-29T10:56:05.001Z</time></trkpt><trkpt lat="43.208013929540456" lon="-0.9850308661424293"><ele>422.5</ele><time>2026-04-29T10:56:06.001Z</time></trkpt><trkpt lat="43.20797323568458" lon="-0.9851189518819933"><ele>420.0</ele><time>2026-04-29T10:56:07.001Z</time></trkpt><trkpt lat="43.20792852251767" lon="-0.9852057528387248"><ele>417.50000000000006</ele><time>2026-04-29T10:56:08.001Z</time></trkpt><trkpt lat="43.207878107562664" lon="-0.9852843668863331"><ele>415.0</ele><time>2026-04-29T10:56:09.001Z</time></trkpt><trkpt lat="43.20783351167799" lon="-0.9853789133621802"><ele>415.00000000000006</ele><time>2026-04-29T10:56:10.001Z</time></trkpt><trkpt lat="43.20779255302937" lon="-0.9854714312420267"><ele>415.0</ele><time>2026-04-29T10:56:11.001Z</time></trkpt><trkpt lat="43.20775428631834" lon="-0.9855724684131504"><ele>415.0</ele><time>2026-04-29T10:56:12.001Z</time></trkpt><trkpt lat="43.20772144592798" lon="-0.9856768838859487"><ele>415.0</ele><time>2026-04-29T10:56:13.001Z</time></trkpt><trkpt lat="43.20769001576724" lon="-0.9857828557338845"><ele>415.00000000000006</ele><time>2026-04-29T10:56:14.001Z</time></trkpt><trkpt lat="43.20766343505274" lon="-0.9858889973127801"><ele>415.0</ele><time>2026-04-29T10:56:15.001Z</time></trkpt><trkpt lat="43.2076428627872" lon="-0.9859980770238567"><ele>416.00000000000006</ele><time>2026-04-29T10:56:16.001Z</time></trkpt><trkpt lat="43.20762844916365" lon="-0.986114168018413"><ele>417.0</ele><time>2026-04-29T10:56:17.001Z</time></trkpt><trkpt lat="43.20761991748409" lon="-0.9862312495542934"><ele>418.0</ele><time>2026-04-29T10:56:18.001Z</time></trkpt><trkpt lat="43.20761635754444" lon="-0.9863474748884192"><ele>419.0</ele><time>2026-04-29T10:56:19.001Z</time></trkpt><trkpt lat="43.20760776564954" lon="-0.9864658119863802"><ele>420.00000000000006</ele><time>2026-04-29T10:56:20.001Z</time></trkpt><trkpt lat="43.207606775507365" lon="-0.9865806328131009"><ele>421.0</ele><time>2026-04-29T10:56:21.001Z</time></trkpt><trkpt lat="43.20760796083878" lon="-0.9867009502292681"><ele>421.1666666666667</ele><time>2026-04-29T10:56:22.001Z</time></trkpt><trkpt lat="43.20760990629068" lon="-0.9868215215523725"><ele>421.33333333333337</ele><time>2026-04-29T10:56:23.001Z</time></trkpt><trkpt lat="43.20761994370295" lon="-0.9869415727694328"><ele>421.5</ele><time>2026-04-29T10:56:24.001Z</time></trkpt><trkpt lat="43.20762852507281" lon="-0.9870637537639986"><ele>421.66666666666663</ele><time>2026-04-29T10:56:25.001Z</time></trkpt><trkpt lat="43.20763478137513" lon="-0.9871811473383615"><ele>421.8333333333333</ele><time>2026-04-29T10:56:26.001Z</time></trkpt><trkpt lat="43.20764880946385" lon="-0.9872982581011153"><ele>422.0</ele><time>2026-04-29T10:56:27.001Z</time></trkpt><trkpt lat="43.207661062487404" lon="-0.9874206069869984"><ele>421.6</ele><time>2026-04-29T10:56:28.001Z</time></trkpt><trkpt lat="43.20767306974128" lon="-0.9875410975728852"><ele>421.20000000000005</ele><time>2026-04-29T10:56:29.001Z</time></trkpt><trkpt lat="43.20769136028581" lon="-0.9876642341543483"><ele>420.8</ele><time>2026-04-29T10:56:30.001Z</time></trkpt><trkpt lat="43.20770778402905" lon="-0.9877851169277694"><ele>420.4</ele><time>2026-04-29T10:56:31.001Z</time></trkpt><trkpt lat="43.20772472788781" lon="-0.987909218119359"><ele>420.0</ele><time>2026-04-29T10:56:32.001Z</time></trkpt><trkpt lat="43.20774304084536" lon="-0.9880329952328624"><ele>420.0</ele><time>2026-04-29T10:56:33.001Z</time></trkpt><trkpt lat="43.207765314207705" lon="-0.9881571190220984"><ele>420.0</ele><time>2026-04-29T10:56:34.001Z</time></trkpt><trkpt lat="43.20779850458517" lon="-0.9883056780170412"><ele>420.0</ele><time>2026-04-29T10:56:35.001Z</time></trkpt><trkpt lat="43.20780546404634" lon="-0.9884144116427885"><ele>420.0</ele><time>2026-04-29T10:56:36.001Z</time></trkpt><trkpt lat="43.20782625421667" lon="-0.9885491970492511"><ele>420.0</ele><time>2026-04-29T10:56:37.001Z</time></trkpt><trkpt lat="43.207843768582975" lon="-0.9886829941464658"><ele>420.8</ele><time>2026-04-29T10:56:38.001Z</time></trkpt><trkpt lat="43.207856874025055" lon="-0.9888085509587543"><ele>421.6</ele><time>2026-04-29T10:56:39.001Z</time></trkpt><trkpt lat="43.207876923149094" lon="-0.9889441690590232"><ele>422.4</ele><time>2026-04-29T10:56:40.001Z</time></trkpt><trkpt lat="43.207883097649606" lon="-0.9890775089816621"><ele>423.2</ele><time>2026-04-29T10:56:41.001Z</time></trkpt><trkpt lat="43.20787402303269" lon="-0.9892228920615591"><ele>424.0</ele><time>2026-04-29T10:56:42.001Z</time></trkpt><trkpt lat="43.20788022732049" lon="-0.9893552535239052"><ele>425.79999999999995</ele><time>2026-04-29T10:56:43.001Z</time></trkpt><trkpt lat="43.20788108925618" lon="-0.9894904162685669"><ele>427.59999999999997</ele><time>2026-04-29T10:56:44.001Z</time></trkpt><trkpt lat="43.20787758362414" lon="-0.9896276477997966"><ele>429.4</ele><time>2026-04-29T10:56:45.001Z</time></trkpt><trkpt lat="43.2078652966974" lon="-0.9897645460644662"><ele>431.2</ele><time>2026-04-29T10:56:46.001Z</time></trkpt><trkpt lat="43.20784835801172" lon="-0.9899001680206833"><ele>433.0</ele><time>2026-04-29T10:56:47.001Z</time></trkpt><trkpt lat="43.20782360279966" lon="-0.9900354987741441"><ele>434.0</ele><time>2026-04-29T10:56:48.001Z</time></trkpt><trkpt lat="43.20779570435144" lon="-0.9901653174606778"><ele>434.99999999999994</ele><time>2026-04-29T10:56:49.001Z</time></trkpt><trkpt lat="43.20775124785248" lon="-0.9902881136694539"><ele>435.99999999999994</ele><time>2026-04-29T10:56:50.001Z</time></trkpt><trkpt lat="43.2077005550041" lon="-0.9904124874526319"><ele>437.0</ele><time>2026-04-29T10:56:51.001Z</time></trkpt><trkpt lat="43.20764034874649" lon="-0.9905257469847363"><ele>438.0</ele><time>2026-04-29T10:56:52.001Z</time></trkpt><trkpt lat="43.2075836870823" lon="-0.9906333011660229"><ele>438.0</ele><time>2026-04-29T10:56:53.001Z</time></trkpt><trkpt lat="43.20753107106996" lon="-0.9907396639889207"><ele>437.99999999999994</ele><time>2026-04-29T10:56:54.001Z</time></trkpt><trkpt lat="43.20750497725361" lon="-0.9908563282262361"><ele>437.99999999999994</ele><time>2026-04-29T10:56:55.001Z</time></trkpt><trkpt lat="43.207433424162474" lon="-0.9909346873217683"><ele>438.0</ele><time>2026-04-29T10:56:56.001Z</time></trkpt><trkpt lat="43.207370976978275" lon="-0.9910234684652085"><ele>438.0</ele><time>2026-04-29T10:56:57.001Z</time></trkpt><trkpt lat="43.20731480160427" lon="-0.991118824374207"><ele>439.4</ele><time>2026-04-29T10:56:58.001Z</time></trkpt><trkpt lat="43.20725483384999" lon="-0.991213312223379"><ele>440.79999999999995</ele><time>2026-04-29T10:56:59.001Z</time></trkpt><trkpt lat="43.207195746795776" lon="-0.991320932495943"><ele>442.2</ele><time>2026-04-29T10:57:00.001Z</time></trkpt><trkpt lat="43.20714009654014" lon="-0.9914238010413499"><ele>443.6</ele><time>2026-04-29T10:57:01.001Z</time></trkpt><trkpt lat="43.20709406223872" lon="-0.9915387295042085"><ele>445.0</ele><time>2026-04-29T10:57:02.001Z</time></trkpt><trkpt lat="43.20704926723938" lon="-0.9916528513670608"><ele>446.8</ele><time>2026-04-29T10:57:03.001Z</time></trkpt><trkpt lat="43.20701057512829" lon="-0.991769359167604"><ele>448.6</ele><time>2026-04-29T10:57:04.001Z</time></trkpt><trkpt lat="43.206983976206615" lon="-0.9918931478789802"><ele>450.4</ele><time>2026-04-29T10:57:05.001Z</time></trkpt><trkpt lat="43.206979264928975" lon="-0.992022473921656"><ele>452.2</ele><time>2026-04-29T10:57:06.001Z</time></trkpt><trkpt lat="43.20697152428961" lon="-0.9921428878305873"><ele>454.0</ele><time>2026-04-29T10:57:07.001Z</time></trkpt><trkpt lat="43.20696963799072" lon="-0.9922603633872432"><ele>454.00000000000006</ele><time>2026-04-29T10:57:08.001Z</time></trkpt><trkpt lat="43.20697484700737" lon="-0.9923772843422347"><ele>454.0</ele><time>2026-04-29T10:57:09.001Z</time></trkpt><trkpt lat="43.20698743123171" lon="-0.9924912466259208"><ele>454.0</ele><time>2026-04-29T10:57:10.001Z</time></trkpt><trkpt lat="43.20700570302148" lon="-0.9925974833681878"><ele>454.0</ele><time>2026-04-29T10:57:11.001Z</time></trkpt><trkpt lat="43.20705819411482" lon="-0.9926780181001358"><ele>454.00000000000006</ele><time>2026-04-29T10:57:12.001Z</time></trkpt><trkpt lat="43.20707143522329" lon="-0.992803214213022"><ele>454.0</ele><time>2026-04-29T10:57:13.001Z</time></trkpt><trkpt lat="43.20709394697921" lon="-0.9929127297884903"><ele>455.6666666666667</ele><time>2026-04-29T10:57:14.001Z</time></trkpt><trkpt lat="43.20712268932875" lon="-0.993013943143606"><ele>457.33333333333337</ele><time>2026-04-29T10:57:15.001Z</time></trkpt><trkpt lat="43.20714383923524" lon="-0.9931193828618399"><ele>459.0</ele><time>2026-04-29T10:57:16.001Z</time></trkpt><trkpt lat="43.207159763698336" lon="-0.9932265336827051"><ele>460.66666666666663</ele><time>2026-04-29T10:57:17.001Z</time></trkpt><trkpt lat="43.207167128660544" lon="-0.9933301493543429"><ele>462.3333333333333</ele><time>2026-04-29T10:57:18.001Z</time></trkpt><trkpt lat="43.2071681190092" lon="-0.9934381442803771"><ele>464.0</ele><time>2026-04-29T10:57:19.001Z</time></trkpt><trkpt lat="43.20715668559677" lon="-0.9935421431103408"><ele>464.49999999999994</ele><time>2026-04-29T10:57:20.001Z</time></trkpt><trkpt lat="43.2071462602066" lon="-0.9936491345208611"><ele>465.0</ele><time>2026-04-29T10:57:21.001Z</time></trkpt><trkpt lat="43.20714291153406" lon="-0.9937536526120555"><ele>465.5</ele><time>2026-04-29T10:57:22.001Z</time></trkpt><trkpt lat="43.20712103203115" lon="-0.9938481903916765"><ele>466.0</ele><time>2026-04-29T10:57:23.001Z</time></trkpt><trkpt lat="43.20709582959365" lon="-0.9939455046477396"><ele>466.49999999999994</ele><time>2026-04-29T10:57:24.001Z</time></trkpt><trkpt lat="43.20706793175758" lon="-0.9940458483970728"><ele>467.0</ele><time>2026-04-29T10:57:25.001Z</time></trkpt><trkpt lat="43.207032821875195" lon="-0.9941405190388447"><ele>465.66666666666663</ele><time>2026-04-29T10:57:26.001Z</time></trkpt><trkpt lat="43.206996357642964" lon="-0.9942298579627222"><ele>464.3333333333333</ele><time>2026-04-29T10:57:27.001Z</time></trkpt><trkpt lat="43.206948872283064" lon="-0.99431023946805"><ele>463.0</ele><time>2026-04-29T10:57:28.001Z</time></trkpt><trkpt lat="43.20689652792587" lon="-0.9943953662583244"><ele>461.66666666666663</ele><time>2026-04-29T10:57:29.001Z</time></trkpt><trkpt lat="43.20684930860018" lon="-0.9944780350469419"><ele>460.3333333333333</ele><time>2026-04-29T10:57:30.001Z</time></trkpt><trkpt lat="43.20678850750015" lon="-0.9945326689969651"><ele>459.0</ele><time>2026-04-29T10:57:31.001Z</time></trkpt><trkpt lat="43.20673485030878" lon="-0.9946375356895207"><ele>459.0</ele><time>2026-04-29T10:57:32.001Z</time></trkpt><trkpt lat="43.206681894005804" lon="-0.9947214130300334"><ele>459.0</ele><time>2026-04-29T10:57:33.001Z</time></trkpt><trkpt lat="43.20662937529086" lon="-0.9948050912095912"><ele>459.0</ele><time>2026-04-29T10:57:34.001Z</time></trkpt><trkpt lat="43.206582846868734" lon="-0.9948976283415604"><ele>459.0</ele><time>2026-04-29T10:57:35.001Z</time></trkpt><trkpt lat="43.206547995306224" lon="-0.9949943967752798"><ele>459.0</ele><time>2026-04-29T10:57:36.001Z</time></trkpt><trkpt lat="43.20651822130319" lon="-0.9950946070602381"><ele>459.0</ele><time>2026-04-29T10:57:37.001Z</time></trkpt><trkpt lat="43.20649231297188" lon="-0.9951976791958249"><ele>463.5</ele><time>2026-04-29T10:57:38.001Z</time></trkpt><trkpt lat="43.20647245890905" lon="-0.9952946366483507"><ele>468.0</ele><time>2026-04-29T10:57:39.001Z</time></trkpt><trkpt lat="43.20645875442775" lon="-0.9954010929931937"><ele>472.5</ele><time>2026-04-29T10:57:40.001Z</time></trkpt><trkpt lat="43.20644643275203" lon="-0.9955051071971874"><ele>477.0</ele><time>2026-04-29T10:57:41.001Z</time></trkpt><trkpt lat="43.206428938621855" lon="-0.9956024437922927"><ele>481.5</ele><time>2026-04-29T10:57:42.001Z</time></trkpt><trkpt lat="43.206410136323065" lon="-0.9957091658001258"><ele>486.0</ele><time>2026-04-29T10:57:43.001Z</time></trkpt><trkpt lat="43.20639347364371" lon="-0.9958116091104979"><ele>483.6666666666667</ele><time>2026-04-29T10:57:44.001Z</time></trkpt><trkpt lat="43.20637235681894" lon="-0.9959143216894828"><ele>481.33333333333337</ele><time>2026-04-29T10:57:45.001Z</time></trkpt><trkpt lat="43.20634320862254" lon="-0.9960184484706484"><ele>479.0</ele><time>2026-04-29T10:57:46.001Z</time></trkpt><trkpt lat="43.20631564949379" lon="-0.9961262213532268"><ele>476.6666666666667</ele><time>2026-04-29T10:57:47.001Z</time></trkpt><trkpt lat="43.20628349106335" lon="-0.9962303363617853"><ele>474.33333333333337</ele><time>2026-04-29T10:57:48.001Z</time></trkpt><trkpt lat="43.20624795832118" lon="-0.9963372413650993"><ele>472.0</ele><time>2026-04-29T10:57:49.001Z</time></trkpt><trkpt lat="43.20620694863213" lon="-0.9964383916945013"><ele>472.00000000000006</ele><time>2026-04-29T10:57:50.001Z</time></trkpt><trkpt lat="43.20615691429113" lon="-0.9965309541911976"><ele>472.0</ele><time>2026-04-29T10:57:51.001Z</time></trkpt><trkpt lat="43.20610942942792" lon="-0.9966323670108328"><ele>472.0</ele><time>2026-04-29T10:57:52.001Z</time></trkpt><trkpt lat="43.20604084907539" lon="-0.9967076444070944"><ele>472.0</ele><time>2026-04-29T10:57:53.001Z</time></trkpt><trkpt lat="43.20595879469574" lon="-0.9967481335473009"><ele>472.00000000000006</ele><time>2026-04-29T10:57:54.001Z</time></trkpt><trkpt lat="43.20588291457048" lon="-0.9967984895973349"><ele>472.0</ele><time>2026-04-29T10:57:55.001Z</time></trkpt><trkpt lat="43.20580368989408" lon="-0.9968434344652444"><ele>472.33333333333337</ele><time>2026-04-29T10:57:56.001Z</time></trkpt><trkpt lat="43.205722422397166" lon="-0.9968681752736901"><ele>472.6666666666667</ele><time>2026-04-29T10:57:57.001Z</time></trkpt><trkpt lat="43.20563710165876" lon="-0.9968910680678863"><ele>473.0</ele><time>2026-04-29T10:57:58.001Z</time></trkpt><trkpt lat="43.20555745198187" lon="-0.996916574662935"><ele>473.33333333333337</ele><time>2026-04-29T10:57:59.001Z</time></trkpt><trkpt lat="43.20547718303756" lon="-0.9969464698441513"><ele>473.6666666666667</ele><time>2026-04-29T10:58:00.001Z</time></trkpt><trkpt lat="43.20539428192686" lon="-0.9969718396135887"><ele>474.0</ele><time>2026-04-29T10:58:01.001Z</time></trkpt><trkpt lat="43.205316426396706" lon="-0.9970185568084948"><ele>474.0</ele><time>2026-04-29T10:58:02.001Z</time></trkpt><trkpt lat="43.205229142609475" lon="-0.9970268162402509"><ele>474.0</ele><time>2026-04-29T10:58:03.001Z</time></trkpt><trkpt lat="43.20515342664498" lon="-0.9970752169585103"><ele>474.0</ele><time>2026-04-29T10:58:04.001Z</time></trkpt><trkpt lat="43.205071785379324" lon="-0.997104063868164"><ele>474.0</ele><time>2026-04-29T10:58:05.001Z</time></trkpt><trkpt lat="43.20498683288991" lon="-0.9971145788685468"><ele>474.0</ele><time>2026-04-29T10:58:06.001Z</time></trkpt><trkpt lat="43.20491345643416" lon="-0.9971607621256423"><ele>474.0</ele><time>2026-04-29T10:58:07.001Z</time></trkpt><trkpt lat="43.20484154138241" lon="-0.9972292859078927"><ele>475.6666666666667</ele><time>2026-04-29T10:58:08.001Z</time></trkpt><trkpt lat="43.204790904757445" lon="-0.9973206260697126"><ele>477.33333333333337</ele><time>2026-04-29T10:58:09.001Z</time></trkpt><trkpt lat="43.204731867320845" lon="-0.9974116988117477"><ele>479.0</ele><time>2026-04-29T10:58:10.001Z</time></trkpt><trkpt lat="43.20467473184948" lon="-0.9975090633499507"><ele>480.6666666666667</ele><time>2026-04-29T10:58:11.001Z</time></trkpt><trkpt lat="43.20461592941729" lon="-0.9976078757080519"><ele>482.33333333333337</ele><time>2026-04-29T10:58:12.001Z</time></trkpt><trkpt lat="43.20455846432826" lon="-0.9977079296189238"><ele>484.0</ele><time>2026-04-29T10:58:13.001Z</time></trkpt><trkpt lat="43.204489891771594" lon="-0.9977953264163858"><ele>484.0</ele><time>2026-04-29T10:58:14.001Z</time></trkpt><trkpt lat="43.20443289650658" lon="-0.9979032333404542"><ele>484.0</ele><time>2026-04-29T10:58:15.001Z</time></trkpt><trkpt lat="43.204374403424936" lon="-0.9980083788500833"><ele>484.0</ele><time>2026-04-29T10:58:16.001Z</time></trkpt><trkpt lat="43.20431425009932" lon="-0.9981133752158358"><ele>484.0</ele><time>2026-04-29T10:58:17.001Z</time></trkpt><trkpt lat="43.20424660104111" lon="-0.998211348576125"><ele>484.0</ele><time>2026-04-29T10:58:18.001Z</time></trkpt><trkpt lat="43.20417104045402" lon="-0.998290624201934"><ele>484.4</ele><time>2026-04-29T10:58:19.001Z</time></trkpt><trkpt lat="43.20408442995248" lon="-0.9983629075338887"><ele>484.79999999999995</ele><time>2026-04-29T10:58:20.001Z</time></trkpt><trkpt lat="43.203998199923205" lon="-0.9984274070596264"><ele>485.20000000000005</ele><time>2026-04-29T10:58:21.001Z</time></trkpt><trkpt lat="43.20390629481029" lon="-0.9984795014542274"><ele>485.6</ele><time>2026-04-29T10:58:22.001Z</time></trkpt><trkpt lat="43.203809016349076" lon="-0.9985178593942935"><ele>486.0</ele><time>2026-04-29T10:58:23.001Z</time></trkpt><trkpt lat="43.20371190226555" lon="-0.9985611163227063"><ele>486.0</ele><time>2026-04-29T10:58:24.001Z</time></trkpt><trkpt lat="43.20361680566242" lon="-0.9986134842597035"><ele>486.0</ele><time>2026-04-29T10:58:25Z</time></trkpt><trkpt lat="43.203529929863606" lon="-0.9986850029137235"><ele>486.0</ele><time>2026-04-29T10:58:26Z</time></trkpt><trkpt lat="43.20345007044436" lon="-0.9987698692957558"><ele>486.0</ele><time>2026-04-29T10:58:27Z</time></trkpt><trkpt lat="43.203378829692554" lon="-0.9988756746607199"><ele>486.0</ele><time>2026-04-29T10:58:28Z</time></trkpt><trkpt lat="43.20331524359293" lon="-0.9989896475870981"><ele>486.0</ele><time>2026-04-29T10:58:29Z</time></trkpt><trkpt lat="43.20325775414557" lon="-0.9991017959912678"><ele>486.0</ele><time>2026-04-29T10:58:30Z</time></trkpt><trkpt lat="43.20320425651684" lon="-0.9992199271360044"><ele>486.0</ele><time>2026-04-29T10:58:31Z</time></trkpt><trkpt lat="43.20314659733506" lon="-0.9993368143323296"><ele>486.0</ele><time>2026-04-29T10:58:32Z</time></trkpt><trkpt lat="43.20309176026938" lon="-0.9994509848992759"><ele>486.0</ele><time>2026-04-29T10:58:33Z</time></trkpt><trkpt lat="43.20303741781376" lon="-0.9995700455383141"><ele>488.4</ele><time>2026-04-29T10:58:34Z</time></trkpt><trkpt lat="43.20298291492429" lon="-0.9996817413635317"><ele>490.8</ele><time>2026-04-29T10:58:35Z</time></trkpt><trkpt lat="43.202924537415576" lon="-0.9997938119040658"><ele>493.19999999999993</ele><time>2026-04-29T10:58:36Z</time></trkpt><trkpt lat="43.20286561488557" lon="-0.9999013907442051"><ele>495.59999999999997</ele><time>2026-04-29T10:58:37Z</time></trkpt><trkpt lat="43.20280471788979" lon="-1.0000093358640838"><ele>498.0</ele><time>2026-04-29T10:58:38Z</time></trkpt><trkpt lat="43.20274272315059" lon="-1.0001143241927217"><ele>498.0</ele><time>2026-04-29T10:58:39Z</time></trkpt><trkpt lat="43.202681164103026" lon="-1.0002184973366963"><ele>497.99999999999994</ele><time>2026-04-29T10:58:40Z</time></trkpt><trkpt lat="43.20261610880405" lon="-1.000311928931314"><ele>497.99999999999994</ele><time>2026-04-29T10:58:41Z</time></trkpt><trkpt lat="43.20253677618356" lon="-1.0003907011019695"><ele>498.0</ele><time>2026-04-29T10:58:42Z</time></trkpt><trkpt lat="43.20245359465399" lon="-1.0004557760003634"><ele>498.0</ele><time>2026-04-29T10:58:43Z</time></trkpt><trkpt lat="43.2023650198237" lon="-1.0005066811386"><ele>500.4</ele><time>2026-04-29T10:58:44Z</time></trkpt><trkpt lat="43.20227461560075" lon="-1.0005500968566585"><ele>502.79999999999995</ele><time>2026-04-29T10:58:45Z</time></trkpt><trkpt lat="43.20218325154359" lon="-1.0005863525986582"><ele>505.2</ele><time>2026-04-29T10:58:46Z</time></trkpt><trkpt lat="43.20209215351681" lon="-1.0006125361539295"><ele>507.6</ele><time>2026-04-29T10:58:47Z</time></trkpt><trkpt lat="43.20199748263382" lon="-1.0006234747764622"><ele>510.0</ele><time>2026-04-29T10:58:48Z</time></trkpt><trkpt lat="43.20189935476729" lon="-1.000622389606054"><ele>510.0</ele><time>2026-04-29T10:58:49Z</time></trkpt><trkpt lat="43.20180185242951" lon="-1.0006152736181033"><ele>510.0</ele><time>2026-04-29T10:58:50Z</time></trkpt><trkpt lat="43.201703038145645" lon="-1.000602904770195"><ele>510.0</ele><time>2026-04-29T10:58:51Z</time></trkpt><trkpt lat="43.201603236308074" lon="-1.0005853020671178"><ele>510.0</ele><time>2026-04-29T10:58:52Z</time></trkpt><trkpt lat="43.2015037906787" lon="-1.0005645405817927"><ele>510.0</ele><time>2026-04-29T10:58:53Z</time></trkpt><trkpt lat="43.20140404469302" lon="-1.0005379408358654"><ele>510.4</ele><time>2026-04-29T10:58:54Z</time></trkpt><trkpt lat="43.201306300300544" lon="-1.000507449382933"><ele>510.8</ele><time>2026-04-29T10:58:55Z</time></trkpt><trkpt lat="43.2012080084638" lon="-1.0004775247220397"><ele>511.20000000000005</ele><time>2026-04-29T10:58:56Z</time></trkpt><trkpt lat="43.201109085552474" lon="-1.000450068671775"><ele>511.6</ele><time>2026-04-29T10:58:57Z</time></trkpt><trkpt lat="43.201009973658785" lon="-1.0004304641705102"><ele>512.0</ele><time>2026-04-29T10:58:58Z</time></trkpt><trkpt lat="43.200908390237814" lon="-1.0004050327018252"><ele>512.0</ele><time>2026-04-29T10:58:59Z</time></trkpt><trkpt lat="43.200810295219355" lon="-1.000394349048492"><ele>512.0</ele><time>2026-04-29T10:59:00Z</time></trkpt><trkpt lat="43.20070758237516" lon="-1.0003756390310594"><ele>512.0</ele><time>2026-04-29T10:59:01Z</time></trkpt><trkpt lat="43.200605264536186" lon="-1.000358031950572"><ele>512.0</ele><time>2026-04-29T10:59:02Z</time></trkpt><trkpt lat="43.200504044513124" lon="-1.0003480349559184"><ele>512.0</ele><time>2026-04-29T10:59:03Z</time></trkpt><trkpt lat="43.20040193665388" lon="-1.0003387398276666"><ele>512.2</ele><time>2026-04-29T10:59:04Z</time></trkpt><trkpt lat="43.20029957939482" lon="-1.0003412245041006"><ele>512.4000000000001</ele><time>2026-04-29T10:59:05.001Z</time></trkpt><trkpt lat="43.20020439090285" lon="-1.0003584756896151"><ele>512.5999999999999</ele><time>2026-04-29T10:59:06.001Z</time></trkpt><trkpt lat="43.2001089758136" lon="-1.0004021267216323"><ele>512.8</ele><time>2026-04-29T10:59:07.001Z</time></trkpt><trkpt lat="43.20002091133209" lon="-1.000480711651974"><ele>513.0</ele><time>2026-04-29T10:59:08.001Z</time></trkpt><trkpt lat="43.19994201917955" lon="-1.0005772989492925"><ele>513.0</ele><time>2026-04-29T10:59:09.001Z</time></trkpt><trkpt lat="43.19987110431305" lon="-1.000685600904102"><ele>513.0</ele><time>2026-04-29T10:59:10.001Z</time></trkpt><trkpt lat="43.199816056305295" lon="-1.0008182572125326"><ele>513.0</ele><time>2026-04-29T10:59:11.001Z</time></trkpt><trkpt lat="43.199783107052376" lon="-1.0009563259729075"><ele>513.0</ele><time>2026-04-29T10:59:12.001Z</time></trkpt><trkpt lat="43.19976795823984" lon="-1.0011070142214684"><ele>513.0</ele><time>2026-04-29T10:59:13.001Z</time></trkpt><trkpt lat="43.1997648652667" lon="-1.0012582646402945"><ele>513.6</ele><time>2026-04-29T10:59:14.001Z</time></trkpt><trkpt lat="43.19977308672265" lon="-1.0014066653303235"><ele>514.1999999999999</ele><time>2026-04-29T10:59:15.001Z</time></trkpt><trkpt lat="43.199790357327885" lon="-1.001558261385169"><ele>514.8</ele><time>2026-04-29T10:59:16.001Z</time></trkpt><trkpt lat="43.19981254390785" lon="-1.0017044326528874"><ele>515.4</ele><time>2026-04-29T10:59:17.001Z</time></trkpt><trkpt lat="43.19983270675782" lon="-1.0018462158751744"><ele>516.0</ele><time>2026-04-29T10:59:18.001Z</time></trkpt><trkpt lat="43.19985204332217" lon="-1.0019909181604452"><ele>514.4</ele><time>2026-04-29T10:59:19.001Z</time></trkpt><trkpt lat="43.19986755320526" lon="-1.002143886663882"><ele>512.8</ele><time>2026-04-29T10:59:20.001Z</time></trkpt><trkpt lat="43.199870226710644" lon="-1.0022967483035232"><ele>511.19999999999993</ele><time>2026-04-29T10:59:21.001Z</time></trkpt><trkpt lat="43.199854864209904" lon="-1.0024473626208787"><ele>509.59999999999997</ele><time>2026-04-29T10:59:22.001Z</time></trkpt><trkpt lat="43.199825111809005" lon="-1.0025925692816295"><ele>508.0</ele><time>2026-04-29T10:59:23.001Z</time></trkpt><trkpt lat="43.19977577283911" lon="-1.0027306920512404"><ele>508.0</ele><time>2026-04-29T10:59:24.001Z</time></trkpt><trkpt lat="43.19972344509224" lon="-1.0028661375498162"><ele>507.99999999999994</ele><time>2026-04-29T10:59:25.001Z</time></trkpt><trkpt lat="43.199671636815815" lon="-1.002984510651188"><ele>507.99999999999994</ele><time>2026-04-29T10:59:26.001Z</time></trkpt><trkpt lat="43.199620563996774" lon="-1.0031012739865184"><ele>508.0</ele><time>2026-04-29T10:59:27.001Z</time></trkpt><trkpt lat="43.199577167209455" lon="-1.003219358250985"><ele>508.0</ele><time>2026-04-29T10:59:28.001Z</time></trkpt><trkpt lat="43.19953993130001" lon="-1.0033406782354453"><ele>507.79999999999995</ele><time>2026-04-29T10:59:29.001Z</time></trkpt><trkpt lat="43.199513418007754" lon="-1.0034655469899476"><ele>507.59999999999997</ele><time>2026-04-29T10:59:30.001Z</time></trkpt><trkpt lat="43.19950177933211" lon="-1.0035993602454385"><ele>507.40000000000003</ele><time>2026-04-29T10:59:31.001Z</time></trkpt><trkpt lat="43.199491721497964" lon="-1.0037327786706627"><ele>507.20000000000005</ele><time>2026-04-29T10:59:32.001Z</time></trkpt><trkpt lat="43.199486950632156" lon="-1.0038676100050825"><ele>507.0</ele><time>2026-04-29T10:59:33.001Z</time></trkpt><trkpt lat="43.199496023322205" lon="-1.0040034692613486"><ele>507.0</ele><time>2026-04-29T10:59:34.001Z</time></trkpt><trkpt lat="43.199516040911455" lon="-1.0041444548769918"><ele>507.00000000000006</ele><time>2026-04-29T10:59:35.001Z</time></trkpt><trkpt lat="43.199537599177454" lon="-1.0042872334936614"><ele>507.00000000000006</ele><time>2026-04-29T10:59:36.001Z</time></trkpt><trkpt lat="43.199561269517964" lon="-1.0044317762939015"><ele>507.0</ele><time>2026-04-29T10:59:37.001Z</time></trkpt><trkpt lat="43.19958537093298" lon="-1.0045728584131173"><ele>507.0</ele><time>2026-04-29T10:59:38.001Z</time></trkpt><trkpt lat="43.199607552186855" lon="-1.004708597707064"><ele>507.0</ele><time>2026-04-29T10:59:39.001Z</time></trkpt><trkpt lat="43.19963241717004" lon="-1.004848552196248"><ele>507.00000000000006</ele><time>2026-04-29T10:59:40.001Z</time></trkpt><trkpt lat="43.1996584011657" lon="-1.0049914873017725"><ele>507.00000000000006</ele><time>2026-04-29T10:59:41.001Z</time></trkpt><trkpt lat="43.19967824679146" lon="-1.0051289406765047"><ele>507.0</ele><time>2026-04-29T10:59:42.001Z</time></trkpt><trkpt lat="43.19970046771575" lon="-1.005265272133273"><ele>507.0</ele><time>2026-04-29T10:59:43.001Z</time></trkpt><trkpt lat="43.199720973378035" lon="-1.0054026142728878"><ele>506.40000000000003</ele><time>2026-04-29T10:59:44.001Z</time></trkpt><trkpt lat="43.19973328919113" lon="-1.0055380727087684"><ele>505.80000000000007</ele><time>2026-04-29T10:59:45.001Z</time></trkpt><trkpt lat="43.1997358768019" lon="-1.0056757192478254"><ele>505.2</ele><time>2026-04-29T10:59:46.001Z</time></trkpt><trkpt lat="43.1997337090942" lon="-1.0058132839380929"><ele>504.6</ele><time>2026-04-29T10:59:47.001Z</time></trkpt><trkpt lat="43.199730734987206" lon="-1.0059506789516914"><ele>504.0</ele><time>2026-04-29T10:59:48.001Z</time></trkpt><trkpt lat="43.199732115297635" lon="-1.0060909244123282"><ele>503.0</ele><time>2026-04-29T10:59:49.001Z</time></trkpt><trkpt lat="43.19973420946305" lon="-1.006229990055623"><ele>502.0</ele><time>2026-04-29T10:59:50.001Z</time></trkpt><trkpt lat="43.19973775594172" lon="-1.0063664778368593"><ele>501.0</ele><time>2026-04-29T10:59:51.001Z</time></trkpt><trkpt lat="43.199741271449874" lon="-1.0065047540097845"><ele>500.0</ele><time>2026-04-29T10:59:52.001Z</time></trkpt><trkpt lat="43.19974859956757" lon="-1.0066458857544727"><ele>499.0</ele><time>2026-04-29T10:59:53.001Z</time></trkpt><trkpt lat="43.199755797873166" lon="-1.0067881299821508"><ele>499.0</ele><time>2026-04-29T10:59:54.001Z</time></trkpt><trkpt lat="43.199765967458404" lon="-1.006929815499773"><ele>499.0</ele><time>2026-04-29T10:59:55.001Z</time></trkpt><trkpt lat="43.19978167153831" lon="-1.0070733146794655"><ele>499.0</ele><time>2026-04-29T10:59:56.001Z</time></trkpt><trkpt lat="43.19980354103872" lon="-1.0072168802597898"><ele>499.0</ele><time>2026-04-29T10:59:57.001Z</time></trkpt><trkpt lat="43.199826126167366" lon="-1.0073557090167646"><ele>499.0</ele><time>2026-04-29T10:59:58.001Z</time></trkpt><trkpt lat="43.19984647715867" lon="-1.0074940039366722"><ele>494.4</ele><time>2026-04-29T10:59:59.001Z</time></trkpt><trkpt lat="43.19986504877703" lon="-1.0076327233483136"><ele>489.79999999999995</ele><time>2026-04-29T11:00:00.001Z</time></trkpt><trkpt lat="43.19988299606542" lon="-1.0077657401315125"><ele>485.20000000000005</ele><time>2026-04-29T11:00:01.001Z</time></trkpt><trkpt lat="43.19990655564196" lon="-1.0079008703448042"><ele>480.6</ele><time>2026-04-29T11:00:02.001Z</time></trkpt><trkpt lat="43.199942144140465" lon="-1.0080344435118718"><ele>476.0</ele><time>2026-04-29T11:00:03.001Z</time></trkpt><trkpt lat="43.19998617049697" lon="-1.0081641616272066"><ele>476.0</ele><time>2026-04-29T11:00:04.001Z</time></trkpt><trkpt lat="43.20004073061883" lon="-1.0082847204838545"><ele>476.0</ele><time>2026-04-29T11:00:05.001Z</time></trkpt><trkpt lat="43.20010701092636" lon="-1.008393841906175"><ele>476.0</ele><time>2026-04-29T11:00:06.001Z</time></trkpt><trkpt lat="43.20017523629898" lon="-1.0084942395554637"><ele>476.0</ele><time>2026-04-29T11:00:07.001Z</time></trkpt><trkpt lat="43.20024569732745" lon="-1.0085929743751947"><ele>476.0</ele><time>2026-04-29T11:00:08.001Z</time></trkpt><trkpt lat="43.20031657307989" lon="-1.0086889110777564"><ele>476.4</ele><time>2026-04-29T11:00:09.001Z</time></trkpt><trkpt lat="43.200387616939466" lon="-1.0087838295962899"><ele>476.8</ele><time>2026-04-29T11:00:10.001Z</time></trkpt><trkpt lat="43.20045479809694" lon="-1.008878519762916"><ele>477.19999999999993</ele><time>2026-04-29T11:00:11.001Z</time></trkpt><trkpt lat="43.20051653510017" lon="-1.0089804829441844"><ele>477.59999999999997</ele><time>2026-04-29T11:00:12.001Z</time></trkpt><trkpt lat="43.200577778233516" lon="-1.0090812339704727"><ele>478.0</ele><time>2026-04-29T11:00:13.001Z</time></trkpt><trkpt lat="43.20062923262212" lon="-1.009194805704909"><ele>476.2</ele><time>2026-04-29T11:00:14.001Z</time></trkpt><trkpt lat="43.20066812566471" lon="-1.0093218687949732"><ele>474.4</ele><time>2026-04-29T11:00:15.001Z</time></trkpt><trkpt lat="43.20070179160077" lon="-1.0094526179504828"><ele>472.59999999999997</ele><time>2026-04-29T11:00:16.001Z</time></trkpt><trkpt lat="43.20072778243781" lon="-1.0095855714290194"><ele>470.79999999999995</ele><time>2026-04-29T11:00:17.001Z</time></trkpt><trkpt lat="43.20074895873786" lon="-1.0097206294457621"><ele>469.0</ele><time>2026-04-29T11:00:18.001Z</time></trkpt><trkpt lat="43.20077308802904" lon="-1.0098554824138422"><ele>469.6</ele><time>2026-04-29T11:00:19Z</time></trkpt><trkpt lat="43.200790877002355" lon="-1.0099951999119976"><ele>470.2</ele><time>2026-04-29T11:00:20Z</time></trkpt><trkpt lat="43.200812832882065" lon="-1.0101336176094575"><ele>470.80000000000007</ele><time>2026-04-29T11:00:21Z</time></trkpt><trkpt lat="43.20083077521949" lon="-1.0102739258826041"><ele>471.40000000000003</ele><time>2026-04-29T11:00:22Z</time></trkpt><trkpt lat="43.200854000230734" lon="-1.0104148515281957"><ele>472.0</ele><time>2026-04-29T11:00:23Z</time></trkpt><trkpt lat="43.20087983197035" lon="-1.0105562818893834"><ele>472.0</ele><time>2026-04-29T11:00:24Z</time></trkpt><trkpt lat="43.20090753459215" lon="-1.0106965430016794"><ele>472.00000000000006</ele><time>2026-04-29T11:00:25Z</time></trkpt><trkpt lat="43.2009381338226" lon="-1.010838268202027"><ele>472.00000000000006</ele><time>2026-04-29T11:00:26Z</time></trkpt><trkpt lat="43.20097183393339" lon="-1.0109768978070286"><ele>472.0</ele><time>2026-04-29T11:00:27Z</time></trkpt><trkpt lat="43.20100030317499" lon="-1.0111195060494198"><ele>472.0</ele><time>2026-04-29T11:00:28Z</time></trkpt><trkpt lat="43.201016300869185" lon="-1.0112632462170728"><ele>472.20000000000005</ele><time>2026-04-29T11:00:29Z</time></trkpt><trkpt lat="43.201045132717375" lon="-1.0114012280144586"><ele>472.40000000000003</ele><time>2026-04-29T11:00:30Z</time></trkpt><trkpt lat="43.20106613390287" lon="-1.0115460297904402"><ele>472.59999999999997</ele><time>2026-04-29T11:00:31Z</time></trkpt><trkpt lat="43.20109360666178" lon="-1.0116900376793385"><ele>472.79999999999995</ele><time>2026-04-29T11:00:32Z</time></trkpt><trkpt lat="43.20112335543067" lon="-1.0118324845140694"><ele>473.0</ele><time>2026-04-29T11:00:33Z</time></trkpt><trkpt lat="43.20114892902536" lon="-1.0119790458860602"><ele>473.2</ele><time>2026-04-29T11:00:34Z</time></trkpt><trkpt lat="43.20116100928207" lon="-1.012128305850492"><ele>473.4</ele><time>2026-04-29T11:00:35Z</time></trkpt><trkpt lat="43.2011676767923" lon="-1.012275533316851"><ele>473.59999999999997</ele><time>2026-04-29T11:00:36Z</time></trkpt><trkpt lat="43.2011733441088" lon="-1.0124251991255397"><ele>473.79999999999995</ele><time>2026-04-29T11:00:37Z</time></trkpt><trkpt lat="43.201178011904716" lon="-1.0125758710222108"><ele>474.0</ele><time>2026-04-29T11:00:38Z</time></trkpt><trkpt lat="43.201184513146686" lon="-1.0127267039697556"><ele>474.4</ele><time>2026-04-29T11:00:39Z</time></trkpt><trkpt lat="43.20119867953981" lon="-1.012878638245675"><ele>474.79999999999995</ele><time>2026-04-29T11:00:40Z</time></trkpt><trkpt lat="43.20121986799036" lon="-1.0130248276592773"><ele>475.20000000000005</ele><time>2026-04-29T11:00:41Z</time></trkpt><trkpt lat="43.20124144952318" lon="-1.0131680486355998"><ele>475.6</ele><time>2026-04-29T11:00:42Z</time></trkpt><trkpt lat="43.20125511946101" lon="-1.013311950871336"><ele>476.0</ele><time>2026-04-29T11:00:43Z</time></trkpt><trkpt lat="43.201261819388364" lon="-1.0134614615311222"><ele>474.20000000000005</ele><time>2026-04-29T11:00:44Z</time></trkpt><trkpt lat="43.20125169875317" lon="-1.013606877733843"><ele>472.40000000000003</ele><time>2026-04-29T11:00:45Z</time></trkpt><trkpt lat="43.20122919571635" lon="-1.0137537328550505"><ele>470.6</ele><time>2026-04-29T11:00:46Z</time></trkpt><trkpt lat="43.20119399173637" lon="-1.013895834976143"><ele>468.8</ele><time>2026-04-29T11:00:47Z</time></trkpt><trkpt lat="43.20115045542008" lon="-1.0140328373061773"><ele>467.0</ele><time>2026-04-29T11:00:48Z</time></trkpt><trkpt lat="43.20110638640336" lon="-1.0141717281715068"><ele>464.20000000000005</ele><time>2026-04-29T11:00:49Z</time></trkpt><trkpt lat="43.201063327108436" lon="-1.0143110467880048"><ele>461.40000000000003</ele><time>2026-04-29T11:00:50Z</time></trkpt><trkpt lat="43.201019705473186" lon="-1.0144505218113788"><ele>458.59999999999997</ele><time>2026-04-29T11:00:51Z</time></trkpt><trkpt lat="43.2009742742549" lon="-1.0145928220557745"><ele>455.79999999999995</ele><time>2026-04-29T11:00:52Z</time></trkpt><trkpt lat="43.20093283683291" lon="-1.0147342934623258"><ele>453.0</ele><time>2026-04-29T11:00:53Z</time></trkpt><trkpt lat="43.20089367095596" lon="-1.0148757705086917"><ele>450.0</ele><time>2026-04-29T11:00:54Z</time></trkpt><trkpt lat="43.2008554545269" lon="-1.015016223966746"><ele>446.99999999999994</ele><time>2026-04-29T11:00:55Z</time></trkpt><trkpt lat="43.20081471312988" lon="-1.0151544129130086"><ele>443.99999999999994</ele><time>2026-04-29T11:00:56Z</time></trkpt><trkpt lat="43.200774830474124" lon="-1.015290164085628"><ele>441.0</ele><time>2026-04-29T11:00:57Z</time></trkpt><trkpt lat="43.2007334440442" lon="-1.0154274478951109"><ele>438.0</ele><time>2026-04-29T11:00:58Z</time></trkpt><trkpt lat="43.20069207805795" lon="-1.0155687943106664"><ele>442.4</ele><time>2026-04-29T11:00:59Z</time></trkpt><trkpt lat="43.20065155450345" lon="-1.0157087523725503"><ele>446.79999999999995</ele><time>2026-04-29T11:01:00Z</time></trkpt><trkpt lat="43.20061307110938" lon="-1.0158478903336938"><ele>451.2</ele><time>2026-04-29T11:01:01Z</time></trkpt><trkpt lat="43.20056845784554" lon="-1.0159914983621008"><ele>455.6</ele><time>2026-04-29T11:01:02Z</time></trkpt><trkpt lat="43.20052193514552" lon="-1.016132501668073"><ele>460.0</ele><time>2026-04-29T11:01:03Z</time></trkpt><trkpt lat="43.20048356124256" lon="-1.0162792920378108"><ele>460.0</ele><time>2026-04-29T11:01:04Z</time></trkpt><trkpt lat="43.20045226753244" lon="-1.0164327137863438"><ele>460.0</ele><time>2026-04-29T11:01:05Z</time></trkpt><trkpt lat="43.200420093270665" lon="-1.0165860463088672"><ele>460.0</ele><time>2026-04-29T11:01:06Z</time></trkpt><trkpt lat="43.200391558910916" lon="-1.016739268529576"><ele>460.0</ele><time>2026-04-29T11:01:07Z</time></trkpt><trkpt lat="43.20036602561662" lon="-1.0168971159266682"><ele>457.0</ele><time>2026-04-29T11:01:08Z</time></trkpt><trkpt lat="43.20033736978141" lon="-1.0170402177157134"><ele>454.0</ele><time>2026-04-29T11:01:09Z</time></trkpt><trkpt lat="43.200301470473654" lon="-1.0172114875217295"><ele>451.0</ele><time>2026-04-29T11:01:10Z</time></trkpt><trkpt lat="43.200269062984205" lon="-1.0173692407832753"><ele>448.0</ele><time>2026-04-29T11:01:11Z</time></trkpt><trkpt lat="43.20023354173979" lon="-1.0175249662612769"><ele>444.0</ele><time>2026-04-29T11:01:12Z</time></trkpt><trkpt lat="43.20019953766264" lon="-1.0176719113061614"><ele>440.0</ele><time>2026-04-29T11:01:13Z</time></trkpt><trkpt lat="43.20015327329959" lon="-1.0178179837387002"><ele>436.0</ele><time>2026-04-29T11:01:14Z</time></trkpt><trkpt lat="43.20010329162355" lon="-1.0179600244846598"><ele>432.0</ele><time>2026-04-29T11:01:15Z</time></trkpt><trkpt lat="43.20004373584304" lon="-1.0181017104093257"><ele>432.0</ele><time>2026-04-29T11:01:16Z</time></trkpt><trkpt lat="43.19998075418337" lon="-1.01823686565479"><ele>432.0</ele><time>2026-04-29T11:01:17Z</time></trkpt><trkpt lat="43.19991439279541" lon="-1.0183668632308989"><ele>432.0</ele><time>2026-04-29T11:01:18Z</time></trkpt><trkpt lat="43.1998432010391" lon="-1.0184949083690404"><ele>432.0</ele><time>2026-04-29T11:01:19Z</time></trkpt><trkpt lat="43.19976917784496" lon="-1.0186183566626699"><ele>429.6</ele><time>2026-04-29T11:01:20Z</time></trkpt><trkpt lat="43.19969740516107" lon="-1.0187357664743937"><ele>427.20000000000005</ele><time>2026-04-29T11:01:21Z</time></trkpt><trkpt lat="43.19962700347174" lon="-1.0188551264229355"><ele>424.8</ele><time>2026-04-29T11:01:22Z</time></trkpt><trkpt lat="43.19956227413425" lon="-1.0189762462372245"><ele>422.4</ele><time>2026-04-29T11:01:23Z</time></trkpt><trkpt lat="43.199494150085506" lon="-1.0190989035558213"><ele>420.0</ele><time>2026-04-29T11:01:24Z</time></trkpt><trkpt lat="43.19942070480292" lon="-1.019214501194047"><ele>420.0</ele><time>2026-04-29T11:01:25Z</time></trkpt><trkpt lat="43.199338477071365" lon="-1.019318107002844"><ele>420.0</ele><time>2026-04-29T11:01:26Z</time></trkpt><trkpt lat="43.19925359629986" lon="-1.019421026000002"><ele>420.0</ele><time>2026-04-29T11:01:27Z</time></trkpt><trkpt lat="43.19916580480196" lon="-1.0195179113006412"><ele>420.0</ele><time>2026-04-29T11:01:28Z</time></trkpt><trkpt lat="43.19907773954652" lon="-1.01961517141356"><ele>419.25</ele><time>2026-04-29T11:01:29Z</time></trkpt><trkpt lat="43.1989918474644" lon="-1.019709558630344"><ele>418.5</ele><time>2026-04-29T11:01:30Z</time></trkpt><trkpt lat="43.19890212228125" lon="-1.0198006214583077"><ele>417.75</ele><time>2026-04-29T11:01:31Z</time></trkpt><trkpt lat="43.19881215396082" lon="-1.0198943062944532"><ele>417.0</ele><time>2026-04-29T11:01:32Z</time></trkpt><trkpt lat="43.19872073707459" lon="-1.0199900235548185"><ele>417.0</ele><time>2026-04-29T11:01:33Z</time></trkpt><trkpt lat="43.19863400323868" lon="-1.0200826851024678"><ele>417.0</ele><time>2026-04-29T11:01:34Z</time></trkpt><trkpt lat="43.19855179059208" lon="-1.0201902002814822"><ele>417.0</ele><time>2026-04-29T11:01:35Z</time></trkpt><trkpt lat="43.19848139040193" lon="-1.020305844583399"><ele>417.0</ele><time>2026-04-29T11:01:36Z</time></trkpt><trkpt lat="43.19841101372735" lon="-1.0204231642412893"><ele>417.0</ele><time>2026-04-29T11:01:37Z</time></trkpt><trkpt lat="43.19834357834284" lon="-1.0205395602864293"><ele>417.0</ele><time>2026-04-29T11:01:38Z</time></trkpt><trkpt lat="43.198274120162566" lon="-1.0206574089681144"><ele>417.0</ele><time>2026-04-29T11:01:39Z</time></trkpt><trkpt lat="43.19820148738512" lon="-1.020773520639776"><ele>417.0</ele><time>2026-04-29T11:01:40Z</time></trkpt><trkpt lat="43.19813138130313" lon="-1.0208882001627557"><ele>417.0</ele><time>2026-04-29T11:01:41Z</time></trkpt><trkpt lat="43.19804987648809" lon="-1.020984610882144"><ele>417.0</ele><time>2026-04-29T11:01:42Z</time></trkpt><trkpt lat="43.19795533125923" lon="-1.0210705823707422"><ele>415.8</ele><time>2026-04-29T11:01:43Z</time></trkpt><trkpt lat="43.19787522462612" lon="-1.0211708364749497"><ele>414.6</ele><time>2026-04-29T11:01:44Z</time></trkpt><trkpt lat="43.19779252238422" lon="-1.0212535936497695"><ele>413.40000000000003</ele><time>2026-04-29T11:01:45Z</time></trkpt><trkpt lat="43.19771263073599" lon="-1.0213269624382946"><ele>412.20000000000005</ele><time>2026-04-29T11:01:46Z</time></trkpt><trkpt lat="43.19764239965516" lon="-1.021418669956495"><ele>411.0</ele><time>2026-04-29T11:01:47Z</time></trkpt><trkpt lat="43.197570920426166" lon="-1.0215198767553682"><ele>411.0</ele><time>2026-04-29T11:01:48.001Z</time></trkpt><trkpt lat="43.19751953633855" lon="-1.021620073497935"><ele>411.0</ele><time>2026-04-29T11:01:49.001Z</time></trkpt><trkpt lat="43.197473928646396" lon="-1.021720996547464"><ele>411.0</ele><time>2026-04-29T11:01:50.001Z</time></trkpt><trkpt lat="43.19741784545044" lon="-1.0218302340891237"><ele>411.0</ele><time>2026-04-29T11:01:51.001Z</time></trkpt><trkpt lat="43.19736459210851" lon="-1.0219322474444021"><ele>411.0</ele><time>2026-04-29T11:01:52.001Z</time></trkpt><trkpt lat="43.19731685506855" lon="-1.022047985789084"><ele>410.0</ele><time>2026-04-29T11:01:53.001Z</time></trkpt><trkpt lat="43.197274655309855" lon="-1.022173181231631"><ele>409.0</ele><time>2026-04-29T11:01:54.001Z</time></trkpt><trkpt lat="43.19723544910699" lon="-1.022289934549595"><ele>408.0</ele><time>2026-04-29T11:01:55.001Z</time></trkpt><trkpt lat="43.19720250916" lon="-1.022414559584792"><ele>407.0</ele><time>2026-04-29T11:01:56.001Z</time></trkpt><trkpt lat="43.197169103220915" lon="-1.0225475342354409"><ele>406.0</ele><time>2026-04-29T11:01:57.001Z</time></trkpt><trkpt lat="43.19713161284835" lon="-1.0226788387910897"><ele>404.6</ele><time>2026-04-29T11:01:58.001Z</time></trkpt><trkpt lat="43.19709173161093" lon="-1.0228055380495193"><ele>403.20000000000005</ele><time>2026-04-29T11:01:59.001Z</time></trkpt><trkpt lat="43.19705633444632" lon="-1.0229246404095589"><ele>401.79999999999995</ele><time>2026-04-29T11:02:00.001Z</time></trkpt><trkpt lat="43.19701890934679" lon="-1.0230442722084738"><ele>400.4</ele><time>2026-04-29T11:02:01.001Z</time></trkpt><trkpt lat="43.19698121949826" lon="-1.0231610356885732"><ele>399.0</ele><time>2026-04-29T11:02:02.001Z</time></trkpt><trkpt lat="43.19693989071662" lon="-1.023272831180929"><ele>397.4</ele><time>2026-04-29T11:02:03.001Z</time></trkpt><trkpt lat="43.19689564869696" lon="-1.0233892822287152"><ele>395.79999999999995</ele><time>2026-04-29T11:02:04.001Z</time></trkpt><trkpt lat="43.19684966593523" lon="-1.023495223701514"><ele>394.20000000000005</ele><time>2026-04-29T11:02:05.001Z</time></trkpt><trkpt lat="43.19678610065655" lon="-1.0235929788250022"><ele>392.6</ele><time>2026-04-29T11:02:06.001Z</time></trkpt><trkpt lat="43.19671703327346" lon="-1.0236899176436123"><ele>391.0</ele><time>2026-04-29T11:02:07.001Z</time></trkpt><trkpt lat="43.196642213062056" lon="-1.0237665371265008"><ele>391.0</ele><time>2026-04-29T11:02:08.001Z</time></trkpt><trkpt lat="43.19656471152935" lon="-1.0238411617458938"><ele>391.0</ele><time>2026-04-29T11:02:09.001Z</time></trkpt><trkpt lat="43.19648775579662" lon="-1.0239111341381089"><ele>391.0</ele><time>2026-04-29T11:02:10.001Z</time></trkpt><trkpt lat="43.196407190185965" lon="-1.0239812773612424"><ele>391.0</ele><time>2026-04-29T11:02:11.001Z</time></trkpt><trkpt lat="43.1963235490424" lon="-1.0240464569846413"><ele>391.0</ele><time>2026-04-29T11:02:12.001Z</time></trkpt><trkpt lat="43.19623853399814" lon="-1.0241067640559796"><ele>391.20000000000005</ele><time>2026-04-29T11:02:13.001Z</time></trkpt><trkpt lat="43.19615370790198" lon="-1.0241592030853788"><ele>391.40000000000003</ele><time>2026-04-29T11:02:14.001Z</time></trkpt><trkpt lat="43.1960625621511" lon="-1.0242019249693202"><ele>391.6</ele><time>2026-04-29T11:02:15.001Z</time></trkpt><trkpt lat="43.19597122948899" lon="-1.0242475623181975"><ele>391.8</ele><time>2026-04-29T11:02:16.001Z</time></trkpt><trkpt lat="43.19588387711395" lon="-1.02430301050655"><ele>392.0</ele><time>2026-04-29T11:02:17.001Z</time></trkpt><trkpt lat="43.195798529036516" lon="-1.024375449286182"><ele>392.0</ele><time>2026-04-29T11:02:18.001Z</time></trkpt><trkpt lat="43.19570902730976" lon="-1.0244392519525352"><ele>392.0</ele><time>2026-04-29T11:02:19.001Z</time></trkpt><trkpt lat="43.19560663983528" lon="-1.0244878889658484"><ele>392.0</ele><time>2026-04-29T11:02:20.001Z</time></trkpt><trkpt lat="43.19550262180619" lon="-1.0245209336270107"><ele>392.0</ele><time>2026-04-29T11:02:21.001Z</time></trkpt><trkpt lat="43.195394028365506" lon="-1.0245432630478148"><ele>392.0</ele><time>2026-04-29T11:02:22.001Z</time></trkpt><trkpt lat="43.19528272653356" lon="-1.0245580947943667"><ele>390.40000000000003</ele><time>2026-04-29T11:02:23.001Z</time></trkpt><trkpt lat="43.195171971280814" lon="-1.024575011864282"><ele>388.8</ele><time>2026-04-29T11:02:24.001Z</time></trkpt><trkpt lat="43.19506095249333" lon="-1.0245859128028711"><ele>387.2</ele><time>2026-04-29T11:02:25Z</time></trkpt><trkpt lat="43.194949406143074" lon="-1.0245976067388378"><ele>385.6</ele><time>2026-04-29T11:02:26Z</time></trkpt><trkpt lat="43.19483851130867" lon="-1.0246124755602837"><ele>384.0</ele><time>2026-04-29T11:02:27Z</time></trkpt><trkpt lat="43.194729851440904" lon="-1.0246171822102779"><ele>384.0</ele><time>2026-04-29T11:02:28Z</time></trkpt><trkpt lat="43.19461920494233" lon="-1.0246201309909921"><ele>384.0</ele><time>2026-04-29T11:02:29Z</time></trkpt><trkpt lat="43.194509681602796" lon="-1.0246132776316292"><ele>384.0</ele><time>2026-04-29T11:02:30Z</time></trkpt><trkpt lat="43.19439984110408" lon="-1.0245982402294813"><ele>384.0</ele><time>2026-04-29T11:02:31Z</time></trkpt><trkpt lat="43.19429257359163" lon="-1.0245790665067362"><ele>384.0</ele><time>2026-04-29T11:02:32Z</time></trkpt><trkpt lat="43.19418537491849" lon="-1.0245520072185401"><ele>384.0</ele><time>2026-04-29T11:02:33Z</time></trkpt><trkpt lat="43.1940761123944" lon="-1.0245186500693564"><ele>384.0</ele><time>2026-04-29T11:02:34Z</time></trkpt><trkpt lat="43.19397647531031" lon="-1.0244665878331864"><ele>384.0</ele><time>2026-04-29T11:02:35Z</time></trkpt><trkpt lat="43.19386740378408" lon="-1.0243921006143744"><ele>384.0</ele><time>2026-04-29T11:02:36Z</time></trkpt><trkpt lat="43.19376474218775" lon="-1.024303410718731"><ele>386.25</ele><time>2026-04-29T11:02:37Z</time></trkpt><trkpt lat="43.19366812916324" lon="-1.0242245039712448"><ele>388.5</ele><time>2026-04-29T11:02:38Z</time></trkpt><trkpt lat="43.19356431232837" lon="-1.0241559439721448"><ele>390.75</ele><time>2026-04-29T11:02:39Z</time></trkpt><trkpt lat="43.193463015302264" lon="-1.0240723688918454"><ele>393.0</ele><time>2026-04-29T11:02:40Z</time></trkpt><trkpt lat="43.193371684626705" lon="-1.0239749501068194"><ele>387.0</ele><time>2026-04-29T11:02:41Z</time></trkpt><trkpt lat="43.193277226789874" lon="-1.0238853655120514"><ele>381.0</ele><time>2026-04-29T11:02:42Z</time></trkpt><trkpt lat="43.19318255099033" lon="-1.0237879471562965"><ele>375.0</ele><time>2026-04-29T11:02:43Z</time></trkpt><trkpt lat="43.193091310516486" lon="-1.0236873551756165"><ele>369.0</ele><time>2026-04-29T11:02:44Z</time></trkpt><trkpt lat="43.19299735289677" lon="-1.0235999378470937"><ele>369.0</ele><time>2026-04-29T11:02:45Z</time></trkpt><trkpt lat="43.19290124210074" lon="-1.0235035005095634"><ele>369.0</ele><time>2026-04-29T11:02:46Z</time></trkpt><trkpt lat="43.19281676969758" lon="-1.0234014454372493"><ele>369.0</ele><time>2026-04-29T11:02:47Z</time></trkpt><trkpt lat="43.19273495141693" lon="-1.023301307118201"><ele>369.0</ele><time>2026-04-29T11:02:48Z</time></trkpt><trkpt lat="43.1926433742725" lon="-1.0232184766109609"><ele>363.5</ele><time>2026-04-29T11:02:49Z</time></trkpt><trkpt lat="43.19253901912312" lon="-1.023150371023887"><ele>358.0</ele><time>2026-04-29T11:02:50Z</time></trkpt><trkpt lat="43.19242896212673" lon="-1.0231102474447207"><ele>352.5</ele><time>2026-04-29T11:02:51Z</time></trkpt><trkpt lat="43.19231156417787" lon="-1.023129109005732"><ele>347.0</ele><time>2026-04-29T11:02:52Z</time></trkpt><trkpt lat="43.192200099779555" lon="-1.023154726991313"><ele>348.20000000000005</ele><time>2026-04-29T11:02:53Z</time></trkpt><trkpt lat="43.19209808351529" lon="-1.0232182942262402"><ele>349.4</ele><time>2026-04-29T11:02:54Z</time></trkpt><trkpt lat="43.19199619734727" lon="-1.023297575830695"><ele>350.6</ele><time>2026-04-29T11:02:55Z</time></trkpt><trkpt lat="43.1919155850941" lon="-1.0233975645216835"><ele>351.79999999999995</ele><time>2026-04-29T11:02:56Z</time></trkpt><trkpt lat="43.19183519292417" lon="-1.0235006109869977"><ele>353.0</ele><time>2026-04-29T11:02:57Z</time></trkpt><trkpt lat="43.191757050365155" lon="-1.0236067014639962"><ele>353.0</ele><time>2026-04-29T11:02:58Z</time></trkpt><trkpt lat="43.191673113236455" lon="-1.023703283860136"><ele>353.0</ele><time>2026-04-29T11:02:59Z</time></trkpt><trkpt lat="43.19160211306281" lon="-1.0238197041261765"><ele>353.0</ele><time>2026-04-29T11:03:00Z</time></trkpt><trkpt lat="43.1915289033389" lon="-1.0239323669715013"><ele>353.0</ele><time>2026-04-29T11:03:01Z</time></trkpt><trkpt lat="43.19146231315577" lon="-1.0240459942416502"><ele>353.0</ele><time>2026-04-29T11:03:02Z</time></trkpt><trkpt lat="43.19140007129893" lon="-1.0241693810354464"><ele>349.2</ele><time>2026-04-29T11:03:03Z</time></trkpt><trkpt lat="43.19133781865438" lon="-1.0242926785235198"><ele>345.4</ele><time>2026-04-29T11:03:04Z</time></trkpt><trkpt lat="43.19127849817718" lon="-1.024420549052044"><ele>341.59999999999997</ele><time>2026-04-29T11:03:05Z</time></trkpt><trkpt lat="43.191222065143805" lon="-1.0245527559908745"><ele>337.79999999999995</ele><time>2026-04-29T11:03:06Z</time></trkpt><trkpt lat="43.191164636448946" lon="-1.0246888864716717"><ele>334.0</ele><time>2026-04-29T11:03:07Z</time></trkpt><trkpt lat="43.1911068533411" lon="-1.0248252765081518"><ele>334.0</ele><time>2026-04-29T11:03:08Z</time></trkpt><trkpt lat="43.19104487481444" lon="-1.024955756563043"><ele>334.0</ele><time>2026-04-29T11:03:09Z</time></trkpt><trkpt lat="43.19097169345737" lon="-1.0250784875362806"><ele>334.0</ele><time>2026-04-29T11:03:10Z</time></trkpt><trkpt lat="43.190893599636844" lon="-1.0251987424732039"><ele>334.0</ele><time>2026-04-29T11:03:11Z</time></trkpt><trkpt lat="43.190814314184166" lon="-1.025315178216863"><ele>337.0</ele><time>2026-04-29T11:03:12Z</time></trkpt><trkpt lat="43.19073586242738" lon="-1.025431263827649"><ele>340.0</ele><time>2026-04-29T11:03:13Z</time></trkpt><trkpt lat="43.190655165540484" lon="-1.0255468602959041"><ele>343.0</ele><time>2026-04-29T11:03:14Z</time></trkpt><trkpt lat="43.190575315465864" lon="-1.0256615784283891"><ele>346.0</ele><time>2026-04-29T11:03:15Z</time></trkpt><trkpt lat="43.19049685011931" lon="-1.0257800243041173"><ele>341.0</ele><time>2026-04-29T11:03:16Z</time></trkpt><trkpt lat="43.190423124255986" lon="-1.0259037787483685"><ele>336.0</ele><time>2026-04-29T11:03:17Z</time></trkpt><trkpt lat="43.190353118799024" lon="-1.0260303021571837"><ele>331.0</ele><time>2026-04-29T11:03:18Z</time></trkpt><trkpt lat="43.19028704559893" lon="-1.0261566560907145"><ele>326.0</ele><time>2026-04-29T11:03:19Z</time></trkpt><trkpt lat="43.190219968291096" lon="-1.026284984895152"><ele>326.0</ele><time>2026-04-29T11:03:20Z</time></trkpt><trkpt lat="43.1901492805401" lon="-1.0264051492984905"><ele>326.0</ele><time>2026-04-29T11:03:21Z</time></trkpt><trkpt lat="43.190071065754445" lon="-1.026525178476752"><ele>326.0</ele><time>2026-04-29T11:03:22Z</time></trkpt><trkpt lat="43.18999346032929" lon="-1.026643244261668"><ele>326.0</ele><time>2026-04-29T11:03:23Z</time></trkpt><trkpt lat="43.18991408565626" lon="-1.02676468067208"><ele>321.5</ele><time>2026-04-29T11:03:24Z</time></trkpt><trkpt lat="43.18983658406202" lon="-1.0268861382197214"><ele>317.0</ele><time>2026-04-29T11:03:25Z</time></trkpt><trkpt lat="43.189758567282176" lon="-1.0270084491810285"><ele>312.5</ele><time>2026-04-29T11:03:26Z</time></trkpt><trkpt lat="43.18968424532256" lon="-1.0271280488924053"><ele>308.0</ele><time>2026-04-29T11:03:27Z</time></trkpt><trkpt lat="43.18961310571536" lon="-1.0272495234651673"><ele>308.0</ele><time>2026-04-29T11:03:28Z</time></trkpt><trkpt lat="43.18954876448592" lon="-1.0273780024495736"><ele>308.0</ele><time>2026-04-29T11:03:29Z</time></trkpt><trkpt lat="43.18949795670259" lon="-1.0275218534167647"><ele>308.0</ele><time>2026-04-29T11:03:30Z</time></trkpt><trkpt lat="43.1894621641672" lon="-1.0276721919997216"><ele>308.0</ele><time>2026-04-29T11:03:31Z</time></trkpt><trkpt lat="43.189433746429856" lon="-1.02781881717609"><ele>310.2</ele><time>2026-04-29T11:03:32Z</time></trkpt><trkpt lat="43.18940676799404" lon="-1.0279629744293486"><ele>312.4</ele><time>2026-04-29T11:03:33Z</time></trkpt><trkpt lat="43.189367172065545" lon="-1.0280987337272172"><ele>314.59999999999997</ele><time>2026-04-29T11:03:34Z</time></trkpt><trkpt lat="43.18930713984247" lon="-1.0282194219237895"><ele>316.8</ele><time>2026-04-29T11:03:35Z</time></trkpt><trkpt lat="43.18922034218306" lon="-1.0283224581743213"><ele>319.0</ele><time>2026-04-29T11:03:36Z</time></trkpt><trkpt lat="43.18910941531206" lon="-1.028382501482456"><ele>316.75</ele><time>2026-04-29T11:03:37Z</time></trkpt><trkpt lat="43.188994694861556" lon="-1.0284225550277541"><ele>314.5</ele><time>2026-04-29T11:03:38Z</time></trkpt><trkpt lat="43.18888454344023" lon="-1.0284598449238995"><ele>312.25</ele><time>2026-04-29T11:03:39Z</time></trkpt><trkpt lat="43.18877749717684" lon="-1.028515205139559"><ele>310.0</ele><time>2026-04-29T11:03:40Z</time></trkpt><trkpt lat="43.1886752422262" lon="-1.028592877347495"><ele>310.0</ele><time>2026-04-29T11:03:41Z</time></trkpt><trkpt lat="43.18857584322326" lon="-1.0286687258699847"><ele>310.0</ele><time>2026-04-29T11:03:42Z</time></trkpt><trkpt lat="43.1884820686542" lon="-1.0287608276485498"><ele>310.0</ele><time>2026-04-29T11:03:43Z</time></trkpt><trkpt lat="43.18839978494984" lon="-1.028861495934956"><ele>310.0</ele><time>2026-04-29T11:03:44Z</time></trkpt><trkpt lat="43.1883231959532" lon="-1.028969936944847"><ele>310.0</ele><time>2026-04-29T11:03:45Z</time></trkpt><trkpt lat="43.188257994754665" lon="-1.029095692499781"><ele>313.25</ele><time>2026-04-29T11:03:46Z</time></trkpt><trkpt lat="43.18819472147919" lon="-1.0292235705284627"><ele>316.5</ele><time>2026-04-29T11:03:47Z</time></trkpt><trkpt lat="43.18813460035242" lon="-1.029351393564136"><ele>319.75</ele><time>2026-04-29T11:03:48Z</time></trkpt><trkpt lat="43.188087730766526" lon="-1.029490275247553"><ele>323.0</ele><time>2026-04-29T11:03:49Z</time></trkpt><trkpt lat="43.18804767808478" lon="-1.0296372046141289"><ele>318.59999999999997</ele><time>2026-04-29T11:03:50Z</time></trkpt><trkpt lat="43.188011175889166" lon="-1.0297824878655566"><ele>314.2</ele><time>2026-04-29T11:03:51Z</time></trkpt><trkpt lat="43.18797619415289" lon="-1.029925761896462"><ele>309.8</ele><time>2026-04-29T11:03:52Z</time></trkpt><trkpt lat="43.187939567139594" lon="-1.0300699519655196"><ele>305.4</ele><time>2026-04-29T11:03:53Z</time></trkpt><trkpt lat="43.187904790361635" lon="-1.0302120330808011"><ele>301.0</ele><time>2026-04-29T11:03:54Z</time></trkpt><trkpt lat="43.18786697411403" lon="-1.030356806746876"><ele>301.0</ele><time>2026-04-29T11:03:55Z</time></trkpt><trkpt lat="43.1878261586989" lon="-1.030495807533245"><ele>301.0</ele><time>2026-04-29T11:03:56Z</time></trkpt><trkpt lat="43.18777866809871" lon="-1.0306294809288807"><ele>301.0</ele><time>2026-04-29T11:03:57Z</time></trkpt><trkpt lat="43.18771655358595" lon="-1.0307492438669228"><ele>301.0</ele><time>2026-04-29T11:03:58Z</time></trkpt><trkpt lat="43.18763860473599" lon="-1.030846497174869"><ele>301.0</ele><time>2026-04-29T11:03:59Z</time></trkpt><trkpt lat="43.18754763738033" lon="-1.0309247753165391"><ele>303.6</ele><time>2026-04-29T11:04:00Z</time></trkpt><trkpt lat="43.187451256166966" lon="-1.0309970508583597"><ele>306.20000000000005</ele><time>2026-04-29T11:04:01Z</time></trkpt><trkpt lat="43.18736275932795" lon="-1.0310799686104861"><ele>308.79999999999995</ele><time>2026-04-29T11:04:02Z</time></trkpt><trkpt lat="43.18728471549769" lon="-1.0311843495567532"><ele>311.4</ele><time>2026-04-29T11:04:03Z</time></trkpt><trkpt lat="43.18721492774703" lon="-1.031302487684117"><ele>314.0</ele><time>2026-04-29T11:04:04Z</time></trkpt><trkpt lat="43.18714928671335" lon="-1.0314246111469934"><ele>308.75</ele><time>2026-04-29T11:04:05Z</time></trkpt><trkpt lat="43.18708471900019" lon="-1.0315540191967916"><ele>303.5</ele><time>2026-04-29T11:04:06Z</time></trkpt><trkpt lat="43.18702378780676" lon="-1.0316847689574495"><ele>298.25</ele><time>2026-04-29T11:04:07Z</time></trkpt><trkpt lat="43.18697448899659" lon="-1.0318193636254533"><ele>293.0</ele><time>2026-04-29T11:04:08Z</time></trkpt><trkpt lat="43.18693500380849" lon="-1.0319682869359514"><ele>293.0</ele><time>2026-04-29T11:04:09Z</time></trkpt><trkpt lat="43.18690241004262" lon="-1.032114581529044"><ele>293.0</ele><time>2026-04-29T11:04:10Z</time></trkpt><trkpt lat="43.18687117591236" lon="-1.0322622354412874"><ele>293.0</ele><time>2026-04-29T11:04:11Z</time></trkpt><trkpt lat="43.18684629042919" lon="-1.032415160847392"><ele>293.0</ele><time>2026-04-29T11:04:12Z</time></trkpt><trkpt lat="43.186822525006804" lon="-1.0325676559998063"><ele>294.25</ele><time>2026-04-29T11:04:13.001Z</time></trkpt><trkpt lat="43.18679918479295" lon="-1.0327256557926165"><ele>295.5</ele><time>2026-04-29T11:04:14.001Z</time></trkpt><trkpt lat="43.18677969701043" lon="-1.0328804445115434"><ele>296.75</ele><time>2026-04-29T11:04:15.001Z</time></trkpt><trkpt lat="43.18676731906197" lon="-1.0330380946048938"><ele>298.0</ele><time>2026-04-29T11:04:16.001Z</time></trkpt><trkpt lat="43.18675614425727" lon="-1.0331945457394882"><ele>297.75</ele><time>2026-04-29T11:04:17.001Z</time></trkpt><trkpt lat="43.186747267162" lon="-1.0333531380842065"><ele>297.5</ele><time>2026-04-29T11:04:18.001Z</time></trkpt><trkpt lat="43.18673857171897" lon="-1.033513557705229"><ele>297.25</ele><time>2026-04-29T11:04:19.001Z</time></trkpt><trkpt lat="43.18672649077633" lon="-1.0336671866835063"><ele>297.0</ele><time>2026-04-29T11:04:20.001Z</time></trkpt><trkpt lat="43.18671397495944" lon="-1.033825229827562"><ele>297.0</ele><time>2026-04-29T11:04:21.001Z</time></trkpt><trkpt lat="43.18670081948386" lon="-1.0339825386169146"><ele>297.0</ele><time>2026-04-29T11:04:22.001Z</time></trkpt><trkpt lat="43.18668614980288" lon="-1.0341377795175615"><ele>297.0</ele><time>2026-04-29T11:04:23.001Z</time></trkpt><trkpt lat="43.18667060877572" lon="-1.0342935314527268"><ele>297.0</ele><time>2026-04-29T11:04:24.001Z</time></trkpt><trkpt lat="43.18665982625975" lon="-1.0344496549468518"><ele>296.75</ele><time>2026-04-29T11:04:25.001Z</time></trkpt><trkpt lat="43.186649293182015" lon="-1.0346066892724082"><ele>296.5</ele><time>2026-04-29T11:04:26.001Z</time></trkpt><trkpt lat="43.186636081900836" lon="-1.0347600349069142"><ele>296.25</ele><time>2026-04-29T11:04:27.001Z</time></trkpt><trkpt lat="43.18662318325376" lon="-1.034910340026809"><ele>296.0</ele><time>2026-04-29T11:04:28.001Z</time></trkpt><trkpt lat="43.186604926847636" lon="-1.0350674931481216"><ele>295.5</ele><time>2026-04-29T11:04:29.001Z</time></trkpt><trkpt lat="43.18658748881652" lon="-1.0352201991886232"><ele>295.0</ele><time>2026-04-29T11:04:30.001Z</time></trkpt><trkpt lat="43.186567669255986" lon="-1.0353728731388967"><ele>294.5</ele><time>2026-04-29T11:04:31Z</time></trkpt><trkpt lat="43.18654813879127" lon="-1.0355250392194926"><ele>294.0</ele><time>2026-04-29T11:04:32Z</time></trkpt><trkpt lat="43.186527670418414" lon="-1.0356769827858885"><ele>285.0</ele><time>2026-04-29T11:04:33Z</time></trkpt><trkpt lat="43.1865024675561" lon="-1.0358293003005135"><ele>276.0</ele><time>2026-04-29T11:04:34Z</time></trkpt><trkpt lat="43.18647745682807" lon="-1.035981821327278"><ele>267.0</ele><time>2026-04-29T11:04:35Z</time></trkpt><trkpt lat="43.18645159907184" lon="-1.0361328643903807"><ele>258.0</ele><time>2026-04-29T11:04:36Z</time></trkpt><trkpt lat="43.186420818687935" lon="-1.0362885243499769"><ele>258.0</ele><time>2026-04-29T11:04:37Z</time></trkpt><trkpt lat="43.1863835162098" lon="-1.036441592449864"><ele>258.0</ele><time>2026-04-29T11:04:38Z</time></trkpt><trkpt lat="43.18634428724327" lon="-1.0365886531046895"><ele>258.0</ele><time>2026-04-29T11:04:39Z</time></trkpt><trkpt lat="43.18630177019289" lon="-1.0367393017270845"><ele>258.0</ele><time>2026-04-29T11:04:40Z</time></trkpt><trkpt lat="43.18626199659209" lon="-1.0368914440697719"><ele>258.4</ele><time>2026-04-29T11:04:41Z</time></trkpt><trkpt lat="43.186220648361676" lon="-1.0370332092991563"><ele>258.8</ele><time>2026-04-29T11:04:42Z</time></trkpt><trkpt lat="43.18617536715406" lon="-1.0371744883806675"><ele>259.2</ele><time>2026-04-29T11:04:43Z</time></trkpt><trkpt lat="43.18613066002156" lon="-1.037316283986494"><ele>259.6</ele><time>2026-04-29T11:04:44Z</time></trkpt><trkpt lat="43.18608584973926" lon="-1.0374579330515188"><ele>260.0</ele><time>2026-04-29T11:04:45Z</time></trkpt><trkpt lat="43.18604083443049" lon="-1.037602052484174"><ele>261.75</ele><time>2026-04-29T11:04:46Z</time></trkpt><trkpt lat="43.18598777351874" lon="-1.0377487385480864"><ele>263.5</ele><time>2026-04-29T11:04:47Z</time></trkpt><trkpt lat="43.18593995915093" lon="-1.037894484150007"><ele>265.25</ele><time>2026-04-29T11:04:48Z</time></trkpt><trkpt lat="43.18589556181039" lon="-1.0380439401629205"><ele>267.0</ele><time>2026-04-29T11:04:49Z</time></trkpt><trkpt lat="43.18585247950778" lon="-1.0381933491396593"><ele>268.4</ele><time>2026-04-29T11:04:50Z</time></trkpt><trkpt lat="43.18581760711608" lon="-1.0383362603621824"><ele>269.79999999999995</ele><time>2026-04-29T11:04:51Z</time></trkpt><trkpt lat="43.18578295323608" lon="-1.0384753611648943"><ele>271.2</ele><time>2026-04-29T11:04:52Z</time></trkpt><trkpt lat="43.18574550886951" lon="-1.0386237894517834"><ele>272.59999999999997</ele><time>2026-04-29T11:04:53Z</time></trkpt><trkpt lat="43.18571009819381" lon="-1.0387732993037828"><ele>274.0</ele><time>2026-04-29T11:04:54Z</time></trkpt><trkpt lat="43.185675677434524" lon="-1.0389168393285348"><ele>268.5</ele><time>2026-04-29T11:04:55Z</time></trkpt><trkpt lat="43.18563853532085" lon="-1.0390763176631284"><ele>263.0</ele><time>2026-04-29T11:04:56Z</time></trkpt><trkpt lat="43.18560860426189" lon="-1.0392371630733157"><ele>257.5</ele><time>2026-04-29T11:04:57Z</time></trkpt><trkpt lat="43.18559216138847" lon="-1.0393941940036941"><ele>252.0</ele><time>2026-04-29T11:04:58Z</time></trkpt><trkpt lat="43.1855799884995" lon="-1.0395567623585154"><ele>252.0</ele><time>2026-04-29T11:04:59Z</time></trkpt><trkpt lat="43.18558614068236" lon="-1.0397064813019066"><ele>252.0</ele><time>2026-04-29T11:05:00Z</time></trkpt><trkpt lat="43.18559885259446" lon="-1.039851546849685"><ele>252.0</ele><time>2026-04-29T11:05:01Z</time></trkpt><trkpt lat="43.18561533398282" lon="-1.0400061863039476"><ele>252.0</ele><time>2026-04-29T11:05:02Z</time></trkpt><trkpt lat="43.185639684617094" lon="-1.0401566759608387"><ele>252.0</ele><time>2026-04-29T11:05:03Z</time></trkpt><trkpt lat="43.18567018054912" lon="-1.0403086304466225"><ele>254.0</ele><time>2026-04-29T11:05:04Z</time></trkpt><trkpt lat="43.18570266618463" lon="-1.0404602974234398"><ele>256.0</ele><time>2026-04-29T11:05:05Z</time></trkpt><trkpt lat="43.185736984907585" lon="-1.0406072938866184"><ele>258.0</ele><time>2026-04-29T11:05:06Z</time></trkpt><trkpt lat="43.185769122356405" lon="-1.0407568194061765"><ele>260.0</ele><time>2026-04-29T11:05:07Z</time></trkpt><trkpt lat="43.185795830550106" lon="-1.0409122451376744"><ele>260.0</ele><time>2026-04-29T11:05:08Z</time></trkpt><trkpt lat="43.18582634036031" lon="-1.0410626335445397"><ele>260.0</ele><time>2026-04-29T11:05:09Z</time></trkpt><trkpt lat="43.18585560387875" lon="-1.041214534013609"><ele>260.0</ele><time>2026-04-29T11:05:10Z</time></trkpt><trkpt lat="43.18588631936526" lon="-1.0413670123371312"><ele>260.0</ele><time>2026-04-29T11:05:11Z</time></trkpt><trkpt lat="43.185920260971194" lon="-1.0415170261261353"><ele>257.0</ele><time>2026-04-29T11:05:12Z</time></trkpt><trkpt lat="43.18595567019196" lon="-1.041666843690198"><ele>254.0</ele><time>2026-04-29T11:05:13Z</time></trkpt><trkpt lat="43.18599458765639" lon="-1.0418124794887593"><ele>251.0</ele><time>2026-04-29T11:05:14Z</time></trkpt><trkpt lat="43.18603311671867" lon="-1.0419570160261693"><ele>248.0</ele><time>2026-04-29T11:05:15Z</time></trkpt><trkpt lat="43.186072753146206" lon="-1.0421012715208617"><ele>248.0</ele><time>2026-04-29T11:05:16Z</time></trkpt><trkpt lat="43.186110568762444" lon="-1.0422459260376185"><ele>248.0</ele><time>2026-04-29T11:05:17Z</time></trkpt><trkpt lat="43.18615989339895" lon="-1.0423912645526412"><ele>248.0</ele><time>2026-04-29T11:05:18Z</time></trkpt><trkpt lat="43.18621877438631" lon="-1.0425338050800164"><ele>248.0</ele><time>2026-04-29T11:05:19Z</time></trkpt><trkpt lat="43.18628622220359" lon="-1.042668502266745"><ele>249.0</ele><time>2026-04-29T11:05:20Z</time></trkpt><trkpt lat="43.18636178819233" lon="-1.042790368058378"><ele>250.0</ele><time>2026-04-29T11:05:21Z</time></trkpt><trkpt lat="43.1864568175771" lon="-1.0429037801997212"><ele>251.0</ele><time>2026-04-29T11:05:22Z</time></trkpt><trkpt lat="43.186533799000344" lon="-1.0429914584632656"><ele>252.0</ele><time>2026-04-29T11:05:23Z</time></trkpt><trkpt lat="43.18663094092907" lon="-1.0430621662970396"><ele>252.0</ele><time>2026-04-29T11:05:24Z</time></trkpt><trkpt lat="43.186709148074904" lon="-1.043120041644623"><ele>252.0</ele><time>2026-04-29T11:05:25Z</time></trkpt><trkpt lat="43.18731226388939" lon="-1.0434683952997559"><ele>246.75</ele><time>2026-04-29T11:05:30Z</time></trkpt><trkpt lat="43.18743394587843" lon="-1.0434996236814085"><ele>241.5</ele><time>2026-04-29T11:05:31Z</time></trkpt><trkpt lat="43.18755472142021" lon="-1.0435196419720465"><ele>236.25</ele><time>2026-04-29T11:05:32Z</time></trkpt><trkpt lat="43.18767192435616" lon="-1.0435342792371534"><ele>231.0</ele><time>2026-04-29T11:05:33Z</time></trkpt><trkpt lat="43.18779066086843" lon="-1.043554119180465"><ele>231.0</ele><time>2026-04-29T11:05:34Z</time></trkpt><trkpt lat="43.187909982546024" lon="-1.0435651660858594"><ele>231.0</ele><time>2026-04-29T11:05:35Z</time></trkpt><trkpt lat="43.18803350732595" lon="-1.043563598754049"><ele>231.0</ele><time>2026-04-29T11:05:36Z</time></trkpt><trkpt lat="43.18815770666652" lon="-1.0435527035890082"><ele>231.0</ele><time>2026-04-29T11:05:37Z</time></trkpt><trkpt lat="43.18827774204206" lon="-1.043508225102374"><ele>229.75</ele><time>2026-04-29T11:05:38Z</time></trkpt><trkpt lat="43.18839611855819" lon="-1.0434583514217306"><ele>228.5</ele><time>2026-04-29T11:05:39Z</time></trkpt><trkpt lat="43.18851666249143" lon="-1.043406924302522"><ele>227.25</ele><time>2026-04-29T11:05:40Z</time></trkpt><trkpt lat="43.18863946910537" lon="-1.0433834141209213"><ele>226.0</ele><time>2026-04-29T11:05:41Z</time></trkpt><trkpt lat="43.18875827845925" lon="-1.0433358233737413"><ele>226.0</ele><time>2026-04-29T11:05:42Z</time></trkpt><trkpt lat="43.18887848986162" lon="-1.043319272398883"><ele>226.0</ele><time>2026-04-29T11:05:43Z</time></trkpt><trkpt lat="43.188996583597564" lon="-1.0433255087196776"><ele>226.0</ele><time>2026-04-29T11:05:44Z</time></trkpt><trkpt lat="43.18911319636205" lon="-1.0433502289680676"><ele>226.0</ele><time>2026-04-29T11:05:45Z</time></trkpt><trkpt lat="43.18922068939803" lon="-1.0434073657173595"><ele>224.25</ele><time>2026-04-29T11:05:46Z</time></trkpt><trkpt lat="43.18931635695405" lon="-1.0435132817819304"><ele>222.5</ele><time>2026-04-29T11:05:47Z</time></trkpt><trkpt lat="43.189381198699614" lon="-1.043659443885631"><ele>220.75</ele><time>2026-04-29T11:05:48Z</time></trkpt><trkpt lat="43.18942476089373" lon="-1.0438224543243382"><ele>219.0</ele><time>2026-04-29T11:05:49Z</time></trkpt><trkpt lat="43.18944394716751" lon="-1.0440004179559246"><ele>219.0</ele><time>2026-04-29T11:05:50Z</time></trkpt><trkpt lat="43.189442738505434" lon="-1.044176864709206"><ele>219.0</ele><time>2026-04-29T11:05:51Z</time></trkpt><trkpt lat="43.18940233801394" lon="-1.0443430965364837"><ele>219.0</ele><time>2026-04-29T11:05:52Z</time></trkpt><trkpt lat="43.18930665078218" lon="-1.0444786262885544"><ele>219.0</ele><time>2026-04-29T11:05:53Z</time></trkpt><trkpt lat="43.189193417577975" lon="-1.0445611359527387"><ele>219.0</ele><time>2026-04-29T11:05:54Z</time></trkpt><trkpt lat="43.18908092552879" lon="-1.0446268880262244"><ele>219.0</ele><time>2026-04-29T11:05:55Z</time></trkpt><trkpt lat="43.18896871664307" lon="-1.0446719618263294"><ele>219.0</ele><time>2026-04-29T11:05:56Z</time></trkpt><trkpt lat="43.18885646020355" lon="-1.044711021574213"><ele>219.0</ele><time>2026-04-29T11:05:57Z</time></trkpt><trkpt lat="43.18874498320202" lon="-1.0447652498825433"><ele>217.0</ele><time>2026-04-29T11:05:58Z</time></trkpt><trkpt lat="43.188632464270384" lon="-1.0447904714674756"><ele>215.0</ele><time>2026-04-29T11:05:59Z</time></trkpt><trkpt lat="43.18852555400043" lon="-1.0448413719512513"><ele>213.0</ele><time>2026-04-29T11:06:00Z</time></trkpt><trkpt lat="43.188418916099096" lon="-1.044892495117501"><ele>211.0</ele><time>2026-04-29T11:06:01Z</time></trkpt><trkpt lat="43.18830441797262" lon="-1.0449518425841868"><ele>211.75</ele><time>2026-04-29T11:06:02Z</time></trkpt><trkpt lat="43.188217064342034" lon="-1.0450684797605505"><ele>212.5</ele><time>2026-04-29T11:06:03Z</time></trkpt><trkpt lat="43.18816651047576" lon="-1.0452168649674853"><ele>213.25</ele><time>2026-04-29T11:06:04Z</time></trkpt><trkpt lat="43.18811387865679" lon="-1.0453588926444506"><ele>214.0</ele><time>2026-04-29T11:06:05Z</time></trkpt><trkpt lat="43.18807320815424" lon="-1.0455019553569473"><ele>212.25</ele><time>2026-04-29T11:06:06Z</time></trkpt><trkpt lat="43.188044968888384" lon="-1.0456532861928873"><ele>210.5</ele><time>2026-04-29T11:06:07.001Z</time></trkpt><trkpt lat="43.18802434062073" lon="-1.0458092416948555"><ele>208.75</ele><time>2026-04-29T11:06:08.001Z</time></trkpt><trkpt lat="43.18801234742185" lon="-1.0459623118912509"><ele>207.0</ele><time>2026-04-29T11:06:09.001Z</time></trkpt><trkpt lat="43.18800700834191" lon="-1.0461224991265512"><ele>207.0</ele><time>2026-04-29T11:06:10.001Z</time></trkpt><trkpt lat="43.18801037349464" lon="-1.0462756498223145"><ele>207.0</ele><time>2026-04-29T11:06:11.001Z</time></trkpt><trkpt lat="43.18802347578899" lon="-1.0464248789436306"><ele>207.0</ele><time>2026-04-29T11:06:12.001Z</time></trkpt><trkpt lat="43.18804876022527" lon="-1.0465675855497412"><ele>207.0</ele><time>2026-04-29T11:06:13.001Z</time></trkpt><trkpt lat="43.18808278262594" lon="-1.046705280391945"><ele>207.0</ele><time>2026-04-29T11:06:14.001Z</time></trkpt><trkpt lat="43.188114948383515" lon="-1.046844066193872"><ele>207.0</ele><time>2026-04-29T11:06:15.001Z</time></trkpt><trkpt lat="43.188136115319196" lon="-1.0469866140927482"><ele>207.0</ele><time>2026-04-29T11:06:16.001Z</time></trkpt><trkpt lat="43.18818173562168" lon="-1.0471179095652678"><ele>207.0</ele><time>2026-04-29T11:06:17.001Z</time></trkpt><trkpt lat="43.18822456570394" lon="-1.04724362707834"><ele>207.0</ele><time>2026-04-29T11:06:18.001Z</time></trkpt><trkpt lat="43.18827194075353" lon="-1.047368107325128"><ele>207.0</ele><time>2026-04-29T11:06:19.001Z</time></trkpt><trkpt lat="43.18831672166054" lon="-1.0474925033298885"><ele>210.6</ele><time>2026-04-29T11:06:20.001Z</time></trkpt><trkpt lat="43.18836242812676" lon="-1.0476162965209448"><ele>214.2</ele><time>2026-04-29T11:06:21.001Z</time></trkpt><trkpt lat="43.18840682807457" lon="-1.0477387006826715"><ele>217.8</ele><time>2026-04-29T11:06:22.001Z</time></trkpt><trkpt lat="43.188456118492184" lon="-1.0478629666951733"><ele>221.4</ele><time>2026-04-29T11:06:23.001Z</time></trkpt><trkpt lat="43.18850948526263" lon="-1.0479984793919817"><ele>225.0</ele><time>2026-04-29T11:06:24.001Z</time></trkpt><trkpt lat="43.18856803852706" lon="-1.0481391416755126"><ele>225.0</ele><time>2026-04-29T11:06:25.001Z</time></trkpt><trkpt lat="43.18861907744641" lon="-1.048279938884255"><ele>225.0</ele><time>2026-04-29T11:06:26.001Z</time></trkpt><trkpt lat="43.18867743656112" lon="-1.0484196150561045"><ele>225.0</ele><time>2026-04-29T11:06:27.001Z</time></trkpt><trkpt lat="43.18872661509345" lon="-1.0485671665885552"><ele>225.0</ele><time>2026-04-29T11:06:28.001Z</time></trkpt><trkpt lat="43.18878014123607" lon="-1.0487111143099024"><ele>222.5</ele><time>2026-04-29T11:06:29.001Z</time></trkpt><trkpt lat="43.18883742723712" lon="-1.0488536313287216"><ele>220.0</ele><time>2026-04-29T11:06:30.001Z</time></trkpt><trkpt lat="43.188890207744926" lon="-1.0490006345562342"><ele>217.5</ele><time>2026-04-29T11:06:31.001Z</time></trkpt><trkpt lat="43.18894428003323" lon="-1.049148190766751"><ele>215.0</ele><time>2026-04-29T11:06:32.001Z</time></trkpt><trkpt lat="43.18900391472323" lon="-1.04929716391981"><ele>217.0</ele><time>2026-04-29T11:06:33.001Z</time></trkpt><trkpt lat="43.18905932148125" lon="-1.0494431745437311"><ele>219.0</ele><time>2026-04-29T11:06:34.001Z</time></trkpt><trkpt lat="43.18911370670958" lon="-1.0495913120577272"><ele>221.0</ele><time>2026-04-29T11:06:35.001Z</time></trkpt><trkpt lat="43.189166524897075" lon="-1.049740127881176"><ele>223.0</ele><time>2026-04-29T11:06:36.001Z</time></trkpt><trkpt lat="43.189220210131026" lon="-1.0498888392767467"><ele>220.0</ele><time>2026-04-29T11:06:37Z</time></trkpt><trkpt lat="43.189274887989626" lon="-1.050036783066611"><ele>217.0</ele><time>2026-04-29T11:06:38Z</time></trkpt><trkpt lat="43.18932953928825" lon="-1.0501814501587678"><ele>214.0</ele><time>2026-04-29T11:06:39Z</time></trkpt><trkpt lat="43.189376626574614" lon="-1.0503317873889457"><ele>211.0</ele><time>2026-04-29T11:06:40Z</time></trkpt><trkpt lat="43.18942861531102" lon="-1.0504798714467882"><ele>211.0</ele><time>2026-04-29T11:06:41Z</time></trkpt><trkpt lat="43.18947784196463" lon="-1.050627664462853"><ele>211.0</ele><time>2026-04-29T11:06:42Z</time></trkpt><trkpt lat="43.1895343361541" lon="-1.050772264940026"><ele>211.0</ele><time>2026-04-29T11:06:43Z</time></trkpt><trkpt lat="43.18960288897133" lon="-1.0509110420756183"><ele>211.0</ele><time>2026-04-29T11:06:44Z</time></trkpt><trkpt lat="43.18968383466275" lon="-1.0510434952165917"><ele>209.75</ele><time>2026-04-29T11:06:45Z</time></trkpt><trkpt lat="43.18977171474806" lon="-1.0511660722494263"><ele>208.5</ele><time>2026-04-29T11:06:46Z</time></trkpt><trkpt lat="43.18986260014591" lon="-1.0512826406082405"><ele>207.25</ele><time>2026-04-29T11:06:47Z</time></trkpt><trkpt lat="43.189953788749456" lon="-1.0513972257875894"><ele>206.0</ele><time>2026-04-29T11:06:48Z</time></trkpt><trkpt lat="43.19004798532905" lon="-1.0515065239484602"><ele>206.0</ele><time>2026-04-29T11:06:49Z</time></trkpt><trkpt lat="43.19014353956798" lon="-1.0516061985749863"><ele>206.0</ele><time>2026-04-29T11:06:50Z</time></trkpt><trkpt lat="43.19025022046811" lon="-1.05169374618986"><ele>206.0</ele><time>2026-04-29T11:06:51Z</time></trkpt><trkpt lat="43.19036101390238" lon="-1.0517614343093833"><ele>206.0</ele><time>2026-04-29T11:06:52Z</time></trkpt><trkpt lat="43.19046712234892" lon="-1.0518306138959492"><ele>206.0</ele><time>2026-04-29T11:06:53Z</time></trkpt><trkpt lat="43.190571677760374" lon="-1.0519165245547277"><ele>206.0</ele><time>2026-04-29T11:06:54Z</time></trkpt><trkpt lat="43.19067275788291" lon="-1.05201340022616"><ele>206.0</ele><time>2026-04-29T11:06:55Z</time></trkpt><trkpt lat="43.19077089860566" lon="-1.0521189692561546"><ele>206.0</ele><time>2026-04-29T11:06:56Z</time></trkpt><trkpt lat="43.190865240866664" lon="-1.0522330314669992"><ele>204.5</ele><time>2026-04-29T11:06:57Z</time></trkpt><trkpt lat="43.19095518903723" lon="-1.0523508801938084"><ele>203.0</ele><time>2026-04-29T11:06:58Z</time></trkpt><trkpt lat="43.19104147814703" lon="-1.0524799972373646"><ele>201.5</ele><time>2026-04-29T11:06:59Z</time></trkpt><trkpt lat="43.191121120967395" lon="-1.052610123381018"><ele>200.0</ele><time>2026-04-29T11:07:00Z</time></trkpt><trkpt lat="43.19119745500091" lon="-1.0527467597550846"><ele>200.0</ele><time>2026-04-29T11:07:01Z</time></trkpt><trkpt lat="43.19127013386875" lon="-1.0528815178924278"><ele>200.0</ele><time>2026-04-29T11:07:02Z</time></trkpt><trkpt lat="43.19134426839118" lon="-1.0530190802200348"><ele>200.0</ele><time>2026-04-29T11:07:03Z</time></trkpt><trkpt lat="43.19142271701407" lon="-1.0531500873761928"><ele>200.0</ele><time>2026-04-29T11:07:04Z</time></trkpt><trkpt lat="43.191502482182" lon="-1.0532786431881334"><ele>200.5</ele><time>2026-04-29T11:07:05Z</time></trkpt><trkpt lat="43.191585231112434" lon="-1.0534023145384985"><ele>201.0</ele><time>2026-04-29T11:07:06Z</time></trkpt><trkpt lat="43.19166021026194" lon="-1.0535136481886174"><ele>201.5</ele><time>2026-04-29T11:07:07Z</time></trkpt><trkpt lat="43.19173212155803" lon="-1.0536304276917894"><ele>202.0</ele><time>2026-04-29T11:07:08Z</time></trkpt><trkpt lat="43.19180467140227" lon="-1.0537424091453689"><ele>202.0</ele><time>2026-04-29T11:07:09Z</time></trkpt><trkpt lat="43.19187048827007" lon="-1.0538480890788022"><ele>202.0</ele><time>2026-04-29T11:07:10Z</time></trkpt><trkpt lat="43.191917476000484" lon="-1.0539410213293503"><ele>202.0</ele><time>2026-04-29T11:07:11Z</time></trkpt><trkpt lat="43.1919697215732" lon="-1.0540473052589265"><ele>202.0</ele><time>2026-04-29T11:07:12Z</time></trkpt><trkpt lat="43.19202361679404" lon="-1.0541542421018197"><ele>202.0</ele><time>2026-04-29T11:07:13Z</time></trkpt><trkpt lat="43.19208517512185" lon="-1.054264910188963"><ele>201.0</ele><time>2026-04-29T11:07:14Z</time></trkpt><trkpt lat="43.192151176572" lon="-1.0543650827917976"><ele>200.0</ele><time>2026-04-29T11:07:15Z</time></trkpt><trkpt lat="43.19222185317213" lon="-1.0544560408852237"><ele>199.0</ele><time>2026-04-29T11:07:16Z</time></trkpt><trkpt lat="43.192302064535625" lon="-1.0545299720965349"><ele>198.0</ele><time>2026-04-29T11:07:17Z</time></trkpt><trkpt lat="43.192382366295234" lon="-1.0546004097593686"><ele>197.0</ele><time>2026-04-29T11:07:18Z</time></trkpt><trkpt lat="43.19246802507906" lon="-1.0546651717340814"><ele>197.0</ele><time>2026-04-29T11:07:19Z</time></trkpt><trkpt lat="43.19255465859444" lon="-1.0547083117283518"><ele>197.0</ele><time>2026-04-29T11:07:20Z</time></trkpt><trkpt lat="43.1926465647233" lon="-1.0547357129097512"><ele>197.0</ele><time>2026-04-29T11:07:21Z</time></trkpt><trkpt lat="43.19274115727002" lon="-1.0547463168094793"><ele>197.0</ele><time>2026-04-29T11:07:22Z</time></trkpt><trkpt lat="43.192832950388876" lon="-1.054762575346686"><ele>197.0</ele><time>2026-04-29T11:07:23Z</time></trkpt><trkpt lat="43.192926201169904" lon="-1.0547712765794948"><ele>197.0</ele><time>2026-04-29T11:07:24Z</time></trkpt><trkpt lat="43.19301894334248" lon="-1.054779882362382"><ele>197.0</ele><time>2026-04-29T11:07:25Z</time></trkpt><trkpt lat="43.193113989002214" lon="-1.0547847688114773"><ele>197.0</ele><time>2026-04-29T11:07:26Z</time></trkpt><trkpt lat="43.19320703158441" lon="-1.0548064141308473"><ele>197.0</ele><time>2026-04-29T11:07:27Z</time></trkpt><trkpt lat="43.19329563747505" lon="-1.0548639742789923"><ele>197.0</ele><time>2026-04-29T11:07:28Z</time></trkpt><trkpt lat="43.19337716074629" lon="-1.0549373118287488"><ele>194.2</ele><time>2026-04-29T11:07:29Z</time></trkpt><trkpt lat="43.19345348147987" lon="-1.0550237681297707"><ele>191.39999999999998</ele><time>2026-04-29T11:07:30Z</time></trkpt><trkpt lat="43.193513904674475" lon="-1.0551260215082323"><ele>188.60000000000002</ele><time>2026-04-29T11:07:31Z</time></trkpt><trkpt lat="43.193571592864636" lon="-1.05523262058354"><ele>185.8</ele><time>2026-04-29T11:07:32Z</time></trkpt><trkpt lat="43.193629200605066" lon="-1.055333565393688"><ele>183.0</ele><time>2026-04-29T11:07:33Z</time></trkpt><trkpt lat="43.193688461258674" lon="-1.0554289534625914"><ele>183.0</ele><time>2026-04-29T11:07:34Z</time></trkpt><trkpt lat="43.19375216279176" lon="-1.055514710776696"><ele>183.0</ele><time>2026-04-29T11:07:35Z</time></trkpt><trkpt lat="43.193824180493706" lon="-1.0555830957487897"><ele>183.0</ele><time>2026-04-29T11:07:36Z</time></trkpt><trkpt lat="43.193899175137744" lon="-1.0556381170831728"><ele>183.0</ele><time>2026-04-29T11:07:37Z</time></trkpt><trkpt lat="43.193968969777266" lon="-1.0556965208914677"><ele>183.0</ele><time>2026-04-29T11:07:38Z</time></trkpt><trkpt lat="43.19403143386415" lon="-1.0557785868776557"><ele>183.0</ele><time>2026-04-29T11:07:39Z</time></trkpt><trkpt lat="43.19408416866285" lon="-1.0558815964210335"><ele>181.60000000000002</ele><time>2026-04-29T11:07:40Z</time></trkpt><trkpt lat="43.19412926152924" lon="-1.055993507508805"><ele>180.20000000000002</ele><time>2026-04-29T11:07:41Z</time></trkpt><trkpt lat="43.194178023287535" lon="-1.056111103706751"><ele>178.8</ele><time>2026-04-29T11:07:42Z</time></trkpt><trkpt lat="43.19422983154963" lon="-1.056225246958556"><ele>177.4</ele><time>2026-04-29T11:07:43Z</time></trkpt><trkpt lat="43.19427732017175" lon="-1.0563480041309818"><ele>176.0</ele><time>2026-04-29T11:07:44Z</time></trkpt><trkpt lat="43.1943243249828" lon="-1.056469970035229"><ele>176.0</ele><time>2026-04-29T11:07:45Z</time></trkpt><trkpt lat="43.194373009673505" lon="-1.0565894078466582"><ele>176.0</ele><time>2026-04-29T11:07:46Z</time></trkpt><trkpt lat="43.194406656770944" lon="-1.0567212159000647"><ele>176.0</ele><time>2026-04-29T11:07:47Z</time></trkpt><trkpt lat="43.19442322569798" lon="-1.0568536262425674"><ele>176.0</ele><time>2026-04-29T11:07:48Z</time></trkpt><trkpt lat="43.19442612714053" lon="-1.0569833357455931"><ele>176.0</ele><time>2026-04-29T11:07:49Z</time></trkpt><trkpt lat="43.19443791300098" lon="-1.0571048584143647"><ele>175.66666666666666</ele><time>2026-04-29T11:07:50Z</time></trkpt><trkpt lat="43.19446257035806" lon="-1.057219943913875"><ele>175.33333333333331</ele><time>2026-04-29T11:07:51Z</time></trkpt><trkpt lat="43.19449212267057" lon="-1.0573290317126611"><ele>175.0</ele><time>2026-04-29T11:07:52Z</time></trkpt><trkpt lat="43.19451845414911" lon="-1.0574426783685"><ele>174.66666666666666</ele><time>2026-04-29T11:07:53Z</time></trkpt><trkpt lat="43.19453604148378" lon="-1.0575590826160017"><ele>174.33333333333334</ele><time>2026-04-29T11:07:54Z</time></trkpt><trkpt lat="43.19455664732343" lon="-1.0576812781371088"><ele>174.0</ele><time>2026-04-29T11:07:55Z</time></trkpt><trkpt lat="43.19458003898588" lon="-1.057806374438147"><ele>174.0</ele><time>2026-04-29T11:07:56Z</time></trkpt><trkpt lat="43.19461190494082" lon="-1.057929611745172"><ele>174.0</ele><time>2026-04-29T11:07:57Z</time></trkpt><trkpt lat="43.19465114762014" lon="-1.0580530319856785"><ele>174.0</ele><time>2026-04-29T11:07:58.001Z</time></trkpt><trkpt lat="43.19470072275125" lon="-1.0581653139801956"><ele>174.0</ele><time>2026-04-29T11:07:59.001Z</time></trkpt><trkpt lat="43.194766936500116" lon="-1.0582630166433675"><ele>174.0</ele><time>2026-04-29T11:08:00.001Z</time></trkpt><trkpt lat="43.19483878789881" lon="-1.0583408470470392"><ele>174.33333333333334</ele><time>2026-04-29T11:08:01.001Z</time></trkpt><trkpt lat="43.194904093266906" lon="-1.058411841808497"><ele>174.66666666666666</ele><time>2026-04-29T11:08:02.001Z</time></trkpt><trkpt lat="43.19496626413325" lon="-1.0584778767855478"><ele>175.0</ele><time>2026-04-29T11:08:03.001Z</time></trkpt><trkpt lat="43.19502454543367" lon="-1.058551598333204"><ele>175.33333333333331</ele><time>2026-04-29T11:08:04.001Z</time></trkpt><trkpt lat="43.195082314860485" lon="-1.0586278799136806"><ele>175.66666666666666</ele><time>2026-04-29T11:08:05.001Z</time></trkpt><trkpt lat="43.19514310999481" lon="-1.0586971149739475"><ele>176.0</ele><time>2026-04-29T11:08:06.001Z</time></trkpt><trkpt lat="43.19520447683605" lon="-1.0587722900213163"><ele>176.0</ele><time>2026-04-29T11:08:07.001Z</time></trkpt><trkpt lat="43.1952748359994" lon="-1.0588347354426082"><ele>176.0</ele><time>2026-04-29T11:08:08.001Z</time></trkpt><trkpt lat="43.19535293091022" lon="-1.0588758575477375"><ele>176.0</ele><time>2026-04-29T11:08:09.001Z</time></trkpt><trkpt lat="43.19543747184377" lon="-1.0589002993020045"><ele>176.0</ele><time>2026-04-29T11:08:10.001Z</time></trkpt><trkpt lat="43.19552653187232" lon="-1.058904467723146"><ele>176.0</ele><time>2026-04-29T11:08:11.001Z</time></trkpt><trkpt lat="43.19561292712034" lon="-1.058910244022574"><ele>176.0</ele><time>2026-04-29T11:08:12.001Z</time></trkpt><trkpt lat="43.19570139428236" lon="-1.0589137213907545"><ele>180.8</ele><time>2026-04-29T11:08:13.001Z</time></trkpt><trkpt lat="43.19579037284874" lon="-1.0589246702165134"><ele>185.60000000000002</ele><time>2026-04-29T11:08:14.001Z</time></trkpt><trkpt lat="43.19588032895074" lon="-1.0589427185611244"><ele>190.4</ele><time>2026-04-29T11:08:15.001Z</time></trkpt><trkpt lat="43.19596883194107" lon="-1.058971041998235"><ele>195.2</ele><time>2026-04-29T11:08:16.001Z</time></trkpt><trkpt lat="43.19605596353029" lon="-1.0590074100871505"><ele>200.0</ele><time>2026-04-29T11:08:17.001Z</time></trkpt><trkpt lat="43.196139168288624" lon="-1.059055760046037"><ele>200.0</ele><time>2026-04-29T11:08:18.001Z</time></trkpt><trkpt lat="43.1962210410915" lon="-1.0591092653847403"><ele>200.0</ele><time>2026-04-29T11:08:19.001Z</time></trkpt><trkpt lat="43.19629789934369" lon="-1.0591798155480954"><ele>200.0</ele><time>2026-04-29T11:08:20.001Z</time></trkpt><trkpt lat="43.19637792886505" lon="-1.0592478669501102"><ele>200.0</ele><time>2026-04-29T11:08:21.001Z</time></trkpt><trkpt lat="43.19645867489213" lon="-1.0593054120642353"><ele>200.0</ele><time>2026-04-29T11:08:22.001Z</time></trkpt><trkpt lat="43.19654265102212" lon="-1.0593601834246764"><ele>198.2</ele><time>2026-04-29T11:08:23.001Z</time></trkpt><trkpt lat="43.196626737770856" lon="-1.059410123646408"><ele>196.4</ele><time>2026-04-29T11:08:24.001Z</time></trkpt><trkpt lat="43.1967149831022" lon="-1.059457332193979"><ele>194.60000000000002</ele><time>2026-04-29T11:08:25.001Z</time></trkpt><trkpt lat="43.19680109410055" lon="-1.0594978322744388"><ele>192.8</ele><time>2026-04-29T11:08:26.001Z</time></trkpt><trkpt lat="43.196892703737674" lon="-1.0595423525445846"><ele>191.0</ele><time>2026-04-29T11:08:27.001Z</time></trkpt><trkpt lat="43.19697842148784" lon="-1.0595890255508318"><ele>191.0</ele><time>2026-04-29T11:08:28.001Z</time></trkpt><trkpt lat="43.197066677216675" lon="-1.0596366192803581"><ele>191.0</ele><time>2026-04-29T11:08:29.001Z</time></trkpt><trkpt lat="43.19715358441603" lon="-1.0596833365287892"><ele>191.0</ele><time>2026-04-29T11:08:30.001Z</time></trkpt><trkpt lat="43.197242413359184" lon="-1.0597303767776374"><ele>191.0</ele><time>2026-04-29T11:08:31.001Z</time></trkpt><trkpt lat="43.197329851730444" lon="-1.059776884526574"><ele>191.0</ele><time>2026-04-29T11:08:32.001Z</time></trkpt><trkpt lat="43.19741311570509" lon="-1.0598270986552654"><ele>188.0</ele><time>2026-04-29T11:08:33.001Z</time></trkpt><trkpt lat="43.197504118639564" lon="-1.0598803134760928"><ele>185.0</ele><time>2026-04-29T11:08:34.001Z</time></trkpt><trkpt lat="43.1975921315721" lon="-1.0599340765764904"><ele>182.0</ele><time>2026-04-29T11:08:35.001Z</time></trkpt><trkpt lat="43.19768236436156" lon="-1.0599829426040421"><ele>179.0</ele><time>2026-04-29T11:08:36.001Z</time></trkpt><trkpt lat="43.19777164862953" lon="-1.0600320316623426"><ele>176.0</ele><time>2026-04-29T11:08:37.001Z</time></trkpt><trkpt lat="43.19786148873882" lon="-1.0600825678841892"><ele>176.0</ele><time>2026-04-29T11:08:38.001Z</time></trkpt><trkpt lat="43.19794730276525" lon="-1.0601359246515982"><ele>176.0</ele><time>2026-04-29T11:08:39.001Z</time></trkpt><trkpt lat="43.19803006229403" lon="-1.060197963617737"><ele>176.0</ele><time>2026-04-29T11:08:40.001Z</time></trkpt><trkpt lat="43.19811213344036" lon="-1.060269085945797"><ele>176.0</ele><time>2026-04-29T11:08:41.001Z</time></trkpt><trkpt lat="43.19819158345649" lon="-1.0603457491280552"><ele>176.0</ele><time>2026-04-29T11:08:42.001Z</time></trkpt><trkpt lat="43.19826840168467" lon="-1.0604233797942852"><ele>177.8</ele><time>2026-04-29T11:08:43Z</time></trkpt><trkpt lat="43.198344126292675" lon="-1.0605041041043297"><ele>179.60000000000002</ele><time>2026-04-29T11:08:44Z</time></trkpt><trkpt lat="43.19841955411078" lon="-1.0605874021054276"><ele>181.4</ele><time>2026-04-29T11:08:45Z</time></trkpt><trkpt lat="43.19848824713501" lon="-1.0606757306564112"><ele>183.2</ele><time>2026-04-29T11:08:46Z</time></trkpt><trkpt lat="43.1985600354735" lon="-1.0607589754096083"><ele>185.0</ele><time>2026-04-29T11:08:47Z</time></trkpt><trkpt lat="43.198632098248325" lon="-1.0608415795523998"><ele>180.4</ele><time>2026-04-29T11:08:48Z</time></trkpt><trkpt lat="43.198703193638146" lon="-1.0609240312550081"><ele>175.8</ele><time>2026-04-29T11:08:49Z</time></trkpt><trkpt lat="43.19877571424241" lon="-1.061008362968915"><ele>171.2</ele><time>2026-04-29T11:08:50Z</time></trkpt><trkpt lat="43.198847682535614" lon="-1.0610914634858943"><ele>166.6</ele><time>2026-04-29T11:08:51Z</time></trkpt><trkpt lat="43.198920400097315" lon="-1.061176905953123"><ele>162.0</ele><time>2026-04-29T11:08:52Z</time></trkpt><trkpt lat="43.19899160213339" lon="-1.0612575454376931"><ele>162.33333333333334</ele><time>2026-04-29T11:08:53Z</time></trkpt><trkpt lat="43.19906331913017" lon="-1.061337712872267"><ele>162.66666666666666</ele><time>2026-04-29T11:08:54Z</time></trkpt><trkpt lat="43.19913273003064" lon="-1.0614167897926066"><ele>163.0</ele><time>2026-04-29T11:08:55Z</time></trkpt><trkpt lat="43.19920232266359" lon="-1.0614898406535138"><ele>163.33333333333331</ele><time>2026-04-29T11:08:56Z</time></trkpt><trkpt lat="43.19926991994208" lon="-1.0615652008449439"><ele>163.66666666666666</ele><time>2026-04-29T11:08:57Z</time></trkpt><trkpt lat="43.19933822156582" lon="-1.0616392775603702"><ele>164.0</ele><time>2026-04-29T11:08:58Z</time></trkpt><trkpt lat="43.19940339651931" lon="-1.0617094191964436"><ele>164.0</ele><time>2026-04-29T11:08:59Z</time></trkpt><trkpt lat="43.19946766976678" lon="-1.0617797338410115"><ele>164.0</ele><time>2026-04-29T11:09:00Z</time></trkpt><trkpt lat="43.19953016620024" lon="-1.0618500606928536"><ele>164.0</ele><time>2026-04-29T11:09:01Z</time></trkpt><trkpt lat="43.199593151946544" lon="-1.0619254508911757"><ele>164.0</ele><time>2026-04-29T11:09:02Z</time></trkpt><trkpt lat="43.19965610576129" lon="-1.0619955671841887"><ele>164.0</ele><time>2026-04-29T11:09:03Z</time></trkpt><trkpt lat="43.199722575479115" lon="-1.0620645883856064"><ele>164.0</ele><time>2026-04-29T11:09:04Z</time></trkpt><trkpt lat="43.1997918894587" lon="-1.062132632073465"><ele>164.33333333333331</ele><time>2026-04-29T11:09:05Z</time></trkpt><trkpt lat="43.19985723815858" lon="-1.0622010596663267"><ele>164.66666666666666</ele><time>2026-04-29T11:09:06Z</time></trkpt><trkpt lat="43.1999209964542" lon="-1.062273811936619"><ele>165.0</ele><time>2026-04-29T11:09:07Z</time></trkpt><trkpt lat="43.19997959265588" lon="-1.0623481601426676"><ele>165.33333333333334</ele><time>2026-04-29T11:09:08Z</time></trkpt><trkpt lat="43.20003971767146" lon="-1.0624217071771247"><ele>165.66666666666669</ele><time>2026-04-29T11:09:09Z</time></trkpt><trkpt lat="43.20009709566091" lon="-1.0624979100707275"><ele>166.0</ele><time>2026-04-29T11:09:10Z</time></trkpt><trkpt lat="43.200153783269876" lon="-1.062576114391209"><ele>166.5</ele><time>2026-04-29T11:09:11Z</time></trkpt><trkpt lat="43.20020865478863" lon="-1.0626592609522285"><ele>167.0</ele><time>2026-04-29T11:09:12Z</time></trkpt><trkpt lat="43.200262774205875" lon="-1.0627428047811305"><ele>167.5</ele><time>2026-04-29T11:09:13Z</time></trkpt><trkpt lat="43.2003192108196" lon="-1.0628215266694385"><ele>168.0</ele><time>2026-04-29T11:09:14Z</time></trkpt><trkpt lat="43.20037581481027" lon="-1.0629004718803277"><ele>168.5</ele><time>2026-04-29T11:09:15Z</time></trkpt><trkpt lat="43.20043351560412" lon="-1.0629814367691361"><ele>169.0</ele><time>2026-04-29T11:09:16Z</time></trkpt><trkpt lat="43.20049027540693" lon="-1.0630603022974465"><ele>169.0</ele><time>2026-04-29T11:09:17Z</time></trkpt><trkpt lat="43.20054429572571" lon="-1.0631427976724337"><ele>169.0</ele><time>2026-04-29T11:09:18Z</time></trkpt><trkpt lat="43.20059890527497" lon="-1.063224883334403"><ele>169.0</ele><time>2026-04-29T11:09:19Z</time></trkpt><trkpt lat="43.200655193811194" lon="-1.063301493970208"><ele>169.0</ele><time>2026-04-29T11:09:20Z</time></trkpt><trkpt lat="43.20071186847949" lon="-1.063378709165873"><ele>169.0</ele><time>2026-04-29T11:09:21Z</time></trkpt><trkpt lat="43.20076645523365" lon="-1.0634554319802387"><ele>169.0</ele><time>2026-04-29T11:09:22Z</time></trkpt><trkpt lat="43.200821419245294" lon="-1.0635314245427419"><ele>169.33333333333334</ele><time>2026-04-29T11:09:23Z</time></trkpt><trkpt lat="43.200874647835214" lon="-1.0636076552048424"><ele>169.66666666666669</ele><time>2026-04-29T11:09:24Z</time></trkpt><trkpt lat="43.200926914021" lon="-1.0636830425050876"><ele>170.0</ele><time>2026-04-29T11:09:25Z</time></trkpt><trkpt lat="43.20097816807734" lon="-1.063762712427688"><ele>170.33333333333334</ele><time>2026-04-29T11:09:26Z</time></trkpt><trkpt lat="43.20102873016781" lon="-1.0638433373188412"><ele>170.66666666666666</ele><time>2026-04-29T11:09:27Z</time></trkpt><trkpt lat="43.20107868481956" lon="-1.0639188905865937"><ele>171.0</ele><time>2026-04-29T11:09:28Z</time></trkpt><trkpt lat="43.20112495188629" lon="-1.0639986899696579"><ele>170.99999999999997</ele><time>2026-04-29T11:09:29Z</time></trkpt><trkpt lat="43.201164407335874" lon="-1.0640824866937937"><ele>171.0</ele><time>2026-04-29T11:09:30Z</time></trkpt><trkpt lat="43.20120144027398" lon="-1.0641665080362042"><ele>171.0</ele><time>2026-04-29T11:09:31Z</time></trkpt><trkpt lat="43.20123843225769" lon="-1.064247888451556"><ele>171.0</ele><time>2026-04-29T11:09:32Z</time></trkpt><trkpt lat="43.201272774722696" lon="-1.0643310309771123"><ele>171.0</ele><time>2026-04-29T11:09:33Z</time></trkpt><trkpt lat="43.20130727536333" lon="-1.0644139679603026"><ele>170.99999999999997</ele><time>2026-04-29T11:09:34Z</time></trkpt><trkpt lat="43.20134716341544" lon="-1.0644911975926232"><ele>171.0</ele><time>2026-04-29T11:09:35Z</time></trkpt><trkpt lat="43.201383885686376" lon="-1.0645684337774661"><ele>171.42857142857142</ele><time>2026-04-29T11:09:36Z</time></trkpt><trkpt lat="43.20142098289653" lon="-1.0646464775111253"><ele>171.85714285714286</ele><time>2026-04-29T11:09:37Z</time></trkpt><trkpt lat="43.2014550750248" lon="-1.0647346504524802"><ele>172.28571428571428</ele><time>2026-04-29T11:09:38Z</time></trkpt><trkpt lat="43.20149209439793" lon="-1.0648195808962837"><ele>172.71428571428572</ele><time>2026-04-29T11:09:39Z</time></trkpt><trkpt lat="43.201533146306794" lon="-1.064901319620074"><ele>173.14285714285714</ele><time>2026-04-29T11:09:40Z</time></trkpt><trkpt lat="43.20157447945438" lon="-1.0649841062487972"><ele>173.57142857142856</ele><time>2026-04-29T11:09:41Z</time></trkpt><trkpt lat="43.201615766572175" lon="-1.0650705438984593"><ele>174.0</ele><time>2026-04-29T11:09:42Z</time></trkpt><trkpt lat="43.2016588271767" lon="-1.0651599014340303"><ele>174.5</ele><time>2026-04-29T11:09:43Z</time></trkpt><trkpt lat="43.20170111534442" lon="-1.0652482823619451"><ele>175.0</ele><time>2026-04-29T11:09:44Z</time></trkpt><trkpt lat="43.201743564405604" lon="-1.065338431259117"><ele>175.5</ele><time>2026-04-29T11:09:45Z</time></trkpt><trkpt lat="43.20178531659165" lon="-1.0654284567325347"><ele>176.0</ele><time>2026-04-29T11:09:46Z</time></trkpt><trkpt lat="43.20182885308417" lon="-1.0655188038127406"><ele>176.5</ele><time>2026-04-29T11:09:47Z</time></trkpt><trkpt lat="43.20187092005569" lon="-1.0656079308937632"><ele>177.0</ele><time>2026-04-29T11:09:48Z</time></trkpt><trkpt lat="43.20191403200643" lon="-1.0656938734107724"><ele>176.5</ele><time>2026-04-29T11:09:49Z</time></trkpt><trkpt lat="43.20195885638442" lon="-1.0657823266935735"><ele>176.0</ele><time>2026-04-29T11:09:50Z</time></trkpt><trkpt lat="43.20200359861507" lon="-1.065872054591603"><ele>175.5</ele><time>2026-04-29T11:09:51Z</time></trkpt><trkpt lat="43.20204414397765" lon="-1.0659662698921237"><ele>175.0</ele><time>2026-04-29T11:09:52Z</time></trkpt><trkpt lat="43.20208749051521" lon="-1.066057007803218"><ele>174.5</ele><time>2026-04-29T11:09:53Z</time></trkpt><trkpt lat="43.20212942858896" lon="-1.0661500170535843"><ele>174.0</ele><time>2026-04-29T11:09:54Z</time></trkpt><trkpt lat="43.20217151043795" lon="-1.0662421485144977"><ele>174.0</ele><time>2026-04-29T11:09:55Z</time></trkpt><trkpt lat="43.202215779536516" lon="-1.0663357001656488"><ele>174.0</ele><time>2026-04-29T11:09:56Z</time></trkpt><trkpt lat="43.202259354901145" lon="-1.0664289451151543"><ele>174.0</ele><time>2026-04-29T11:09:57Z</time></trkpt><trkpt lat="43.202302640811425" lon="-1.0665247577074364"><ele>174.0</ele><time>2026-04-29T11:09:58Z</time></trkpt><trkpt lat="43.20234545499333" lon="-1.0666219164888644"><ele>174.0</ele><time>2026-04-29T11:09:59Z</time></trkpt><trkpt lat="43.20238943941492" lon="-1.0667189342029677"><ele>174.0</ele><time>2026-04-29T11:10:00Z</time></trkpt><trkpt lat="43.20243391896056" lon="-1.0668140693221102"><ele>173.5</ele><time>2026-04-29T11:10:01Z</time></trkpt><trkpt lat="43.2024786522903" lon="-1.0669087497566485"><ele>173.0</ele><time>2026-04-29T11:10:02Z</time></trkpt><trkpt lat="43.20252287958342" lon="-1.0670011634335808"><ele>172.5</ele><time>2026-04-29T11:10:03Z</time></trkpt><trkpt lat="43.202567279019284" lon="-1.0670934807852315"><ele>172.0</ele><time>2026-04-29T11:10:04Z</time></trkpt><trkpt lat="43.20261009589261" lon="-1.0671892832055272"><ele>171.5</ele><time>2026-04-29T11:10:05Z</time></trkpt><trkpt lat="43.20265589787243" lon="-1.0672849690758657"><ele>171.0</ele><time>2026-04-29T11:10:06Z</time></trkpt><trkpt lat="43.202702281199024" lon="-1.0673761729226383"><ele>170.83333333333334</ele><time>2026-04-29T11:10:07Z</time></trkpt><trkpt lat="43.20274502753104" lon="-1.0674671592971048"><ele>170.66666666666666</ele><time>2026-04-29T11:10:08Z</time></trkpt><trkpt lat="43.20278775598671" lon="-1.0675594691002348"><ele>170.5</ele><time>2026-04-29T11:10:09Z</time></trkpt><trkpt lat="43.20282946114658" lon="-1.0676545221388565"><ele>170.33333333333331</ele><time>2026-04-29T11:10:10Z</time></trkpt><trkpt lat="43.20287362225395" lon="-1.0677461136820046"><ele>170.16666666666666</ele><time>2026-04-29T11:10:11Z</time></trkpt><trkpt lat="43.20291760188478" lon="-1.0678377932400338"><ele>170.0</ele><time>2026-04-29T11:10:12Z</time></trkpt><trkpt lat="43.20296100028483" lon="-1.0679278337870681"><ele>170.0</ele><time>2026-04-29T11:10:13Z</time></trkpt><trkpt lat="43.20300370181644" lon="-1.068017676245705"><ele>170.0</ele><time>2026-04-29T11:10:14Z</time></trkpt><trkpt lat="43.203043816136166" lon="-1.0681081642467278"><ele>170.0</ele><time>2026-04-29T11:10:15Z</time></trkpt><trkpt lat="43.203081917326735" lon="-1.0682000985267917"><ele>170.0</ele><time>2026-04-29T11:10:16.001Z</time></trkpt><trkpt lat="43.20311955392286" lon="-1.0682937767812697"><ele>170.0</ele><time>2026-04-29T11:10:17.001Z</time></trkpt><trkpt lat="43.20316076066782" lon="-1.0683859890644813"><ele>170.0</ele><time>2026-04-29T11:10:18.001Z</time></trkpt><trkpt lat="43.203204364512914" lon="-1.0684729489831095"><ele>168.83333333333331</ele><time>2026-04-29T11:10:19.001Z</time></trkpt><trkpt lat="43.203250575146136" lon="-1.068564393288712"><ele>167.66666666666666</ele><time>2026-04-29T11:10:20.001Z</time></trkpt><trkpt lat="43.203294897222115" lon="-1.068654179876177"><ele>166.5</ele><time>2026-04-29T11:10:21.001Z</time></trkpt><trkpt lat="43.20333866216781" lon="-1.0687476928147734"><ele>165.33333333333334</ele><time>2026-04-29T11:10:22.001Z</time></trkpt><trkpt lat="43.203381723667945" lon="-1.0688414769633554"><ele>164.16666666666669</ele><time>2026-04-29T11:10:23.001Z</time></trkpt><trkpt lat="43.20342636987213" lon="-1.0689344911971648"><ele>163.0</ele><time>2026-04-29T11:10:24.001Z</time></trkpt><trkpt lat="43.20347143996964" lon="-1.0690267796501867"><ele>163.2857142857143</ele><time>2026-04-29T11:10:25.001Z</time></trkpt><trkpt lat="43.2035175121592" lon="-1.0691147169188921"><ele>163.57142857142856</ele><time>2026-04-29T11:10:26.001Z</time></trkpt><trkpt lat="43.20355901220821" lon="-1.0691979515276433"><ele>163.85714285714286</ele><time>2026-04-29T11:10:27.001Z</time></trkpt><trkpt lat="43.2035992663891" lon="-1.0692808619847227"><ele>164.14285714285717</ele><time>2026-04-29T11:10:28.001Z</time></trkpt><trkpt lat="43.20363879206291" lon="-1.06936341240888"><ele>164.42857142857144</ele><time>2026-04-29T11:10:29.001Z</time></trkpt><trkpt lat="43.20367825554305" lon="-1.0694454010579915"><ele>164.71428571428572</ele><time>2026-04-29T11:10:30.001Z</time></trkpt><trkpt lat="43.203717210814254" lon="-1.0695246484864394"><ele>165.0</ele><time>2026-04-29T11:10:31.001Z</time></trkpt><trkpt lat="43.20375477967909" lon="-1.0696044926703654"><ele>165.00000000000003</ele><time>2026-04-29T11:10:32.001Z</time></trkpt><trkpt lat="43.203795129875786" lon="-1.0696818553845373"><ele>165.0</ele><time>2026-04-29T11:10:33.001Z</time></trkpt><trkpt lat="43.203837083367866" lon="-1.0697563852835232"><ele>165.0</ele><time>2026-04-29T11:10:34.001Z</time></trkpt><trkpt lat="43.20388003197356" lon="-1.069831412579291"><ele>165.0</ele><time>2026-04-29T11:10:35.001Z</time></trkpt><trkpt lat="43.203924365571616" lon="-1.069906436206213"><ele>165.0</ele><time>2026-04-29T11:10:36.001Z</time></trkpt><trkpt lat="43.20397197566038" lon="-1.0699761051713232"><ele>165.00000000000003</ele><time>2026-04-29T11:10:37.001Z</time></trkpt><trkpt lat="43.20402168996086" lon="-1.0700496863668343"><ele>165.0</ele><time>2026-04-29T11:10:38.001Z</time></trkpt><trkpt lat="43.204071450593034" lon="-1.0701216179378434"><ele>164.00000000000003</ele><time>2026-04-29T11:10:39.001Z</time></trkpt><trkpt lat="43.20412296963545" lon="-1.0701914894919007"><ele>163.0</ele><time>2026-04-29T11:10:40.001Z</time></trkpt><trkpt lat="43.20417354531176" lon="-1.0702586361006068"><ele>162.0</ele><time>2026-04-29T11:10:41.001Z</time></trkpt><trkpt lat="43.204227282430345" lon="-1.0703220393966955"><ele>161.0</ele><time>2026-04-29T11:10:42.001Z</time></trkpt><trkpt lat="43.2042798553132" lon="-1.0703840062181254"><ele>160.0</ele><time>2026-04-29T11:10:43.001Z</time></trkpt><trkpt lat="43.20432252016868" lon="-1.0704537026780272"><ele>159.00000000000003</ele><time>2026-04-29T11:10:44.001Z</time></trkpt><trkpt lat="43.204361822023166" lon="-1.070528555827169"><ele>158.0</ele><time>2026-04-29T11:10:45.001Z</time></trkpt><trkpt lat="43.204404504720024" lon="-1.0705995682724154"><ele>158.0</ele><time>2026-04-29T11:10:46.001Z</time></trkpt><trkpt lat="43.20444681688597" lon="-1.0706684842617211"><ele>158.0</ele><time>2026-04-29T11:10:47.001Z</time></trkpt><trkpt lat="43.20449074787564" lon="-1.0707321046055607"><ele>158.0</ele><time>2026-04-29T11:10:48.001Z</time></trkpt><trkpt lat="43.204532703393106" lon="-1.0707987454038295"><ele>158.0</ele><time>2026-04-29T11:10:49Z</time></trkpt><trkpt lat="43.20461820565368" lon="-1.0709207007905932"><ele>158.0</ele><time>2026-04-29T11:10:51Z</time></trkpt><trkpt lat="43.20470152836082" lon="-1.0710424689189448"><ele>158.0</ele><time>2026-04-29T11:10:53Z</time></trkpt><trkpt lat="43.20477965798501" lon="-1.0711685528817787"><ele>158.0</ele><time>2026-04-29T11:10:55Z</time></trkpt><trkpt lat="43.204819974199886" lon="-1.0712352066361017"><ele>158.0</ele><time>2026-04-29T11:10:56Z</time></trkpt><trkpt lat="43.20489372302765" lon="-1.0713690171579515"><ele>158.0</ele><time>2026-04-29T11:10:58Z</time></trkpt><trkpt lat="43.204971159820374" lon="-1.071501452859162"><ele>158.0</ele><time>2026-04-29T11:11:00Z</time></trkpt><trkpt lat="43.20501210666356" lon="-1.0715673095092726"><ele>158.0</ele><time>2026-04-29T11:11:01Z</time></trkpt><trkpt lat="43.20508818325588" lon="-1.0717052668781923"><ele>158.33333333333331</ele><time>2026-04-29T11:11:03Z</time></trkpt><trkpt lat="43.205148080414766" lon="-1.0718561296364733"><ele>158.66666666666666</ele><time>2026-04-29T11:11:05Z</time></trkpt><trkpt lat="43.205182822195994" lon="-1.0719364659047705"><ele>159.0</ele><time>2026-04-29T11:11:06Z</time></trkpt><trkpt lat="43.205222826747395" lon="-1.072008420428222"><ele>159.33333333333334</ele><time>2026-04-29T11:11:07Z</time></trkpt><trkpt lat="43.20526454714957" lon="-1.0720819161984523"><ele>159.66666666666669</ele><time>2026-04-29T11:11:08Z</time></trkpt><trkpt lat="43.205307943844744" lon="-1.0721561245675686"><ele>160.0</ele><time>2026-04-29T11:11:09Z</time></trkpt><trkpt lat="43.205351494382406" lon="-1.0722322770083825"><ele>160.0</ele><time>2026-04-29T11:11:10Z</time></trkpt><trkpt lat="43.205394770178884" lon="-1.0723076235317779"><ele>160.0</ele><time>2026-04-29T11:11:11Z</time></trkpt><trkpt lat="43.205437895944655" lon="-1.0723830179545482"><ele>160.0</ele><time>2026-04-29T11:11:12Z</time></trkpt><trkpt lat="43.205484551135704" lon="-1.0724576621265036"><ele>160.0</ele><time>2026-04-29T11:11:13Z</time></trkpt><trkpt lat="43.20552916084427" lon="-1.0725313606106144"><ele>160.0</ele><time>2026-04-29T11:11:14Z</time></trkpt><trkpt lat="43.205571718289136" lon="-1.0726088588626927"><ele>160.0</ele><time>2026-04-29T11:11:15Z</time></trkpt><trkpt lat="43.20561125401525" lon="-1.0726910892307449"><ele>160.0</ele><time>2026-04-29T11:11:16Z</time></trkpt><trkpt lat="43.20565304921167" lon="-1.0727711937886455"><ele>160.0</ele><time>2026-04-29T11:11:17Z</time></trkpt><trkpt lat="43.20569414337909" lon="-1.0728443519364603"><ele>160.0</ele><time>2026-04-29T11:11:18Z</time></trkpt><trkpt lat="43.20577100517366" lon="-1.0729737537254525"><ele>160.0</ele><time>2026-04-29T11:11:20Z</time></trkpt><trkpt lat="43.205837982074854" lon="-1.0730990680034616"><ele>160.0</ele><time>2026-04-29T11:11:22Z</time></trkpt><trkpt lat="43.20590611604495" lon="-1.0732300698341146"><ele>160.0</ele><time>2026-04-29T11:11:24Z</time></trkpt><trkpt lat="43.20594209314273" lon="-1.0733022208026388"><ele>160.0</ele><time>2026-04-29T11:11:25Z</time></trkpt><trkpt lat="43.205981782405935" lon="-1.0733734152678485"><ele>160.0</ele><time>2026-04-29T11:11:26Z</time></trkpt><trkpt lat="43.20602396020656" lon="-1.0734478130445522"><ele>160.0</ele><time>2026-04-29T11:11:27Z</time></trkpt><trkpt lat="43.20606828605003" lon="-1.0735220399723069"><ele>160.0</ele><time>2026-04-29T11:11:28Z</time></trkpt><trkpt lat="43.20611416158661" lon="-1.0736024136616538"><ele>160.0</ele><time>2026-04-29T11:11:29Z</time></trkpt><trkpt lat="43.20616092378773" lon="-1.0736859650090809"><ele>160.0</ele><time>2026-04-29T11:11:30Z</time></trkpt><trkpt lat="43.2062095568316" lon="-1.0737746949225921"><ele>160.0</ele><time>2026-04-29T11:11:31Z</time></trkpt><trkpt lat="43.206258263815585" lon="-1.0738641958333432"><ele>160.0</ele><time>2026-04-29T11:11:32Z</time></trkpt><trkpt lat="43.20631056557317" lon="-1.0739604815887676"><ele>160.0</ele><time>2026-04-29T11:11:33Z</time></trkpt><trkpt lat="43.20636438580181" lon="-1.0740558037811478"><ele>160.0</ele><time>2026-04-29T11:11:34Z</time></trkpt><trkpt lat="43.20641735385018" lon="-1.074154672962774"><ele>160.0</ele><time>2026-04-29T11:11:35Z</time></trkpt><trkpt lat="43.20647166026209" lon="-1.0742542282088987"><ele>160.0</ele><time>2026-04-29T11:11:36Z</time></trkpt><trkpt lat="43.20652764248451" lon="-1.0743558778895494"><ele>160.0</ele><time>2026-04-29T11:11:37Z</time></trkpt><trkpt lat="43.206584484968865" lon="-1.0744553973011484"><ele>159.6</ele><time>2026-04-29T11:11:38Z</time></trkpt><trkpt lat="43.206639703572016" lon="-1.074555913508423"><ele>159.2</ele><time>2026-04-29T11:11:39Z</time></trkpt><trkpt lat="43.20669519569166" lon="-1.0746560928354403"><ele>158.8</ele><time>2026-04-29T11:11:40Z</time></trkpt><trkpt lat="43.206751567600634" lon="-1.0747545426087968"><ele>158.4</ele><time>2026-04-29T11:11:41Z</time></trkpt><trkpt lat="43.20680813337868" lon="-1.0748506069787762"><ele>158.0</ele><time>2026-04-29T11:11:42Z</time></trkpt><trkpt lat="43.20686634492323" lon="-1.0749476948796555"><ele>156.8</ele><time>2026-04-29T11:11:43Z</time></trkpt><trkpt lat="43.20692435924666" lon="-1.07504467278225"><ele>155.60000000000002</ele><time>2026-04-29T11:11:44Z</time></trkpt><trkpt lat="43.20698337882709" lon="-1.075143103265381"><ele>154.39999999999998</ele><time>2026-04-29T11:11:45Z</time></trkpt><trkpt lat="43.20704142510404" lon="-1.075241734726178"><ele>153.2</ele><time>2026-04-29T11:11:46Z</time></trkpt><trkpt lat="43.20709493362524" lon="-1.0753434404386817"><ele>152.0</ele><time>2026-04-29T11:11:47Z</time></trkpt><trkpt lat="43.20715402058222" lon="-1.0754401172825963"><ele>152.0</ele><time>2026-04-29T11:11:48Z</time></trkpt><trkpt lat="43.20721376757245" lon="-1.0755301879572312"><ele>152.0</ele><time>2026-04-29T11:11:49Z</time></trkpt><trkpt lat="43.20727112862259" lon="-1.075616610109651"><ele>152.0</ele><time>2026-04-29T11:11:50Z</time></trkpt><trkpt lat="43.20732624306256" lon="-1.0757055793983397"><ele>152.0</ele><time>2026-04-29T11:11:51Z</time></trkpt><trkpt lat="43.20738272293823" lon="-1.0757966508853987"><ele>152.0</ele><time>2026-04-29T11:11:52Z</time></trkpt><trkpt lat="43.207441793089785" lon="-1.0758890588448013"><ele>152.0</ele><time>2026-04-29T11:11:53Z</time></trkpt><trkpt lat="43.20750147020846" lon="-1.0759817736022048"><ele>151.16666666666666</ele><time>2026-04-29T11:11:54Z</time></trkpt><trkpt lat="43.207561485347256" lon="-1.076072945797768"><ele>150.33333333333331</ele><time>2026-04-29T11:11:55Z</time></trkpt><trkpt lat="43.20762173280766" lon="-1.0761623114424692"><ele>149.5</ele><time>2026-04-29T11:11:56Z</time></trkpt><trkpt lat="43.207679278953485" lon="-1.0762485276008416"><ele>148.66666666666666</ele><time>2026-04-29T11:11:57Z</time></trkpt><trkpt lat="43.20773550370729" lon="-1.0763337663666424"><ele>147.83333333333334</ele><time>2026-04-29T11:11:58Z</time></trkpt><trkpt lat="43.20778542412505" lon="-1.0764190116036696"><ele>147.0</ele><time>2026-04-29T11:11:59Z</time></trkpt><trkpt lat="43.20783622618419" lon="-1.0765034326764094"><ele>147.0</ele><time>2026-04-29T11:12:00Z</time></trkpt><trkpt lat="43.2078877251072" lon="-1.0765810620479002"><ele>147.0</ele><time>2026-04-29T11:12:01Z</time></trkpt><trkpt lat="43.2079373669022" lon="-1.076653151337829"><ele>147.0</ele><time>2026-04-29T11:12:02Z</time></trkpt><trkpt lat="43.20798401186975" lon="-1.076728079474698"><ele>147.0</ele><time>2026-04-29T11:12:03Z</time></trkpt><trkpt lat="43.20803078393024" lon="-1.0768055097335425"><ele>147.0</ele><time>2026-04-29T11:12:04Z</time></trkpt><trkpt lat="43.20807985637926" lon="-1.076877814998191"><ele>147.0</ele><time>2026-04-29T11:12:05Z</time></trkpt><trkpt lat="43.20812980839171" lon="-1.0769486702874655"><ele>147.0</ele><time>2026-04-29T11:12:06Z</time></trkpt><trkpt lat="43.20817771496949" lon="-1.0770187662614963"><ele>147.42857142857142</ele><time>2026-04-29T11:12:07Z</time></trkpt><trkpt lat="43.208224715481926" lon="-1.077091644344059"><ele>147.85714285714286</ele><time>2026-04-29T11:12:08Z</time></trkpt><trkpt lat="43.20827076384804" lon="-1.077164034682216"><ele>148.28571428571428</ele><time>2026-04-29T11:12:09Z</time></trkpt><trkpt lat="43.208318227350276" lon="-1.0772390222725243"><ele>148.71428571428572</ele><time>2026-04-29T11:12:10Z</time></trkpt><trkpt lat="43.208366144119005" lon="-1.0773069174560204"><ele>149.14285714285714</ele><time>2026-04-29T11:12:11Z</time></trkpt><trkpt lat="43.20841548238426" lon="-1.0773820746137048"><ele>149.57142857142856</ele><time>2026-04-29T11:12:12Z</time></trkpt><trkpt lat="43.20846396676573" lon="-1.0774534993707665"><ele>150.0</ele><time>2026-04-29T11:12:13Z</time></trkpt><trkpt lat="43.20851374789423" lon="-1.0775237617094602"><ele>150.5</ele><time>2026-04-29T11:12:14Z</time></trkpt><trkpt lat="43.208563300354605" lon="-1.0776003433778458"><ele>151.0</ele><time>2026-04-29T11:12:15Z</time></trkpt><trkpt lat="43.20861439072289" lon="-1.0776717530727606"><ele>151.5</ele><time>2026-04-29T11:12:16Z</time></trkpt><trkpt lat="43.208667190843414" lon="-1.0777431257221408"><ele>152.0</ele><time>2026-04-29T11:12:17Z</time></trkpt><trkpt lat="43.20871968191451" lon="-1.0778174726560386"><ele>152.5</ele><time>2026-04-29T11:12:18Z</time></trkpt><trkpt lat="43.20877394765086" lon="-1.0778962320340295"><ele>153.0</ele><time>2026-04-29T11:12:19Z</time></trkpt><trkpt lat="43.20882724372596" lon="-1.077973813788714"><ele>153.0</ele><time>2026-04-29T11:12:20Z</time></trkpt><trkpt lat="43.208882014847454" lon="-1.078056986033387"><ele>153.0</ele><time>2026-04-29T11:12:21Z</time></trkpt><trkpt lat="43.20893424742914" lon="-1.0781422571255685"><ele>153.0</ele><time>2026-04-29T11:12:22Z</time></trkpt><trkpt lat="43.208985669843415" lon="-1.0782284203095638"><ele>153.0</ele><time>2026-04-29T11:12:23Z</time></trkpt><trkpt lat="43.209038772446064" lon="-1.0783136160351476"><ele>153.0</ele><time>2026-04-29T11:12:24Z</time></trkpt><trkpt lat="43.20909455579836" lon="-1.0783991753819349"><ele>153.0</ele><time>2026-04-29T11:12:25Z</time></trkpt><trkpt lat="43.20914849308863" lon="-1.0784849222793782"><ele>153.33333333333334</ele><time>2026-04-29T11:12:26Z</time></trkpt><trkpt lat="43.20920211937564" lon="-1.0785746737989437"><ele>153.66666666666666</ele><time>2026-04-29T11:12:27Z</time></trkpt><trkpt lat="43.20925528626182" lon="-1.0786657200602527"><ele>154.0</ele><time>2026-04-29T11:12:28Z</time></trkpt><trkpt lat="43.20930773110857" lon="-1.0787583284964435"><ele>154.33333333333331</ele><time>2026-04-29T11:12:29.001Z</time></trkpt><trkpt lat="43.20936282527723" lon="-1.0788527580182257"><ele>154.66666666666666</ele><time>2026-04-29T11:12:30.001Z</time></trkpt><trkpt lat="43.20942290449727" lon="-1.078943742422359"><ele>155.0</ele><time>2026-04-29T11:12:31.001Z</time></trkpt><trkpt lat="43.20948362417171" lon="-1.0790397986262985"><ele>154.6</ele><time>2026-04-29T11:12:32.001Z</time></trkpt><trkpt lat="43.209546726345955" lon="-1.079135306116227"><ele>154.2</ele><time>2026-04-29T11:12:33.001Z</time></trkpt><trkpt lat="43.20960999406026" lon="-1.07923028408709"><ele>153.8</ele><time>2026-04-29T11:12:34.001Z</time></trkpt><trkpt lat="43.20967841519653" lon="-1.0793302717138749"><ele>153.4</ele><time>2026-04-29T11:12:35.001Z</time></trkpt><trkpt lat="43.20974671654259" lon="-1.0794255730302302"><ele>153.0</ele><time>2026-04-29T11:12:36.001Z</time></trkpt><trkpt lat="43.20981127284572" lon="-1.0795216902858569"><ele>152.8</ele><time>2026-04-29T11:12:37.001Z</time></trkpt><trkpt lat="43.20987456346433" lon="-1.079626135700982"><ele>152.60000000000002</ele><time>2026-04-29T11:12:38.001Z</time></trkpt><trkpt lat="43.209941569462295" lon="-1.0797258006647725"><ele>152.39999999999998</ele><time>2026-04-29T11:12:39.001Z</time></trkpt><trkpt lat="43.210014826436485" lon="-1.079826240093331"><ele>152.2</ele><time>2026-04-29T11:12:40.001Z</time></trkpt><trkpt lat="43.21009322299224" lon="-1.0799289658401392"><ele>152.0</ele><time>2026-04-29T11:12:41.001Z</time></trkpt><trkpt lat="43.21016530054265" lon="-1.080034194081486"><ele>152.0</ele><time>2026-04-29T11:12:42.001Z</time></trkpt><trkpt lat="43.2102374175354" lon="-1.0801304335777593"><ele>152.0</ele><time>2026-04-29T11:12:43.001Z</time></trkpt><trkpt lat="43.21030531005829" lon="-1.0802298148028784"><ele>152.0</ele><time>2026-04-29T11:12:44.001Z</time></trkpt><trkpt lat="43.210370112356976" lon="-1.0803252868639026"><ele>152.0</ele><time>2026-04-29T11:12:45.001Z</time></trkpt><trkpt lat="43.21043723785798" lon="-1.0804191690555855"><ele>152.0</ele><time>2026-04-29T11:12:46.001Z</time></trkpt><trkpt lat="43.210500684664844" lon="-1.0805105517424411"><ele>152.0</ele><time>2026-04-29T11:12:47.001Z</time></trkpt><trkpt lat="43.21056098428083" lon="-1.0806022081900717"><ele>152.0</ele><time>2026-04-29T11:12:48.001Z</time></trkpt><trkpt lat="43.21062059072265" lon="-1.0806910400835104"><ele>152.0</ele><time>2026-04-29T11:12:49.001Z</time></trkpt><trkpt lat="43.21067962722768" lon="-1.0807748342589043"><ele>152.0</ele><time>2026-04-29T11:12:50.001Z</time></trkpt><trkpt lat="43.2107372048749" lon="-1.080857974864955"><ele>152.0</ele><time>2026-04-29T11:12:51.001Z</time></trkpt><trkpt lat="43.21079489265141" lon="-1.0809433053400646"><ele>152.0</ele><time>2026-04-29T11:12:52.001Z</time></trkpt><trkpt lat="43.21084902606046" lon="-1.0810207499819342"><ele>152.0</ele><time>2026-04-29T11:12:53.001Z</time></trkpt><trkpt lat="43.210901081392244" lon="-1.081097531447485"><ele>152.0</ele><time>2026-04-29T11:12:54.001Z</time></trkpt><trkpt lat="43.21095325667782" lon="-1.0811790356129525"><ele>152.0</ele><time>2026-04-29T11:12:55Z</time></trkpt><trkpt lat="43.21100519966506" lon="-1.0812548574275298"><ele>152.0</ele><time>2026-04-29T11:12:56Z</time></trkpt><trkpt lat="43.21105704996136" lon="-1.0813309739972001"><ele>152.0</ele><time>2026-04-29T11:12:57Z</time></trkpt><trkpt lat="43.21110859512522" lon="-1.0814061239522952"><ele>152.0</ele><time>2026-04-29T11:12:58Z</time></trkpt><trkpt lat="43.21116135734485" lon="-1.0814802503183114"><ele>152.0</ele><time>2026-04-29T11:12:59Z</time></trkpt><trkpt lat="43.21121081163882" lon="-1.0815550348465266"><ele>152.0</ele><time>2026-04-29T11:13:00Z</time></trkpt><trkpt lat="43.211261333331116" lon="-1.0816293642616341"><ele>152.0</ele><time>2026-04-29T11:13:01Z</time></trkpt><trkpt lat="43.2113123594636" lon="-1.0817071652314205"><ele>152.0</ele><time>2026-04-29T11:13:02Z</time></trkpt><trkpt lat="43.21136707498696" lon="-1.081778985797695"><ele>152.0</ele><time>2026-04-29T11:13:03Z</time></trkpt><trkpt lat="43.21142022330079" lon="-1.0818505459660923"><ele>152.0</ele><time>2026-04-29T11:13:04Z</time></trkpt><trkpt lat="43.21147171396999" lon="-1.0819180954129588"><ele>152.0</ele><time>2026-04-29T11:13:05Z</time></trkpt><trkpt lat="43.21152298028287" lon="-1.0819958197047417"><ele>152.5</ele><time>2026-04-29T11:13:06Z</time></trkpt><trkpt lat="43.21157604713206" lon="-1.0820784923721203"><ele>153.0</ele><time>2026-04-29T11:13:07Z</time></trkpt><trkpt lat="43.2116307537394" lon="-1.0821581611288904"><ele>153.5</ele><time>2026-04-29T11:13:08Z</time></trkpt><trkpt lat="43.21168455555434" lon="-1.0822375880220503"><ele>154.0</ele><time>2026-04-29T11:13:09Z</time></trkpt><trkpt lat="43.21174028350904" lon="-1.0823141489146877"><ele>154.5</ele><time>2026-04-29T11:13:10Z</time></trkpt><trkpt lat="43.211794257971476" lon="-1.0823949317514452"><ele>155.0</ele><time>2026-04-29T11:13:11Z</time></trkpt><trkpt lat="43.211848087919535" lon="-1.082477724542472"><ele>155.66666666666666</ele><time>2026-04-29T11:13:12Z</time></trkpt><trkpt lat="43.21190267917794" lon="-1.0825601999938788"><ele>156.33333333333331</ele><time>2026-04-29T11:13:13Z</time></trkpt><trkpt lat="43.21195504114635" lon="-1.0826408856320993"><ele>157.0</ele><time>2026-04-29T11:13:14Z</time></trkpt><trkpt lat="43.212007670429486" lon="-1.0827224922278638"><ele>157.66666666666666</ele><time>2026-04-29T11:13:15Z</time></trkpt><trkpt lat="43.21206133362203" lon="-1.0828050234962174"><ele>158.33333333333334</ele><time>2026-04-29T11:13:16Z</time></trkpt><trkpt lat="43.212114326747596" lon="-1.0828849883343696"><ele>159.0</ele><time>2026-04-29T11:13:17Z</time></trkpt><trkpt lat="43.212168103712095" lon="-1.0829669610849533"><ele>159.0</ele><time>2026-04-29T11:13:18Z</time></trkpt><trkpt lat="43.2122226608289" lon="-1.0830504940944365"><ele>159.0</ele><time>2026-04-29T11:13:19Z</time></trkpt><trkpt lat="43.21227701392535" lon="-1.0831341475607428"><ele>159.0</ele><time>2026-04-29T11:13:20Z</time></trkpt><trkpt lat="43.212329629424225" lon="-1.0832163184111105"><ele>159.0</ele><time>2026-04-29T11:13:21Z</time></trkpt><trkpt lat="43.21238464947739" lon="-1.0832977813827946"><ele>159.0</ele><time>2026-04-29T11:13:22Z</time></trkpt><trkpt lat="43.21243770639053" lon="-1.083379056384455"><ele>159.0</ele><time>2026-04-29T11:13:23Z</time></trkpt><trkpt lat="43.21249164878842" lon="-1.083457198252741"><ele>158.5</ele><time>2026-04-29T11:13:24Z</time></trkpt><trkpt lat="43.21254484668472" lon="-1.083536484654671"><ele>158.0</ele><time>2026-04-29T11:13:25Z</time></trkpt><trkpt lat="43.21259807687466" lon="-1.0836147786175547"><ele>157.5</ele><time>2026-04-29T11:13:26Z</time></trkpt><trkpt lat="43.21265181207305" lon="-1.0836975672531703"><ele>157.0</ele><time>2026-04-29T11:13:27Z</time></trkpt><trkpt lat="43.212708430507256" lon="-1.0837798195251653"><ele>156.5</ele><time>2026-04-29T11:13:28Z</time></trkpt><trkpt lat="43.21276822855517" lon="-1.0838518238702741"><ele>156.0</ele><time>2026-04-29T11:13:29Z</time></trkpt><trkpt lat="43.21282974957741" lon="-1.083923175862566"><ele>156.0</ele><time>2026-04-29T11:13:30Z</time></trkpt><trkpt lat="43.21289631391125" lon="-1.0839912070535833"><ele>156.0</ele><time>2026-04-29T11:13:31Z</time></trkpt><trkpt lat="43.21296706636665" lon="-1.0840541410049713"><ele>156.0</ele><time>2026-04-29T11:13:32Z</time></trkpt><trkpt lat="43.21303938079058" lon="-1.0841106154688596"><ele>156.0</ele><time>2026-04-29T11:13:33Z</time></trkpt><trkpt lat="43.21311613743074" lon="-1.084158734279805"><ele>156.0</ele><time>2026-04-29T11:13:34Z</time></trkpt><trkpt lat="43.213192453425364" lon="-1.0841987520771592"><ele>156.0</ele><time>2026-04-29T11:13:35Z</time></trkpt><trkpt lat="43.213271612799375" lon="-1.0842307912980538"><ele>156.66666666666666</ele><time>2026-04-29T11:13:36Z</time></trkpt><trkpt lat="43.21334896090934" lon="-1.0842597687027693"><ele>157.33333333333334</ele><time>2026-04-29T11:13:37Z</time></trkpt><trkpt lat="43.21343166281459" lon="-1.0842870577886017"><ele>158.0</ele><time>2026-04-29T11:13:38Z</time></trkpt><trkpt lat="43.21351789781229" lon="-1.084314922708065"><ele>158.66666666666669</ele><time>2026-04-29T11:13:39Z</time></trkpt><trkpt lat="43.213602519752946" lon="-1.0843356314213928"><ele>159.33333333333334</ele><time>2026-04-29T11:13:40Z</time></trkpt><trkpt lat="43.2136866440131" lon="-1.0843576137535686"><ele>160.0</ele><time>2026-04-29T11:13:41Z</time></trkpt><trkpt lat="43.213771428447814" lon="-1.0843831594329756"><ele>160.0</ele><time>2026-04-29T11:13:42Z</time></trkpt><trkpt lat="43.213855286532976" lon="-1.0844075948297685"><ele>160.0</ele><time>2026-04-29T11:13:43Z</time></trkpt><trkpt lat="43.21394265844899" lon="-1.0844316106225078"><ele>160.0</ele><time>2026-04-29T11:13:44Z</time></trkpt><trkpt lat="43.21402755727336" lon="-1.0844585507087168"><ele>160.0</ele><time>2026-04-29T11:13:45Z</time></trkpt><trkpt lat="43.21411406968256" lon="-1.0844850162888535"><ele>160.0</ele><time>2026-04-29T11:13:46Z</time></trkpt><trkpt lat="43.21420234439649" lon="-1.0845125046678101"><ele>160.0</ele><time>2026-04-29T11:13:47Z</time></trkpt><trkpt lat="43.21429215795945" lon="-1.0845386538087312"><ele>160.0</ele><time>2026-04-29T11:13:48Z</time></trkpt><trkpt lat="43.21437704235721" lon="-1.0845644349262782"><ele>160.0</ele><time>2026-04-29T11:13:49Z</time></trkpt><trkpt lat="43.21446525718406" lon="-1.0845906680070954"><ele>160.0</ele><time>2026-04-29T11:13:50Z</time></trkpt><trkpt lat="43.214548427458226" lon="-1.0846173939892292"><ele>160.0</ele><time>2026-04-29T11:13:51Z</time></trkpt><trkpt lat="43.214634251612594" lon="-1.0846422575586265"><ele>160.0</ele><time>2026-04-29T11:13:52Z</time></trkpt><trkpt lat="43.21471970864126" lon="-1.08466694684983"><ele>160.0</ele><time>2026-04-29T11:13:53Z</time></trkpt><trkpt lat="43.21480393586649" lon="-1.0846913729152474"><ele>160.0</ele><time>2026-04-29T11:13:54Z</time></trkpt><trkpt lat="43.214887344937544" lon="-1.084720905121775"><ele>160.0</ele><time>2026-04-29T11:13:55Z</time></trkpt><trkpt lat="43.2149705121707" lon="-1.0847474898733704"><ele>160.0</ele><time>2026-04-29T11:13:56Z</time></trkpt><trkpt lat="43.215053973714305" lon="-1.0847715426129718"><ele>160.0</ele><time>2026-04-29T11:13:57Z</time></trkpt><trkpt lat="43.21513639825285" lon="-1.0847947367889872"><ele>160.0</ele><time>2026-04-29T11:13:58Z</time></trkpt><trkpt lat="43.215217975915465" lon="-1.084817995708017"><ele>160.0</ele><time>2026-04-29T11:13:59Z</time></trkpt><trkpt lat="43.215299292275894" lon="-1.084843367857447"><ele>160.0</ele><time>2026-04-29T11:14:00Z</time></trkpt><trkpt lat="43.21538270854861" lon="-1.0848698167806214"><ele>160.0</ele><time>2026-04-29T11:14:01Z</time></trkpt><trkpt lat="43.21546782641744" lon="-1.0848946078263977"><ele>160.0</ele><time>2026-04-29T11:14:02Z</time></trkpt><trkpt lat="43.21555183835805" lon="-1.0849157453114566"><ele>160.0</ele><time>2026-04-29T11:14:03Z</time></trkpt><trkpt lat="43.215635758923824" lon="-1.0849395894375857"><ele>160.0</ele><time>2026-04-29T11:14:04Z</time></trkpt><trkpt lat="43.215721016421455" lon="-1.0849648798340747"><ele>160.0</ele><time>2026-04-29T11:14:05Z</time></trkpt><trkpt lat="43.21580510147766" lon="-1.0849907803530545"><ele>160.0</ele><time>2026-04-29T11:14:06Z</time></trkpt><trkpt lat="43.21588937715933" lon="-1.0850182505110697"><ele>160.0</ele><time>2026-04-29T11:14:07Z</time></trkpt><trkpt lat="43.215975236056586" lon="-1.085043808569339"><ele>160.0</ele><time>2026-04-29T11:14:08Z</time></trkpt><trkpt lat="43.216060614396554" lon="-1.0850681882668605"><ele>160.0</ele><time>2026-04-29T11:14:09Z</time></trkpt><trkpt lat="43.21614550799128" lon="-1.0850958256028462"><ele>160.0</ele><time>2026-04-29T11:14:10Z</time></trkpt><trkpt lat="43.216234388464336" lon="-1.085123769967608"><ele>160.0</ele><time>2026-04-29T11:14:11Z</time></trkpt><trkpt lat="43.21632277213719" lon="-1.0851503256203654"><ele>160.0</ele><time>2026-04-29T11:14:12Z</time></trkpt><trkpt lat="43.21641165882827" lon="-1.0851765489804306"><ele>160.0</ele><time>2026-04-29T11:14:13Z</time></trkpt><trkpt lat="43.216499361468664" lon="-1.0852062033077479"><ele>160.0</ele><time>2026-04-29T11:14:14Z</time></trkpt><trkpt lat="43.21658905537198" lon="-1.0852347612625157"><ele>160.0</ele><time>2026-04-29T11:14:15Z</time></trkpt><trkpt lat="43.21668034554411" lon="-1.085265447599534"><ele>160.0</ele><time>2026-04-29T11:14:16Z</time></trkpt><trkpt lat="43.216773520609095" lon="-1.0852936775985353"><ele>159.0</ele><time>2026-04-29T11:14:17Z</time></trkpt><trkpt lat="43.216866487901264" lon="-1.0853212857969472"><ele>158.0</ele><time>2026-04-29T11:14:18Z</time></trkpt><trkpt lat="43.216960537740086" lon="-1.0853504578163797"><ele>157.0</ele><time>2026-04-29T11:14:19Z</time></trkpt><trkpt lat="43.21705501965777" lon="-1.085382665134503"><ele>156.0</ele><time>2026-04-29T11:14:20Z</time></trkpt><trkpt lat="43.21715146800244" lon="-1.0854142024941753"><ele>155.0</ele><time>2026-04-29T11:14:21Z</time></trkpt><trkpt lat="43.21724960755063" lon="-1.0854438364944288"><ele>154.2</ele><time>2026-04-29T11:14:22Z</time></trkpt><trkpt lat="43.21734599549588" lon="-1.085473994220251"><ele>153.4</ele><time>2026-04-29T11:14:23Z</time></trkpt><trkpt lat="43.217442722436985" lon="-1.0855004216793895"><ele>152.6</ele><time>2026-04-29T11:14:24Z</time></trkpt><trkpt lat="43.21753833469279" lon="-1.0855275898280443"><ele>151.8</ele><time>2026-04-29T11:14:25Z</time></trkpt><trkpt lat="43.21763138902989" lon="-1.0855543273548123"><ele>151.0</ele><time>2026-04-29T11:14:26.001Z</time></trkpt><trkpt lat="43.217720328918205" lon="-1.085577849015551"><ele>151.0</ele><time>2026-04-29T11:14:27.001Z</time></trkpt><trkpt lat="43.21780673279648" lon="-1.0856034820620346"><ele>151.0</ele><time>2026-04-29T11:14:28.001Z</time></trkpt><trkpt lat="43.21788857006705" lon="-1.0856280888775434"><ele>151.0</ele><time>2026-04-29T11:14:29.001Z</time></trkpt><trkpt lat="43.21796858908863" lon="-1.0856534509813225"><ele>151.0</ele><time>2026-04-29T11:14:30.001Z</time></trkpt><trkpt lat="43.21804815901615" lon="-1.0856750579913759"><ele>151.0</ele><time>2026-04-29T11:14:31.001Z</time></trkpt><trkpt lat="43.21812640628108" lon="-1.0856961511605396"><ele>151.0</ele><time>2026-04-29T11:14:32.001Z</time></trkpt><trkpt lat="43.21820462094623" lon="-1.0857166919543482"><ele>151.33333333333334</ele><time>2026-04-29T11:14:33.001Z</time></trkpt><trkpt lat="43.218283890733844" lon="-1.085738361296547"><ele>151.66666666666669</ele><time>2026-04-29T11:14:34.001Z</time></trkpt><trkpt lat="43.21836202609342" lon="-1.085759905830317"><ele>152.0</ele><time>2026-04-29T11:14:35.001Z</time></trkpt><trkpt lat="43.21843976635938" lon="-1.0857822280120757"><ele>152.33333333333334</ele><time>2026-04-29T11:14:36.001Z</time></trkpt><trkpt lat="43.21851694230132" lon="-1.085804686793989"><ele>152.66666666666666</ele><time>2026-04-29T11:14:37.001Z</time></trkpt><trkpt lat="43.21859524650269" lon="-1.085832193124554"><ele>153.0</ele><time>2026-04-29T11:14:38.001Z</time></trkpt><trkpt lat="43.21867738735669" lon="-1.0858510380340127"><ele>153.0</ele><time>2026-04-29T11:14:39.001Z</time></trkpt><trkpt lat="43.21875697928483" lon="-1.0858721604743469"><ele>153.0</ele><time>2026-04-29T11:14:40.001Z</time></trkpt><trkpt lat="43.21883514209798" lon="-1.0858923161964196"><ele>153.0</ele><time>2026-04-29T11:14:41.001Z</time></trkpt><trkpt lat="43.21891382693575" lon="-1.0859141604644387"><ele>153.0</ele><time>2026-04-29T11:14:42.001Z</time></trkpt><trkpt lat="43.218996135711954" lon="-1.0859374561329298"><ele>153.0</ele><time>2026-04-29T11:14:43.001Z</time></trkpt><trkpt lat="43.219078942997434" lon="-1.0859646174482274"><ele>153.0</ele><time>2026-04-29T11:14:44.001Z</time></trkpt><trkpt lat="43.21916015096575" lon="-1.0859920414362323"><ele>153.16666666666666</ele><time>2026-04-29T11:14:45.001Z</time></trkpt><trkpt lat="43.21924472763105" lon="-1.0860196596721814"><ele>153.33333333333334</ele><time>2026-04-29T11:14:46.001Z</time></trkpt><trkpt lat="43.21932869944278" lon="-1.0860471620826617"><ele>153.5</ele><time>2026-04-29T11:14:47.001Z</time></trkpt><trkpt lat="43.21941223829423" lon="-1.0860717964833184"><ele>153.66666666666669</ele><time>2026-04-29T11:14:48.001Z</time></trkpt><trkpt lat="43.21949955418843" lon="-1.0860954276930177"><ele>153.83333333333334</ele><time>2026-04-29T11:14:49.001Z</time></trkpt><trkpt lat="43.219585706132335" lon="-1.0861198669009604"><ele>154.0</ele><time>2026-04-29T11:14:50.001Z</time></trkpt><trkpt lat="43.2196733911909" lon="-1.0861453383310478"><ele>154.0</ele><time>2026-04-29T11:14:51.001Z</time></trkpt><trkpt lat="43.21976145350522" lon="-1.0861727082432036"><ele>154.0</ele><time>2026-04-29T11:14:52.001Z</time></trkpt><trkpt lat="43.21985211048093" lon="-1.0862023951767357"><ele>154.0</ele><time>2026-04-29T11:14:53.001Z</time></trkpt><trkpt lat="43.219945319942546" lon="-1.0862285993909304"><ele>154.0</ele><time>2026-04-29T11:14:54.001Z</time></trkpt><trkpt lat="43.22003697447331" lon="-1.0862532781970986"><ele>154.0</ele><time>2026-04-29T11:14:55.001Z</time></trkpt><trkpt lat="43.220127570315206" lon="-1.086281353895777"><ele>153.8</ele><time>2026-04-29T11:14:56.001Z</time></trkpt><trkpt lat="43.22022023019305" lon="-1.0863122902160718"><ele>153.60000000000002</ele><time>2026-04-29T11:14:57.001Z</time></trkpt><trkpt lat="43.22031273367521" lon="-1.0863391049614364"><ele>153.4</ele><time>2026-04-29T11:14:58.001Z</time></trkpt><trkpt lat="43.22040481991133" lon="-1.0863666282554083"><ele>153.20000000000002</ele><time>2026-04-29T11:14:59.001Z</time></trkpt><trkpt lat="43.22049716259436" lon="-1.086394016450048"><ele>153.0</ele><time>2026-04-29T11:15:00.001Z</time></trkpt><trkpt lat="43.22058956629239" lon="-1.0864241604177265"><ele>151.8</ele><time>2026-04-29T11:15:01Z</time></trkpt><trkpt lat="43.22068337267301" lon="-1.086453596023094"><ele>150.60000000000002</ele><time>2026-04-29T11:15:02Z</time></trkpt><trkpt lat="43.220779810546674" lon="-1.0864819885962442"><ele>149.39999999999998</ele><time>2026-04-29T11:15:03Z</time></trkpt><trkpt lat="43.2208733555889" lon="-1.0865108850967764"><ele>148.2</ele><time>2026-04-29T11:15:04Z</time></trkpt><trkpt lat="43.22096477573028" lon="-1.0865386345530563"><ele>147.0</ele><time>2026-04-29T11:15:05Z</time></trkpt><trkpt lat="43.221054201090354" lon="-1.0865651385124222"><ele>147.0</ele><time>2026-04-29T11:15:06Z</time></trkpt><trkpt lat="43.22114024034308" lon="-1.086589995020301"><ele>147.0</ele><time>2026-04-29T11:15:07Z</time></trkpt><trkpt lat="43.221223530497035" lon="-1.0866126678111288"><ele>147.0</ele><time>2026-04-29T11:15:08Z</time></trkpt><trkpt lat="43.22130336266615" lon="-1.0866331940596472"><ele>147.0</ele><time>2026-04-29T11:15:09Z</time></trkpt><trkpt lat="43.22138171259375" lon="-1.0866554098123826"><ele>147.0</ele><time>2026-04-29T11:15:10Z</time></trkpt><trkpt lat="43.22145924622357" lon="-1.0866796341125264"><ele>147.0</ele><time>2026-04-29T11:15:11Z</time></trkpt><trkpt lat="43.22153664028539" lon="-1.0867028372991427"><ele>147.16666666666666</ele><time>2026-04-29T11:15:12Z</time></trkpt><trkpt lat="43.22161266614479" lon="-1.0867242576743723"><ele>147.33333333333334</ele><time>2026-04-29T11:15:13Z</time></trkpt><trkpt lat="43.22168860886318" lon="-1.0867483321505131"><ele>147.5</ele><time>2026-04-29T11:15:14Z</time></trkpt><trkpt lat="43.22176488975763" lon="-1.0867715351101306"><ele>147.66666666666669</ele><time>2026-04-29T11:15:15Z</time></trkpt><trkpt lat="43.22184125223697" lon="-1.0867927792618663"><ele>147.83333333333334</ele><time>2026-04-29T11:15:16Z</time></trkpt><trkpt lat="43.22191793999715" lon="-1.0868134886368748"><ele>148.0</ele><time>2026-04-29T11:15:17Z</time></trkpt><trkpt lat="43.22199164409159" lon="-1.0868351934053126"><ele>148.0</ele><time>2026-04-29T11:15:18Z</time></trkpt><trkpt lat="43.22206649290032" lon="-1.0868600036874807"><ele>148.0</ele><time>2026-04-29T11:15:19Z</time></trkpt><trkpt lat="43.22214257518052" lon="-1.0868841165635794"><ele>148.0</ele><time>2026-04-29T11:15:20Z</time></trkpt><trkpt lat="43.22221797226561" lon="-1.0869052286210574"><ele>148.0</ele><time>2026-04-29T11:15:21Z</time></trkpt><trkpt lat="43.22229413484465" lon="-1.0869294332187802"><ele>148.0</ele><time>2026-04-29T11:15:22Z</time></trkpt><trkpt lat="43.222371581750444" lon="-1.086952535658882"><ele>148.0</ele><time>2026-04-29T11:15:23Z</time></trkpt><trkpt lat="43.222447787121496" lon="-1.0869771226008464"><ele>148.16666666666669</ele><time>2026-04-29T11:15:24Z</time></trkpt><trkpt lat="43.222530122282684" lon="-1.0869979634648332"><ele>148.33333333333334</ele><time>2026-04-29T11:15:25Z</time></trkpt><trkpt lat="43.2226074123536" lon="-1.0870202088675005"><ele>148.5</ele><time>2026-04-29T11:15:26Z</time></trkpt><trkpt lat="43.22268745898532" lon="-1.087041993109012"><ele>148.66666666666666</ele><time>2026-04-29T11:15:27Z</time></trkpt><trkpt lat="43.22276531358169" lon="-1.0870643279710919"><ele>148.83333333333331</ele><time>2026-04-29T11:15:28Z</time></trkpt><trkpt lat="43.22284308955921" lon="-1.0870865612410587"><ele>149.0</ele><time>2026-04-29T11:15:29Z</time></trkpt><trkpt lat="43.22292252788056" lon="-1.087110547680936"><ele>149.0</ele><time>2026-04-29T11:15:30Z</time></trkpt><trkpt lat="43.22299918033855" lon="-1.0871356391794529"><ele>149.0</ele><time>2026-04-29T11:15:31Z</time></trkpt><trkpt lat="43.22307869815421" lon="-1.0871599051104326"><ele>149.0</ele><time>2026-04-29T11:15:32Z</time></trkpt><trkpt lat="43.223160990245894" lon="-1.0871820396483063"><ele>149.0</ele><time>2026-04-29T11:15:33Z</time></trkpt><trkpt lat="43.22324237318026" lon="-1.0872030501969792"><ele>149.0</ele><time>2026-04-29T11:15:34Z</time></trkpt><trkpt lat="43.2233248196131" lon="-1.0872250146058215"><ele>149.0</ele><time>2026-04-29T11:15:35Z</time></trkpt><trkpt lat="43.22340750538821" lon="-1.0872494331576439"><ele>149.66666666666666</ele><time>2026-04-29T11:15:36Z</time></trkpt><trkpt lat="43.223491910393285" lon="-1.0872715725488225"><ele>150.33333333333331</ele><time>2026-04-29T11:15:37Z</time></trkpt><trkpt lat="43.22357074156649" lon="-1.0872977376843458"><ele>151.0</ele><time>2026-04-29T11:15:38Z</time></trkpt><trkpt lat="43.22365432173806" lon="-1.0873218215549936"><ele>151.66666666666666</ele><time>2026-04-29T11:15:39Z</time></trkpt><trkpt lat="43.22373771000137" lon="-1.087345232583986"><ele>152.33333333333334</ele><time>2026-04-29T11:15:40Z</time></trkpt><trkpt lat="43.22381700013213" lon="-1.0873706242300671"><ele>153.0</ele><time>2026-04-29T11:15:41Z</time></trkpt><trkpt lat="43.22390033440217" lon="-1.087395423967407"><ele>153.5</ele><time>2026-04-29T11:15:42Z</time></trkpt><trkpt lat="43.22398340283608" lon="-1.0874199416598738"><ele>154.0</ele><time>2026-04-29T11:15:43Z</time></trkpt><trkpt lat="43.22406770529771" lon="-1.0874460928405572"><ele>154.5</ele><time>2026-04-29T11:15:44Z</time></trkpt><trkpt lat="43.224151915237506" lon="-1.0874705482841678"><ele>155.0</ele><time>2026-04-29T11:15:45Z</time></trkpt><trkpt lat="43.224240418734695" lon="-1.0874911946988888"><ele>155.5</ele><time>2026-04-29T11:15:46Z</time></trkpt><trkpt lat="43.22432589837572" lon="-1.0875153345964448"><ele>156.0</ele><time>2026-04-29T11:15:47Z</time></trkpt><trkpt lat="43.22440931861264" lon="-1.0875395872638642"><ele>156.0</ele><time>2026-04-29T11:15:48Z</time></trkpt><trkpt lat="43.22448804976954" lon="-1.087563943500523"><ele>156.0</ele><time>2026-04-29T11:15:49Z</time></trkpt><trkpt lat="43.22457199703337" lon="-1.0875891547015082"><ele>156.0</ele><time>2026-04-29T11:15:50Z</time></trkpt><trkpt lat="43.22465653793745" lon="-1.087610110920028"><ele>156.0</ele><time>2026-04-29T11:15:51Z</time></trkpt><trkpt lat="43.22474289673026" lon="-1.0876293841487774"><ele>156.0</ele><time>2026-04-29T11:15:52Z</time></trkpt><trkpt lat="43.224830864098195" lon="-1.0876456516240942"><ele>156.0</ele><time>2026-04-29T11:15:53Z</time></trkpt><trkpt lat="43.22491929080024" lon="-1.0876660168322663"><ele>156.0</ele><time>2026-04-29T11:15:54Z</time></trkpt><trkpt lat="43.22500640752463" lon="-1.0876859085302524"><ele>156.0</ele><time>2026-04-29T11:15:55Z</time></trkpt><trkpt lat="43.22509458627663" lon="-1.0877041050497183"><ele>156.0</ele><time>2026-04-29T11:15:56Z</time></trkpt><trkpt lat="43.22518001041496" lon="-1.087720290113298"><ele>156.0</ele><time>2026-04-29T11:15:57Z</time></trkpt><trkpt lat="43.225265802323555" lon="-1.0877364868986135"><ele>156.0</ele><time>2026-04-29T11:15:58Z</time></trkpt><trkpt lat="43.22534837460343" lon="-1.087752856602892"><ele>156.0</ele><time>2026-04-29T11:15:59Z</time></trkpt><trkpt lat="43.225430874625566" lon="-1.087773227838483"><ele>156.0</ele><time>2026-04-29T11:16:00Z</time></trkpt><trkpt lat="43.22551487322285" lon="-1.0877957851070952"><ele>156.0</ele><time>2026-04-29T11:16:01Z</time></trkpt><trkpt lat="43.22559903716604" lon="-1.0878132903165718"><ele>156.0</ele><time>2026-04-29T11:16:02Z</time></trkpt><trkpt lat="43.22568139860862" lon="-1.0878303579375839"><ele>156.0</ele><time>2026-04-29T11:16:03Z</time></trkpt><trkpt lat="43.2257606196677" lon="-1.0878508871539752"><ele>156.0</ele><time>2026-04-29T11:16:04Z</time></trkpt><trkpt lat="43.225836592763" lon="-1.0878797562228837"><ele>156.0</ele><time>2026-04-29T11:16:05Z</time></trkpt><trkpt lat="43.22590951869482" lon="-1.0879162807782874"><ele>155.66666666666666</ele><time>2026-04-29T11:16:06Z</time></trkpt><trkpt lat="43.225980100315496" lon="-1.0879562246690901"><ele>155.33333333333334</ele><time>2026-04-29T11:16:07Z</time></trkpt><trkpt lat="43.22604668360901" lon="-1.088009992789094"><ele>155.0</ele><time>2026-04-29T11:16:08Z</time></trkpt><trkpt lat="43.226111234323064" lon="-1.088074881283048"><ele>154.66666666666669</ele><time>2026-04-29T11:16:09Z</time></trkpt><trkpt lat="43.22617784526034" lon="-1.0881450454523318"><ele>154.33333333333334</ele><time>2026-04-29T11:16:10Z</time></trkpt><trkpt lat="43.226243070453926" lon="-1.088218932809909"><ele>154.0</ele><time>2026-04-29T11:16:11Z</time></trkpt><trkpt lat="43.22630662664854" lon="-1.088301645353029"><ele>154.0</ele><time>2026-04-29T11:16:12Z</time></trkpt><trkpt lat="43.22637136593538" lon="-1.088386529625676"><ele>154.0</ele><time>2026-04-29T11:16:13Z</time></trkpt><trkpt lat="43.22644049131573" lon="-1.0884707788228354"><ele>154.0</ele><time>2026-04-29T11:16:14Z</time></trkpt><trkpt lat="43.226511081195525" lon="-1.0885544958752138"><ele>154.0</ele><time>2026-04-29T11:16:15Z</time></trkpt><trkpt lat="43.22658568150724" lon="-1.0886424220537052"><ele>154.0</ele><time>2026-04-29T11:16:16Z</time></trkpt><trkpt lat="43.226659490501994" lon="-1.088728162313627"><ele>151.8</ele><time>2026-04-29T11:16:17Z</time></trkpt><trkpt lat="43.22673494128345" lon="-1.0888185972711426"><ele>149.60000000000002</ele><time>2026-04-29T11:16:18Z</time></trkpt><trkpt lat="43.22682050427435" lon="-1.08889201120342"><ele>147.4</ele><time>2026-04-29T11:16:19Z</time></trkpt><trkpt lat="43.22689860510073" lon="-1.0889822720562554"><ele>145.20000000000002</ele><time>2026-04-29T11:16:20Z</time></trkpt><trkpt lat="43.2269784409045" lon="-1.0890731869826729"><ele>143.0</ele><time>2026-04-29T11:16:21Z</time></trkpt><trkpt lat="43.22705914232161" lon="-1.0891650876423418"><ele>143.0</ele><time>2026-04-29T11:16:22Z</time></trkpt><trkpt lat="43.22714063578516" lon="-1.0892573378271904"><ele>143.0</ele><time>2026-04-29T11:16:23Z</time></trkpt><trkpt lat="43.227222613782594" lon="-1.0893489051222116"><ele>143.0</ele><time>2026-04-29T11:16:24Z</time></trkpt><trkpt lat="43.227308334381114" lon="-1.0894435583910267"><ele>143.0</ele><time>2026-04-29T11:16:25Z</time></trkpt><trkpt lat="43.227393278995024" lon="-1.0895358489626554"><ele>143.0</ele><time>2026-04-29T11:16:26Z</time></trkpt><trkpt lat="43.2274821830438" lon="-1.0896322119244226"><ele>142.0</ele><time>2026-04-29T11:16:27Z</time></trkpt><trkpt lat="43.22756840820228" lon="-1.089725585241214"><ele>141.0</ele><time>2026-04-29T11:16:28Z</time></trkpt><trkpt lat="43.227652350094374" lon="-1.0898164770861718"><ele>140.0</ele><time>2026-04-29T11:16:29Z</time></trkpt><trkpt lat="43.22773470092284" lon="-1.0899053842814383"><ele>139.0</ele><time>2026-04-29T11:16:30Z</time></trkpt><trkpt lat="43.22781306637863" lon="-1.0899894958405745"><ele>138.0</ele><time>2026-04-29T11:16:31Z</time></trkpt><trkpt lat="43.22788945681784" lon="-1.090072037865203"><ele>137.8</ele><time>2026-04-29T11:16:32Z</time></trkpt><trkpt lat="43.22796589995198" lon="-1.0901546369120565"><ele>137.60000000000002</ele><time>2026-04-29T11:16:33Z</time></trkpt><trkpt lat="43.22803921377658" lon="-1.090234986841123"><ele>137.39999999999998</ele><time>2026-04-29T11:16:34Z</time></trkpt><trkpt lat="43.228110215511386" lon="-1.0903127804133135"><ele>137.2</ele><time>2026-04-29T11:16:35Z</time></trkpt><trkpt lat="43.22817036237228" lon="-1.090406459684808"><ele>137.0</ele><time>2026-04-29T11:16:36Z</time></trkpt><trkpt lat="43.228250500368866" lon="-1.0904664845611713"><ele>137.33333333333331</ele><time>2026-04-29T11:16:37Z</time></trkpt><trkpt lat="43.228313479757205" lon="-1.0905603686123193"><ele>137.66666666666666</ele><time>2026-04-29T11:16:38Z</time></trkpt><trkpt lat="43.22838175007203" lon="-1.0906378705738662"><ele>138.0</ele><time>2026-04-29T11:16:39Z</time></trkpt><trkpt lat="43.22845120608676" lon="-1.090713851435604"><ele>138.33333333333334</ele><time>2026-04-29T11:16:40Z</time></trkpt><trkpt lat="43.22851870546431" lon="-1.0907841794435404"><ele>138.66666666666669</ele><time>2026-04-29T11:16:41Z</time></trkpt><trkpt lat="43.228588706612264" lon="-1.0908585444176768"><ele>139.0</ele><time>2026-04-29T11:16:42Z</time></trkpt><trkpt lat="43.22865201988546" lon="-1.090927721576809"><ele>139.33333333333334</ele><time>2026-04-29T11:16:43Z</time></trkpt><trkpt lat="43.22871894804539" lon="-1.0909967077326193"><ele>139.66666666666669</ele><time>2026-04-29T11:16:44Z</time></trkpt><trkpt lat="43.22878260606272" lon="-1.0910667227225352"><ele>140.0</ele><time>2026-04-29T11:16:45Z</time></trkpt><trkpt lat="43.22884869750077" lon="-1.09113406276358"><ele>140.33333333333334</ele><time>2026-04-29T11:16:46Z</time></trkpt><trkpt lat="43.22891476924414" lon="-1.091198628867726"><ele>140.66666666666666</ele><time>2026-04-29T11:16:47Z</time></trkpt><trkpt lat="43.228977605921955" lon="-1.091267443354527"><ele>141.0</ele><time>2026-04-29T11:16:48Z</time></trkpt><trkpt lat="43.22904344085734" lon="-1.0913346988220176"><ele>141.33333333333334</ele><time>2026-04-29T11:16:49.001Z</time></trkpt><trkpt lat="43.22911047955143" lon="-1.091401678106722"><ele>141.66666666666666</ele><time>2026-04-29T11:16:50.001Z</time></trkpt><trkpt lat="43.22917163118177" lon="-1.091466275532995"><ele>142.0</ele><time>2026-04-29T11:16:51.001Z</time></trkpt><trkpt lat="43.22922857281769" lon="-1.0915335340894428"><ele>142.33333333333331</ele><time>2026-04-29T11:16:52.001Z</time></trkpt><trkpt lat="43.22928488193974" lon="-1.0916000323866928"><ele>142.66666666666666</ele><time>2026-04-29T11:16:53.001Z</time></trkpt><trkpt lat="43.2293428332863" lon="-1.091671094168403"><ele>143.0</ele><time>2026-04-29T11:16:54.001Z</time></trkpt><trkpt lat="43.22939881078708" lon="-1.0917404363129182"><ele>143.8</ele><time>2026-04-29T11:16:55.001Z</time></trkpt><trkpt lat="43.22945449839391" lon="-1.0918053388856115"><ele>144.60000000000002</ele><time>2026-04-29T11:16:56.001Z</time></trkpt><trkpt lat="43.22950604361728" lon="-1.091873249874597"><ele>145.39999999999998</ele><time>2026-04-29T11:16:57.001Z</time></trkpt><trkpt lat="43.22965380317258" lon="-1.0920138179664263"><ele>146.2</ele><time>2026-04-29T11:16:59.001Z</time></trkpt><trkpt lat="43.229715067997056" lon="-1.0920837025504069"><ele>147.0</ele><time>2026-04-29T11:17:00.001Z</time></trkpt><trkpt lat="43.2297774893578" lon="-1.0921551362675874"><ele>146.83333333333334</ele><time>2026-04-29T11:17:01.001Z</time></trkpt><trkpt lat="43.229835539935294" lon="-1.092229321227224"><ele>146.66666666666666</ele><time>2026-04-29T11:17:02.001Z</time></trkpt><trkpt lat="43.22989549556705" lon="-1.0922970454749281"><ele>146.5</ele><time>2026-04-29T11:17:03.001Z</time></trkpt><trkpt lat="43.22995527559775" lon="-1.0923694463676457"><ele>146.33333333333331</ele><time>2026-04-29T11:17:04.001Z</time></trkpt><trkpt lat="43.23001934518898" lon="-1.0924379509181532"><ele>146.16666666666666</ele><time>2026-04-29T11:17:05.001Z</time></trkpt><trkpt lat="43.23008322624778" lon="-1.0925074199679"><ele>146.0</ele><time>2026-04-29T11:17:06.001Z</time></trkpt><trkpt lat="43.23014794932063" lon="-1.0925737801850939"><ele>146.83333333333331</ele><time>2026-04-29T11:17:07Z</time></trkpt><trkpt lat="43.23021044490583" lon="-1.0926510591561691"><ele>147.66666666666666</ele><time>2026-04-29T11:17:08Z</time></trkpt><trkpt lat="43.23027807840971" lon="-1.0927221637783007"><ele>148.5</ele><time>2026-04-29T11:17:09Z</time></trkpt><trkpt lat="43.23035062482285" lon="-1.0927928206947894"><ele>149.33333333333334</ele><time>2026-04-29T11:17:10Z</time></trkpt><trkpt lat="43.23042109023444" lon="-1.092860553467486"><ele>150.16666666666669</ele><time>2026-04-29T11:17:11Z</time></trkpt><trkpt lat="43.23048851367087" lon="-1.0929311060224538"><ele>151.0</ele><time>2026-04-29T11:17:12Z</time></trkpt><trkpt lat="43.230557635987886" lon="-1.0929954544769036"><ele>151.0</ele><time>2026-04-29T11:17:13Z</time></trkpt><trkpt lat="43.23062700961696" lon="-1.0930565796319478"><ele>151.0</ele><time>2026-04-29T11:17:14Z</time></trkpt><trkpt lat="43.23069042597545" lon="-1.093121497706202"><ele>151.0</ele><time>2026-04-29T11:17:15Z</time></trkpt><trkpt lat="43.230752197334816" lon="-1.09318117175073"><ele>151.0</ele><time>2026-04-29T11:17:16Z</time></trkpt><trkpt lat="43.230810733230705" lon="-1.0932416575181672"><ele>151.0</ele><time>2026-04-29T11:17:17Z</time></trkpt><trkpt lat="43.23086676163272" lon="-1.0933112327748749"><ele>151.0</ele><time>2026-04-29T11:17:18Z</time></trkpt><trkpt lat="43.23092562601433" lon="-1.093373865764531"><ele>151.5</ele><time>2026-04-29T11:17:19Z</time></trkpt><trkpt lat="43.23097885249835" lon="-1.0934408484045437"><ele>152.0</ele><time>2026-04-29T11:17:20Z</time></trkpt><trkpt lat="43.231077367691256" lon="-1.0935777980420218"><ele>152.5</ele><time>2026-04-29T11:17:22Z</time></trkpt><trkpt lat="43.231124771370375" lon="-1.0936502607980472"><ele>153.0</ele><time>2026-04-29T11:17:23Z</time></trkpt><trkpt lat="43.23117001436233" lon="-1.0937293538111823"><ele>153.5</ele><time>2026-04-29T11:17:24Z</time></trkpt><trkpt lat="43.231212341328835" lon="-1.0938058594533113"><ele>154.0</ele><time>2026-04-29T11:17:25Z</time></trkpt><trkpt lat="43.23124891798143" lon="-1.093889507984147"><ele>154.0</ele><time>2026-04-29T11:17:26Z</time></trkpt><trkpt lat="43.23129609302001" lon="-1.0939569268935665"><ele>154.0</ele><time>2026-04-29T11:17:27Z</time></trkpt><trkpt lat="43.23132850818414" lon="-1.0940420900616172"><ele>154.0</ele><time>2026-04-29T11:17:28Z</time></trkpt><trkpt lat="43.23137364813769" lon="-1.0941217542272728"><ele>154.0</ele><time>2026-04-29T11:17:29Z</time></trkpt><trkpt lat="43.23141941188883" lon="-1.0941891737623743"><ele>154.0</ele><time>2026-04-29T11:17:30Z</time></trkpt><trkpt lat="43.23146473912742" lon="-1.0942631015040059"><ele>154.0</ele><time>2026-04-29T11:17:31Z</time></trkpt><trkpt lat="43.231510843309515" lon="-1.094327630403361"><ele>154.0</ele><time>2026-04-29T11:17:32Z</time></trkpt><trkpt lat="43.23155869366506" lon="-1.0943934988240722"><ele>154.5</ele><time>2026-04-29T11:17:33Z</time></trkpt><trkpt lat="43.2316062144098" lon="-1.0944557151730745"><ele>155.0</ele><time>2026-04-29T11:17:34Z</time></trkpt><trkpt lat="43.23164434645095" lon="-1.094526540720376"><ele>155.5</ele><time>2026-04-29T11:17:35Z</time></trkpt><trkpt lat="43.23167896926246" lon="-1.0945988289551094"><ele>156.0</ele><time>2026-04-29T11:17:36Z</time></trkpt><trkpt lat="43.23175249321094" lon="-1.0947362209411968"><ele>156.5</ele><time>2026-04-29T11:17:38Z</time></trkpt><trkpt lat="43.231803984558056" lon="-1.0948652307385527"><ele>157.0</ele><time>2026-04-29T11:17:40Z</time></trkpt><trkpt lat="43.23185508203078" lon="-1.0949492541329702"><ele>157.0</ele><time>2026-04-29T11:17:42Z</time></trkpt><trkpt lat="43.23190026770671" lon="-1.0950304283479069"><ele>157.0</ele><time>2026-04-29T11:17:45Z</time></trkpt><trkpt lat="43.23196518606963" lon="-1.095151935897333"><ele>157.0</ele><time>2026-04-29T11:20:26Z</time></trkpt><trkpt lat="43.2320301458362" lon="-1.0952297322899864"><ele>157.0</ele><time>2026-04-29T11:20:28Z</time></trkpt><trkpt lat="43.23213063380027" lon="-1.0953251337168939"><ele>157.0</ele><time>2026-04-29T11:20:30Z</time></trkpt><trkpt lat="43.232189521608234" lon="-1.0953769196117875"><ele>157.0</ele><time>2026-04-29T11:20:31Z</time></trkpt><trkpt lat="43.23229431037255" lon="-1.0954683454374645"><ele>157.0</ele><time>2026-04-29T11:20:32Z</time></trkpt><trkpt lat="43.23235815647414" lon="-1.0955232333388776"><ele>157.0</ele><time>2026-04-29T11:20:33Z</time></trkpt><trkpt lat="43.2324162246502" lon="-1.0955816736859312"><ele>157.0</ele><time>2026-04-29T11:20:34Z</time></trkpt><trkpt lat="43.23247303647509" lon="-1.0956274251807294"><ele>157.0</ele><time>2026-04-29T11:20:35Z</time></trkpt><trkpt lat="43.232571251338875" lon="-1.0957130346995845"><ele>157.5</ele><time>2026-04-29T11:20:37Z</time></trkpt><trkpt lat="43.232658530258455" lon="-1.095789572947433"><ele>158.0</ele><time>2026-04-29T11:20:39Z</time></trkpt><trkpt lat="43.23272315313774" lon="-1.0958483254942482"><ele>158.5</ele><time>2026-04-29T11:20:41Z</time></trkpt><trkpt lat="43.23277416508775" lon="-1.095899201629579"><ele>159.0</ele><time>2026-04-29T11:20:44Z</time></trkpt><trkpt lat="43.232846903854" lon="-1.0959432545453631"><ele>159.5</ele><time>2026-04-29T11:20:47Z</time></trkpt><trkpt lat="43.23280303289358" lon="-1.0960128423072732"><ele>160.0</ele><time>2026-04-29T11:24:34Z</time></trkpt><trkpt lat="43.23284284507733" lon="-1.0960841528230123"><ele>160.0</ele><time>2026-04-29T11:24:45Z</time></trkpt><trkpt lat="43.23289064651966" lon="-1.0961554827978397"><ele>160.0</ele><time>2026-04-29T11:29:24Z</time></trkpt><trkpt lat="43.23293581183922" lon="-1.0960390070576742"><ele>160.0</ele><time>2026-04-29T11:29:38Z</time></trkpt><trkpt lat="43.23292664817846" lon="-1.095945778152128"><ele>160.0</ele><time>2026-04-29T11:29:39Z</time></trkpt><trkpt lat="43.23290694482668" lon="-1.0958405370050188"><ele>160.0</ele><time>2026-04-29T11:29:41Z</time></trkpt><trkpt lat="43.23287136482413" lon="-1.0962540738484507"><ele>160.0</ele><time>2026-04-29T11:29:48Z</time></trkpt><trkpt lat="43.232760479447286" lon="-1.096254835970454"><ele>160.0</ele><time>2026-04-29T11:30:03Z</time></trkpt><trkpt lat="43.232869914210646" lon="-1.0961156335984457"><ele>160.0</ele><time>2026-04-29T11:30:19.442Z</time></trkpt><trkpt lat="43.23276682127992" lon="-1.0960372530918319"><ele>160.0</ele><time>2026-04-29T11:30:25.44Z</time></trkpt><trkpt lat="43.23281475721079" lon="-1.0961025632961399"><ele>160.0</ele><time>2026-04-29T11:31:58Z</time></trkpt><trkpt lat="43.23262100956078" lon="-1.0963284134992637"><ele>160.0</ele><time>2026-04-29T11:32:46Z</time></trkpt><trkpt lat="43.23272010874518" lon="-1.096261532164419"><ele>160.0</ele><time>2026-04-29T11:33:04Z</time></trkpt><trkpt lat="43.232903375575425" lon="-1.0962103596434165"><ele>160.0</ele><time>2026-04-29T11:34:57.014Z</time></trkpt></trkseg><trkseg><trkpt lat="43.23293535610581" lon="-1.0960486955210937"><ele>160.0</ele><time>2026-04-29T13:23:35Z</time></trkpt><trkpt lat="43.23299045089911" lon="-1.0961068355952657"><ele>160.0</ele><time>2026-04-29T13:23:37Z</time></trkpt><trkpt lat="43.233054469189064" lon="-1.0961672265729812"><ele>160.0</ele><time>2026-04-29T13:23:39Z</time></trkpt><trkpt lat="43.233121764882135" lon="-1.0961809775632507"><ele>160.0</ele><time>2026-04-29T13:23:41Z</time></trkpt><trkpt lat="43.23321185902761" lon="-1.096131328791477"><ele>160.0</ele><time>2026-04-29T13:23:51.001Z</time></trkpt><trkpt lat="43.23330404218484" lon="-1.096108690497315"><ele>160.0</ele><time>2026-04-29T13:23:53.001Z</time></trkpt><trkpt lat="43.2333952082955" lon="-1.096192874191769"><ele>160.0</ele><time>2026-04-29T13:23:55.001Z</time></trkpt><trkpt lat="43.233422170467556" lon="-1.0963462586508346"><ele>160.0</ele><time>2026-04-29T13:23:57.001Z</time></trkpt><trkpt lat="43.23340384324106" lon="-1.096432895773131"><ele>160.0</ele><time>2026-04-29T13:23:58.001Z</time></trkpt><trkpt lat="43.23337255586067" lon="-1.0965110636514803"><ele>160.0</ele><time>2026-04-29T13:23:59.001Z</time></trkpt><trkpt lat="43.23331940301519" lon="-1.0965715744583913"><ele>160.0</ele><time>2026-04-29T13:24:00.001Z</time></trkpt><trkpt lat="43.23325585761336" lon="-1.096618403440546"><ele>160.0</ele><time>2026-04-29T13:24:01.001Z</time></trkpt><trkpt lat="43.23319198820103" lon="-1.096658294233964"><ele>159.5</ele><time>2026-04-29T13:24:02.001Z</time></trkpt><trkpt lat="43.23312947861701" lon="-1.0966975056630652"><ele>159.0</ele><time>2026-04-29T13:24:03.001Z</time></trkpt><trkpt lat="43.23306865703264" lon="-1.0967426356785257"><ele>158.5</ele><time>2026-04-29T13:24:04.001Z</time></trkpt><trkpt lat="43.233007019652284" lon="-1.0967951901587136"><ele>158.0</ele><time>2026-04-29T13:24:05.001Z</time></trkpt><trkpt lat="43.23294566520726" lon="-1.096859318412391"><ele>157.5</ele><time>2026-04-29T13:24:06.001Z</time></trkpt><trkpt lat="43.23288590169703" lon="-1.0969305946260706"><ele>157.0</ele><time>2026-04-29T13:24:07.001Z</time></trkpt><trkpt lat="43.2328240449157" lon="-1.0970118736675931"><ele>157.0</ele><time>2026-04-29T13:24:08.001Z</time></trkpt><trkpt lat="43.23276979450242" lon="-1.0971058033478462"><ele>157.0</ele><time>2026-04-29T13:24:09.001Z</time></trkpt><trkpt lat="43.23271308445706" lon="-1.0971954819609493"><ele>157.0</ele><time>2026-04-29T13:24:10.001Z</time></trkpt><trkpt lat="43.23265648162483" lon="-1.0972894885852589"><ele>157.0</ele><time>2026-04-29T13:24:11.001Z</time></trkpt><trkpt lat="43.232598486755755" lon="-1.0973902798583355"><ele>157.0</ele><time>2026-04-29T13:24:12.001Z</time></trkpt><trkpt lat="43.23253840705908" lon="-1.0974886897581377"><ele>156.4</ele><time>2026-04-29T13:24:13.001Z</time></trkpt><trkpt lat="43.23247982411346" lon="-1.0975910362058414"><ele>155.79999999999998</ele><time>2026-04-29T13:24:14.001Z</time></trkpt><trkpt lat="43.23242702410357" lon="-1.0976979184375246"><ele>155.2</ele><time>2026-04-29T13:24:15.001Z</time></trkpt><trkpt lat="43.23237241377018" lon="-1.097802658601696"><ele>154.6</ele><time>2026-04-29T13:24:16.001Z</time></trkpt><trkpt lat="43.23231894159367" lon="-1.0979099446015477"><ele>154.0</ele><time>2026-04-29T13:24:17.001Z</time></trkpt><trkpt lat="43.2322659586243" lon="-1.0980145596885016"><ele>153.83333333333334</ele><time>2026-04-29T13:24:18.001Z</time></trkpt><trkpt lat="43.23220996317724" lon="-1.098116316698044"><ele>153.66666666666669</ele><time>2026-04-29T13:24:19.001Z</time></trkpt><trkpt lat="43.23215647403647" lon="-1.0982146788009892"><ele>153.5</ele><time>2026-04-29T13:24:20.001Z</time></trkpt><trkpt lat="43.23210529063367" lon="-1.0983177042063053"><ele>153.33333333333334</ele><time>2026-04-29T13:24:21.001Z</time></trkpt><trkpt lat="43.2320544163667" lon="-1.0984165429276413"><ele>153.16666666666666</ele><time>2026-04-29T13:24:22.001Z</time></trkpt><trkpt lat="43.2320043047408" lon="-1.0985115964049266"><ele>153.0</ele><time>2026-04-29T13:24:23.001Z</time></trkpt><trkpt lat="43.23195498580901" lon="-1.0986117625718144"><ele>153.5</ele><time>2026-04-29T13:24:24.001Z</time></trkpt><trkpt lat="43.23190439726985" lon="-1.0987043426085956"><ele>154.0</ele><time>2026-04-29T13:24:25.001Z</time></trkpt><trkpt lat="43.231856486998986" lon="-1.0987993958712272"><ele>154.5</ele><time>2026-04-29T13:24:26.001Z</time></trkpt><trkpt lat="43.23180600661786" lon="-1.0988937429893775"><ele>155.0</ele><time>2026-04-29T13:24:27.001Z</time></trkpt><trkpt lat="43.231756585961186" lon="-1.0989875307478996"><ele>155.5</ele><time>2026-04-29T13:24:28.001Z</time></trkpt><trkpt lat="43.231708213055896" lon="-1.0990828739223997"><ele>156.0</ele><time>2026-04-29T13:24:29.001Z</time></trkpt><trkpt lat="43.23166244329263" lon="-1.0991752907883512"><ele>156.83333333333334</ele><time>2026-04-29T13:24:30.001Z</time></trkpt><trkpt lat="43.23161063545008" lon="-1.0992714525771305"><ele>157.66666666666666</ele><time>2026-04-29T13:24:31.001Z</time></trkpt><trkpt lat="43.231565141535896" lon="-1.0993649600963062"><ele>158.5</ele><time>2026-04-29T13:24:32.001Z</time></trkpt><trkpt lat="43.231512618947875" lon="-1.0994598489540133"><ele>159.33333333333331</ele><time>2026-04-29T13:24:33.001Z</time></trkpt><trkpt lat="43.23146045187384" lon="-1.0995538693973503"><ele>160.16666666666666</ele><time>2026-04-29T13:24:34.001Z</time></trkpt><trkpt lat="43.2314138517553" lon="-1.0996512294355658"><ele>161.0</ele><time>2026-04-29T13:24:35.001Z</time></trkpt><trkpt lat="43.23136208446181" lon="-1.0997475158369787"><ele>161.20000000000002</ele><time>2026-04-29T13:24:36Z</time></trkpt><trkpt lat="43.231311141182935" lon="-1.0998492331662946"><ele>161.4</ele><time>2026-04-29T13:24:37Z</time></trkpt><trkpt lat="43.23126258546169" lon="-1.0999488250564682"><ele>161.6</ele><time>2026-04-29T13:24:38Z</time></trkpt><trkpt lat="43.231210433766904" lon="-1.1000487473747633"><ele>161.8</ele><time>2026-04-29T13:24:39Z</time></trkpt><trkpt lat="43.23115730331329" lon="-1.1001517969646568"><ele>162.0</ele><time>2026-04-29T13:24:40Z</time></trkpt><trkpt lat="43.231101240956136" lon="-1.1002532207189621"><ele>162.8</ele><time>2026-04-29T13:24:41Z</time></trkpt><trkpt lat="43.23104819409434" lon="-1.100357366922205"><ele>163.6</ele><time>2026-04-29T13:24:42Z</time></trkpt><trkpt lat="43.230991842087235" lon="-1.1004557555431254"><ele>164.4</ele><time>2026-04-29T13:24:43Z</time></trkpt><trkpt lat="43.230936369689616" lon="-1.100560591500302"><ele>165.20000000000002</ele><time>2026-04-29T13:24:44Z</time></trkpt><trkpt lat="43.23087928845831" lon="-1.1006713008225817"><ele>166.0</ele><time>2026-04-29T13:24:45Z</time></trkpt><trkpt lat="43.23082703966582" lon="-1.1007817126434953"><ele>166.4</ele><time>2026-04-29T13:24:46Z</time></trkpt><trkpt lat="43.23077378056288" lon="-1.1008888900461433"><ele>166.8</ele><time>2026-04-29T13:24:47Z</time></trkpt><trkpt lat="43.23071596668438" lon="-1.1009952802669196"><ele>167.20000000000002</ele><time>2026-04-29T13:24:48Z</time></trkpt><trkpt lat="43.23065998728974" lon="-1.1011024138620236"><ele>167.60000000000002</ele><time>2026-04-29T13:24:49Z</time></trkpt><trkpt lat="43.23060635243062" lon="-1.1012045162419037"><ele>168.0</ele><time>2026-04-29T13:24:50Z</time></trkpt><trkpt lat="43.23054854815328" lon="-1.1013112137731342"><ele>168.0</ele><time>2026-04-29T13:24:51Z</time></trkpt><trkpt lat="43.23049337856654" lon="-1.1014126193138527"><ele>168.0</ele><time>2026-04-29T13:24:52Z</time></trkpt><trkpt lat="43.230435191044464" lon="-1.1015222401215619"><ele>168.0</ele><time>2026-04-29T13:24:53Z</time></trkpt><trkpt lat="43.230375972373615" lon="-1.1016290005530929"><ele>168.0</ele><time>2026-04-29T13:24:54Z</time></trkpt><trkpt lat="43.23031416645844" lon="-1.101741051186396"><ele>168.0</ele><time>2026-04-29T13:24:55Z</time></trkpt><trkpt lat="43.230251184373216" lon="-1.101849037922854"><ele>168.2</ele><time>2026-04-29T13:24:56Z</time></trkpt><trkpt lat="43.23018646516111" lon="-1.1019555322930843"><ele>168.4</ele><time>2026-04-29T13:24:57Z</time></trkpt><trkpt lat="43.23011729448029" lon="-1.1020644698190543"><ele>168.6</ele><time>2026-04-29T13:24:58Z</time></trkpt><trkpt lat="43.23005011185902" lon="-1.1021758521890392"><ele>168.79999999999998</ele><time>2026-04-29T13:24:59Z</time></trkpt><trkpt lat="43.22998150995781" lon="-1.1022832755155771"><ele>169.0</ele><time>2026-04-29T13:25:00Z</time></trkpt><trkpt lat="43.22991169660579" lon="-1.102394310303515"><ele>168.0</ele><time>2026-04-29T13:25:01Z</time></trkpt><trkpt lat="43.22984125399938" lon="-1.1025073426759846"><ele>167.0</ele><time>2026-04-29T13:25:02Z</time></trkpt><trkpt lat="43.22976922230378" lon="-1.1026268108693877"><ele>166.0</ele><time>2026-04-29T13:25:03Z</time></trkpt><trkpt lat="43.22969889978563" lon="-1.1027414964286808"><ele>165.0</ele><time>2026-04-29T13:25:04Z</time></trkpt><trkpt lat="43.22963016928464" lon="-1.1028622710585771"><ele>164.0</ele><time>2026-04-29T13:25:05Z</time></trkpt><trkpt lat="43.22956035813082" lon="-1.1029804278293025"><ele>163.75</ele><time>2026-04-29T13:25:06Z</time></trkpt><trkpt lat="43.22948961213577" lon="-1.1031032863825545"><ele>163.5</ele><time>2026-04-29T13:25:07Z</time></trkpt><trkpt lat="43.22942211084247" lon="-1.1032265446166445"><ele>163.25</ele><time>2026-04-29T13:25:08Z</time></trkpt><trkpt lat="43.2293543229658" lon="-1.103354608327597"><ele>163.0</ele><time>2026-04-29T13:25:09Z</time></trkpt><trkpt lat="43.22928762788836" lon="-1.1034787218548843"><ele>162.25</ele><time>2026-04-29T13:25:10Z</time></trkpt><trkpt lat="43.229217991001455" lon="-1.1036050271766957"><ele>161.5</ele><time>2026-04-29T13:25:11Z</time></trkpt><trkpt lat="43.229147815345065" lon="-1.103727413240138"><ele>160.75</ele><time>2026-04-29T13:25:12Z</time></trkpt><trkpt lat="43.229082060918" lon="-1.1038524880865774"><ele>160.0</ele><time>2026-04-29T13:25:13Z</time></trkpt><trkpt lat="43.22901937215145" lon="-1.1039755672306812"><ele>158.4</ele><time>2026-04-29T13:25:14Z</time></trkpt><trkpt lat="43.22895302477105" lon="-1.1040971540389164"><ele>156.8</ele><time>2026-04-29T13:25:15Z</time></trkpt><trkpt lat="43.22888574547686" lon="-1.1042194226767996"><ele>155.2</ele><time>2026-04-29T13:25:16Z</time></trkpt><trkpt lat="43.228816564428094" lon="-1.104338337637675"><ele>153.6</ele><time>2026-04-29T13:25:17Z</time></trkpt><trkpt lat="43.22875569581795" lon="-1.1044608114859458"><ele>152.0</ele><time>2026-04-29T13:25:18Z</time></trkpt><trkpt lat="43.22869050876553" lon="-1.1045827468802305"><ele>152.0</ele><time>2026-04-29T13:25:19Z</time></trkpt><trkpt lat="43.22862446544066" lon="-1.1047034402566804"><ele>152.0</ele><time>2026-04-29T13:25:20Z</time></trkpt><trkpt lat="43.2285577489019" lon="-1.104819193953137"><ele>152.0</ele><time>2026-04-29T13:25:21Z</time></trkpt><trkpt lat="43.22849819572385" lon="-1.1049452577940337"><ele>152.0</ele><time>2026-04-29T13:25:22Z</time></trkpt><trkpt lat="43.22843371159403" lon="-1.1050615455967179"><ele>152.0</ele><time>2026-04-29T13:25:23Z</time></trkpt><trkpt lat="43.22837166192487" lon="-1.1051808860405872"><ele>151.79999999999998</ele><time>2026-04-29T13:25:24Z</time></trkpt><trkpt lat="43.228308732399036" lon="-1.1052999364707976"><ele>151.6</ele><time>2026-04-29T13:25:25Z</time></trkpt><trkpt lat="43.22824310753753" lon="-1.1054127454352178"><ele>151.39999999999998</ele><time>2026-04-29T13:25:26Z</time></trkpt><trkpt lat="43.22818263400674" lon="-1.105530702413306"><ele>151.2</ele><time>2026-04-29T13:25:27Z</time></trkpt><trkpt lat="43.22812319906979" lon="-1.1056517063972109"><ele>151.0</ele><time>2026-04-29T13:25:28Z</time></trkpt><trkpt lat="43.22806237171933" lon="-1.1057656977255623"><ele>151.8</ele><time>2026-04-29T13:25:29Z</time></trkpt><trkpt lat="43.22799985708338" lon="-1.105882967270505"><ele>152.6</ele><time>2026-04-29T13:25:30.001Z</time></trkpt><trkpt lat="43.22793942529994" lon="-1.1060004760950712"><ele>153.4</ele><time>2026-04-29T13:25:31.001Z</time></trkpt><trkpt lat="43.22787808782461" lon="-1.1061161325729751"><ele>154.2</ele><time>2026-04-29T13:25:32.001Z</time></trkpt><trkpt lat="43.22781798869151" lon="-1.1062283908630515"><ele>155.0</ele><time>2026-04-29T13:25:33.001Z</time></trkpt><trkpt lat="43.22775907584896" lon="-1.1063455569216127"><ele>155.0</ele><time>2026-04-29T13:25:34.001Z</time></trkpt><trkpt lat="43.22769976408226" lon="-1.106459246821816"><ele>155.0</ele><time>2026-04-29T13:25:35.001Z</time></trkpt><trkpt lat="43.22763936232461" lon="-1.1065745810487815"><ele>155.0</ele><time>2026-04-29T13:25:36.001Z</time></trkpt><trkpt lat="43.227577951467225" lon="-1.1066882607203101"><ele>155.0</ele><time>2026-04-29T13:25:37.001Z</time></trkpt><trkpt lat="43.227515223459434" lon="-1.1068044194756135"><ele>155.0</ele><time>2026-04-29T13:25:38.001Z</time></trkpt><trkpt lat="43.22745505884937" lon="-1.1069210216366765"><ele>155.2</ele><time>2026-04-29T13:25:39.001Z</time></trkpt><trkpt lat="43.227394776247" lon="-1.1070345878092651"><ele>155.4</ele><time>2026-04-29T13:25:40.001Z</time></trkpt><trkpt lat="43.227331267256595" lon="-1.1071506473746426"><ele>155.6</ele><time>2026-04-29T13:25:41.001Z</time></trkpt><trkpt lat="43.227271122461005" lon="-1.1072681204353338"><ele>155.8</ele><time>2026-04-29T13:25:42.001Z</time></trkpt><trkpt lat="43.22720786604608" lon="-1.10738818339961"><ele>156.0</ele><time>2026-04-29T13:25:43.001Z</time></trkpt><trkpt lat="43.22714515417886" lon="-1.1075030613155261"><ele>155.6</ele><time>2026-04-29T13:25:44.001Z</time></trkpt><trkpt lat="43.227082212085804" lon="-1.1076189565330834"><ele>155.2</ele><time>2026-04-29T13:25:45.001Z</time></trkpt><trkpt lat="43.22701981199098" lon="-1.1077348873493393"><ele>154.8</ele><time>2026-04-29T13:25:46.001Z</time></trkpt><trkpt lat="43.22695747929383" lon="-1.10784886576892"><ele>154.4</ele><time>2026-04-29T13:25:47.001Z</time></trkpt><trkpt lat="43.2268966929417" lon="-1.1079638228468567"><ele>154.0</ele><time>2026-04-29T13:25:48.001Z</time></trkpt><trkpt lat="43.226836116946494" lon="-1.1080796904324688"><ele>154.0</ele><time>2026-04-29T13:25:49.001Z</time></trkpt><trkpt lat="43.22677428566518" lon="-1.1081948197038216"><ele>154.0</ele><time>2026-04-29T13:25:50.001Z</time></trkpt><trkpt lat="43.226712019881504" lon="-1.1083121973835202"><ele>154.0</ele><time>2026-04-29T13:25:51.001Z</time></trkpt><trkpt lat="43.226652153048875" lon="-1.10842796874676"><ele>154.0</ele><time>2026-04-29T13:25:52.001Z</time></trkpt><trkpt lat="43.22659121736747" lon="-1.1085425364692953"><ele>154.0</ele><time>2026-04-29T13:25:53.001Z</time></trkpt><trkpt lat="43.22653205956656" lon="-1.1086577084717573"><ele>154.0</ele><time>2026-04-29T13:25:54.001Z</time></trkpt><trkpt lat="43.22647264645703" lon="-1.10877194671226"><ele>154.0</ele><time>2026-04-29T13:25:55.001Z</time></trkpt><trkpt lat="43.2264119766653" lon="-1.1088854695627193"><ele>154.0</ele><time>2026-04-29T13:25:56.001Z</time></trkpt><trkpt lat="43.22635253163578" lon="-1.10899953185982"><ele>154.0</ele><time>2026-04-29T13:25:57.001Z</time></trkpt><trkpt lat="43.22629264987505" lon="-1.1091144134673374"><ele>154.0</ele><time>2026-04-29T13:25:58.001Z</time></trkpt><trkpt lat="43.226233028145295" lon="-1.109227223853748"><ele>154.0</ele><time>2026-04-29T13:25:59.001Z</time></trkpt><trkpt lat="43.226174437042935" lon="-1.1093428239183465"><ele>154.0</ele><time>2026-04-29T13:26:00.001Z</time></trkpt><trkpt lat="43.22611765496481" lon="-1.1094611603411302"><ele>154.0</ele><time>2026-04-29T13:26:01.001Z</time></trkpt><trkpt lat="43.22605948170986" lon="-1.1095788922175767"><ele>154.0</ele><time>2026-04-29T13:26:02.001Z</time></trkpt><trkpt lat="43.226001691270966" lon="-1.1096946422406988"><ele>154.0</ele><time>2026-04-29T13:26:03.001Z</time></trkpt><trkpt lat="43.2259409195848" lon="-1.1098095157989074"><ele>155.0</ele><time>2026-04-29T13:26:04.001Z</time></trkpt><trkpt lat="43.22588158460705" lon="-1.1099237494937644"><ele>156.0</ele><time>2026-04-29T13:26:05.001Z</time></trkpt><trkpt lat="43.22582378845459" lon="-1.1100350652441433"><ele>157.0</ele><time>2026-04-29T13:26:06.001Z</time></trkpt><trkpt lat="43.22576338159566" lon="-1.1101450285371741"><ele>158.0</ele><time>2026-04-29T13:26:07.001Z</time></trkpt><trkpt lat="43.22570498011782" lon="-1.1102615668513471"><ele>159.0</ele><time>2026-04-29T13:26:08.001Z</time></trkpt><trkpt lat="43.225647282755084" lon="-1.110375388514358"><ele>158.2</ele><time>2026-04-29T13:26:09.001Z</time></trkpt><trkpt lat="43.22558988252361" lon="-1.1104864687090614"><ele>157.4</ele><time>2026-04-29T13:26:10.001Z</time></trkpt><trkpt lat="43.22552899271922" lon="-1.1106010616815587"><ele>156.6</ele><time>2026-04-29T13:26:11.001Z</time></trkpt><trkpt lat="43.225473910314456" lon="-1.1107103913121092"><ele>155.8</ele><time>2026-04-29T13:26:12.001Z</time></trkpt><trkpt lat="43.22541751789964" lon="-1.1108202424853864"><ele>155.0</ele><time>2026-04-29T13:26:13.001Z</time></trkpt><trkpt lat="43.22536063339477" lon="-1.1109275069331475"><ele>155.0</ele><time>2026-04-29T13:26:14.001Z</time></trkpt><trkpt lat="43.225305233003546" lon="-1.1110326678292728"><ele>155.0</ele><time>2026-04-29T13:26:15.001Z</time></trkpt><trkpt lat="43.225250888592456" lon="-1.1111408992453087"><ele>155.0</ele><time>2026-04-29T13:26:16.001Z</time></trkpt><trkpt lat="43.2251964508291" lon="-1.1112485012697677"><ele>155.0</ele><time>2026-04-29T13:26:17.001Z</time></trkpt><trkpt lat="43.22514428770459" lon="-1.1113565056172134"><ele>155.0</ele><time>2026-04-29T13:26:18.001Z</time></trkpt><trkpt lat="43.22508983362549" lon="-1.111461557360268"><ele>155.0</ele><time>2026-04-29T13:26:19.001Z</time></trkpt><trkpt lat="43.22503478495024" lon="-1.111568776032439"><ele>155.0</ele><time>2026-04-29T13:26:20.001Z</time></trkpt><trkpt lat="43.22498010337972" lon="-1.111676038090207"><ele>155.0</ele><time>2026-04-29T13:26:21.001Z</time></trkpt><trkpt lat="43.22492606815635" lon="-1.1117844779094253"><ele>155.0</ele><time>2026-04-29T13:26:22.001Z</time></trkpt><trkpt lat="43.22487427087581" lon="-1.1118932255457956"><ele>155.0</ele><time>2026-04-29T13:26:23.001Z</time></trkpt><trkpt lat="43.22482274396746" lon="-1.1120028048340294"><ele>155.4</ele><time>2026-04-29T13:26:24.001Z</time></trkpt><trkpt lat="43.22477258698835" lon="-1.1121110575664452"><ele>155.8</ele><time>2026-04-29T13:26:25.001Z</time></trkpt><trkpt lat="43.224721723244166" lon="-1.112218190039306"><ele>156.2</ele><time>2026-04-29T13:26:26.001Z</time></trkpt><trkpt lat="43.224670609948035" lon="-1.1123294159209156"><ele>156.6</ele><time>2026-04-29T13:26:27.001Z</time></trkpt><trkpt lat="43.22462046165905" lon="-1.112439660866295"><ele>157.0</ele><time>2026-04-29T13:26:28.001Z</time></trkpt><trkpt lat="43.224569827468756" lon="-1.1125493268618887"><ele>157.6</ele><time>2026-04-29T13:26:29.001Z</time></trkpt><trkpt lat="43.22451798755688" lon="-1.1126599023340447"><ele>158.2</ele><time>2026-04-29T13:26:30.001Z</time></trkpt><trkpt lat="43.22446610802182" lon="-1.1127663616398864"><ele>158.8</ele><time>2026-04-29T13:26:31.001Z</time></trkpt><trkpt lat="43.22441204306213" lon="-1.112870679810633"><ele>159.4</ele><time>2026-04-29T13:26:32.001Z</time></trkpt><trkpt lat="43.22435586621655" lon="-1.1129754236678167"><ele>160.0</ele><time>2026-04-29T13:26:33.002Z</time></trkpt><trkpt lat="43.22429886433728" lon="-1.1130827433576629"><ele>160.0</ele><time>2026-04-29T13:26:34.002Z</time></trkpt><trkpt lat="43.224243419612684" lon="-1.1131921420318613"><ele>160.0</ele><time>2026-04-29T13:26:35.002Z</time></trkpt><trkpt lat="43.22418905644233" lon="-1.113299685071096"><ele>160.0</ele><time>2026-04-29T13:26:36.002Z</time></trkpt><trkpt lat="43.224133048816256" lon="-1.1134086527888616"><ele>160.0</ele><time>2026-04-29T13:26:37.002Z</time></trkpt><trkpt lat="43.224076122250615" lon="-1.1135172488256608"><ele>160.0</ele><time>2026-04-29T13:26:38.002Z</time></trkpt><trkpt lat="43.22401790699637" lon="-1.1136272196965202"><ele>160.2</ele><time>2026-04-29T13:26:39.002Z</time></trkpt><trkpt lat="43.22395826888699" lon="-1.1137386348837333"><ele>160.4</ele><time>2026-04-29T13:26:40.002Z</time></trkpt><trkpt lat="43.22390146309858" lon="-1.113850561531534"><ele>160.60000000000002</ele><time>2026-04-29T13:26:41.002Z</time></trkpt><trkpt lat="43.22384288018683" lon="-1.1139598795452694"><ele>160.8</ele><time>2026-04-29T13:26:42Z</time></trkpt><trkpt lat="43.2237841477554" lon="-1.1140720596802316"><ele>161.0</ele><time>2026-04-29T13:26:43Z</time></trkpt><trkpt lat="43.22372470083303" lon="-1.1141838180138766"><ele>161.20000000000002</ele><time>2026-04-29T13:26:44Z</time></trkpt><trkpt lat="43.22366758040471" lon="-1.1142946022539055"><ele>161.4</ele><time>2026-04-29T13:26:45Z</time></trkpt><trkpt lat="43.2236086620082" lon="-1.1144045963749145"><ele>161.6</ele><time>2026-04-29T13:26:46Z</time></trkpt><trkpt lat="43.22354784353522" lon="-1.1145170726268336"><ele>161.8</ele><time>2026-04-29T13:26:47Z</time></trkpt><trkpt lat="43.22348957893432" lon="-1.1146306948960547"><ele>162.0</ele><time>2026-04-29T13:26:48Z</time></trkpt><trkpt lat="43.22343191502081" lon="-1.1147418699814307"><ele>162.0</ele><time>2026-04-29T13:26:49Z</time></trkpt><trkpt lat="43.223373399080394" lon="-1.1148512116959068"><ele>162.0</ele><time>2026-04-29T13:26:50Z</time></trkpt><trkpt lat="43.223313282425494" lon="-1.1149640018976434"><ele>162.0</ele><time>2026-04-29T13:26:51Z</time></trkpt><trkpt lat="43.22325358158624" lon="-1.1150775864209668"><ele>162.0</ele><time>2026-04-29T13:26:52Z</time></trkpt><trkpt lat="43.22319332291378" lon="-1.1151897321717152"><ele>162.0</ele><time>2026-04-29T13:26:53Z</time></trkpt><trkpt lat="43.2231380947439" lon="-1.1153035571930916"><ele>162.0</ele><time>2026-04-29T13:26:54Z</time></trkpt><trkpt lat="43.223082110402935" lon="-1.1154131861558887"><ele>162.0</ele><time>2026-04-29T13:26:55Z</time></trkpt><trkpt lat="43.22302464352056" lon="-1.1155214571382763"><ele>162.0</ele><time>2026-04-29T13:26:56Z</time></trkpt><trkpt lat="43.22296485121658" lon="-1.1156332973038123"><ele>162.0</ele><time>2026-04-29T13:26:57Z</time></trkpt><trkpt lat="43.222906776160094" lon="-1.1157432313901587"><ele>162.0</ele><time>2026-04-29T13:26:58Z</time></trkpt><trkpt lat="43.22284779877369" lon="-1.1158522033031237"><ele>162.0</ele><time>2026-04-29T13:26:59Z</time></trkpt><trkpt lat="43.22278475329292" lon="-1.1159622218588001"><ele>162.0</ele><time>2026-04-29T13:27:00Z</time></trkpt><trkpt lat="43.222723103281446" lon="-1.1160721706478913"><ele>162.0</ele><time>2026-04-29T13:27:01Z</time></trkpt><trkpt lat="43.22266434894523" lon="-1.1161838287330106"><ele>162.0</ele><time>2026-04-29T13:27:02Z</time></trkpt><trkpt lat="43.222605006647036" lon="-1.1162940712058764"><ele>162.0</ele><time>2026-04-29T13:27:03Z</time></trkpt><trkpt lat="43.22254539602087" lon="-1.1164061633888547"><ele>162.0</ele><time>2026-04-29T13:27:04Z</time></trkpt><trkpt lat="43.222487074897614" lon="-1.116516957565489"><ele>162.0</ele><time>2026-04-29T13:27:05Z</time></trkpt><trkpt lat="43.222427842894994" lon="-1.116625960475526"><ele>162.0</ele><time>2026-04-29T13:27:06Z</time></trkpt><trkpt lat="43.22237003531037" lon="-1.1167403266798486"><ele>162.0</ele><time>2026-04-29T13:27:07Z</time></trkpt><trkpt lat="43.22231075594776" lon="-1.1168502628922379"><ele>162.0</ele><time>2026-04-29T13:27:08Z</time></trkpt><trkpt lat="43.22225177779899" lon="-1.1169617784167498"><ele>162.2</ele><time>2026-04-29T13:27:09Z</time></trkpt><trkpt lat="43.22219024341278" lon="-1.1170723235323954"><ele>162.39999999999998</ele><time>2026-04-29T13:27:10Z</time></trkpt><trkpt lat="43.22213280779909" lon="-1.117183436179528"><ele>162.60000000000002</ele><time>2026-04-29T13:27:11Z</time></trkpt><trkpt lat="43.22207597332638" lon="-1.1172931294732535"><ele>162.8</ele><time>2026-04-29T13:27:12Z</time></trkpt><trkpt lat="43.22201719713779" lon="-1.1174062952590758"><ele>163.0</ele><time>2026-04-29T13:27:13Z</time></trkpt><trkpt lat="43.22196301256837" lon="-1.11751541703439"><ele>163.2</ele><time>2026-04-29T13:27:14Z</time></trkpt><trkpt lat="43.221906937169" lon="-1.1176234381768728"><ele>163.4</ele><time>2026-04-29T13:27:15Z</time></trkpt><trkpt lat="43.22184987184703" lon="-1.1177304561471215"><ele>163.6</ele><time>2026-04-29T13:27:16Z</time></trkpt><trkpt lat="43.22179054806978" lon="-1.1178367784298626"><ele>163.79999999999998</ele><time>2026-04-29T13:27:17Z</time></trkpt><trkpt lat="43.22173408858217" lon="-1.1179478996424965"><ele>164.0</ele><time>2026-04-29T13:27:18Z</time></trkpt><trkpt lat="43.221678189556776" lon="-1.118060365599261"><ele>164.0</ele><time>2026-04-29T13:27:19Z</time></trkpt><trkpt lat="43.221624807382035" lon="-1.118170856532113"><ele>164.0</ele><time>2026-04-29T13:27:20Z</time></trkpt><trkpt lat="43.22157082223262" lon="-1.118277101374665"><ele>164.0</ele><time>2026-04-29T13:27:21Z</time></trkpt><trkpt lat="43.221516426295416" lon="-1.1183792587509334"><ele>164.0</ele><time>2026-04-29T13:27:22Z</time></trkpt><trkpt lat="43.22145814368699" lon="-1.1184786586133157"><ele>164.0</ele><time>2026-04-29T13:27:23Z</time></trkpt><trkpt lat="43.221395821532866" lon="-1.1185779909699356"><ele>164.39999999999998</ele><time>2026-04-29T13:27:24Z</time></trkpt><trkpt lat="43.221331965150966" lon="-1.1186797276559481"><ele>164.8</ele><time>2026-04-29T13:27:25Z</time></trkpt><trkpt lat="43.221269929019414" lon="-1.1187819157298482"><ele>165.2</ele><time>2026-04-29T13:27:26Z</time></trkpt><trkpt lat="43.22120727550115" lon="-1.1188808812199356"><ele>165.60000000000002</ele><time>2026-04-29T13:27:27Z</time></trkpt><trkpt lat="43.22114262943783" lon="-1.1189777963958598"><ele>166.0</ele><time>2026-04-29T13:27:28Z</time></trkpt><trkpt lat="43.221080721791374" lon="-1.1190763615204702"><ele>167.4</ele><time>2026-04-29T13:27:29.001Z</time></trkpt><trkpt lat="43.22101575100607" lon="-1.1191777389918702"><ele>168.8</ele><time>2026-04-29T13:27:30.001Z</time></trkpt><trkpt lat="43.220949037741526" lon="-1.1192807460114935"><ele>170.20000000000002</ele><time>2026-04-29T13:27:31.001Z</time></trkpt><trkpt lat="43.22088709654979" lon="-1.1193832423586663"><ele>171.60000000000002</ele><time>2026-04-29T13:27:32.001Z</time></trkpt><trkpt lat="43.220821925736324" lon="-1.1194834732439058"><ele>173.0</ele><time>2026-04-29T13:27:33.001Z</time></trkpt><trkpt lat="43.22075445273837" lon="-1.1195844521496703"><ele>173.0</ele><time>2026-04-29T13:27:34.001Z</time></trkpt><trkpt lat="43.220688591445736" lon="-1.1196856040490104"><ele>173.0</ele><time>2026-04-29T13:27:35.001Z</time></trkpt><trkpt lat="43.22062342054781" lon="-1.1197872544520318"><ele>173.0</ele><time>2026-04-29T13:27:36.001Z</time></trkpt><trkpt lat="43.22055965114793" lon="-1.119888783835959"><ele>173.0</ele><time>2026-04-29T13:27:37.001Z</time></trkpt><trkpt lat="43.220496604098706" lon="-1.1199904705091182"><ele>173.0</ele><time>2026-04-29T13:27:38.001Z</time></trkpt><trkpt lat="43.22042826451308" lon="-1.1200924872289493"><ele>172.2</ele><time>2026-04-29T13:27:39.001Z</time></trkpt><trkpt lat="43.22036141168483" lon="-1.1201929065168474"><ele>171.4</ele><time>2026-04-29T13:27:40.001Z</time></trkpt><trkpt lat="43.22029458399758" lon="-1.1202936440360027"><ele>170.6</ele><time>2026-04-29T13:27:41.001Z</time></trkpt><trkpt lat="43.22022511550025" lon="-1.12039270764559"><ele>169.79999999999998</ele><time>2026-04-29T13:27:42.001Z</time></trkpt><trkpt lat="43.22015425564039" lon="-1.1204910845025318"><ele>169.0</ele><time>2026-04-29T13:27:43.001Z</time></trkpt><trkpt lat="43.22008327527919" lon="-1.120588309831664"><ele>169.0</ele><time>2026-04-29T13:27:44.001Z</time></trkpt><trkpt lat="43.22001154266358" lon="-1.1206849557072767"><ele>169.0</ele><time>2026-04-29T13:27:45.001Z</time></trkpt><trkpt lat="43.21993784590868" lon="-1.1207806245628853"><ele>169.0</ele><time>2026-04-29T13:27:46.001Z</time></trkpt><trkpt lat="43.219860493614135" lon="-1.1208712799728533"><ele>169.0</ele><time>2026-04-29T13:27:47.001Z</time></trkpt><trkpt lat="43.21978047411311" lon="-1.1209630927900376"><ele>169.0</ele><time>2026-04-29T13:27:48.001Z</time></trkpt><trkpt lat="43.2197010214492" lon="-1.1210544511591984"><ele>169.2</ele><time>2026-04-29T13:27:49.001Z</time></trkpt><trkpt lat="43.219621968920926" lon="-1.1211435440323805"><ele>169.39999999999998</ele><time>2026-04-29T13:27:50.001Z</time></trkpt><trkpt lat="43.21954385788428" lon="-1.1212331912134084"><ele>169.6</ele><time>2026-04-29T13:27:51.001Z</time></trkpt><trkpt lat="43.21946912521388" lon="-1.1213204767373268"><ele>169.8</ele><time>2026-04-29T13:27:52.001Z</time></trkpt><trkpt lat="43.21939581251436" lon="-1.1214073819917403"><ele>170.0</ele><time>2026-04-29T13:27:53.001Z</time></trkpt><trkpt lat="43.21932281326744" lon="-1.1214918653565116"><ele>170.4</ele><time>2026-04-29T13:27:54.001Z</time></trkpt><trkpt lat="43.219246775520205" lon="-1.1215781456806115"><ele>170.8</ele><time>2026-04-29T13:27:55.001Z</time></trkpt><trkpt lat="43.21917278742909" lon="-1.12166765440644"><ele>171.2</ele><time>2026-04-29T13:27:56.001Z</time></trkpt><trkpt lat="43.21909992851391" lon="-1.1217536097938874"><ele>171.6</ele><time>2026-04-29T13:27:57.001Z</time></trkpt><trkpt lat="43.219029668282666" lon="-1.1218362513066782"><ele>172.0</ele><time>2026-04-29T13:27:58.001Z</time></trkpt><trkpt lat="43.218952694625216" lon="-1.1219149911522204"><ele>172.2</ele><time>2026-04-29T13:27:59.001Z</time></trkpt><trkpt lat="43.21887434096935" lon="-1.1219944064289804"><ele>172.39999999999998</ele><time>2026-04-29T13:28:00.001Z</time></trkpt><trkpt lat="43.21879428433314" lon="-1.122073800124561"><ele>172.60000000000002</ele><time>2026-04-29T13:28:01.001Z</time></trkpt><trkpt lat="43.21871781395549" lon="-1.1221553838296414"><ele>172.8</ele><time>2026-04-29T13:28:02.001Z</time></trkpt><trkpt lat="43.21864332224857" lon="-1.1222355169320406"><ele>173.0</ele><time>2026-04-29T13:28:03.001Z</time></trkpt><trkpt lat="43.21856823366685" lon="-1.1223114123876394"><ele>173.0</ele><time>2026-04-29T13:28:04.001Z</time></trkpt><trkpt lat="43.21849560183324" lon="-1.1223889094998507"><ele>173.0</ele><time>2026-04-29T13:28:05.001Z</time></trkpt><trkpt lat="43.218421093059625" lon="-1.1224632485127206"><ele>173.0</ele><time>2026-04-29T13:28:06.001Z</time></trkpt><trkpt lat="43.218347264404485" lon="-1.1225392927581626"><ele>173.0</ele><time>2026-04-29T13:28:07.001Z</time></trkpt><trkpt lat="43.21827390473141" lon="-1.1226163629606807"><ele>173.0</ele><time>2026-04-29T13:28:08.001Z</time></trkpt><trkpt lat="43.21820047998905" lon="-1.1226919707612302"><ele>173.8</ele><time>2026-04-29T13:28:09.001Z</time></trkpt><trkpt lat="43.21812579271496" lon="-1.1227676740844164"><ele>174.60000000000002</ele><time>2026-04-29T13:28:10.001Z</time></trkpt><trkpt lat="43.21805187479058" lon="-1.1228434074458953"><ele>175.39999999999998</ele><time>2026-04-29T13:28:11.001Z</time></trkpt><trkpt lat="43.21797791003792" lon="-1.1229161852245577"><ele>176.2</ele><time>2026-04-29T13:28:12.001Z</time></trkpt><trkpt lat="43.217904627263636" lon="-1.1229953024375838"><ele>177.0</ele><time>2026-04-29T13:28:13.001Z</time></trkpt><trkpt lat="43.21783249638396" lon="-1.1230713428633377"><ele>177.0</ele><time>2026-04-29T13:28:14.001Z</time></trkpt><trkpt lat="43.21776022099186" lon="-1.1231516813853428"><ele>177.0</ele><time>2026-04-29T13:28:15.001Z</time></trkpt><trkpt lat="43.21768594026917" lon="-1.1232293024407265"><ele>177.0</ele><time>2026-04-29T13:28:16.001Z</time></trkpt><trkpt lat="43.21761179914779" lon="-1.1233045080701336"><ele>177.0</ele><time>2026-04-29T13:28:17.001Z</time></trkpt><trkpt lat="43.21753666590618" lon="-1.1233800205536462"><ele>177.0</ele><time>2026-04-29T13:28:18.001Z</time></trkpt><trkpt lat="43.21745697922195" lon="-1.1234575139440302"><ele>178.0</ele><time>2026-04-29T13:28:19.001Z</time></trkpt><trkpt lat="43.21737746715025" lon="-1.12353477694157"><ele>179.0</ele><time>2026-04-29T13:28:20.001Z</time></trkpt><trkpt lat="43.21729864236374" lon="-1.1236130633284407"><ele>180.0</ele><time>2026-04-29T13:28:21.001Z</time></trkpt><trkpt lat="43.21722257708873" lon="-1.1236938317917975"><ele>181.0</ele><time>2026-04-29T13:28:22.001Z</time></trkpt><trkpt lat="43.217144253164726" lon="-1.12377692256676"><ele>182.0</ele><time>2026-04-29T13:28:23.001Z</time></trkpt><trkpt lat="43.2170656618252" lon="-1.123859638732118"><ele>182.0</ele><time>2026-04-29T13:28:24.001Z</time></trkpt><trkpt lat="43.216981643441066" lon="-1.1239474725837868"><ele>182.0</ele><time>2026-04-29T13:28:25.001Z</time></trkpt><trkpt lat="43.21690032593396" lon="-1.1240309753573468"><ele>182.0</ele><time>2026-04-29T13:28:26.001Z</time></trkpt><trkpt lat="43.21679563677118" lon="-1.1240713560958004"><ele>182.0</ele><time>2026-04-29T13:28:27.001Z</time></trkpt><trkpt lat="43.21667759234465" lon="-1.1242102923067823"><ele>183.39999999999998</ele><time>2026-04-29T13:28:28.001Z</time></trkpt><trkpt lat="43.21655107618522" lon="-1.1243427155163852"><ele>184.79999999999998</ele><time>2026-04-29T13:28:29.001Z</time></trkpt><trkpt lat="43.2165018272574" lon="-1.124442060014833"><ele>186.2</ele><time>2026-04-29T13:28:31.002Z</time></trkpt><trkpt lat="43.21642146017179" lon="-1.1245262553891808"><ele>187.6</ele><time>2026-04-29T13:28:32.002Z</time></trkpt><trkpt lat="43.216342278039036" lon="-1.1246096247055504"><ele>189.0</ele><time>2026-04-29T13:28:33.002Z</time></trkpt><trkpt lat="43.21625894183949" lon="-1.1246891895732969"><ele>189.0</ele><time>2026-04-29T13:28:34.002Z</time></trkpt><trkpt lat="43.216178110170596" lon="-1.1247703720606599"><ele>189.0</ele><time>2026-04-29T13:28:35.002Z</time></trkpt><trkpt lat="43.21609828885846" lon="-1.1248510249970414"><ele>189.0</ele><time>2026-04-29T13:28:36.002Z</time></trkpt><trkpt lat="43.21601902675549" lon="-1.1249327685400503"><ele>189.0</ele><time>2026-04-29T13:28:37.002Z</time></trkpt><trkpt lat="43.21594259346559" lon="-1.1250089035262802"><ele>189.0</ele><time>2026-04-29T13:28:38.002Z</time></trkpt><trkpt lat="43.215865043545975" lon="-1.125089084169248"><ele>190.0</ele><time>2026-04-29T13:28:39.002Z</time></trkpt><trkpt lat="43.215789261480396" lon="-1.1251736903462084"><ele>191.0</ele><time>2026-04-29T13:28:40.002Z</time></trkpt><trkpt lat="43.215712890807666" lon="-1.1252568438877002"><ele>192.0</ele><time>2026-04-29T13:28:41.002Z</time></trkpt><trkpt lat="43.21563713572435" lon="-1.125343385382887"><ele>193.0</ele><time>2026-04-29T13:28:42.002Z</time></trkpt><trkpt lat="43.215560971247" lon="-1.1254331412270946"><ele>194.0</ele><time>2026-04-29T13:28:43.002Z</time></trkpt><trkpt lat="43.2154862227958" lon="-1.125517883185605"><ele>194.2</ele><time>2026-04-29T13:28:44.002Z</time></trkpt><trkpt lat="43.21541583415621" lon="-1.1256124995250592"><ele>194.39999999999998</ele><time>2026-04-29T13:28:45.002Z</time></trkpt><trkpt lat="43.21534956185995" lon="-1.125708065625166"><ele>194.6</ele><time>2026-04-29T13:28:46.002Z</time></trkpt><trkpt lat="43.21528672601069" lon="-1.1258042301634616"><ele>194.8</ele><time>2026-04-29T13:28:47.002Z</time></trkpt><trkpt lat="43.21523256983958" lon="-1.1259106630415996"><ele>195.0</ele><time>2026-04-29T13:28:48Z</time></trkpt><trkpt lat="43.21517822629388" lon="-1.1260165180876875"><ele>195.0</ele><time>2026-04-29T13:28:49Z</time></trkpt><trkpt lat="43.2151301077602" lon="-1.126122401763831"><ele>195.0</ele><time>2026-04-29T13:28:50Z</time></trkpt><trkpt lat="43.215082904746154" lon="-1.1262296421897275"><ele>195.0</ele><time>2026-04-29T13:28:51Z</time></trkpt><trkpt lat="43.2150357179808" lon="-1.126338352907578"><ele>195.0</ele><time>2026-04-29T13:28:52Z</time></trkpt><trkpt lat="43.214994749186914" lon="-1.12644819710469"><ele>195.0</ele><time>2026-04-29T13:28:53Z</time></trkpt><trkpt lat="43.21495032779364" lon="-1.126557363592093"><ele>194.4</ele><time>2026-04-29T13:28:54Z</time></trkpt><trkpt lat="43.21490615182184" lon="-1.1266677920226287"><ele>193.8</ele><time>2026-04-29T13:28:55Z</time></trkpt><trkpt lat="43.214862050246595" lon="-1.126775632093022"><ele>193.2</ele><time>2026-04-29T13:28:56Z</time></trkpt><trkpt lat="43.21481831236174" lon="-1.1268867667776916"><ele>192.6</ele><time>2026-04-29T13:28:57Z</time></trkpt><trkpt lat="43.21477498139398" lon="-1.1269966245813243"><ele>192.0</ele><time>2026-04-29T13:28:58Z</time></trkpt><trkpt lat="43.21472977324305" lon="-1.1271078958859466"><ele>192.0</ele><time>2026-04-29T13:28:59Z</time></trkpt><trkpt lat="43.214685836804264" lon="-1.1272173604088762"><ele>192.0</ele><time>2026-04-29T13:29:00Z</time></trkpt><trkpt lat="43.21464257813044" lon="-1.1273242279602849"><ele>192.0</ele><time>2026-04-29T13:29:01Z</time></trkpt><trkpt lat="43.21459684880466" lon="-1.1274304224617724"><ele>192.0</ele><time>2026-04-29T13:29:02Z</time></trkpt><trkpt lat="43.214552273494576" lon="-1.1275374433081171"><ele>192.0</ele><time>2026-04-29T13:29:03Z</time></trkpt><trkpt lat="43.21450632978753" lon="-1.1276406313133434"><ele>192.0</ele><time>2026-04-29T13:29:04Z</time></trkpt><trkpt lat="43.214462763696076" lon="-1.1277462071862179"><ele>192.66666666666666</ele><time>2026-04-29T13:29:05Z</time></trkpt><trkpt lat="43.21441860368185" lon="-1.1278534952803732"><ele>193.33333333333331</ele><time>2026-04-29T13:29:06Z</time></trkpt><trkpt lat="43.21437332147006" lon="-1.127951830867919"><ele>194.0</ele><time>2026-04-29T13:29:07Z</time></trkpt><trkpt lat="43.21432834921696" lon="-1.1280523839260672"><ele>194.66666666666666</ele><time>2026-04-29T13:29:08Z</time></trkpt><trkpt lat="43.21428515741141" lon="-1.1281579470577667"><ele>195.33333333333331</ele><time>2026-04-29T13:29:09Z</time></trkpt><trkpt lat="43.21424108288682" lon="-1.128258132225034"><ele>196.0</ele><time>2026-04-29T13:29:10Z</time></trkpt><trkpt lat="43.21419572885928" lon="-1.1283585275998436"><ele>196.99999999999997</ele><time>2026-04-29T13:29:11Z</time></trkpt><trkpt lat="43.21414972714574" lon="-1.1284571201578355"><ele>198.0</ele><time>2026-04-29T13:29:12Z</time></trkpt><trkpt lat="43.21410141093274" lon="-1.1285568644043669"><ele>199.0</ele><time>2026-04-29T13:29:13Z</time></trkpt><trkpt lat="43.21405618440402" lon="-1.1286606550765397"><ele>200.0</ele><time>2026-04-29T13:29:14Z</time></trkpt><trkpt lat="43.21400671285707" lon="-1.128763391182678"><ele>200.99999999999997</ele><time>2026-04-29T13:29:15Z</time></trkpt><trkpt lat="43.21395896779954" lon="-1.1288653103779278"><ele>202.0</ele><time>2026-04-29T13:29:16Z</time></trkpt><trkpt lat="43.21391347204301" lon="-1.1289734871696464"><ele>203.16666666666666</ele><time>2026-04-29T13:29:17Z</time></trkpt><trkpt lat="43.213871100871266" lon="-1.129078750271749"><ele>204.33333333333331</ele><time>2026-04-29T13:29:18Z</time></trkpt><trkpt lat="43.21383044651503" lon="-1.1291794475037584"><ele>205.5</ele><time>2026-04-29T13:29:19.001Z</time></trkpt><trkpt lat="43.21378878561898" lon="-1.1292990708806998"><ele>206.66666666666669</ele><time>2026-04-29T13:29:20.001Z</time></trkpt><trkpt lat="43.213756184328815" lon="-1.1294131649807466"><ele>207.83333333333334</ele><time>2026-04-29T13:29:21.001Z</time></trkpt><trkpt lat="43.213728783432366" lon="-1.129529027853606"><ele>209.0</ele><time>2026-04-29T13:29:22.001Z</time></trkpt><trkpt lat="43.213702072928996" lon="-1.1296455913402732"><ele>209.00000000000003</ele><time>2026-04-29T13:29:23.001Z</time></trkpt><trkpt lat="43.21367883781561" lon="-1.1297623005822224"><ele>209.0</ele><time>2026-04-29T13:29:24.001Z</time></trkpt><trkpt lat="43.2136563530759" lon="-1.1298810895367073"><ele>209.0</ele><time>2026-04-29T13:29:25.001Z</time></trkpt><trkpt lat="43.2136434670568" lon="-1.1299944518055276"><ele>209.0</ele><time>2026-04-29T13:29:26.001Z</time></trkpt><trkpt lat="43.21363035914008" lon="-1.1301162659876935"><ele>209.00000000000003</ele><time>2026-04-29T13:29:27.001Z</time></trkpt><trkpt lat="43.213621120456786" lon="-1.130231952368081"><ele>209.0</ele><time>2026-04-29T13:29:28.001Z</time></trkpt><trkpt lat="43.21360980221772" lon="-1.1303513110388281"><ele>209.50000000000003</ele><time>2026-04-29T13:29:29.001Z</time></trkpt><trkpt lat="43.213604872508014" lon="-1.130468036180958"><ele>210.0</ele><time>2026-04-29T13:29:30.001Z</time></trkpt><trkpt lat="43.2136000723509" lon="-1.1305864368353424"><ele>210.5</ele><time>2026-04-29T13:29:31.001Z</time></trkpt><trkpt lat="43.213596918455096" lon="-1.130703059211921"><ele>211.0</ele><time>2026-04-29T13:29:32.001Z</time></trkpt><trkpt lat="43.2135970256178" lon="-1.1308209167927032"><ele>211.50000000000003</ele><time>2026-04-29T13:29:33.001Z</time></trkpt><trkpt lat="43.213596245969704" lon="-1.1309361480057247"><ele>212.0</ele><time>2026-04-29T13:29:34.001Z</time></trkpt><trkpt lat="43.213595783998954" lon="-1.1310494964656732"><ele>213.00000000000003</ele><time>2026-04-29T13:29:35.001Z</time></trkpt><trkpt lat="43.213594180251754" lon="-1.1311671243747643"><ele>214.0</ele><time>2026-04-29T13:29:36.001Z</time></trkpt><trkpt lat="43.21359348937379" lon="-1.1312815126238152"><ele>215.0</ele><time>2026-04-29T13:29:37.001Z</time></trkpt><trkpt lat="43.213595429444375" lon="-1.1313974752821483"><ele>216.0</ele><time>2026-04-29T13:29:38.001Z</time></trkpt><trkpt lat="43.213594184900735" lon="-1.1315132713050233"><ele>217.00000000000003</ele><time>2026-04-29T13:29:39.001Z</time></trkpt><trkpt lat="43.213598463160636" lon="-1.1316284717536287"><ele>218.0</ele><time>2026-04-29T13:29:40.001Z</time></trkpt><trkpt lat="43.21360013810791" lon="-1.131742129615268"><ele>219.00000000000003</ele><time>2026-04-29T13:29:41.001Z</time></trkpt><trkpt lat="43.21360074788666" lon="-1.131858404938883"><ele>220.0</ele><time>2026-04-29T13:29:42.001Z</time></trkpt><trkpt lat="43.21360475224917" lon="-1.1319724879260868"><ele>221.0</ele><time>2026-04-29T13:29:43.001Z</time></trkpt><trkpt lat="43.21360236093314" lon="-1.1320890202516545"><ele>222.0</ele><time>2026-04-29T13:29:44.001Z</time></trkpt><trkpt lat="43.21360225786383" lon="-1.1322029663867825"><ele>223.00000000000003</ele><time>2026-04-29T13:29:45.001Z</time></trkpt><trkpt lat="43.213600854961754" lon="-1.1323162080226779"><ele>224.0</ele><time>2026-04-29T13:29:46.001Z</time></trkpt><trkpt lat="43.213599330339235" lon="-1.132428980411371"><ele>224.83333333333334</ele><time>2026-04-29T13:29:47.001Z</time></trkpt><trkpt lat="43.21359752484732" lon="-1.132543801174378"><ele>225.66666666666669</ele><time>2026-04-29T13:29:48.001Z</time></trkpt><trkpt lat="43.21359337304134" lon="-1.1326583545792277"><ele>226.5</ele><time>2026-04-29T13:29:49.001Z</time></trkpt><trkpt lat="43.21358732315626" lon="-1.1327741878602167"><ele>227.33333333333331</ele><time>2026-04-29T13:29:50.001Z</time></trkpt><trkpt lat="43.213577933662755" lon="-1.132892242250344"><ele>228.16666666666666</ele><time>2026-04-29T13:29:51.001Z</time></trkpt><trkpt lat="43.213565511204635" lon="-1.1330095787072325"><ele>229.0</ele><time>2026-04-29T13:29:52.001Z</time></trkpt><trkpt lat="43.21355108102176" lon="-1.133125284991656"><ele>229.99999999999997</ele><time>2026-04-29T13:29:53.001Z</time></trkpt><trkpt lat="43.21352931495302" lon="-1.133242988627515"><ele>231.0</ele><time>2026-04-29T13:29:54.001Z</time></trkpt><trkpt lat="43.21350268876478" lon="-1.1333562204660237"><ele>232.0</ele><time>2026-04-29T13:29:55.001Z</time></trkpt><trkpt lat="43.21347018025247" lon="-1.133465831438636"><ele>233.0</ele><time>2026-04-29T13:29:56.001Z</time></trkpt><trkpt lat="43.21343713597205" lon="-1.133577912045626"><ele>233.99999999999997</ele><time>2026-04-29T13:29:57.001Z</time></trkpt><trkpt lat="43.21340705739534" lon="-1.1336876767412494"><ele>235.0</ele><time>2026-04-29T13:29:58.001Z</time></trkpt><trkpt lat="43.213374282774986" lon="-1.1337973927826186"><ele>234.99999999999997</ele><time>2026-04-29T13:29:59.001Z</time></trkpt><trkpt lat="43.213338154244745" lon="-1.1339039036260676"><ele>235.0</ele><time>2026-04-29T13:30:00.001Z</time></trkpt><trkpt lat="43.21330384624709" lon="-1.134005824278804"><ele>235.0</ele><time>2026-04-29T13:30:01.001Z</time></trkpt><trkpt lat="43.21325844634888" lon="-1.1341035284631433"><ele>235.0</ele><time>2026-04-29T13:30:02.001Z</time></trkpt><trkpt lat="43.21321305819915" lon="-1.134194581678649"><ele>234.99999999999997</ele><time>2026-04-29T13:30:03.001Z</time></trkpt><trkpt lat="43.213166075813774" lon="-1.1342846817324903"><ele>235.0</ele><time>2026-04-29T13:30:04.001Z</time></trkpt><trkpt lat="43.21311606184295" lon="-1.1343766802395792"><ele>234.83333333333331</ele><time>2026-04-29T13:30:05.001Z</time></trkpt><trkpt lat="43.2130625042342" lon="-1.1344611107943066"><ele>234.66666666666666</ele><time>2026-04-29T13:30:06.001Z</time></trkpt><trkpt lat="43.21300689529601" lon="-1.1345477312622965"><ele>234.5</ele><time>2026-04-29T13:30:07.001Z</time></trkpt><trkpt lat="43.21295485878776" lon="-1.134631408394677"><ele>234.33333333333331</ele><time>2026-04-29T13:30:08.001Z</time></trkpt><trkpt lat="43.21290351840051" lon="-1.1347193846740855"><ele>234.16666666666666</ele><time>2026-04-29T13:30:09.001Z</time></trkpt><trkpt lat="43.21285182792156" lon="-1.1348045597171588"><ele>234.0</ele><time>2026-04-29T13:30:10.001Z</time></trkpt><trkpt lat="43.21279809793317" lon="-1.1348912242959037"><ele>236.66666666666666</ele><time>2026-04-29T13:30:11.001Z</time></trkpt><trkpt lat="43.21274345326518" lon="-1.1349780919303225"><ele>239.33333333333331</ele><time>2026-04-29T13:30:12.001Z</time></trkpt><trkpt lat="43.21268921860755" lon="-1.1350627001986289"><ele>242.0</ele><time>2026-04-29T13:30:13.001Z</time></trkpt><trkpt lat="43.212635487032" lon="-1.135149128901333"><ele>244.66666666666666</ele><time>2026-04-29T13:30:14.001Z</time></trkpt><trkpt lat="43.2125800022812" lon="-1.135234951674351"><ele>247.33333333333331</ele><time>2026-04-29T13:30:15.001Z</time></trkpt><trkpt lat="43.21252279009706" lon="-1.1353235900843932"><ele>250.0</ele><time>2026-04-29T13:30:16.001Z</time></trkpt><trkpt lat="43.21246986313471" lon="-1.1354051322572558"><ele>249.99999999999997</ele><time>2026-04-29T13:30:17.001Z</time></trkpt><trkpt lat="43.2124136303643" lon="-1.1354892054086316"><ele>250.0</ele><time>2026-04-29T13:30:18.001Z</time></trkpt><trkpt lat="43.21235701810712" lon="-1.1355735200262784"><ele>250.0</ele><time>2026-04-29T13:30:19.001Z</time></trkpt><trkpt lat="43.212303190724505" lon="-1.135662821750775"><ele>250.0</ele><time>2026-04-29T13:30:20.001Z</time></trkpt><trkpt lat="43.212245960626596" lon="-1.1357387328736281"><ele>249.99999999999997</ele><time>2026-04-29T13:30:21.001Z</time></trkpt><trkpt lat="43.21218534561657" lon="-1.1358154083278635"><ele>250.0</ele><time>2026-04-29T13:30:22.001Z</time></trkpt><trkpt lat="43.21212264520261" lon="-1.1358909329651843"><ele>252.99999999999997</ele><time>2026-04-29T13:30:23.001Z</time></trkpt><trkpt lat="43.21205833438034" lon="-1.1359620338377643"><ele>256.0</ele><time>2026-04-29T13:30:24.001Z</time></trkpt><trkpt lat="43.211992687282645" lon="-1.1360306202641677"><ele>259.0</ele><time>2026-04-29T13:30:25.001Z</time></trkpt><trkpt lat="43.211924496137485" lon="-1.136095531873218"><ele>262.0</ele><time>2026-04-29T13:30:26.001Z</time></trkpt><trkpt lat="43.21185383485458" lon="-1.1361522521697809"><ele>265.0</ele><time>2026-04-29T13:30:27.001Z</time></trkpt><trkpt lat="43.21178583856255" lon="-1.136209107694506"><ele>268.0</ele><time>2026-04-29T13:30:28.002Z</time></trkpt><trkpt lat="43.211713532562094" lon="-1.1362677701157626"><ele>268.0</ele><time>2026-04-29T13:30:29.002Z</time></trkpt><trkpt lat="43.21164633524736" lon="-1.1363281054048877"><ele>268.0</ele><time>2026-04-29T13:30:30.002Z</time></trkpt><trkpt lat="43.21157401676377" lon="-1.1363813922089696"><ele>268.0</ele><time>2026-04-29T13:30:31.002Z</time></trkpt><trkpt lat="43.21150350507139" lon="-1.136442227988507"><ele>268.0</ele><time>2026-04-29T13:30:32.002Z</time></trkpt><trkpt lat="43.2114305919183" lon="-1.136497809493616"><ele>268.0</ele><time>2026-04-29T13:30:33.002Z</time></trkpt><trkpt lat="43.211361685736456" lon="-1.1365615356151504"><ele>268.0</ele><time>2026-04-29T13:30:34.002Z</time></trkpt><trkpt lat="43.21129173742707" lon="-1.136623813826282"><ele>268.3333333333333</ele><time>2026-04-29T13:30:35.002Z</time></trkpt><trkpt lat="43.21122196894361" lon="-1.1366912065296522"><ele>268.66666666666663</ele><time>2026-04-29T13:30:36.002Z</time></trkpt><trkpt lat="43.211154960375566" lon="-1.1367610328905708"><ele>269.0</ele><time>2026-04-29T13:30:37.002Z</time></trkpt><trkpt lat="43.211089430035166" lon="-1.1368364967892381"><ele>269.3333333333333</ele><time>2026-04-29T13:30:38.002Z</time></trkpt><trkpt lat="43.21102236925171" lon="-1.1369082445069114"><ele>269.6666666666667</ele><time>2026-04-29T13:30:39.002Z</time></trkpt><trkpt lat="43.21095487406452" lon="-1.136983223197293"><ele>270.0</ele><time>2026-04-29T13:30:40.002Z</time></trkpt><trkpt lat="43.21088963157994" lon="-1.137061103190972"><ele>270.0</ele><time>2026-04-29T13:30:41.002Z</time></trkpt><trkpt lat="43.210825525873574" lon="-1.137141388240327"><ele>270.0</ele><time>2026-04-29T13:30:42.002Z</time></trkpt><trkpt lat="43.210757191412355" lon="-1.1372184610267042"><ele>270.0</ele><time>2026-04-29T13:30:43.002Z</time></trkpt><trkpt lat="43.21068909520521" lon="-1.1373098471961187"><ele>270.0</ele><time>2026-04-29T13:30:44.002Z</time></trkpt><trkpt lat="43.21061880356936" lon="-1.1374053894731992"><ele>270.0</ele><time>2026-04-29T13:30:45.002Z</time></trkpt><trkpt lat="43.21054338692177" lon="-1.137500142199689"><ele>269.2</ele><time>2026-04-29T13:30:46.002Z</time></trkpt><trkpt lat="43.21046609049402" lon="-1.1375958986338461"><ele>268.4</ele><time>2026-04-29T13:30:47.002Z</time></trkpt><trkpt lat="43.210388993316684" lon="-1.137701804150476"><ele>267.6</ele><time>2026-04-29T13:30:48.002Z</time></trkpt><trkpt lat="43.21030940195612" lon="-1.1378013095206583"><ele>266.8</ele><time>2026-04-29T13:30:49.002Z</time></trkpt><trkpt lat="43.210226784470144" lon="-1.137908150764389"><ele>266.0</ele><time>2026-04-29T13:30:50.002Z</time></trkpt><trkpt lat="43.21014499470071" lon="-1.1380291473159425"><ele>266.0</ele><time>2026-04-29T13:30:51.002Z</time></trkpt><trkpt lat="43.210059058011076" lon="-1.138138093514659"><ele>266.0</ele><time>2026-04-29T13:30:52.002Z</time></trkpt><trkpt lat="43.2099729400897" lon="-1.1382467355378927"><ele>266.0</ele><time>2026-04-29T13:30:53.002Z</time></trkpt><trkpt lat="43.20988198890526" lon="-1.1383650113689927"><ele>266.0</ele><time>2026-04-29T13:30:54Z</time></trkpt><trkpt lat="43.20979725762626" lon="-1.1384856523294378"><ele>264.5</ele><time>2026-04-29T13:30:55Z</time></trkpt><trkpt lat="43.20971085088778" lon="-1.138601230760739"><ele>263.0</ele><time>2026-04-29T13:30:56Z</time></trkpt><trkpt lat="43.20962070640168" lon="-1.1387158162516282"><ele>261.5</ele><time>2026-04-29T13:30:57Z</time></trkpt><trkpt lat="43.209535711881024" lon="-1.1388283597776283"><ele>260.0</ele><time>2026-04-29T13:30:58Z</time></trkpt><trkpt lat="43.20944766497649" lon="-1.1389397091783995"><ele>260.0</ele><time>2026-04-29T13:30:59Z</time></trkpt><trkpt lat="43.2093649274777" lon="-1.1390488970910193"><ele>260.0</ele><time>2026-04-29T13:31:00Z</time></trkpt><trkpt lat="43.20927990619353" lon="-1.1391587079550698"><ele>260.0</ele><time>2026-04-29T13:31:01Z</time></trkpt><trkpt lat="43.20919366449928" lon="-1.1392657430038953"><ele>260.0</ele><time>2026-04-29T13:31:02Z</time></trkpt><trkpt lat="43.2091086201152" lon="-1.1393775318311115"><ele>258.75</ele><time>2026-04-29T13:31:03Z</time></trkpt><trkpt lat="43.20901940822419" lon="-1.1394914989104463"><ele>257.5</ele><time>2026-04-29T13:31:04Z</time></trkpt><trkpt lat="43.20893249951818" lon="-1.1396077311104769"><ele>256.25</ele><time>2026-04-29T13:31:05Z</time></trkpt><trkpt lat="43.20884438698322" lon="-1.1397211215682297"><ele>255.0</ele><time>2026-04-29T13:31:06Z</time></trkpt><trkpt lat="43.20875379250561" lon="-1.1398380506136043"><ele>254.0</ele><time>2026-04-29T13:31:07Z</time></trkpt><trkpt lat="43.20866451203518" lon="-1.1399545300949523"><ele>253.0</ele><time>2026-04-29T13:31:08Z</time></trkpt><trkpt lat="43.20857469423217" lon="-1.1400693598692953"><ele>252.0</ele><time>2026-04-29T13:31:09Z</time></trkpt><trkpt lat="43.20848639615776" lon="-1.1401856513033055"><ele>251.0</ele><time>2026-04-29T13:31:10Z</time></trkpt><trkpt lat="43.208400107853855" lon="-1.1403037700861829"><ele>251.0</ele><time>2026-04-29T13:31:11Z</time></trkpt><trkpt lat="43.20831284409842" lon="-1.140419966710576"><ele>251.0</ele><time>2026-04-29T13:31:12Z</time></trkpt><trkpt lat="43.20822390172906" lon="-1.140540263832165"><ele>251.0</ele><time>2026-04-29T13:31:13Z</time></trkpt><trkpt lat="43.20813382291267" lon="-1.140653638165917"><ele>251.0</ele><time>2026-04-29T13:31:14Z</time></trkpt><trkpt lat="43.208043150294706" lon="-1.1407756140162082"><ele>250.75</ele><time>2026-04-29T13:31:15Z</time></trkpt><trkpt lat="43.20795422607343" lon="-1.1408976203820373"><ele>250.5</ele><time>2026-04-29T13:31:16Z</time></trkpt><trkpt lat="43.20786366258035" lon="-1.1410118909055926"><ele>250.25</ele><time>2026-04-29T13:31:17Z</time></trkpt><trkpt lat="43.20777517588263" lon="-1.14112536869716"><ele>250.0</ele><time>2026-04-29T13:31:18Z</time></trkpt><trkpt lat="43.20769025313384" lon="-1.141237873755572"><ele>250.0</ele><time>2026-04-29T13:31:19Z</time></trkpt><trkpt lat="43.20760148464268" lon="-1.1413498874133954"><ele>250.0</ele><time>2026-04-29T13:31:20Z</time></trkpt><trkpt lat="43.207515946625605" lon="-1.1414595677793233"><ele>250.0</ele><time>2026-04-29T13:31:21Z</time></trkpt><trkpt lat="43.20742584775863" lon="-1.1415737166013387"><ele>250.0</ele><time>2026-04-29T13:31:22Z</time></trkpt><trkpt lat="43.20734115409575" lon="-1.141686096789227"><ele>249.5</ele><time>2026-04-29T13:31:23Z</time></trkpt><trkpt lat="43.20725562752396" lon="-1.1418052574802187"><ele>249.0</ele><time>2026-04-29T13:31:24Z</time></trkpt><trkpt lat="43.20716592312585" lon="-1.141912790648827"><ele>248.5</ele><time>2026-04-29T13:31:25Z</time></trkpt><trkpt lat="43.2070853186908" lon="-1.142030380935776"><ele>248.0</ele><time>2026-04-29T13:31:26.001Z</time></trkpt><trkpt lat="43.20700174731813" lon="-1.142148099425503"><ele>248.0</ele><time>2026-04-29T13:31:27.001Z</time></trkpt><trkpt lat="43.20692047248962" lon="-1.1422602943590856"><ele>248.0</ele><time>2026-04-29T13:31:28.001Z</time></trkpt><trkpt lat="43.20684511265152" lon="-1.1423913747233496"><ele>248.0</ele><time>2026-04-29T13:31:29.001Z</time></trkpt><trkpt lat="43.20676519922154" lon="-1.1425160020635203"><ele>248.0</ele><time>2026-04-29T13:31:30.001Z</time></trkpt><trkpt lat="43.206690515400666" lon="-1.1426474172676788"><ele>248.25</ele><time>2026-04-29T13:31:31.001Z</time></trkpt><trkpt lat="43.20661119982077" lon="-1.1427440681860126"><ele>248.5</ele><time>2026-04-29T13:31:32.001Z</time></trkpt><trkpt lat="43.20654084162871" lon="-1.1428967737779103"><ele>248.75</ele><time>2026-04-29T13:31:33.001Z</time></trkpt><trkpt lat="43.206473544633546" lon="-1.1430299725777833"><ele>249.0</ele><time>2026-04-29T13:31:34.001Z</time></trkpt><trkpt lat="43.20640592019931" lon="-1.1431593828976125"><ele>247.25</ele><time>2026-04-29T13:31:35.001Z</time></trkpt><trkpt lat="43.206325515661476" lon="-1.14328379588264"><ele>245.5</ele><time>2026-04-29T13:31:36.001Z</time></trkpt><trkpt lat="43.2062598892698" lon="-1.1434016865357421"><ele>243.75</ele><time>2026-04-29T13:31:37.001Z</time></trkpt><trkpt lat="43.2061840551102" lon="-1.1435287007199184"><ele>242.0</ele><time>2026-04-29T13:31:38.001Z</time></trkpt><trkpt lat="43.20611297512514" lon="-1.1436632107085136"><ele>242.0</ele><time>2026-04-29T13:31:39.001Z</time></trkpt><trkpt lat="43.20604582646263" lon="-1.1437929249077097"><ele>242.0</ele><time>2026-04-29T13:31:40.001Z</time></trkpt><trkpt lat="43.205978261776366" lon="-1.1439246832051102"><ele>242.0</ele><time>2026-04-29T13:31:41.001Z</time></trkpt><trkpt lat="43.205906856834766" lon="-1.1440553038085228"><ele>242.0</ele><time>2026-04-29T13:31:42.001Z</time></trkpt><trkpt lat="43.205836516160396" lon="-1.144187980371727"><ele>241.75</ele><time>2026-04-29T13:31:43.001Z</time></trkpt><trkpt lat="43.20575210158784" lon="-1.1442917312888328"><ele>241.5</ele><time>2026-04-29T13:31:44.001Z</time></trkpt><trkpt lat="43.2056886174344" lon="-1.1444242559764932"><ele>241.25</ele><time>2026-04-29T13:31:45.001Z</time></trkpt><trkpt lat="43.205632267792836" lon="-1.144566872346119"><ele>241.0</ele><time>2026-04-29T13:31:46.001Z</time></trkpt><trkpt lat="43.20555614361348" lon="-1.1446785030786575"><ele>241.60000000000002</ele><time>2026-04-29T13:31:47.001Z</time></trkpt><trkpt lat="43.20547099351227" lon="-1.144774412636735"><ele>242.20000000000002</ele><time>2026-04-29T13:31:48.001Z</time></trkpt><trkpt lat="43.20540372446759" lon="-1.1449117326340006"><ele>242.79999999999998</ele><time>2026-04-29T13:31:49.001Z</time></trkpt><trkpt lat="43.205333140882104" lon="-1.1450048666661772"><ele>243.39999999999998</ele><time>2026-04-29T13:31:50.001Z</time></trkpt><trkpt lat="43.205253825617405" lon="-1.14511733969298"><ele>244.0</ele><time>2026-04-29T13:31:51.001Z</time></trkpt><trkpt lat="43.205184002629075" lon="-1.1452384333922476"><ele>244.0</ele><time>2026-04-29T13:31:52.001Z</time></trkpt><trkpt lat="43.20510478270132" lon="-1.1453390149700804"><ele>243.99999999999997</ele><time>2026-04-29T13:31:53.001Z</time></trkpt><trkpt lat="43.2050341771832" lon="-1.14544897220104"><ele>243.99999999999997</ele><time>2026-04-29T13:31:54.001Z</time></trkpt><trkpt lat="43.20495437667183" lon="-1.1455433343418657"><ele>244.0</ele><time>2026-04-29T13:31:55.001Z</time></trkpt><trkpt lat="43.20487535550618" lon="-1.1456379954711422"><ele>244.0</ele><time>2026-04-29T13:31:56.001Z</time></trkpt><trkpt lat="43.20479844504967" lon="-1.1457359164223515"><ele>244.6</ele><time>2026-04-29T13:31:57.001Z</time></trkpt><trkpt lat="43.20472659237338" lon="-1.145836174942901"><ele>245.2</ele><time>2026-04-29T13:31:58.001Z</time></trkpt><trkpt lat="43.20464160122079" lon="-1.1459035438586538"><ele>245.79999999999998</ele><time>2026-04-29T13:31:59.001Z</time></trkpt><trkpt lat="43.20456414888735" lon="-1.1459883603982162"><ele>246.39999999999998</ele><time>2026-04-29T13:32:00.001Z</time></trkpt><trkpt lat="43.20449805826282" lon="-1.146082854624605"><ele>247.0</ele><time>2026-04-29T13:32:01.001Z</time></trkpt><trkpt lat="43.20442883676808" lon="-1.1461674764844436"><ele>246.99999999999997</ele><time>2026-04-29T13:32:02.001Z</time></trkpt><trkpt lat="43.20435958711411" lon="-1.1462435653972098"><ele>247.0</ele><time>2026-04-29T13:32:03.001Z</time></trkpt><trkpt lat="43.20429804115137" lon="-1.1463265296583294"><ele>247.0</ele><time>2026-04-29T13:32:04.001Z</time></trkpt><trkpt lat="43.204238139547805" lon="-1.1464089442185375"><ele>247.0</ele><time>2026-04-29T13:32:05.001Z</time></trkpt><trkpt lat="43.204178022631396" lon="-1.1464876557995873"><ele>246.99999999999997</ele><time>2026-04-29T13:32:06.001Z</time></trkpt><trkpt lat="43.2041184367326" lon="-1.1465657748875215"><ele>247.0</ele><time>2026-04-29T13:32:07.001Z</time></trkpt><trkpt lat="43.20405842519781" lon="-1.1466445875826656"><ele>248.16666666666666</ele><time>2026-04-29T13:32:08.001Z</time></trkpt><trkpt lat="43.20399885567161" lon="-1.1467271495408131"><ele>249.33333333333331</ele><time>2026-04-29T13:32:09.001Z</time></trkpt><trkpt lat="43.20394052312036" lon="-1.1468118165438097"><ele>250.5</ele><time>2026-04-29T13:32:10.001Z</time></trkpt><trkpt lat="43.20388190392146" lon="-1.1468925839084936"><ele>251.66666666666669</ele><time>2026-04-29T13:32:11.001Z</time></trkpt><trkpt lat="43.203820684677545" lon="-1.1469713484675537"><ele>252.83333333333334</ele><time>2026-04-29T13:32:12.001Z</time></trkpt><trkpt lat="43.20376155684759" lon="-1.1470523253765994"><ele>254.0</ele><time>2026-04-29T13:32:13.001Z</time></trkpt><trkpt lat="43.203701154338376" lon="-1.1471340607340066"><ele>254.00000000000003</ele><time>2026-04-29T13:32:14.001Z</time></trkpt><trkpt lat="43.203640836803245" lon="-1.1472157279409017"><ele>254.0</ele><time>2026-04-29T13:32:15.001Z</time></trkpt><trkpt lat="43.20357892035025" lon="-1.1472965567861535"><ele>254.0</ele><time>2026-04-29T13:32:16.001Z</time></trkpt><trkpt lat="43.203515748562" lon="-1.1473761688115995"><ele>254.0</ele><time>2026-04-29T13:32:17.001Z</time></trkpt><trkpt lat="43.20345517729958" lon="-1.1474569111426525"><ele>254.00000000000003</ele><time>2026-04-29T13:32:18.001Z</time></trkpt><trkpt lat="43.203393620368836" lon="-1.1475384322662823"><ele>254.0</ele><time>2026-04-29T13:32:19.001Z</time></trkpt><trkpt lat="43.2033308161811" lon="-1.1476147732055881"><ele>252.66666666666669</ele><time>2026-04-29T13:32:20.001Z</time></trkpt><trkpt lat="43.203267295701934" lon="-1.1476955710066972"><ele>251.33333333333334</ele><time>2026-04-29T13:32:21.001Z</time></trkpt><trkpt lat="43.20320574672749" lon="-1.1477740416600124"><ele>250.0</ele><time>2026-04-29T13:32:22.001Z</time></trkpt><trkpt lat="43.20314057039542" lon="-1.1478472584980977"><ele>248.66666666666669</ele><time>2026-04-29T13:32:23.001Z</time></trkpt><trkpt lat="43.20307327946772" lon="-1.147930969824428"><ele>247.33333333333334</ele><time>2026-04-29T13:32:24.001Z</time></trkpt><trkpt lat="43.203000437177565" lon="-1.1480009686335988"><ele>246.0</ele><time>2026-04-29T13:32:25.001Z</time></trkpt><trkpt lat="43.2029239668417" lon="-1.148072210149711"><ele>246.0</ele><time>2026-04-29T13:32:26.001Z</time></trkpt><trkpt lat="43.202843873733414" lon="-1.1481459268138678"><ele>246.00000000000003</ele><time>2026-04-29T13:32:27.001Z</time></trkpt><trkpt lat="43.202763481670225" lon="-1.148222918786362"><ele>246.00000000000003</ele><time>2026-04-29T13:32:28.001Z</time></trkpt><trkpt lat="43.20268032579298" lon="-1.1483031770155492"><ele>246.0</ele><time>2026-04-29T13:32:29.001Z</time></trkpt><trkpt lat="43.20259748275108" lon="-1.148383869129409"><ele>246.0</ele><time>2026-04-29T13:32:30.001Z</time></trkpt><trkpt lat="43.20251079689234" lon="-1.1484619834728227"><ele>244.8</ele><time>2026-04-29T13:32:31.001Z</time></trkpt><trkpt lat="43.20242364614181" lon="-1.1485375715242294"><ele>243.60000000000002</ele><time>2026-04-29T13:32:32.001Z</time></trkpt><trkpt lat="43.20233493809802" lon="-1.1486101371065323"><ele>242.4</ele><time>2026-04-29T13:32:33.001Z</time></trkpt><trkpt lat="43.202252731223574" lon="-1.1486906991712842"><ele>241.2</ele><time>2026-04-29T13:32:34.001Z</time></trkpt><trkpt lat="43.20216307128267" lon="-1.1487763217027378"><ele>240.0</ele><time>2026-04-29T13:32:35.001Z</time></trkpt><trkpt lat="43.202079138981574" lon="-1.1488539373380293"><ele>240.0</ele><time>2026-04-29T13:32:36.001Z</time></trkpt><trkpt lat="43.20199216633519" lon="-1.1489349887691949"><ele>240.0</ele><time>2026-04-29T13:32:37.001Z</time></trkpt><trkpt lat="43.20190595205306" lon="-1.1490120630512979"><ele>240.0</ele><time>2026-04-29T13:32:38.002Z</time></trkpt><trkpt lat="43.20181913401421" lon="-1.1490980358697411"><ele>240.0</ele><time>2026-04-29T13:32:39.002Z</time></trkpt><trkpt lat="43.20173229631121" lon="-1.1491800249323905"><ele>240.0</ele><time>2026-04-29T13:32:40.002Z</time></trkpt><trkpt lat="43.20164891715474" lon="-1.1492503291457072"><ele>239.0</ele><time>2026-04-29T13:32:41.002Z</time></trkpt><trkpt lat="43.20155746731778" lon="-1.14934080820314"><ele>238.0</ele><time>2026-04-29T13:32:42.002Z</time></trkpt><trkpt lat="43.2014728308595" lon="-1.1494230175337825"><ele>237.0</ele><time>2026-04-29T13:32:43.002Z</time></trkpt><trkpt lat="43.20138432208971" lon="-1.1495082310706795"><ele>236.0</ele><time>2026-04-29T13:32:44.002Z</time></trkpt><trkpt lat="43.20129571165958" lon="-1.1495953799262557"><ele>235.0</ele><time>2026-04-29T13:32:45.002Z</time></trkpt><trkpt lat="43.20120720012645" lon="-1.1496737654867568"><ele>235.0</ele><time>2026-04-29T13:32:46.002Z</time></trkpt><trkpt lat="43.201119590969824" lon="-1.1497525274548024"><ele>235.0</ele><time>2026-04-29T13:32:47.002Z</time></trkpt><trkpt lat="43.20103156420137" lon="-1.1498391972228743"><ele>235.0</ele><time>2026-04-29T13:32:48.002Z</time></trkpt><trkpt lat="43.20094623736079" lon="-1.1499140087852886"><ele>235.0</ele><time>2026-04-29T13:32:49.002Z</time></trkpt><trkpt lat="43.20086546710411" lon="-1.1499919456281589"><ele>235.0</ele><time>2026-04-29T13:32:50.002Z</time></trkpt><trkpt lat="43.20078117672633" lon="-1.1500687110940826"><ele>234.0</ele><time>2026-04-29T13:32:51.002Z</time></trkpt><trkpt lat="43.2006991779616" lon="-1.150147268339992"><ele>233.0</ele><time>2026-04-29T13:32:52.002Z</time></trkpt><trkpt lat="43.20061078127436" lon="-1.1502210448957835"><ele>232.0</ele><time>2026-04-29T13:32:53.002Z</time></trkpt><trkpt lat="43.2005236763685" lon="-1.150284530327165"><ele>231.0</ele><time>2026-04-29T13:32:54.002Z</time></trkpt><trkpt lat="43.200437492873256" lon="-1.1503452256166373"><ele>230.0</ele><time>2026-04-29T13:32:55.002Z</time></trkpt><trkpt lat="43.20035279027503" lon="-1.1504087023954697"><ele>230.0</ele><time>2026-04-29T13:32:56.002Z</time></trkpt><trkpt lat="43.20026426156801" lon="-1.1504640706711082"><ele>230.0</ele><time>2026-04-29T13:32:57.002Z</time></trkpt><trkpt lat="43.200175762717734" lon="-1.1505101059533787"><ele>230.0</ele><time>2026-04-29T13:32:58.002Z</time></trkpt><trkpt lat="43.2000858608872" lon="-1.150549145874092"><ele>230.0</ele><time>2026-04-29T13:32:59.002Z</time></trkpt><trkpt lat="43.199997603073555" lon="-1.1505849365365763"><ele>230.0</ele><time>2026-04-29T13:33:00Z</time></trkpt><trkpt lat="43.19991033285939" lon="-1.1506201411129904"><ele>230.50000000000003</ele><time>2026-04-29T13:33:01Z</time></trkpt><trkpt lat="43.19982606389156" lon="-1.1506559537878636"><ele>231.0</ele><time>2026-04-29T13:33:02Z</time></trkpt><trkpt lat="43.19973569201846" lon="-1.150687616643705"><ele>231.5</ele><time>2026-04-29T13:33:03Z</time></trkpt><trkpt lat="43.19965089841421" lon="-1.1507221520027657"><ele>232.0</ele><time>2026-04-29T13:33:04Z</time></trkpt><trkpt lat="43.19956614518144" lon="-1.1507582745191922"><ele>232.50000000000003</ele><time>2026-04-29T13:33:05Z</time></trkpt><trkpt lat="43.19948214821727" lon="-1.1507947194008747"><ele>233.0</ele><time>2026-04-29T13:33:06Z</time></trkpt><trkpt lat="43.199403654876086" lon="-1.1508415372765946"><ele>233.00000000000003</ele><time>2026-04-29T13:33:07Z</time></trkpt><trkpt lat="43.199319798507034" lon="-1.1508934580172905"><ele>233.0</ele><time>2026-04-29T13:33:08Z</time></trkpt><trkpt lat="43.19924105530155" lon="-1.1509455046478543"><ele>233.0</ele><time>2026-04-29T13:33:09Z</time></trkpt><trkpt lat="43.199167638592186" lon="-1.1510070040567895"><ele>233.0</ele><time>2026-04-29T13:33:10Z</time></trkpt><trkpt lat="43.199091438735564" lon="-1.1510697202085087"><ele>233.00000000000003</ele><time>2026-04-29T13:33:11Z</time></trkpt><trkpt lat="43.19901525261723" lon="-1.1511327524880755"><ele>233.0</ele><time>2026-04-29T13:33:12Z</time></trkpt><trkpt lat="43.198942064811455" lon="-1.1511976179517658"><ele>233.16666666666669</ele><time>2026-04-29T13:33:13Z</time></trkpt><trkpt lat="43.19887056602346" lon="-1.1512680641393531"><ele>233.33333333333334</ele><time>2026-04-29T13:33:14Z</time></trkpt><trkpt lat="43.198805150542796" lon="-1.1513424795952736"><ele>233.5</ele><time>2026-04-29T13:33:15Z</time></trkpt><trkpt lat="43.19873794018178" lon="-1.1514263845599417"><ele>233.66666666666669</ele><time>2026-04-29T13:33:16Z</time></trkpt><trkpt lat="43.19867564891563" lon="-1.1515139020440222"><ele>233.83333333333334</ele><time>2026-04-29T13:33:17Z</time></trkpt><trkpt lat="43.19861656173863" lon="-1.1516175980842072"><ele>234.0</ele><time>2026-04-29T13:33:18Z</time></trkpt><trkpt lat="43.19856134129084" lon="-1.151716948058019"><ele>234.0</ele><time>2026-04-29T13:33:19Z</time></trkpt><trkpt lat="43.19849880494582" lon="-1.1518160928207875"><ele>233.99999999999997</ele><time>2026-04-29T13:33:20Z</time></trkpt><trkpt lat="43.19844284750743" lon="-1.1519253685189517"><ele>233.99999999999997</ele><time>2026-04-29T13:33:21Z</time></trkpt><trkpt lat="43.19838631444749" lon="-1.1520330124268863"><ele>234.0</ele><time>2026-04-29T13:33:22Z</time></trkpt><trkpt lat="43.19833683569189" lon="-1.152147703145278"><ele>234.0</ele><time>2026-04-29T13:33:23Z</time></trkpt><trkpt lat="43.19829070676499" lon="-1.1522591113064924"><ele>234.2</ele><time>2026-04-29T13:33:24Z</time></trkpt><trkpt lat="43.19824639253258" lon="-1.1523790573476693"><ele>234.39999999999998</ele><time>2026-04-29T13:33:25Z</time></trkpt><trkpt lat="43.19820698161578" lon="-1.1525040742012487"><ele>234.6</ele><time>2026-04-29T13:33:26Z</time></trkpt><trkpt lat="43.19816953790734" lon="-1.1526332094787748"><ele>234.8</ele><time>2026-04-29T13:33:27Z</time></trkpt><trkpt lat="43.198132984320395" lon="-1.1527610221009323"><ele>235.0</ele><time>2026-04-29T13:33:28Z</time></trkpt><trkpt lat="43.198100870371526" lon="-1.152887165781792"><ele>233.8</ele><time>2026-04-29T13:33:29Z</time></trkpt><trkpt lat="43.19806790138505" lon="-1.1530171848580322"><ele>232.6</ele><time>2026-04-29T13:33:30Z</time></trkpt><trkpt lat="43.19803651230247" lon="-1.1531491747192786"><ele>231.39999999999998</ele><time>2026-04-29T13:33:31Z</time></trkpt><trkpt lat="43.198005762316605" lon="-1.1532847988899637"><ele>230.2</ele><time>2026-04-29T13:33:32Z</time></trkpt><trkpt lat="43.19798314718956" lon="-1.153414189494819"><ele>229.0</ele><time>2026-04-29T13:33:33Z</time></trkpt><trkpt lat="43.19796390174086" lon="-1.1535470550914726"><ele>229.0</ele><time>2026-04-29T13:33:34.001Z</time></trkpt><trkpt lat="43.19794368836567" lon="-1.153681690133226"><ele>228.99999999999997</ele><time>2026-04-29T13:33:35.001Z</time></trkpt><trkpt lat="43.197925009491506" lon="-1.1538163260952736"><ele>228.99999999999997</ele><time>2026-04-29T13:33:36.001Z</time></trkpt><trkpt lat="43.197909013623615" lon="-1.1539585089819289"><ele>229.0</ele><time>2026-04-29T13:33:37.001Z</time></trkpt><trkpt lat="43.19789055288824" lon="-1.1540883424495503"><ele>229.0</ele><time>2026-04-29T13:33:38.001Z</time></trkpt><trkpt lat="43.197871900212895" lon="-1.1542214155644057"><ele>228.39999999999998</ele><time>2026-04-29T13:33:39.001Z</time></trkpt><trkpt lat="43.197856490550095" lon="-1.1543633621735696"><ele>227.79999999999998</ele><time>2026-04-29T13:33:40.001Z</time></trkpt><trkpt lat="43.19783669972757" lon="-1.1545008388738855"><ele>227.20000000000002</ele><time>2026-04-29T13:33:41.001Z</time></trkpt><trkpt lat="43.197816795861264" lon="-1.1546403228995865"><ele>226.60000000000002</ele><time>2026-04-29T13:33:42.001Z</time></trkpt><trkpt lat="43.19779994071666" lon="-1.1547795919067176"><ele>226.0</ele><time>2026-04-29T13:33:43.001Z</time></trkpt><trkpt lat="43.19778122493371" lon="-1.1549185189998326"><ele>225.8</ele><time>2026-04-29T13:33:44.001Z</time></trkpt><trkpt lat="43.19776015586351" lon="-1.155062434957646"><ele>225.60000000000002</ele><time>2026-04-29T13:33:45.001Z</time></trkpt><trkpt lat="43.1977381077942" lon="-1.1552049678034775"><ele>225.4</ele><time>2026-04-29T13:33:46.001Z</time></trkpt><trkpt lat="43.19771373159307" lon="-1.1553405330688198"><ele>225.2</ele><time>2026-04-29T13:33:47.001Z</time></trkpt><trkpt lat="43.197686033645674" lon="-1.155476739066196"><ele>225.0</ele><time>2026-04-29T13:33:48.001Z</time></trkpt><trkpt lat="43.19765402497369" lon="-1.1556130540704757"><ele>225.0</ele><time>2026-04-29T13:33:49.001Z</time></trkpt><trkpt lat="43.1976179189249" lon="-1.1557535945885757"><ele>225.0</ele><time>2026-04-29T13:33:50.001Z</time></trkpt><trkpt lat="43.197580120680094" lon="-1.1558894224988108"><ele>225.0</ele><time>2026-04-29T13:33:51.001Z</time></trkpt><trkpt lat="43.19753807680817" lon="-1.1560237303002747"><ele>225.0</ele><time>2026-04-29T13:33:52.001Z</time></trkpt><trkpt lat="43.19748986043324" lon="-1.1561499431492117"><ele>225.0</ele><time>2026-04-29T13:33:53.001Z</time></trkpt><trkpt lat="43.197433520532385" lon="-1.15626690782674"><ele>225.0</ele><time>2026-04-29T13:33:54.001Z</time></trkpt><trkpt lat="43.19737707201223" lon="-1.156383371626076"><ele>225.0</ele><time>2026-04-29T13:33:55.001Z</time></trkpt><trkpt lat="43.19732133397106" lon="-1.1565013676411253"><ele>225.0</ele><time>2026-04-29T13:33:56.001Z</time></trkpt><trkpt lat="43.197266016659405" lon="-1.1566196368265824"><ele>225.0</ele><time>2026-04-29T13:33:57.001Z</time></trkpt><trkpt lat="43.19721034513105" lon="-1.1567357063569093"><ele>225.0</ele><time>2026-04-29T13:33:58.001Z</time></trkpt><trkpt lat="43.19715247856268" lon="-1.15685506955757"><ele>224.2</ele><time>2026-04-29T13:33:59.001Z</time></trkpt><trkpt lat="43.197095921898445" lon="-1.1569703786881231"><ele>223.4</ele><time>2026-04-29T13:34:00.001Z</time></trkpt><trkpt lat="43.19704068106668" lon="-1.157082559521533"><ele>222.60000000000002</ele><time>2026-04-29T13:34:01.001Z</time></trkpt><trkpt lat="43.19698591253034" lon="-1.1571942615149473"><ele>221.8</ele><time>2026-04-29T13:34:02.001Z</time></trkpt><trkpt lat="43.196931068208585" lon="-1.1573061160265872"><ele>221.0</ele><time>2026-04-29T13:34:03.001Z</time></trkpt><trkpt lat="43.19687830450522" lon="-1.1574163433645301"><ele>221.0</ele><time>2026-04-29T13:34:04.001Z</time></trkpt><trkpt lat="43.196826771100135" lon="-1.1575268178346352"><ele>221.00000000000003</ele><time>2026-04-29T13:34:05.001Z</time></trkpt><trkpt lat="43.196772771358795" lon="-1.1576387423593515"><ele>221.00000000000003</ele><time>2026-04-29T13:34:06.001Z</time></trkpt><trkpt lat="43.19671950405573" lon="-1.1577482212488646"><ele>221.0</ele><time>2026-04-29T13:34:07.001Z</time></trkpt><trkpt lat="43.196666160103376" lon="-1.1578584497950217"><ele>221.0</ele><time>2026-04-29T13:34:08.001Z</time></trkpt><trkpt lat="43.19661254892581" lon="-1.1579663944870022"><ele>221.0</ele><time>2026-04-29T13:34:09.001Z</time></trkpt><trkpt lat="43.19656015321593" lon="-1.1580738709411906"><ele>221.00000000000003</ele><time>2026-04-29T13:34:10.001Z</time></trkpt><trkpt lat="43.19650865229462" lon="-1.1581809037690831"><ele>221.00000000000003</ele><time>2026-04-29T13:34:11.001Z</time></trkpt><trkpt lat="43.196454253229135" lon="-1.1582883093930918"><ele>221.0</ele><time>2026-04-29T13:34:12.001Z</time></trkpt><trkpt lat="43.196402451842175" lon="-1.1583996969025014"><ele>221.0</ele><time>2026-04-29T13:34:13.001Z</time></trkpt><trkpt lat="43.19635038720463" lon="-1.1585122339336167"><ele>220.0</ele><time>2026-04-29T13:34:14.001Z</time></trkpt><trkpt lat="43.19629705650665" lon="-1.1586270896922362"><ele>219.00000000000003</ele><time>2026-04-29T13:34:15.001Z</time></trkpt><trkpt lat="43.19624169841603" lon="-1.1587403355365538"><ele>218.00000000000003</ele><time>2026-04-29T13:34:16.001Z</time></trkpt><trkpt lat="43.19618633508788" lon="-1.1588566608167172"><ele>217.0</ele><time>2026-04-29T13:34:17.001Z</time></trkpt><trkpt lat="43.19613220177756" lon="-1.158975769811791"><ele>216.0</ele><time>2026-04-29T13:34:18.001Z</time></trkpt><trkpt lat="43.19607684405847" lon="-1.1590953014570256"><ele>216.0</ele><time>2026-04-29T13:34:19.001Z</time></trkpt><trkpt lat="43.19602051352354" lon="-1.15921486743092"><ele>216.00000000000003</ele><time>2026-04-29T13:34:20.001Z</time></trkpt><trkpt lat="43.19596239763967" lon="-1.1593294732924326"><ele>216.00000000000003</ele><time>2026-04-29T13:34:21.001Z</time></trkpt><trkpt lat="43.19590498504427" lon="-1.1594430331410286"><ele>216.0</ele><time>2026-04-29T13:34:22.001Z</time></trkpt><trkpt lat="43.19584771513998" lon="-1.1595571095295591"><ele>216.0</ele><time>2026-04-29T13:34:23.001Z</time></trkpt><trkpt lat="43.19579020303086" lon="-1.1596754788883008"><ele>216.0</ele><time>2026-04-29T13:34:24.001Z</time></trkpt><trkpt lat="43.19573261324562" lon="-1.1597920778309996"><ele>216.00000000000003</ele><time>2026-04-29T13:34:25.001Z</time></trkpt><trkpt lat="43.195674753590836" lon="-1.1599142354859064"><ele>216.00000000000003</ele><time>2026-04-29T13:34:26.001Z</time></trkpt><trkpt lat="43.19561607901604" lon="-1.1600422718695105"><ele>216.0</ele><time>2026-04-29T13:34:27.001Z</time></trkpt><trkpt lat="43.1955583860809" lon="-1.160165071599232"><ele>216.0</ele><time>2026-04-29T13:34:28.001Z</time></trkpt><trkpt lat="43.19550119188027" lon="-1.1602892516221137"><ele>215.8</ele><time>2026-04-29T13:34:29.001Z</time></trkpt><trkpt lat="43.19544268916049" lon="-1.1604130831036157"><ele>215.60000000000002</ele><time>2026-04-29T13:34:30.001Z</time></trkpt><trkpt lat="43.195383726216704" lon="-1.1605354184325858"><ele>215.4</ele><time>2026-04-29T13:34:31.001Z</time></trkpt><trkpt lat="43.19532542536638" lon="-1.160654576247932"><ele>215.2</ele><time>2026-04-29T13:34:32.001Z</time></trkpt><trkpt lat="43.19526697772927" lon="-1.1607729878986903"><ele>215.0</ele><time>2026-04-29T13:34:33.001Z</time></trkpt><trkpt lat="43.195208107424406" lon="-1.1608864442621472"><ele>215.0</ele><time>2026-04-29T13:34:34.001Z</time></trkpt><trkpt lat="43.19514964419856" lon="-1.1610019774092835"><ele>215.0</ele><time>2026-04-29T13:34:35.001Z</time></trkpt><trkpt lat="43.19509074613665" lon="-1.1611198612976286"><ele>215.0</ele><time>2026-04-29T13:34:36.001Z</time></trkpt><trkpt lat="43.19503106342257" lon="-1.1612405491532252"><ele>215.0</ele><time>2026-04-29T13:34:37.001Z</time></trkpt><trkpt lat="43.19497233462047" lon="-1.16135675877848"><ele>215.0</ele><time>2026-04-29T13:34:38.001Z</time></trkpt><trkpt lat="43.19491417227392" lon="-1.1614710677266575"><ele>214.6</ele><time>2026-04-29T13:34:39.001Z</time></trkpt><trkpt lat="43.19485896441809" lon="-1.1615830318643594"><ele>214.2</ele><time>2026-04-29T13:34:40.001Z</time></trkpt><trkpt lat="43.19480575038019" lon="-1.1616952528761946"><ele>213.8</ele><time>2026-04-29T13:34:41.001Z</time></trkpt><trkpt lat="43.19474886216113" lon="-1.161806177669219"><ele>213.4</ele><time>2026-04-29T13:34:42.001Z</time></trkpt><trkpt lat="43.1946912669637" lon="-1.1619139557036435"><ele>213.0</ele><time>2026-04-29T13:34:43.001Z</time></trkpt><trkpt lat="43.194635482612085" lon="-1.1620247829994752"><ele>213.8</ele><time>2026-04-29T13:34:44.001Z</time></trkpt><trkpt lat="43.19457939012042" lon="-1.1621336285792105"><ele>214.60000000000002</ele><time>2026-04-29T13:34:45.001Z</time></trkpt><trkpt lat="43.19452309877765" lon="-1.1622426673535242"><ele>215.39999999999998</ele><time>2026-04-29T13:34:46.001Z</time></trkpt><trkpt lat="43.19446717319203" lon="-1.1623503121074272"><ele>216.2</ele><time>2026-04-29T13:34:47.001Z</time></trkpt><trkpt lat="43.19441253133361" lon="-1.1624561633909665"><ele>217.0</ele><time>2026-04-29T13:34:48.001Z</time></trkpt><trkpt lat="43.19435630854087" lon="-1.162561980955831"><ele>217.0</ele><time>2026-04-29T13:34:49.001Z</time></trkpt><trkpt lat="43.19430294063824" lon="-1.1626680038612736"><ele>217.0</ele><time>2026-04-29T13:34:50.001Z</time></trkpt><trkpt lat="43.194251847975785" lon="-1.1627719176319524"><ele>217.0</ele><time>2026-04-29T13:34:51.001Z</time></trkpt><trkpt lat="43.19420015024907" lon="-1.16287275281127"><ele>217.0</ele><time>2026-04-29T13:34:52.001Z</time></trkpt><trkpt lat="43.194148892243334" lon="-1.1629721521445058"><ele>217.0</ele><time>2026-04-29T13:34:53.001Z</time></trkpt><trkpt lat="43.19409808465372" lon="-1.1630721069167105"><ele>216.99999999999997</ele><time>2026-04-29T13:34:54.002Z</time></trkpt><trkpt lat="43.19404873906348" lon="-1.163171670729181"><ele>217.0</ele><time>2026-04-29T13:34:55.002Z</time></trkpt><trkpt lat="43.19400042611172" lon="-1.1632656402009571"><ele>217.0</ele><time>2026-04-29T13:34:56.002Z</time></trkpt><trkpt lat="43.1939516912229" lon="-1.1633600957396075"><ele>217.0</ele><time>2026-04-29T13:34:57.002Z</time></trkpt><trkpt lat="43.19390434000823" lon="-1.1634579493068686"><ele>216.99999999999997</ele><time>2026-04-29T13:34:58.002Z</time></trkpt><trkpt lat="43.193855494425364" lon="-1.1635518489385883"><ele>217.0</ele><time>2026-04-29T13:34:59.002Z</time></trkpt><trkpt lat="43.19380658009795" lon="-1.1636467723400785"><ele>220.16666666666666</ele><time>2026-04-29T13:35:00.002Z</time></trkpt><trkpt lat="43.19375491944622" lon="-1.1637374100271158"><ele>223.33333333333331</ele><time>2026-04-29T13:35:01.002Z</time></trkpt><trkpt lat="43.19370209203139" lon="-1.1638275784259813"><ele>226.5</ele><time>2026-04-29T13:35:02.002Z</time></trkpt><trkpt lat="43.193649617303684" lon="-1.1639147901545108"><ele>229.66666666666669</ele><time>2026-04-29T13:35:03.002Z</time></trkpt><trkpt lat="43.19359591822142" lon="-1.164002002681223"><ele>232.83333333333334</ele><time>2026-04-29T13:35:04.002Z</time></trkpt><trkpt lat="43.19353879646183" lon="-1.1640833502810168"><ele>236.0</ele><time>2026-04-29T13:35:05.002Z</time></trkpt><trkpt lat="43.193479972049865" lon="-1.1641612211282966"><ele>236.00000000000003</ele><time>2026-04-29T13:35:06Z</time></trkpt><trkpt lat="43.193420550171" lon="-1.1642362613434365"><ele>236.0</ele><time>2026-04-29T13:35:07Z</time></trkpt><trkpt lat="43.19335754149277" lon="-1.1643102781096528"><ele>236.0</ele><time>2026-04-29T13:35:08Z</time></trkpt><trkpt lat="43.19329077462495" lon="-1.1643789394673119"><ele>236.0</ele><time>2026-04-29T13:35:09Z</time></trkpt><trkpt lat="43.19322546598778" lon="-1.1644458044368904"><ele>236.00000000000003</ele><time>2026-04-29T13:35:10Z</time></trkpt><trkpt lat="43.19315948721869" lon="-1.1645070122540235"><ele>236.0</ele><time>2026-04-29T13:35:11Z</time></trkpt><trkpt lat="43.19309287044751" lon="-1.1645657947717178"><ele>236.00000000000003</ele><time>2026-04-29T13:35:12Z</time></trkpt><trkpt lat="43.193024841276305" lon="-1.1646275196400875"><ele>236.0</ele><time>2026-04-29T13:35:13Z</time></trkpt><trkpt lat="43.192957211108855" lon="-1.1646838850236292"><ele>236.0</ele><time>2026-04-29T13:35:14Z</time></trkpt><trkpt lat="43.192888634492526" lon="-1.1647406655691555"><ele>236.0</ele><time>2026-04-29T13:35:15Z</time></trkpt><trkpt lat="43.1928179201094" lon="-1.1647943020723803"><ele>236.00000000000003</ele><time>2026-04-29T13:35:16Z</time></trkpt><trkpt lat="43.192746009266024" lon="-1.1648465159985866"><ele>236.0</ele><time>2026-04-29T13:35:17Z</time></trkpt><trkpt lat="43.19267174202657" lon="-1.1648989898138333"><ele>236.00000000000003</ele><time>2026-04-29T13:35:18Z</time></trkpt><trkpt lat="43.192595466992074" lon="-1.1649453681840383"><ele>236.0</ele><time>2026-04-29T13:35:19Z</time></trkpt><trkpt lat="43.19251485601497" lon="-1.1649784406031791"><ele>236.0</ele><time>2026-04-29T13:35:20Z</time></trkpt><trkpt lat="43.19243444629695" lon="-1.1650092922603486"><ele>236.0</ele><time>2026-04-29T13:35:21Z</time></trkpt><trkpt lat="43.19235147653673" lon="-1.1650341206183605"><ele>236.00000000000003</ele><time>2026-04-29T13:35:22Z</time></trkpt><trkpt lat="43.19226949639541" lon="-1.1650526210869168"><ele>236.0</ele><time>2026-04-29T13:35:23Z</time></trkpt><trkpt lat="43.192189730387796" lon="-1.1650614855593926"><ele>236.16666666666669</ele><time>2026-04-29T13:35:24Z</time></trkpt><trkpt lat="43.19210935193917" lon="-1.1650673678856995"><ele>236.33333333333334</ele><time>2026-04-29T13:35:25Z</time></trkpt><trkpt lat="43.192029301014585" lon="-1.1650743710568212"><ele>236.5</ele><time>2026-04-29T13:35:26Z</time></trkpt><trkpt lat="43.19194937226536" lon="-1.1650736369514618"><ele>236.66666666666669</ele><time>2026-04-29T13:35:27Z</time></trkpt><trkpt lat="43.191868232800815" lon="-1.1650721309849277"><ele>236.83333333333334</ele><time>2026-04-29T13:35:28Z</time></trkpt><trkpt lat="43.19178644255875" lon="-1.1650698880579982"><ele>237.0</ele><time>2026-04-29T13:35:29Z</time></trkpt><trkpt lat="43.19170237452592" lon="-1.1650722686715618"><ele>237.0</ele><time>2026-04-29T13:35:30Z</time></trkpt><trkpt lat="43.19161725272557" lon="-1.1650751196128184"><ele>237.0</ele><time>2026-04-29T13:35:31Z</time></trkpt><trkpt lat="43.191527040274885" lon="-1.1650799324513514"><ele>237.0</ele><time>2026-04-29T13:35:32Z</time></trkpt><trkpt lat="43.19143378439901" lon="-1.1650826107423908"><ele>237.0</ele><time>2026-04-29T13:35:33Z</time></trkpt><trkpt lat="43.19134188410497" lon="-1.1650963253295428"><ele>237.0</ele><time>2026-04-29T13:35:34Z</time></trkpt><trkpt lat="43.191248012525094" lon="-1.1651182959875637"><ele>235.39999999999998</ele><time>2026-04-29T13:35:35Z</time></trkpt><trkpt lat="43.19115653349022" lon="-1.1651502490219499"><ele>233.79999999999998</ele><time>2026-04-29T13:35:36Z</time></trkpt><trkpt lat="43.19106598406524" lon="-1.1651965979721728"><ele>232.2</ele><time>2026-04-29T13:35:37Z</time></trkpt><trkpt lat="43.19097603333335" lon="-1.1652619961594783"><ele>230.6</ele><time>2026-04-29T13:35:38Z</time></trkpt><trkpt lat="43.19089009263177" lon="-1.165333627495932"><ele>229.0</ele><time>2026-04-29T13:35:39Z</time></trkpt><trkpt lat="43.190810755915635" lon="-1.1654122095183543"><ele>229.0</ele><time>2026-04-29T13:35:40Z</time></trkpt><trkpt lat="43.19073412170181" lon="-1.1654905472018726"><ele>228.99999999999997</ele><time>2026-04-29T13:35:41Z</time></trkpt><trkpt lat="43.19065543930862" lon="-1.1655722081299917"><ele>228.99999999999997</ele><time>2026-04-29T13:35:42Z</time></trkpt><trkpt lat="43.19057919034859" lon="-1.1656572800394074"><ele>229.0</ele><time>2026-04-29T13:35:43Z</time></trkpt><trkpt lat="43.19050209640811" lon="-1.1657439736044097"><ele>229.0</ele><time>2026-04-29T13:35:44Z</time></trkpt><trkpt lat="43.190424941689734" lon="-1.1658291844448636"><ele>228.39999999999998</ele><time>2026-04-29T13:35:45Z</time></trkpt><trkpt lat="43.190348087757805" lon="-1.1659118361532643"><ele>227.79999999999998</ele><time>2026-04-29T13:35:46Z</time></trkpt><trkpt lat="43.19027020376027" lon="-1.165998282208803"><ele>227.20000000000002</ele><time>2026-04-29T13:35:47.001Z</time></trkpt><trkpt lat="43.190192669977776" lon="-1.1660799892385676"><ele>226.60000000000002</ele><time>2026-04-29T13:35:48.001Z</time></trkpt><trkpt lat="43.19011451021755" lon="-1.1661619198777669"><ele>226.0</ele><time>2026-04-29T13:35:49.001Z</time></trkpt><trkpt lat="43.19003447689497" lon="-1.1662416835598681"><ele>226.0</ele><time>2026-04-29T13:35:50.001Z</time></trkpt><trkpt lat="43.189954070278624" lon="-1.1663212674547625"><ele>226.00000000000003</ele><time>2026-04-29T13:35:51.001Z</time></trkpt><trkpt lat="43.18987571122802" lon="-1.1664047910153341"><ele>226.00000000000003</ele><time>2026-04-29T13:35:52.001Z</time></trkpt><trkpt lat="43.189798494758044" lon="-1.1664876471838082"><ele>226.0</ele><time>2026-04-29T13:35:53.001Z</time></trkpt><trkpt lat="43.18972393496763" lon="-1.1665749662977591"><ele>226.0</ele><time>2026-04-29T13:35:54.001Z</time></trkpt><trkpt lat="43.18965158731645" lon="-1.1666664194025493"><ele>225.20000000000002</ele><time>2026-04-29T13:35:55.001Z</time></trkpt><trkpt lat="43.18957788517618" lon="-1.1667548225038642"><ele>224.40000000000003</ele><time>2026-04-29T13:35:56.001Z</time></trkpt><trkpt lat="43.18950383845931" lon="-1.1668416531167354"><ele>223.6</ele><time>2026-04-29T13:35:57.001Z</time></trkpt><trkpt lat="43.18942690737584" lon="-1.166925772966436"><ele>222.8</ele><time>2026-04-29T13:35:58.001Z</time></trkpt><trkpt lat="43.189349689312785" lon="-1.1670076270181946"><ele>222.0</ele><time>2026-04-29T13:35:59.001Z</time></trkpt><trkpt lat="43.18927630104429" lon="-1.1670929044784952"><ele>222.0</ele><time>2026-04-29T13:36:00.001Z</time></trkpt><trkpt lat="43.18920184590295" lon="-1.1671779937177065"><ele>222.0</ele><time>2026-04-29T13:36:01.001Z</time></trkpt><trkpt lat="43.18912384586895" lon="-1.1672579023578187"><ele>222.0</ele><time>2026-04-29T13:36:02.001Z</time></trkpt><trkpt lat="43.18904722246892" lon="-1.1673395572537277"><ele>222.0</ele><time>2026-04-29T13:36:03.001Z</time></trkpt><trkpt lat="43.18897220125295" lon="-1.167423163603752"><ele>222.0</ele><time>2026-04-29T13:36:04.001Z</time></trkpt><trkpt lat="43.18889725833064" lon="-1.1675054755101477"><ele>221.6</ele><time>2026-04-29T13:36:05.001Z</time></trkpt><trkpt lat="43.18882308569014" lon="-1.1675859689394479"><ele>221.2</ele><time>2026-04-29T13:36:06.001Z</time></trkpt><trkpt lat="43.188749158663775" lon="-1.1676668600518827"><ele>220.8</ele><time>2026-04-29T13:36:07.001Z</time></trkpt><trkpt lat="43.18867630489067" lon="-1.167750512223905"><ele>220.4</ele><time>2026-04-29T13:36:08.001Z</time></trkpt><trkpt lat="43.18860312710639" lon="-1.1678324880143085"><ele>220.0</ele><time>2026-04-29T13:36:09.001Z</time></trkpt><trkpt lat="43.18852716296743" lon="-1.1679145956148267"><ele>220.0</ele><time>2026-04-29T13:36:10.001Z</time></trkpt><trkpt lat="43.188450598304385" lon="-1.1679952875458128"><ele>220.0</ele><time>2026-04-29T13:36:11.001Z</time></trkpt><trkpt lat="43.188374186982166" lon="-1.1680738147009557"><ele>220.0</ele><time>2026-04-29T13:36:12.001Z</time></trkpt><trkpt lat="43.18829853648208" lon="-1.1681488380698053"><ele>220.0</ele><time>2026-04-29T13:36:13.001Z</time></trkpt><trkpt lat="43.18822196973478" lon="-1.1682192102084867"><ele>220.0</ele><time>2026-04-29T13:36:14.001Z</time></trkpt><trkpt lat="43.188143418363815" lon="-1.1682854228179114"><ele>218.99999999999997</ele><time>2026-04-29T13:36:15.001Z</time></trkpt><trkpt lat="43.188065714077176" lon="-1.1683508519833938"><ele>218.0</ele><time>2026-04-29T13:36:16.001Z</time></trkpt><trkpt lat="43.187990311104755" lon="-1.168416406027953"><ele>217.0</ele><time>2026-04-29T13:36:17.001Z</time></trkpt><trkpt lat="43.187914500087714" lon="-1.1684855805600487"><ele>216.0</ele><time>2026-04-29T13:36:18.001Z</time></trkpt><trkpt lat="43.18783930170003" lon="-1.1685483002748984"><ele>214.99999999999997</ele><time>2026-04-29T13:36:19.001Z</time></trkpt><trkpt lat="43.187765945983344" lon="-1.1686122117870332"><ele>214.0</ele><time>2026-04-29T13:36:20.001Z</time></trkpt><trkpt lat="43.18769248566184" lon="-1.1686763560630447"><ele>214.0</ele><time>2026-04-29T13:36:21.001Z</time></trkpt><trkpt lat="43.18761698229049" lon="-1.1687413156606965"><ele>213.99999999999997</ele><time>2026-04-29T13:36:22.001Z</time></trkpt><trkpt lat="43.187540816935986" lon="-1.1688100569695692"><ele>213.99999999999997</ele><time>2026-04-29T13:36:23.001Z</time></trkpt><trkpt lat="43.18746273607156" lon="-1.1688745632550874"><ele>214.0</ele><time>2026-04-29T13:36:24.001Z</time></trkpt><trkpt lat="43.18738667876103" lon="-1.1689396799397231"><ele>214.0</ele><time>2026-04-29T13:36:25.001Z</time></trkpt><trkpt lat="43.18731011390396" lon="-1.1690038359817037"><ele>212.39999999999998</ele><time>2026-04-29T13:36:26.001Z</time></trkpt><trkpt lat="43.18723294973567" lon="-1.169070008395658"><ele>210.79999999999998</ele><time>2026-04-29T13:36:27.001Z</time></trkpt><trkpt lat="43.18716003325405" lon="-1.1691381981261348"><ele>209.2</ele><time>2026-04-29T13:36:28.001Z</time></trkpt><trkpt lat="43.187082794147535" lon="-1.1692082533811308"><ele>207.60000000000002</ele><time>2026-04-29T13:36:29.001Z</time></trkpt><trkpt lat="43.18700457060612" lon="-1.1692758230071594"><ele>206.0</ele><time>2026-04-29T13:36:30.001Z</time></trkpt><trkpt lat="43.18692538902412" lon="-1.1693419382103312"><ele>206.00000000000003</ele><time>2026-04-29T13:36:31.001Z</time></trkpt><trkpt lat="43.186847924056586" lon="-1.1694092671016105"><ele>206.0</ele><time>2026-04-29T13:36:32.001Z</time></trkpt><trkpt lat="43.18677428506221" lon="-1.1694755214902046"><ele>206.0</ele><time>2026-04-29T13:36:33.001Z</time></trkpt><trkpt lat="43.186700564374775" lon="-1.1695394527632046"><ele>206.0</ele><time>2026-04-29T13:36:34.001Z</time></trkpt><trkpt lat="43.18662841910295" lon="-1.1696061633207775"><ele>206.00000000000003</ele><time>2026-04-29T13:36:35.001Z</time></trkpt><trkpt lat="43.18655386206247" lon="-1.1696697038729869"><ele>206.0</ele><time>2026-04-29T13:36:36.001Z</time></trkpt><trkpt lat="43.18647827550748" lon="-1.1697386391222915"><ele>205.16666666666669</ele><time>2026-04-29T13:36:37.001Z</time></trkpt><trkpt lat="43.18640174479548" lon="-1.1698036838974484"><ele>204.33333333333334</ele><time>2026-04-29T13:36:38.001Z</time></trkpt><trkpt lat="43.186326039869265" lon="-1.1698711316447992"><ele>203.5</ele><time>2026-04-29T13:36:39.001Z</time></trkpt><trkpt lat="43.18625126749744" lon="-1.1699338792823302"><ele>202.66666666666669</ele><time>2026-04-29T13:36:40.001Z</time></trkpt><trkpt lat="43.18617864035022" lon="-1.1699956575992694"><ele>201.83333333333334</ele><time>2026-04-29T13:36:41.001Z</time></trkpt><trkpt lat="43.18610716167772" lon="-1.17005954319634"><ele>201.0</ele><time>2026-04-29T13:36:42.001Z</time></trkpt><trkpt lat="43.18603655499641" lon="-1.1701225307011136"><ele>201.0</ele><time>2026-04-29T13:36:43.001Z</time></trkpt><trkpt lat="43.18596323912272" lon="-1.170185368870799"><ele>201.0</ele><time>2026-04-29T13:36:44.001Z</time></trkpt><trkpt lat="43.1858914980296" lon="-1.1702482001318615"><ele>201.0</ele><time>2026-04-29T13:36:45.001Z</time></trkpt><trkpt lat="43.1858207516877" lon="-1.1703110827648182"><ele>201.0</ele><time>2026-04-29T13:36:46.001Z</time></trkpt><trkpt lat="43.185747493703" lon="-1.1703744291161136"><ele>201.0</ele><time>2026-04-29T13:36:47.001Z</time></trkpt><trkpt lat="43.18567192105972" lon="-1.1704388489771869"><ele>201.0</ele><time>2026-04-29T13:36:48.001Z</time></trkpt><trkpt lat="43.18559805240916" lon="-1.1705037053220153"><ele>200.60000000000002</ele><time>2026-04-29T13:36:49.001Z</time></trkpt><trkpt lat="43.18552339121902" lon="-1.170571737877042"><ele>200.2</ele><time>2026-04-29T13:36:50.001Z</time></trkpt><trkpt lat="43.18544671926054" lon="-1.170637292371955"><ele>199.8</ele><time>2026-04-29T13:36:51.001Z</time></trkpt><trkpt lat="43.18536886165011" lon="-1.1707040107333335"><ele>199.39999999999998</ele><time>2026-04-29T13:36:52.001Z</time></trkpt><trkpt lat="43.185288256483965" lon="-1.1707685950106432"><ele>199.0</ele><time>2026-04-29T13:36:53.001Z</time></trkpt><trkpt lat="43.185206972919005" lon="-1.1708325968216506"><ele>199.0</ele><time>2026-04-29T13:36:54.001Z</time></trkpt><trkpt lat="43.18512673199343" lon="-1.170896624348252"><ele>199.0</ele><time>2026-04-29T13:36:55.001Z</time></trkpt><trkpt lat="43.18505080143138" lon="-1.170970705666874"><ele>199.0</ele><time>2026-04-29T13:36:56.001Z</time></trkpt><trkpt lat="43.184974890088185" lon="-1.171041851839739"><ele>199.0</ele><time>2026-04-29T13:36:57.001Z</time></trkpt><trkpt lat="43.184899865719096" lon="-1.1711099833457013"><ele>199.0</ele><time>2026-04-29T13:36:58.001Z</time></trkpt><trkpt lat="43.18482362649122" lon="-1.1711703711690429"><ele>198.83333333333331</ele><time>2026-04-29T13:36:59.001Z</time></trkpt><trkpt lat="43.18474902052057" lon="-1.171233626851494"><ele>198.66666666666666</ele><time>2026-04-29T13:37:00.001Z</time></trkpt><trkpt lat="43.184677400558094" lon="-1.1713025862888438"><ele>198.5</ele><time>2026-04-29T13:37:01.001Z</time></trkpt><trkpt lat="43.18460536170657" lon="-1.1713689606873139"><ele>198.33333333333331</ele><time>2026-04-29T13:37:02.001Z</time></trkpt><trkpt lat="43.184531762920216" lon="-1.1714384570156922"><ele>198.16666666666666</ele><time>2026-04-29T13:37:03.001Z</time></trkpt><trkpt lat="43.18445734906402" lon="-1.1715045911929056"><ele>198.0</ele><time>2026-04-29T13:37:04.001Z</time></trkpt><trkpt lat="43.184385402514934" lon="-1.1715751969367225"><ele>198.0</ele><time>2026-04-29T13:37:05.001Z</time></trkpt><trkpt lat="43.18431441821888" lon="-1.1716462153182698"><ele>198.0</ele><time>2026-04-29T13:37:06.001Z</time></trkpt><trkpt lat="43.18424380979677" lon="-1.171721873774598"><ele>198.0</ele><time>2026-04-29T13:37:07.001Z</time></trkpt><trkpt lat="43.184170103634216" lon="-1.171801502570466"><ele>198.0</ele><time>2026-04-29T13:37:08.001Z</time></trkpt><trkpt lat="43.18409818137142" lon="-1.1718865294487064"><ele>198.0</ele><time>2026-04-29T13:37:09.001Z</time></trkpt><trkpt lat="43.18403077552498" lon="-1.1719712274902865"><ele>198.83333333333334</ele><time>2026-04-29T13:37:10.001Z</time></trkpt><trkpt lat="43.18396790859585" lon="-1.17205894210177"><ele>199.66666666666669</ele><time>2026-04-29T13:37:11.002Z</time></trkpt><trkpt lat="43.183912666664725" lon="-1.1721499062492613"><ele>200.5</ele><time>2026-04-29T13:37:12Z</time></trkpt><trkpt lat="43.18386276808558" lon="-1.1722440642082228"><ele>201.33333333333334</ele><time>2026-04-29T13:37:13Z</time></trkpt><trkpt lat="43.18381689033681" lon="-1.1723437836937112"><ele>202.16666666666669</ele><time>2026-04-29T13:37:14Z</time></trkpt><trkpt lat="43.18377539078634" lon="-1.1724417450429212"><ele>203.0</ele><time>2026-04-29T13:37:15Z</time></trkpt><trkpt lat="43.183733644424706" lon="-1.1725403105218877"><ele>203.00000000000003</ele><time>2026-04-29T13:37:16Z</time></trkpt><trkpt lat="43.18369436846724" lon="-1.1726373616594017"><ele>203.0</ele><time>2026-04-29T13:37:17Z</time></trkpt><trkpt lat="43.18366329041658" lon="-1.172738492349482"><ele>203.0</ele><time>2026-04-29T13:37:18Z</time></trkpt><trkpt lat="43.183633114701756" lon="-1.1728446653620463"><ele>203.0</ele><time>2026-04-29T13:37:19Z</time></trkpt><trkpt lat="43.183604567436056" lon="-1.1729543633356754"><ele>203.00000000000003</ele><time>2026-04-29T13:37:20Z</time></trkpt><trkpt lat="43.183577552897624" lon="-1.1730630780343878"><ele>203.0</ele><time>2026-04-29T13:37:21Z</time></trkpt><trkpt lat="43.183555924902095" lon="-1.173174840557669"><ele>202.66666666666669</ele><time>2026-04-29T13:37:22Z</time></trkpt><trkpt lat="43.18353578354399" lon="-1.1732884141403253"><ele>202.33333333333334</ele><time>2026-04-29T13:37:23Z</time></trkpt><trkpt lat="43.183515257400316" lon="-1.1734007786662215"><ele>202.0</ele><time>2026-04-29T13:37:24Z</time></trkpt><trkpt lat="43.183494913600015" lon="-1.1735135666358336"><ele>201.66666666666669</ele><time>2026-04-29T13:37:25Z</time></trkpt><trkpt lat="43.183473763513284" lon="-1.1736252021822067"><ele>201.33333333333334</ele><time>2026-04-29T13:37:26Z</time></trkpt><trkpt lat="43.183451963575656" lon="-1.173735765125548"><ele>201.0</ele><time>2026-04-29T13:37:27Z</time></trkpt><trkpt lat="43.18343008290965" lon="-1.1738469011446127"><ele>201.0</ele><time>2026-04-29T13:37:28Z</time></trkpt><trkpt lat="43.18340718589191" lon="-1.17395852882801"><ele>201.0</ele><time>2026-04-29T13:37:29Z</time></trkpt><trkpt lat="43.183384955794565" lon="-1.1740706113381534"><ele>201.0</ele><time>2026-04-29T13:37:30Z</time></trkpt><trkpt lat="43.183361942526176" lon="-1.1741833670224444"><ele>201.0</ele><time>2026-04-29T13:37:31Z</time></trkpt><trkpt lat="43.18333896919716" lon="-1.174295784701837"><ele>201.0</ele><time>2026-04-29T13:37:32Z</time></trkpt><trkpt lat="43.18331594823916" lon="-1.1744092983147225"><ele>201.0</ele><time>2026-04-29T13:37:33Z</time></trkpt><trkpt lat="43.183290856051336" lon="-1.1745225812829108"><ele>200.66666666666666</ele><time>2026-04-29T13:37:34Z</time></trkpt><trkpt lat="43.18326876923658" lon="-1.1746379081417535"><ele>200.33333333333331</ele><time>2026-04-29T13:37:35Z</time></trkpt><trkpt lat="43.18324837848018" lon="-1.1747533206720673"><ele>200.0</ele><time>2026-04-29T13:37:36Z</time></trkpt><trkpt lat="43.18322907754558" lon="-1.174869886913828"><ele>199.66666666666666</ele><time>2026-04-29T13:37:37Z</time></trkpt><trkpt lat="43.183208543427725" lon="-1.174987118646765"><ele>199.33333333333331</ele><time>2026-04-29T13:37:38Z</time></trkpt><trkpt lat="43.18318865017699" lon="-1.175103303098722"><ele>199.0</ele><time>2026-04-29T13:37:39Z</time></trkpt><trkpt lat="43.18316990072371" lon="-1.175220015417455"><ele>199.83333333333331</ele><time>2026-04-29T13:37:40Z</time></trkpt><trkpt lat="43.18315058399841" lon="-1.175333325307219"><ele>200.66666666666666</ele><time>2026-04-29T13:37:41Z</time></trkpt><trkpt lat="43.18312954336152" lon="-1.1754463414096799"><ele>201.5</ele><time>2026-04-29T13:37:42Z</time></trkpt><trkpt lat="43.1831110578342" lon="-1.1755592921784868"><ele>202.33333333333331</ele><time>2026-04-29T13:37:43Z</time></trkpt><trkpt lat="43.18308994568077" lon="-1.175678697959482"><ele>203.16666666666666</ele><time>2026-04-29T13:37:44Z</time></trkpt><trkpt lat="43.1830671765156" lon="-1.1757921804131588"><ele>204.0</ele><time>2026-04-29T13:37:45Z</time></trkpt><trkpt lat="43.18304397656872" lon="-1.175903561303938"><ele>204.5</ele><time>2026-04-29T13:37:46Z</time></trkpt><trkpt lat="43.18301913268282" lon="-1.1760137031107323"><ele>205.0</ele><time>2026-04-29T13:37:47Z</time></trkpt><trkpt lat="43.18298926244767" lon="-1.176123460178551"><ele>205.5</ele><time>2026-04-29T13:37:48Z</time></trkpt><trkpt lat="43.182950663951544" lon="-1.1762303696939287"><ele>206.0</ele><time>2026-04-29T13:37:49Z</time></trkpt><trkpt lat="43.182906060681866" lon="-1.1763324934578587"><ele>206.5</ele><time>2026-04-29T13:37:50Z</time></trkpt><trkpt lat="43.182855429916295" lon="-1.1764288419537858"><ele>207.0</ele><time>2026-04-29T13:37:51Z</time></trkpt><trkpt lat="43.18280110510697" lon="-1.176518562990503"><ele>206.5</ele><time>2026-04-29T13:37:52Z</time></trkpt><trkpt lat="43.182740902615855" lon="-1.176607642391045"><ele>206.0</ele><time>2026-04-29T13:37:53Z</time></trkpt><trkpt lat="43.182678475085304" lon="-1.1766933387028875"><ele>205.5</ele><time>2026-04-29T13:37:54Z</time></trkpt><trkpt lat="43.182617157418576" lon="-1.176779613261988"><ele>205.0</ele><time>2026-04-29T13:37:55Z</time></trkpt><trkpt lat="43.182553491401386" lon="-1.1768618822707118"><ele>204.5</ele><time>2026-04-29T13:37:56Z</time></trkpt><trkpt lat="43.18248541446107" lon="-1.1769414340483964"><ele>204.0</ele><time>2026-04-29T13:37:57Z</time></trkpt><trkpt lat="43.18241519705266" lon="-1.1770187827207714"><ele>204.2</ele><time>2026-04-29T13:37:58Z</time></trkpt><trkpt lat="43.18234395647369" lon="-1.1770949904596681"><ele>204.39999999999998</ele><time>2026-04-29T13:37:59Z</time></trkpt><trkpt lat="43.1822734486083" lon="-1.177172636695518"><ele>204.6</ele><time>2026-04-29T13:38:00Z</time></trkpt><trkpt lat="43.18220282615582" lon="-1.1772513918610987"><ele>204.8</ele><time>2026-04-29T13:38:01Z</time></trkpt><trkpt lat="43.18213062312924" lon="-1.1773266726807154"><ele>205.0</ele><time>2026-04-29T13:38:02Z</time></trkpt><trkpt lat="43.18205584095921" lon="-1.1773971755589305"><ele>203.99999999999997</ele><time>2026-04-29T13:38:03Z</time></trkpt><trkpt lat="43.181980633157664" lon="-1.1774647801532085"><ele>203.0</ele><time>2026-04-29T13:38:04Z</time></trkpt><trkpt lat="43.18190471604926" lon="-1.177530533169462"><ele>202.0</ele><time>2026-04-29T13:38:05Z</time></trkpt><trkpt lat="43.181827742575365" lon="-1.1775941827082925"><ele>201.0</ele><time>2026-04-29T13:38:06Z</time></trkpt><trkpt lat="43.181750993036474" lon="-1.177657591779392"><ele>199.99999999999997</ele><time>2026-04-29T13:38:07Z</time></trkpt><trkpt lat="43.18167424280161" lon="-1.1777227324452961"><ele>199.0</ele><time>2026-04-29T13:38:08Z</time></trkpt><trkpt lat="43.181596114815314" lon="-1.1777881610716792"><ele>199.0</ele><time>2026-04-29T13:38:09Z</time></trkpt><trkpt lat="43.181520255245964" lon="-1.177855342558378"><ele>199.0</ele><time>2026-04-29T13:38:10Z</time></trkpt><trkpt lat="43.1814428118371" lon="-1.1779243606976608"><ele>199.0</ele><time>2026-04-29T13:38:11.001Z</time></trkpt><trkpt lat="43.18136580630246" lon="-1.1779944926680226"><ele>199.0</ele><time>2026-04-29T13:38:12.001Z</time></trkpt><trkpt lat="43.18129017668609" lon="-1.1780666271522962"><ele>199.0</ele><time>2026-04-29T13:38:13.001Z</time></trkpt><trkpt lat="43.18120995030918" lon="-1.178130542930139"><ele>199.2</ele><time>2026-04-29T13:38:14.001Z</time></trkpt><trkpt lat="43.181130617030114" lon="-1.1781949044201876"><ele>199.39999999999998</ele><time>2026-04-29T13:38:15.001Z</time></trkpt><trkpt lat="43.18104953764636" lon="-1.178255855484707"><ele>199.6</ele><time>2026-04-29T13:38:16.001Z</time></trkpt><trkpt lat="43.18096630184114" lon="-1.1783166246700798"><ele>199.8</ele><time>2026-04-29T13:38:17.001Z</time></trkpt><trkpt lat="43.18088579033879" lon="-1.1783825535671337"><ele>200.0</ele><time>2026-04-29T13:38:18.001Z</time></trkpt><trkpt lat="43.180803876222086" lon="-1.1784472945376576"><ele>200.0</ele><time>2026-04-29T13:38:19.001Z</time></trkpt><trkpt lat="43.18072285965625" lon="-1.1785164660490073"><ele>200.0</ele><time>2026-04-29T13:38:20.001Z</time></trkpt><trkpt lat="43.18064022267693" lon="-1.1785845926544458"><ele>200.0</ele><time>2026-04-29T13:38:21.001Z</time></trkpt><trkpt lat="43.18056016015259" lon="-1.1786514607743066"><ele>200.0</ele><time>2026-04-29T13:38:22.001Z</time></trkpt><trkpt lat="43.18047819982501" lon="-1.1787199012818947"><ele>200.0</ele><time>2026-04-29T13:38:23.001Z</time></trkpt><trkpt lat="43.18039628415634" lon="-1.1787859375827314"><ele>200.2</ele><time>2026-04-29T13:38:24.001Z</time></trkpt><trkpt lat="43.18031491012109" lon="-1.1788525856243366"><ele>200.4</ele><time>2026-04-29T13:38:25.001Z</time></trkpt><trkpt lat="43.18023560882221" lon="-1.1789179646020076"><ele>200.60000000000002</ele><time>2026-04-29T13:38:26.001Z</time></trkpt><trkpt lat="43.180154532637744" lon="-1.1789803662112666"><ele>200.8</ele><time>2026-04-29T13:38:27.001Z</time></trkpt><trkpt lat="43.180076149353404" lon="-1.1790461826507537"><ele>201.0</ele><time>2026-04-29T13:38:28.001Z</time></trkpt><trkpt lat="43.18000046039043" lon="-1.1791123774151968"><ele>201.0</ele><time>2026-04-29T13:38:29.001Z</time></trkpt><trkpt lat="43.17992490484509" lon="-1.179175045228332"><ele>201.0</ele><time>2026-04-29T13:38:30.001Z</time></trkpt><trkpt lat="43.179849359631994" lon="-1.1792380947301957"><ele>201.0</ele><time>2026-04-29T13:38:31.001Z</time></trkpt><trkpt lat="43.179774843091586" lon="-1.1792966560626135"><ele>201.0</ele><time>2026-04-29T13:38:32.001Z</time></trkpt><trkpt lat="43.179700609990455" lon="-1.1793595180720375"><ele>201.0</ele><time>2026-04-29T13:38:33.001Z</time></trkpt><trkpt lat="43.17962612556368" lon="-1.1794199003078019"><ele>201.0</ele><time>2026-04-29T13:38:34.001Z</time></trkpt><trkpt lat="43.1795533956423" lon="-1.1794800267604992"><ele>202.66666666666666</ele><time>2026-04-29T13:38:35.001Z</time></trkpt><trkpt lat="43.17948021399424" lon="-1.179541656579269"><ele>204.33333333333331</ele><time>2026-04-29T13:38:36.001Z</time></trkpt><trkpt lat="43.17940698387097" lon="-1.1796017666831125"><ele>206.0</ele><time>2026-04-29T13:38:37.001Z</time></trkpt><trkpt lat="43.17933519316428" lon="-1.1796615365942473"><ele>207.66666666666666</ele><time>2026-04-29T13:38:38.001Z</time></trkpt><trkpt lat="43.179260187316046" lon="-1.1797125703049718"><ele>209.33333333333331</ele><time>2026-04-29T13:38:39.001Z</time></trkpt><trkpt lat="43.17918815425591" lon="-1.1797744522199085"><ele>211.0</ele><time>2026-04-29T13:38:40.001Z</time></trkpt><trkpt lat="43.179113098199494" lon="-1.1798322475881626"><ele>211.8</ele><time>2026-04-29T13:38:41.001Z</time></trkpt><trkpt lat="43.17903954801815" lon="-1.1798929871799968"><ele>212.60000000000002</ele><time>2026-04-29T13:38:42.001Z</time></trkpt><trkpt lat="43.17896100165554" lon="-1.1799583253416417"><ele>213.4</ele><time>2026-04-29T13:38:43.001Z</time></trkpt><trkpt lat="43.17888182199753" lon="-1.1800183289773845"><ele>214.2</ele><time>2026-04-29T13:38:44.001Z</time></trkpt><trkpt lat="43.17880208499382" lon="-1.180082529239192"><ele>215.0</ele><time>2026-04-29T13:38:45.001Z</time></trkpt><trkpt lat="43.178723177824295" lon="-1.1801488019974413"><ele>216.0</ele><time>2026-04-29T13:38:46.001Z</time></trkpt><trkpt lat="43.1786440810455" lon="-1.1802156426311021"><ele>217.0</ele><time>2026-04-29T13:38:47.001Z</time></trkpt><trkpt lat="43.17856593414555" lon="-1.1802800380125271"><ele>218.0</ele><time>2026-04-29T13:38:48.001Z</time></trkpt><trkpt lat="43.178486261670244" lon="-1.180344252995545"><ele>219.0</ele><time>2026-04-29T13:38:49.001Z</time></trkpt><trkpt lat="43.17840541459412" lon="-1.180412374461794"><ele>220.0</ele><time>2026-04-29T13:38:50.001Z</time></trkpt><trkpt lat="43.178321790385304" lon="-1.1804814585189631"><ele>220.0</ele><time>2026-04-29T13:38:51.001Z</time></trkpt><trkpt lat="43.178237091272585" lon="-1.1805503157315094"><ele>220.0</ele><time>2026-04-29T13:38:52.001Z</time></trkpt><trkpt lat="43.17815349127359" lon="-1.1806157395419623"><ele>220.0</ele><time>2026-04-29T13:38:53.001Z</time></trkpt><trkpt lat="43.17807088042845" lon="-1.1806821829462666"><ele>220.0</ele><time>2026-04-29T13:38:54.001Z</time></trkpt><trkpt lat="43.17798562889107" lon="-1.180744526225812"><ele>220.0</ele><time>2026-04-29T13:38:55.001Z</time></trkpt><trkpt lat="43.17789916262339" lon="-1.180815958220555"><ele>218.8</ele><time>2026-04-29T13:38:56.001Z</time></trkpt><trkpt lat="43.177808343679644" lon="-1.1808858435904912"><ele>217.6</ele><time>2026-04-29T13:38:57.001Z</time></trkpt><trkpt lat="43.17771809663872" lon="-1.1809570427395233"><ele>216.39999999999998</ele><time>2026-04-29T13:38:58.001Z</time></trkpt><trkpt lat="43.17763097006867" lon="-1.1810249151406205"><ele>215.2</ele><time>2026-04-29T13:38:59.001Z</time></trkpt><trkpt lat="43.17754101065102" lon="-1.1810949474075598"><ele>214.0</ele><time>2026-04-29T13:39:00.001Z</time></trkpt><trkpt lat="43.17745074316306" lon="-1.181170703337001"><ele>214.0</ele><time>2026-04-29T13:39:01.001Z</time></trkpt><trkpt lat="43.17736074395468" lon="-1.1812471100766038"><ele>213.99999999999997</ele><time>2026-04-29T13:39:02.001Z</time></trkpt><trkpt lat="43.17726775905694" lon="-1.1813227775053505"><ele>213.99999999999997</ele><time>2026-04-29T13:39:03.001Z</time></trkpt><trkpt lat="43.177176123620065" lon="-1.1813957515535674"><ele>214.0</ele><time>2026-04-29T13:39:04.001Z</time></trkpt><trkpt lat="43.177081846344436" lon="-1.181472475244942"><ele>214.0</ele><time>2026-04-29T13:39:05.001Z</time></trkpt><trkpt lat="43.17698886932871" lon="-1.1815494222648772"><ele>211.79999999999998</ele><time>2026-04-29T13:39:06.001Z</time></trkpt><trkpt lat="43.17689565343213" lon="-1.1816234280294249"><ele>209.59999999999997</ele><time>2026-04-29T13:39:07.001Z</time></trkpt><trkpt lat="43.176806057928914" lon="-1.1816951167373022"><ele>207.4</ele><time>2026-04-29T13:39:08.001Z</time></trkpt><trkpt lat="43.17670916914509" lon="-1.181768553368975"><ele>205.2</ele><time>2026-04-29T13:39:09.001Z</time></trkpt><trkpt lat="43.1766167164978" lon="-1.1818454743392186"><ele>203.0</ele><time>2026-04-29T13:39:10.001Z</time></trkpt><trkpt lat="43.17652318323493" lon="-1.1819204934801073"><ele>203.8</ele><time>2026-04-29T13:39:11.001Z</time></trkpt><trkpt lat="43.17643005132032" lon="-1.1819961172708418"><ele>204.60000000000002</ele><time>2026-04-29T13:39:12.001Z</time></trkpt><trkpt lat="43.17633540617878" lon="-1.1820713894986454"><ele>205.39999999999998</ele><time>2026-04-29T13:39:13.001Z</time></trkpt><trkpt lat="43.176244934675" lon="-1.1821435860642227"><ele>206.2</ele><time>2026-04-29T13:39:14.001Z</time></trkpt><trkpt lat="43.176151440260156" lon="-1.1822193361110112"><ele>207.0</ele><time>2026-04-29T13:39:15.001Z</time></trkpt><trkpt lat="43.17605829365419" lon="-1.1822920128318346"><ele>204.8</ele><time>2026-04-29T13:39:16.001Z</time></trkpt><trkpt lat="43.175965380967156" lon="-1.1823640239599629"><ele>202.6</ele><time>2026-04-29T13:39:17.001Z</time></trkpt><trkpt lat="43.17587405512674" lon="-1.1824386463433605"><ele>200.4</ele><time>2026-04-29T13:39:18Z</time></trkpt><trkpt lat="43.175780754272154" lon="-1.1825096739188306"><ele>198.20000000000002</ele><time>2026-04-29T13:39:19Z</time></trkpt><trkpt lat="43.175689824683325" lon="-1.1825807597973677"><ele>196.0</ele><time>2026-04-29T13:39:20Z</time></trkpt><trkpt lat="43.17559800506113" lon="-1.1826531775168185"><ele>196.0</ele><time>2026-04-29T13:39:21Z</time></trkpt><trkpt lat="43.175509693448866" lon="-1.1827227677886951"><ele>196.0</ele><time>2026-04-29T13:39:22Z</time></trkpt><trkpt lat="43.175418405838606" lon="-1.1827952661040453"><ele>196.0</ele><time>2026-04-29T13:39:23Z</time></trkpt><trkpt lat="43.17532883850863" lon="-1.1828727455832668"><ele>196.0</ele><time>2026-04-29T13:39:24Z</time></trkpt><trkpt lat="43.17523669796609" lon="-1.1829429293112168"><ele>196.0</ele><time>2026-04-29T13:39:25Z</time></trkpt><trkpt lat="43.17514660286487" lon="-1.1830154218851012"><ele>196.0</ele><time>2026-04-29T13:39:26Z</time></trkpt><trkpt lat="43.17505868824107" lon="-1.1830925172060918"><ele>196.0</ele><time>2026-04-29T13:39:27Z</time></trkpt><trkpt lat="43.17496769221245" lon="-1.1831652106153436"><ele>196.0</ele><time>2026-04-29T13:39:28Z</time></trkpt><trkpt lat="43.17487859378124" lon="-1.1832370822984641"><ele>196.0</ele><time>2026-04-29T13:39:29Z</time></trkpt><trkpt lat="43.17478911974961" lon="-1.1833060167968792"><ele>196.0</ele><time>2026-04-29T13:39:30Z</time></trkpt><trkpt lat="43.17470141231122" lon="-1.1833707039570542"><ele>195.20000000000002</ele><time>2026-04-29T13:39:31Z</time></trkpt><trkpt lat="43.17461115089341" lon="-1.183442513646567"><ele>194.4</ele><time>2026-04-29T13:39:32Z</time></trkpt><trkpt lat="43.174521727948814" lon="-1.183511588235075"><ele>193.6</ele><time>2026-04-29T13:39:33Z</time></trkpt><trkpt lat="43.17443298166028" lon="-1.1835872681856143"><ele>192.8</ele><time>2026-04-29T13:39:34Z</time></trkpt><trkpt lat="43.17434591418944" lon="-1.1836583685144324"><ele>192.0</ele><time>2026-04-29T13:39:35Z</time></trkpt><trkpt lat="43.17426191523332" lon="-1.1837307749789787"><ele>192.0</ele><time>2026-04-29T13:39:36Z</time></trkpt><trkpt lat="43.17417900330019" lon="-1.18380066763441"><ele>192.0</ele><time>2026-04-29T13:39:37Z</time></trkpt><trkpt lat="43.17409532843634" lon="-1.1838659888431302"><ele>192.0</ele><time>2026-04-29T13:39:38Z</time></trkpt><trkpt lat="43.17401368156043" lon="-1.183932226073923"><ele>192.0</ele><time>2026-04-29T13:39:39Z</time></trkpt><trkpt lat="43.173934100069026" lon="-1.1839982030772729"><ele>192.0</ele><time>2026-04-29T13:39:40Z</time></trkpt><trkpt lat="43.17385417343755" lon="-1.1840649454611427"><ele>194.0</ele><time>2026-04-29T13:39:41Z</time></trkpt><trkpt lat="43.173774986542576" lon="-1.1841298263876563"><ele>196.0</ele><time>2026-04-29T13:39:42Z</time></trkpt><trkpt lat="43.173695985583315" lon="-1.1841909329367182"><ele>198.0</ele><time>2026-04-29T13:39:43Z</time></trkpt><trkpt lat="43.173618284462925" lon="-1.1842535270064676"><ele>200.0</ele><time>2026-04-29T13:39:44Z</time></trkpt><trkpt lat="43.173540580883056" lon="-1.18431843142444"><ele>202.0</ele><time>2026-04-29T13:39:45Z</time></trkpt><trkpt lat="43.173462808106926" lon="-1.1843840636200609"><ele>202.0</ele><time>2026-04-29T13:39:46Z</time></trkpt><trkpt lat="43.1733823476653" lon="-1.1844475223357118"><ele>202.0</ele><time>2026-04-29T13:39:47Z</time></trkpt><trkpt lat="43.17330210353383" lon="-1.1845104993010427"><ele>202.0</ele><time>2026-04-29T13:39:48Z</time></trkpt><trkpt lat="43.17322207039218" lon="-1.1845743805800804"><ele>202.0</ele><time>2026-04-29T13:39:49Z</time></trkpt><trkpt lat="43.173142989417" lon="-1.1846374029660796"><ele>202.0</ele><time>2026-04-29T13:39:50Z</time></trkpt><trkpt lat="43.17306426864214" lon="-1.1847041526366429"><ele>200.6</ele><time>2026-04-29T13:39:51Z</time></trkpt><trkpt lat="43.17298281731671" lon="-1.1847656608839605"><ele>199.2</ele><time>2026-04-29T13:39:52Z</time></trkpt><trkpt lat="43.17290128510539" lon="-1.1848282130983825"><ele>197.8</ele><time>2026-04-29T13:39:53Z</time></trkpt><trkpt lat="43.172819768873865" lon="-1.1848976365939015"><ele>196.4</ele><time>2026-04-29T13:39:54Z</time></trkpt><trkpt lat="43.17273745429964" lon="-1.1849647720956813"><ele>195.0</ele><time>2026-04-29T13:39:55Z</time></trkpt><trkpt lat="43.17265668461595" lon="-1.1850339914244676"><ele>195.0</ele><time>2026-04-29T13:39:56Z</time></trkpt><trkpt lat="43.172574132271606" lon="-1.1850989249212749"><ele>195.0</ele><time>2026-04-29T13:39:57Z</time></trkpt><trkpt lat="43.17249310363554" lon="-1.1851637683135152"><ele>195.0</ele><time>2026-04-29T13:39:58Z</time></trkpt><trkpt lat="43.172411574622615" lon="-1.1852282711027287"><ele>195.0</ele><time>2026-04-29T13:39:59Z</time></trkpt><trkpt lat="43.17233148155" lon="-1.1852925129809824"><ele>195.0</ele><time>2026-04-29T13:40:00Z</time></trkpt><trkpt lat="43.172251306741806" lon="-1.1853588523712557"><ele>195.0</ele><time>2026-04-29T13:40:01Z</time></trkpt><trkpt lat="43.17217132348709" lon="-1.1854256578124365"><ele>195.0</ele><time>2026-04-29T13:40:02Z</time></trkpt><trkpt lat="43.172089925516914" lon="-1.185490159053093"><ele>195.0</ele><time>2026-04-29T13:40:03Z</time></trkpt><trkpt lat="43.17200711747767" lon="-1.1855533588487237"><ele>195.0</ele><time>2026-04-29T13:40:04Z</time></trkpt><trkpt lat="43.17192636282755" lon="-1.185620699146805"><ele>195.0</ele><time>2026-04-29T13:40:05Z</time></trkpt><trkpt lat="43.17184690611435" lon="-1.1856821684097034"><ele>195.0</ele><time>2026-04-29T13:40:06Z</time></trkpt><trkpt lat="43.17176870317945" lon="-1.1857406828413128"><ele>195.0</ele><time>2026-04-29T13:40:07Z</time></trkpt><trkpt lat="43.17168846385403" lon="-1.1858078726782928"><ele>195.0</ele><time>2026-04-29T13:40:08Z</time></trkpt><trkpt lat="43.17160863738469" lon="-1.1858781560588467"><ele>195.0</ele><time>2026-04-29T13:40:09Z</time></trkpt><trkpt lat="43.171525672940575" lon="-1.1859477779436065"><ele>195.0</ele><time>2026-04-29T13:40:10Z</time></trkpt><trkpt lat="43.171445177010774" lon="-1.1860177746201679"><ele>196.0</ele><time>2026-04-29T13:40:11Z</time></trkpt><trkpt lat="43.171365732281245" lon="-1.1860796155642173"><ele>197.0</ele><time>2026-04-29T13:40:12Z</time></trkpt><trkpt lat="43.171287132833484" lon="-1.1861428221918058"><ele>198.0</ele><time>2026-04-29T13:40:13Z</time></trkpt><trkpt lat="43.17120838952824" lon="-1.1862074611413058"><ele>199.0</ele><time>2026-04-29T13:40:14Z</time></trkpt><trkpt lat="43.17112865768741" lon="-1.1862716128622024"><ele>200.0</ele><time>2026-04-29T13:40:15Z</time></trkpt><trkpt lat="43.171048129542775" lon="-1.1863345539940755"><ele>200.0</ele><time>2026-04-29T13:40:16Z</time></trkpt><trkpt lat="43.170969013405156" lon="-1.1863986915143696"><ele>200.0</ele><time>2026-04-29T13:40:17.001Z</time></trkpt><trkpt lat="43.17088822322001" lon="-1.1864642416078477"><ele>200.0</ele><time>2026-04-29T13:40:18.001Z</time></trkpt><trkpt lat="43.17080733661813" lon="-1.186528731825955"><ele>200.0</ele><time>2026-04-29T13:40:19.001Z</time></trkpt><trkpt lat="43.17072825263226" lon="-1.186593804626472"><ele>200.0</ele><time>2026-04-29T13:40:20.001Z</time></trkpt><trkpt lat="43.17064802437425" lon="-1.1866579628203222"><ele>199.2</ele><time>2026-04-29T13:40:21.001Z</time></trkpt><trkpt lat="43.17056775190794" lon="-1.1867204996413263"><ele>198.4</ele><time>2026-04-29T13:40:22.001Z</time></trkpt><trkpt lat="43.17048843723211" lon="-1.1867883927452396"><ele>197.60000000000002</ele><time>2026-04-29T13:40:23.001Z</time></trkpt><trkpt lat="43.17040772776736" lon="-1.1868486447248061"><ele>196.8</ele><time>2026-04-29T13:40:24.001Z</time></trkpt><trkpt lat="43.17032992641317" lon="-1.1869134419220637"><ele>196.0</ele><time>2026-04-29T13:40:25.001Z</time></trkpt><trkpt lat="43.17025264961217" lon="-1.186979679033948"><ele>196.0</ele><time>2026-04-29T13:40:26.001Z</time></trkpt><trkpt lat="43.17017369416485" lon="-1.1870453722588217"><ele>196.0</ele><time>2026-04-29T13:40:27.001Z</time></trkpt><trkpt lat="43.1700974962045" lon="-1.1871159371123972"><ele>196.0</ele><time>2026-04-29T13:40:28.001Z</time></trkpt><trkpt lat="43.17002003104068" lon="-1.1871896858061513"><ele>196.0</ele><time>2026-04-29T13:40:29.001Z</time></trkpt><trkpt lat="43.169947580008184" lon="-1.1872757786345949"><ele>196.0</ele><time>2026-04-29T13:40:30.001Z</time></trkpt><trkpt lat="43.169874506792866" lon="-1.1873601798880689"><ele>195.60000000000002</ele><time>2026-04-29T13:40:31.001Z</time></trkpt><trkpt lat="43.16980453832058" lon="-1.187447178714499"><ele>195.2</ele><time>2026-04-29T13:40:32.001Z</time></trkpt><trkpt lat="43.16973890707042" lon="-1.1875349264604294"><ele>194.8</ele><time>2026-04-29T13:40:33.001Z</time></trkpt><trkpt lat="43.169678940178464" lon="-1.187626041320023"><ele>194.39999999999998</ele><time>2026-04-29T13:40:34.001Z</time></trkpt><trkpt lat="43.16962571475622" lon="-1.1877230249625643"><ele>194.0</ele><time>2026-04-29T13:40:35.001Z</time></trkpt><trkpt lat="43.16957294733276" lon="-1.1878215842537063"><ele>194.00000000000003</ele><time>2026-04-29T13:40:36.001Z</time></trkpt><trkpt lat="43.16952003691769" lon="-1.1879198604078296"><ele>194.0</ele><time>2026-04-29T13:40:37.001Z</time></trkpt><trkpt lat="43.16946849366816" lon="-1.1880170373740382"><ele>194.0</ele><time>2026-04-29T13:40:38.001Z</time></trkpt><trkpt lat="43.169421024632605" lon="-1.188114165405074"><ele>194.0</ele><time>2026-04-29T13:40:39.001Z</time></trkpt><trkpt lat="43.1693741005375" lon="-1.1882131521690111"><ele>194.00000000000003</ele><time>2026-04-29T13:40:40.001Z</time></trkpt><trkpt lat="43.169328604566886" lon="-1.1883120182278106"><ele>194.0</ele><time>2026-04-29T13:40:41.001Z</time></trkpt><trkpt lat="43.169291615940615" lon="-1.1884128469276203"><ele>193.83333333333334</ele><time>2026-04-29T13:40:42.001Z</time></trkpt><trkpt lat="43.16925583715745" lon="-1.1885120303182315"><ele>193.66666666666669</ele><time>2026-04-29T13:40:43.001Z</time></trkpt><trkpt lat="43.169220528762416" lon="-1.1886107491629654"><ele>193.5</ele><time>2026-04-29T13:40:44.001Z</time></trkpt><trkpt lat="43.16918964685107" lon="-1.1887145152256156"><ele>193.33333333333331</ele><time>2026-04-29T13:40:45.001Z</time></trkpt><trkpt lat="43.16915882937722" lon="-1.1888172731505284"><ele>193.16666666666666</ele><time>2026-04-29T13:40:46.001Z</time></trkpt><trkpt lat="43.16913284161809" lon="-1.1889194134436518"><ele>193.0</ele><time>2026-04-29T13:40:47.001Z</time></trkpt><trkpt lat="43.16911028881122" lon="-1.1890283668720452"><ele>194.66666666666666</ele><time>2026-04-29T13:40:48.001Z</time></trkpt><trkpt lat="43.169086779680676" lon="-1.1891400462408048"><ele>196.33333333333331</ele><time>2026-04-29T13:40:49.001Z</time></trkpt><trkpt lat="43.16906004426268" lon="-1.189248086967812"><ele>198.0</ele><time>2026-04-29T13:40:50.001Z</time></trkpt><trkpt lat="43.16903539699852" lon="-1.1893544994410856"><ele>199.66666666666669</ele><time>2026-04-29T13:40:51.001Z</time></trkpt><trkpt lat="43.16901473298167" lon="-1.1894644963574432"><ele>201.33333333333334</ele><time>2026-04-29T13:40:52.001Z</time></trkpt><trkpt lat="43.16899514042698" lon="-1.189568163498069"><ele>203.0</ele><time>2026-04-29T13:40:53.001Z</time></trkpt><trkpt lat="43.16897796852901" lon="-1.1896757566266638"><ele>204.16666666666669</ele><time>2026-04-29T13:40:54.001Z</time></trkpt><trkpt lat="43.168965039975255" lon="-1.18978550458096"><ele>205.33333333333334</ele><time>2026-04-29T13:40:55.001Z</time></trkpt><trkpt lat="43.168948443384615" lon="-1.1898948936358202"><ele>206.5</ele><time>2026-04-29T13:40:56.001Z</time></trkpt><trkpt lat="43.168935923278234" lon="-1.1900073782820617"><ele>207.66666666666669</ele><time>2026-04-29T13:40:57.001Z</time></trkpt><trkpt lat="43.168923117434325" lon="-1.1901188891843157"><ele>208.83333333333334</ele><time>2026-04-29T13:40:58.001Z</time></trkpt><trkpt lat="43.168909040664985" lon="-1.1902300545206976"><ele>210.0</ele><time>2026-04-29T13:40:59.001Z</time></trkpt><trkpt lat="43.168897426914725" lon="-1.1903438809955813"><ele>210.0</ele><time>2026-04-29T13:41:00.001Z</time></trkpt><trkpt lat="43.16888422716028" lon="-1.1904593219506088"><ele>210.0</ele><time>2026-04-29T13:41:01.001Z</time></trkpt><trkpt lat="43.16887021341383" lon="-1.1905718361764743"><ele>210.0</ele><time>2026-04-29T13:41:02.001Z</time></trkpt><trkpt lat="43.16885888487007" lon="-1.1906883461457123"><ele>210.0</ele><time>2026-04-29T13:41:03.001Z</time></trkpt><trkpt lat="43.16884562276456" lon="-1.1908032405649238"><ele>210.0</ele><time>2026-04-29T13:41:04.001Z</time></trkpt><trkpt lat="43.16883391946451" lon="-1.1909211428222908"><ele>210.0</ele><time>2026-04-29T13:41:05.001Z</time></trkpt><trkpt lat="43.168820859518284" lon="-1.1910413549453744"><ele>210.0</ele><time>2026-04-29T13:41:06.001Z</time></trkpt><trkpt lat="43.16881003471619" lon="-1.1911590949900936"><ele>210.0</ele><time>2026-04-29T13:41:07.001Z</time></trkpt><trkpt lat="43.16879719299347" lon="-1.1912779990883977"><ele>210.0</ele><time>2026-04-29T13:41:08.001Z</time></trkpt><trkpt lat="43.16878272104906" lon="-1.1914003872047203"><ele>210.0</ele><time>2026-04-29T13:41:09.001Z</time></trkpt><trkpt lat="43.16877004825356" lon="-1.1915184793618272"><ele>210.0</ele><time>2026-04-29T13:41:10.001Z</time></trkpt><trkpt lat="43.16875738727816" lon="-1.1916400125324813"><ele>210.0</ele><time>2026-04-29T13:41:11.001Z</time></trkpt><trkpt lat="43.1687438836394" lon="-1.1917611933312626"><ele>209.5</ele><time>2026-04-29T13:41:12.001Z</time></trkpt><trkpt lat="43.16873120447126" lon="-1.191881101150118"><ele>209.0</ele><time>2026-04-29T13:41:13.001Z</time></trkpt><trkpt lat="43.16872043238985" lon="-1.192003563872982"><ele>208.5</ele><time>2026-04-29T13:41:14.001Z</time></trkpt><trkpt lat="43.16870869019559" lon="-1.1921249656980304"><ele>208.0</ele><time>2026-04-29T13:41:15.001Z</time></trkpt><trkpt lat="43.16869637045581" lon="-1.1922428780024492"><ele>207.5</ele><time>2026-04-29T13:41:16.001Z</time></trkpt><trkpt lat="43.16868350415464" lon="-1.192363329684266"><ele>207.0</ele><time>2026-04-29T13:41:17.001Z</time></trkpt><trkpt lat="43.1686682127295" lon="-1.1924807012031733"><ele>207.0</ele><time>2026-04-29T13:41:18.001Z</time></trkpt><trkpt lat="43.168653135592905" lon="-1.1925999836984116"><ele>207.0</ele><time>2026-04-29T13:41:19.001Z</time></trkpt><trkpt lat="43.16863796125431" lon="-1.192720211709203"><ele>207.0</ele><time>2026-04-29T13:41:20.001Z</time></trkpt><trkpt lat="43.16862432040282" lon="-1.192843709683568"><ele>207.0</ele><time>2026-04-29T13:41:21.001Z</time></trkpt><trkpt lat="43.16861095334576" lon="-1.1929674062093067"><ele>207.0</ele><time>2026-04-29T13:41:22.001Z</time></trkpt><trkpt lat="43.16859732574645" lon="-1.193095507757332"><ele>207.0</ele><time>2026-04-29T13:41:23.001Z</time></trkpt><trkpt lat="43.16858559535449" lon="-1.1932227442747616"><ele>207.0</ele><time>2026-04-29T13:41:24Z</time></trkpt><trkpt lat="43.168571671748516" lon="-1.1933529399087872"><ele>207.0</ele><time>2026-04-29T13:41:25Z</time></trkpt><trkpt lat="43.16855805223154" lon="-1.1934818326891274"><ele>207.0</ele><time>2026-04-29T13:41:26Z</time></trkpt><trkpt lat="43.168545426759316" lon="-1.1936061320970088"><ele>207.0</ele><time>2026-04-29T13:41:27Z</time></trkpt><trkpt lat="43.1685336503185" lon="-1.19373716255541"><ele>207.0</ele><time>2026-04-29T13:41:28Z</time></trkpt><trkpt lat="43.168523384822755" lon="-1.1938694686443587"><ele>207.0</ele><time>2026-04-29T13:41:29Z</time></trkpt><trkpt lat="43.16851235230642" lon="-1.1940020011815093"><ele>207.0</ele><time>2026-04-29T13:41:30Z</time></trkpt><trkpt lat="43.16850108486599" lon="-1.194133356935135"><ele>207.0</ele><time>2026-04-29T13:41:31Z</time></trkpt><trkpt lat="43.16849280084869" lon="-1.1942723797390533"><ele>207.0</ele><time>2026-04-29T13:41:32Z</time></trkpt><trkpt lat="43.16848493036759" lon="-1.194410196174872"><ele>206.6</ele><time>2026-04-29T13:41:33Z</time></trkpt><trkpt lat="43.16847870585019" lon="-1.1945486103562082"><ele>206.2</ele><time>2026-04-29T13:41:34Z</time></trkpt><trkpt lat="43.168475914891154" lon="-1.1946870132077485"><ele>205.8</ele><time>2026-04-29T13:41:35Z</time></trkpt><trkpt lat="43.168468182969264" lon="-1.194825532985561"><ele>205.4</ele><time>2026-04-29T13:41:36Z</time></trkpt><trkpt lat="43.168459944791806" lon="-1.1949639914725398"><ele>205.0</ele><time>2026-04-29T13:41:37Z</time></trkpt><trkpt lat="43.16845498665158" lon="-1.195107590933431"><ele>204.4</ele><time>2026-04-29T13:41:38Z</time></trkpt><trkpt lat="43.16844966573187" lon="-1.19525123005104"><ele>203.8</ele><time>2026-04-29T13:41:39Z</time></trkpt><trkpt lat="43.168445708738204" lon="-1.1953986504655485"><ele>203.2</ele><time>2026-04-29T13:41:40Z</time></trkpt><trkpt lat="43.16843966951898" lon="-1.1955393186122703"><ele>202.6</ele><time>2026-04-29T13:41:41Z</time></trkpt><trkpt lat="43.16843268093745" lon="-1.195677127136004"><ele>202.0</ele><time>2026-04-29T13:41:42Z</time></trkpt><trkpt lat="43.168425931340614" lon="-1.1958127314546894"><ele>201.2</ele><time>2026-04-29T13:41:43Z</time></trkpt><trkpt lat="43.168419012624696" lon="-1.1959519381522914"><ele>200.39999999999998</ele><time>2026-04-29T13:41:44Z</time></trkpt><trkpt lat="43.16841206813016" lon="-1.1960910851613946"><ele>199.60000000000002</ele><time>2026-04-29T13:41:45Z</time></trkpt><trkpt lat="43.1684060007389" lon="-1.196228620610889"><ele>198.8</ele><time>2026-04-29T13:41:46Z</time></trkpt><trkpt lat="43.16839708676069" lon="-1.1963679348135634"><ele>198.0</ele><time>2026-04-29T13:41:47Z</time></trkpt><trkpt lat="43.16838705478536" lon="-1.1965070078267679"><ele>198.0</ele><time>2026-04-29T13:41:48Z</time></trkpt><trkpt lat="43.1683773134826" lon="-1.1966440892140333"><ele>198.0</ele><time>2026-04-29T13:41:49Z</time></trkpt><trkpt lat="43.16836490706818" lon="-1.1967786166881638"><ele>198.0</ele><time>2026-04-29T13:41:50Z</time></trkpt><trkpt lat="43.16835318803383" lon="-1.1969113919918943"><ele>198.0</ele><time>2026-04-29T13:41:51Z</time></trkpt><trkpt lat="43.168339585622505" lon="-1.1970434154140959"><ele>198.0</ele><time>2026-04-29T13:41:52Z</time></trkpt><trkpt lat="43.16832499251552" lon="-1.1971773461531803"><ele>198.0</ele><time>2026-04-29T13:41:53Z</time></trkpt><trkpt lat="43.16830969975818" lon="-1.1973095046638145"><ele>198.0</ele><time>2026-04-29T13:41:54Z</time></trkpt><trkpt lat="43.16829370976445" lon="-1.1974427579499316"><ele>198.0</ele><time>2026-04-29T13:41:55Z</time></trkpt><trkpt lat="43.168275405129535" lon="-1.197574890122885"><ele>198.0</ele><time>2026-04-29T13:41:56Z</time></trkpt><trkpt lat="43.1682566329275" lon="-1.1977056280136045"><ele>198.0</ele><time>2026-04-29T13:41:57Z</time></trkpt><trkpt lat="43.16823517870843" lon="-1.1978366601459378"><ele>198.2</ele><time>2026-04-29T13:41:58Z</time></trkpt><trkpt lat="43.168215065837344" lon="-1.1979684596566547"><ele>198.4</ele><time>2026-04-29T13:41:59Z</time></trkpt><trkpt lat="43.16819333573599" lon="-1.1980992843007794"><ele>198.6</ele><time>2026-04-29T13:42:00Z</time></trkpt><trkpt lat="43.168169054779476" lon="-1.1982273878648049"><ele>198.79999999999998</ele><time>2026-04-29T13:42:01Z</time></trkpt><trkpt lat="43.16814525362697" lon="-1.1983544039498841"><ele>199.0</ele><time>2026-04-29T13:42:02Z</time></trkpt><trkpt lat="43.16811900795974" lon="-1.1984816139515906"><ele>199.0</ele><time>2026-04-29T13:42:03Z</time></trkpt><trkpt lat="43.168090978256245" lon="-1.1986091605355327"><ele>199.0</ele><time>2026-04-29T13:42:04Z</time></trkpt><trkpt lat="43.16806284291183" lon="-1.1987334238810314"><ele>199.0</ele><time>2026-04-29T13:42:05Z</time></trkpt><trkpt lat="43.16803288207071" lon="-1.198855894147901"><ele>199.0</ele><time>2026-04-29T13:42:06Z</time></trkpt><trkpt lat="43.16800147614852" lon="-1.198973876335974"><ele>199.0</ele><time>2026-04-29T13:42:07Z</time></trkpt><trkpt lat="43.16797196330635" lon="-1.1990940759383355"><ele>198.6</ele><time>2026-04-29T13:42:08Z</time></trkpt><trkpt lat="43.16793911512431" lon="-1.1992130905475353"><ele>198.2</ele><time>2026-04-29T13:42:09Z</time></trkpt><trkpt lat="43.16790923686467" lon="-1.1993344779248751"><ele>197.79999999999998</ele><time>2026-04-29T13:42:10Z</time></trkpt><trkpt lat="43.16787518224506" lon="-1.1994558195309053"><ele>197.39999999999998</ele><time>2026-04-29T13:42:11Z</time></trkpt><trkpt lat="43.167842795515725" lon="-1.1995786242057056"><ele>197.0</ele><time>2026-04-29T13:42:12Z</time></trkpt><trkpt lat="43.167810924598406" lon="-1.1997045148694478"><ele>197.0</ele><time>2026-04-29T13:42:13Z</time></trkpt><trkpt lat="43.167777958966006" lon="-1.1998320534301918"><ele>197.0</ele><time>2026-04-29T13:42:14Z</time></trkpt><trkpt lat="43.167747183805375" lon="-1.1999581665212848"><ele>197.0</ele><time>2026-04-29T13:42:15Z</time></trkpt><trkpt lat="43.16771569532091" lon="-1.2000797829871088"><ele>197.0</ele><time>2026-04-29T13:42:16Z</time></trkpt><trkpt lat="43.16768213240967" lon="-1.200198751453704"><ele>197.0</ele><time>2026-04-29T13:42:17Z</time></trkpt><trkpt lat="43.167647413194835" lon="-1.2003189626228463"><ele>197.2</ele><time>2026-04-29T13:42:18Z</time></trkpt><trkpt lat="43.167612572828254" lon="-1.2004402430190346"><ele>197.39999999999998</ele><time>2026-04-29T13:42:19Z</time></trkpt><trkpt lat="43.16757858765958" lon="-1.2005679927665744"><ele>197.60000000000002</ele><time>2026-04-29T13:42:20Z</time></trkpt><trkpt lat="43.16754394103154" lon="-1.2006926034283871"><ele>197.8</ele><time>2026-04-29T13:42:21.001Z</time></trkpt><trkpt lat="43.16751030904659" lon="-1.2008198731718218"><ele>198.0</ele><time>2026-04-29T13:42:22.001Z</time></trkpt><trkpt lat="43.16747829120302" lon="-1.2009510088929496"><ele>198.2</ele><time>2026-04-29T13:42:23.001Z</time></trkpt><trkpt lat="43.16744694240542" lon="-1.2010828211895943"><ele>198.4</ele><time>2026-04-29T13:42:24.001Z</time></trkpt><trkpt lat="43.16741441891651" lon="-1.2012137662615405"><ele>198.6</ele><time>2026-04-29T13:42:25.001Z</time></trkpt><trkpt lat="43.16738040216494" lon="-1.2013442886487087"><ele>198.79999999999998</ele><time>2026-04-29T13:42:26.001Z</time></trkpt><trkpt lat="43.16734643801324" lon="-1.2014737701318898"><ele>199.0</ele><time>2026-04-29T13:42:27.001Z</time></trkpt><trkpt lat="43.167312853218625" lon="-1.2016016545744157"><ele>198.39999999999998</ele><time>2026-04-29T13:42:28.001Z</time></trkpt><trkpt lat="43.16727798218754" lon="-1.2017289471890993"><ele>197.8</ele><time>2026-04-29T13:42:29.001Z</time></trkpt><trkpt lat="43.16724636977572" lon="-1.2018624987855027"><ele>197.2</ele><time>2026-04-29T13:42:30.001Z</time></trkpt><trkpt lat="43.16721134724336" lon="-1.2019998077866796"><ele>196.60000000000002</ele><time>2026-04-29T13:42:31.001Z</time></trkpt><trkpt lat="43.16717454487795" lon="-1.2021346199517235"><ele>196.0</ele><time>2026-04-29T13:42:32.001Z</time></trkpt><trkpt lat="43.167134781059964" lon="-1.2022699967876527"><ele>195.8</ele><time>2026-04-29T13:42:33.001Z</time></trkpt><trkpt lat="43.16709476634843" lon="-1.202406077425009"><ele>195.60000000000002</ele><time>2026-04-29T13:42:34.001Z</time></trkpt><trkpt lat="43.16705106304278" lon="-1.202538162091075"><ele>195.4</ele><time>2026-04-29T13:42:35.001Z</time></trkpt><trkpt lat="43.16700280619946" lon="-1.202666547726505"><ele>195.2</ele><time>2026-04-29T13:42:36.001Z</time></trkpt><trkpt lat="43.16694876535867" lon="-1.2027893728603911"><ele>195.0</ele><time>2026-04-29T13:42:37.001Z</time></trkpt><trkpt lat="43.16689325814374" lon="-1.202907690003799"><ele>195.0</ele><time>2026-04-29T13:42:38.001Z</time></trkpt><trkpt lat="43.16683383270963" lon="-1.2030218210757748"><ele>195.0</ele><time>2026-04-29T13:42:39.001Z</time></trkpt><trkpt lat="43.16677187249334" lon="-1.2031294730660396"><ele>195.0</ele><time>2026-04-29T13:42:40.001Z</time></trkpt><trkpt lat="43.16670546120295" lon="-1.203227132978393"><ele>195.0</ele><time>2026-04-29T13:42:41.001Z</time></trkpt><trkpt lat="43.16663597964595" lon="-1.2033173162208457"><ele>195.0</ele><time>2026-04-29T13:42:42.001Z</time></trkpt><trkpt lat="43.1665640927653" lon="-1.2033972291811665"><ele>193.83333333333334</ele><time>2026-04-29T13:42:43.001Z</time></trkpt><trkpt lat="43.16648932604724" lon="-1.203470169854212"><ele>192.66666666666666</ele><time>2026-04-29T13:42:44.001Z</time></trkpt><trkpt lat="43.16641674403929" lon="-1.2035327483104323"><ele>191.5</ele><time>2026-04-29T13:42:45.001Z</time></trkpt><trkpt lat="43.16634763353443" lon="-1.2035950175341745"><ele>190.33333333333331</ele><time>2026-04-29T13:42:46.001Z</time></trkpt><trkpt lat="43.166287432142035" lon="-1.203662607562112"><ele>189.16666666666666</ele><time>2026-04-29T13:42:47.001Z</time></trkpt><trkpt lat="43.16620144744735" lon="-1.2037533885832337"><ele>188.0</ele><time>2026-04-29T13:42:49.001Z</time></trkpt><trkpt lat="43.16614247419687" lon="-1.2038304364574397"><ele>188.0</ele><time>2026-04-29T13:42:52.001Z</time></trkpt><trkpt lat="43.16609553681044" lon="-1.2039104410168098"><ele>188.0</ele><time>2026-04-29T13:42:54.001Z</time></trkpt><trkpt lat="43.16605607059541" lon="-1.2040613753873635"><ele>188.0</ele><time>2026-04-29T13:42:56.001Z</time></trkpt><trkpt lat="43.166054748102155" lon="-1.2041562258784766"><ele>188.0</ele><time>2026-04-29T13:42:57.001Z</time></trkpt><trkpt lat="43.166059872320176" lon="-1.2042551165715674"><ele>188.0</ele><time>2026-04-29T13:42:58.001Z</time></trkpt><trkpt lat="43.1660682087863" lon="-1.20435991110209"><ele>188.0</ele><time>2026-04-29T13:42:59.001Z</time></trkpt><trkpt lat="43.166079788252325" lon="-1.2044703894278983"><ele>187.8</ele><time>2026-04-29T13:43:00.001Z</time></trkpt><trkpt lat="43.16609281495305" lon="-1.2045850286283672"><ele>187.60000000000002</ele><time>2026-04-29T13:43:01.001Z</time></trkpt><trkpt lat="43.16610764125353" lon="-1.204702310047692"><ele>187.39999999999998</ele><time>2026-04-29T13:43:02.001Z</time></trkpt><trkpt lat="43.16612174144879" lon="-1.204824491142912"><ele>187.2</ele><time>2026-04-29T13:43:03.001Z</time></trkpt><trkpt lat="43.166139386135036" lon="-1.2049516855636273"><ele>187.0</ele><time>2026-04-29T13:43:04.001Z</time></trkpt><trkpt lat="43.16615404089213" lon="-1.2050816384444096"><ele>187.0</ele><time>2026-04-29T13:43:05.001Z</time></trkpt><trkpt lat="43.16616936073169" lon="-1.205214469449918"><ele>187.0</ele><time>2026-04-29T13:43:06.001Z</time></trkpt><trkpt lat="43.16618232212248" lon="-1.2053543905333128"><ele>187.0</ele><time>2026-04-29T13:43:07.001Z</time></trkpt><trkpt lat="43.16619621688491" lon="-1.2054910715867913"><ele>187.0</ele><time>2026-04-29T13:43:08.001Z</time></trkpt><trkpt lat="43.16621302340181" lon="-1.2056252970797545"><ele>187.0</ele><time>2026-04-29T13:43:09.001Z</time></trkpt><trkpt lat="43.1662290970957" lon="-1.2057667752592258"><ele>186.6</ele><time>2026-04-29T13:43:10.001Z</time></trkpt><trkpt lat="43.1662432934943" lon="-1.2059108368288274"><ele>186.2</ele><time>2026-04-29T13:43:11.001Z</time></trkpt><trkpt lat="43.16625862443256" lon="-1.2060535758982385"><ele>185.8</ele><time>2026-04-29T13:43:12.001Z</time></trkpt><trkpt lat="43.16627562867063" lon="-1.2061945237237506"><ele>185.4</ele><time>2026-04-29T13:43:13.001Z</time></trkpt><trkpt lat="43.16629270582224" lon="-1.2063349090442488"><ele>185.0</ele><time>2026-04-29T13:43:14.001Z</time></trkpt><trkpt lat="43.166307054496286" lon="-1.2064796499859198"><ele>185.2</ele><time>2026-04-29T13:43:15.001Z</time></trkpt><trkpt lat="43.1663219408058" lon="-1.2066229022986907"><ele>185.4</ele><time>2026-04-29T13:43:16.001Z</time></trkpt><trkpt lat="43.166340051883665" lon="-1.2067655182328383"><ele>185.60000000000002</ele><time>2026-04-29T13:43:17.001Z</time></trkpt><trkpt lat="43.16635575516514" lon="-1.2069049494255"><ele>185.8</ele><time>2026-04-29T13:43:18.001Z</time></trkpt><trkpt lat="43.16637288314726" lon="-1.2070449367340346"><ele>186.0</ele><time>2026-04-29T13:43:19.001Z</time></trkpt><trkpt lat="43.166388424975565" lon="-1.2071873827561796"><ele>185.4</ele><time>2026-04-29T13:43:20.001Z</time></trkpt><trkpt lat="43.1664046563575" lon="-1.2073278790753104"><ele>184.8</ele><time>2026-04-29T13:43:21.001Z</time></trkpt><trkpt lat="43.16641960920893" lon="-1.2074713587925043"><ele>184.20000000000002</ele><time>2026-04-29T13:43:22.001Z</time></trkpt><trkpt lat="43.16643667559197" lon="-1.2076125038727727"><ele>183.60000000000002</ele><time>2026-04-29T13:43:23.001Z</time></trkpt><trkpt lat="43.166452825466116" lon="-1.2077542096787788"><ele>183.0</ele><time>2026-04-29T13:43:24.001Z</time></trkpt><trkpt lat="43.166465772710225" lon="-1.2078974702745087"><ele>183.0</ele><time>2026-04-29T13:43:25.001Z</time></trkpt><trkpt lat="43.16648378177449" lon="-1.2080355069639288"><ele>183.0</ele><time>2026-04-29T13:43:26.001Z</time></trkpt><trkpt lat="43.166499094997484" lon="-1.2081827836980157"><ele>183.0</ele><time>2026-04-29T13:43:27.001Z</time></trkpt><trkpt lat="43.16651320847136" lon="-1.2083277300878486"><ele>183.0</ele><time>2026-04-29T13:43:28.001Z</time></trkpt><trkpt lat="43.16652969169152" lon="-1.208471079385233"><ele>183.0</ele><time>2026-04-29T13:43:29.001Z</time></trkpt><trkpt lat="43.166547147511864" lon="-1.2086152842551916"><ele>183.2</ele><time>2026-04-29T13:43:30Z</time></trkpt><trkpt lat="43.16656457519342" lon="-1.2087576726028793"><ele>183.4</ele><time>2026-04-29T13:43:31Z</time></trkpt><trkpt lat="43.166580968633596" lon="-1.2089050790043057"><ele>183.6</ele><time>2026-04-29T13:43:32Z</time></trkpt><trkpt lat="43.166597518401815" lon="-1.2090494821905624"><ele>183.79999999999998</ele><time>2026-04-29T13:43:33Z</time></trkpt><trkpt lat="43.16661352090637" lon="-1.2091923244888523"><ele>184.0</ele><time>2026-04-29T13:43:34Z</time></trkpt><trkpt lat="43.16662777359198" lon="-1.2093359031231128"><ele>184.0</ele><time>2026-04-29T13:43:35Z</time></trkpt><trkpt lat="43.16664308796431" lon="-1.2094788606321378"><ele>184.0</ele><time>2026-04-29T13:43:36Z</time></trkpt><trkpt lat="43.16665749494691" lon="-1.2096196918370803"><ele>184.0</ele><time>2026-04-29T13:43:37Z</time></trkpt><trkpt lat="43.16667021063383" lon="-1.2097628329778072"><ele>184.0</ele><time>2026-04-29T13:43:38Z</time></trkpt><trkpt lat="43.166688417371795" lon="-1.209904183954708"><ele>184.0</ele><time>2026-04-29T13:43:39Z</time></trkpt><trkpt lat="43.16670317772136" lon="-1.2100484160025855"><ele>183.79999999999998</ele><time>2026-04-29T13:43:40Z</time></trkpt><trkpt lat="43.1667174149343" lon="-1.2101891361033188"><ele>183.6</ele><time>2026-04-29T13:43:41Z</time></trkpt><trkpt lat="43.16673083152329" lon="-1.2103254896841968"><ele>183.4</ele><time>2026-04-29T13:43:42Z</time></trkpt><trkpt lat="43.16675657958093" lon="-1.2104530892350642"><ele>183.2</ele><time>2026-04-29T13:43:43Z</time></trkpt><trkpt lat="43.16676994650191" lon="-1.2105796034793839"><ele>183.0</ele><time>2026-04-29T13:43:44Z</time></trkpt><trkpt lat="43.166783296029244" lon="-1.2107059529827837"><ele>182.66666666666666</ele><time>2026-04-29T13:43:45Z</time></trkpt><trkpt lat="43.16679722700477" lon="-1.2108297264274621"><ele>182.33333333333334</ele><time>2026-04-29T13:43:46Z</time></trkpt><trkpt lat="43.166809664816824" lon="-1.2109480125432452"><ele>182.0</ele><time>2026-04-29T13:43:47Z</time></trkpt><trkpt lat="43.166795324626904" lon="-1.2110647560989076"><ele>181.66666666666669</ele><time>2026-04-29T13:43:48Z</time></trkpt><trkpt lat="43.16680420145358" lon="-1.2111722360513322"><ele>181.33333333333334</ele><time>2026-04-29T13:43:49Z</time></trkpt><trkpt lat="43.16681012455782" lon="-1.2112774965144657"><ele>181.0</ele><time>2026-04-29T13:43:50Z</time></trkpt><trkpt lat="43.16680778904399" lon="-1.2113769560673628"><ele>181.0</ele><time>2026-04-29T13:43:51Z</time></trkpt><trkpt lat="43.16680596643065" lon="-1.2114739926736133"><ele>181.0</ele><time>2026-04-29T13:43:52Z</time></trkpt><trkpt lat="43.16681045612567" lon="-1.211562164693739"><ele>181.0</ele><time>2026-04-29T13:43:53Z</time></trkpt><trkpt lat="43.16681738990974" lon="-1.2117004989945759"><ele>181.0</ele><time>2026-04-29T13:43:55Z</time></trkpt><trkpt lat="43.16689613280441" lon="-1.211739732285528"><ele>181.0</ele><time>2026-04-29T13:43:56Z</time></trkpt><trkpt lat="43.16690545668444" lon="-1.211826626899477"><ele>181.0</ele><time>2026-04-29T13:43:58Z</time></trkpt><trkpt lat="43.16691481852231" lon="-1.2119138750868748"><ele>181.0</ele><time>2026-04-29T13:44:02Z</time></trkpt><trkpt lat="43.166930759230176" lon="-1.2120624355966478"><ele>181.0</ele><time>2026-04-29T13:49:44.002Z</time></trkpt><trkpt lat="43.166944859969156" lon="-1.2121766210477753"><ele>181.0</ele><time>2026-04-29T13:49:54Z</time></trkpt><trkpt lat="43.166976568780115" lon="-1.2123026394968488"><ele>181.0</ele><time>2026-04-29T13:49:56Z</time></trkpt><trkpt lat="43.16699065308333" lon="-1.2124713368069298"><ele>181.0</ele><time>2026-04-29T13:49:58Z</time></trkpt><trkpt lat="43.167000672646466" lon="-1.2125609441057204"><ele>181.0</ele><time>2026-04-29T13:49:59Z</time></trkpt><trkpt lat="43.1670075020452" lon="-1.2126521162900679"><ele>181.0</ele><time>2026-04-29T13:50:00Z</time></trkpt><trkpt lat="43.16701668510011" lon="-1.2127491251811866"><ele>181.0</ele><time>2026-04-29T13:50:01Z</time></trkpt><trkpt lat="43.167027581148695" lon="-1.2128525627272642"><ele>181.0</ele><time>2026-04-29T13:50:02Z</time></trkpt><trkpt lat="43.16704365829215" lon="-1.2129632217078212"><ele>181.0</ele><time>2026-04-29T13:50:03Z</time></trkpt><trkpt lat="43.16705440875023" lon="-1.2130699161210452"><ele>181.0</ele><time>2026-04-29T13:50:04Z</time></trkpt><trkpt lat="43.16706700705222" lon="-1.2131814073183034"><ele>181.0</ele><time>2026-04-29T13:50:05Z</time></trkpt><trkpt lat="43.16708077772443" lon="-1.2133024964765997"><ele>181.0</ele><time>2026-04-29T13:50:06Z</time></trkpt><trkpt lat="43.167094997047485" lon="-1.2134249143138822"><ele>180.4</ele><time>2026-04-29T13:50:07Z</time></trkpt><trkpt lat="43.16711079511614" lon="-1.2135495711812774"><ele>179.8</ele><time>2026-04-29T13:50:08Z</time></trkpt><trkpt lat="43.16712649020521" lon="-1.213677562104272"><ele>179.20000000000002</ele><time>2026-04-29T13:50:09Z</time></trkpt><trkpt lat="43.16714107261298" lon="-1.2138035284991777"><ele>178.60000000000002</ele><time>2026-04-29T13:50:10Z</time></trkpt><trkpt lat="43.167156625996526" lon="-1.2139338022640773"><ele>178.0</ele><time>2026-04-29T13:50:11Z</time></trkpt><trkpt lat="43.16717256118379" lon="-1.2140615066110907"><ele>177.8</ele><time>2026-04-29T13:50:12Z</time></trkpt><trkpt lat="43.16718239277804" lon="-1.2141974492956362"><ele>177.60000000000002</ele><time>2026-04-29T13:50:13Z</time></trkpt><trkpt lat="43.167188328664636" lon="-1.2143351090130923"><ele>177.39999999999998</ele><time>2026-04-29T13:50:14Z</time></trkpt><trkpt lat="43.16720186101818" lon="-1.2144641127904783"><ele>177.2</ele><time>2026-04-29T13:50:15Z</time></trkpt><trkpt lat="43.167215626343584" lon="-1.2145934462200922"><ele>177.0</ele><time>2026-04-29T13:50:16Z</time></trkpt><trkpt lat="43.167230028353785" lon="-1.2147285150632268"><ele>176.8</ele><time>2026-04-29T13:50:17Z</time></trkpt><trkpt lat="43.1672448083804" lon="-1.2148605159731238"><ele>176.6</ele><time>2026-04-29T13:50:18Z</time></trkpt><trkpt lat="43.16726112304645" lon="-1.2149925576763194"><ele>176.4</ele><time>2026-04-29T13:50:19Z</time></trkpt><trkpt lat="43.16727765986166" lon="-1.2151251418937419"><ele>176.20000000000002</ele><time>2026-04-29T13:50:20Z</time></trkpt><trkpt lat="43.16729405849962" lon="-1.2152542951631633"><ele>176.0</ele><time>2026-04-29T13:50:21Z</time></trkpt><trkpt lat="43.16730986996463" lon="-1.2153838755521624"><ele>176.0</ele><time>2026-04-29T13:50:22Z</time></trkpt><trkpt lat="43.16732564646032" lon="-1.2155141126628752"><ele>176.0</ele><time>2026-04-29T13:50:23Z</time></trkpt><trkpt lat="43.167340423787586" lon="-1.2156451711918874"><ele>176.0</ele><time>2026-04-29T13:50:24Z</time></trkpt><trkpt lat="43.1673545364162" lon="-1.215774492499091"><ele>176.0</ele><time>2026-04-29T13:50:25Z</time></trkpt><trkpt lat="43.1673678127181" lon="-1.2159030052898256"><ele>176.0</ele><time>2026-04-29T13:50:26Z</time></trkpt><trkpt lat="43.16738069301999" lon="-1.2160307588308235"><ele>176.20000000000002</ele><time>2026-04-29T13:50:27.001Z</time></trkpt><trkpt lat="43.16739413577873" lon="-1.216157231789343"><ele>176.4</ele><time>2026-04-29T13:50:28.001Z</time></trkpt><trkpt lat="43.16740798348913" lon="-1.2162846660468225"><ele>176.6</ele><time>2026-04-29T13:50:29.001Z</time></trkpt><trkpt lat="43.16742342061336" lon="-1.21641362865533"><ele>176.8</ele><time>2026-04-29T13:50:30.001Z</time></trkpt><trkpt lat="43.16743726368013" lon="-1.216541470487869"><ele>177.0</ele><time>2026-04-29T13:50:31.001Z</time></trkpt><trkpt lat="43.16745211079852" lon="-1.216669491225212"><ele>177.2</ele><time>2026-04-29T13:50:32.001Z</time></trkpt><trkpt lat="43.16746590730375" lon="-1.2167983463025134"><ele>177.39999999999998</ele><time>2026-04-29T13:50:33.001Z</time></trkpt><trkpt lat="43.16747986496031" lon="-1.2169265087669259"><ele>177.60000000000002</ele><time>2026-04-29T13:50:34.001Z</time></trkpt><trkpt lat="43.16749277337017" lon="-1.2170522744576522"><ele>177.8</ele><time>2026-04-29T13:50:35.001Z</time></trkpt><trkpt lat="43.167506517308134" lon="-1.217177529099383"><ele>178.0</ele><time>2026-04-29T13:50:36.001Z</time></trkpt><trkpt lat="43.167519691597846" lon="-1.217298481779481"><ele>178.0</ele><time>2026-04-29T13:50:37.001Z</time></trkpt><trkpt lat="43.16753282359408" lon="-1.2174215222112135"><ele>178.0</ele><time>2026-04-29T13:50:38.001Z</time></trkpt><trkpt lat="43.16754795345453" lon="-1.2175472707086075"><ele>178.0</ele><time>2026-04-29T13:50:39.001Z</time></trkpt><trkpt lat="43.167562049228245" lon="-1.2176745440108434"><ele>178.0</ele><time>2026-04-29T13:50:40.001Z</time></trkpt><trkpt lat="43.16757627494654" lon="-1.21780164930498"><ele>178.0</ele><time>2026-04-29T13:50:41.001Z</time></trkpt><trkpt lat="43.16759124229247" lon="-1.2179246500440866"><ele>178.0</ele><time>2026-04-29T13:50:42.001Z</time></trkpt><trkpt lat="43.16760648261326" lon="-1.2180494977064167"><ele>178.0</ele><time>2026-04-29T13:50:43.001Z</time></trkpt><trkpt lat="43.16762005152318" lon="-1.2181758406175944"><ele>178.0</ele><time>2026-04-29T13:50:44.001Z</time></trkpt><trkpt lat="43.16763183103032" lon="-1.2183013987472073"><ele>178.0</ele><time>2026-04-29T13:50:45.001Z</time></trkpt><trkpt lat="43.16764506730652" lon="-1.2184267276969096"><ele>178.0</ele><time>2026-04-29T13:50:46.001Z</time></trkpt><trkpt lat="43.16765901526506" lon="-1.2185510632627332"><ele>177.66666666666669</ele><time>2026-04-29T13:50:47.001Z</time></trkpt><trkpt lat="43.1676725458151" lon="-1.2186714496979623"><ele>177.33333333333334</ele><time>2026-04-29T13:50:48.001Z</time></trkpt><trkpt lat="43.16768474562737" lon="-1.21879340188977"><ele>177.0</ele><time>2026-04-29T13:50:49.001Z</time></trkpt><trkpt lat="43.16769683257851" lon="-1.2189159508627485"><ele>176.66666666666666</ele><time>2026-04-29T13:50:50.001Z</time></trkpt><trkpt lat="43.16770819771041" lon="-1.219036633008852"><ele>176.33333333333331</ele><time>2026-04-29T13:50:51.001Z</time></trkpt><trkpt lat="43.16772061812351" lon="-1.2191550874023016"><ele>176.0</ele><time>2026-04-29T13:50:52.001Z</time></trkpt><trkpt lat="43.167731265725735" lon="-1.219275641850147"><ele>175.8</ele><time>2026-04-29T13:50:53.001Z</time></trkpt><trkpt lat="43.1677437366366" lon="-1.2193976944053393"><ele>175.60000000000002</ele><time>2026-04-29T13:50:54.001Z</time></trkpt><trkpt lat="43.16775667928204" lon="-1.2195184398578138"><ele>175.4</ele><time>2026-04-29T13:50:55.001Z</time></trkpt><trkpt lat="43.16777088493509" lon="-1.2196411686256683"><ele>175.2</ele><time>2026-04-29T13:50:56.001Z</time></trkpt><trkpt lat="43.16778481941594" lon="-1.219766018401825"><ele>175.0</ele><time>2026-04-29T13:50:57.001Z</time></trkpt><trkpt lat="43.16779531538739" lon="-1.2198929495488748"><ele>174.8</ele><time>2026-04-29T13:50:58.001Z</time></trkpt><trkpt lat="43.167809471214404" lon="-1.2200175965944209"><ele>174.6</ele><time>2026-04-29T13:50:59.001Z</time></trkpt><trkpt lat="43.16782281968499" lon="-1.2201431553571023"><ele>174.39999999999998</ele><time>2026-04-29T13:51:00.001Z</time></trkpt><trkpt lat="43.16783730381028" lon="-1.2202685520637466"><ele>174.2</ele><time>2026-04-29T13:51:01.001Z</time></trkpt><trkpt lat="43.16785125749969" lon="-1.2203940608150445"><ele>174.0</ele><time>2026-04-29T13:51:02.001Z</time></trkpt><trkpt lat="43.16786492159092" lon="-1.2205173787311985"><ele>174.0</ele><time>2026-04-29T13:51:03.001Z</time></trkpt><trkpt lat="43.167879811478386" lon="-1.2206449221294533"><ele>174.0</ele><time>2026-04-29T13:51:04.001Z</time></trkpt><trkpt lat="43.16789406346864" lon="-1.2207718629878264"><ele>174.0</ele><time>2026-04-29T13:51:05.001Z</time></trkpt><trkpt lat="43.16790680710943" lon="-1.2208993381048798"><ele>174.0</ele><time>2026-04-29T13:51:06.001Z</time></trkpt><trkpt lat="43.16792095386702" lon="-1.2210282625403825"><ele>174.0</ele><time>2026-04-29T13:51:07.001Z</time></trkpt><trkpt lat="43.16793520844587" lon="-1.2211588415102026"><ele>173.2</ele><time>2026-04-29T13:51:08.001Z</time></trkpt><trkpt lat="43.167946961561036" lon="-1.22128918713052"><ele>172.39999999999998</ele><time>2026-04-29T13:51:09.001Z</time></trkpt><trkpt lat="43.167962258175436" lon="-1.2214204319838207"><ele>171.6</ele><time>2026-04-29T13:51:10.001Z</time></trkpt><trkpt lat="43.16797668296876" lon="-1.2215537954855833"><ele>170.8</ele><time>2026-04-29T13:51:11.001Z</time></trkpt><trkpt lat="43.167993861536566" lon="-1.2216859471869297"><ele>170.0</ele><time>2026-04-29T13:51:12.001Z</time></trkpt><trkpt lat="43.16800710452163" lon="-1.2218163368177355"><ele>170.0</ele><time>2026-04-29T13:51:13.001Z</time></trkpt><trkpt lat="43.16802209295964" lon="-1.2219463888439608"><ele>170.0</ele><time>2026-04-29T13:51:14.001Z</time></trkpt><trkpt lat="43.168037213043846" lon="-1.222077684425095"><ele>170.0</ele><time>2026-04-29T13:51:15.001Z</time></trkpt><trkpt lat="43.168052175486594" lon="-1.2222126292925857"><ele>170.0</ele><time>2026-04-29T13:51:16.001Z</time></trkpt><trkpt lat="43.16806991580152" lon="-1.2223476723915092"><ele>170.0</ele><time>2026-04-29T13:51:17.001Z</time></trkpt><trkpt lat="43.16808704144108" lon="-1.2224789481062501"><ele>170.0</ele><time>2026-04-29T13:51:18.001Z</time></trkpt><trkpt lat="43.16810662741521" lon="-1.222610399215726"><ele>170.0</ele><time>2026-04-29T13:51:19.001Z</time></trkpt><trkpt lat="43.16812213524222" lon="-1.22274161463284"><ele>170.0</ele><time>2026-04-29T13:51:20.001Z</time></trkpt><trkpt lat="43.16813662886878" lon="-1.2228737937201413"><ele>170.0</ele><time>2026-04-29T13:51:21.001Z</time></trkpt><trkpt lat="43.16815276365098" lon="-1.2230100772356292"><ele>170.0</ele><time>2026-04-29T13:51:22.001Z</time></trkpt><trkpt lat="43.168169267588105" lon="-1.2231445384729736"><ele>170.0</ele><time>2026-04-29T13:51:23.001Z</time></trkpt><trkpt lat="43.168186770384494" lon="-1.2232818193811292"><ele>170.0</ele><time>2026-04-29T13:51:24.001Z</time></trkpt><trkpt lat="43.16820344618734" lon="-1.223413463157212"><ele>170.0</ele><time>2026-04-29T13:51:25.001Z</time></trkpt><trkpt lat="43.168220044287494" lon="-1.2235470289964774"><ele>170.0</ele><time>2026-04-29T13:51:26.001Z</time></trkpt><trkpt lat="43.16823451611591" lon="-1.2236788930270377"><ele>170.0</ele><time>2026-04-29T13:51:27.001Z</time></trkpt><trkpt lat="43.168252516667195" lon="-1.2238142253645845"><ele>170.4</ele><time>2026-04-29T13:51:28.001Z</time></trkpt><trkpt lat="43.168270354802104" lon="-1.2239488702347465"><ele>170.8</ele><time>2026-04-29T13:51:29.001Z</time></trkpt><trkpt lat="43.16828799107142" lon="-1.2240855635427108"><ele>171.2</ele><time>2026-04-29T13:51:30.001Z</time></trkpt><trkpt lat="43.16829939186637" lon="-1.2242222994464065"><ele>171.6</ele><time>2026-04-29T13:51:31.001Z</time></trkpt><trkpt lat="43.168314455832835" lon="-1.2243492673362755"><ele>172.0</ele><time>2026-04-29T13:51:32.001Z</time></trkpt><trkpt lat="43.16833044041879" lon="-1.2244804116024899"><ele>172.0</ele><time>2026-04-29T13:51:33.001Z</time></trkpt><trkpt lat="43.16834638037865" lon="-1.2246138976855785"><ele>172.0</ele><time>2026-04-29T13:51:34.001Z</time></trkpt><trkpt lat="43.168357795103006" lon="-1.2247507252210659"><ele>172.0</ele><time>2026-04-29T13:51:35.001Z</time></trkpt><trkpt lat="43.168373558023966" lon="-1.224884123044358"><ele>172.0</ele><time>2026-04-29T13:51:36.001Z</time></trkpt><trkpt lat="43.168392472568904" lon="-1.2250174684823072"><ele>172.0</ele><time>2026-04-29T13:51:37.001Z</time></trkpt><trkpt lat="43.16840846305174" lon="-1.2251530165015283"><ele>171.8</ele><time>2026-04-29T13:51:38.001Z</time></trkpt><trkpt lat="43.168424524550275" lon="-1.225291750643607"><ele>171.6</ele><time>2026-04-29T13:51:39.001Z</time></trkpt><trkpt lat="43.168437937943416" lon="-1.2254311427597626"><ele>171.4</ele><time>2026-04-29T13:51:40.001Z</time></trkpt><trkpt lat="43.1684506865235" lon="-1.2255651104173453"><ele>171.20000000000002</ele><time>2026-04-29T13:51:41.001Z</time></trkpt><trkpt lat="43.16846545704882" lon="-1.225696187404699"><ele>171.0</ele><time>2026-04-29T13:51:42.001Z</time></trkpt><trkpt lat="43.16847846540203" lon="-1.2258300570357825"><ele>170.8</ele><time>2026-04-29T13:51:43.001Z</time></trkpt><trkpt lat="43.168490050723" lon="-1.225963987195736"><ele>170.60000000000002</ele><time>2026-04-29T13:51:44.001Z</time></trkpt><trkpt lat="43.16850505409762" lon="-1.2260972526584357"><ele>170.4</ele><time>2026-04-29T13:51:45.001Z</time></trkpt><trkpt lat="43.16852039593402" lon="-1.2262338685483938"><ele>170.2</ele><time>2026-04-29T13:51:46.001Z</time></trkpt><trkpt lat="43.16853739228264" lon="-1.226367570316558"><ele>170.0</ele><time>2026-04-29T13:51:47.001Z</time></trkpt><trkpt lat="43.16855540246587" lon="-1.226502756459697"><ele>170.0</ele><time>2026-04-29T13:51:48.001Z</time></trkpt><trkpt lat="43.16857154798353" lon="-1.2266377432110518"><ele>170.0</ele><time>2026-04-29T13:51:49.002Z</time></trkpt><trkpt lat="43.16858679062307" lon="-1.2267708305962985"><ele>170.0</ele><time>2026-04-29T13:51:50.002Z</time></trkpt><trkpt lat="43.168600544414524" lon="-1.2269038490427322"><ele>170.0</ele><time>2026-04-29T13:51:51.002Z</time></trkpt><trkpt lat="43.168615777975425" lon="-1.227040725899387"><ele>170.0</ele><time>2026-04-29T13:51:52.002Z</time></trkpt><trkpt lat="43.1686332726395" lon="-1.2271795933971406"><ele>170.0</ele><time>2026-04-29T13:51:53.002Z</time></trkpt><trkpt lat="43.16864877584909" lon="-1.2273183333977635"><ele>170.0</ele><time>2026-04-29T13:51:53.999Z</time></trkpt><trkpt lat="43.168666244367124" lon="-1.2274611323608853"><ele>170.0</ele><time>2026-04-29T13:51:54.999Z</time></trkpt><trkpt lat="43.16868135361491" lon="-1.2276029554926895"><ele>170.0</ele><time>2026-04-29T13:51:55.999Z</time></trkpt><trkpt lat="43.16869531675" lon="-1.2277439149870204"><ele>170.0</ele><time>2026-04-29T13:51:56.999Z</time></trkpt><trkpt lat="43.168705297595444" lon="-1.227881538232013"><ele>170.0</ele><time>2026-04-29T13:51:57.999Z</time></trkpt><trkpt lat="43.16871961662498" lon="-1.2280185688500744"><ele>170.0</ele><time>2026-04-29T13:51:58.999Z</time></trkpt><trkpt lat="43.16873643861668" lon="-1.2281557361587645"><ele>170.0</ele><time>2026-04-29T13:51:59.999Z</time></trkpt><trkpt lat="43.16874980599725" lon="-1.228293314001449"><ele>170.0</ele><time>2026-04-29T13:52:00.999Z</time></trkpt><trkpt lat="43.16876436415711" lon="-1.2284296125005338"><ele>170.0</ele><time>2026-04-29T13:52:01.999Z</time></trkpt><trkpt lat="43.16878101018657" lon="-1.2285658541711257"><ele>170.0</ele><time>2026-04-29T13:52:02.999Z</time></trkpt><trkpt lat="43.1687965795461" lon="-1.2287031327779585"><ele>170.0</ele><time>2026-04-29T13:52:03.999Z</time></trkpt><trkpt lat="43.16881203715637" lon="-1.228835340713383"><ele>170.0</ele><time>2026-04-29T13:52:04.999Z</time></trkpt><trkpt lat="43.16882623760116" lon="-1.2289689238367552"><ele>170.0</ele><time>2026-04-29T13:52:05.999Z</time></trkpt><trkpt lat="43.16884124111638" lon="-1.2291010822549875"><ele>170.0</ele><time>2026-04-29T13:52:06.999Z</time></trkpt><trkpt lat="43.168856955104026" lon="-1.2292351984463967"><ele>169.6</ele><time>2026-04-29T13:52:07.999Z</time></trkpt><trkpt lat="43.16887178751798" lon="-1.2293683563512074"><ele>169.2</ele><time>2026-04-29T13:52:08.999Z</time></trkpt><trkpt lat="43.16888981772698" lon="-1.2295010003302065"><ele>168.8</ele><time>2026-04-29T13:52:09.999Z</time></trkpt><trkpt lat="43.16890271814965" lon="-1.2296371770202283"><ele>168.4</ele><time>2026-04-29T13:52:11Z</time></trkpt><trkpt lat="43.168913219491316" lon="-1.2297751872352727"><ele>168.0</ele><time>2026-04-29T13:52:12Z</time></trkpt><trkpt lat="43.1689168017331" lon="-1.2299128727510171"><ele>167.4</ele><time>2026-04-29T13:52:13Z</time></trkpt><trkpt lat="43.16891639070945" lon="-1.2300460735223546"><ele>166.8</ele><time>2026-04-29T13:52:14Z</time></trkpt><trkpt lat="43.16891743667018" lon="-1.2301787467349998"><ele>166.2</ele><time>2026-04-29T13:52:15Z</time></trkpt><trkpt lat="43.16891386338474" lon="-1.230310756826851"><ele>165.6</ele><time>2026-04-29T13:52:16Z</time></trkpt><trkpt lat="43.16891038744946" lon="-1.2304411578070056"><ele>165.0</ele><time>2026-04-29T13:52:17Z</time></trkpt><trkpt lat="43.16891157007336" lon="-1.2305749319131676"><ele>164.2</ele><time>2026-04-29T13:52:18Z</time></trkpt><trkpt lat="43.16891141427413" lon="-1.2307067606751514"><ele>163.4</ele><time>2026-04-29T13:52:19Z</time></trkpt><trkpt lat="43.16891234868689" lon="-1.2308412695207187"><ele>162.60000000000002</ele><time>2026-04-29T13:52:20Z</time></trkpt><trkpt lat="43.16891238827943" lon="-1.2309706227795922"><ele>161.8</ele><time>2026-04-29T13:52:21Z</time></trkpt><trkpt lat="43.16891673860095" lon="-1.2311069571800322"><ele>161.0</ele><time>2026-04-29T13:52:22Z</time></trkpt><trkpt lat="43.168924388239596" lon="-1.23123868418148"><ele>161.0</ele><time>2026-04-29T13:52:23Z</time></trkpt><trkpt lat="43.16893074529072" lon="-1.2313727349023758"><ele>161.0</ele><time>2026-04-29T13:52:24Z</time></trkpt><trkpt lat="43.168935809974265" lon="-1.2315106140682466"><ele>161.0</ele><time>2026-04-29T13:52:25Z</time></trkpt><trkpt lat="43.16894045992597" lon="-1.2316460563566192"><ele>161.0</ele><time>2026-04-29T13:52:26Z</time></trkpt><trkpt lat="43.16894165951404" lon="-1.2317831051976993"><ele>161.0</ele><time>2026-04-29T13:52:27Z</time></trkpt><trkpt lat="43.168942291088364" lon="-1.2319185082791482"><ele>161.0</ele><time>2026-04-29T13:52:28Z</time></trkpt><trkpt lat="43.16894204957947" lon="-1.2320504801281378"><ele>161.0</ele><time>2026-04-29T13:52:29Z</time></trkpt><trkpt lat="43.16893228902666" lon="-1.2321852856801219"><ele>161.0</ele><time>2026-04-29T13:52:30Z</time></trkpt><trkpt lat="43.16890866523026" lon="-1.2323133549374028"><ele>161.0</ele><time>2026-04-29T13:52:31Z</time></trkpt><trkpt lat="43.16886346044142" lon="-1.2324258501657415"><ele>161.0</ele><time>2026-04-29T13:52:32Z</time></trkpt><trkpt lat="43.16879978243046" lon="-1.232522765444742"><ele>161.0</ele><time>2026-04-29T13:52:33Z</time></trkpt><trkpt lat="43.168719672353205" lon="-1.2325949993077439"><ele>161.0</ele><time>2026-04-29T13:52:34Z</time></trkpt><trkpt lat="43.16863404082587" lon="-1.2326508613551124"><ele>161.0</ele><time>2026-04-29T13:52:35Z</time></trkpt><trkpt lat="43.16853914832471" lon="-1.2326949428676246"><ele>161.0</ele><time>2026-04-29T13:52:36Z</time></trkpt><trkpt lat="43.16844459610443" lon="-1.2327224386892488"><ele>161.0</ele><time>2026-04-29T13:52:37Z</time></trkpt><trkpt lat="43.16835255912758" lon="-1.232750783545633"><ele>161.0</ele><time>2026-04-29T13:52:38Z</time></trkpt><trkpt lat="43.16826295596771" lon="-1.2327874573292958"><ele>161.0</ele><time>2026-04-29T13:52:39Z</time></trkpt><trkpt lat="43.168171689127036" lon="-1.2328279946596237"><ele>161.0</ele><time>2026-04-29T13:52:40Z</time></trkpt><trkpt lat="43.16808527788131" lon="-1.2328720816502523"><ele>161.0</ele><time>2026-04-29T13:52:41Z</time></trkpt><trkpt lat="43.16799644526941" lon="-1.232905471484906"><ele>161.0</ele><time>2026-04-29T13:52:42Z</time></trkpt><trkpt lat="43.16790514406937" lon="-1.2329370585837243"><ele>161.0</ele><time>2026-04-29T13:52:43Z</time></trkpt><trkpt lat="43.167814758532714" lon="-1.2329673069544451"><ele>161.0</ele><time>2026-04-29T13:52:44Z</time></trkpt><trkpt lat="43.167728487533104" lon="-1.2330135105260025"><ele>161.0</ele><time>2026-04-29T13:52:45Z</time></trkpt><trkpt lat="43.16764300215546" lon="-1.2330494767291973"><ele>161.0</ele><time>2026-04-29T13:52:46Z</time></trkpt><trkpt lat="43.167558423881935" lon="-1.2330844785928576"><ele>161.0</ele><time>2026-04-29T13:52:47Z</time></trkpt><trkpt lat="43.16747381495864" lon="-1.2331212667746279"><ele>161.0</ele><time>2026-04-29T13:52:48Z</time></trkpt><trkpt lat="43.16738865516645" lon="-1.233154125223597"><ele>161.0</ele><time>2026-04-29T13:52:49Z</time></trkpt><trkpt lat="43.167306393912405" lon="-1.2331841963339905"><ele>161.0</ele><time>2026-04-29T13:52:50Z</time></trkpt><trkpt lat="43.16722219057737" lon="-1.233212289011342"><ele>161.0</ele><time>2026-04-29T13:52:51Z</time></trkpt><trkpt lat="43.167138512792484" lon="-1.2332369956716567"><ele>161.0</ele><time>2026-04-29T13:52:52Z</time></trkpt><trkpt lat="43.167062431093534" lon="-1.2332694380103733"><ele>161.0</ele><time>2026-04-29T13:52:53Z</time></trkpt><trkpt lat="43.16698973131998" lon="-1.2333032612008188"><ele>161.0</ele><time>2026-04-29T13:52:54Z</time></trkpt><trkpt lat="43.166920038746795" lon="-1.2333319313246356"><ele>161.0</ele><time>2026-04-29T13:52:55Z</time></trkpt><trkpt lat="43.16684982108501" lon="-1.2333579307642915"><ele>161.0</ele><time>2026-04-29T13:52:56Z</time></trkpt><trkpt lat="43.16674054467823" lon="-1.233400587333035"><ele>161.0</ele><time>2026-04-29T13:52:58Z</time></trkpt><trkpt lat="43.16665629553937" lon="-1.2334354964899796"><ele>161.0</ele><time>2026-04-29T13:53:00Z</time></trkpt><trkpt lat="43.16656847534518" lon="-1.2334745970375443"><ele>161.0</ele><time>2026-04-29T13:53:02.001Z</time></trkpt><trkpt lat="43.16647531669672" lon="-1.2335196239627415"><ele>161.0</ele><time>2026-04-29T13:53:04.001Z</time></trkpt><trkpt lat="43.16636674851826" lon="-1.2335557647392652"><ele>161.0</ele><time>2026-04-29T13:53:06.001Z</time></trkpt><trkpt lat="43.16624582710867" lon="-1.2336007235056483"><ele>161.0</ele><time>2026-04-29T13:53:08.001Z</time></trkpt><trkpt lat="43.16618359803231" lon="-1.2336255111794332"><ele>161.0</ele><time>2026-04-29T13:53:09.001Z</time></trkpt><trkpt lat="43.16611974115029" lon="-1.2336526911891015"><ele>161.0</ele><time>2026-04-29T13:53:10.001Z</time></trkpt><trkpt lat="43.16605289403161" lon="-1.2336779187067348"><ele>161.0</ele><time>2026-04-29T13:53:11.001Z</time></trkpt><trkpt lat="43.1659856740629" lon="-1.2337046944466892"><ele>161.0</ele><time>2026-04-29T13:53:12.001Z</time></trkpt><trkpt lat="43.16588972882208" lon="-1.2337478965422315"><ele>161.0</ele><time>2026-04-29T13:53:14.001Z</time></trkpt><trkpt lat="43.16583007408273" lon="-1.2337780519127042"><ele>161.0</ele><time>2026-04-29T13:53:16.001Z</time></trkpt><trkpt lat="43.165760115155116" lon="-1.2338154543876598"><ele>161.0</ele><time>2026-04-29T13:53:18.001Z</time></trkpt><trkpt lat="43.165692772259646" lon="-1.2339007568351243"><ele>161.0</ele><time>2026-04-29T13:53:20.001Z</time></trkpt><trkpt lat="43.16561568092573" lon="-1.2339408260684028"><ele>161.0</ele><time>2026-04-29T13:53:22.001Z</time></trkpt><trkpt lat="43.16554338990799" lon="-1.23399734385482"><ele>161.5</ele><time>2026-04-29T13:53:29.001Z</time></trkpt><trkpt lat="43.16547757461795" lon="-1.233918879689635"><ele>162.0</ele><time>2026-04-29T13:53:30.001Z</time></trkpt><trkpt lat="43.16538482110065" lon="-1.2339547930117936"><ele>162.5</ele><time>2026-04-29T13:53:32.001Z</time></trkpt><trkpt lat="43.16527239523367" lon="-1.2340029177956398"><ele>163.0</ele><time>2026-04-29T13:53:34.001Z</time></trkpt><trkpt lat="43.16521113609465" lon="-1.2340268071715128"><ele>163.5</ele><time>2026-04-29T13:53:35.001Z</time></trkpt><trkpt lat="43.16514677666946" lon="-1.2340521362865393"><ele>164.0</ele><time>2026-04-29T13:53:36.001Z</time></trkpt><trkpt lat="43.16508153426521" lon="-1.234074559488278"><ele>163.99999999999997</ele><time>2026-04-29T13:53:37.001Z</time></trkpt><trkpt lat="43.16501611407132" lon="-1.2341038301664713"><ele>164.0</ele><time>2026-04-29T13:53:38.001Z</time></trkpt><trkpt lat="43.164948225585334" lon="-1.2341298842807267"><ele>164.0</ele><time>2026-04-29T13:53:39.001Z</time></trkpt><trkpt lat="43.16487875181959" lon="-1.234156018230235"><ele>164.0</ele><time>2026-04-29T13:53:40.001Z</time></trkpt><trkpt lat="43.16480876690215" lon="-1.2341786236802186"><ele>164.0</ele><time>2026-04-29T13:53:41.001Z</time></trkpt><trkpt lat="43.16473926160191" lon="-1.2342059212913001"><ele>163.99999999999997</ele><time>2026-04-29T13:53:42.001Z</time></trkpt><trkpt lat="43.164670943842495" lon="-1.2342310983681253"><ele>164.0</ele><time>2026-04-29T13:53:43.001Z</time></trkpt><trkpt lat="43.16460639306238" lon="-1.2342557514703298"><ele>165.57142857142856</ele><time>2026-04-29T13:53:44.001Z</time></trkpt><trkpt lat="43.16454237045324" lon="-1.234286494545758"><ele>167.14285714285714</ele><time>2026-04-29T13:53:45.001Z</time></trkpt><trkpt lat="43.164481007480056" lon="-1.2343336851672613"><ele>168.71428571428572</ele><time>2026-04-29T13:53:46.001Z</time></trkpt><trkpt lat="43.16442980314889" lon="-1.2344009831313876"><ele>170.28571428571428</ele><time>2026-04-29T13:53:47.001Z</time></trkpt><trkpt lat="43.16438305216398" lon="-1.234475774633602"><ele>171.85714285714286</ele><time>2026-04-29T13:53:48.001Z</time></trkpt><trkpt lat="43.16433995056325" lon="-1.2345563364519754"><ele>173.42857142857142</ele><time>2026-04-29T13:53:49.001Z</time></trkpt><trkpt lat="43.16430758271723" lon="-1.2346473039836703"><ele>175.0</ele><time>2026-04-29T13:53:50.001Z</time></trkpt><trkpt lat="43.164289793186114" lon="-1.2347426779027073"><ele>175.0</ele><time>2026-04-29T13:53:51.001Z</time></trkpt><trkpt lat="43.16428143520828" lon="-1.2348403698106376"><ele>175.0</ele><time>2026-04-29T13:53:52.001Z</time></trkpt><trkpt lat="43.16427555833032" lon="-1.2349404459667892"><ele>175.0</ele><time>2026-04-29T13:53:53.001Z</time></trkpt><trkpt lat="43.164270279437815" lon="-1.2350425896843893"><ele>175.0</ele><time>2026-04-29T13:53:54.001Z</time></trkpt><trkpt lat="43.16426111193879" lon="-1.2351431773818962"><ele>175.0</ele><time>2026-04-29T13:53:55.001Z</time></trkpt><trkpt lat="43.16425490043404" lon="-1.2352488128540642"><ele>175.0</ele><time>2026-04-29T13:53:56.001Z</time></trkpt><trkpt lat="43.16424900127731" lon="-1.2353588041943198"><ele>175.0</ele><time>2026-04-29T13:53:57.001Z</time></trkpt><trkpt lat="43.16424003976683" lon="-1.2354683543354235"><ele>175.0</ele><time>2026-04-29T13:53:58.001Z</time></trkpt><trkpt lat="43.1642207542798" lon="-1.23556765452458"><ele>175.0</ele><time>2026-04-29T13:53:59.001Z</time></trkpt><trkpt lat="43.16420252156461" lon="-1.2356730320334361"><ele>175.0</ele><time>2026-04-29T13:53:59.999Z</time></trkpt><trkpt lat="43.16418446000489" lon="-1.2357753550849597"><ele>175.0</ele><time>2026-04-29T13:54:00.999Z</time></trkpt><trkpt lat="43.1641648094403" lon="-1.235876575295781"><ele>175.0</ele><time>2026-04-29T13:54:01.999Z</time></trkpt><trkpt lat="43.164141384882285" lon="-1.2359756394145833"><ele>175.0</ele><time>2026-04-29T13:54:02.999Z</time></trkpt><trkpt lat="43.16410974442588" lon="-1.2360733265149009"><ele>175.0</ele><time>2026-04-29T13:54:03.999Z</time></trkpt><trkpt lat="43.16407392510408" lon="-1.23616874920581"><ele>175.0</ele><time>2026-04-29T13:54:04.999Z</time></trkpt><trkpt lat="43.16403639191236" lon="-1.236262183917621"><ele>175.0</ele><time>2026-04-29T13:54:05.999Z</time></trkpt><trkpt lat="43.164000618350386" lon="-1.2363521590397593"><ele>175.0</ele><time>2026-04-29T13:54:06.999Z</time></trkpt><trkpt lat="43.1639693170972" lon="-1.2364347501934094"><ele>175.0</ele><time>2026-04-29T13:54:07.999Z</time></trkpt><trkpt lat="43.16394204722443" lon="-1.2365193926888776"><ele>175.0</ele><time>2026-04-29T13:54:08.999Z</time></trkpt><trkpt lat="43.16391256299643" lon="-1.2365993047485393"><ele>175.85714285714286</ele><time>2026-04-29T13:54:09.999Z</time></trkpt><trkpt lat="43.16387945084039" lon="-1.236676569997679"><ele>176.71428571428572</ele><time>2026-04-29T13:54:10.999Z</time></trkpt><trkpt lat="43.16384545905708" lon="-1.2367547338717455"><ele>177.57142857142856</ele><time>2026-04-29T13:54:11.999Z</time></trkpt><trkpt lat="43.16379796713991" lon="-1.2368163152198086"><ele>178.42857142857144</ele><time>2026-04-29T13:54:12.999Z</time></trkpt><trkpt lat="43.1637513667129" lon="-1.2368771385230006"><ele>179.28571428571428</ele><time>2026-04-29T13:54:13.999Z</time></trkpt><trkpt lat="43.163707907887044" lon="-1.2369457146900629"><ele>180.14285714285714</ele><time>2026-04-29T13:54:14.999Z</time></trkpt><trkpt lat="43.16366561115364" lon="-1.2370105860124962"><ele>181.0</ele><time>2026-04-29T13:54:15.999Z</time></trkpt><trkpt lat="43.16358014702447" lon="-1.2371320578205585"><ele>181.0</ele><time>2026-04-29T13:54:17.999Z</time></trkpt><trkpt lat="43.1635012626031" lon="-1.2372522265017643"><ele>181.0</ele><time>2026-04-29T13:54:19.999Z</time></trkpt><trkpt lat="43.163427473607385" lon="-1.2373609085160533"><ele>181.0</ele><time>2026-04-29T13:54:21.999Z</time></trkpt><trkpt lat="43.16334319601148" lon="-1.2374700381304216"><ele>181.0</ele><time>2026-04-29T13:54:23.999Z</time></trkpt><trkpt lat="43.16325494672911" lon="-1.2375868657975204"><ele>179.0</ele><time>2026-04-29T13:54:25.999Z</time></trkpt><trkpt lat="43.163165291229745" lon="-1.237708257264347"><ele>177.0</ele><time>2026-04-29T13:54:27.999Z</time></trkpt><trkpt lat="43.1631183243969" lon="-1.2377733991971756"><ele>175.0</ele><time>2026-04-29T13:54:29Z</time></trkpt><trkpt lat="43.163067393679306" lon="-1.2378382034772775"><ele>173.0</ele><time>2026-04-29T13:54:30Z</time></trkpt><trkpt lat="43.16301003094534" lon="-1.2378991565230149"><ele>171.0</ele><time>2026-04-29T13:54:31Z</time></trkpt><trkpt lat="43.16295000852183" lon="-1.237960129627688"><ele>169.0</ele><time>2026-04-29T13:54:32Z</time></trkpt><trkpt lat="43.16288950359312" lon="-1.238013206008911"><ele>169.0</ele><time>2026-04-29T13:54:33Z</time></trkpt><trkpt lat="43.162826530419245" lon="-1.2380612432254317"><ele>169.0</ele><time>2026-04-29T13:54:34Z</time></trkpt><trkpt lat="43.16276260515346" lon="-1.2381084727872345"><ele>169.0</ele><time>2026-04-29T13:54:35Z</time></trkpt><trkpt lat="43.16270991656454" lon="-1.2381747616608323"><ele>169.0</ele><time>2026-04-29T13:54:36Z</time></trkpt><trkpt lat="43.16264890530487" lon="-1.2382257711472573"><ele>169.0</ele><time>2026-04-29T13:54:37Z</time></trkpt><trkpt lat="43.16258968006805" lon="-1.238274617176648"><ele>169.0</ele><time>2026-04-29T13:54:38Z</time></trkpt><trkpt lat="43.16252196098171" lon="-1.2383071674639374"><ele>169.0</ele><time>2026-04-29T13:54:39Z</time></trkpt><trkpt lat="43.162463965302486" lon="-1.2383655299422227"><ele>169.28571428571428</ele><time>2026-04-29T13:54:40Z</time></trkpt><trkpt lat="43.162403551100375" lon="-1.2384125247791617"><ele>169.57142857142856</ele><time>2026-04-29T13:54:41Z</time></trkpt><trkpt lat="43.1623435621544" lon="-1.238463370255144"><ele>169.85714285714283</ele><time>2026-04-29T13:54:42Z</time></trkpt><trkpt lat="43.162284499621535" lon="-1.2385115591476012"><ele>170.14285714285714</ele><time>2026-04-29T13:54:43Z</time></trkpt><trkpt lat="43.16222903150398" lon="-1.2385577358402173"><ele>170.42857142857142</ele><time>2026-04-29T13:54:44Z</time></trkpt><trkpt lat="43.16214212427717" lon="-1.238640379813267"><ele>170.7142857142857</ele><time>2026-04-29T13:54:46Z</time></trkpt><trkpt lat="43.162090488369834" lon="-1.2386958363589675"><ele>171.0</ele><time>2026-04-29T13:54:48Z</time></trkpt><trkpt lat="43.16203564196839" lon="-1.2387691616125434"><ele>171.0</ele><time>2026-04-29T13:54:50Z</time></trkpt><trkpt lat="43.16201308749356" lon="-1.238884229238198"><ele>171.0</ele><time>2026-04-29T13:54:52Z</time></trkpt><trkpt lat="43.162053952150686" lon="-1.238992226946749"><ele>171.0</ele><time>2026-04-29T13:54:54Z</time></trkpt><trkpt lat="43.162139772921314" lon="-1.2390977667717973"><ele>171.0</ele><time>2026-04-29T13:54:56Z</time></trkpt><trkpt lat="43.1622401079826" lon="-1.239198671187986"><ele>171.0</ele><time>2026-04-29T13:54:58Z</time></trkpt><trkpt lat="43.16229663744148" lon="-1.23924706284371"><ele>170.83333333333334</ele><time>2026-04-29T13:54:59Z</time></trkpt><trkpt lat="43.162353592507536" lon="-1.23929495268301"><ele>170.66666666666666</ele><time>2026-04-29T13:55:00Z</time></trkpt><trkpt lat="43.16240596785543" lon="-1.2393432488110345"><ele>170.5</ele><time>2026-04-29T13:55:01Z</time></trkpt><trkpt lat="43.162501649191476" lon="-1.2394454813205795"><ele>170.33333333333331</ele><time>2026-04-29T13:55:03Z</time></trkpt><trkpt lat="43.1625495309786" lon="-1.2395088799841407"><ele>170.16666666666666</ele><time>2026-04-29T13:55:04Z</time></trkpt><trkpt lat="43.162597337947496" lon="-1.2395827148281473"><ele>170.0</ele><time>2026-04-29T13:55:05Z</time></trkpt><trkpt lat="43.162652016610075" lon="-1.2396565641194506"><ele>169.5</ele><time>2026-04-29T13:55:06Z</time></trkpt><trkpt lat="43.16270858867035" lon="-1.2397212179472044"><ele>169.0</ele><time>2026-04-29T13:55:07Z</time></trkpt><trkpt lat="43.16275983280584" lon="-1.2397928739988766"><ele>168.5</ele><time>2026-04-29T13:55:08Z</time></trkpt><trkpt lat="43.162804730975914" lon="-1.2398644790379547"><ele>168.0</ele><time>2026-04-29T13:55:09Z</time></trkpt><trkpt lat="43.16289076673126" lon="-1.2399751655906959"><ele>167.5</ele><time>2026-04-29T13:55:11Z</time></trkpt><trkpt lat="43.16288551866698" lon="-1.2400925896598163"><ele>167.0</ele><time>2026-04-29T13:55:12Z</time></trkpt><trkpt lat="43.162908780165395" lon="-1.2401817361214016"><ele>167.0</ele><time>2026-04-29T13:55:13Z</time></trkpt><trkpt lat="43.16294243605364" lon="-1.2402744765101992"><ele>167.0</ele><time>2026-04-29T13:55:14Z</time></trkpt><trkpt lat="43.16297838368486" lon="-1.2403631557941863"><ele>167.0</ele><time>2026-04-29T13:55:15.001Z</time></trkpt><trkpt lat="43.16301744625947" lon="-1.2404535715559946"><ele>167.0</ele><time>2026-04-29T13:55:16.001Z</time></trkpt><trkpt lat="43.16305983222507" lon="-1.2405453843055734"><ele>167.0</ele><time>2026-04-29T13:55:17.001Z</time></trkpt><trkpt lat="43.16310345655877" lon="-1.2406411158276975"><ele>167.0</ele><time>2026-04-29T13:55:18.001Z</time></trkpt><trkpt lat="43.163148828964246" lon="-1.2407358377415094"><ele>166.66666666666666</ele><time>2026-04-29T13:55:19.001Z</time></trkpt><trkpt lat="43.163195994322415" lon="-1.2408299523655841"><ele>166.33333333333331</ele><time>2026-04-29T13:55:20.001Z</time></trkpt><trkpt lat="43.163242049528634" lon="-1.2409235848684794"><ele>166.0</ele><time>2026-04-29T13:55:21.001Z</time></trkpt><trkpt lat="43.163290616735885" lon="-1.2410180668837714"><ele>165.66666666666666</ele><time>2026-04-29T13:55:22.001Z</time></trkpt><trkpt lat="43.163337006726245" lon="-1.2411146150197017"><ele>165.33333333333334</ele><time>2026-04-29T13:55:23.001Z</time></trkpt><trkpt lat="43.16338048530265" lon="-1.241215917443154"><ele>165.0</ele><time>2026-04-29T13:55:24.001Z</time></trkpt><trkpt lat="43.16341216389913" lon="-1.2413273967282792"><ele>165.0</ele><time>2026-04-29T13:55:25.001Z</time></trkpt><trkpt lat="43.163435014004484" lon="-1.2414437484422625"><ele>165.0</ele><time>2026-04-29T13:55:26.001Z</time></trkpt><trkpt lat="43.16344605828059" lon="-1.2415602190622723"><ele>165.0</ele><time>2026-04-29T13:55:27.001Z</time></trkpt><trkpt lat="43.16344605424404" lon="-1.2416764714434076"><ele>165.0</ele><time>2026-04-29T13:55:28.001Z</time></trkpt><trkpt lat="43.163440488393775" lon="-1.241790886551965"><ele>165.0</ele><time>2026-04-29T13:55:29.001Z</time></trkpt><trkpt lat="43.1634318270459" lon="-1.2419042332872194"><ele>165.0</ele><time>2026-04-29T13:55:30.001Z</time></trkpt><trkpt lat="43.16342021778492" lon="-1.2420137146408"><ele>165.5</ele><time>2026-04-29T13:55:31.001Z</time></trkpt><trkpt lat="43.163403530879044" lon="-1.2421283093443842"><ele>166.0</ele><time>2026-04-29T13:55:32.001Z</time></trkpt><trkpt lat="43.163382624937086" lon="-1.2422379670719308"><ele>166.5</ele><time>2026-04-29T13:55:33.001Z</time></trkpt><trkpt lat="43.16335735990574" lon="-1.242346511889154"><ele>167.0</ele><time>2026-04-29T13:55:34.001Z</time></trkpt><trkpt lat="43.163326553404566" lon="-1.2424514161177336"><ele>167.5</ele><time>2026-04-29T13:55:35.001Z</time></trkpt><trkpt lat="43.163297641065036" lon="-1.2425584974778006"><ele>168.0</ele><time>2026-04-29T13:55:36.001Z</time></trkpt><trkpt lat="43.16326852945543" lon="-1.2426610565615404"><ele>169.16666666666666</ele><time>2026-04-29T13:55:37.001Z</time></trkpt><trkpt lat="43.16324192270879" lon="-1.2427650958365561"><ele>170.33333333333334</ele><time>2026-04-29T13:55:38.001Z</time></trkpt><trkpt lat="43.16320896265706" lon="-1.2428696094678298"><ele>171.5</ele><time>2026-04-29T13:55:39.001Z</time></trkpt><trkpt lat="43.16317963664817" lon="-1.2429781989582063"><ele>172.66666666666669</ele><time>2026-04-29T13:55:40.001Z</time></trkpt><trkpt lat="43.163148524349964" lon="-1.243083829442166"><ele>173.83333333333334</ele><time>2026-04-29T13:55:41.001Z</time></trkpt><trkpt lat="43.163117729217426" lon="-1.2431961970147734"><ele>175.0</ele><time>2026-04-29T13:55:42.001Z</time></trkpt><trkpt lat="43.16308735334751" lon="-1.2433092065322893"><ele>176.33333333333334</ele><time>2026-04-29T13:55:43.001Z</time></trkpt><trkpt lat="43.163057137759104" lon="-1.2434249782332822"><ele>177.66666666666669</ele><time>2026-04-29T13:55:44.001Z</time></trkpt><trkpt lat="43.16302933637515" lon="-1.2435381031381707"><ele>179.0</ele><time>2026-04-29T13:55:45.001Z</time></trkpt><trkpt lat="43.16299862992759" lon="-1.2436514647910692"><ele>180.33333333333334</ele><time>2026-04-29T13:55:46.001Z</time></trkpt><trkpt lat="43.16297011839432" lon="-1.2437658519849601"><ele>181.66666666666666</ele><time>2026-04-29T13:55:47.001Z</time></trkpt><trkpt lat="43.162940581418546" lon="-1.2438746120374249"><ele>183.0</ele><time>2026-04-29T13:55:48.001Z</time></trkpt><trkpt lat="43.16291076767888" lon="-1.2439869339538014"><ele>183.0</ele><time>2026-04-29T13:55:49.001Z</time></trkpt><trkpt lat="43.162879432018826" lon="-1.2441035490093644"><ele>183.0</ele><time>2026-04-29T13:55:50.001Z</time></trkpt><trkpt lat="43.162845221939826" lon="-1.2442134086203107"><ele>183.0</ele><time>2026-04-29T13:55:51.001Z</time></trkpt><trkpt lat="43.162810930396255" lon="-1.2443227659233824"><ele>183.0</ele><time>2026-04-29T13:55:52.001Z</time></trkpt><trkpt lat="43.16276801861904" lon="-1.2444254857986803"><ele>183.0</ele><time>2026-04-29T13:55:53.001Z</time></trkpt><trkpt lat="43.16271581457029" lon="-1.2445177127854619"><ele>183.0</ele><time>2026-04-29T13:55:54.001Z</time></trkpt><trkpt lat="43.162651065030346" lon="-1.244601179805481"><ele>183.0</ele><time>2026-04-29T13:55:55.001Z</time></trkpt><trkpt lat="43.16257672303848" lon="-1.2446622472724096"><ele>183.0</ele><time>2026-04-29T13:55:56.001Z</time></trkpt><trkpt lat="43.162502452550704" lon="-1.2447122993934185"><ele>183.0</ele><time>2026-04-29T13:55:57.001Z</time></trkpt><trkpt lat="43.16242515685741" lon="-1.2447501348183212"><ele>183.0</ele><time>2026-04-29T13:55:58.001Z</time></trkpt><trkpt lat="43.16234404515155" lon="-1.2447794184371719"><ele>183.0</ele><time>2026-04-29T13:55:59.001Z</time></trkpt><trkpt lat="43.16225968389999" lon="-1.2447894631954375"><ele>183.0</ele><time>2026-04-29T13:56:00.001Z</time></trkpt><trkpt lat="43.16217495352206" lon="-1.244795054022713"><ele>183.66666666666666</ele><time>2026-04-29T13:56:01.001Z</time></trkpt><trkpt lat="43.162088299032305" lon="-1.2447903771840305"><ele>184.33333333333334</ele><time>2026-04-29T13:56:02.001Z</time></trkpt><trkpt lat="43.16200056672196" lon="-1.2447871612033392"><ele>185.0</ele><time>2026-04-29T13:56:03.001Z</time></trkpt><trkpt lat="43.16191195584563" lon="-1.244778010558396"><ele>185.66666666666669</ele><time>2026-04-29T13:56:04.001Z</time></trkpt><trkpt lat="43.16182131847939" lon="-1.2447649915761718"><ele>186.33333333333334</ele><time>2026-04-29T13:56:05.001Z</time></trkpt><trkpt lat="43.161731334363346" lon="-1.2447531399360983"><ele>187.0</ele><time>2026-04-29T13:56:05.998Z</time></trkpt><trkpt lat="43.16164066713256" lon="-1.2447400256271843"><ele>187.0</ele><time>2026-04-29T13:56:06.998Z</time></trkpt><trkpt lat="43.16154969984333" lon="-1.244730730696452"><ele>187.0</ele><time>2026-04-29T13:56:07.998Z</time></trkpt><trkpt lat="43.16145875900502" lon="-1.2447229344085102"><ele>187.0</ele><time>2026-04-29T13:56:08.998Z</time></trkpt><trkpt lat="43.16136545803703" lon="-1.244712051374434"><ele>187.0</ele><time>2026-04-29T13:56:09.998Z</time></trkpt><trkpt lat="43.16127076297932" lon="-1.244706057668961"><ele>187.0</ele><time>2026-04-29T13:56:10.999Z</time></trkpt><trkpt lat="43.161175703433" lon="-1.2446938646243615"><ele>187.39999999999998</ele><time>2026-04-29T13:56:11.999Z</time></trkpt><trkpt lat="43.16108178533263" lon="-1.2446788432606029"><ele>187.79999999999998</ele><time>2026-04-29T13:56:12.999Z</time></trkpt><trkpt lat="43.16098575895211" lon="-1.2446615445957314"><ele>188.2</ele><time>2026-04-29T13:56:13.999Z</time></trkpt><trkpt lat="43.16088765538763" lon="-1.2446548535401534"><ele>188.6</ele><time>2026-04-29T13:56:14.999Z</time></trkpt><trkpt lat="43.16079620623838" lon="-1.2446428991584428"><ele>189.0</ele><time>2026-04-29T13:56:15.999Z</time></trkpt><trkpt lat="43.160701225068124" lon="-1.244628164524476"><ele>190.0</ele><time>2026-04-29T13:56:16.999Z</time></trkpt><trkpt lat="43.160605170560366" lon="-1.2446135799616826"><ele>191.0</ele><time>2026-04-29T13:56:17.999Z</time></trkpt><trkpt lat="43.160510983273646" lon="-1.2446027956003483"><ele>192.0</ele><time>2026-04-29T13:56:18.999Z</time></trkpt><trkpt lat="43.160417934821425" lon="-1.2445922957607773"><ele>193.0</ele><time>2026-04-29T13:56:19.999Z</time></trkpt><trkpt lat="43.160324506972245" lon="-1.2445942885581385"><ele>194.0</ele><time>2026-04-29T13:56:20.999Z</time></trkpt><trkpt lat="43.16023164583969" lon="-1.2445953584668132"><ele>194.0</ele><time>2026-04-29T13:56:21.999Z</time></trkpt><trkpt lat="43.16013905313849" lon="-1.2446047362599462"><ele>194.0</ele><time>2026-04-29T13:56:22.999Z</time></trkpt><trkpt lat="43.16004829847217" lon="-1.2446267504346067"><ele>194.0</ele><time>2026-04-29T13:56:23.999Z</time></trkpt><trkpt lat="43.15995720732747" lon="-1.2446533362714995"><ele>194.0</ele><time>2026-04-29T13:56:24.999Z</time></trkpt><trkpt lat="43.159868918574844" lon="-1.2446917287470314"><ele>194.0</ele><time>2026-04-29T13:56:25.999Z</time></trkpt><trkpt lat="43.159782082944616" lon="-1.244740795544702"><ele>194.39999999999998</ele><time>2026-04-29T13:56:26.999Z</time></trkpt><trkpt lat="43.159697497216584" lon="-1.2447956165219"><ele>194.8</ele><time>2026-04-29T13:56:27.999Z</time></trkpt><trkpt lat="43.15961488351366" lon="-1.2448576471139856"><ele>195.2</ele><time>2026-04-29T13:56:28.999Z</time></trkpt><trkpt lat="43.15953382010905" lon="-1.2449253449186612"><ele>195.60000000000002</ele><time>2026-04-29T13:56:29.999Z</time></trkpt><trkpt lat="43.15945463335274" lon="-1.2450011532614058"><ele>196.0</ele><time>2026-04-29T13:56:30.999Z</time></trkpt><trkpt lat="43.15937931904204" lon="-1.2450844250618116"><ele>196.0</ele><time>2026-04-29T13:56:31.999Z</time></trkpt><trkpt lat="43.159307168838005" lon="-1.2451775806000358"><ele>196.0</ele><time>2026-04-29T13:56:32.999Z</time></trkpt><trkpt lat="43.15924120788877" lon="-1.2452776391036444"><ele>196.0</ele><time>2026-04-29T13:56:34Z</time></trkpt><trkpt lat="43.159183954075075" lon="-1.2453855523412456"><ele>196.0</ele><time>2026-04-29T13:56:35Z</time></trkpt><trkpt lat="43.159131686679416" lon="-1.2455034475139666"><ele>196.0</ele><time>2026-04-29T13:56:36Z</time></trkpt><trkpt lat="43.15908027338391" lon="-1.2456230731291726"><ele>195.4</ele><time>2026-04-29T13:56:37Z</time></trkpt><trkpt lat="43.15903035110017" lon="-1.2457474019155665"><ele>194.8</ele><time>2026-04-29T13:56:38Z</time></trkpt><trkpt lat="43.158980668411054" lon="-1.2458700957310187"><ele>194.20000000000002</ele><time>2026-04-29T13:56:39Z</time></trkpt><trkpt lat="43.15893294920744" lon="-1.2459957314939787"><ele>193.60000000000002</ele><time>2026-04-29T13:56:40Z</time></trkpt><trkpt lat="43.15888461500917" lon="-1.2461234159573291"><ele>193.0</ele><time>2026-04-29T13:56:41Z</time></trkpt><trkpt lat="43.158833371098765" lon="-1.2462489472287788"><ele>193.0</ele><time>2026-04-29T13:56:42Z</time></trkpt><trkpt lat="43.15878194596012" lon="-1.246374117301255"><ele>193.0</ele><time>2026-04-29T13:56:43Z</time></trkpt><trkpt lat="43.15873171126828" lon="-1.2465029022288725"><ele>193.0</ele><time>2026-04-29T13:56:44Z</time></trkpt><trkpt lat="43.15868192020061" lon="-1.246630115527689"><ele>193.0</ele><time>2026-04-29T13:56:45Z</time></trkpt><trkpt lat="43.15863370095848" lon="-1.2467561525778181"><ele>193.0</ele><time>2026-04-29T13:56:46Z</time></trkpt><trkpt lat="43.15858285164545" lon="-1.2468829567714141"><ele>192.2</ele><time>2026-04-29T13:56:47Z</time></trkpt><trkpt lat="43.15853246727915" lon="-1.2470114926650244"><ele>191.4</ele><time>2026-04-29T13:56:48Z</time></trkpt><trkpt lat="43.15848311020274" lon="-1.2471389143450544"><ele>190.6</ele><time>2026-04-29T13:56:49Z</time></trkpt><trkpt lat="43.15843198739832" lon="-1.247264609603227"><ele>189.79999999999998</ele><time>2026-04-29T13:56:50Z</time></trkpt><trkpt lat="43.15837819600887" lon="-1.2473884674450197"><ele>189.0</ele><time>2026-04-29T13:56:51Z</time></trkpt><trkpt lat="43.158321985046314" lon="-1.247506609961203"><ele>188.79999999999998</ele><time>2026-04-29T13:56:52Z</time></trkpt><trkpt lat="43.15826760316995" lon="-1.247626330865623"><ele>188.6</ele><time>2026-04-29T13:56:53Z</time></trkpt><trkpt lat="43.15822422197968" lon="-1.247753054335902"><ele>188.4</ele><time>2026-04-29T13:56:54Z</time></trkpt><trkpt lat="43.158144076026225" lon="-1.247851183752952"><ele>188.2</ele><time>2026-04-29T13:56:55Z</time></trkpt><trkpt lat="43.15807392773678" lon="-1.2479510375471332"><ele>188.0</ele><time>2026-04-29T13:56:56Z</time></trkpt><trkpt lat="43.15799763151526" lon="-1.2480475591047602"><ele>188.0</ele><time>2026-04-29T13:56:57Z</time></trkpt><trkpt lat="43.157931167651896" lon="-1.2481617223212538"><ele>188.0</ele><time>2026-04-29T13:56:58Z</time></trkpt><trkpt lat="43.1578734750829" lon="-1.2482880429648042"><ele>188.0</ele><time>2026-04-29T13:56:59Z</time></trkpt><trkpt lat="43.157821369124584" lon="-1.2484250521211868"><ele>188.0</ele><time>2026-04-29T13:57:00Z</time></trkpt><trkpt lat="43.15777304822518" lon="-1.2485662945931142"><ele>188.0</ele><time>2026-04-29T13:57:01Z</time></trkpt><trkpt lat="43.157722399943744" lon="-1.2487064614217114"><ele>188.0</ele><time>2026-04-29T13:57:02Z</time></trkpt><trkpt lat="43.157659707662994" lon="-1.2488356994881509"><ele>188.0</ele><time>2026-04-29T13:57:03Z</time></trkpt><trkpt lat="43.15758499206458" lon="-1.24895405001649"><ele>188.0</ele><time>2026-04-29T13:57:04Z</time></trkpt><trkpt lat="43.15750454806632" lon="-1.2490565754163852"><ele>188.0</ele><time>2026-04-29T13:57:05Z</time></trkpt><trkpt lat="43.15740918858366" lon="-1.2491420791418208"><ele>186.4</ele><time>2026-04-29T13:57:06Z</time></trkpt><trkpt lat="43.15731289797718" lon="-1.2492213446534302"><ele>184.8</ele><time>2026-04-29T13:57:07Z</time></trkpt><trkpt lat="43.15722090723685" lon="-1.2493046594570696"><ele>183.2</ele><time>2026-04-29T13:57:08Z</time></trkpt><trkpt lat="43.15711812686353" lon="-1.2493548138939756"><ele>181.6</ele><time>2026-04-29T13:57:09Z</time></trkpt><trkpt lat="43.15701432925955" lon="-1.2493899583215495"><ele>180.0</ele><time>2026-04-29T13:57:10.001Z</time></trkpt><trkpt lat="43.15691044865074" lon="-1.2494075649517489"><ele>180.0</ele><time>2026-04-29T13:57:11.001Z</time></trkpt><trkpt lat="43.15680500725214" lon="-1.2493814175212878"><ele>180.0</ele><time>2026-04-29T13:57:12.001Z</time></trkpt><trkpt lat="43.15670244732419" lon="-1.2493644773661976"><ele>180.0</ele><time>2026-04-29T13:57:13.001Z</time></trkpt><trkpt lat="43.156600285744716" lon="-1.2493376877276923"><ele>180.0</ele><time>2026-04-29T13:57:14.001Z</time></trkpt><trkpt lat="43.156497593799784" lon="-1.2493030752048035"><ele>180.0</ele><time>2026-04-29T13:57:15.001Z</time></trkpt><trkpt lat="43.15639406020679" lon="-1.249267259134487"><ele>179.6</ele><time>2026-04-29T13:57:16.001Z</time></trkpt><trkpt lat="43.15628617885728" lon="-1.2492690507572164"><ele>179.2</ele><time>2026-04-29T13:57:17.001Z</time></trkpt><trkpt lat="43.15618041568924" lon="-1.2492514493066413"><ele>178.8</ele><time>2026-04-29T13:57:18.001Z</time></trkpt><trkpt lat="43.15607496955475" lon="-1.2492339005973818"><ele>178.4</ele><time>2026-04-29T13:57:19.001Z</time></trkpt><trkpt lat="43.155972579580826" lon="-1.2492015545100448"><ele>178.0</ele><time>2026-04-29T13:57:20.001Z</time></trkpt><trkpt lat="43.15586573813688" lon="-1.2491914486006903"><ele>178.0</ele><time>2026-04-29T13:57:21.001Z</time></trkpt><trkpt lat="43.15576083398803" lon="-1.2491911342180806"><ele>178.0</ele><time>2026-04-29T13:57:22.001Z</time></trkpt><trkpt lat="43.15565397116403" lon="-1.2492042840773188"><ele>178.0</ele><time>2026-04-29T13:57:23.001Z</time></trkpt><trkpt lat="43.15555009559058" lon="-1.249248113932332"><ele>178.0</ele><time>2026-04-29T13:57:24.001Z</time></trkpt><trkpt lat="43.155438713377855" lon="-1.2492455899346717"><ele>178.0</ele><time>2026-04-29T13:57:25.001Z</time></trkpt><trkpt lat="43.155328036402004" lon="-1.2492596149335427"><ele>178.60000000000002</ele><time>2026-04-29T13:57:26.001Z</time></trkpt><trkpt lat="43.15521892494729" lon="-1.2492687909091904"><ele>179.20000000000002</ele><time>2026-04-29T13:57:27.001Z</time></trkpt><trkpt lat="43.15510919544552" lon="-1.2492685581564458"><ele>179.8</ele><time>2026-04-29T13:57:28.001Z</time></trkpt><trkpt lat="43.15500201208707" lon="-1.249269966822415"><ele>180.4</ele><time>2026-04-29T13:57:29.001Z</time></trkpt><trkpt lat="43.15489704229502" lon="-1.2492872585197083"><ele>181.0</ele><time>2026-04-29T13:57:30.001Z</time></trkpt><trkpt lat="43.154793961899664" lon="-1.2493113623469319"><ele>182.8</ele><time>2026-04-29T13:57:31.001Z</time></trkpt><trkpt lat="43.15469440595432" lon="-1.2493459463400525"><ele>184.60000000000002</ele><time>2026-04-29T13:57:32.001Z</time></trkpt><trkpt lat="43.15459834216037" lon="-1.2493798538824554"><ele>186.4</ele><time>2026-04-29T13:57:33.001Z</time></trkpt><trkpt lat="43.15451013159265" lon="-1.2494148715491336"><ele>188.2</ele><time>2026-04-29T13:57:34.001Z</time></trkpt><trkpt lat="43.15442429970264" lon="-1.2494634865577794"><ele>190.0</ele><time>2026-04-29T13:57:35.001Z</time></trkpt><trkpt lat="43.154340539369436" lon="-1.2495197895347978"><ele>190.0</ele><time>2026-04-29T13:57:36.001Z</time></trkpt><trkpt lat="43.15425892134364" lon="-1.2495736087734426"><ele>190.0</ele><time>2026-04-29T13:57:37.001Z</time></trkpt><trkpt lat="43.154175510148264" lon="-1.2496300810271175"><ele>190.0</ele><time>2026-04-29T13:57:38.001Z</time></trkpt><trkpt lat="43.15408900181412" lon="-1.2496794664203377"><ele>190.0</ele><time>2026-04-29T13:57:39.001Z</time></trkpt><trkpt lat="43.15400095566434" lon="-1.2497242971548146"><ele>190.0</ele><time>2026-04-29T13:57:40.001Z</time></trkpt><trkpt lat="43.15391397251267" lon="-1.2497659022994452"><ele>187.2</ele><time>2026-04-29T13:57:41.001Z</time></trkpt><trkpt lat="43.153827917587904" lon="-1.2498127283188003"><ele>184.4</ele><time>2026-04-29T13:57:42.001Z</time></trkpt><trkpt lat="43.153742081025435" lon="-1.2498565623321305"><ele>181.60000000000002</ele><time>2026-04-29T13:57:43.001Z</time></trkpt><trkpt lat="43.1536579617439" lon="-1.2498998410584632"><ele>178.8</ele><time>2026-04-29T13:57:44.001Z</time></trkpt><trkpt lat="43.15357336446745" lon="-1.2499458677386124"><ele>176.0</ele><time>2026-04-29T13:57:45.001Z</time></trkpt><trkpt lat="43.15349382814167" lon="-1.2500053329353205"><ele>176.0</ele><time>2026-04-29T13:57:46.001Z</time></trkpt><trkpt lat="43.153420416927325" lon="-1.2500804087884698"><ele>176.0</ele><time>2026-04-29T13:57:47.001Z</time></trkpt><trkpt lat="43.15334944675304" lon="-1.2501584117417448"><ele>176.0</ele><time>2026-04-29T13:57:48.001Z</time></trkpt><trkpt lat="43.15327959712437" lon="-1.2502369475766946"><ele>176.0</ele><time>2026-04-29T13:57:49.001Z</time></trkpt><trkpt lat="43.15321241273351" lon="-1.2503199879844769"><ele>176.0</ele><time>2026-04-29T13:57:50.001Z</time></trkpt><trkpt lat="43.15314511042832" lon="-1.2504058394159863"><ele>177.0</ele><time>2026-04-29T13:57:51.001Z</time></trkpt><trkpt lat="43.15307562401858" lon="-1.2504909299117202"><ele>178.0</ele><time>2026-04-29T13:57:52.001Z</time></trkpt><trkpt lat="43.15300564570601" lon="-1.250574755466301"><ele>179.0</ele><time>2026-04-29T13:57:53.001Z</time></trkpt><trkpt lat="43.1529328643074" lon="-1.250655318729158"><ele>180.0</ele><time>2026-04-29T13:57:54.002Z</time></trkpt><trkpt lat="43.15285698515211" lon="-1.250732613508832"><ele>181.0</ele><time>2026-04-29T13:57:55.002Z</time></trkpt><trkpt lat="43.152784960963146" lon="-1.2508059943638392"><ele>181.0</ele><time>2026-04-29T13:57:56.002Z</time></trkpt><trkpt lat="43.15271358758994" lon="-1.2508775761938309"><ele>181.0</ele><time>2026-04-29T13:57:57.002Z</time></trkpt><trkpt lat="43.15264567458791" lon="-1.2509567491667195"><ele>181.0</ele><time>2026-04-29T13:57:58.002Z</time></trkpt><trkpt lat="43.15257663144966" lon="-1.2510315611753262"><ele>181.0</ele><time>2026-04-29T13:57:59.002Z</time></trkpt><trkpt lat="43.15250667115789" lon="-1.2511009097575947"><ele>181.0</ele><time>2026-04-29T13:58:00.002Z</time></trkpt><trkpt lat="43.15243675330624" lon="-1.2511736864725027"><ele>181.0</ele><time>2026-04-29T13:58:01.002Z</time></trkpt><trkpt lat="43.15236909753199" lon="-1.2512487173987035"><ele>180.83333333333334</ele><time>2026-04-29T13:58:02.002Z</time></trkpt><trkpt lat="43.15230228515531" lon="-1.2513217958199583"><ele>180.66666666666669</ele><time>2026-04-29T13:58:03.002Z</time></trkpt><trkpt lat="43.15223434822699" lon="-1.2513969202530297"><ele>180.5</ele><time>2026-04-29T13:58:04.002Z</time></trkpt><trkpt lat="43.152165648822795" lon="-1.2514695381001564"><ele>180.33333333333334</ele><time>2026-04-29T13:58:05.002Z</time></trkpt><trkpt lat="43.152097389465844" lon="-1.2515409411422227"><ele>180.16666666666666</ele><time>2026-04-29T13:58:06.002Z</time></trkpt><trkpt lat="43.15202785255364" lon="-1.2516123018895755"><ele>180.0</ele><time>2026-04-29T13:58:07.002Z</time></trkpt><trkpt lat="43.15195898633063" lon="-1.2516867051970075"><ele>180.0</ele><time>2026-04-29T13:58:08.002Z</time></trkpt><trkpt lat="43.15188920261823" lon="-1.2517577459310665"><ele>180.0</ele><time>2026-04-29T13:58:09.002Z</time></trkpt><trkpt lat="43.15182066788047" lon="-1.2518272999019402"><ele>180.0</ele><time>2026-04-29T13:58:10.002Z</time></trkpt><trkpt lat="43.15175081870795" lon="-1.2518949013986391"><ele>180.0</ele><time>2026-04-29T13:58:11.002Z</time></trkpt><trkpt lat="43.15168194595469" lon="-1.2519621289493745"><ele>180.0</ele><time>2026-04-29T13:58:12Z</time></trkpt><trkpt lat="43.15161331937601" lon="-1.252027844247802"><ele>180.0</ele><time>2026-04-29T13:58:13Z</time></trkpt><trkpt lat="43.1515450842567" lon="-1.252100128661231"><ele>180.33333333333334</ele><time>2026-04-29T13:58:14Z</time></trkpt><trkpt lat="43.15147638974843" lon="-1.2521751472729439"><ele>180.66666666666666</ele><time>2026-04-29T13:58:15Z</time></trkpt><trkpt lat="43.15140704069849" lon="-1.2522470852111844"><ele>181.0</ele><time>2026-04-29T13:58:16Z</time></trkpt><trkpt lat="43.15133877060276" lon="-1.2523187582534703"><ele>181.33333333333331</ele><time>2026-04-29T13:58:17Z</time></trkpt><trkpt lat="43.15126946009282" lon="-1.2523940942662957"><ele>181.66666666666666</ele><time>2026-04-29T13:58:18Z</time></trkpt><trkpt lat="43.151200449106234" lon="-1.2524635983861323"><ele>182.0</ele><time>2026-04-29T13:58:19Z</time></trkpt><trkpt lat="43.151131333165615" lon="-1.2525337772395984"><ele>182.0</ele><time>2026-04-29T13:58:20Z</time></trkpt><trkpt lat="43.15106413928253" lon="-1.2526085179937991"><ele>182.0</ele><time>2026-04-29T13:58:21Z</time></trkpt><trkpt lat="43.15099605661345" lon="-1.2526761504098487"><ele>182.0</ele><time>2026-04-29T13:58:22Z</time></trkpt><trkpt lat="43.150929832962625" lon="-1.2527505896879878"><ele>182.0</ele><time>2026-04-29T13:58:23Z</time></trkpt><trkpt lat="43.15085991336822" lon="-1.2528242867964277"><ele>182.0</ele><time>2026-04-29T13:58:24Z</time></trkpt><trkpt lat="43.150791237218016" lon="-1.2528939375348294"><ele>182.0</ele><time>2026-04-29T13:58:25Z</time></trkpt><trkpt lat="43.15072070901153" lon="-1.2529642414072606"><ele>183.33333333333331</ele><time>2026-04-29T13:58:26Z</time></trkpt><trkpt lat="43.15065090834882" lon="-1.2530397397735709"><ele>184.66666666666666</ele><time>2026-04-29T13:58:27Z</time></trkpt><trkpt lat="43.15058478658287" lon="-1.2531182065477549"><ele>186.0</ele><time>2026-04-29T13:58:28Z</time></trkpt><trkpt lat="43.1505205956016" lon="-1.2531976934011753"><ele>187.33333333333334</ele><time>2026-04-29T13:58:29Z</time></trkpt><trkpt lat="43.150462544767684" lon="-1.2532803140608664"><ele>188.66666666666669</ele><time>2026-04-29T13:58:30Z</time></trkpt><trkpt lat="43.150407590952206" lon="-1.2533620556308693"><ele>190.0</ele><time>2026-04-29T13:58:31Z</time></trkpt><trkpt lat="43.150356343237725" lon="-1.253441455821287"><ele>190.0</ele><time>2026-04-29T13:58:32Z</time></trkpt><trkpt lat="43.150306005960154" lon="-1.2535205562751013"><ele>190.0</ele><time>2026-04-29T13:58:33Z</time></trkpt><trkpt lat="43.15025603157283" lon="-1.2535919333616758"><ele>190.0</ele><time>2026-04-29T13:58:34Z</time></trkpt><trkpt lat="43.15020411324909" lon="-1.253654460597135"><ele>190.0</ele><time>2026-04-29T13:58:35Z</time></trkpt><trkpt lat="43.150151517275894" lon="-1.253714711700976"><ele>190.0</ele><time>2026-04-29T13:58:36Z</time></trkpt><trkpt lat="43.15009388452" lon="-1.2537583189487491"><ele>190.0</ele><time>2026-04-29T13:58:37Z</time></trkpt><trkpt lat="43.1500302338893" lon="-1.2537950172554708"><ele>190.0</ele><time>2026-04-29T13:58:38Z</time></trkpt><trkpt lat="43.14996529089979" lon="-1.253821363780188"><ele>190.0</ele><time>2026-04-29T13:58:39Z</time></trkpt><trkpt lat="43.14989233783493" lon="-1.2538418469119152"><ele>190.0</ele><time>2026-04-29T13:58:40Z</time></trkpt><trkpt lat="43.14981421696235" lon="-1.2538434535011573"><ele>190.0</ele><time>2026-04-29T13:58:41Z</time></trkpt><trkpt lat="43.14973470358733" lon="-1.2538313672084904"><ele>190.0</ele><time>2026-04-29T13:58:42Z</time></trkpt><trkpt lat="43.149654740497304" lon="-1.2538128504644073"><ele>190.0</ele><time>2026-04-29T13:58:43Z</time></trkpt><trkpt lat="43.14956682647026" lon="-1.253795419534894"><ele>190.0</ele><time>2026-04-29T13:58:44Z</time></trkpt><trkpt lat="43.149472677775236" lon="-1.2538052103886659"><ele>190.0</ele><time>2026-04-29T13:58:45Z</time></trkpt><trkpt lat="43.14937488673227" lon="-1.253831526231121"><ele>190.0</ele><time>2026-04-29T13:58:46Z</time></trkpt><trkpt lat="43.1492745297723" lon="-1.2538746202811775"><ele>190.0</ele><time>2026-04-29T13:58:47Z</time></trkpt><trkpt lat="43.149177485239505" lon="-1.253928002163349"><ele>190.0</ele><time>2026-04-29T13:58:48Z</time></trkpt><trkpt lat="43.14908295238154" lon="-1.2539828383596316"><ele>190.0</ele><time>2026-04-29T13:58:49Z</time></trkpt><trkpt lat="43.148991056292" lon="-1.2540415925608326"><ele>190.0</ele><time>2026-04-29T13:58:50Z</time></trkpt><trkpt lat="43.14889836944781" lon="-1.2540948843374913"><ele>190.0</ele><time>2026-04-29T13:58:51Z</time></trkpt><trkpt lat="43.14880639047925" lon="-1.2541517718234474"><ele>190.0</ele><time>2026-04-29T13:58:52Z</time></trkpt><trkpt lat="43.14871482910692" lon="-1.254203119645957"><ele>190.0</ele><time>2026-04-29T13:58:53Z</time></trkpt><trkpt lat="43.14862467821863" lon="-1.2542556928603725"><ele>190.0</ele><time>2026-04-29T13:58:54.001Z</time></trkpt><trkpt lat="43.14853553351167" lon="-1.254307083227627"><ele>190.0</ele><time>2026-04-29T13:58:55.001Z</time></trkpt><trkpt lat="43.148447542446505" lon="-1.2543629414522337"><ele>190.0</ele><time>2026-04-29T13:58:56.001Z</time></trkpt><trkpt lat="43.14835779867765" lon="-1.2544152904166659"><ele>190.0</ele><time>2026-04-29T13:58:57.001Z</time></trkpt><trkpt lat="43.14826885854707" lon="-1.2544679849982256"><ele>190.0</ele><time>2026-04-29T13:58:58.001Z</time></trkpt><trkpt lat="43.14818323460311" lon="-1.254519926051118"><ele>190.0</ele><time>2026-04-29T13:58:59.001Z</time></trkpt><trkpt lat="43.148094715331524" lon="-1.254567154180583"><ele>188.6</ele><time>2026-04-29T13:59:00.001Z</time></trkpt><trkpt lat="43.1480088554125" lon="-1.2546204702562955"><ele>187.2</ele><time>2026-04-29T13:59:01.001Z</time></trkpt><trkpt lat="43.14792357679641" lon="-1.2546682137766185"><ele>185.8</ele><time>2026-04-29T13:59:02.001Z</time></trkpt><trkpt lat="43.147839990975044" lon="-1.2547193125630551"><ele>184.4</ele><time>2026-04-29T13:59:03.001Z</time></trkpt><trkpt lat="43.14775249617447" lon="-1.2547655084052445"><ele>183.0</ele><time>2026-04-29T13:59:04.001Z</time></trkpt><trkpt lat="43.14766899021398" lon="-1.2548118791411471"><ele>183.0</ele><time>2026-04-29T13:59:05.001Z</time></trkpt><trkpt lat="43.14758516237248" lon="-1.254862609493405"><ele>183.0</ele><time>2026-04-29T13:59:06.001Z</time></trkpt><trkpt lat="43.14750033743087" lon="-1.254915257425896"><ele>183.0</ele><time>2026-04-29T13:59:07.001Z</time></trkpt><trkpt lat="43.14741592145109" lon="-1.2549643029827064"><ele>183.0</ele><time>2026-04-29T13:59:08.001Z</time></trkpt><trkpt lat="43.147331490129304" lon="-1.2550098458405994"><ele>183.0</ele><time>2026-04-29T13:59:09.001Z</time></trkpt><trkpt lat="43.147245449096374" lon="-1.2550546237203324"><ele>187.2</ele><time>2026-04-29T13:59:10.001Z</time></trkpt><trkpt lat="43.14716038135821" lon="-1.2551061269409653"><ele>191.4</ele><time>2026-04-29T13:59:11.001Z</time></trkpt><trkpt lat="43.147078113103035" lon="-1.2551650392426428"><ele>195.6</ele><time>2026-04-29T13:59:12.001Z</time></trkpt><trkpt lat="43.14699394840683" lon="-1.2552205408131623"><ele>199.79999999999998</ele><time>2026-04-29T13:59:13.001Z</time></trkpt><trkpt lat="43.14691380661236" lon="-1.2552858919477143"><ele>204.0</ele><time>2026-04-29T13:59:14.001Z</time></trkpt><trkpt lat="43.1468358063601" lon="-1.2553528519098804"><ele>204.0</ele><time>2026-04-29T13:59:15.001Z</time></trkpt><trkpt lat="43.1467621810648" lon="-1.2554271746493955"><ele>204.0</ele><time>2026-04-29T13:59:16.001Z</time></trkpt><trkpt lat="43.14669460053159" lon="-1.2555090866017227"><ele>204.0</ele><time>2026-04-29T13:59:17.001Z</time></trkpt><trkpt lat="43.146634727382185" lon="-1.2555965828391094"><ele>204.0</ele><time>2026-04-29T13:59:18.001Z</time></trkpt><trkpt lat="43.14657853546437" lon="-1.2556890835225953"><ele>204.0</ele><time>2026-04-29T13:59:19.001Z</time></trkpt><trkpt lat="43.146522857529696" lon="-1.2557780881581868"><ele>204.0</ele><time>2026-04-29T13:59:20.001Z</time></trkpt><trkpt lat="43.1464693318417" lon="-1.2558735567990003"><ele>204.0</ele><time>2026-04-29T13:59:21.001Z</time></trkpt><trkpt lat="43.14641348103988" lon="-1.2559617523250466"><ele>204.0</ele><time>2026-04-29T13:59:22.001Z</time></trkpt><trkpt lat="43.14635681403381" lon="-1.2560543587989268"><ele>204.0</ele><time>2026-04-29T13:59:23.001Z</time></trkpt><trkpt lat="43.14629631339642" lon="-1.256140257799319"><ele>204.0</ele><time>2026-04-29T13:59:24.001Z</time></trkpt><trkpt lat="43.14622806639225" lon="-1.2562136020813524"><ele>204.0</ele><time>2026-04-29T13:59:25.001Z</time></trkpt><trkpt lat="43.14615254141294" lon="-1.256269813166783"><ele>204.0</ele><time>2026-04-29T13:59:26.001Z</time></trkpt><trkpt lat="43.14606835152355" lon="-1.2563123177402622"><ele>204.0</ele><time>2026-04-29T13:59:27.001Z</time></trkpt><trkpt lat="43.1459817457141" lon="-1.256340400037704"><ele>204.0</ele><time>2026-04-29T13:59:28.001Z</time></trkpt><trkpt lat="43.145893746408014" lon="-1.256355188133784"><ele>204.0</ele><time>2026-04-29T13:59:29.001Z</time></trkpt><trkpt lat="43.14580501205684" lon="-1.2563759673861083"><ele>204.0</ele><time>2026-04-29T13:59:30.001Z</time></trkpt><trkpt lat="43.14571687208229" lon="-1.2564168510949172"><ele>204.0</ele><time>2026-04-29T13:59:31.001Z</time></trkpt><trkpt lat="43.1456324689758" lon="-1.256476237190247"><ele>205.39999999999998</ele><time>2026-04-29T13:59:32.001Z</time></trkpt><trkpt lat="43.14555888052142" lon="-1.2565541159719216"><ele>206.8</ele><time>2026-04-29T13:59:33.001Z</time></trkpt><trkpt lat="43.14549829040785" lon="-1.2566536100568186"><ele>208.2</ele><time>2026-04-29T13:59:34.001Z</time></trkpt><trkpt lat="43.14544827996821" lon="-1.256765291539082"><ele>209.60000000000002</ele><time>2026-04-29T13:59:35.001Z</time></trkpt><trkpt lat="43.145405008912725" lon="-1.2568838597336425"><ele>211.0</ele><time>2026-04-29T13:59:36.002Z</time></trkpt><trkpt lat="43.14536455333048" lon="-1.257005001664249"><ele>211.0</ele><time>2026-04-29T13:59:37.002Z</time></trkpt><trkpt lat="43.145321157670814" lon="-1.257124310342909"><ele>211.0</ele><time>2026-04-29T13:59:38.002Z</time></trkpt><trkpt lat="43.14527641031533" lon="-1.2572424842596874"><ele>211.0</ele><time>2026-04-29T13:59:39.002Z</time></trkpt><trkpt lat="43.14523307495791" lon="-1.25736592768062"><ele>211.0</ele><time>2026-04-29T13:59:40.002Z</time></trkpt><trkpt lat="43.14519349271489" lon="-1.2574892659909238"><ele>211.0</ele><time>2026-04-29T13:59:41.002Z</time></trkpt><trkpt lat="43.1451574038434" lon="-1.2576135756024958"><ele>209.60000000000002</ele><time>2026-04-29T13:59:42.002Z</time></trkpt><trkpt lat="43.145129954833735" lon="-1.257743283271613"><ele>208.2</ele><time>2026-04-29T13:59:43.002Z</time></trkpt><trkpt lat="43.145117008541945" lon="-1.2578743425362242"><ele>206.8</ele><time>2026-04-29T13:59:44.002Z</time></trkpt><trkpt lat="43.14511275540949" lon="-1.2580110214034246"><ele>205.39999999999998</ele><time>2026-04-29T13:59:45.002Z</time></trkpt><trkpt lat="43.14511662251786" lon="-1.2581514248983532"><ele>204.0</ele><time>2026-04-29T13:59:46.002Z</time></trkpt><trkpt lat="43.14511679534329" lon="-1.2582887675941206"><ele>202.0</ele><time>2026-04-29T13:59:47.002Z</time></trkpt><trkpt lat="43.145109823952865" lon="-1.2584255705794776"><ele>200.0</ele><time>2026-04-29T13:59:48.002Z</time></trkpt><trkpt lat="43.145091868352445" lon="-1.2585584086381385"><ele>198.0</ele><time>2026-04-29T13:59:49.002Z</time></trkpt><trkpt lat="43.14506354756413" lon="-1.2586885172879827"><ele>196.0</ele><time>2026-04-29T13:59:50.002Z</time></trkpt><trkpt lat="43.145030676202204" lon="-1.2588145854215496"><ele>194.0</ele><time>2026-04-29T13:59:51.002Z</time></trkpt><trkpt lat="43.144989868187764" lon="-1.2589323833481585"><ele>192.6</ele><time>2026-04-29T13:59:52.002Z</time></trkpt><trkpt lat="43.14494690429001" lon="-1.2590505020894676"><ele>191.2</ele><time>2026-04-29T13:59:53.002Z</time></trkpt><trkpt lat="43.14489937805811" lon="-1.259161454465325"><ele>189.79999999999998</ele><time>2026-04-29T13:59:54.002Z</time></trkpt><trkpt lat="43.14484509001896" lon="-1.259260649473582"><ele>188.39999999999998</ele><time>2026-04-29T13:59:55.002Z</time></trkpt><trkpt lat="43.14478517340652" lon="-1.2593623530098952"><ele>187.0</ele><time>2026-04-29T13:59:56.002Z</time></trkpt><trkpt lat="43.14472878651195" lon="-1.259466488827883"><ele>188.2</ele><time>2026-04-29T13:59:57.002Z</time></trkpt><trkpt lat="43.144674382418586" lon="-1.2595669739346076"><ele>189.39999999999998</ele><time>2026-04-29T13:59:58.002Z</time></trkpt><trkpt lat="43.144614624374704" lon="-1.2596660757815394"><ele>190.60000000000002</ele><time>2026-04-29T13:59:59.002Z</time></trkpt><trkpt lat="43.14455591110066" lon="-1.2597662666642926"><ele>191.8</ele><time>2026-04-29T14:00:00.002Z</time></trkpt><trkpt lat="43.14449729245377" lon="-1.2598640344818839"><ele>193.0</ele><time>2026-04-29T14:00:01.002Z</time></trkpt><trkpt lat="43.144438510901985" lon="-1.259960180889767"><ele>193.0</ele><time>2026-04-29T14:00:02.002Z</time></trkpt><trkpt lat="43.144379965029934" lon="-1.2600569330093467"><ele>193.0</ele><time>2026-04-29T14:00:03.002Z</time></trkpt><trkpt lat="43.14432049925621" lon="-1.2601514623614563"><ele>193.0</ele><time>2026-04-29T14:00:04.002Z</time></trkpt><trkpt lat="43.144258997934735" lon="-1.260245010055443"><ele>193.0</ele><time>2026-04-29T14:00:05.002Z</time></trkpt><trkpt lat="43.14419630433525" lon="-1.260334696689235"><ele>193.0</ele><time>2026-04-29T14:00:06.002Z</time></trkpt><trkpt lat="43.14413031507325" lon="-1.2604215552102274"><ele>193.0</ele><time>2026-04-29T14:00:07.002Z</time></trkpt><trkpt lat="43.14406138189767" lon="-1.260506760012459"><ele>193.0</ele><time>2026-04-29T14:00:08.002Z</time></trkpt><trkpt lat="43.143990055296946" lon="-1.2605889593314294"><ele>193.0</ele><time>2026-04-29T14:00:09.002Z</time></trkpt><trkpt lat="43.14391854616621" lon="-1.260666042428793"><ele>193.0</ele><time>2026-04-29T14:00:10.002Z</time></trkpt><trkpt lat="43.143842496345755" lon="-1.260738605259442"><ele>193.0</ele><time>2026-04-29T14:00:11.002Z</time></trkpt><trkpt lat="43.14376526766677" lon="-1.260803120042871"><ele>192.60000000000002</ele><time>2026-04-29T14:00:12.002Z</time></trkpt><trkpt lat="43.14368474542649" lon="-1.2608644357001224"><ele>192.20000000000002</ele><time>2026-04-29T14:00:13.002Z</time></trkpt><trkpt lat="43.14360239820435" lon="-1.2609296294386227"><ele>191.8</ele><time>2026-04-29T14:00:14.002Z</time></trkpt><trkpt lat="43.14351670137102" lon="-1.2609924298179214"><ele>191.4</ele><time>2026-04-29T14:00:15.002Z</time></trkpt><trkpt lat="43.14343052659994" lon="-1.2610530645069153"><ele>191.0</ele><time>2026-04-29T14:00:16.002Z</time></trkpt><trkpt lat="43.143346820759994" lon="-1.2611104559080308"><ele>191.0</ele><time>2026-04-29T14:00:17.002Z</time></trkpt><trkpt lat="43.14326250655681" lon="-1.2611717112141407"><ele>191.0</ele><time>2026-04-29T14:00:18Z</time></trkpt><trkpt lat="43.143175727937304" lon="-1.261231940275598"><ele>191.0</ele><time>2026-04-29T14:00:19Z</time></trkpt><trkpt lat="43.14308961358008" lon="-1.2612950029710448"><ele>191.0</ele><time>2026-04-29T14:00:20Z</time></trkpt><trkpt lat="43.14300217607236" lon="-1.261358022493382"><ele>191.0</ele><time>2026-04-29T14:00:21Z</time></trkpt><trkpt lat="43.14291609327436" lon="-1.2614225468471296"><ele>191.20000000000002</ele><time>2026-04-29T14:00:22Z</time></trkpt><trkpt lat="43.142826412947535" lon="-1.261487610765983"><ele>191.4</ele><time>2026-04-29T14:00:23Z</time></trkpt><trkpt lat="43.14273777074146" lon="-1.2615482669512161"><ele>191.6</ele><time>2026-04-29T14:00:24Z</time></trkpt><trkpt lat="43.14264938566946" lon="-1.261610356623322"><ele>191.8</ele><time>2026-04-29T14:00:25Z</time></trkpt><trkpt lat="43.142562051922916" lon="-1.2616774662357355"><ele>192.0</ele><time>2026-04-29T14:00:26Z</time></trkpt><trkpt lat="43.142471600615586" lon="-1.2617393881411492"><ele>192.39999999999998</ele><time>2026-04-29T14:00:27Z</time></trkpt><trkpt lat="43.14238051129247" lon="-1.2617968003170361"><ele>192.79999999999998</ele><time>2026-04-29T14:00:28Z</time></trkpt><trkpt lat="43.14228677755162" lon="-1.2618519859560127"><ele>193.2</ele><time>2026-04-29T14:00:29Z</time></trkpt><trkpt lat="43.14219104176049" lon="-1.2618987910064015"><ele>193.6</ele><time>2026-04-29T14:00:30Z</time></trkpt><trkpt lat="43.14209016271866" lon="-1.2619301550188866"><ele>194.0</ele><time>2026-04-29T14:00:31Z</time></trkpt><trkpt lat="43.14198766636753" lon="-1.261960154140453"><ele>194.0</ele><time>2026-04-29T14:00:32Z</time></trkpt><trkpt lat="43.14188575122086" lon="-1.2619869087763753"><ele>194.0</ele><time>2026-04-29T14:00:33Z</time></trkpt><trkpt lat="43.14178185504418" lon="-1.2620020084734176"><ele>194.0</ele><time>2026-04-29T14:00:34Z</time></trkpt><trkpt lat="43.1416771515844" lon="-1.262009464609034"><ele>194.0</ele><time>2026-04-29T14:00:35Z</time></trkpt><trkpt lat="43.141572938181156" lon="-1.2620158343563164"><ele>194.0</ele><time>2026-04-29T14:00:36Z</time></trkpt><trkpt lat="43.141468295246945" lon="-1.2620128052053097"><ele>196.0</ele><time>2026-04-29T14:00:37Z</time></trkpt><trkpt lat="43.141363602846575" lon="-1.2620064630296983"><ele>198.0</ele><time>2026-04-29T14:00:38Z</time></trkpt><trkpt lat="43.14126225590478" lon="-1.2620047186667709"><ele>200.0</ele><time>2026-04-29T14:00:39Z</time></trkpt><trkpt lat="43.141162997523416" lon="-1.2620014444736034"><ele>202.0</ele><time>2026-04-29T14:00:40Z</time></trkpt><trkpt lat="43.141064952620724" lon="-1.262001384273234"><ele>204.0</ele><time>2026-04-29T14:00:41Z</time></trkpt><trkpt lat="43.140969693425205" lon="-1.2619999367188006"><ele>204.0</ele><time>2026-04-29T14:00:42.001Z</time></trkpt><trkpt lat="43.1408741653673" lon="-1.2619984083306264"><ele>204.0</ele><time>2026-04-29T14:00:43.001Z</time></trkpt><trkpt lat="43.14078131715483" lon="-1.261985032966909"><ele>204.0</ele><time>2026-04-29T14:00:44.001Z</time></trkpt><trkpt lat="43.14068991752432" lon="-1.2619603161006412"><ele>204.0</ele><time>2026-04-29T14:00:45.001Z</time></trkpt><trkpt lat="43.140601186460415" lon="-1.2619299029609632"><ele>204.0</ele><time>2026-04-29T14:00:46.001Z</time></trkpt><trkpt lat="43.140515234574195" lon="-1.2618904186162094"><ele>204.6</ele><time>2026-04-29T14:00:47.001Z</time></trkpt><trkpt lat="43.14042778595726" lon="-1.2618498321777747"><ele>205.2</ele><time>2026-04-29T14:00:48.001Z</time></trkpt><trkpt lat="43.14033915242496" lon="-1.2618156501478537"><ele>205.79999999999998</ele><time>2026-04-29T14:00:49.001Z</time></trkpt><trkpt lat="43.14024778408468" lon="-1.2617799986630474"><ele>206.39999999999998</ele><time>2026-04-29T14:00:50.001Z</time></trkpt><trkpt lat="43.14015306548599" lon="-1.2617411885299767"><ele>207.0</ele><time>2026-04-29T14:00:51.001Z</time></trkpt><trkpt lat="43.140055110727666" lon="-1.2617131970382673"><ele>207.0</ele><time>2026-04-29T14:00:52.001Z</time></trkpt><trkpt lat="43.13995534399182" lon="-1.26169237736665"><ele>207.0</ele><time>2026-04-29T14:00:53.001Z</time></trkpt><trkpt lat="43.139852419095675" lon="-1.2616733022603508"><ele>207.0</ele><time>2026-04-29T14:00:54.001Z</time></trkpt><trkpt lat="43.13974805845066" lon="-1.2616650315370306"><ele>207.0</ele><time>2026-04-29T14:00:55.001Z</time></trkpt><trkpt lat="43.13964218610846" lon="-1.2616714959180253"><ele>207.0</ele><time>2026-04-29T14:00:56.001Z</time></trkpt><trkpt lat="43.13953399162067" lon="-1.2616869800542916"><ele>206.39999999999998</ele><time>2026-04-29T14:00:57.001Z</time></trkpt><trkpt lat="43.139427314957274" lon="-1.2617167299680847"><ele>205.79999999999998</ele><time>2026-04-29T14:00:58.001Z</time></trkpt><trkpt lat="43.139327898205295" lon="-1.2617587070157539"><ele>205.2</ele><time>2026-04-29T14:00:59.001Z</time></trkpt><trkpt lat="43.139231601635096" lon="-1.2618189812199794"><ele>204.6</ele><time>2026-04-29T14:01:00.001Z</time></trkpt><trkpt lat="43.13914297813765" lon="-1.2618909949081716"><ele>204.0</ele><time>2026-04-29T14:01:01.001Z</time></trkpt><trkpt lat="43.13905512470765" lon="-1.2619684902894435"><ele>203.6</ele><time>2026-04-29T14:01:02.001Z</time></trkpt><trkpt lat="43.13897299524311" lon="-1.2620445063279262"><ele>203.2</ele><time>2026-04-29T14:01:03.001Z</time></trkpt><trkpt lat="43.138888301052326" lon="-1.2621238417809588"><ele>202.79999999999998</ele><time>2026-04-29T14:01:04.001Z</time></trkpt><trkpt lat="43.13880904577594" lon="-1.262200939934201"><ele>202.39999999999998</ele><time>2026-04-29T14:01:05.001Z</time></trkpt><trkpt lat="43.138729550853654" lon="-1.2622825750353859"><ele>202.0</ele><time>2026-04-29T14:01:06.001Z</time></trkpt><trkpt lat="43.13865039192904" lon="-1.262364071972682"><ele>201.0</ele><time>2026-04-29T14:01:07.001Z</time></trkpt><trkpt lat="43.13857321846067" lon="-1.2624451959934035"><ele>200.0</ele><time>2026-04-29T14:01:08.001Z</time></trkpt><trkpt lat="43.13849125214139" lon="-1.2625228593913387"><ele>199.0</ele><time>2026-04-29T14:01:09.001Z</time></trkpt><trkpt lat="43.13841200981593" lon="-1.2626024740833082"><ele>198.0</ele><time>2026-04-29T14:01:10.001Z</time></trkpt><trkpt lat="43.138328096042216" lon="-1.262682674967603"><ele>197.0</ele><time>2026-04-29T14:01:11.001Z</time></trkpt><trkpt lat="43.13824503603198" lon="-1.2627636644436067"><ele>197.39999999999998</ele><time>2026-04-29T14:01:12.001Z</time></trkpt><trkpt lat="43.138160500251686" lon="-1.2628422054924957"><ele>197.79999999999998</ele><time>2026-04-29T14:01:13.001Z</time></trkpt><trkpt lat="43.13807917175354" lon="-1.2629230829997862"><ele>198.2</ele><time>2026-04-29T14:01:14.001Z</time></trkpt><trkpt lat="43.13799610802275" lon="-1.2630030554253404"><ele>198.6</ele><time>2026-04-29T14:01:15.001Z</time></trkpt><trkpt lat="43.13791540481193" lon="-1.263082428459222"><ele>199.0</ele><time>2026-04-29T14:01:16.001Z</time></trkpt><trkpt lat="43.13783524859167" lon="-1.2631627704284978"><ele>199.0</ele><time>2026-04-29T14:01:17.001Z</time></trkpt><trkpt lat="43.13775199639689" lon="-1.2632417875846762"><ele>199.0</ele><time>2026-04-29T14:01:18.001Z</time></trkpt><trkpt lat="43.13767150319366" lon="-1.2633157989101924"><ele>199.0</ele><time>2026-04-29T14:01:19.001Z</time></trkpt><trkpt lat="43.137588539027895" lon="-1.2633945617828704"><ele>199.0</ele><time>2026-04-29T14:01:20.001Z</time></trkpt><trkpt lat="43.137508829207434" lon="-1.2634749995121255"><ele>199.0</ele><time>2026-04-29T14:01:21.001Z</time></trkpt><trkpt lat="43.137426714089806" lon="-1.2635555051578282"><ele>200.0</ele><time>2026-04-29T14:01:22.001Z</time></trkpt><trkpt lat="43.13734567905678" lon="-1.263638505801391"><ele>201.0</ele><time>2026-04-29T14:01:23.001Z</time></trkpt><trkpt lat="43.13726072805118" lon="-1.263715565847531"><ele>202.0</ele><time>2026-04-29T14:01:24.001Z</time></trkpt><trkpt lat="43.13717962850296" lon="-1.2637926737067544"><ele>203.0</ele><time>2026-04-29T14:01:25.001Z</time></trkpt><trkpt lat="43.137097897946234" lon="-1.263869122920388"><ele>204.0</ele><time>2026-04-29T14:01:26.001Z</time></trkpt><trkpt lat="43.13701808210858" lon="-1.2639470547520806"><ele>204.0</ele><time>2026-04-29T14:01:27.001Z</time></trkpt><trkpt lat="43.13694072560114" lon="-1.264025785280329"><ele>204.0</ele><time>2026-04-29T14:01:28.001Z</time></trkpt><trkpt lat="43.136864518423884" lon="-1.2641045725540223"><ele>204.0</ele><time>2026-04-29T14:01:29.001Z</time></trkpt><trkpt lat="43.13678804972729" lon="-1.2641786799210522"><ele>204.0</ele><time>2026-04-29T14:01:30.001Z</time></trkpt><trkpt lat="43.136707676633115" lon="-1.2642477463599358"><ele>204.0</ele><time>2026-04-29T14:01:31.002Z</time></trkpt><trkpt lat="43.1366292127234" lon="-1.2643218312701177"><ele>207.2</ele><time>2026-04-29T14:01:32.002Z</time></trkpt><trkpt lat="43.136547040777224" lon="-1.2643787755068274"><ele>210.39999999999998</ele><time>2026-04-29T14:01:33.002Z</time></trkpt><trkpt lat="43.136461475921735" lon="-1.264427275386"><ele>213.6</ele><time>2026-04-29T14:01:34.002Z</time></trkpt><trkpt lat="43.13637334091764" lon="-1.2644660843962698"><ele>216.8</ele><time>2026-04-29T14:01:35.002Z</time></trkpt><trkpt lat="43.1362847603764" lon="-1.2644945000398533"><ele>220.0</ele><time>2026-04-29T14:01:36.002Z</time></trkpt><trkpt lat="43.13619407313627" lon="-1.2645105986947642"><ele>219.99999999999997</ele><time>2026-04-29T14:01:37.002Z</time></trkpt><trkpt lat="43.136104330979826" lon="-1.264507505983155"><ele>220.0</ele><time>2026-04-29T14:01:38.002Z</time></trkpt><trkpt lat="43.136015240498686" lon="-1.2644876880231195"><ele>220.0</ele><time>2026-04-29T14:01:39.002Z</time></trkpt><trkpt lat="43.13593179481829" lon="-1.2644530748233587"><ele>220.0</ele><time>2026-04-29T14:01:40.002Z</time></trkpt><trkpt lat="43.13584720535269" lon="-1.2644311882003751"><ele>219.99999999999997</ele><time>2026-04-29T14:01:41.002Z</time></trkpt><trkpt lat="43.13576109628028" lon="-1.2644084812592178"><ele>220.0</ele><time>2026-04-29T14:01:42.002Z</time></trkpt><trkpt lat="43.13567378690473" lon="-1.264398360209703"><ele>226.83333333333331</ele><time>2026-04-29T14:01:43.002Z</time></trkpt><trkpt lat="43.1355937735159" lon="-1.2643962164782965"><ele>233.66666666666666</ele><time>2026-04-29T14:01:44.002Z</time></trkpt><trkpt lat="43.13551265488803" lon="-1.2644162313158258"><ele>240.5</ele><time>2026-04-29T14:01:45.002Z</time></trkpt><trkpt lat="43.1354359752845" lon="-1.264445594868113"><ele>247.33333333333331</ele><time>2026-04-29T14:01:46.002Z</time></trkpt><trkpt lat="43.13536298731919" lon="-1.2644992488148799"><ele>254.16666666666666</ele><time>2026-04-29T14:01:47.002Z</time></trkpt><trkpt lat="43.13529141903857" lon="-1.2645627896684495"><ele>261.0</ele><time>2026-04-29T14:01:48.002Z</time></trkpt><trkpt lat="43.13523029501025" lon="-1.2646278379063196"><ele>261.0</ele><time>2026-04-29T14:01:49.002Z</time></trkpt><trkpt lat="43.13516781313217" lon="-1.2647076601259544"><ele>261.0</ele><time>2026-04-29T14:01:50.002Z</time></trkpt><trkpt lat="43.13510314061476" lon="-1.2647873972876833"><ele>261.0</ele><time>2026-04-29T14:01:51.002Z</time></trkpt><trkpt lat="43.135047001133294" lon="-1.264880704202864"><ele>261.0</ele><time>2026-04-29T14:01:52.002Z</time></trkpt><trkpt lat="43.13500595253915" lon="-1.2649873173798578"><ele>261.0</ele><time>2026-04-29T14:01:53.002Z</time></trkpt><trkpt lat="43.134973386434964" lon="-1.265102775111124"><ele>261.0</ele><time>2026-04-29T14:01:54.002Z</time></trkpt><trkpt lat="43.134949995973805" lon="-1.2652279153341797"><ele>256.8333333333333</ele><time>2026-04-29T14:01:55.002Z</time></trkpt><trkpt lat="43.13493116178693" lon="-1.2653442415486447"><ele>252.66666666666669</ele><time>2026-04-29T14:01:56.002Z</time></trkpt><trkpt lat="43.134915567428536" lon="-1.2654694686965955"><ele>248.5</ele><time>2026-04-29T14:01:57.002Z</time></trkpt><trkpt lat="43.13490768582989" lon="-1.2655912389574246"><ele>244.33333333333334</ele><time>2026-04-29T14:01:58.002Z</time></trkpt><trkpt lat="43.134892848616396" lon="-1.2656991165194909"><ele>240.16666666666669</ele><time>2026-04-29T14:01:59.002Z</time></trkpt><trkpt lat="43.13487304643062" lon="-1.2658185435907847"><ele>236.0</ele><time>2026-04-29T14:02:00.002Z</time></trkpt><trkpt lat="43.13485102166741" lon="-1.2659344388528793"><ele>236.00000000000003</ele><time>2026-04-29T14:02:01.002Z</time></trkpt><trkpt lat="43.134839320536905" lon="-1.2660537414171618"><ele>236.0</ele><time>2026-04-29T14:02:02.002Z</time></trkpt><trkpt lat="43.1348215215744" lon="-1.26617067236077"><ele>236.0</ele><time>2026-04-29T14:02:03.002Z</time></trkpt><trkpt lat="43.134792862052684" lon="-1.2662760866597476"><ele>236.0</ele><time>2026-04-29T14:02:04.002Z</time></trkpt><trkpt lat="43.134767813258726" lon="-1.266386613969559"><ele>236.00000000000003</ele><time>2026-04-29T14:02:05.002Z</time></trkpt><trkpt lat="43.13473024893481" lon="-1.2664870789774494"><ele>236.0</ele><time>2026-04-29T14:02:06.002Z</time></trkpt><trkpt lat="43.134684418534974" lon="-1.2665911393798277"><ele>233.50000000000003</ele><time>2026-04-29T14:02:07.002Z</time></trkpt><trkpt lat="43.13463298691815" lon="-1.2666839499350897"><ele>231.0</ele><time>2026-04-29T14:02:08.002Z</time></trkpt><trkpt lat="43.13457720663179" lon="-1.2667755572731867"><ele>228.5</ele><time>2026-04-29T14:02:09.002Z</time></trkpt><trkpt lat="43.134517308435704" lon="-1.266863987303281"><ele>226.0</ele><time>2026-04-29T14:02:10.002Z</time></trkpt><trkpt lat="43.13445396313229" lon="-1.2669487820852168"><ele>223.50000000000003</ele><time>2026-04-29T14:02:11.002Z</time></trkpt><trkpt lat="43.13438328276738" lon="-1.2670243288937928"><ele>221.0</ele><time>2026-04-29T14:02:12.002Z</time></trkpt><trkpt lat="43.13430743649031" lon="-1.2670846848970818"><ele>221.0</ele><time>2026-04-29T14:02:13.002Z</time></trkpt><trkpt lat="43.13422676866727" lon="-1.2671297583137473"><ele>221.00000000000003</ele><time>2026-04-29T14:02:14.002Z</time></trkpt><trkpt lat="43.134138901985764" lon="-1.2671676432228385"><ele>221.00000000000003</ele><time>2026-04-29T14:02:15.002Z</time></trkpt><trkpt lat="43.134045384070305" lon="-1.2671834883277542"><ele>221.0</ele><time>2026-04-29T14:02:16.003Z</time></trkpt><trkpt lat="43.133950298960436" lon="-1.2671857887037168"><ele>221.0</ele><time>2026-04-29T14:02:17.003Z</time></trkpt><trkpt lat="43.13385418373609" lon="-1.2671722862023382"><ele>220.4</ele><time>2026-04-29T14:02:18.003Z</time></trkpt><trkpt lat="43.13375483292945" lon="-1.267155094369411"><ele>219.8</ele><time>2026-04-29T14:02:19.003Z</time></trkpt><trkpt lat="43.13365683654426" lon="-1.267127312327567"><ele>219.20000000000002</ele><time>2026-04-29T14:02:20.003Z</time></trkpt><trkpt lat="43.13355933021607" lon="-1.2670905848534686"><ele>218.60000000000002</ele><time>2026-04-29T14:02:21.003Z</time></trkpt><trkpt lat="43.13346593818759" lon="-1.2670370372272746"><ele>218.0</ele><time>2026-04-29T14:02:22.003Z</time></trkpt><trkpt lat="43.13337868272788" lon="-1.2669655740367853"><ele>218.0</ele><time>2026-04-29T14:02:23.003Z</time></trkpt><trkpt lat="43.13329714928537" lon="-1.2668767614316228"><ele>218.0</ele><time>2026-04-29T14:02:24.001Z</time></trkpt><trkpt lat="43.13321803438868" lon="-1.2667827532866713"><ele>218.0</ele><time>2026-04-29T14:02:25.001Z</time></trkpt><trkpt lat="43.13313284473153" lon="-1.2666932448829387"><ele>218.0</ele><time>2026-04-29T14:02:26.001Z</time></trkpt><trkpt lat="43.133045290526645" lon="-1.2666211152312947"><ele>218.0</ele><time>2026-04-29T14:02:27.001Z</time></trkpt><trkpt lat="43.13294915143127" lon="-1.2665663723993419"><ele>216.2</ele><time>2026-04-29T14:02:28.001Z</time></trkpt><trkpt lat="43.13284962933341" lon="-1.2665214076459599"><ele>214.4</ele><time>2026-04-29T14:02:29.001Z</time></trkpt><trkpt lat="43.13274511378971" lon="-1.266492898505388"><ele>212.6</ele><time>2026-04-29T14:02:30.001Z</time></trkpt><trkpt lat="43.13264203235694" lon="-1.2664738480119948"><ele>210.79999999999998</ele><time>2026-04-29T14:02:31.001Z</time></trkpt><trkpt lat="43.13254065607836" lon="-1.2664619071707774"><ele>209.0</ele><time>2026-04-29T14:02:32.001Z</time></trkpt><trkpt lat="43.13243773925933" lon="-1.26645399463994"><ele>209.79999999999998</ele><time>2026-04-29T14:02:33.001Z</time></trkpt><trkpt lat="43.13233612857182" lon="-1.2664515880865184"><ele>210.6</ele><time>2026-04-29T14:02:34.001Z</time></trkpt><trkpt lat="43.13223447768651" lon="-1.2664474519713496"><ele>211.4</ele><time>2026-04-29T14:02:35.001Z</time></trkpt><trkpt lat="43.13213534421585" lon="-1.266448600164718"><ele>212.2</ele><time>2026-04-29T14:02:36.001Z</time></trkpt><trkpt lat="43.132037349122726" lon="-1.2664525297289677"><ele>213.0</ele><time>2026-04-29T14:02:37.001Z</time></trkpt><trkpt lat="43.13193928254058" lon="-1.266459675572107"><ele>213.0</ele><time>2026-04-29T14:02:38.001Z</time></trkpt><trkpt lat="43.131838931018535" lon="-1.26647567229275"><ele>213.0</ele><time>2026-04-29T14:02:39.001Z</time></trkpt><trkpt lat="43.13174234022283" lon="-1.2664952781843242"><ele>213.0</ele><time>2026-04-29T14:02:40.001Z</time></trkpt><trkpt lat="43.13164522198209" lon="-1.266522393514058"><ele>213.0</ele><time>2026-04-29T14:02:41.001Z</time></trkpt><trkpt lat="43.131543026807435" lon="-1.2665481813596056"><ele>213.0</ele><time>2026-04-29T14:02:42.001Z</time></trkpt><trkpt lat="43.13144266587949" lon="-1.2665732526405855"><ele>214.60000000000002</ele><time>2026-04-29T14:02:43.001Z</time></trkpt><trkpt lat="43.131341639891914" lon="-1.2665953605090259"><ele>216.20000000000002</ele><time>2026-04-29T14:02:44.001Z</time></trkpt><trkpt lat="43.131240659002515" lon="-1.2666120343443261"><ele>217.8</ele><time>2026-04-29T14:02:45.001Z</time></trkpt><trkpt lat="43.13114275823463" lon="-1.266640171555344"><ele>219.4</ele><time>2026-04-29T14:02:46.001Z</time></trkpt><trkpt lat="43.13104201583669" lon="-1.2666568738609627"><ele>221.0</ele><time>2026-04-29T14:02:47.001Z</time></trkpt><trkpt lat="43.130944366026554" lon="-1.2666697810870873"><ele>221.0</ele><time>2026-04-29T14:02:48.001Z</time></trkpt><trkpt lat="43.130843179413816" lon="-1.2666836686941723"><ele>221.00000000000003</ele><time>2026-04-29T14:02:49.001Z</time></trkpt><trkpt lat="43.13074462266261" lon="-1.2666973369420207"><ele>221.00000000000003</ele><time>2026-04-29T14:02:50.001Z</time></trkpt><trkpt lat="43.13064617458175" lon="-1.266713715562287"><ele>221.0</ele><time>2026-04-29T14:02:51.001Z</time></trkpt><trkpt lat="43.13054792945744" lon="-1.2667267671038458"><ele>221.0</ele><time>2026-04-29T14:02:52.001Z</time></trkpt><trkpt lat="43.13045081633961" lon="-1.2667425778283228"><ele>223.20000000000002</ele><time>2026-04-29T14:02:53.001Z</time></trkpt><trkpt lat="43.13035504412703" lon="-1.2667602415649442"><ele>225.40000000000003</ele><time>2026-04-29T14:02:54.001Z</time></trkpt><trkpt lat="43.13026391765619" lon="-1.2667836855142864"><ele>227.6</ele><time>2026-04-29T14:02:55.001Z</time></trkpt><trkpt lat="43.1301723151628" lon="-1.2668070522922366"><ele>229.8</ele><time>2026-04-29T14:02:56.001Z</time></trkpt><trkpt lat="43.13008111616287" lon="-1.2668313352019929"><ele>232.0</ele><time>2026-04-29T14:02:57.001Z</time></trkpt><trkpt lat="43.12999216272919" lon="-1.266864530420559"><ele>232.0</ele><time>2026-04-29T14:02:58.001Z</time></trkpt><trkpt lat="43.12990153723511" lon="-1.2668965126295204"><ele>232.0</ele><time>2026-04-29T14:02:59.001Z</time></trkpt><trkpt lat="43.129810165232435" lon="-1.2669310344791944"><ele>232.0</ele><time>2026-04-29T14:03:00.001Z</time></trkpt><trkpt lat="43.12971889336847" lon="-1.266969320187747"><ele>232.0</ele><time>2026-04-29T14:03:01.001Z</time></trkpt><trkpt lat="43.12962756526618" lon="-1.2670138105703042"><ele>232.0</ele><time>2026-04-29T14:03:02.001Z</time></trkpt><trkpt lat="43.12953764308789" lon="-1.2670638227036775"><ele>230.0</ele><time>2026-04-29T14:03:03.001Z</time></trkpt><trkpt lat="43.12945011824692" lon="-1.2671213762192013"><ele>228.0</ele><time>2026-04-29T14:03:04.001Z</time></trkpt><trkpt lat="43.12936444308349" lon="-1.2671972066814137"><ele>226.0</ele><time>2026-04-29T14:03:05.001Z</time></trkpt><trkpt lat="43.12928795498266" lon="-1.2672844732070856"><ele>224.0</ele><time>2026-04-29T14:03:06.001Z</time></trkpt><trkpt lat="43.12921669704684" lon="-1.2673787830926326"><ele>222.0</ele><time>2026-04-29T14:03:07.001Z</time></trkpt><trkpt lat="43.129142654385824" lon="-1.2674722564061442"><ele>222.0</ele><time>2026-04-29T14:03:08.001Z</time></trkpt><trkpt lat="43.12907136339149" lon="-1.267569784660638"><ele>222.0</ele><time>2026-04-29T14:03:09.001Z</time></trkpt><trkpt lat="43.128994402612065" lon="-1.2676637975457201"><ele>222.0</ele><time>2026-04-29T14:03:10.001Z</time></trkpt><trkpt lat="43.12891755943414" lon="-1.2677591028226307"><ele>222.0</ele><time>2026-04-29T14:03:11.001Z</time></trkpt><trkpt lat="43.1288373597007" lon="-1.267843748826745"><ele>222.0</ele><time>2026-04-29T14:03:12.001Z</time></trkpt><trkpt lat="43.1287509829055" lon="-1.2679205119950858"><ele>221.2</ele><time>2026-04-29T14:03:13.001Z</time></trkpt><trkpt lat="43.128661595470696" lon="-1.2679881238153572"><ele>220.39999999999998</ele><time>2026-04-29T14:03:14.001Z</time></trkpt><trkpt lat="43.128576907568" lon="-1.268049038144789"><ele>219.60000000000002</ele><time>2026-04-29T14:03:15.001Z</time></trkpt><trkpt lat="43.12848775101532" lon="-1.2680974946318393"><ele>218.8</ele><time>2026-04-29T14:03:16.001Z</time></trkpt><trkpt lat="43.128397243402226" lon="-1.2681449117712913"><ele>218.0</ele><time>2026-04-29T14:03:17.001Z</time></trkpt><trkpt lat="43.12830766153649" lon="-1.2681873496249496"><ele>218.8</ele><time>2026-04-29T14:03:18.001Z</time></trkpt><trkpt lat="43.128218856141274" lon="-1.268225352211214"><ele>219.60000000000002</ele><time>2026-04-29T14:03:19.001Z</time></trkpt><trkpt lat="43.128130503593304" lon="-1.2682555390097554"><ele>220.39999999999998</ele><time>2026-04-29T14:03:20.001Z</time></trkpt><trkpt lat="43.12804302200824" lon="-1.2682881906074799"><ele>221.2</ele><time>2026-04-29T14:03:21.001Z</time></trkpt><trkpt lat="43.12795270019895" lon="-1.2683196097135918"><ele>222.0</ele><time>2026-04-29T14:03:22.001Z</time></trkpt><trkpt lat="43.12786460656325" lon="-1.268354201714839"><ele>222.0</ele><time>2026-04-29T14:03:23.001Z</time></trkpt><trkpt lat="43.1277829336983" lon="-1.2683875017984911"><ele>222.0</ele><time>2026-04-29T14:03:24.001Z</time></trkpt><trkpt lat="43.12769870466625" lon="-1.2684222953707636"><ele>222.0</ele><time>2026-04-29T14:03:25.001Z</time></trkpt><trkpt lat="43.12761231145469" lon="-1.2684593222960072"><ele>222.0</ele><time>2026-04-29T14:03:26.001Z</time></trkpt><trkpt lat="43.12752705930613" lon="-1.268494442739865"><ele>222.0</ele><time>2026-04-29T14:03:27.001Z</time></trkpt><trkpt lat="43.127440817007425" lon="-1.2685233788411303"><ele>222.0</ele><time>2026-04-29T14:03:28.001Z</time></trkpt><trkpt lat="43.12735199957604" lon="-1.2685411700917792"><ele>222.8</ele><time>2026-04-29T14:03:29.001Z</time></trkpt><trkpt lat="43.12726312154606" lon="-1.2685561370976328"><ele>223.6</ele><time>2026-04-29T14:03:30.001Z</time></trkpt><trkpt lat="43.12717579009095" lon="-1.268574290999387"><ele>224.40000000000003</ele><time>2026-04-29T14:03:31.001Z</time></trkpt><trkpt lat="43.12708468254429" lon="-1.2685905773979382"><ele>225.20000000000002</ele><time>2026-04-29T14:03:32.001Z</time></trkpt><trkpt lat="43.12699331457858" lon="-1.2686098950376488"><ele>226.0</ele><time>2026-04-29T14:03:33.001Z</time></trkpt><trkpt lat="43.1269039247059" lon="-1.268636576572065"><ele>225.99999999999997</ele><time>2026-04-29T14:03:34.001Z</time></trkpt><trkpt lat="43.126816291943825" lon="-1.268665103315175"><ele>226.0</ele><time>2026-04-29T14:03:35.001Z</time></trkpt><trkpt lat="43.12673106211945" lon="-1.268695433430268"><ele>226.0</ele><time>2026-04-29T14:03:36.002Z</time></trkpt><trkpt lat="43.126641960685255" lon="-1.268726568373577"><ele>226.0</ele><time>2026-04-29T14:03:37.002Z</time></trkpt><trkpt lat="43.126556447371556" lon="-1.2687631784226607"><ele>225.99999999999997</ele><time>2026-04-29T14:03:38.002Z</time></trkpt><trkpt lat="43.1264733245615" lon="-1.2687996881447092"><ele>226.0</ele><time>2026-04-29T14:03:39.002Z</time></trkpt><trkpt lat="43.126391708605894" lon="-1.2688424590748766"><ele>225.49999999999997</ele><time>2026-04-29T14:03:40.002Z</time></trkpt><trkpt lat="43.12631094947811" lon="-1.2688881707839585"><ele>225.0</ele><time>2026-04-29T14:03:41.002Z</time></trkpt><trkpt lat="43.12623268080166" lon="-1.2689371374052982"><ele>224.5</ele><time>2026-04-29T14:03:42.002Z</time></trkpt><trkpt lat="43.12615410689251" lon="-1.2689840412184896"><ele>224.0</ele><time>2026-04-29T14:03:43.002Z</time></trkpt><trkpt lat="43.126073398985994" lon="-1.2690286643529134"><ele>223.49999999999997</ele><time>2026-04-29T14:03:44.002Z</time></trkpt><trkpt lat="43.12599215438981" lon="-1.2690652159760647"><ele>223.0</ele><time>2026-04-29T14:03:45.002Z</time></trkpt><trkpt lat="43.12590567746849" lon="-1.2690983914109197"><ele>222.60000000000002</ele><time>2026-04-29T14:03:46.002Z</time></trkpt><trkpt lat="43.125817510011785" lon="-1.2691253781172112"><ele>222.20000000000002</ele><time>2026-04-29T14:03:47.002Z</time></trkpt><trkpt lat="43.125725377869585" lon="-1.2691588826023632"><ele>221.8</ele><time>2026-04-29T14:03:48.002Z</time></trkpt><trkpt lat="43.12564119677219" lon="-1.269188916535143"><ele>221.4</ele><time>2026-04-29T14:03:49.002Z</time></trkpt><trkpt lat="43.125555275254285" lon="-1.2692243543899024"><ele>221.0</ele><time>2026-04-29T14:03:50.002Z</time></trkpt><trkpt lat="43.12546823447934" lon="-1.269261290881848"><ele>221.0</ele><time>2026-04-29T14:03:51.002Z</time></trkpt><trkpt lat="43.12538087159669" lon="-1.2692989911933419"><ele>221.00000000000003</ele><time>2026-04-29T14:03:52.002Z</time></trkpt><trkpt lat="43.12529542971915" lon="-1.2693292130122644"><ele>221.00000000000003</ele><time>2026-04-29T14:03:53.002Z</time></trkpt><trkpt lat="43.125208797382435" lon="-1.2693696217824046"><ele>221.0</ele><time>2026-04-29T14:03:54.002Z</time></trkpt><trkpt lat="43.125124400481056" lon="-1.2694043742002334"><ele>221.0</ele><time>2026-04-29T14:03:55.002Z</time></trkpt><trkpt lat="43.12503627191825" lon="-1.269441070672373"><ele>221.0</ele><time>2026-04-29T14:03:56.002Z</time></trkpt><trkpt lat="43.12494985574729" lon="-1.2694785209359922"><ele>221.00000000000003</ele><time>2026-04-29T14:03:57.002Z</time></trkpt><trkpt lat="43.124860659551295" lon="-1.269508947069065"><ele>221.00000000000003</ele><time>2026-04-29T14:03:58.002Z</time></trkpt><trkpt lat="43.124774111860845" lon="-1.2695412795145062"><ele>221.0</ele><time>2026-04-29T14:03:59.002Z</time></trkpt><trkpt lat="43.124686582588275" lon="-1.2695728601366116"><ele>221.0</ele><time>2026-04-29T14:04:00.002Z</time></trkpt><trkpt lat="43.124596953384675" lon="-1.2696081701764232"><ele>220.60000000000002</ele><time>2026-04-29T14:04:01.002Z</time></trkpt><trkpt lat="43.12451041078944" lon="-1.2696388970434036"><ele>220.20000000000002</ele><time>2026-04-29T14:04:02.002Z</time></trkpt><trkpt lat="43.12442116626592" lon="-1.26967452885097"><ele>219.79999999999998</ele><time>2026-04-29T14:04:03.002Z</time></trkpt><trkpt lat="43.12433364543901" lon="-1.269707685632561"><ele>219.39999999999998</ele><time>2026-04-29T14:04:04.002Z</time></trkpt><trkpt lat="43.1242456332152" lon="-1.2697431936167725"><ele>219.0</ele><time>2026-04-29T14:04:05.002Z</time></trkpt><trkpt lat="43.124158768107854" lon="-1.2697763533906836"><ele>219.0</ele><time>2026-04-29T14:04:06.002Z</time></trkpt><trkpt lat="43.12407199994275" lon="-1.269809919752211"><ele>218.99999999999997</ele><time>2026-04-29T14:04:07.002Z</time></trkpt><trkpt lat="43.12398348461594" lon="-1.2698399295749232"><ele>218.99999999999997</ele><time>2026-04-29T14:04:08.002Z</time></trkpt><trkpt lat="43.123893325771924" lon="-1.2698702210135069"><ele>219.0</ele><time>2026-04-29T14:04:09.002Z</time></trkpt><trkpt lat="43.123804387788894" lon="-1.2699090715899226"><ele>219.0</ele><time>2026-04-29T14:04:10.002Z</time></trkpt><trkpt lat="43.123715849206945" lon="-1.2699450019390912"><ele>220.79999999999998</ele><time>2026-04-29T14:04:11.002Z</time></trkpt><trkpt lat="43.12362955684835" lon="-1.2699813151056842"><ele>222.59999999999997</ele><time>2026-04-29T14:04:12.002Z</time></trkpt><trkpt lat="43.12354076608582" lon="-1.2700152214016927"><ele>224.4</ele><time>2026-04-29T14:04:13.002Z</time></trkpt><trkpt lat="43.12345316077217" lon="-1.2700437757721696"><ele>226.2</ele><time>2026-04-29T14:04:14.002Z</time></trkpt><trkpt lat="43.12336424595828" lon="-1.270077352109085"><ele>228.0</ele><time>2026-04-29T14:04:15.002Z</time></trkpt><trkpt lat="43.12327547857" lon="-1.2701099404002292"><ele>229.4</ele><time>2026-04-29T14:04:16.002Z</time></trkpt><trkpt lat="43.1231854953813" lon="-1.2701420820176184"><ele>230.8</ele><time>2026-04-29T14:04:17.002Z</time></trkpt><trkpt lat="43.12309797952457" lon="-1.270173939030947"><ele>232.2</ele><time>2026-04-29T14:04:18.002Z</time></trkpt><trkpt lat="43.12300907827092" lon="-1.2702055048148995"><ele>233.6</ele><time>2026-04-29T14:04:19.002Z</time></trkpt><trkpt lat="43.12291879462702" lon="-1.2702363644987353"><ele>235.0</ele><time>2026-04-29T14:04:20.002Z</time></trkpt><trkpt lat="43.122831253325266" lon="-1.2702625229544307"><ele>235.0</ele><time>2026-04-29T14:04:21.002Z</time></trkpt><trkpt lat="43.12274303834091" lon="-1.2702832140905758"><ele>235.0</ele><time>2026-04-29T14:04:22.002Z</time></trkpt><trkpt lat="43.122655617125645" lon="-1.2702998900967144"><ele>235.0</ele><time>2026-04-29T14:04:23.002Z</time></trkpt><trkpt lat="43.12256696580222" lon="-1.2703003384225102"><ele>235.0</ele><time>2026-04-29T14:04:24.002Z</time></trkpt><trkpt lat="43.12247695519346" lon="-1.2702998565388837"><ele>235.0</ele><time>2026-04-29T14:04:25.003Z</time></trkpt><trkpt lat="43.12238414544869" lon="-1.2702827841067592"><ele>232.4</ele><time>2026-04-29T14:04:26.003Z</time></trkpt><trkpt lat="43.122295708225835" lon="-1.2702475737744343"><ele>229.8</ele><time>2026-04-29T14:04:27.003Z</time></trkpt><trkpt lat="43.122205396005434" lon="-1.2702049921417387"><ele>227.2</ele><time>2026-04-29T14:04:28.003Z</time></trkpt><trkpt lat="43.122114377737226" lon="-1.2701513087479364"><ele>224.6</ele><time>2026-04-29T14:04:29.003Z</time></trkpt><trkpt lat="43.12202275664262" lon="-1.2700963193455794"><ele>222.0</ele><time>2026-04-29T14:04:30.001Z</time></trkpt><trkpt lat="43.12193147381316" lon="-1.270035053108448"><ele>222.0</ele><time>2026-04-29T14:04:31.001Z</time></trkpt><trkpt lat="43.12183385826709" lon="-1.2699791594397485"><ele>222.0</ele><time>2026-04-29T14:04:32.001Z</time></trkpt><trkpt lat="43.121736801109776" lon="-1.269928969390793"><ele>222.0</ele><time>2026-04-29T14:04:33.001Z</time></trkpt><trkpt lat="43.12164222565147" lon="-1.2698822728906234"><ele>222.0</ele><time>2026-04-29T14:04:34.001Z</time></trkpt><trkpt lat="43.12154811118603" lon="-1.2698433406254035"><ele>222.0</ele><time>2026-04-29T14:04:35.001Z</time></trkpt><trkpt lat="43.1214552546816" lon="-1.269810912745823"><ele>222.0</ele><time>2026-04-29T14:04:36.001Z</time></trkpt><trkpt lat="43.12136785109529" lon="-1.2697813522035326"><ele>222.0</ele><time>2026-04-29T14:04:37.001Z</time></trkpt><trkpt lat="43.12128099598723" lon="-1.2697547511361995"><ele>222.0</ele><time>2026-04-29T14:04:38.001Z</time></trkpt><trkpt lat="43.121198939650675" lon="-1.269729288344695"><ele>222.0</ele><time>2026-04-29T14:04:39.001Z</time></trkpt><trkpt lat="43.1211187683017" lon="-1.2696990755732895"><ele>222.0</ele><time>2026-04-29T14:04:40.001Z</time></trkpt><trkpt lat="43.12103691713415" lon="-1.2696680600242565"><ele>222.0</ele><time>2026-04-29T14:04:41.001Z</time></trkpt><trkpt lat="43.120957051086094" lon="-1.2696341592793192"><ele>225.5</ele><time>2026-04-29T14:04:42Z</time></trkpt><trkpt lat="43.12087601156108" lon="-1.269596676998895"><ele>229.0</ele><time>2026-04-29T14:04:43Z</time></trkpt><trkpt lat="43.12079274533145" lon="-1.2695655132319426"><ele>232.5</ele><time>2026-04-29T14:04:44Z</time></trkpt><trkpt lat="43.12071114897949" lon="-1.269533685207274"><ele>236.0</ele><time>2026-04-29T14:04:45Z</time></trkpt><trkpt lat="43.12062734131255" lon="-1.2695071023281028"><ele>239.5</ele><time>2026-04-29T14:04:46Z</time></trkpt><trkpt lat="43.12054447464476" lon="-1.2694903620898692"><ele>243.0</ele><time>2026-04-29T14:04:47Z</time></trkpt><trkpt lat="43.120459762717054" lon="-1.269479296036368"><ele>243.66666666666666</ele><time>2026-04-29T14:04:48Z</time></trkpt><trkpt lat="43.120374207693644" lon="-1.269477394780819"><ele>244.33333333333331</ele><time>2026-04-29T14:04:49Z</time></trkpt><trkpt lat="43.12028752259903" lon="-1.2694773735955676"><ele>245.0</ele><time>2026-04-29T14:04:50Z</time></trkpt><trkpt lat="43.120200052123266" lon="-1.2694804472226773"><ele>245.66666666666666</ele><time>2026-04-29T14:04:51Z</time></trkpt><trkpt lat="43.12011212244878" lon="-1.2694889013308577"><ele>246.33333333333331</ele><time>2026-04-29T14:04:52Z</time></trkpt><trkpt lat="43.12002327995053" lon="-1.2694986785080502"><ele>247.0</ele><time>2026-04-29T14:04:53.001Z</time></trkpt><trkpt lat="43.1199298416899" lon="-1.269512661818531"><ele>249.2</ele><time>2026-04-29T14:04:54.001Z</time></trkpt><trkpt lat="43.11983682397619" lon="-1.269525526765057"><ele>251.39999999999998</ele><time>2026-04-29T14:04:55.001Z</time></trkpt><trkpt lat="43.11974090134407" lon="-1.2695377322222958"><ele>253.60000000000002</ele><time>2026-04-29T14:04:56.001Z</time></trkpt><trkpt lat="43.119643991794824" lon="-1.2695525134219339"><ele>255.8</ele><time>2026-04-29T14:04:57.001Z</time></trkpt><trkpt lat="43.11954586265931" lon="-1.2695653777602507"><ele>258.0</ele><time>2026-04-29T14:04:58.001Z</time></trkpt><trkpt lat="43.1194474847262" lon="-1.2695769938164387"><ele>258.0</ele><time>2026-04-29T14:04:59.001Z</time></trkpt><trkpt lat="43.11934806532618" lon="-1.269590304697256"><ele>258.0</ele><time>2026-04-29T14:05:00.001Z</time></trkpt><trkpt lat="43.119249959720484" lon="-1.2696047739260785"><ele>258.0</ele><time>2026-04-29T14:05:01.001Z</time></trkpt><trkpt lat="43.11914925879399" lon="-1.2696159586771392"><ele>258.0</ele><time>2026-04-29T14:05:02.001Z</time></trkpt><trkpt lat="43.119049279996084" lon="-1.2696279729114457"><ele>258.0</ele><time>2026-04-29T14:05:03.001Z</time></trkpt><trkpt lat="43.11894846956933" lon="-1.269634086403953"><ele>259.8</ele><time>2026-04-29T14:05:04.001Z</time></trkpt><trkpt lat="43.11885088728705" lon="-1.2696399073091578"><ele>261.6</ele><time>2026-04-29T14:05:05.001Z</time></trkpt><trkpt lat="43.11875197096953" lon="-1.2696475982186464"><ele>263.4</ele><time>2026-04-29T14:05:06.001Z</time></trkpt><trkpt lat="43.11865318765506" lon="-1.2696527416233372"><ele>265.2</ele><time>2026-04-29T14:05:07.001Z</time></trkpt><trkpt lat="43.11855269790785" lon="-1.269671652616901"><ele>267.0</ele><time>2026-04-29T14:05:08.001Z</time></trkpt><trkpt lat="43.11845411995185" lon="-1.2696929419930654"><ele>267.0</ele><time>2026-04-29T14:05:09.001Z</time></trkpt><trkpt lat="43.11835802323798" lon="-1.269712952954899"><ele>267.0</ele><time>2026-04-29T14:05:10.001Z</time></trkpt><trkpt lat="43.118258805869736" lon="-1.2697311196026073"><ele>267.0</ele><time>2026-04-29T14:05:11.001Z</time></trkpt><trkpt lat="43.11816128021781" lon="-1.269746066878453"><ele>267.0</ele><time>2026-04-29T14:05:12.001Z</time></trkpt><trkpt lat="43.11806300038566" lon="-1.2697664318396007"><ele>267.0</ele><time>2026-04-29T14:05:13.001Z</time></trkpt><trkpt lat="43.11796222605602" lon="-1.269795936040748"><ele>260.8</ele><time>2026-04-29T14:05:14.001Z</time></trkpt><trkpt lat="43.11786674672149" lon="-1.269827320193043"><ele>254.6</ele><time>2026-04-29T14:05:15.001Z</time></trkpt><trkpt lat="43.11776838710812" lon="-1.2698631866920917"><ele>248.40000000000003</ele><time>2026-04-29T14:05:16.001Z</time></trkpt><trkpt lat="43.11767161284337" lon="-1.2698930669701478"><ele>242.20000000000002</ele><time>2026-04-29T14:05:17.001Z</time></trkpt><trkpt lat="43.11757758132423" lon="-1.2699308647512302"><ele>236.0</ele><time>2026-04-29T14:05:18.001Z</time></trkpt><trkpt lat="43.11748395920767" lon="-1.269971119925346"><ele>239.8</ele><time>2026-04-29T14:05:19.001Z</time></trkpt><trkpt lat="43.11738704854596" lon="-1.2700068802404754"><ele>243.60000000000002</ele><time>2026-04-29T14:05:20.001Z</time></trkpt><trkpt lat="43.117293359114036" lon="-1.2700425374788051"><ele>247.4</ele><time>2026-04-29T14:05:21.001Z</time></trkpt><trkpt lat="43.11719771274241" lon="-1.2700786747303356"><ele>251.2</ele><time>2026-04-29T14:05:22.001Z</time></trkpt><trkpt lat="43.11710297984493" lon="-1.270117807876791"><ele>255.0</ele><time>2026-04-29T14:05:23.001Z</time></trkpt><trkpt lat="43.117010494300565" lon="-1.270160953102808"><ele>255.0</ele><time>2026-04-29T14:05:24.001Z</time></trkpt><trkpt lat="43.116919116665" lon="-1.2702008574101726"><ele>255.0</ele><time>2026-04-29T14:05:25.001Z</time></trkpt><trkpt lat="43.116826630764194" lon="-1.2702472213491318"><ele>255.0</ele><time>2026-04-29T14:05:26.001Z</time></trkpt><trkpt lat="43.11673654015936" lon="-1.2703025803714334"><ele>255.0</ele><time>2026-04-29T14:05:27.001Z</time></trkpt><trkpt lat="43.116649207667514" lon="-1.2703693120244333"><ele>255.0</ele><time>2026-04-29T14:05:28.001Z</time></trkpt><trkpt lat="43.11657164303685" lon="-1.2704463017223582"><ele>255.8</ele><time>2026-04-29T14:05:29.001Z</time></trkpt><trkpt lat="43.11649670718217" lon="-1.270534673326702"><ele>256.6</ele><time>2026-04-29T14:05:30.001Z</time></trkpt><trkpt lat="43.11643517163348" lon="-1.2706298678159214"><ele>257.4</ele><time>2026-04-29T14:05:31.001Z</time></trkpt><trkpt lat="43.11638217099719" lon="-1.2707334957463794"><ele>258.2</ele><time>2026-04-29T14:05:32.001Z</time></trkpt><trkpt lat="43.11634029561709" lon="-1.2708426741612278"><ele>259.0</ele><time>2026-04-29T14:05:33.001Z</time></trkpt><trkpt lat="43.116307694431754" lon="-1.2709539568426538"><ele>259.0</ele><time>2026-04-29T14:05:34.001Z</time></trkpt><trkpt lat="43.11627493234373" lon="-1.2710626227441186"><ele>259.0</ele><time>2026-04-29T14:05:35.001Z</time></trkpt><trkpt lat="43.1162452564929" lon="-1.2711725113995997"><ele>259.0</ele><time>2026-04-29T14:05:36.001Z</time></trkpt><trkpt lat="43.11621828181693" lon="-1.2712764761944806"><ele>259.0</ele><time>2026-04-29T14:05:37.001Z</time></trkpt><trkpt lat="43.116192188029395" lon="-1.2713809163547367"><ele>259.0</ele><time>2026-04-29T14:05:38.001Z</time></trkpt><trkpt lat="43.11615894601374" lon="-1.271481746109491"><ele>259.0</ele><time>2026-04-29T14:05:39.001Z</time></trkpt><trkpt lat="43.1161223823022" lon="-1.2715761660047753"><ele>255.66666666666666</ele><time>2026-04-29T14:05:40.001Z</time></trkpt><trkpt lat="43.116087002591875" lon="-1.2716792389616614"><ele>252.33333333333331</ele><time>2026-04-29T14:05:41.001Z</time></trkpt><trkpt lat="43.11604329023716" lon="-1.2717795250684578"><ele>249.0</ele><time>2026-04-29T14:05:42.001Z</time></trkpt><trkpt lat="43.11600121510468" lon="-1.2718838813324354"><ele>245.66666666666669</ele><time>2026-04-29T14:05:43.001Z</time></trkpt><trkpt lat="43.11595849863582" lon="-1.2719865636065286"><ele>242.33333333333334</ele><time>2026-04-29T14:05:44.001Z</time></trkpt><trkpt lat="43.11591373108201" lon="-1.2720923293376591"><ele>239.0</ele><time>2026-04-29T14:05:45.001Z</time></trkpt><trkpt lat="43.115867573256835" lon="-1.272196571966583"><ele>238.79999999999998</ele><time>2026-04-29T14:05:46.001Z</time></trkpt><trkpt lat="43.11581873037819" lon="-1.272299248606895"><ele>238.59999999999997</ele><time>2026-04-29T14:05:47.001Z</time></trkpt><trkpt lat="43.11576554535782" lon="-1.2724016498060866"><ele>238.4</ele><time>2026-04-29T14:05:48.001Z</time></trkpt><trkpt lat="43.115709653405844" lon="-1.272501321677113"><ele>238.2</ele><time>2026-04-29T14:05:49.001Z</time></trkpt><trkpt lat="43.11564897325252" lon="-1.2725949328078279"><ele>238.0</ele><time>2026-04-29T14:05:50.001Z</time></trkpt><trkpt lat="43.11558466731287" lon="-1.2726842516514603"><ele>240.83333333333331</ele><time>2026-04-29T14:05:51.001Z</time></trkpt><trkpt lat="43.11551444065309" lon="-1.2727632903977686"><ele>243.66666666666666</ele><time>2026-04-29T14:05:52.001Z</time></trkpt><trkpt lat="43.11544004709364" lon="-1.2728317544968801"><ele>246.5</ele><time>2026-04-29T14:05:53.001Z</time></trkpt><trkpt lat="43.115365058757405" lon="-1.272887549472736"><ele>249.33333333333331</ele><time>2026-04-29T14:05:54.002Z</time></trkpt><trkpt lat="43.11528113324787" lon="-1.2729343713800478"><ele>252.16666666666666</ele><time>2026-04-29T14:05:55.002Z</time></trkpt><trkpt lat="43.11519742483699" lon="-1.2729672736411008"><ele>255.0</ele><time>2026-04-29T14:05:56.002Z</time></trkpt><trkpt lat="43.11510977911932" lon="-1.2729883381955855"><ele>255.0</ele><time>2026-04-29T14:05:57.002Z</time></trkpt><trkpt lat="43.11502484313207" lon="-1.2730103323336965"><ele>255.0</ele><time>2026-04-29T14:05:58.002Z</time></trkpt><trkpt lat="43.11493908482421" lon="-1.2730242501750868"><ele>255.0</ele><time>2026-04-29T14:05:59.002Z</time></trkpt><trkpt lat="43.114852822106606" lon="-1.27304304698001"><ele>255.0</ele><time>2026-04-29T14:06:00.002Z</time></trkpt><trkpt lat="43.114768726261374" lon="-1.2730611120362962"><ele>255.0</ele><time>2026-04-29T14:06:01.002Z</time></trkpt><trkpt lat="43.114684508645006" lon="-1.273085381963517"><ele>255.0</ele><time>2026-04-29T14:06:02.002Z</time></trkpt><trkpt lat="43.11460328795949" lon="-1.273114631922607"><ele>254.33333333333334</ele><time>2026-04-29T14:06:03.002Z</time></trkpt><trkpt lat="43.11452134264172" lon="-1.273150487534463"><ele>253.66666666666669</ele><time>2026-04-29T14:06:04.002Z</time></trkpt><trkpt lat="43.11444142329927" lon="-1.2731931370896317"><ele>253.0</ele><time>2026-04-29T14:06:05.002Z</time></trkpt><trkpt lat="43.11436525013011" lon="-1.2732426415108253"><ele>252.33333333333334</ele><time>2026-04-29T14:06:06.002Z</time></trkpt><trkpt lat="43.114290694393695" lon="-1.2732990419207104"><ele>251.66666666666669</ele><time>2026-04-29T14:06:07.002Z</time></trkpt><trkpt lat="43.114213919473244" lon="-1.2733497847219324"><ele>251.0</ele><time>2026-04-29T14:06:08.002Z</time></trkpt><trkpt lat="43.11414102651816" lon="-1.2734029969946579"><ele>258.1666666666667</ele><time>2026-04-29T14:06:09.002Z</time></trkpt><trkpt lat="43.11406624440338" lon="-1.2734558910125673"><ele>265.33333333333337</ele><time>2026-04-29T14:06:10.002Z</time></trkpt><trkpt lat="43.11399286366117" lon="-1.2735067228271795"><ele>272.5</ele><time>2026-04-29T14:06:11.002Z</time></trkpt><trkpt lat="43.11391535108801" lon="-1.2735570644169578"><ele>279.6666666666667</ele><time>2026-04-29T14:06:12.002Z</time></trkpt><trkpt lat="43.113842446794024" lon="-1.2736108481266175"><ele>286.8333333333333</ele><time>2026-04-29T14:06:13.002Z</time></trkpt><trkpt lat="43.113767037623994" lon="-1.273660771267845"><ele>294.0</ele><time>2026-04-29T14:06:14.002Z</time></trkpt><trkpt lat="43.11369429133953" lon="-1.2737113719618194"><ele>294.0</ele><time>2026-04-29T14:06:15.002Z</time></trkpt><trkpt lat="43.11362492021036" lon="-1.2737763623616625"><ele>294.0</ele><time>2026-04-29T14:06:16.002Z</time></trkpt><trkpt lat="43.11356367441631" lon="-1.273849825175245"><ele>294.0</ele><time>2026-04-29T14:06:17.002Z</time></trkpt><trkpt lat="43.113505965048354" lon="-1.2739300385340075"><ele>294.0</ele><time>2026-04-29T14:06:18.002Z</time></trkpt><trkpt lat="43.113452503491935" lon="-1.2740141741016022"><ele>294.0</ele><time>2026-04-29T14:06:19.002Z</time></trkpt><trkpt lat="43.11340266187721" lon="-1.2740990345376766"><ele>294.0</ele><time>2026-04-29T14:06:20.002Z</time></trkpt><trkpt lat="43.11335519677951" lon="-1.2741884530434435"><ele>294.5</ele><time>2026-04-29T14:06:21.002Z</time></trkpt><trkpt lat="43.11331366178667" lon="-1.2742802331130068"><ele>295.0</ele><time>2026-04-29T14:06:22.002Z</time></trkpt><trkpt lat="43.11327065874619" lon="-1.2743807551793438"><ele>295.5</ele><time>2026-04-29T14:06:23.002Z</time></trkpt><trkpt lat="43.11323212935815" lon="-1.2744858613656918"><ele>296.0</ele><time>2026-04-29T14:06:24.002Z</time></trkpt><trkpt lat="43.11319781677372" lon="-1.2745924983366919"><ele>296.5</ele><time>2026-04-29T14:06:25.002Z</time></trkpt><trkpt lat="43.11316456412663" lon="-1.274709205037431"><ele>297.0</ele><time>2026-04-29T14:06:26.002Z</time></trkpt><trkpt lat="43.1131405934702" lon="-1.274829790618012"><ele>297.0</ele><time>2026-04-29T14:06:27.002Z</time></trkpt><trkpt lat="43.11311110240399" lon="-1.2749550837081194"><ele>297.0</ele><time>2026-04-29T14:06:28.002Z</time></trkpt><trkpt lat="43.11308168389885" lon="-1.2750857754828806"><ele>297.0</ele><time>2026-04-29T14:06:29.002Z</time></trkpt><trkpt lat="43.11305493120595" lon="-1.2752166525697781"><ele>297.0</ele><time>2026-04-29T14:06:30.002Z</time></trkpt><trkpt lat="43.11302751277605" lon="-1.2753494911213052"><ele>297.0</ele><time>2026-04-29T14:06:31.002Z</time></trkpt><trkpt lat="43.113003759068846" lon="-1.2754843481083311"><ele>291.6</ele><time>2026-04-29T14:06:32.002Z</time></trkpt><trkpt lat="43.112984580532036" lon="-1.2756231241387979"><ele>286.2</ele><time>2026-04-29T14:06:33.002Z</time></trkpt><trkpt lat="43.11297248535351" lon="-1.2757625347289931"><ele>280.8</ele><time>2026-04-29T14:06:34.002Z</time></trkpt><trkpt lat="43.112956993530304" lon="-1.275903757573057"><ele>275.4</ele><time>2026-04-29T14:06:35.002Z</time></trkpt><trkpt lat="43.112940803699786" lon="-1.276038368073479"><ele>270.0</ele><time>2026-04-29T14:06:36Z</time></trkpt><trkpt lat="43.11291931374053" lon="-1.2761753826013484"><ele>270.0</ele><time>2026-04-29T14:06:37Z</time></trkpt><trkpt lat="43.11288634662964" lon="-1.2763095486411815"><ele>270.0</ele><time>2026-04-29T14:06:38Z</time></trkpt><trkpt lat="43.11285515168105" lon="-1.2764368375488957"><ele>270.0</ele><time>2026-04-29T14:06:39Z</time></trkpt><trkpt lat="43.11279467772308" lon="-1.2765402637100016"><ele>270.0</ele><time>2026-04-29T14:06:40Z</time></trkpt><trkpt lat="43.11274781818198" lon="-1.2766433557740016"><ele>270.0</ele><time>2026-04-29T14:06:41Z</time></trkpt><trkpt lat="43.11270080453696" lon="-1.276739624244884"><ele>267.0</ele><time>2026-04-29T14:06:42Z</time></trkpt><trkpt lat="43.112650973598846" lon="-1.2768241339299071"><ele>264.0</ele><time>2026-04-29T14:06:43Z</time></trkpt><trkpt lat="43.112601598209736" lon="-1.2768995584549283"><ele>261.0</ele><time>2026-04-29T14:06:44Z</time></trkpt><trkpt lat="43.112557729957466" lon="-1.2769642880390635"><ele>258.0</ele><time>2026-04-29T14:06:45Z</time></trkpt><trkpt lat="43.11247984901521" lon="-1.2770449182887398"><ele>255.0</ele><time>2026-04-29T14:06:47Z</time></trkpt><trkpt lat="43.11243522039878" lon="-1.2771226291276074"><ele>252.0</ele><time>2026-04-29T14:08:31.002Z</time></trkpt><trkpt lat="43.1123746765643" lon="-1.2771678337142367"><ele>252.83333333333334</ele><time>2026-04-29T14:08:33.002Z</time></trkpt><trkpt lat="43.11228231956243" lon="-1.2772481396010076"><ele>253.66666666666669</ele><time>2026-04-29T14:08:35.002Z</time></trkpt><trkpt lat="43.11222889477492" lon="-1.2772938072857218"><ele>254.5</ele><time>2026-04-29T14:08:36.002Z</time></trkpt><trkpt lat="43.11217669307609" lon="-1.277344692152824"><ele>255.33333333333334</ele><time>2026-04-29T14:08:37.002Z</time></trkpt><trkpt lat="43.11211734002748" lon="-1.2773965110870187"><ele>256.1666666666667</ele><time>2026-04-29T14:08:38.002Z</time></trkpt><trkpt lat="43.11205947909666" lon="-1.2774645061183116"><ele>257.0</ele><time>2026-04-29T14:08:39.002Z</time></trkpt><trkpt lat="43.111997727276254" lon="-1.2775308190765597"><ele>257.0</ele><time>2026-04-29T14:08:40.002Z</time></trkpt><trkpt lat="43.11193549697631" lon="-1.2776090099121755"><ele>257.0</ele><time>2026-04-29T14:08:41.002Z</time></trkpt><trkpt lat="43.11187914223215" lon="-1.277686165746378"><ele>257.0</ele><time>2026-04-29T14:08:42.001Z</time></trkpt><trkpt lat="43.111818596745366" lon="-1.2777711540115764"><ele>257.0</ele><time>2026-04-29T14:08:43.001Z</time></trkpt><trkpt lat="43.1117605991762" lon="-1.2778606358339941"><ele>257.0</ele><time>2026-04-29T14:08:44.001Z</time></trkpt><trkpt lat="43.11169946915715" lon="-1.2779541246838526"><ele>257.0</ele><time>2026-04-29T14:08:45.001Z</time></trkpt><trkpt lat="43.11163617547391" lon="-1.278044330935794"><ele>260.6</ele><time>2026-04-29T14:08:46.001Z</time></trkpt><trkpt lat="43.11157029331197" lon="-1.278129311060645"><ele>264.2</ele><time>2026-04-29T14:08:47.001Z</time></trkpt><trkpt lat="43.111500167199594" lon="-1.2782176801707152"><ele>267.8</ele><time>2026-04-29T14:08:48.001Z</time></trkpt><trkpt lat="43.111423568895326" lon="-1.278299258407348"><ele>271.4</ele><time>2026-04-29T14:08:49.001Z</time></trkpt><trkpt lat="43.11134268840959" lon="-1.2783720239906948"><ele>275.0</ele><time>2026-04-29T14:08:50.001Z</time></trkpt><trkpt lat="43.11125580467518" lon="-1.278436434889796"><ele>275.0</ele><time>2026-04-29T14:08:51.001Z</time></trkpt><trkpt lat="43.11116482330397" lon="-1.2784858913420167"><ele>275.0</ele><time>2026-04-29T14:08:52.001Z</time></trkpt><trkpt lat="43.11107495198405" lon="-1.2785309728689827"><ele>275.0</ele><time>2026-04-29T14:08:53.001Z</time></trkpt><trkpt lat="43.11099064236998" lon="-1.2785875722579276"><ele>275.0</ele><time>2026-04-29T14:08:54.001Z</time></trkpt><trkpt lat="43.11091538180071" lon="-1.2786660370351521"><ele>275.0</ele><time>2026-04-29T14:08:55.001Z</time></trkpt><trkpt lat="43.1108510072079" lon="-1.2787626647625105"><ele>275.0</ele><time>2026-04-29T14:08:56.001Z</time></trkpt><trkpt lat="43.110800727659374" lon="-1.2788725301830381"><ele>275.0</ele><time>2026-04-29T14:08:57.001Z</time></trkpt><trkpt lat="43.110764539710985" lon="-1.2789895058900562"><ele>275.0</ele><time>2026-04-29T14:08:58.001Z</time></trkpt><trkpt lat="43.11073084349315" lon="-1.279111644339881"><ele>275.0</ele><time>2026-04-29T14:08:59.001Z</time></trkpt><trkpt lat="43.11069370065614" lon="-1.2792302953287513"><ele>275.0</ele><time>2026-04-29T14:09:00.001Z</time></trkpt><trkpt lat="43.1106542847343" lon="-1.279339649438007"><ele>272.5</ele><time>2026-04-29T14:09:01.001Z</time></trkpt><trkpt lat="43.11059651326158" lon="-1.279429350219879"><ele>270.0</ele><time>2026-04-29T14:09:02.001Z</time></trkpt><trkpt lat="43.11054381157447" lon="-1.279526847191222"><ele>267.5</ele><time>2026-04-29T14:09:03.001Z</time></trkpt><trkpt lat="43.11048505916623" lon="-1.2796011069070319"><ele>265.0</ele><time>2026-04-29T14:09:04.001Z</time></trkpt><trkpt lat="43.11042769732186" lon="-1.2796772417485274"><ele>262.5</ele><time>2026-04-29T14:09:05.001Z</time></trkpt><trkpt lat="43.110381526063605" lon="-1.279761504316833"><ele>260.0</ele><time>2026-04-29T14:09:06.001Z</time></trkpt><trkpt lat="43.11033546226652" lon="-1.279851428913103"><ele>260.0</ele><time>2026-04-29T14:09:07.001Z</time></trkpt><trkpt lat="43.11029738980585" lon="-1.279943056243852"><ele>260.0</ele><time>2026-04-29T14:09:08.001Z</time></trkpt><trkpt lat="43.11025927330977" lon="-1.2800386748137258"><ele>260.0</ele><time>2026-04-29T14:09:09.001Z</time></trkpt><trkpt lat="43.11022123159236" lon="-1.2801341058010778"><ele>260.0</ele><time>2026-04-29T14:09:10.001Z</time></trkpt><trkpt lat="43.110180820142844" lon="-1.2802291764690104"><ele>260.0</ele><time>2026-04-29T14:09:11.001Z</time></trkpt><trkpt lat="43.11013595352446" lon="-1.2803216519802916"><ele>260.0</ele><time>2026-04-29T14:09:12.001Z</time></trkpt><trkpt lat="43.110084310468615" lon="-1.2804162984928917"><ele>260.00000000000006</ele><time>2026-04-29T14:09:13.001Z</time></trkpt><trkpt lat="43.11003050099027" lon="-1.280496700635324"><ele>260.0</ele><time>2026-04-29T14:09:14.001Z</time></trkpt><trkpt lat="43.10996940484559" lon="-1.2805709248276296"><ele>260.0</ele><time>2026-04-29T14:09:15.001Z</time></trkpt><trkpt lat="43.10991391578148" lon="-1.2806384603018894"><ele>260.0</ele><time>2026-04-29T14:09:16.001Z</time></trkpt><trkpt lat="43.10985018190039" lon="-1.2806891909890477"><ele>260.0</ele><time>2026-04-29T14:09:17.001Z</time></trkpt><trkpt lat="43.109808859239315" lon="-1.2807619862321453"><ele>260.00000000000006</ele><time>2026-04-29T14:09:18.001Z</time></trkpt><trkpt lat="43.109786556611795" lon="-1.2808435567780978"><ele>260.0</ele><time>2026-04-29T14:09:19.001Z</time></trkpt><trkpt lat="43.109752234341414" lon="-1.2810001391326085"><ele>262.0</ele><time>2026-04-29T14:09:21.001Z</time></trkpt><trkpt lat="43.10974335177575" lon="-1.2811457016748593"><ele>264.0</ele><time>2026-04-29T14:09:23.001Z</time></trkpt><trkpt lat="43.10974179257202" lon="-1.2812390370175644"><ele>266.0</ele><time>2026-04-29T14:09:24.001Z</time></trkpt><trkpt lat="43.109733547506494" lon="-1.2813358249566986"><ele>268.0</ele><time>2026-04-29T14:09:25.001Z</time></trkpt><trkpt lat="43.10971842363054" lon="-1.2814425103473601"><ele>270.0</ele><time>2026-04-29T14:09:26.001Z</time></trkpt><trkpt lat="43.10970322892312" lon="-1.2815477508110547"><ele>272.0</ele><time>2026-04-29T14:09:27.001Z</time></trkpt><trkpt lat="43.10968759139727" lon="-1.2816592430743665"><ele>267.6666666666667</ele><time>2026-04-29T14:09:28.001Z</time></trkpt><trkpt lat="43.10965753466651" lon="-1.2817747175667802"><ele>263.33333333333337</ele><time>2026-04-29T14:09:29.001Z</time></trkpt><trkpt lat="43.109598898462124" lon="-1.2818713589787436"><ele>259.0</ele><time>2026-04-29T14:09:30.001Z</time></trkpt><trkpt lat="43.10953592714402" lon="-1.281953066225581"><ele>254.66666666666669</ele><time>2026-04-29T14:09:31.001Z</time></trkpt><trkpt lat="43.10947704682391" lon="-1.282035087331052"><ele>250.33333333333334</ele><time>2026-04-29T14:09:32.001Z</time></trkpt><trkpt lat="43.10941975813783" lon="-1.2821185482563708"><ele>246.0</ele><time>2026-04-29T14:09:33.001Z</time></trkpt><trkpt lat="43.10939318903843" lon="-1.282235013587822"><ele>246.60000000000002</ele><time>2026-04-29T14:09:34.001Z</time></trkpt><trkpt lat="43.10941005692436" lon="-1.2823545539705927"><ele>247.20000000000002</ele><time>2026-04-29T14:09:35.001Z</time></trkpt><trkpt lat="43.10943104815407" lon="-1.282467565360791"><ele>247.79999999999998</ele><time>2026-04-29T14:09:36.001Z</time></trkpt><trkpt lat="43.10944327251323" lon="-1.2825780838788223"><ele>248.39999999999998</ele><time>2026-04-29T14:09:37.001Z</time></trkpt><trkpt lat="43.10936781992499" lon="-1.2826963728171652"><ele>249.0</ele><time>2026-04-29T14:09:38.001Z</time></trkpt><trkpt lat="43.10929369376347" lon="-1.28277132751596"><ele>249.0</ele><time>2026-04-29T14:09:39.001Z</time></trkpt><trkpt lat="43.10923000365588" lon="-1.2828436746349223"><ele>249.0</ele><time>2026-04-29T14:09:40.001Z</time></trkpt><trkpt lat="43.10916468148993" lon="-1.2829153810858318"><ele>249.0</ele><time>2026-04-29T14:09:41.001Z</time></trkpt><trkpt lat="43.10908883713963" lon="-1.2829699430589312"><ele>249.0</ele><time>2026-04-29T14:09:42.001Z</time></trkpt><trkpt lat="43.10902897304103" lon="-1.283054795745652"><ele>249.0</ele><time>2026-04-29T14:09:43.001Z</time></trkpt><trkpt lat="43.10895985892444" lon="-1.2831194051198398"><ele>249.0</ele><time>2026-04-29T14:09:44.001Z</time></trkpt><trkpt lat="43.10889215811286" lon="-1.283187813914305"><ele>250.33333333333334</ele><time>2026-04-29T14:09:45.001Z</time></trkpt><trkpt lat="43.10882377291486" lon="-1.283254412870867"><ele>251.66666666666669</ele><time>2026-04-29T14:09:46.001Z</time></trkpt><trkpt lat="43.10875647565385" lon="-1.2833168175635952"><ele>253.0</ele><time>2026-04-29T14:09:47.001Z</time></trkpt><trkpt lat="43.10868642547134" lon="-1.2833752216552081"><ele>254.33333333333334</ele><time>2026-04-29T14:09:48.001Z</time></trkpt><trkpt lat="43.10861627305124" lon="-1.2834349239436995"><ele>255.66666666666669</ele><time>2026-04-29T14:09:49.001Z</time></trkpt><trkpt lat="43.108545097010314" lon="-1.283496872855547"><ele>257.0</ele><time>2026-04-29T14:09:50.001Z</time></trkpt><trkpt lat="43.108476538181215" lon="-1.2835603634296424"><ele>257.0</ele><time>2026-04-29T14:09:51.001Z</time></trkpt><trkpt lat="43.108406410800605" lon="-1.28362055801845"><ele>257.0</ele><time>2026-04-29T14:09:52.001Z</time></trkpt><trkpt lat="43.108336058973435" lon="-1.2836816506164879"><ele>257.0</ele><time>2026-04-29T14:09:53.001Z</time></trkpt><trkpt lat="43.10826738383741" lon="-1.2837477667714632"><ele>257.0</ele><time>2026-04-29T14:09:54.001Z</time></trkpt><trkpt lat="43.108200539290436" lon="-1.2838196570414715"><ele>257.0</ele><time>2026-04-29T14:09:55.001Z</time></trkpt><trkpt lat="43.10813967284949" lon="-1.2838921166024961"><ele>257.0</ele><time>2026-04-29T14:09:56.001Z</time></trkpt><trkpt lat="43.108077863493065" lon="-1.2839673829756626"><ele>256.6666666666667</ele><time>2026-04-29T14:09:57.001Z</time></trkpt><trkpt lat="43.10802031133651" lon="-1.2840490789574213"><ele>256.33333333333337</ele><time>2026-04-29T14:09:58.001Z</time></trkpt><trkpt lat="43.10796550725075" lon="-1.284132968898949"><ele>256.0</ele><time>2026-04-29T14:09:59.001Z</time></trkpt><trkpt lat="43.10791076915994" lon="-1.2842177943842896"><ele>255.66666666666669</ele><time>2026-04-29T14:10:00.001Z</time></trkpt><trkpt lat="43.10785657116342" lon="-1.284301478614654"><ele>255.33333333333334</ele><time>2026-04-29T14:10:01.001Z</time></trkpt><trkpt lat="43.107804544183395" lon="-1.2843873325751645"><ele>255.0</ele><time>2026-04-29T14:10:02.001Z</time></trkpt><trkpt lat="43.107754398680854" lon="-1.2844769618989198"><ele>255.0</ele><time>2026-04-29T14:10:03.001Z</time></trkpt><trkpt lat="43.107702833288165" lon="-1.2845638076031751"><ele>255.0</ele><time>2026-04-29T14:10:04.001Z</time></trkpt><trkpt lat="43.10764934452853" lon="-1.2846480052561677"><ele>255.0</ele><time>2026-04-29T14:10:05.001Z</time></trkpt><trkpt lat="43.107595869313094" lon="-1.2847340562114498"><ele>255.0</ele><time>2026-04-29T14:10:06.001Z</time></trkpt><trkpt lat="43.107543002788624" lon="-1.2848192396280746"><ele>255.0</ele><time>2026-04-29T14:10:07.002Z</time></trkpt><trkpt lat="43.10749088551183" lon="-1.284907100809141"><ele>255.0</ele><time>2026-04-29T14:10:08.002Z</time></trkpt><trkpt lat="43.10743850483359" lon="-1.2849918657839883"><ele>255.5</ele><time>2026-04-29T14:10:09.002Z</time></trkpt><trkpt lat="43.107385977249024" lon="-1.2850752551988538"><ele>256.0</ele><time>2026-04-29T14:10:10.002Z</time></trkpt><trkpt lat="43.10733434811621" lon="-1.2851597047320529"><ele>256.5</ele><time>2026-04-29T14:10:11.002Z</time></trkpt><trkpt lat="43.10727953828202" lon="-1.2852430526894045"><ele>257.0</ele><time>2026-04-29T14:10:12.002Z</time></trkpt><trkpt lat="43.107224821523296" lon="-1.2853246178706603"><ele>257.5</ele><time>2026-04-29T14:10:13.002Z</time></trkpt><trkpt lat="43.10716880777537" lon="-1.2854009612528827"><ele>258.0</ele><time>2026-04-29T14:10:14.002Z</time></trkpt><trkpt lat="43.10711110473167" lon="-1.2854758895798772"><ele>258.0</ele><time>2026-04-29T14:10:15.002Z</time></trkpt><trkpt lat="43.10704975665121" lon="-1.2855487389181253"><ele>258.0</ele><time>2026-04-29T14:10:16.002Z</time></trkpt><trkpt lat="43.10698701774005" lon="-1.285617556190875"><ele>258.0</ele><time>2026-04-29T14:10:17.002Z</time></trkpt><trkpt lat="43.106923907000066" lon="-1.2856871237036651"><ele>258.0</ele><time>2026-04-29T14:10:18.002Z</time></trkpt><trkpt lat="43.10685905020656" lon="-1.2857522567765127"><ele>258.0</ele><time>2026-04-29T14:10:19.002Z</time></trkpt><trkpt lat="43.10678678431383" lon="-1.2858077671960588"><ele>258.0</ele><time>2026-04-29T14:10:20.002Z</time></trkpt><trkpt lat="43.10671499511757" lon="-1.2858654156071947"><ele>260.1666666666667</ele><time>2026-04-29T14:10:21.002Z</time></trkpt><trkpt lat="43.10663835707946" lon="-1.2859167203311819"><ele>262.3333333333333</ele><time>2026-04-29T14:10:22.002Z</time></trkpt><trkpt lat="43.10655897678034" lon="-1.2859528862373972"><ele>264.5</ele><time>2026-04-29T14:10:23.002Z</time></trkpt><trkpt lat="43.1064732669101" lon="-1.2859787705120604"><ele>266.66666666666663</ele><time>2026-04-29T14:10:24.002Z</time></trkpt><trkpt lat="43.10638862922546" lon="-1.2860126025228575"><ele>268.8333333333333</ele><time>2026-04-29T14:10:25.002Z</time></trkpt><trkpt lat="43.10630494298332" lon="-1.2860471830023779"><ele>271.0</ele><time>2026-04-29T14:10:26.002Z</time></trkpt><trkpt lat="43.1062249500506" lon="-1.2860892056857962"><ele>271.0</ele><time>2026-04-29T14:10:27.002Z</time></trkpt><trkpt lat="43.10614336338691" lon="-1.2861355732000304"><ele>271.0</ele><time>2026-04-29T14:10:28.002Z</time></trkpt><trkpt lat="43.10606181511337" lon="-1.286187704089908"><ele>271.0</ele><time>2026-04-29T14:10:29.002Z</time></trkpt><trkpt lat="43.10598451130428" lon="-1.2862498311536257"><ele>271.0</ele><time>2026-04-29T14:10:30.002Z</time></trkpt><trkpt lat="43.105911953171955" lon="-1.286322190625562"><ele>271.0</ele><time>2026-04-29T14:10:31.002Z</time></trkpt><trkpt lat="43.10584441440761" lon="-1.2863991745605798"><ele>271.0</ele><time>2026-04-29T14:10:32.002Z</time></trkpt><trkpt lat="43.10577605672335" lon="-1.286467534816648"><ele>270.5</ele><time>2026-04-29T14:10:33.002Z</time></trkpt><trkpt lat="43.105709808842406" lon="-1.2865406956215037"><ele>270.0</ele><time>2026-04-29T14:10:34.002Z</time></trkpt><trkpt lat="43.105643715308446" lon="-1.2866154119112738"><ele>269.5</ele><time>2026-04-29T14:10:35.002Z</time></trkpt><trkpt lat="43.10558111893036" lon="-1.2866932152480381"><ele>269.0</ele><time>2026-04-29T14:10:36.002Z</time></trkpt><trkpt lat="43.10551817204117" lon="-1.2867714103749153"><ele>268.5</ele><time>2026-04-29T14:10:37.002Z</time></trkpt><trkpt lat="43.10545679264794" lon="-1.286852808344513"><ele>268.0</ele><time>2026-04-29T14:10:38.002Z</time></trkpt><trkpt lat="43.105401551143956" lon="-1.286940398807861"><ele>268.0</ele><time>2026-04-29T14:10:39.002Z</time></trkpt><trkpt lat="43.105348166105095" lon="-1.2870294206538315"><ele>268.0</ele><time>2026-04-29T14:10:40.002Z</time></trkpt><trkpt lat="43.105296818347334" lon="-1.2871171777013521"><ele>268.0</ele><time>2026-04-29T14:10:41.002Z</time></trkpt><trkpt lat="43.105246716550646" lon="-1.2872073195522375"><ele>268.0</ele><time>2026-04-29T14:10:42.002Z</time></trkpt><trkpt lat="43.10520230988988" lon="-1.287302369727319"><ele>268.0</ele><time>2026-04-29T14:10:43.002Z</time></trkpt><trkpt lat="43.1051599831995" lon="-1.2874024442980392"><ele>268.0</ele><time>2026-04-29T14:10:44.002Z</time></trkpt><trkpt lat="43.10512261337628" lon="-1.2875018201240067"><ele>268.0</ele><time>2026-04-29T14:10:45.002Z</time></trkpt><trkpt lat="43.10507986393258" lon="-1.2876007302712371"><ele>268.0</ele><time>2026-04-29T14:10:46.002Z</time></trkpt><trkpt lat="43.10503728354498" lon="-1.2877011059332657"><ele>268.0</ele><time>2026-04-29T14:10:47.002Z</time></trkpt><trkpt lat="43.10500081168374" lon="-1.2878060327699519"><ele>268.0</ele><time>2026-04-29T14:10:48Z</time></trkpt><trkpt lat="43.104962335034095" lon="-1.2879125378534573"><ele>268.0</ele><time>2026-04-29T14:10:49Z</time></trkpt><trkpt lat="43.10492178361088" lon="-1.2880226607956913"><ele>268.0</ele><time>2026-04-29T14:10:50Z</time></trkpt><trkpt lat="43.10487972166412" lon="-1.2881119407216575"><ele>268.0</ele><time>2026-04-29T14:10:51Z</time></trkpt><trkpt lat="43.10485115074359" lon="-1.2882179130704177"><ele>268.0</ele><time>2026-04-29T14:10:53Z</time></trkpt><trkpt lat="43.10475771263834" lon="-1.2884849701720646"><ele>268.0</ele><time>2026-04-29T14:10:54Z</time></trkpt><trkpt lat="43.10471383690133" lon="-1.288602375540162"><ele>268.0</ele><time>2026-04-29T14:10:55Z</time></trkpt><trkpt lat="43.10466800719751" lon="-1.288721947282956"><ele>268.0</ele><time>2026-04-29T14:10:56Z</time></trkpt><trkpt lat="43.10461744060977" lon="-1.2888367792687245"><ele>268.0</ele><time>2026-04-29T14:10:57Z</time></trkpt><trkpt lat="43.10456601940133" lon="-1.2889534639036675"><ele>268.0</ele><time>2026-04-29T14:10:58Z</time></trkpt><trkpt lat="43.10451247201757" lon="-1.2890713451611824"><ele>268.0</ele><time>2026-04-29T14:10:59Z</time></trkpt><trkpt lat="43.104459254249086" lon="-1.2891876448828503"><ele>268.0</ele><time>2026-04-29T14:11:00Z</time></trkpt><trkpt lat="43.104407305299425" lon="-1.2893065496542817"><ele>271.8</ele><time>2026-04-29T14:11:01Z</time></trkpt><trkpt lat="43.1043534551446" lon="-1.2894186000066645"><ele>275.6</ele><time>2026-04-29T14:11:02Z</time></trkpt><trkpt lat="43.10430289534598" lon="-1.2895328513504445"><ele>279.4</ele><time>2026-04-29T14:11:03Z</time></trkpt><trkpt lat="43.10424532018303" lon="-1.2896422574925066"><ele>283.2</ele><time>2026-04-29T14:11:04Z</time></trkpt><trkpt lat="43.10417967053992" lon="-1.2897416254154292"><ele>287.0</ele><time>2026-04-29T14:11:05Z</time></trkpt><trkpt lat="43.10411399700154" lon="-1.289840257531026"><ele>286.4</ele><time>2026-04-29T14:11:06Z</time></trkpt><trkpt lat="43.10403777295049" lon="-1.2899383157144302"><ele>285.79999999999995</ele><time>2026-04-29T14:11:07Z</time></trkpt><trkpt lat="43.10396241656902" lon="-1.2900410697303468"><ele>285.2</ele><time>2026-04-29T14:11:08Z</time></trkpt><trkpt lat="43.10388486453606" lon="-1.2901316605460484"><ele>284.59999999999997</ele><time>2026-04-29T14:11:09Z</time></trkpt><trkpt lat="43.10380732565931" lon="-1.290234368834281"><ele>284.0</ele><time>2026-04-29T14:11:10Z</time></trkpt><trkpt lat="43.10372570101614" lon="-1.2903269171907812"><ele>284.0</ele><time>2026-04-29T14:11:11Z</time></trkpt><trkpt lat="43.10363821278056" lon="-1.2904068148796561"><ele>284.0</ele><time>2026-04-29T14:11:12Z</time></trkpt><trkpt lat="43.10354549062039" lon="-1.2904766395282437"><ele>284.0</ele><time>2026-04-29T14:11:13Z</time></trkpt><trkpt lat="43.10344621899503" lon="-1.2905371970282764"><ele>284.0</ele><time>2026-04-29T14:11:14Z</time></trkpt><trkpt lat="43.10334539476305" lon="-1.2905970635608541"><ele>284.0</ele><time>2026-04-29T14:11:15Z</time></trkpt><trkpt lat="43.103253161687306" lon="-1.290668226168364"><ele>288.4</ele><time>2026-04-29T14:11:16Z</time></trkpt><trkpt lat="43.10315835861798" lon="-1.2907267972398218"><ele>292.79999999999995</ele><time>2026-04-29T14:11:17Z</time></trkpt><trkpt lat="43.103056715784035" lon="-1.290758968406741"><ele>297.20000000000005</ele><time>2026-04-29T14:11:18Z</time></trkpt><trkpt lat="43.1029526247411" lon="-1.2907656177748479"><ele>301.6</ele><time>2026-04-29T14:11:19Z</time></trkpt><trkpt lat="43.10284666464441" lon="-1.2907641129208929"><ele>306.0</ele><time>2026-04-29T14:11:20Z</time></trkpt><trkpt lat="43.102742696187654" lon="-1.2907670932544222"><ele>306.0</ele><time>2026-04-29T14:11:21.001Z</time></trkpt><trkpt lat="43.10263584348785" lon="-1.2907725742978395"><ele>306.0</ele><time>2026-04-29T14:11:22.001Z</time></trkpt><trkpt lat="43.102532043190145" lon="-1.290777854924933"><ele>306.0</ele><time>2026-04-29T14:11:23.001Z</time></trkpt><trkpt lat="43.10242549936334" lon="-1.2907842249390344"><ele>306.0</ele><time>2026-04-29T14:11:24.001Z</time></trkpt><trkpt lat="43.102322759885475" lon="-1.2907895097809508"><ele>306.0</ele><time>2026-04-29T14:11:25.001Z</time></trkpt><trkpt lat="43.10222314179583" lon="-1.290794878130043"><ele>303.0</ele><time>2026-04-29T14:11:26.001Z</time></trkpt><trkpt lat="43.102119753004025" lon="-1.2907980694662766"><ele>300.0</ele><time>2026-04-29T14:11:27.001Z</time></trkpt><trkpt lat="43.10201804857893" lon="-1.2908068359573581"><ele>297.0</ele><time>2026-04-29T14:11:28.001Z</time></trkpt><trkpt lat="43.101920520780894" lon="-1.2908106334463099"><ele>294.0</ele><time>2026-04-29T14:11:29.001Z</time></trkpt><trkpt lat="43.10182574114009" lon="-1.290811966886236"><ele>291.0</ele><time>2026-04-29T14:11:30.001Z</time></trkpt><trkpt lat="43.10172746471104" lon="-1.290837927931719"><ele>291.0</ele><time>2026-04-29T14:11:31.001Z</time></trkpt><trkpt lat="43.101629729514116" lon="-1.290882636215311"><ele>291.0</ele><time>2026-04-29T14:11:32.001Z</time></trkpt><trkpt lat="43.10154781156543" lon="-1.2909616648457611"><ele>291.0</ele><time>2026-04-29T14:11:33.001Z</time></trkpt><trkpt lat="43.101479721448506" lon="-1.291063420430874"><ele>291.0</ele><time>2026-04-29T14:11:34.001Z</time></trkpt><trkpt lat="43.10143276422947" lon="-1.2911811973943665"><ele>291.0</ele><time>2026-04-29T14:11:35.001Z</time></trkpt><trkpt lat="43.10140856057048" lon="-1.2913080957766598"><ele>288.8</ele><time>2026-04-29T14:11:36.001Z</time></trkpt><trkpt lat="43.101386162604406" lon="-1.2914365942402801"><ele>286.6</ele><time>2026-04-29T14:11:37.001Z</time></trkpt><trkpt lat="43.10136999614603" lon="-1.2915632809593303"><ele>284.4</ele><time>2026-04-29T14:11:38.001Z</time></trkpt><trkpt lat="43.10135378237163" lon="-1.2916900498005959"><ele>282.2</ele><time>2026-04-29T14:11:39.001Z</time></trkpt><trkpt lat="43.10133722646859" lon="-1.2918202689722562"><ele>280.0</ele><time>2026-04-29T14:11:40.001Z</time></trkpt><trkpt lat="43.10131983935417" lon="-1.2919396974197923"><ele>280.0</ele><time>2026-04-29T14:11:41.001Z</time></trkpt><trkpt lat="43.10129730998645" lon="-1.2920627802232836"><ele>280.0</ele><time>2026-04-29T14:11:42.001Z</time></trkpt><trkpt lat="43.10127726354895" lon="-1.2921856775765372"><ele>280.0</ele><time>2026-04-29T14:11:43.001Z</time></trkpt><trkpt lat="43.10125709855378" lon="-1.2923075738119616"><ele>280.0</ele><time>2026-04-29T14:11:44.001Z</time></trkpt><trkpt lat="43.101233548498286" lon="-1.2924274953957513"><ele>280.0</ele><time>2026-04-29T14:11:45.001Z</time></trkpt><trkpt lat="43.10120477326167" lon="-1.292543744553664"><ele>282.3333333333333</ele><time>2026-04-29T14:11:46.001Z</time></trkpt><trkpt lat="43.101159357334595" lon="-1.2926500389648476"><ele>284.66666666666663</ele><time>2026-04-29T14:11:47.001Z</time></trkpt><trkpt lat="43.10110303232703" lon="-1.292750318522181"><ele>287.0</ele><time>2026-04-29T14:11:48.001Z</time></trkpt><trkpt lat="43.10104152841981" lon="-1.29283926987622"><ele>289.3333333333333</ele><time>2026-04-29T14:11:49.001Z</time></trkpt><trkpt lat="43.100980462761804" lon="-1.292928167550529"><ele>291.6666666666667</ele><time>2026-04-29T14:11:50.001Z</time></trkpt><trkpt lat="43.100919112439755" lon="-1.2930061283736034"><ele>294.0</ele><time>2026-04-29T14:11:51.001Z</time></trkpt><trkpt lat="43.10086703246921" lon="-1.293091045349221"><ele>296.3333333333333</ele><time>2026-04-29T14:11:52.001Z</time></trkpt><trkpt lat="43.100809711524185" lon="-1.2931681954540826"><ele>298.6666666666667</ele><time>2026-04-29T14:11:53.001Z</time></trkpt><trkpt lat="43.10074730020292" lon="-1.2932425943745387"><ele>301.0</ele><time>2026-04-29T14:11:54.001Z</time></trkpt><trkpt lat="43.10068529312603" lon="-1.2933054692130141"><ele>303.33333333333337</ele><time>2026-04-29T14:11:55.001Z</time></trkpt><trkpt lat="43.10061320617931" lon="-1.2933552107398798"><ele>305.6666666666667</ele><time>2026-04-29T14:11:56.001Z</time></trkpt><trkpt lat="43.100532935106344" lon="-1.2933780958943542"><ele>308.0</ele><time>2026-04-29T14:11:57.001Z</time></trkpt><trkpt lat="43.100450493794604" lon="-1.2933897725770003"><ele>308.0</ele><time>2026-04-29T14:11:58.001Z</time></trkpt><trkpt lat="43.100362788231486" lon="-1.2933788579000278"><ele>308.0</ele><time>2026-04-29T14:11:59.001Z</time></trkpt><trkpt lat="43.100279626360354" lon="-1.2933700130743648"><ele>308.0</ele><time>2026-04-29T14:12:00.001Z</time></trkpt><trkpt lat="43.10019593231112" lon="-1.2933602019711348"><ele>308.0</ele><time>2026-04-29T14:12:01.001Z</time></trkpt><trkpt lat="43.10010969483052" lon="-1.293343035861217"><ele>308.0</ele><time>2026-04-29T14:12:02.001Z</time></trkpt><trkpt lat="43.100024396972834" lon="-1.293341268132188"><ele>308.0</ele><time>2026-04-29T14:12:03.001Z</time></trkpt><trkpt lat="43.09993702762398" lon="-1.2933366937859156"><ele>305.83333333333337</ele><time>2026-04-29T14:12:04.001Z</time></trkpt><trkpt lat="43.099849330312054" lon="-1.2933205714074678"><ele>303.6666666666667</ele><time>2026-04-29T14:12:05.001Z</time></trkpt><trkpt lat="43.099760472096015" lon="-1.2932964746119646"><ele>301.5</ele><time>2026-04-29T14:12:06.001Z</time></trkpt><trkpt lat="43.09967493670445" lon="-1.2932989559756627"><ele>299.3333333333333</ele><time>2026-04-29T14:12:07.001Z</time></trkpt><trkpt lat="43.09958621312473" lon="-1.2932972727193062"><ele>297.16666666666663</ele><time>2026-04-29T14:12:08.001Z</time></trkpt><trkpt lat="43.09949747402988" lon="-1.2933228643186798"><ele>295.0</ele><time>2026-04-29T14:12:09.001Z</time></trkpt><trkpt lat="43.09941455445633" lon="-1.2933753154871268"><ele>295.0</ele><time>2026-04-29T14:12:10.001Z</time></trkpt><trkpt lat="43.09933595959581" lon="-1.2934347315402492"><ele>295.0</ele><time>2026-04-29T14:12:11.001Z</time></trkpt><trkpt lat="43.09925963697763" lon="-1.2934994033952765"><ele>295.0</ele><time>2026-04-29T14:12:12.001Z</time></trkpt><trkpt lat="43.099190486795095" lon="-1.2935741857269074"><ele>295.0</ele><time>2026-04-29T14:12:13.001Z</time></trkpt><trkpt lat="43.09911946934812" lon="-1.2936555772564733"><ele>295.0</ele><time>2026-04-29T14:12:14.001Z</time></trkpt><trkpt lat="43.09906106258584" lon="-1.2937405725576794"><ele>295.0</ele><time>2026-04-29T14:12:15.001Z</time></trkpt><trkpt lat="43.09899833245542" lon="-1.2938346589489484"><ele>295.8</ele><time>2026-04-29T14:12:16.001Z</time></trkpt><trkpt lat="43.09893368865222" lon="-1.2939197319787976"><ele>296.6</ele><time>2026-04-29T14:12:17.001Z</time></trkpt><trkpt lat="43.09886634598229" lon="-1.294010586386052"><ele>297.4</ele><time>2026-04-29T14:12:18.001Z</time></trkpt><trkpt lat="43.09879384267588" lon="-1.294091928265546"><ele>298.2</ele><time>2026-04-29T14:12:19.001Z</time></trkpt><trkpt lat="43.09871759701908" lon="-1.2941766905233085"><ele>299.0</ele><time>2026-04-29T14:12:20.001Z</time></trkpt><trkpt lat="43.09864372466185" lon="-1.2942548660624906"><ele>299.0</ele><time>2026-04-29T14:12:21.001Z</time></trkpt><trkpt lat="43.09856322587705" lon="-1.2943401108455646"><ele>299.0</ele><time>2026-04-29T14:12:22.001Z</time></trkpt><trkpt lat="43.098484012246445" lon="-1.2944213713992732"><ele>299.0</ele><time>2026-04-29T14:12:23.001Z</time></trkpt><trkpt lat="43.09840744415567" lon="-1.2945044842068596"><ele>299.0</ele><time>2026-04-29T14:12:24.001Z</time></trkpt><trkpt lat="43.09831988722276" lon="-1.2945776636800226"><ele>299.0</ele><time>2026-04-29T14:12:25.001Z</time></trkpt><trkpt lat="43.09823018984201" lon="-1.294640995685691"><ele>299.0</ele><time>2026-04-29T14:12:26.001Z</time></trkpt><trkpt lat="43.098136934667345" lon="-1.2947007016040317"><ele>299.0</ele><time>2026-04-29T14:12:27.001Z</time></trkpt><trkpt lat="43.09804451431433" lon="-1.29473674626379"><ele>299.0</ele><time>2026-04-29T14:12:28.001Z</time></trkpt><trkpt lat="43.097947549420866" lon="-1.2947834091971784"><ele>299.0</ele><time>2026-04-29T14:12:29.001Z</time></trkpt><trkpt lat="43.09785384158538" lon="-1.2948398724792143"><ele>299.0</ele><time>2026-04-29T14:12:30.001Z</time></trkpt><trkpt lat="43.09776237326413" lon="-1.2948919637459213"><ele>298.59999999999997</ele><time>2026-04-29T14:12:31.001Z</time></trkpt><trkpt lat="43.09767958715962" lon="-1.294962016092162"><ele>298.2</ele><time>2026-04-29T14:12:32.001Z</time></trkpt><trkpt lat="43.09759830817434" lon="-1.2950247849074488"><ele>297.79999999999995</ele><time>2026-04-29T14:12:33.001Z</time></trkpt><trkpt lat="43.09752299896361" lon="-1.2950962349472488"><ele>297.4</ele><time>2026-04-29T14:12:34.001Z</time></trkpt><trkpt lat="43.09745283451226" lon="-1.295177372537644"><ele>297.0</ele><time>2026-04-29T14:12:35.001Z</time></trkpt><trkpt lat="43.097387108583135" lon="-1.2952680341673157"><ele>296.4</ele><time>2026-04-29T14:12:36.002Z</time></trkpt><trkpt lat="43.09733523922674" lon="-1.2953785622400968"><ele>295.79999999999995</ele><time>2026-04-29T14:12:37.002Z</time></trkpt><trkpt lat="43.09729603260524" lon="-1.2955025603003612"><ele>295.2</ele><time>2026-04-29T14:12:38.002Z</time></trkpt><trkpt lat="43.097272314609384" lon="-1.2956310111453202"><ele>294.59999999999997</ele><time>2026-04-29T14:12:39.002Z</time></trkpt><trkpt lat="43.09727579677702" lon="-1.2957636153545178"><ele>294.0</ele><time>2026-04-29T14:12:40.002Z</time></trkpt><trkpt lat="43.09733610304891" lon="-1.2958811275585573"><ele>294.0</ele><time>2026-04-29T14:12:41.002Z</time></trkpt><trkpt lat="43.09740012512935" lon="-1.295971513170865"><ele>294.0</ele><time>2026-04-29T14:12:42.002Z</time></trkpt><trkpt lat="43.097463215985904" lon="-1.296081089696581"><ele>294.0</ele><time>2026-04-29T14:12:43.002Z</time></trkpt><trkpt lat="43.097533362849134" lon="-1.2961605586106537"><ele>294.0</ele><time>2026-04-29T14:12:44.002Z</time></trkpt><trkpt lat="43.09759995048193" lon="-1.2962491333355937"><ele>294.0</ele><time>2026-04-29T14:12:45.002Z</time></trkpt><trkpt lat="43.097664839613216" lon="-1.2963351968260466"><ele>296.6666666666667</ele><time>2026-04-29T14:12:46.002Z</time></trkpt><trkpt lat="43.097726993198215" lon="-1.2964266233667368"><ele>299.3333333333333</ele><time>2026-04-29T14:12:47.002Z</time></trkpt><trkpt lat="43.0977869776828" lon="-1.296521743228458"><ele>302.0</ele><time>2026-04-29T14:12:48.002Z</time></trkpt><trkpt lat="43.097856567097026" lon="-1.2965996155899346"><ele>304.66666666666663</ele><time>2026-04-29T14:12:49.002Z</time></trkpt><trkpt lat="43.097912026717324" lon="-1.2966813108728428"><ele>307.3333333333333</ele><time>2026-04-29T14:12:50.002Z</time></trkpt><trkpt lat="43.097949268128694" lon="-1.296771993119962"><ele>310.0</ele><time>2026-04-29T14:12:51.002Z</time></trkpt><trkpt lat="43.097967109269746" lon="-1.2968720928478281"><ele>310.0</ele><time>2026-04-29T14:12:52.002Z</time></trkpt><trkpt lat="43.09795512202812" lon="-1.2969760716222698"><ele>310.0</ele><time>2026-04-29T14:12:53.002Z</time></trkpt><trkpt lat="43.0979038677743" lon="-1.2970670342047916"><ele>310.0</ele><time>2026-04-29T14:12:54Z</time></trkpt><trkpt lat="43.097831732219454" lon="-1.297115494794362"><ele>310.0</ele><time>2026-04-29T14:12:55Z</time></trkpt><trkpt lat="43.097747522142164" lon="-1.2971083276123085"><ele>310.0</ele><time>2026-04-29T14:12:56Z</time></trkpt><trkpt lat="43.09767410285313" lon="-1.2970732848110258"><ele>310.0</ele><time>2026-04-29T14:12:57Z</time></trkpt><trkpt lat="43.09761116936211" lon="-1.2970358637439765"><ele>310.0</ele><time>2026-04-29T14:12:58Z</time></trkpt><trkpt lat="43.097541894797594" lon="-1.2970035560249322"><ele>310.0</ele><time>2026-04-29T14:12:59Z</time></trkpt><trkpt lat="43.09747364561071" lon="-1.2969732965936023"><ele>310.0</ele><time>2026-04-29T14:13:00Z</time></trkpt><trkpt lat="43.097411529644475" lon="-1.296941784000112"><ele>310.0</ele><time>2026-04-29T14:13:01Z</time></trkpt><trkpt lat="43.097345641489646" lon="-1.296912728436698"><ele>310.0</ele><time>2026-04-29T14:13:02Z</time></trkpt><trkpt lat="43.09727673715484" lon="-1.2968823048970184"><ele>310.0</ele><time>2026-04-29T14:13:03Z</time></trkpt><trkpt lat="43.09720917963632" lon="-1.2968420344151486"><ele>310.0</ele><time>2026-04-29T14:13:04Z</time></trkpt><trkpt lat="43.09714584409138" lon="-1.2968151323946082"><ele>310.2857142857143</ele><time>2026-04-29T14:13:05Z</time></trkpt><trkpt lat="43.097082171615746" lon="-1.2967604313458543"><ele>310.57142857142856</ele><time>2026-04-29T14:13:06Z</time></trkpt><trkpt lat="43.09701813858224" lon="-1.2967062453712241"><ele>310.8571428571429</ele><time>2026-04-29T14:13:07Z</time></trkpt><trkpt lat="43.09695342062884" lon="-1.296659227301893"><ele>311.1428571428571</ele><time>2026-04-29T14:13:08Z</time></trkpt><trkpt lat="43.09689386480198" lon="-1.2965970643887765"><ele>311.4285714285714</ele><time>2026-04-29T14:13:09Z</time></trkpt><trkpt lat="43.09683069295334" lon="-1.296539913116205"><ele>311.7142857142857</ele><time>2026-04-29T14:13:10Z</time></trkpt><trkpt lat="43.096770423955775" lon="-1.2964833155718958"><ele>312.0</ele><time>2026-04-29T14:13:11Z</time></trkpt><trkpt lat="43.09670717208637" lon="-1.2964312121084647"><ele>309.8571428571429</ele><time>2026-04-29T14:13:12Z</time></trkpt><trkpt lat="43.09664780652023" lon="-1.2963788447847422"><ele>307.71428571428567</ele><time>2026-04-29T14:13:13Z</time></trkpt><trkpt lat="43.0965851724774" lon="-1.2963363499913665"><ele>305.57142857142856</ele><time>2026-04-29T14:13:14Z</time></trkpt><trkpt lat="43.09651681946746" lon="-1.2963208621364815"><ele>303.42857142857144</ele><time>2026-04-29T14:13:15Z</time></trkpt><trkpt lat="43.09644509562447" lon="-1.2963273769833337"><ele>301.28571428571433</ele><time>2026-04-29T14:13:16Z</time></trkpt><trkpt lat="43.096375690368774" lon="-1.2963652750702919"><ele>299.14285714285717</ele><time>2026-04-29T14:13:17Z</time></trkpt><trkpt lat="43.09632406951338" lon="-1.296450308229702"><ele>297.0</ele><time>2026-04-29T14:13:18Z</time></trkpt><trkpt lat="43.096309027646996" lon="-1.296552290634676"><ele>297.0</ele><time>2026-04-29T14:13:19Z</time></trkpt><trkpt lat="43.09630078234463" lon="-1.2966464070107881"><ele>297.0</ele><time>2026-04-29T14:13:20Z</time></trkpt><trkpt lat="43.0962902672431" lon="-1.2967450706146784"><ele>297.0</ele><time>2026-04-29T14:13:21Z</time></trkpt><trkpt lat="43.09627237634861" lon="-1.2968349080085357"><ele>297.0</ele><time>2026-04-29T14:13:22Z</time></trkpt><trkpt lat="43.09624537960462" lon="-1.2969224648985844"><ele>297.0</ele><time>2026-04-29T14:13:23Z</time></trkpt><trkpt lat="43.096250797823096" lon="-1.2970175647527271"><ele>297.0</ele><time>2026-04-29T14:13:24Z</time></trkpt><trkpt lat="43.09630075137118" lon="-1.2970998439579289"><ele>297.0</ele><time>2026-04-29T14:13:25Z</time></trkpt><trkpt lat="43.096382048609215" lon="-1.2971238514638999"><ele>297.0</ele><time>2026-04-29T14:13:26Z</time></trkpt><trkpt lat="43.096460523601" lon="-1.2970899180320759"><ele>297.0</ele><time>2026-04-29T14:13:27Z</time></trkpt><trkpt lat="43.09651663613527" lon="-1.297016777225713"><ele>297.0</ele><time>2026-04-29T14:13:28Z</time></trkpt><trkpt lat="43.09656913138268" lon="-1.2969545391202375"><ele>297.0</ele><time>2026-04-29T14:13:29Z</time></trkpt><trkpt lat="43.09662817053465" lon="-1.2969165172877144"><ele>297.0</ele><time>2026-04-29T14:13:30Z</time></trkpt><trkpt lat="43.0966896779831" lon="-1.2968828143257294"><ele>297.0</ele><time>2026-04-29T14:13:31Z</time></trkpt><trkpt lat="43.09675374434633" lon="-1.2968532769050465"><ele>297.0</ele><time>2026-04-29T14:13:32Z</time></trkpt><trkpt lat="43.09682071588305" lon="-1.2968555063591103"><ele>299.5</ele><time>2026-04-29T14:13:33Z</time></trkpt><trkpt lat="43.096890455404434" lon="-1.2968926121096793"><ele>302.0</ele><time>2026-04-29T14:13:34Z</time></trkpt><trkpt lat="43.096945109166015" lon="-1.2969579767010373"><ele>304.5</ele><time>2026-04-29T14:13:35Z</time></trkpt><trkpt lat="43.096979980305626" lon="-1.2970469156631432"><ele>307.0</ele><time>2026-04-29T14:13:36Z</time></trkpt><trkpt lat="43.09698689956076" lon="-1.297151737773739"><ele>309.5</ele><time>2026-04-29T14:13:37Z</time></trkpt><trkpt lat="43.096957413896305" lon="-1.2972475003450377"><ele>312.0</ele><time>2026-04-29T14:13:38Z</time></trkpt><trkpt lat="43.096892703088194" lon="-1.2973176346598538"><ele>312.5</ele><time>2026-04-29T14:13:39Z</time></trkpt><trkpt lat="43.096818568944556" lon="-1.2973616791737688"><ele>313.0</ele><time>2026-04-29T14:13:40Z</time></trkpt><trkpt lat="43.096743477166804" lon="-1.2973984863092445"><ele>313.5</ele><time>2026-04-29T14:13:41Z</time></trkpt><trkpt lat="43.09666664802814" lon="-1.297420568166606"><ele>314.0</ele><time>2026-04-29T14:13:42Z</time></trkpt><trkpt lat="43.09658642310657" lon="-1.2974435170054692"><ele>314.5</ele><time>2026-04-29T14:13:43Z</time></trkpt><trkpt lat="43.09650551470689" lon="-1.297464386838447"><ele>315.0</ele><time>2026-04-29T14:13:44Z</time></trkpt><trkpt lat="43.09642413058267" lon="-1.2974869517703689"><ele>315.0</ele><time>2026-04-29T14:13:45.001Z</time></trkpt><trkpt lat="43.09634402086406" lon="-1.2975120474292992"><ele>315.0</ele><time>2026-04-29T14:13:46.001Z</time></trkpt><trkpt lat="43.096262830112956" lon="-1.2975415724225379"><ele>315.0</ele><time>2026-04-29T14:13:47.001Z</time></trkpt><trkpt lat="43.09618379063885" lon="-1.2975824749867333"><ele>315.0</ele><time>2026-04-29T14:13:48.001Z</time></trkpt><trkpt lat="43.09611014350208" lon="-1.2976343002419768"><ele>315.0</ele><time>2026-04-29T14:13:49.001Z</time></trkpt><trkpt lat="43.096045198535776" lon="-1.297704124412081"><ele>315.0</ele><time>2026-04-29T14:13:50.001Z</time></trkpt><trkpt lat="43.09597928309933" lon="-1.2977753116133017"><ele>315.0</ele><time>2026-04-29T14:13:51.001Z</time></trkpt><trkpt lat="43.095911210342805" lon="-1.2978377251494448"><ele>315.0</ele><time>2026-04-29T14:13:52.001Z</time></trkpt><trkpt lat="43.09583856006167" lon="-1.2978910135036137"><ele>315.0</ele><time>2026-04-29T14:13:53.001Z</time></trkpt><trkpt lat="43.09577087519192" lon="-1.2979557783296591"><ele>315.0</ele><time>2026-04-29T14:13:54.001Z</time></trkpt><trkpt lat="43.09570251621508" lon="-1.298018027264652"><ele>315.0</ele><time>2026-04-29T14:13:55.001Z</time></trkpt><trkpt lat="43.09563431885668" lon="-1.2980834621522934"><ele>315.0</ele><time>2026-04-29T14:13:56.001Z</time></trkpt><trkpt lat="43.09556805820009" lon="-1.2981466711326897"><ele>317.1666666666667</ele><time>2026-04-29T14:13:57.001Z</time></trkpt><trkpt lat="43.09550131294527" lon="-1.2982096982777083"><ele>319.3333333333333</ele><time>2026-04-29T14:13:58.001Z</time></trkpt><trkpt lat="43.09543579968127" lon="-1.2982745758144498"><ele>321.5</ele><time>2026-04-29T14:13:59.001Z</time></trkpt><trkpt lat="43.095373446070994" lon="-1.298340658627733"><ele>323.66666666666663</ele><time>2026-04-29T14:14:00.001Z</time></trkpt><trkpt lat="43.09530684681874" lon="-1.298401614766687"><ele>325.8333333333333</ele><time>2026-04-29T14:14:01.001Z</time></trkpt><trkpt lat="43.09523574739113" lon="-1.2984551709287195"><ele>328.0</ele><time>2026-04-29T14:14:02.001Z</time></trkpt><trkpt lat="43.09516506108821" lon="-1.2984975673433368"><ele>328.0</ele><time>2026-04-29T14:14:03.001Z</time></trkpt><trkpt lat="43.095091798199846" lon="-1.2985381244896173"><ele>328.0</ele><time>2026-04-29T14:14:04.001Z</time></trkpt><trkpt lat="43.09501659647907" lon="-1.2985729930235093"><ele>328.0</ele><time>2026-04-29T14:14:05.001Z</time></trkpt><trkpt lat="43.094938396926246" lon="-1.2985945560024335"><ele>328.0</ele><time>2026-04-29T14:14:06.001Z</time></trkpt><trkpt lat="43.09486237925632" lon="-1.2986240756718013"><ele>328.0</ele><time>2026-04-29T14:14:07.001Z</time></trkpt><trkpt lat="43.094792673350454" lon="-1.2986679244404935"><ele>328.0</ele><time>2026-04-29T14:14:08.001Z</time></trkpt><trkpt lat="43.094721685655315" lon="-1.2987065565965101"><ele>326.16666666666663</ele><time>2026-04-29T14:14:09.001Z</time></trkpt><trkpt lat="43.09464916634732" lon="-1.2987394594889101"><ele>324.3333333333333</ele><time>2026-04-29T14:14:10.001Z</time></trkpt><trkpt lat="43.09457859041406" lon="-1.2987813366866512"><ele>322.5</ele><time>2026-04-29T14:14:11.001Z</time></trkpt><trkpt lat="43.094506634095936" lon="-1.2988247057119535"><ele>320.6666666666667</ele><time>2026-04-29T14:14:12.001Z</time></trkpt><trkpt lat="43.09443920864654" lon="-1.298877332270419"><ele>318.83333333333337</ele><time>2026-04-29T14:14:13.001Z</time></trkpt><trkpt lat="43.094363177132514" lon="-1.2989107274689333"><ele>317.0</ele><time>2026-04-29T14:14:14.001Z</time></trkpt><trkpt lat="43.09429073072838" lon="-1.2989565381102013"><ele>317.83333333333337</ele><time>2026-04-29T14:14:15.001Z</time></trkpt><trkpt lat="43.09422563648449" lon="-1.2990171865550344"><ele>318.6666666666667</ele><time>2026-04-29T14:14:16.001Z</time></trkpt><trkpt lat="43.09415518379505" lon="-1.2990649066752948"><ele>319.5</ele><time>2026-04-29T14:14:17.001Z</time></trkpt><trkpt lat="43.09409021611733" lon="-1.2991247369971515"><ele>320.3333333333333</ele><time>2026-04-29T14:14:18.001Z</time></trkpt><trkpt lat="43.09402743183148" lon="-1.2991906218047737"><ele>321.16666666666663</ele><time>2026-04-29T14:14:19.001Z</time></trkpt><trkpt lat="43.09396343684026" lon="-1.2992522863251181"><ele>322.0</ele><time>2026-04-29T14:14:20.001Z</time></trkpt><trkpt lat="43.0939053551032" lon="-1.299325535017623"><ele>322.0</ele><time>2026-04-29T14:14:21.001Z</time></trkpt><trkpt lat="43.09385403129015" lon="-1.2994036493351397"><ele>322.0</ele><time>2026-04-29T14:14:22.001Z</time></trkpt><trkpt lat="43.09381265261413" lon="-1.299495989802638"><ele>322.0</ele><time>2026-04-29T14:14:23.001Z</time></trkpt><trkpt lat="43.09377610659342" lon="-1.2995911604388988"><ele>322.0</ele><time>2026-04-29T14:14:24.001Z</time></trkpt><trkpt lat="43.09374690990372" lon="-1.2996928612515868"><ele>322.0</ele><time>2026-04-29T14:14:25.001Z</time></trkpt><trkpt lat="43.09372002274249" lon="-1.2997949279513439"><ele>322.0</ele><time>2026-04-29T14:14:26.001Z</time></trkpt><trkpt lat="43.09369294851942" lon="-1.2998967158141395"><ele>325.16666666666663</ele><time>2026-04-29T14:14:27.001Z</time></trkpt><trkpt lat="43.09366745727217" lon="-1.3000007299544751"><ele>328.3333333333333</ele><time>2026-04-29T14:14:28.001Z</time></trkpt><trkpt lat="43.09363358975849" lon="-1.3000958076108862"><ele>331.5</ele><time>2026-04-29T14:14:29.001Z</time></trkpt><trkpt lat="43.093595979518675" lon="-1.3001863802410276"><ele>334.6666666666667</ele><time>2026-04-29T14:14:30.001Z</time></trkpt><trkpt lat="43.093556285104754" lon="-1.300277995641986"><ele>337.83333333333337</ele><time>2026-04-29T14:14:31.001Z</time></trkpt><trkpt lat="43.09351891435941" lon="-1.3003680981738022"><ele>341.0</ele><time>2026-04-29T14:14:32.001Z</time></trkpt><trkpt lat="43.09348197579769" lon="-1.300457046462537"><ele>341.0</ele><time>2026-04-29T14:14:33.001Z</time></trkpt><trkpt lat="43.09344766029576" lon="-1.3005487192746363"><ele>341.0</ele><time>2026-04-29T14:14:34.001Z</time></trkpt><trkpt lat="43.09341828264063" lon="-1.3006403931071453"><ele>341.0</ele><time>2026-04-29T14:14:35.001Z</time></trkpt><trkpt lat="43.09338926762283" lon="-1.300730466207777"><ele>341.0</ele><time>2026-04-29T14:14:36.001Z</time></trkpt><trkpt lat="43.09336328618191" lon="-1.3008193400599979"><ele>341.0</ele><time>2026-04-29T14:14:37.001Z</time></trkpt><trkpt lat="43.093334988310644" lon="-1.3009067360165294"><ele>341.0</ele><time>2026-04-29T14:14:38.001Z</time></trkpt><trkpt lat="43.0933024419083" lon="-1.300990702697729"><ele>341.0</ele><time>2026-04-29T14:14:39.001Z</time></trkpt><trkpt lat="43.09327284753682" lon="-1.3010778264773921"><ele>340.57142857142856</ele><time>2026-04-29T14:14:40.001Z</time></trkpt><trkpt lat="43.093243335894655" lon="-1.3011642427033074"><ele>340.14285714285717</ele><time>2026-04-29T14:14:41.001Z</time></trkpt><trkpt lat="43.09321997018869" lon="-1.3012536811291566"><ele>339.7142857142857</ele><time>2026-04-29T14:14:42.001Z</time></trkpt><trkpt lat="43.093186519037594" lon="-1.3013380368999947"><ele>339.2857142857143</ele><time>2026-04-29T14:14:43.001Z</time></trkpt><trkpt lat="43.09314636815404" lon="-1.3014171928326994"><ele>338.85714285714283</ele><time>2026-04-29T14:14:44.001Z</time></trkpt><trkpt lat="43.09311101249811" lon="-1.3015017803909164"><ele>338.42857142857144</ele><time>2026-04-29T14:14:45.001Z</time></trkpt><trkpt lat="43.09307640263916" lon="-1.30158738785705"><ele>338.0</ele><time>2026-04-29T14:14:46.001Z</time></trkpt><trkpt lat="43.093035529893385" lon="-1.3016688388295916"><ele>341.1666666666667</ele><time>2026-04-29T14:14:47.001Z</time></trkpt><trkpt lat="43.092989229583445" lon="-1.301742676461991"><ele>344.33333333333337</ele><time>2026-04-29T14:14:48.001Z</time></trkpt><trkpt lat="43.09294472670442" lon="-1.3018174547727999"><ele>347.5</ele><time>2026-04-29T14:14:49.001Z</time></trkpt><trkpt lat="43.092891612522216" lon="-1.3018867281987758"><ele>350.6666666666667</ele><time>2026-04-29T14:14:50.001Z</time></trkpt><trkpt lat="43.0928348120918" lon="-1.3019522590652544"><ele>353.8333333333333</ele><time>2026-04-29T14:14:51.001Z</time></trkpt><trkpt lat="43.09276956183767" lon="-1.3020295287647239"><ele>357.0</ele><time>2026-04-29T14:14:52.001Z</time></trkpt><trkpt lat="43.09269907444464" lon="-1.3021270731087293"><ele>357.0</ele><time>2026-04-29T14:14:53.001Z</time></trkpt><trkpt lat="43.09256326513947" lon="-1.3022011473433257"><ele>357.0</ele><time>2026-04-29T14:14:55.001Z</time></trkpt><trkpt lat="43.09249278208239" lon="-1.3022622830881496"><ele>357.0</ele><time>2026-04-29T14:14:56.001Z</time></trkpt><trkpt lat="43.09241687235239" lon="-1.3023111522588728"><ele>357.0</ele><time>2026-04-29T14:14:57.001Z</time></trkpt><trkpt lat="43.09234510765857" lon="-1.3023667705110578"><ele>357.0</ele><time>2026-04-29T14:14:58.001Z</time></trkpt><trkpt lat="43.092273411995066" lon="-1.3024250373574495"><ele>358.3333333333333</ele><time>2026-04-29T14:14:59.002Z</time></trkpt><trkpt lat="43.092207353109224" lon="-1.3024755783724695"><ele>359.6666666666667</ele><time>2026-04-29T14:15:00Z</time></trkpt><trkpt lat="43.092131760665914" lon="-1.3025247909649826"><ele>361.0</ele><time>2026-04-29T14:15:01Z</time></trkpt><trkpt lat="43.09205517901947" lon="-1.3025718031829197"><ele>362.33333333333337</ele><time>2026-04-29T14:15:02Z</time></trkpt><trkpt lat="43.09198740613536" lon="-1.302616702124485"><ele>363.6666666666667</ele><time>2026-04-29T14:15:03Z</time></trkpt><trkpt lat="43.09191797465747" lon="-1.302653858217098"><ele>365.0</ele><time>2026-04-29T14:15:04Z</time></trkpt><trkpt lat="43.09185010365683" lon="-1.302687124724414"><ele>365.00000000000006</ele><time>2026-04-29T14:15:05Z</time></trkpt><trkpt lat="43.09178293317207" lon="-1.3027321886000685"><ele>365.0</ele><time>2026-04-29T14:15:06Z</time></trkpt><trkpt lat="43.091714743253156" lon="-1.3027713858719456"><ele>365.0</ele><time>2026-04-29T14:15:07Z</time></trkpt><trkpt lat="43.09164947668158" lon="-1.3028170930774206"><ele>365.0</ele><time>2026-04-29T14:15:08Z</time></trkpt><trkpt lat="43.09159484102596" lon="-1.3028752642846044"><ele>365.0</ele><time>2026-04-29T14:15:09Z</time></trkpt><trkpt lat="43.0915558611021" lon="-1.3029662028068794"><ele>365.00000000000006</ele><time>2026-04-29T14:15:10Z</time></trkpt><trkpt lat="43.091533224585945" lon="-1.3030715363999987"><ele>365.0</ele><time>2026-04-29T14:15:11Z</time></trkpt><trkpt lat="43.091516086124386" lon="-1.3031791516282323"><ele>366.83333333333337</ele><time>2026-04-29T14:15:12Z</time></trkpt><trkpt lat="43.091486344855305" lon="-1.3032832769725156"><ele>368.6666666666667</ele><time>2026-04-29T14:15:13Z</time></trkpt><trkpt lat="43.09144463220308" lon="-1.3033771277509403"><ele>370.5</ele><time>2026-04-29T14:15:14Z</time></trkpt><trkpt lat="43.091398566213066" lon="-1.3034706539190712"><ele>372.3333333333333</ele><time>2026-04-29T14:15:15Z</time></trkpt><trkpt lat="43.091335336084015" lon="-1.3035407956141616"><ele>374.16666666666663</ele><time>2026-04-29T14:15:16Z</time></trkpt><trkpt lat="43.09126485936248" lon="-1.3035846764966912"><ele>376.0</ele><time>2026-04-29T14:15:17Z</time></trkpt><trkpt lat="43.091190028975944" lon="-1.3035832162769816"><ele>376.0</ele><time>2026-04-29T14:15:18Z</time></trkpt><trkpt lat="43.091118533078614" lon="-1.303540613824489"><ele>376.0</ele><time>2026-04-29T14:15:19Z</time></trkpt><trkpt lat="43.091059050175325" lon="-1.3034612642572652"><ele>376.0</ele><time>2026-04-29T14:15:20Z</time></trkpt><trkpt lat="43.09101765357498" lon="-1.3033672523736461"><ele>376.0</ele><time>2026-04-29T14:15:21Z</time></trkpt><trkpt lat="43.090971564387004" lon="-1.3032833494333855"><ele>376.0</ele><time>2026-04-29T14:15:22Z</time></trkpt><trkpt lat="43.09091390025819" lon="-1.303210564820725"><ele>376.0</ele><time>2026-04-29T14:15:23Z</time></trkpt><trkpt lat="43.09084117144023" lon="-1.3031583583092365"><ele>376.0</ele><time>2026-04-29T14:15:24Z</time></trkpt><trkpt lat="43.090770302370935" lon="-1.303106534362324"><ele>376.0</ele><time>2026-04-29T14:15:25Z</time></trkpt><trkpt lat="43.09069980432399" lon="-1.303051944270482"><ele>376.0</ele><time>2026-04-29T14:15:26Z</time></trkpt><trkpt lat="43.09063115014714" lon="-1.3029965386582718"><ele>376.0</ele><time>2026-04-29T14:15:27Z</time></trkpt><trkpt lat="43.09055768118343" lon="-1.302941382877291"><ele>376.0</ele><time>2026-04-29T14:15:28Z</time></trkpt><trkpt lat="43.09050029316995" lon="-1.302873432826348"><ele>376.0</ele><time>2026-04-29T14:15:29Z</time></trkpt><trkpt lat="43.090434997173965" lon="-1.3028085633751132"><ele>374.8333333333333</ele><time>2026-04-29T14:15:30Z</time></trkpt><trkpt lat="43.090355709177196" lon="-1.3027801988020735"><ele>373.66666666666663</ele><time>2026-04-29T14:15:31Z</time></trkpt><trkpt lat="43.09027669074524" lon="-1.3027676202284335"><ele>372.5</ele><time>2026-04-29T14:15:32Z</time></trkpt><trkpt lat="43.09019521375564" lon="-1.3027940097913375"><ele>371.3333333333333</ele><time>2026-04-29T14:15:33Z</time></trkpt><trkpt lat="43.090120053550486" lon="-1.3028386232905311"><ele>370.1666666666667</ele><time>2026-04-29T14:15:34Z</time></trkpt><trkpt lat="43.09005889018926" lon="-1.3029132999002635"><ele>369.0</ele><time>2026-04-29T14:15:35Z</time></trkpt><trkpt lat="43.089993473856374" lon="-1.3029707166567162"><ele>368.6666666666667</ele><time>2026-04-29T14:15:36Z</time></trkpt><trkpt lat="43.0899184059161" lon="-1.3030087893491418"><ele>368.3333333333333</ele><time>2026-04-29T14:15:37Z</time></trkpt><trkpt lat="43.08983735790132" lon="-1.3030033793147793"><ele>368.0</ele><time>2026-04-29T14:15:38Z</time></trkpt><trkpt lat="43.08975324891053" lon="-1.3029697683197736"><ele>367.66666666666663</ele><time>2026-04-29T14:15:39Z</time></trkpt><trkpt lat="43.089679837702384" lon="-1.3029197751386052"><ele>367.3333333333333</ele><time>2026-04-29T14:15:40Z</time></trkpt><trkpt lat="43.08961464504943" lon="-1.3028554789224123"><ele>367.0</ele><time>2026-04-29T14:15:41Z</time></trkpt><trkpt lat="43.08953765399372" lon="-1.3028006715744027"><ele>367.0</ele><time>2026-04-29T14:15:42Z</time></trkpt><trkpt lat="43.08945706905287" lon="-1.3027674812971013"><ele>367.0</ele><time>2026-04-29T14:15:43Z</time></trkpt><trkpt lat="43.08937202188235" lon="-1.3027870732591513"><ele>367.0</ele><time>2026-04-29T14:15:44Z</time></trkpt><trkpt lat="43.08928150380067" lon="-1.3028007704182185"><ele>367.0</ele><time>2026-04-29T14:15:45Z</time></trkpt><trkpt lat="43.08920019595348" lon="-1.3028434432137217"><ele>367.0</ele><time>2026-04-29T14:15:46Z</time></trkpt><trkpt lat="43.089129034608504" lon="-1.3029117116258124"><ele>367.0</ele><time>2026-04-29T14:15:47.001Z</time></trkpt><trkpt lat="43.089072435092774" lon="-1.3030162978647655"><ele>371.16666666666663</ele><time>2026-04-29T14:15:48.001Z</time></trkpt><trkpt lat="43.08902627820643" lon="-1.3031215484356302"><ele>375.3333333333333</ele><time>2026-04-29T14:15:49.001Z</time></trkpt><trkpt lat="43.08897132993776" lon="-1.3032134038491063"><ele>379.5</ele><time>2026-04-29T14:15:50.001Z</time></trkpt><trkpt lat="43.08889945825643" lon="-1.3032784073720878"><ele>383.66666666666663</ele><time>2026-04-29T14:15:51.001Z</time></trkpt><trkpt lat="43.08881622272963" lon="-1.303305644778227"><ele>387.8333333333333</ele><time>2026-04-29T14:15:52.001Z</time></trkpt><trkpt lat="43.08872701538123" lon="-1.3032937300380887"><ele>392.0</ele><time>2026-04-29T14:15:53.001Z</time></trkpt><trkpt lat="43.088643939402864" lon="-1.3032669226141573"><ele>391.99999999999994</ele><time>2026-04-29T14:15:54.001Z</time></trkpt><trkpt lat="43.088566780423434" lon="-1.3032243148017926"><ele>392.0</ele><time>2026-04-29T14:15:55.001Z</time></trkpt><trkpt lat="43.088483736185275" lon="-1.3032212334797533"><ele>392.0</ele><time>2026-04-29T14:15:56.001Z</time></trkpt><trkpt lat="43.08839811377011" lon="-1.3032405272760288"><ele>392.0</ele><time>2026-04-29T14:15:57.001Z</time></trkpt><trkpt lat="43.08831862570972" lon="-1.303283104293648"><ele>391.99999999999994</ele><time>2026-04-29T14:15:58.001Z</time></trkpt><trkpt lat="43.08824522225604" lon="-1.303328351808854"><ele>392.0</ele><time>2026-04-29T14:15:59.001Z</time></trkpt><trkpt lat="43.08817365332645" lon="-1.3033865298300762"><ele>388.49999999999994</ele><time>2026-04-29T14:16:00.001Z</time></trkpt><trkpt lat="43.088110180620696" lon="-1.3034624166410698"><ele>385.0</ele><time>2026-04-29T14:16:01.001Z</time></trkpt><trkpt lat="43.088051960040346" lon="-1.3035364284832958"><ele>381.5</ele><time>2026-04-29T14:16:02.001Z</time></trkpt><trkpt lat="43.08799102040962" lon="-1.3036094543122418"><ele>378.0</ele><time>2026-04-29T14:16:03.001Z</time></trkpt><trkpt lat="43.08792914517116" lon="-1.3036685702551625"><ele>374.5</ele><time>2026-04-29T14:16:04.001Z</time></trkpt><trkpt lat="43.08786834710032" lon="-1.303744961191273"><ele>371.0</ele><time>2026-04-29T14:16:05.001Z</time></trkpt><trkpt lat="43.08780921782751" lon="-1.3038168759609008"><ele>371.0</ele><time>2026-04-29T14:16:06.001Z</time></trkpt><trkpt lat="43.087744934049844" lon="-1.3038741968441325"><ele>371.0</ele><time>2026-04-29T14:16:07.001Z</time></trkpt><trkpt lat="43.087674727865306" lon="-1.3039244713023714"><ele>371.0</ele><time>2026-04-29T14:16:08.001Z</time></trkpt><trkpt lat="43.08759952158817" lon="-1.3039622577456311"><ele>371.0</ele><time>2026-04-29T14:16:09.001Z</time></trkpt><trkpt lat="43.08752098170427" lon="-1.3039909522511044"><ele>371.0</ele><time>2026-04-29T14:16:10.001Z</time></trkpt><trkpt lat="43.087439846586" lon="-1.3040237869876834"><ele>371.0</ele><time>2026-04-29T14:16:11.001Z</time></trkpt><trkpt lat="43.087359563248626" lon="-1.3040510533845746"><ele>374.5</ele><time>2026-04-29T14:16:12.001Z</time></trkpt><trkpt lat="43.087278666114344" lon="-1.3040815802099375"><ele>378.0</ele><time>2026-04-29T14:16:13.001Z</time></trkpt><trkpt lat="43.08719647628666" lon="-1.3041156169050252"><ele>381.5</ele><time>2026-04-29T14:16:14.001Z</time></trkpt><trkpt lat="43.087115880156695" lon="-1.3041540962329747"><ele>385.0</ele><time>2026-04-29T14:16:15.001Z</time></trkpt><trkpt lat="43.08703517434328" lon="-1.3041832655662797"><ele>388.49999999999994</ele><time>2026-04-29T14:16:16.001Z</time></trkpt><trkpt lat="43.08695361484585" lon="-1.3042116852086205"><ele>392.0</ele><time>2026-04-29T14:16:17.001Z</time></trkpt><trkpt lat="43.08687000025455" lon="-1.304245335362206"><ele>391.99999999999994</ele><time>2026-04-29T14:16:18.001Z</time></trkpt><trkpt lat="43.08678859306437" lon="-1.3042760774350048"><ele>392.0</ele><time>2026-04-29T14:16:19.001Z</time></trkpt><trkpt lat="43.08670789017126" lon="-1.304316439354808"><ele>392.0</ele><time>2026-04-29T14:16:20.001Z</time></trkpt><trkpt lat="43.086629001407445" lon="-1.304365335013246"><ele>392.0</ele><time>2026-04-29T14:16:21.001Z</time></trkpt><trkpt lat="43.08655355345299" lon="-1.3044156522595176"><ele>391.99999999999994</ele><time>2026-04-29T14:16:22.001Z</time></trkpt><trkpt lat="43.08647979455931" lon="-1.3044709792598792"><ele>392.0</ele><time>2026-04-29T14:16:23.001Z</time></trkpt><trkpt lat="43.08640323380194" lon="-1.3045115125186866"><ele>392.49999999999994</ele><time>2026-04-29T14:16:24.001Z</time></trkpt><trkpt lat="43.086322809676204" lon="-1.3045403925082204"><ele>393.0</ele><time>2026-04-29T14:16:25.001Z</time></trkpt><trkpt lat="43.08624015791125" lon="-1.3045543790497565"><ele>393.5</ele><time>2026-04-29T14:16:26.001Z</time></trkpt><trkpt lat="43.08615506665181" lon="-1.3045474292916521"><ele>394.0</ele><time>2026-04-29T14:16:27.001Z</time></trkpt><trkpt lat="43.08607100931696" lon="-1.3045289459158327"><ele>394.49999999999994</ele><time>2026-04-29T14:16:28.001Z</time></trkpt><trkpt lat="43.08598182774409" lon="-1.3044891848358087"><ele>395.0</ele><time>2026-04-29T14:16:29.001Z</time></trkpt><trkpt lat="43.085913871606046" lon="-1.3044274161363263"><ele>395.0</ele><time>2026-04-29T14:16:30.001Z</time></trkpt><trkpt lat="43.08582684913647" lon="-1.3043486553402988"><ele>395.0</ele><time>2026-04-29T14:16:31.001Z</time></trkpt><trkpt lat="43.085751995665525" lon="-1.3042878098820552"><ele>395.0</ele><time>2026-04-29T14:16:32.001Z</time></trkpt><trkpt lat="43.08566284102351" lon="-1.3042707883861493"><ele>395.0</ele><time>2026-04-29T14:16:33.001Z</time></trkpt><trkpt lat="43.085566684634436" lon="-1.3042894544649435"><ele>395.0</ele><time>2026-04-29T14:16:34.001Z</time></trkpt><trkpt lat="43.08547583007761" lon="-1.304333240919752"><ele>397.4</ele><time>2026-04-29T14:16:35.001Z</time></trkpt><trkpt lat="43.08538837852172" lon="-1.304403955088044"><ele>399.8</ele><time>2026-04-29T14:16:36.001Z</time></trkpt><trkpt lat="43.08531666204859" lon="-1.3045036965293246"><ele>402.20000000000005</ele><time>2026-04-29T14:16:37.001Z</time></trkpt><trkpt lat="43.08526369607908" lon="-1.3045910668531024"><ele>404.6</ele><time>2026-04-29T14:16:38.001Z</time></trkpt><trkpt lat="43.085184944086734" lon="-1.3046755980602103"><ele>407.0</ele><time>2026-04-29T14:16:39.001Z</time></trkpt><trkpt lat="43.08510390659174" lon="-1.3047608833390048"><ele>407.0</ele><time>2026-04-29T14:16:40.001Z</time></trkpt><trkpt lat="43.08502196167699" lon="-1.304826888624347"><ele>407.0</ele><time>2026-04-29T14:16:41.001Z</time></trkpt><trkpt lat="43.08492805035311" lon="-1.3048676414231193"><ele>407.0</ele><time>2026-04-29T14:16:42.001Z</time></trkpt><trkpt lat="43.084835825186886" lon="-1.3049216977153801"><ele>407.0</ele><time>2026-04-29T14:16:43.001Z</time></trkpt><trkpt lat="43.08474635168023" lon="-1.304983515599282"><ele>407.0</ele><time>2026-04-29T14:16:44.001Z</time></trkpt><trkpt lat="43.084654656198246" lon="-1.3050451323557073"><ele>403.8</ele><time>2026-04-29T14:16:45.001Z</time></trkpt><trkpt lat="43.08457166936168" lon="-1.3051181352406553"><ele>400.6</ele><time>2026-04-29T14:16:46.001Z</time></trkpt><trkpt lat="43.08449014844512" lon="-1.3052006683360409"><ele>397.40000000000003</ele><time>2026-04-29T14:16:47.001Z</time></trkpt><trkpt lat="43.08440532195736" lon="-1.305270522301691"><ele>394.20000000000005</ele><time>2026-04-29T14:16:48.001Z</time></trkpt><trkpt lat="43.084328732477374" lon="-1.3053504870887955"><ele>391.0</ele><time>2026-04-29T14:16:49.001Z</time></trkpt><trkpt lat="43.08423290913743" lon="-1.3054084585232821"><ele>391.0</ele><time>2026-04-29T14:16:50.001Z</time></trkpt><trkpt lat="43.08415097141875" lon="-1.3054837382296478"><ele>391.0</ele><time>2026-04-29T14:16:51.001Z</time></trkpt><trkpt lat="43.084066472040135" lon="-1.3055559501265683"><ele>391.0</ele><time>2026-04-29T14:16:52.001Z</time></trkpt><trkpt lat="43.08397939319944" lon="-1.3056230620943132"><ele>391.0</ele><time>2026-04-29T14:16:53.001Z</time></trkpt><trkpt lat="43.08388535292583" lon="-1.3056649082407523"><ele>391.0</ele><time>2026-04-29T14:16:54.001Z</time></trkpt><trkpt lat="43.083787134583496" lon="-1.3056804976184144"><ele>395.4</ele><time>2026-04-29T14:16:55.001Z</time></trkpt><trkpt lat="43.08368418571973" lon="-1.3056794505769924"><ele>399.8</ele><time>2026-04-29T14:16:56.001Z</time></trkpt><trkpt lat="43.083581371625776" lon="-1.305673456968665"><ele>404.2</ele><time>2026-04-29T14:16:57.001Z</time></trkpt><trkpt lat="43.08348180725611" lon="-1.3056726201003637"><ele>408.59999999999997</ele><time>2026-04-29T14:16:58.001Z</time></trkpt><trkpt lat="43.083385750768" lon="-1.3056793625170577"><ele>413.0</ele><time>2026-04-29T14:16:59.001Z</time></trkpt><trkpt lat="43.08328660809639" lon="-1.3056945476860586"><ele>410.79999999999995</ele><time>2026-04-29T14:17:00.001Z</time></trkpt><trkpt lat="43.083197736244024" lon="-1.3056892750480111"><ele>408.6</ele><time>2026-04-29T14:17:01.002Z</time></trkpt><trkpt lat="43.08309242896426" lon="-1.30569436346829"><ele>406.4</ele><time>2026-04-29T14:17:02.002Z</time></trkpt><trkpt lat="43.082992493038695" lon="-1.305711661168207"><ele>404.20000000000005</ele><time>2026-04-29T14:17:03.002Z</time></trkpt><trkpt lat="43.08289772468156" lon="-1.3057076442409274"><ele>402.0</ele><time>2026-04-29T14:17:04.002Z</time></trkpt><trkpt lat="43.08280149411028" lon="-1.3057065038272837"><ele>402.0</ele><time>2026-04-29T14:17:05.002Z</time></trkpt><trkpt lat="43.08270143624101" lon="-1.3056997809830384"><ele>402.0</ele><time>2026-04-29T14:17:06Z</time></trkpt><trkpt lat="43.082603918271246" lon="-1.3057150946028848"><ele>402.0</ele><time>2026-04-29T14:17:07Z</time></trkpt><trkpt lat="43.08251048642955" lon="-1.3057641779869784"><ele>402.0</ele><time>2026-04-29T14:17:08Z</time></trkpt><trkpt lat="43.08242889229772" lon="-1.3058398134006635"><ele>402.0</ele><time>2026-04-29T14:17:09Z</time></trkpt><trkpt lat="43.08235975948898" lon="-1.3059459011703407"><ele>405.20000000000005</ele><time>2026-04-29T14:17:10Z</time></trkpt><trkpt lat="43.0823137207236" lon="-1.3060834116382478"><ele>408.4</ele><time>2026-04-29T14:17:11Z</time></trkpt><trkpt lat="43.082288779387696" lon="-1.3062191123314306"><ele>411.6</ele><time>2026-04-29T14:17:12Z</time></trkpt><trkpt lat="43.08227770398392" lon="-1.3063578929771946"><ele>414.79999999999995</ele><time>2026-04-29T14:17:13Z</time></trkpt><trkpt lat="43.08224399244029" lon="-1.306488359509667"><ele>418.0</ele><time>2026-04-29T14:17:14Z</time></trkpt><trkpt lat="43.08218249667439" lon="-1.3065989620424323"><ele>418.0</ele><time>2026-04-29T14:17:15Z</time></trkpt><trkpt lat="43.082104453008384" lon="-1.3066913903672692"><ele>418.0</ele><time>2026-04-29T14:17:16Z</time></trkpt><trkpt lat="43.082009584646464" lon="-1.3067491705421166"><ele>418.0</ele><time>2026-04-29T14:17:17Z</time></trkpt><trkpt lat="43.081903394998136" lon="-1.3067701583989018"><ele>418.0</ele><time>2026-04-29T14:17:18Z</time></trkpt><trkpt lat="43.081784599522926" lon="-1.3067877037573192"><ele>418.0</ele><time>2026-04-29T14:17:19Z</time></trkpt><trkpt lat="43.08168837223616" lon="-1.306734314206967"><ele>417.4</ele><time>2026-04-29T14:17:20Z</time></trkpt><trkpt lat="43.08158828389723" lon="-1.3066780942320384"><ele>416.79999999999995</ele><time>2026-04-29T14:17:21Z</time></trkpt><trkpt lat="43.08149875137403" lon="-1.3065999752837574"><ele>416.2</ele><time>2026-04-29T14:17:22Z</time></trkpt><trkpt lat="43.08142533307292" lon="-1.3065089025954362"><ele>415.6</ele><time>2026-04-29T14:17:23Z</time></trkpt><trkpt lat="43.08133774622233" lon="-1.3064409435745818"><ele>415.0</ele><time>2026-04-29T14:17:24Z</time></trkpt><trkpt lat="43.081238085602685" lon="-1.306391657660201"><ele>415.0</ele><time>2026-04-29T14:17:25Z</time></trkpt><trkpt lat="43.08113762652175" lon="-1.306356971338534"><ele>415.0</ele><time>2026-04-29T14:17:26Z</time></trkpt><trkpt lat="43.0810286774058" lon="-1.3063478667430883"><ele>415.0</ele><time>2026-04-29T14:17:27Z</time></trkpt><trkpt lat="43.080923316213834" lon="-1.30638690562583"><ele>415.0</ele><time>2026-04-29T14:17:28Z</time></trkpt><trkpt lat="43.080818775747964" lon="-1.3064270746493494"><ele>415.0</ele><time>2026-04-29T14:17:29Z</time></trkpt><trkpt lat="43.080717148102636" lon="-1.3064912551861787"><ele>414.6</ele><time>2026-04-29T14:17:30Z</time></trkpt><trkpt lat="43.08061943953421" lon="-1.306547409006822"><ele>414.2</ele><time>2026-04-29T14:17:31Z</time></trkpt><trkpt lat="43.080528940111506" lon="-1.3066140990464405"><ele>413.79999999999995</ele><time>2026-04-29T14:17:32Z</time></trkpt><trkpt lat="43.080425752289244" lon="-1.3066598751181147"><ele>413.4</ele><time>2026-04-29T14:17:33Z</time></trkpt><trkpt lat="43.08032273091571" lon="-1.3066928091258452"><ele>413.0</ele><time>2026-04-29T14:17:34Z</time></trkpt><trkpt lat="43.080217481358716" lon="-1.306715891213516"><ele>413.0</ele><time>2026-04-29T14:17:35Z</time></trkpt><trkpt lat="43.0801169415284" lon="-1.3067335344698152"><ele>413.0</ele><time>2026-04-29T14:17:36Z</time></trkpt><trkpt lat="43.08001009987785" lon="-1.3067505007192324"><ele>413.0</ele><time>2026-04-29T14:17:37Z</time></trkpt><trkpt lat="43.07990723547694" lon="-1.3067434328524627"><ele>413.0</ele><time>2026-04-29T14:17:38Z</time></trkpt><trkpt lat="43.07980688941868" lon="-1.3067211032940393"><ele>413.0</ele><time>2026-04-29T14:17:39Z</time></trkpt><trkpt lat="43.07970952643188" lon="-1.3066685330926475"><ele>413.2</ele><time>2026-04-29T14:17:40Z</time></trkpt><trkpt lat="43.07960803126799" lon="-1.3066066703852568"><ele>413.4</ele><time>2026-04-29T14:17:41Z</time></trkpt><trkpt lat="43.07950964227946" lon="-1.3065631203885604"><ele>413.59999999999997</ele><time>2026-04-29T14:17:42Z</time></trkpt><trkpt lat="43.07941014575475" lon="-1.306527726163181"><ele>413.79999999999995</ele><time>2026-04-29T14:17:43Z</time></trkpt><trkpt lat="43.07931162535603" lon="-1.306483586673808"><ele>414.0</ele><time>2026-04-29T14:17:44Z</time></trkpt><trkpt lat="43.07921524711934" lon="-1.3064348185026862"><ele>406.6</ele><time>2026-04-29T14:17:45Z</time></trkpt><trkpt lat="43.07912689654735" lon="-1.3063778138941642"><ele>399.2</ele><time>2026-04-29T14:17:46Z</time></trkpt><trkpt lat="43.07904489953369" lon="-1.3063004669643026"><ele>391.8</ele><time>2026-04-29T14:17:47Z</time></trkpt><trkpt lat="43.0789682418508" lon="-1.3062226713254355"><ele>384.40000000000003</ele><time>2026-04-29T14:17:48Z</time></trkpt><trkpt lat="43.07888792286054" lon="-1.3061497519935203"><ele>377.0</ele><time>2026-04-29T14:17:49Z</time></trkpt><trkpt lat="43.07880233730709" lon="-1.3060887068446667"><ele>377.0</ele><time>2026-04-29T14:17:50Z</time></trkpt><trkpt lat="43.078711465882115" lon="-1.3060245337740926"><ele>377.0</ele><time>2026-04-29T14:17:51Z</time></trkpt><trkpt lat="43.07861115750137" lon="-1.3059942831028528"><ele>377.0</ele><time>2026-04-29T14:17:52Z</time></trkpt><trkpt lat="43.07851040279685" lon="-1.3059699426063702"><ele>377.0</ele><time>2026-04-29T14:17:53Z</time></trkpt><trkpt lat="43.07840833715011" lon="-1.3059674413177706"><ele>377.0</ele><time>2026-04-29T14:17:54Z</time></trkpt><trkpt lat="43.07830755076973" lon="-1.3059895144580365"><ele>376.0</ele><time>2026-04-29T14:17:55.001Z</time></trkpt><trkpt lat="43.07821048365991" lon="-1.3060087051256886"><ele>375.0</ele><time>2026-04-29T14:17:56.001Z</time></trkpt><trkpt lat="43.07811457418882" lon="-1.3060242086033031"><ele>374.0</ele><time>2026-04-29T14:17:57.001Z</time></trkpt><trkpt lat="43.078020604784136" lon="-1.30603859259664"><ele>373.0</ele><time>2026-04-29T14:17:58.001Z</time></trkpt><trkpt lat="43.077927792624195" lon="-1.306050230509268"><ele>372.0</ele><time>2026-04-29T14:17:59.001Z</time></trkpt><trkpt lat="43.077836539994145" lon="-1.3060616872054773"><ele>372.0</ele><time>2026-04-29T14:18:00.001Z</time></trkpt><trkpt lat="43.077741809309394" lon="-1.3060747608926702"><ele>372.0</ele><time>2026-04-29T14:18:01.001Z</time></trkpt><trkpt lat="43.0776500771843" lon="-1.3060884151909753"><ele>372.0</ele><time>2026-04-29T14:18:02.001Z</time></trkpt><trkpt lat="43.07756029271662" lon="-1.3061068857021196"><ele>372.0</ele><time>2026-04-29T14:18:03.001Z</time></trkpt><trkpt lat="43.07747385077438" lon="-1.306119563826244"><ele>372.0</ele><time>2026-04-29T14:18:04.001Z</time></trkpt><trkpt lat="43.07738478092255" lon="-1.3061338167318222"><ele>372.5</ele><time>2026-04-29T14:18:05.001Z</time></trkpt><trkpt lat="43.07729815349071" lon="-1.3061496384491598"><ele>373.0</ele><time>2026-04-29T14:18:06.001Z</time></trkpt><trkpt lat="43.0772148616443" lon="-1.3061675470088006"><ele>373.5</ele><time>2026-04-29T14:18:07.001Z</time></trkpt><trkpt lat="43.07713124304354" lon="-1.3062012665883644"><ele>374.0</ele><time>2026-04-29T14:18:08.001Z</time></trkpt><trkpt lat="43.07705334772231" lon="-1.3062456393196462"><ele>374.5</ele><time>2026-04-29T14:18:09.001Z</time></trkpt><trkpt lat="43.076974068189074" lon="-1.306290621260327"><ele>375.0</ele><time>2026-04-29T14:18:10.001Z</time></trkpt><trkpt lat="43.07689734934081" lon="-1.306346800986855"><ele>375.0</ele><time>2026-04-29T14:18:11.001Z</time></trkpt><trkpt lat="43.07682686194373" lon="-1.306407429021402"><ele>375.0</ele><time>2026-04-29T14:18:12.001Z</time></trkpt><trkpt lat="43.0767583818025" lon="-1.3064710285733419"><ele>375.0</ele><time>2026-04-29T14:18:13.001Z</time></trkpt><trkpt lat="43.07669321159135" lon="-1.306540439810754"><ele>375.0</ele><time>2026-04-29T14:18:14.001Z</time></trkpt><trkpt lat="43.076630258118996" lon="-1.3066178093413003"><ele>375.0</ele><time>2026-04-29T14:18:15.001Z</time></trkpt><trkpt lat="43.076572393359164" lon="-1.30670049836132"><ele>375.0</ele><time>2026-04-29T14:18:16.001Z</time></trkpt><trkpt lat="43.07651201965539" lon="-1.3067798040311935"><ele>376.5</ele><time>2026-04-29T14:18:17.001Z</time></trkpt><trkpt lat="43.0764511438029" lon="-1.3068564371391642"><ele>378.0</ele><time>2026-04-29T14:18:18.001Z</time></trkpt><trkpt lat="43.07638378552018" lon="-1.306922745414768"><ele>379.5</ele><time>2026-04-29T14:18:19.001Z</time></trkpt><trkpt lat="43.07630564531477" lon="-1.3069666137806946"><ele>381.0</ele><time>2026-04-29T14:18:20.001Z</time></trkpt><trkpt lat="43.07622306899718" lon="-1.306997992079707"><ele>382.5</ele><time>2026-04-29T14:18:21.001Z</time></trkpt><trkpt lat="43.0761375102479" lon="-1.307019612946487"><ele>384.0</ele><time>2026-04-29T14:18:22.001Z</time></trkpt><trkpt lat="43.07605333651663" lon="-1.307033465244911"><ele>384.0</ele><time>2026-04-29T14:18:23.001Z</time></trkpt><trkpt lat="43.07596989213094" lon="-1.3070421303824769"><ele>384.0</ele><time>2026-04-29T14:18:24.001Z</time></trkpt><trkpt lat="43.07588297724271" lon="-1.3070489756413297"><ele>384.0</ele><time>2026-04-29T14:18:25.001Z</time></trkpt><trkpt lat="43.07580084829777" lon="-1.3070753021973702"><ele>384.0</ele><time>2026-04-29T14:18:26.001Z</time></trkpt><trkpt lat="43.07572572699625" lon="-1.3071181348927785"><ele>384.0</ele><time>2026-04-29T14:18:27.001Z</time></trkpt><trkpt lat="43.07566059012479" lon="-1.3071813105488974"><ele>384.0</ele><time>2026-04-29T14:18:28.001Z</time></trkpt><trkpt lat="43.0756073526121" lon="-1.3072619030836523"><ele>385.2857142857143</ele><time>2026-04-29T14:18:29.001Z</time></trkpt><trkpt lat="43.075561590011276" lon="-1.3073442002240483"><ele>386.57142857142856</ele><time>2026-04-29T14:18:30.001Z</time></trkpt><trkpt lat="43.07552291718125" lon="-1.307428133834125"><ele>387.8571428571429</ele><time>2026-04-29T14:18:31.001Z</time></trkpt><trkpt lat="43.07548036013506" lon="-1.3075060882483742"><ele>389.1428571428571</ele><time>2026-04-29T14:18:32.001Z</time></trkpt><trkpt lat="43.07543207794826" lon="-1.3075805386018275"><ele>390.42857142857144</ele><time>2026-04-29T14:18:33.001Z</time></trkpt><trkpt lat="43.07537464007233" lon="-1.3076413660958512"><ele>391.7142857142857</ele><time>2026-04-29T14:18:34.001Z</time></trkpt><trkpt lat="43.07530770717991" lon="-1.3076935901902271"><ele>393.0</ele><time>2026-04-29T14:18:35.001Z</time></trkpt><trkpt lat="43.07523608753693" lon="-1.3077422196332438"><ele>393.0</ele><time>2026-04-29T14:18:36.001Z</time></trkpt><trkpt lat="43.075165048712826" lon="-1.3077910256704164"><ele>393.0</ele><time>2026-04-29T14:18:37.001Z</time></trkpt><trkpt lat="43.07509476178772" lon="-1.3078380787716306"><ele>393.0</ele><time>2026-04-29T14:18:38.001Z</time></trkpt><trkpt lat="43.07502122193201" lon="-1.307879852528572"><ele>393.0</ele><time>2026-04-29T14:18:39.001Z</time></trkpt><trkpt lat="43.07494432971798" lon="-1.3079134729703337"><ele>393.0</ele><time>2026-04-29T14:18:40.001Z</time></trkpt><trkpt lat="43.07486479002549" lon="-1.3079313491153675"><ele>393.0</ele><time>2026-04-29T14:18:41.001Z</time></trkpt><trkpt lat="43.074778665523894" lon="-1.307938001850463"><ele>392.5</ele><time>2026-04-29T14:18:42.001Z</time></trkpt><trkpt lat="43.074693772302545" lon="-1.3079595395584722"><ele>392.0</ele><time>2026-04-29T14:18:43.001Z</time></trkpt><trkpt lat="43.074612797981985" lon="-1.3079798248049312"><ele>391.5</ele><time>2026-04-29T14:18:44.001Z</time></trkpt><trkpt lat="43.074531890225856" lon="-1.3080081698569281"><ele>391.0</ele><time>2026-04-29T14:18:45.001Z</time></trkpt><trkpt lat="43.07445410005282" lon="-1.3080606037060238"><ele>390.5</ele><time>2026-04-29T14:18:46.001Z</time></trkpt><trkpt lat="43.07438352838921" lon="-1.3081186957424935"><ele>390.0</ele><time>2026-04-29T14:18:47.001Z</time></trkpt><trkpt lat="43.07431665358449" lon="-1.3081795679444779"><ele>390.1666666666667</ele><time>2026-04-29T14:18:48.001Z</time></trkpt><trkpt lat="43.07424959855112" lon="-1.3082382548250013"><ele>390.33333333333337</ele><time>2026-04-29T14:18:49.001Z</time></trkpt><trkpt lat="43.07418581384157" lon="-1.3082988585711013"><ele>390.5</ele><time>2026-04-29T14:18:50.001Z</time></trkpt><trkpt lat="43.074121067939444" lon="-1.3083563174806658"><ele>390.6666666666667</ele><time>2026-04-29T14:18:51.001Z</time></trkpt><trkpt lat="43.074056783214495" lon="-1.308416841583782"><ele>390.83333333333337</ele><time>2026-04-29T14:18:52.001Z</time></trkpt><trkpt lat="43.073993455144794" lon="-1.3084773023133487"><ele>391.0</ele><time>2026-04-29T14:18:53.001Z</time></trkpt><trkpt lat="43.07392977018651" lon="-1.3085374246128443"><ele>391.00000000000006</ele><time>2026-04-29T14:18:54.001Z</time></trkpt><trkpt lat="43.07386723680882" lon="-1.308596638746852"><ele>391.0</ele><time>2026-04-29T14:18:55.001Z</time></trkpt><trkpt lat="43.07380380845362" lon="-1.308656834255824"><ele>391.0</ele><time>2026-04-29T14:18:56.001Z</time></trkpt><trkpt lat="43.07373957349783" lon="-1.308717359689773"><ele>391.0</ele><time>2026-04-29T14:18:57.001Z</time></trkpt><trkpt lat="43.07367823887541" lon="-1.308778559589379"><ele>391.00000000000006</ele><time>2026-04-29T14:18:58.001Z</time></trkpt><trkpt lat="43.073615816135636" lon="-1.3088435606111561"><ele>391.0</ele><time>2026-04-29T14:18:59.001Z</time></trkpt><trkpt lat="43.07355447711217" lon="-1.3089075168099296"><ele>393.1666666666667</ele><time>2026-04-29T14:19:00.001Z</time></trkpt><trkpt lat="43.07349724984831" lon="-1.308979719949002"><ele>395.33333333333337</ele><time>2026-04-29T14:19:01.001Z</time></trkpt><trkpt lat="43.073441686138224" lon="-1.3090546989885665"><ele>397.5</ele><time>2026-04-29T14:19:02.001Z</time></trkpt><trkpt lat="43.07338673304795" lon="-1.3091293675894053"><ele>399.66666666666663</ele><time>2026-04-29T14:19:03.001Z</time></trkpt><trkpt lat="43.073331720713135" lon="-1.3091992996838033"><ele>401.8333333333333</ele><time>2026-04-29T14:19:04.001Z</time></trkpt><trkpt lat="43.07327833491461" lon="-1.3092712693968633"><ele>404.0</ele><time>2026-04-29T14:19:05.001Z</time></trkpt><trkpt lat="43.07322471177043" lon="-1.3093451248384198"><ele>403.99999999999994</ele><time>2026-04-29T14:19:06.001Z</time></trkpt><trkpt lat="43.07316661131115" lon="-1.3094114675738735"><ele>404.0</ele><time>2026-04-29T14:19:07.001Z</time></trkpt><trkpt lat="43.0731005878978" lon="-1.3094708748400745"><ele>404.0</ele><time>2026-04-29T14:19:08.001Z</time></trkpt><trkpt lat="43.07303298676108" lon="-1.3095228935113368"><ele>404.0</ele><time>2026-04-29T14:19:09.001Z</time></trkpt><trkpt lat="43.07296191928858" lon="-1.3095705403834281"><ele>403.99999999999994</ele><time>2026-04-29T14:19:10.001Z</time></trkpt><trkpt lat="43.07289053651101" lon="-1.309615318914753"><ele>404.0</ele><time>2026-04-29T14:19:11.001Z</time></trkpt><trkpt lat="43.072815805173214" lon="-1.3096555291345853"><ele>403.99999999999994</ele><time>2026-04-29T14:19:12Z</time></trkpt><trkpt lat="43.07273958568512" lon="-1.3097004995441572"><ele>404.0</ele><time>2026-04-29T14:19:13Z</time></trkpt><trkpt lat="43.072664117624356" lon="-1.309732430209262"><ele>404.0</ele><time>2026-04-29T14:19:14Z</time></trkpt><trkpt lat="43.07258582038695" lon="-1.309762068679869"><ele>404.0</ele><time>2026-04-29T14:19:15Z</time></trkpt><trkpt lat="43.072503823711045" lon="-1.3097889356059937"><ele>403.99999999999994</ele><time>2026-04-29T14:19:16Z</time></trkpt><trkpt lat="43.072422279739506" lon="-1.309815804909016"><ele>404.0</ele><time>2026-04-29T14:19:17Z</time></trkpt><trkpt lat="43.072340266921074" lon="-1.3098337062113943"><ele>412.99999999999994</ele><time>2026-04-29T14:19:18Z</time></trkpt><trkpt lat="43.07225581317608" lon="-1.3098442881949706"><ele>422.0</ele><time>2026-04-29T14:19:19Z</time></trkpt><trkpt lat="43.072173957831545" lon="-1.3098532216053365"><ele>431.0</ele><time>2026-04-29T14:19:20Z</time></trkpt><trkpt lat="43.072088317918585" lon="-1.309847875908369"><ele>440.0</ele><time>2026-04-29T14:19:21Z</time></trkpt><trkpt lat="43.07199525626975" lon="-1.30983765661647"><ele>448.99999999999994</ele><time>2026-04-29T14:19:22Z</time></trkpt><trkpt lat="43.0719052313419" lon="-1.3098222324730056"><ele>458.0</ele><time>2026-04-29T14:19:23Z</time></trkpt><trkpt lat="43.07181409429559" lon="-1.3098177428226432"><ele>458.0</ele><time>2026-04-29T14:19:24Z</time></trkpt><trkpt lat="43.071733134714066" lon="-1.3098039517719533"><ele>458.0</ele><time>2026-04-29T14:19:25Z</time></trkpt><trkpt lat="43.07164503991652" lon="-1.3098859472142108"><ele>458.0</ele><time>2026-04-29T14:19:27Z</time></trkpt><trkpt lat="43.0713760528923" lon="-1.309882793749456"><ele>455.99999999999994</ele><time>2026-04-29T14:19:29Z</time></trkpt><trkpt lat="43.07128972268236" lon="-1.3099006764827743"><ele>454.0</ele><time>2026-04-29T14:19:30Z</time></trkpt><trkpt lat="43.0712042893966" lon="-1.3099163090131312"><ele>452.0</ele><time>2026-04-29T14:19:31Z</time></trkpt><trkpt lat="43.07111702456181" lon="-1.3099380289141727"><ele>450.0</ele><time>2026-04-29T14:19:32Z</time></trkpt><trkpt lat="43.07103042453423" lon="-1.3099452388281339"><ele>447.99999999999994</ele><time>2026-04-29T14:19:33Z</time></trkpt><trkpt lat="43.07094549732488" lon="-1.3099592395997075"><ele>446.0</ele><time>2026-04-29T14:19:34Z</time></trkpt><trkpt lat="43.07085501227302" lon="-1.3099537975363167"><ele>442.6</ele><time>2026-04-29T14:19:35Z</time></trkpt><trkpt lat="43.07076573028664" lon="-1.3099398653161547"><ele>439.20000000000005</ele><time>2026-04-29T14:19:36Z</time></trkpt><trkpt lat="43.07067884935964" lon="-1.3099223809026885"><ele>435.79999999999995</ele><time>2026-04-29T14:19:37Z</time></trkpt><trkpt lat="43.07058535847836" lon="-1.3099192808771292"><ele>432.4</ele><time>2026-04-29T14:19:38Z</time></trkpt><trkpt lat="43.070494842528205" lon="-1.3099383753299827"><ele>429.0</ele><time>2026-04-29T14:19:39Z</time></trkpt><trkpt lat="43.07041680289191" lon="-1.3100077372119319"><ele>429.0</ele><time>2026-04-29T14:19:40Z</time></trkpt><trkpt lat="43.070344454423854" lon="-1.3100697250479285"><ele>429.0</ele><time>2026-04-29T14:19:41Z</time></trkpt><trkpt lat="43.070266320823166" lon="-1.3101338434210297"><ele>429.0</ele><time>2026-04-29T14:19:42Z</time></trkpt><trkpt lat="43.07019756713568" lon="-1.3101948600987154"><ele>429.0</ele><time>2026-04-29T14:19:43Z</time></trkpt><trkpt lat="43.07012586319036" lon="-1.3102608713452348"><ele>429.0</ele><time>2026-04-29T14:19:44Z</time></trkpt><trkpt lat="43.07006209015827" lon="-1.3103288294475335"><ele>429.0</ele><time>2026-04-29T14:19:45Z</time></trkpt><trkpt lat="43.069998590281706" lon="-1.3104030733982441"><ele>427.5</ele><time>2026-04-29T14:19:46Z</time></trkpt><trkpt lat="43.06993191397178" lon="-1.310473613852163"><ele>426.0</ele><time>2026-04-29T14:19:47Z</time></trkpt><trkpt lat="43.06986422480133" lon="-1.3105497539544482"><ele>424.5</ele><time>2026-04-29T14:19:48Z</time></trkpt><trkpt lat="43.06979309278093" lon="-1.3106164686739996"><ele>423.0</ele><time>2026-04-29T14:19:49Z</time></trkpt><trkpt lat="43.06972126862975" lon="-1.3106768024698388"><ele>421.5</ele><time>2026-04-29T14:19:50Z</time></trkpt><trkpt lat="43.06963857060077" lon="-1.3107167903657948"><ele>420.0</ele><time>2026-04-29T14:19:51Z</time></trkpt><trkpt lat="43.0695444530187" lon="-1.3107217807391216"><ele>427.3333333333333</ele><time>2026-04-29T14:19:52Z</time></trkpt><trkpt lat="43.069455005175" lon="-1.310732916380405"><ele>434.66666666666663</ele><time>2026-04-29T14:19:53Z</time></trkpt><trkpt lat="43.069383856728024" lon="-1.310745175212859"><ele>442.0</ele><time>2026-04-29T14:19:54Z</time></trkpt><trkpt lat="43.06928330464485" lon="-1.310729534805987"><ele>449.3333333333333</ele><time>2026-04-29T14:19:55Z</time></trkpt><trkpt lat="43.069198267776926" lon="-1.31071534429558"><ele>456.66666666666663</ele><time>2026-04-29T14:19:56Z</time></trkpt><trkpt lat="43.06911313090933" lon="-1.3106941220609463"><ele>464.0</ele><time>2026-04-29T14:19:57Z</time></trkpt><trkpt lat="43.06903784733666" lon="-1.3106805667865493"><ele>466.2</ele><time>2026-04-29T14:19:58Z</time></trkpt><trkpt lat="43.06893862847222" lon="-1.3106509503988173"><ele>468.4</ele><time>2026-04-29T14:19:59Z</time></trkpt><trkpt lat="43.0688534920935" lon="-1.3106318865217217"><ele>470.6</ele><time>2026-04-29T14:20:00Z</time></trkpt><trkpt lat="43.06876362779603" lon="-1.3106079333867893"><ele>472.8</ele><time>2026-04-29T14:20:01Z</time></trkpt><trkpt lat="43.068673478854755" lon="-1.3105804858130252"><ele>475.0</ele><time>2026-04-29T14:20:02Z</time></trkpt><trkpt lat="43.068585509458494" lon="-1.3105542517484174"><ele>469.6666666666667</ele><time>2026-04-29T14:20:03Z</time></trkpt><trkpt lat="43.068496661641944" lon="-1.3105305959983415"><ele>464.33333333333337</ele><time>2026-04-29T14:20:04Z</time></trkpt><trkpt lat="43.06841338228359" lon="-1.3104917514485004"><ele>459.0</ele><time>2026-04-29T14:20:05Z</time></trkpt><trkpt lat="43.06832516773092" lon="-1.3104615867959557"><ele>453.66666666666663</ele><time>2026-04-29T14:20:06Z</time></trkpt><trkpt lat="43.068242126099086" lon="-1.310412989747771"><ele>448.3333333333333</ele><time>2026-04-29T14:20:07Z</time></trkpt><trkpt lat="43.0681554159577" lon="-1.310387871012375"><ele>443.0</ele><time>2026-04-29T14:20:08Z</time></trkpt><trkpt lat="43.06806682272588" lon="-1.3103610766086713"><ele>443.0</ele><time>2026-04-29T14:20:09.001Z</time></trkpt><trkpt lat="43.06797117878262" lon="-1.310348711737746"><ele>442.99999999999994</ele><time>2026-04-29T14:20:10.001Z</time></trkpt><trkpt lat="43.06787605225304" lon="-1.310374137795553"><ele>442.99999999999994</ele><time>2026-04-29T14:20:11.001Z</time></trkpt><trkpt lat="43.06779749402475" lon="-1.3104338412757062"><ele>443.0</ele><time>2026-04-29T14:20:12.001Z</time></trkpt><trkpt lat="43.067725266516874" lon="-1.3105188127680156"><ele>443.0</ele><time>2026-04-29T14:20:13.001Z</time></trkpt><trkpt lat="43.06764789498169" lon="-1.3105969385263943"><ele>448.59999999999997</ele><time>2026-04-29T14:20:14.001Z</time></trkpt><trkpt lat="43.06756615253081" lon="-1.3106778603503526"><ele>454.19999999999993</ele><time>2026-04-29T14:20:15.001Z</time></trkpt><trkpt lat="43.06748652037409" lon="-1.3107269671199822"><ele>459.8</ele><time>2026-04-29T14:20:16.001Z</time></trkpt><trkpt lat="43.067411490651395" lon="-1.3107543385671419"><ele>465.4</ele><time>2026-04-29T14:20:17.001Z</time></trkpt><trkpt lat="43.067322884750325" lon="-1.3107471801969914"><ele>471.0</ele><time>2026-04-29T14:20:18.001Z</time></trkpt><trkpt lat="43.06723259485488" lon="-1.3106976663148835"><ele>473.6</ele><time>2026-04-29T14:20:19.001Z</time></trkpt><trkpt lat="43.06715494566843" lon="-1.3106042779335543"><ele>476.20000000000005</ele><time>2026-04-29T14:20:20.001Z</time></trkpt><trkpt lat="43.06711834439938" lon="-1.31047581964838"><ele>478.79999999999995</ele><time>2026-04-29T14:20:21.001Z</time></trkpt><trkpt lat="43.06710180145824" lon="-1.310341077794991"><ele>481.4</ele><time>2026-04-29T14:20:22.001Z</time></trkpt><trkpt lat="43.06710665607404" lon="-1.3102017300199476"><ele>484.0</ele><time>2026-04-29T14:20:23.001Z</time></trkpt><trkpt lat="43.067106311381615" lon="-1.310069960262268"><ele>484.0</ele><time>2026-04-29T14:20:24.001Z</time></trkpt><trkpt lat="43.067071921801706" lon="-1.3099386696023751"><ele>484.0</ele><time>2026-04-29T14:20:25.001Z</time></trkpt><trkpt lat="43.06704681508578" lon="-1.309828503073001"><ele>484.0</ele><time>2026-04-29T14:20:26.001Z</time></trkpt><trkpt lat="43.06701806268442" lon="-1.3097101787649725"><ele>484.0</ele><time>2026-04-29T14:20:27.001Z</time></trkpt><trkpt lat="43.06699122143792" lon="-1.3095738152243104"><ele>484.0</ele><time>2026-04-29T14:20:28.001Z</time></trkpt><trkpt lat="43.06697501010892" lon="-1.3094501157425271"><ele>480.79999999999995</ele><time>2026-04-29T14:20:29.001Z</time></trkpt><trkpt lat="43.06696457185733" lon="-1.3093087465612678"><ele>477.59999999999997</ele><time>2026-04-29T14:20:30.001Z</time></trkpt><trkpt lat="43.06693945838022" lon="-1.3091781811009635"><ele>474.4</ele><time>2026-04-29T14:20:31.001Z</time></trkpt><trkpt lat="43.066907781763796" lon="-1.3090440785598612"><ele>471.2</ele><time>2026-04-29T14:20:32.001Z</time></trkpt><trkpt lat="43.06685652576112" lon="-1.3089247877591286"><ele>468.0</ele><time>2026-04-29T14:20:33.001Z</time></trkpt><trkpt lat="43.066799465165616" lon="-1.3088071068544533"><ele>467.79999999999995</ele><time>2026-04-29T14:20:34.001Z</time></trkpt><trkpt lat="43.066722308737084" lon="-1.3087076361644636"><ele>467.59999999999997</ele><time>2026-04-29T14:20:35.001Z</time></trkpt><trkpt lat="43.06663697248646" lon="-1.3086210358994874"><ele>467.40000000000003</ele><time>2026-04-29T14:20:36.001Z</time></trkpt><trkpt lat="43.066552974533586" lon="-1.3085403266598434"><ele>467.20000000000005</ele><time>2026-04-29T14:20:37.001Z</time></trkpt><trkpt lat="43.066471013703655" lon="-1.3084611782566447"><ele>467.0</ele><time>2026-04-29T14:20:38.001Z</time></trkpt><trkpt lat="43.06638325368284" lon="-1.308381866507946"><ele>467.0</ele><time>2026-04-29T14:20:39.001Z</time></trkpt><trkpt lat="43.066293658938086" lon="-1.3083055761028282"><ele>467.00000000000006</ele><time>2026-04-29T14:20:40.001Z</time></trkpt><trkpt lat="43.06620084057759" lon="-1.3082211912328088"><ele>467.00000000000006</ele><time>2026-04-29T14:20:41.001Z</time></trkpt><trkpt lat="43.066110705926384" lon="-1.3081356640775477"><ele>467.0</ele><time>2026-04-29T14:20:42.001Z</time></trkpt><trkpt lat="43.06602098518475" lon="-1.308043116282384"><ele>467.0</ele><time>2026-04-29T14:20:43.001Z</time></trkpt><trkpt lat="43.06593281967047" lon="-1.3079590129854028"><ele>461.40000000000003</ele><time>2026-04-29T14:20:44.001Z</time></trkpt><trkpt lat="43.065828888971446" lon="-1.3078956031416253"><ele>455.80000000000007</ele><time>2026-04-29T14:20:45.001Z</time></trkpt><trkpt lat="43.06575308561602" lon="-1.3078250288293642"><ele>450.2</ele><time>2026-04-29T14:20:46.001Z</time></trkpt><trkpt lat="43.06565868528182" lon="-1.3077840952355089"><ele>444.6</ele><time>2026-04-29T14:20:47.001Z</time></trkpt><trkpt lat="43.065554321034625" lon="-1.3077811686202152"><ele>439.0</ele><time>2026-04-29T14:20:48.001Z</time></trkpt><trkpt lat="43.06545375969493" lon="-1.30781565078957"><ele>439.0</ele><time>2026-04-29T14:20:49.001Z</time></trkpt><trkpt lat="43.06535974691487" lon="-1.307869125785919"><ele>439.0</ele><time>2026-04-29T14:20:50.001Z</time></trkpt><trkpt lat="43.06526906319196" lon="-1.3079501974496954"><ele>439.0</ele><time>2026-04-29T14:20:51.001Z</time></trkpt><trkpt lat="43.0651895419553" lon="-1.3080421716691326"><ele>439.0</ele><time>2026-04-29T14:20:52.001Z</time></trkpt><trkpt lat="43.06511090389492" lon="-1.308134994698142"><ele>439.0</ele><time>2026-04-29T14:20:53.001Z</time></trkpt><trkpt lat="43.06502570002328" lon="-1.3082110405266227"><ele>447.2</ele><time>2026-04-29T14:20:54.001Z</time></trkpt><trkpt lat="43.06492852263465" lon="-1.3082574190860226"><ele>455.4</ele><time>2026-04-29T14:20:55.001Z</time></trkpt><trkpt lat="43.06482498477199" lon="-1.308288777051239"><ele>463.6</ele><time>2026-04-29T14:20:56.001Z</time></trkpt><trkpt lat="43.06471836372753" lon="-1.3082886285868216"><ele>471.8</ele><time>2026-04-29T14:20:57.001Z</time></trkpt><trkpt lat="43.06461380804221" lon="-1.3082794154405837"><ele>480.0</ele><time>2026-04-29T14:20:58.001Z</time></trkpt><trkpt lat="43.064511457443565" lon="-1.3082455455494573"><ele>480.0</ele><time>2026-04-29T14:20:59.001Z</time></trkpt><trkpt lat="43.06441363419909" lon="-1.3082018935409812"><ele>480.0</ele><time>2026-04-29T14:21:00.001Z</time></trkpt><trkpt lat="43.064320725872335" lon="-1.308143050667661"><ele>480.0</ele><time>2026-04-29T14:21:01.001Z</time></trkpt><trkpt lat="43.06423071712288" lon="-1.308082294428658"><ele>480.0</ele><time>2026-04-29T14:21:02.001Z</time></trkpt><trkpt lat="43.06414116888435" lon="-1.3080231043991541"><ele>480.0</ele><time>2026-04-29T14:21:03.001Z</time></trkpt><trkpt lat="43.06403956809786" lon="-1.3079759221037475"><ele>474.4</ele><time>2026-04-29T14:21:04.001Z</time></trkpt><trkpt lat="43.063942858878086" lon="-1.3079335632781086"><ele>468.8</ele><time>2026-04-29T14:21:05.001Z</time></trkpt><trkpt lat="43.06384181579378" lon="-1.3078963540527588"><ele>463.20000000000005</ele><time>2026-04-29T14:21:06.001Z</time></trkpt><trkpt lat="43.06374420684138" lon="-1.3078393200216851"><ele>457.6</ele><time>2026-04-29T14:21:07.001Z</time></trkpt><trkpt lat="43.063651448738916" lon="-1.307767493866221"><ele>452.0</ele><time>2026-04-29T14:21:08.001Z</time></trkpt><trkpt lat="43.06356002095459" lon="-1.3076849947226148"><ele>452.0</ele><time>2026-04-29T14:21:09.001Z</time></trkpt><trkpt lat="43.06347585364719" lon="-1.3075905003396773"><ele>452.00000000000006</ele><time>2026-04-29T14:21:10.001Z</time></trkpt><trkpt lat="43.063399124521204" lon="-1.3074933588115012"><ele>452.00000000000006</ele><time>2026-04-29T14:21:11.001Z</time></trkpt><trkpt lat="43.06332306279844" lon="-1.30739055475331"><ele>452.0</ele><time>2026-04-29T14:21:12.001Z</time></trkpt><trkpt lat="43.06326030830801" lon="-1.3072796271939835"><ele>452.0</ele><time>2026-04-29T14:21:13.001Z</time></trkpt><trkpt lat="43.06320181107842" lon="-1.3071666183901856"><ele>450.20000000000005</ele><time>2026-04-29T14:21:14.001Z</time></trkpt><trkpt lat="43.06312525005185" lon="-1.3070731585817683"><ele>448.40000000000003</ele><time>2026-04-29T14:21:15.001Z</time></trkpt><trkpt lat="43.06304391387602" lon="-1.3069995586840781"><ele>446.59999999999997</ele><time>2026-04-29T14:21:16.001Z</time></trkpt><trkpt lat="43.06294828982467" lon="-1.3069629131768528"><ele>444.79999999999995</ele><time>2026-04-29T14:21:17.001Z</time></trkpt><trkpt lat="43.062854140147884" lon="-1.3070137615971802"><ele>443.0</ele><time>2026-04-29T14:21:18Z</time></trkpt><trkpt lat="43.06277354125173" lon="-1.3070632772146635"><ele>442.99999999999994</ele><time>2026-04-29T14:21:19Z</time></trkpt><trkpt lat="43.06268159832938" lon="-1.3070974763935232"><ele>443.0</ele><time>2026-04-29T14:21:20Z</time></trkpt><trkpt lat="43.06260178618427" lon="-1.3071413303563608"><ele>443.0</ele><time>2026-04-29T14:21:21Z</time></trkpt><trkpt lat="43.0625187927325" lon="-1.307175463423203"><ele>443.0</ele><time>2026-04-29T14:21:22Z</time></trkpt><trkpt lat="43.06243647246208" lon="-1.3072092091261813"><ele>442.99999999999994</ele><time>2026-04-29T14:21:23Z</time></trkpt><trkpt lat="43.06235031611163" lon="-1.307249847106053"><ele>443.0</ele><time>2026-04-29T14:21:24Z</time></trkpt><trkpt lat="43.06226877122679" lon="-1.307289563688859"><ele>444.99999999999994</ele><time>2026-04-29T14:21:25Z</time></trkpt><trkpt lat="43.062187458890754" lon="-1.3073337801826956"><ele>447.0</ele><time>2026-04-29T14:21:26Z</time></trkpt><trkpt lat="43.06210702998026" lon="-1.3073691002144312"><ele>449.0</ele><time>2026-04-29T14:21:27Z</time></trkpt><trkpt lat="43.06202452615018" lon="-1.3074062540307065"><ele>451.0</ele><time>2026-04-29T14:21:28Z</time></trkpt><trkpt lat="43.061943811133105" lon="-1.3074440204299433"><ele>452.99999999999994</ele><time>2026-04-29T14:21:29Z</time></trkpt><trkpt lat="43.061862255408506" lon="-1.3074897523353834"><ele>455.0</ele><time>2026-04-29T14:21:30Z</time></trkpt><trkpt lat="43.06178032312517" lon="-1.3075457529304666"><ele>455.0</ele><time>2026-04-29T14:21:31Z</time></trkpt><trkpt lat="43.061700683365025" lon="-1.3076052866292074"><ele>455.0</ele><time>2026-04-29T14:21:32Z</time></trkpt><trkpt lat="43.06161763310593" lon="-1.307656570256683"><ele>455.0</ele><time>2026-04-29T14:21:33Z</time></trkpt><trkpt lat="43.06153418515837" lon="-1.3077089142765383"><ele>455.0</ele><time>2026-04-29T14:21:34Z</time></trkpt><trkpt lat="43.061451201511524" lon="-1.3077747568603524"><ele>455.0</ele><time>2026-04-29T14:21:35Z</time></trkpt><trkpt lat="43.0613732162195" lon="-1.3078526397982515"><ele>453.8</ele><time>2026-04-29T14:21:36Z</time></trkpt><trkpt lat="43.06130653914468" lon="-1.307944295605148"><ele>452.6</ele><time>2026-04-29T14:21:37Z</time></trkpt><trkpt lat="43.06125646965472" lon="-1.3080674240189405"><ele>451.4</ele><time>2026-04-29T14:21:38Z</time></trkpt><trkpt lat="43.0612196038273" lon="-1.308185460100288"><ele>450.2</ele><time>2026-04-29T14:21:39Z</time></trkpt><trkpt lat="43.061177361230456" lon="-1.3082992334577606"><ele>449.0</ele><time>2026-04-29T14:21:40Z</time></trkpt><trkpt lat="43.06112766191557" lon="-1.308402029644821"><ele>449.0</ele><time>2026-04-29T14:21:41Z</time></trkpt><trkpt lat="43.06106066158305" lon="-1.3084866041528809"><ele>449.0</ele><time>2026-04-29T14:21:42Z</time></trkpt><trkpt lat="43.06098068635651" lon="-1.3085566367523225"><ele>449.0</ele><time>2026-04-29T14:21:43Z</time></trkpt><trkpt lat="43.0608956735968" lon="-1.3086026432041393"><ele>449.0</ele><time>2026-04-29T14:21:44Z</time></trkpt><trkpt lat="43.06080287837092" lon="-1.3086190269504563"><ele>449.0</ele><time>2026-04-29T14:21:45Z</time></trkpt><trkpt lat="43.06070881479192" lon="-1.3086209344636923"><ele>450.16666666666663</ele><time>2026-04-29T14:21:46Z</time></trkpt><trkpt lat="43.0606170701822" lon="-1.3086161463799517"><ele>451.3333333333333</ele><time>2026-04-29T14:21:47Z</time></trkpt><trkpt lat="43.0605267109023" lon="-1.3086175938975027"><ele>452.5</ele><time>2026-04-29T14:21:48Z</time></trkpt><trkpt lat="43.06044172920632" lon="-1.3086543387190817"><ele>453.66666666666663</ele><time>2026-04-29T14:21:49Z</time></trkpt><trkpt lat="43.060360671899986" lon="-1.308705498375681"><ele>454.8333333333333</ele><time>2026-04-29T14:21:50Z</time></trkpt><trkpt lat="43.060294726877174" lon="-1.3087828541128605"><ele>456.0</ele><time>2026-04-29T14:21:51Z</time></trkpt><trkpt lat="43.060233176876004" lon="-1.3088611391712233"><ele>458.1666666666667</ele><time>2026-04-29T14:21:52Z</time></trkpt><trkpt lat="43.060174212042945" lon="-1.3089411058850542"><ele>460.33333333333337</ele><time>2026-04-29T14:21:53Z</time></trkpt><trkpt lat="43.06011315776588" lon="-1.309010886977007"><ele>462.5</ele><time>2026-04-29T14:21:54Z</time></trkpt><trkpt lat="43.06004513928146" lon="-1.3090694320718692"><ele>464.6666666666667</ele><time>2026-04-29T14:21:55Z</time></trkpt><trkpt lat="43.059974303502294" lon="-1.3091207411115404"><ele>466.83333333333337</ele><time>2026-04-29T14:21:56Z</time></trkpt><trkpt lat="43.059901881978725" lon="-1.3091698629218846"><ele>469.0</ele><time>2026-04-29T14:21:57Z</time></trkpt><trkpt lat="43.05982934343369" lon="-1.3092189173576905"><ele>469.00000000000006</ele><time>2026-04-29T14:21:58Z</time></trkpt><trkpt lat="43.05976008629217" lon="-1.3092665462287296"><ele>469.0</ele><time>2026-04-29T14:21:59Z</time></trkpt><trkpt lat="43.059686725585294" lon="-1.309311825946879"><ele>469.0</ele><time>2026-04-29T14:22:00Z</time></trkpt><trkpt lat="43.059615449743504" lon="-1.3093615816975441"><ele>469.0</ele><time>2026-04-29T14:22:01Z</time></trkpt><trkpt lat="43.05954971700904" lon="-1.3094332341370643"><ele>469.00000000000006</ele><time>2026-04-29T14:22:02Z</time></trkpt><trkpt lat="43.05949656065441" lon="-1.3095173659014405"><ele>469.0</ele><time>2026-04-29T14:22:03Z</time></trkpt><trkpt lat="43.05944640601208" lon="-1.3096065690973862"><ele>469.00000000000006</ele><time>2026-04-29T14:22:04.001Z</time></trkpt><trkpt lat="43.059388844383115" lon="-1.309682949300115"><ele>469.0</ele><time>2026-04-29T14:22:05.001Z</time></trkpt><trkpt lat="43.059321001522726" lon="-1.3097461896454892"><ele>469.0</ele><time>2026-04-29T14:22:06.001Z</time></trkpt><trkpt lat="43.05925102967871" lon="-1.3097931278546442"><ele>469.0</ele><time>2026-04-29T14:22:07.001Z</time></trkpt><trkpt lat="43.05917201484961" lon="-1.3098242635023458"><ele>469.00000000000006</ele><time>2026-04-29T14:22:08.001Z</time></trkpt><trkpt lat="43.05909772661526" lon="-1.3098547432507601"><ele>469.0</ele><time>2026-04-29T14:22:09.001Z</time></trkpt><trkpt lat="43.05900494795454" lon="-1.3098427818990006"><ele>471.83333333333337</ele><time>2026-04-29T14:22:10.001Z</time></trkpt><trkpt lat="43.0589199411512" lon="-1.3097882059897255"><ele>474.6666666666667</ele><time>2026-04-29T14:22:11.001Z</time></trkpt><trkpt lat="43.058847369062946" lon="-1.3097439075486843"><ele>477.5</ele><time>2026-04-29T14:22:12.001Z</time></trkpt><trkpt lat="43.05877274278643" lon="-1.3097098462002261"><ele>480.33333333333337</ele><time>2026-04-29T14:22:13.001Z</time></trkpt><trkpt lat="43.05869169197333" lon="-1.309678588074513"><ele>483.1666666666667</ele><time>2026-04-29T14:22:14.001Z</time></trkpt><trkpt lat="43.058618422060384" lon="-1.3096719086550976"><ele>486.0</ele><time>2026-04-29T14:22:15.001Z</time></trkpt><trkpt lat="43.05854036703089" lon="-1.3096865514818412"><ele>486.0</ele><time>2026-04-29T14:22:16.001Z</time></trkpt><trkpt lat="43.05847273045764" lon="-1.3097352379757687"><ele>486.0</ele><time>2026-04-29T14:22:17.001Z</time></trkpt><trkpt lat="43.05840245325809" lon="-1.309783174248704"><ele>486.0</ele><time>2026-04-29T14:22:18.001Z</time></trkpt><trkpt lat="43.05833306329451" lon="-1.3098341376654703"><ele>486.0</ele><time>2026-04-29T14:22:19.001Z</time></trkpt><trkpt lat="43.05826071645059" lon="-1.3098868343126897"><ele>486.0</ele><time>2026-04-29T14:22:20.001Z</time></trkpt><trkpt lat="43.05818729344778" lon="-1.309940069337125"><ele>486.0</ele><time>2026-04-29T14:22:21.001Z</time></trkpt><trkpt lat="43.058116189016104" lon="-1.30998999248468"><ele>484.8333333333333</ele><time>2026-04-29T14:22:22.001Z</time></trkpt><trkpt lat="43.05804352119902" lon="-1.3100401740865817"><ele>483.66666666666663</ele><time>2026-04-29T14:22:23.001Z</time></trkpt><trkpt lat="43.05796921691372" lon="-1.3100905309775284"><ele>482.5</ele><time>2026-04-29T14:22:24.001Z</time></trkpt><trkpt lat="43.057894903630626" lon="-1.3101408939407833"><ele>481.3333333333333</ele><time>2026-04-29T14:22:25.001Z</time></trkpt><trkpt lat="43.0578210336977" lon="-1.3101909564494818"><ele>480.16666666666663</ele><time>2026-04-29T14:22:26.001Z</time></trkpt><trkpt lat="43.05774772650967" lon="-1.3102406375231195"><ele>479.0</ele><time>2026-04-29T14:22:27.001Z</time></trkpt><trkpt lat="43.05767057009617" lon="-1.3102824099661114"><ele>478.99999999999994</ele><time>2026-04-29T14:22:28.001Z</time></trkpt><trkpt lat="43.057598445428326" lon="-1.3103373478054878"><ele>479.0</ele><time>2026-04-29T14:22:29.001Z</time></trkpt><trkpt lat="43.05752615179346" lon="-1.3103888229152556"><ele>479.0</ele><time>2026-04-29T14:22:30.001Z</time></trkpt><trkpt lat="43.05745512103452" lon="-1.3104424204710305"><ele>479.0</ele><time>2026-04-29T14:22:31.001Z</time></trkpt><trkpt lat="43.057385262396146" lon="-1.310501392411971"><ele>478.99999999999994</ele><time>2026-04-29T14:22:32.001Z</time></trkpt><trkpt lat="43.057316471998014" lon="-1.3105586565392382"><ele>479.0</ele><time>2026-04-29T14:22:33.001Z</time></trkpt><trkpt lat="43.05725223600668" lon="-1.3106261533900465"><ele>478.79999999999995</ele><time>2026-04-29T14:22:34.001Z</time></trkpt><trkpt lat="43.057198635805804" lon="-1.310721154283027"><ele>478.59999999999997</ele><time>2026-04-29T14:22:35.001Z</time></trkpt><trkpt lat="43.057163016882306" lon="-1.3108275229185187"><ele>478.4</ele><time>2026-04-29T14:22:36.001Z</time></trkpt><trkpt lat="43.057143868541424" lon="-1.310949761437209"><ele>478.2</ele><time>2026-04-29T14:22:37.001Z</time></trkpt><trkpt lat="43.057148457266415" lon="-1.3110694339064013"><ele>478.0</ele><time>2026-04-29T14:22:38.001Z</time></trkpt><trkpt lat="43.05712292142313" lon="-1.3112791526229142"><ele>478.00000000000006</ele><time>2026-04-29T14:22:40.001Z</time></trkpt><trkpt lat="43.057077401022624" lon="-1.3113984856688035"><ele>478.0</ele><time>2026-04-29T14:22:41.001Z</time></trkpt><trkpt lat="43.05701730375745" lon="-1.3114841205246741"><ele>478.0</ele><time>2026-04-29T14:22:42.001Z</time></trkpt><trkpt lat="43.05694157902164" lon="-1.311545821201452"><ele>478.0</ele><time>2026-04-29T14:22:43.001Z</time></trkpt><trkpt lat="43.056865135878276" lon="-1.3116112402443645"><ele>478.00000000000006</ele><time>2026-04-29T14:22:44.001Z</time></trkpt><trkpt lat="43.05679501808506" lon="-1.3116788565642004"><ele>478.0</ele><time>2026-04-29T14:22:45.001Z</time></trkpt><trkpt lat="43.0567256635079" lon="-1.3117440757072354"><ele>482.0</ele><time>2026-04-29T14:22:46.001Z</time></trkpt><trkpt lat="43.05664133569602" lon="-1.311782305843451"><ele>485.99999999999994</ele><time>2026-04-29T14:22:47.001Z</time></trkpt><trkpt lat="43.05655361742025" lon="-1.311803922790771"><ele>489.99999999999994</ele><time>2026-04-29T14:22:48.001Z</time></trkpt><trkpt lat="43.056464287958846" lon="-1.311797521964934"><ele>494.0</ele><time>2026-04-29T14:22:49.001Z</time></trkpt><trkpt lat="43.05637299733756" lon="-1.3117711584411365"><ele>498.0</ele><time>2026-04-29T14:22:50.001Z</time></trkpt><trkpt lat="43.05628584957857" lon="-1.311733330683208"><ele>498.1666666666667</ele><time>2026-04-29T14:22:51.001Z</time></trkpt><trkpt lat="43.05620307061873" lon="-1.311684628493333"><ele>498.33333333333337</ele><time>2026-04-29T14:22:52.001Z</time></trkpt><trkpt lat="43.05611950063256" lon="-1.3116396898976768"><ele>498.5</ele><time>2026-04-29T14:22:53.001Z</time></trkpt><trkpt lat="43.05603654026003" lon="-1.3115970334041707"><ele>498.6666666666667</ele><time>2026-04-29T14:22:54.001Z</time></trkpt><trkpt lat="43.055956129613406" lon="-1.3115534441272458"><ele>498.83333333333337</ele><time>2026-04-29T14:22:55.001Z</time></trkpt><trkpt lat="43.055875134707506" lon="-1.3115151990477971"><ele>499.0</ele><time>2026-04-29T14:22:56.001Z</time></trkpt><trkpt lat="43.055794002758425" lon="-1.3114758871506442"><ele>498.50000000000006</ele><time>2026-04-29T14:22:57.001Z</time></trkpt><trkpt lat="43.05571080984211" lon="-1.3114354064039238"><ele>498.0</ele><time>2026-04-29T14:22:58.001Z</time></trkpt><trkpt lat="43.055630640873325" lon="-1.3113963718875898"><ele>497.5</ele><time>2026-04-29T14:22:59.001Z</time></trkpt><trkpt lat="43.055548651846316" lon="-1.3113576964938922"><ele>497.0</ele><time>2026-04-29T14:23:00.001Z</time></trkpt><trkpt lat="43.05547344654427" lon="-1.3113262874032385"><ele>496.50000000000006</ele><time>2026-04-29T14:23:01.001Z</time></trkpt><trkpt lat="43.0553938102892" lon="-1.3113004547650284"><ele>496.0</ele><time>2026-04-29T14:23:02.001Z</time></trkpt><trkpt lat="43.05531251326701" lon="-1.311286554329771"><ele>495.33333333333337</ele><time>2026-04-29T14:23:03.001Z</time></trkpt><trkpt lat="43.0552283599823" lon="-1.3113042068348664"><ele>494.6666666666667</ele><time>2026-04-29T14:23:04.001Z</time></trkpt><trkpt lat="43.05515769165924" lon="-1.311314651296788"><ele>494.0</ele><time>2026-04-29T14:23:05.001Z</time></trkpt><trkpt lat="43.05508107719689" lon="-1.3113471808336394"><ele>493.33333333333337</ele><time>2026-04-29T14:23:06.001Z</time></trkpt><trkpt lat="43.05501495027735" lon="-1.3113945542952012"><ele>492.6666666666667</ele><time>2026-04-29T14:23:07.001Z</time></trkpt><trkpt lat="43.05494749417369" lon="-1.311451870683527"><ele>492.0</ele><time>2026-04-29T14:23:08.001Z</time></trkpt><trkpt lat="43.054896772840706" lon="-1.3115336546306913"><ele>496.1666666666667</ele><time>2026-04-29T14:23:09.001Z</time></trkpt><trkpt lat="43.05486498613873" lon="-1.3116345929025017"><ele>500.33333333333337</ele><time>2026-04-29T14:23:10.001Z</time></trkpt><trkpt lat="43.054861320610854" lon="-1.3117445700497192"><ele>504.5</ele><time>2026-04-29T14:23:11.001Z</time></trkpt><trkpt lat="43.054867190668716" lon="-1.3118523438285896"><ele>508.6666666666667</ele><time>2026-04-29T14:23:12.001Z</time></trkpt><trkpt lat="43.05488001514012" lon="-1.3119587280145717"><ele>512.8333333333334</ele><time>2026-04-29T14:23:13.001Z</time></trkpt><trkpt lat="43.05490342450654" lon="-1.3120553888019495"><ele>517.0</ele><time>2026-04-29T14:23:14.001Z</time></trkpt><trkpt lat="43.0549189346611" lon="-1.312157337812896"><ele>515.3333333333334</ele><time>2026-04-29T14:23:15.001Z</time></trkpt><trkpt lat="43.054926140360394" lon="-1.312261672560291"><ele>513.6666666666667</ele><time>2026-04-29T14:23:16.002Z</time></trkpt><trkpt lat="43.054929920960106" lon="-1.3123678576459241"><ele>512.0</ele><time>2026-04-29T14:23:17.002Z</time></trkpt><trkpt lat="43.05492089022766" lon="-1.312470426184852"><ele>510.33333333333337</ele><time>2026-04-29T14:23:18.002Z</time></trkpt><trkpt lat="43.054901278673206" lon="-1.3125877422825285"><ele>508.6666666666667</ele><time>2026-04-29T14:23:19.002Z</time></trkpt><trkpt lat="43.05486180996445" lon="-1.3126877691670753"><ele>507.0</ele><time>2026-04-29T14:23:20.002Z</time></trkpt><trkpt lat="43.05481955185209" lon="-1.3127942423856684"><ele>507.0</ele><time>2026-04-29T14:23:21.002Z</time></trkpt><trkpt lat="43.054776410700185" lon="-1.3129038642622135"><ele>507.00000000000006</ele><time>2026-04-29T14:23:22.002Z</time></trkpt><trkpt lat="43.05472851283008" lon="-1.3130127268351368"><ele>507.00000000000006</ele><time>2026-04-29T14:23:23.002Z</time></trkpt><trkpt lat="43.05467658829976" lon="-1.3131201819098912"><ele>507.0</ele><time>2026-04-29T14:23:24Z</time></trkpt><trkpt lat="43.05462824325143" lon="-1.3132325109736824"><ele>507.0</ele><time>2026-04-29T14:23:25Z</time></trkpt><trkpt lat="43.05457752858176" lon="-1.3133436628900774"><ele>508.0</ele><time>2026-04-29T14:23:26Z</time></trkpt><trkpt lat="43.05452787448812" lon="-1.3134526039823584"><ele>509.00000000000006</ele><time>2026-04-29T14:23:27Z</time></trkpt><trkpt lat="43.05447778360416" lon="-1.3135638139533214"><ele>510.00000000000006</ele><time>2026-04-29T14:23:28Z</time></trkpt><trkpt lat="43.05442817314099" lon="-1.3136711424035838"><ele>511.0</ele><time>2026-04-29T14:23:29Z</time></trkpt><trkpt lat="43.05438265036218" lon="-1.3137918565541487"><ele>512.0</ele><time>2026-04-29T14:23:30Z</time></trkpt><trkpt lat="43.05433639208404" lon="-1.3139104661674004"><ele>512.0</ele><time>2026-04-29T14:23:31Z</time></trkpt><trkpt lat="43.05430478623547" lon="-1.3140888099295631"><ele>512.0</ele><time>2026-04-29T14:23:32Z</time></trkpt><trkpt lat="43.05418980707858" lon="-1.3142274643445693"><ele>512.0</ele><time>2026-04-29T14:23:33Z</time></trkpt><trkpt lat="43.05406843412891" lon="-1.3143348874508731"><ele>512.0</ele><time>2026-04-29T14:23:34Z</time></trkpt><trkpt lat="43.054082678360736" lon="-1.314222063876463"><ele>510.8</ele><time>2026-04-29T14:23:35Z</time></trkpt><trkpt lat="43.05400434887678" lon="-1.314292290013307"><ele>509.6</ele><time>2026-04-29T14:23:36Z</time></trkpt><trkpt lat="43.053922148440265" lon="-1.3143446648309924"><ele>508.40000000000003</ele><time>2026-04-29T14:23:37Z</time></trkpt><trkpt lat="43.053844224999814" lon="-1.3144061009254093"><ele>507.20000000000005</ele><time>2026-04-29T14:23:38Z</time></trkpt><trkpt lat="43.05376134648231" lon="-1.3144476553242468"><ele>506.0</ele><time>2026-04-29T14:23:39Z</time></trkpt><trkpt lat="43.05368098000202" lon="-1.3144978139205465"><ele>505.99999999999994</ele><time>2026-04-29T14:23:40Z</time></trkpt><trkpt lat="43.05361229157671" lon="-1.3145590871638533"><ele>506.0</ele><time>2026-04-29T14:23:41Z</time></trkpt><trkpt lat="43.05355257959794" lon="-1.3146476467916464"><ele>506.0</ele><time>2026-04-29T14:23:42Z</time></trkpt><trkpt lat="43.053510720327395" lon="-1.3147413181794292"><ele>506.0</ele><time>2026-04-29T14:23:43Z</time></trkpt><trkpt lat="43.053451875990916" lon="-1.3148492251221944"><ele>505.99999999999994</ele><time>2026-04-29T14:23:44Z</time></trkpt><trkpt lat="43.05340752455834" lon="-1.3149209603974208"><ele>506.0</ele><time>2026-04-29T14:23:45Z</time></trkpt><trkpt lat="43.05335343559242" lon="-1.3149954021115198"><ele>506.99999999999994</ele><time>2026-04-29T14:23:46Z</time></trkpt><trkpt lat="43.05329624581784" lon="-1.3150693544691026"><ele>508.0</ele><time>2026-04-29T14:23:47Z</time></trkpt><trkpt lat="43.05323796337799" lon="-1.3151402057819477"><ele>509.0</ele><time>2026-04-29T14:23:48Z</time></trkpt><trkpt lat="43.05318232515646" lon="-1.3152174677049073"><ele>510.0</ele><time>2026-04-29T14:23:49Z</time></trkpt><trkpt lat="43.053128912844386" lon="-1.3152941148160289"><ele>510.99999999999994</ele><time>2026-04-29T14:23:50Z</time></trkpt><trkpt lat="43.053072611596924" lon="-1.315366581987772"><ele>512.0</ele><time>2026-04-29T14:23:51Z</time></trkpt><trkpt lat="43.05301174509407" lon="-1.3154225482487942"><ele>511.99999999999994</ele><time>2026-04-29T14:23:52Z</time></trkpt><trkpt lat="43.05294818600879" lon="-1.3154852118749332"><ele>512.0</ele><time>2026-04-29T14:23:53Z</time></trkpt><trkpt lat="43.05286687111974" lon="-1.315511689232829"><ele>512.0</ele><time>2026-04-29T14:23:54Z</time></trkpt><trkpt lat="43.05278830074131" lon="-1.3155359113150005"><ele>512.0</ele><time>2026-04-29T14:23:55Z</time></trkpt><trkpt lat="43.05270569034313" lon="-1.3155436869124175"><ele>511.99999999999994</ele><time>2026-04-29T14:23:56Z</time></trkpt><trkpt lat="43.052622671309315" lon="-1.3155280167264678"><ele>512.0</ele><time>2026-04-29T14:23:57Z</time></trkpt><trkpt lat="43.052534987133534" lon="-1.315511518603346"><ele>511.8333333333333</ele><time>2026-04-29T14:23:58Z</time></trkpt><trkpt lat="43.05245308004686" lon="-1.3155228571486746"><ele>511.66666666666663</ele><time>2026-04-29T14:23:59Z</time></trkpt><trkpt lat="43.05236665788254" lon="-1.3155108085650569"><ele>511.5</ele><time>2026-04-29T14:24:00Z</time></trkpt><trkpt lat="43.05228215294648" lon="-1.3155118436468463"><ele>511.33333333333337</ele><time>2026-04-29T14:24:01Z</time></trkpt><trkpt lat="43.05219775728285" lon="-1.3155109056240575"><ele>511.1666666666667</ele><time>2026-04-29T14:24:02Z</time></trkpt><trkpt lat="43.052109054426374" lon="-1.3155240303796634"><ele>511.0</ele><time>2026-04-29T14:24:03Z</time></trkpt><trkpt lat="43.052023538136744" lon="-1.3155425338980793"><ele>512.8333333333334</ele><time>2026-04-29T14:24:04Z</time></trkpt><trkpt lat="43.051952709266196" lon="-1.3155993029770479"><ele>514.6666666666667</ele><time>2026-04-29T14:24:05Z</time></trkpt><trkpt lat="43.05188977648759" lon="-1.315659660491973"><ele>516.5</ele><time>2026-04-29T14:24:06Z</time></trkpt><trkpt lat="43.05183472339519" lon="-1.3157323105362038"><ele>518.3333333333334</ele><time>2026-04-29T14:24:07Z</time></trkpt><trkpt lat="43.05180183883252" lon="-1.3158208688462176"><ele>520.1666666666666</ele><time>2026-04-29T14:24:08Z</time></trkpt><trkpt lat="43.05177809604155" lon="-1.3159167279529076"><ele>522.0</ele><time>2026-04-29T14:24:09Z</time></trkpt><trkpt lat="43.05174788399604" lon="-1.3160153688204068"><ele>522.0</ele><time>2026-04-29T14:24:10Z</time></trkpt><trkpt lat="43.05170219632664" lon="-1.3160979212592112"><ele>522.0</ele><time>2026-04-29T14:24:11.001Z</time></trkpt><trkpt lat="43.05166817082016" lon="-1.3161880944146138"><ele>522.0</ele><time>2026-04-29T14:24:12.001Z</time></trkpt><trkpt lat="43.05162766175549" lon="-1.3162733380889307"><ele>522.0</ele><time>2026-04-29T14:24:13.001Z</time></trkpt><trkpt lat="43.05158680297721" lon="-1.316357000896605"><ele>522.0</ele><time>2026-04-29T14:24:14.001Z</time></trkpt><trkpt lat="43.051545739662664" lon="-1.3164374911791594"><ele>522.0</ele><time>2026-04-29T14:24:15.001Z</time></trkpt><trkpt lat="43.05150984267596" lon="-1.3165227829328412"><ele>522.0</ele><time>2026-04-29T14:24:16.001Z</time></trkpt><trkpt lat="43.051480494509484" lon="-1.3166194022561406"><ele>524.0</ele><time>2026-04-29T14:24:17.001Z</time></trkpt><trkpt lat="43.05145119046126" lon="-1.3167154867165483"><ele>526.0</ele><time>2026-04-29T14:24:18.001Z</time></trkpt><trkpt lat="43.05142518710129" lon="-1.316814981497781"><ele>528.0</ele><time>2026-04-29T14:24:19.001Z</time></trkpt><trkpt lat="43.05140597103633" lon="-1.316915555451603"><ele>530.0</ele><time>2026-04-29T14:24:20.001Z</time></trkpt><trkpt lat="43.05139367821271" lon="-1.3170177238425873"><ele>532.0</ele><time>2026-04-29T14:24:21.001Z</time></trkpt><trkpt lat="43.05138030741513" lon="-1.3171214704060605"><ele>534.0</ele><time>2026-04-29T14:24:22.001Z</time></trkpt><trkpt lat="43.051370939648166" lon="-1.317223040693273"><ele>532.6666666666666</ele><time>2026-04-29T14:24:23.001Z</time></trkpt><trkpt lat="43.0513631281807" lon="-1.317325550568903"><ele>531.3333333333334</ele><time>2026-04-29T14:24:24.001Z</time></trkpt><trkpt lat="43.051351693192814" lon="-1.3174309761904874"><ele>530.0</ele><time>2026-04-29T14:24:25.001Z</time></trkpt><trkpt lat="43.051335095980406" lon="-1.3175326043669697"><ele>528.6666666666667</ele><time>2026-04-29T14:24:26.001Z</time></trkpt><trkpt lat="43.05131199539471" lon="-1.3176304926097981"><ele>527.3333333333334</ele><time>2026-04-29T14:24:27.001Z</time></trkpt><trkpt lat="43.051281334313465" lon="-1.3177430994688788"><ele>526.0</ele><time>2026-04-29T14:24:28.001Z</time></trkpt><trkpt lat="43.05119666359433" lon="-1.3178851583804485"><ele>526.0</ele><time>2026-04-29T14:24:29.001Z</time></trkpt><trkpt lat="43.05113926053488" lon="-1.317967156407988"><ele>526.0</ele><time>2026-04-29T14:24:30.001Z</time></trkpt><trkpt lat="43.05103930182233" lon="-1.318031357774314"><ele>526.0</ele><time>2026-04-29T14:24:32.001Z</time></trkpt><trkpt lat="43.050990265818825" lon="-1.3181263027473065"><ele>526.0</ele><time>2026-04-29T14:24:33.001Z</time></trkpt><trkpt lat="43.05096365246818" lon="-1.318237896253086"><ele>526.0</ele><time>2026-04-29T14:24:34.001Z</time></trkpt><trkpt lat="43.05096624259265" lon="-1.318352697700237"><ele>526.0</ele><time>2026-04-29T14:24:35.001Z</time></trkpt><trkpt lat="43.05097627854512" lon="-1.3184691414053085"><ele>527.1666666666667</ele><time>2026-04-29T14:24:36.001Z</time></trkpt><trkpt lat="43.050991685984584" lon="-1.3185719622086185"><ele>528.3333333333334</ele><time>2026-04-29T14:24:37.001Z</time></trkpt><trkpt lat="43.05099503473113" lon="-1.3186823688312335"><ele>529.5</ele><time>2026-04-29T14:24:38.001Z</time></trkpt><trkpt lat="43.05098177935892" lon="-1.3187923895296791"><ele>530.6666666666666</ele><time>2026-04-29T14:24:39.001Z</time></trkpt><trkpt lat="43.050954642696176" lon="-1.3188988027766302"><ele>531.8333333333333</ele><time>2026-04-29T14:24:40.001Z</time></trkpt><trkpt lat="43.05092283712259" lon="-1.3190595176312714"><ele>533.0</ele><time>2026-04-29T14:24:41.001Z</time></trkpt><trkpt lat="43.05085926436493" lon="-1.319222082775599"><ele>534.1666666666666</ele><time>2026-04-29T14:24:42.001Z</time></trkpt><trkpt lat="43.050835202348466" lon="-1.3193126663955461"><ele>535.3333333333333</ele><time>2026-04-29T14:24:44.001Z</time></trkpt><trkpt lat="43.05079607729184" lon="-1.31940305718885"><ele>536.5</ele><time>2026-04-29T14:24:45.001Z</time></trkpt><trkpt lat="43.05074269788732" lon="-1.3194886942759771"><ele>537.6666666666666</ele><time>2026-04-29T14:24:46.001Z</time></trkpt><trkpt lat="43.05067085175353" lon="-1.319545222146988"><ele>538.8333333333334</ele><time>2026-04-29T14:24:47.001Z</time></trkpt><trkpt lat="43.05061303625399" lon="-1.319626405850055"><ele>540.0</ele><time>2026-04-29T14:24:48.001Z</time></trkpt><trkpt lat="43.05053100545494" lon="-1.3196965168386012"><ele>540.0</ele><time>2026-04-29T14:24:49.001Z</time></trkpt><trkpt lat="43.05046937498857" lon="-1.3197163764251463"><ele>540.0</ele><time>2026-04-29T14:24:50.001Z</time></trkpt><trkpt lat="43.050412708251095" lon="-1.3197847087785812"><ele>540.0</ele><time>2026-04-29T14:24:51.001Z</time></trkpt><trkpt lat="43.050344076823826" lon="-1.3198394910253723"><ele>540.0</ele><time>2026-04-29T14:24:52.001Z</time></trkpt><trkpt lat="43.05026386218213" lon="-1.3198608813313115"><ele>540.0</ele><time>2026-04-29T14:24:53.001Z</time></trkpt><trkpt lat="43.050189835552274" lon="-1.3199155413334231"><ele>540.0</ele><time>2026-04-29T14:24:54.001Z</time></trkpt><trkpt lat="43.05011573657256" lon="-1.3199546677097664"><ele>542.3333333333334</ele><time>2026-04-29T14:24:55.001Z</time></trkpt><trkpt lat="43.05003908417838" lon="-1.3199944334173779"><ele>544.6666666666666</ele><time>2026-04-29T14:24:56.001Z</time></trkpt><trkpt lat="43.04996329551348" lon="-1.3200235544895398"><ele>547.0</ele><time>2026-04-29T14:24:57.001Z</time></trkpt><trkpt lat="43.04988735539884" lon="-1.3200678389625355"><ele>549.3333333333333</ele><time>2026-04-29T14:24:58.001Z</time></trkpt><trkpt lat="43.049822012794365" lon="-1.3201339325593249"><ele>551.6666666666666</ele><time>2026-04-29T14:24:59.001Z</time></trkpt><trkpt lat="43.04979898274718" lon="-1.3202398345651851"><ele>554.0</ele><time>2026-04-29T14:25:00.001Z</time></trkpt><trkpt lat="43.04972816562583" lon="-1.3203296403098292"><ele>554.0</ele><time>2026-04-29T14:25:01.001Z</time></trkpt><trkpt lat="43.04964241556343" lon="-1.3203249250631173"><ele>554.0</ele><time>2026-04-29T14:25:02.001Z</time></trkpt><trkpt lat="43.049585402728255" lon="-1.3203980257254788"><ele>554.0</ele><time>2026-04-29T14:25:03.001Z</time></trkpt><trkpt lat="43.049540418465476" lon="-1.3204820773165622"><ele>554.0</ele><time>2026-04-29T14:25:04.001Z</time></trkpt><trkpt lat="43.04948037967901" lon="-1.3205420930277483"><ele>554.0</ele><time>2026-04-29T14:25:05.001Z</time></trkpt><trkpt lat="43.04940658026346" lon="-1.3205714148230212"><ele>554.0</ele><time>2026-04-29T14:25:06.001Z</time></trkpt><trkpt lat="43.049324360434376" lon="-1.3205591917193436"><ele>554.0</ele><time>2026-04-29T14:25:07.001Z</time></trkpt><trkpt lat="43.04925240002304" lon="-1.3204858065233112"><ele>554.0</ele><time>2026-04-29T14:25:08.001Z</time></trkpt><trkpt lat="43.04921332907836" lon="-1.320371656883258"><ele>554.0</ele><time>2026-04-29T14:25:09.001Z</time></trkpt><trkpt lat="43.04920712882303" lon="-1.3202451331303768"><ele>554.0</ele><time>2026-04-29T14:25:10.001Z</time></trkpt><trkpt lat="43.04921407214664" lon="-1.3201183863801638"><ele>554.0</ele><time>2026-04-29T14:25:11.001Z</time></trkpt><trkpt lat="43.04919238404702" lon="-1.3200001082901343"><ele>553.5</ele><time>2026-04-29T14:25:12.001Z</time></trkpt><trkpt lat="43.049123735498455" lon="-1.3199223749796771"><ele>553.0</ele><time>2026-04-29T14:25:13.001Z</time></trkpt><trkpt lat="43.04903799938815" lon="-1.3199003256297457"><ele>552.5</ele><time>2026-04-29T14:25:14.001Z</time></trkpt><trkpt lat="43.04895689941991" lon="-1.3199384619652892"><ele>552.0</ele><time>2026-04-29T14:25:15.001Z</time></trkpt><trkpt lat="43.04892249608106" lon="-1.3200576702840345"><ele>551.5</ele><time>2026-04-29T14:25:16.001Z</time></trkpt><trkpt lat="43.04887264572768" lon="-1.3201328150936393"><ele>551.0</ele><time>2026-04-29T14:25:17.001Z</time></trkpt><trkpt lat="43.04881365374125" lon="-1.3201975957988004"><ele>551.0</ele><time>2026-04-29T14:25:18.001Z</time></trkpt><trkpt lat="43.04879156598178" lon="-1.320301305884992"><ele>551.0</ele><time>2026-04-29T14:25:19.001Z</time></trkpt><trkpt lat="43.04876073815242" lon="-1.3203996541785887"><ele>551.0</ele><time>2026-04-29T14:25:20.001Z</time></trkpt><trkpt lat="43.04870595387764" lon="-1.32048386159065"><ele>551.0</ele><time>2026-04-29T14:25:21.001Z</time></trkpt><trkpt lat="43.048658924772006" lon="-1.3205728760591016"><ele>551.0</ele><time>2026-04-29T14:25:22.001Z</time></trkpt><trkpt lat="43.04861033570414" lon="-1.3206602273190258"><ele>551.0</ele><time>2026-04-29T14:25:23.001Z</time></trkpt><trkpt lat="43.0485501745611" lon="-1.3207366832682488"><ele>552.6666666666666</ele><time>2026-04-29T14:25:24.001Z</time></trkpt><trkpt lat="43.04847912652471" lon="-1.3208075469130145"><ele>554.3333333333333</ele><time>2026-04-29T14:25:25.001Z</time></trkpt><trkpt lat="43.04840234090993" lon="-1.3208598568816834"><ele>556.0</ele><time>2026-04-29T14:25:26.001Z</time></trkpt><trkpt lat="43.04831867361088" lon="-1.3208935009448386"><ele>557.6666666666666</ele><time>2026-04-29T14:25:27.002Z</time></trkpt><trkpt lat="43.04822752246256" lon="-1.3209060511138158"><ele>559.3333333333334</ele><time>2026-04-29T14:25:28.002Z</time></trkpt><trkpt lat="43.048132479518664" lon="-1.3209055043407059"><ele>561.0</ele><time>2026-04-29T14:25:29.002Z</time></trkpt><trkpt lat="43.04803747026262" lon="-1.3208951888547216"><ele>561.0</ele><time>2026-04-29T14:25:30Z</time></trkpt><trkpt lat="43.04793952743317" lon="-1.320883275881359"><ele>561.0</ele><time>2026-04-29T14:25:31Z</time></trkpt><trkpt lat="43.04784349052002" lon="-1.3208670101696056"><ele>561.0</ele><time>2026-04-29T14:25:32Z</time></trkpt><trkpt lat="43.0477452198011" lon="-1.3208462277262685"><ele>561.0</ele><time>2026-04-29T14:25:33Z</time></trkpt><trkpt lat="43.04764774479137" lon="-1.3208371135946115"><ele>561.0</ele><time>2026-04-29T14:25:34Z</time></trkpt><trkpt lat="43.04754890851802" lon="-1.3208606586494127"><ele>561.6</ele><time>2026-04-29T14:25:35Z</time></trkpt><trkpt lat="43.04745920546071" lon="-1.3209284896708389"><ele>562.2</ele><time>2026-04-29T14:25:36Z</time></trkpt><trkpt lat="43.04739160907941" lon="-1.3210357975394793"><ele>562.8</ele><time>2026-04-29T14:25:37Z</time></trkpt><trkpt lat="43.047350723509055" lon="-1.3211582214224558"><ele>563.4</ele><time>2026-04-29T14:25:38Z</time></trkpt><trkpt lat="43.04733021661508" lon="-1.3212894042931127"><ele>564.0</ele><time>2026-04-29T14:25:39Z</time></trkpt><trkpt lat="43.04731638752088" lon="-1.3214173123542057"><ele>562.8</ele><time>2026-04-29T14:25:40Z</time></trkpt><trkpt lat="43.04729297641582" lon="-1.3215259925058962"><ele>561.5999999999999</ele><time>2026-04-29T14:25:41Z</time></trkpt><trkpt lat="43.04725843757757" lon="-1.3217286669688042"><ele>560.4</ele><time>2026-04-29T14:25:43Z</time></trkpt><trkpt lat="43.047183247706236" lon="-1.3218513525510631"><ele>559.1999999999999</ele><time>2026-04-29T14:25:44Z</time></trkpt><trkpt lat="43.047125185259176" lon="-1.3219476035448914"><ele>558.0</ele><time>2026-04-29T14:25:45Z</time></trkpt><trkpt lat="43.04706479279383" lon="-1.322030914022994"><ele>558.0</ele><time>2026-04-29T14:25:46Z</time></trkpt><trkpt lat="43.04700203830544" lon="-1.322119455037927"><ele>558.0</ele><time>2026-04-29T14:25:47Z</time></trkpt><trkpt lat="43.04694276748543" lon="-1.3222113343201514"><ele>558.0</ele><time>2026-04-29T14:25:48Z</time></trkpt><trkpt lat="43.0468932442339" lon="-1.3223092704148969"><ele>558.0</ele><time>2026-04-29T14:25:49Z</time></trkpt><trkpt lat="43.04686627047229" lon="-1.3224243230974237"><ele>558.0</ele><time>2026-04-29T14:25:50Z</time></trkpt><trkpt lat="43.04682454543297" lon="-1.322530428570138"><ele>558.0</ele><time>2026-04-29T14:25:51Z</time></trkpt><trkpt lat="43.04676506440699" lon="-1.3226172539112242"><ele>560.1999999999999</ele><time>2026-04-29T14:25:52Z</time></trkpt><trkpt lat="43.046710013628264" lon="-1.322711303622164"><ele>562.4</ele><time>2026-04-29T14:25:53Z</time></trkpt><trkpt lat="43.04661253222439" lon="-1.3227360257641076"><ele>564.5999999999999</ele><time>2026-04-29T14:25:54Z</time></trkpt><trkpt lat="43.046519547848995" lon="-1.3227402977850267"><ele>566.8</ele><time>2026-04-29T14:25:55Z</time></trkpt><trkpt lat="43.046426980398" lon="-1.322728763500464"><ele>569.0</ele><time>2026-04-29T14:25:56Z</time></trkpt><trkpt lat="43.04634212026895" lon="-1.3227531844555995"><ele>569.0</ele><time>2026-04-29T14:25:57Z</time></trkpt><trkpt lat="43.0462542835292" lon="-1.3227694981060274"><ele>569.0</ele><time>2026-04-29T14:25:58Z</time></trkpt><trkpt lat="43.04617943873293" lon="-1.3228412411435513"><ele>569.0</ele><time>2026-04-29T14:25:59Z</time></trkpt><trkpt lat="43.04611482374518" lon="-1.3229343454489608"><ele>569.0</ele><time>2026-04-29T14:26:00Z</time></trkpt><trkpt lat="43.046071725806115" lon="-1.3230507738763917"><ele>569.0</ele><time>2026-04-29T14:26:01Z</time></trkpt><trkpt lat="43.04603192038352" lon="-1.3231634539374528"><ele>570.5</ele><time>2026-04-29T14:26:02Z</time></trkpt><trkpt lat="43.04598987801904" lon="-1.3232673761437364"><ele>572.0</ele><time>2026-04-29T14:26:03Z</time></trkpt><trkpt lat="43.04594626838247" lon="-1.3233748532597287"><ele>573.5</ele><time>2026-04-29T14:26:04Z</time></trkpt><trkpt lat="43.045905714408434" lon="-1.3234847639679719"><ele>575.0</ele><time>2026-04-29T14:26:05Z</time></trkpt><trkpt lat="43.045871811695605" lon="-1.323598564817867"><ele>576.5</ele><time>2026-04-29T14:26:06Z</time></trkpt><trkpt lat="43.04584986206447" lon="-1.323721777271513"><ele>578.0</ele><time>2026-04-29T14:26:07Z</time></trkpt><trkpt lat="43.04584330832942" lon="-1.3238430680419173"><ele>578.8333333333333</ele><time>2026-04-29T14:26:08Z</time></trkpt><trkpt lat="43.04584688892719" lon="-1.3239663068490075"><ele>579.6666666666666</ele><time>2026-04-29T14:26:09Z</time></trkpt><trkpt lat="43.04583620429259" lon="-1.3240848466081498"><ele>580.5</ele><time>2026-04-29T14:26:10Z</time></trkpt><trkpt lat="43.04579986107684" lon="-1.3241943524176223"><ele>581.3333333333334</ele><time>2026-04-29T14:26:11Z</time></trkpt><trkpt lat="43.04575074345338" lon="-1.3243013958791159"><ele>582.1666666666667</ele><time>2026-04-29T14:26:12Z</time></trkpt><trkpt lat="43.045701449079225" lon="-1.3244030545960002"><ele>583.0</ele><time>2026-04-29T14:26:13Z</time></trkpt><trkpt lat="43.04563317009628" lon="-1.3244987741640346"><ele>583.0</ele><time>2026-04-29T14:26:14Z</time></trkpt><trkpt lat="43.04556476133151" lon="-1.3245763630251994"><ele>583.0</ele><time>2026-04-29T14:26:15Z</time></trkpt><trkpt lat="43.04548577561549" lon="-1.3246423390004156"><ele>583.0</ele><time>2026-04-29T14:26:16Z</time></trkpt><trkpt lat="43.04539638654637" lon="-1.3246948075061957"><ele>583.0</ele><time>2026-04-29T14:26:17Z</time></trkpt><trkpt lat="43.045306672820395" lon="-1.324737308447147"><ele>583.0</ele><time>2026-04-29T14:26:18Z</time></trkpt><trkpt lat="43.04521672594617" lon="-1.324779822181132"><ele>584.8</ele><time>2026-04-29T14:26:19Z</time></trkpt><trkpt lat="43.04512276246277" lon="-1.3248022548213805"><ele>586.5999999999999</ele><time>2026-04-29T14:26:20.001Z</time></trkpt><trkpt lat="43.04503084337487" lon="-1.324829175494464"><ele>588.4000000000001</ele><time>2026-04-29T14:26:21.001Z</time></trkpt><trkpt lat="43.04494125528282" lon="-1.3248489860221968"><ele>590.2</ele><time>2026-04-29T14:26:22.001Z</time></trkpt><trkpt lat="43.04484711933701" lon="-1.3248964985896452"><ele>592.0</ele><time>2026-04-29T14:26:23.001Z</time></trkpt><trkpt lat="43.04475932021142" lon="-1.3249288696124473"><ele>592.0</ele><time>2026-04-29T14:26:24.001Z</time></trkpt><trkpt lat="43.04467238293693" lon="-1.3249780062217047"><ele>592.0</ele><time>2026-04-29T14:26:25.001Z</time></trkpt><trkpt lat="43.04459573653127" lon="-1.3250483004859666"><ele>592.0</ele><time>2026-04-29T14:26:26.001Z</time></trkpt><trkpt lat="43.0445245860695" lon="-1.3251380586507717"><ele>592.0</ele><time>2026-04-29T14:26:27.001Z</time></trkpt><trkpt lat="43.044483972931424" lon="-1.3252637926251003"><ele>592.0</ele><time>2026-04-29T14:26:28.001Z</time></trkpt><trkpt lat="43.044479953650985" lon="-1.3254036528584971"><ele>592.0</ele><time>2026-04-29T14:26:29.001Z</time></trkpt><trkpt lat="43.04450007361247" lon="-1.3255411745247532"><ele>592.0</ele><time>2026-04-29T14:26:30.001Z</time></trkpt><trkpt lat="43.04453621025839" lon="-1.3256686860509057"><ele>592.0</ele><time>2026-04-29T14:26:31.001Z</time></trkpt><trkpt lat="43.04457877853848" lon="-1.3257926901139552"><ele>592.0</ele><time>2026-04-29T14:26:32.001Z</time></trkpt><trkpt lat="43.044621112787524" lon="-1.325910466999861"><ele>592.0</ele><time>2026-04-29T14:26:33.001Z</time></trkpt><trkpt lat="43.04466820232379" lon="-1.32602301347728"><ele>593.2</ele><time>2026-04-29T14:26:34.001Z</time></trkpt><trkpt lat="43.04470369898469" lon="-1.3261428394694328"><ele>594.4000000000001</ele><time>2026-04-29T14:26:35.001Z</time></trkpt><trkpt lat="43.04471095434978" lon="-1.3262745539006722"><ele>595.5999999999999</ele><time>2026-04-29T14:26:36.001Z</time></trkpt><trkpt lat="43.04469157893042" lon="-1.3264098933149153"><ele>596.8</ele><time>2026-04-29T14:26:37.001Z</time></trkpt><trkpt lat="43.044659855742864" lon="-1.3265394594010211"><ele>598.0</ele><time>2026-04-29T14:26:38.001Z</time></trkpt><trkpt lat="43.04462450949616" lon="-1.3266659474643285"><ele>600.6666666666667</ele><time>2026-04-29T14:26:39.001Z</time></trkpt><trkpt lat="43.04458650063418" lon="-1.3267838888616548"><ele>603.3333333333334</ele><time>2026-04-29T14:26:40.001Z</time></trkpt><trkpt lat="43.04454594835756" lon="-1.3268861727349102"><ele>606.0</ele><time>2026-04-29T14:26:41.001Z</time></trkpt><trkpt lat="43.04448553090279" lon="-1.326961857628141"><ele>608.6666666666666</ele><time>2026-04-29T14:26:42.001Z</time></trkpt><trkpt lat="43.04440349659341" lon="-1.3269647760678902"><ele>611.3333333333333</ele><time>2026-04-29T14:26:43.001Z</time></trkpt><trkpt lat="43.0443256619143" lon="-1.3269433214607655"><ele>614.0</ele><time>2026-04-29T14:26:44.001Z</time></trkpt><trkpt lat="43.04428143845221" lon="-1.3268169220466135"><ele>614.0</ele><time>2026-04-29T14:26:45.001Z</time></trkpt><trkpt lat="43.044254452631506" lon="-1.3267033020563745"><ele>614.0</ele><time>2026-04-29T14:26:46.001Z</time></trkpt><trkpt lat="43.04428401113432" lon="-1.3265717867983289"><ele>614.0</ele><time>2026-04-29T14:26:47.001Z</time></trkpt><trkpt lat="43.044306686763335" lon="-1.3264563598257013"><ele>614.0</ele><time>2026-04-29T14:26:48.001Z</time></trkpt><trkpt lat="43.04429457460014" lon="-1.3263453177826998"><ele>614.0</ele><time>2026-04-29T14:26:49.001Z</time></trkpt><trkpt lat="43.044262721000955" lon="-1.326229513523492"><ele>614.0</ele><time>2026-04-29T14:26:50.001Z</time></trkpt><trkpt lat="43.04419977855887" lon="-1.3261243200449155"><ele>610.25</ele><time>2026-04-29T14:26:51.001Z</time></trkpt><trkpt lat="43.0441330192935" lon="-1.3259887816449547"><ele>606.5</ele><time>2026-04-29T14:26:52.001Z</time></trkpt><trkpt lat="43.044041917873656" lon="-1.3258568499503194"><ele>602.75</ele><time>2026-04-29T14:26:53.001Z</time></trkpt><trkpt lat="43.04394035978345" lon="-1.3258172111599253"><ele>599.0</ele><time>2026-04-29T14:26:55.001Z</time></trkpt><trkpt lat="43.04384324060346" lon="-1.32581654297498"><ele>599.0</ele><time>2026-04-29T14:26:56.001Z</time></trkpt><trkpt lat="43.04378224021532" lon="-1.3259355933342656"><ele>599.0</ele><time>2026-04-29T14:26:57.001Z</time></trkpt><trkpt lat="43.04375524551385" lon="-1.3260559079360255"><ele>599.0</ele><time>2026-04-29T14:26:58.001Z</time></trkpt><trkpt lat="43.04371977426742" lon="-1.3261644418108176"><ele>599.0</ele><time>2026-04-29T14:26:59.001Z</time></trkpt><trkpt lat="43.043676490190876" lon="-1.3262609615440886"><ele>599.0</ele><time>2026-04-29T14:27:00.001Z</time></trkpt><trkpt lat="43.04361035741521" lon="-1.3263385470740399"><ele>600.3333333333333</ele><time>2026-04-29T14:27:01.001Z</time></trkpt><trkpt lat="43.04355241146588" lon="-1.3264209230390214"><ele>601.6666666666666</ele><time>2026-04-29T14:27:02.001Z</time></trkpt><trkpt lat="43.04348945233373" lon="-1.3264923149446612"><ele>603.0</ele><time>2026-04-29T14:27:03.001Z</time></trkpt><trkpt lat="43.043423573732035" lon="-1.3265704373942824"><ele>604.3333333333334</ele><time>2026-04-29T14:27:04.001Z</time></trkpt><trkpt lat="43.04335904665094" lon="-1.3266418152162684"><ele>605.6666666666667</ele><time>2026-04-29T14:27:05.001Z</time></trkpt><trkpt lat="43.04328737120478" lon="-1.3266943445603159"><ele>607.0</ele><time>2026-04-29T14:27:06.001Z</time></trkpt><trkpt lat="43.043233289274106" lon="-1.3267738141538918"><ele>607.0</ele><time>2026-04-29T14:27:07.001Z</time></trkpt><trkpt lat="43.04318381984115" lon="-1.3268464192319507"><ele>607.0</ele><time>2026-04-29T14:27:08.001Z</time></trkpt><trkpt lat="43.04315446142697" lon="-1.3269604498502534"><ele>607.0</ele><time>2026-04-29T14:27:09.001Z</time></trkpt><trkpt lat="43.04312086902929" lon="-1.3270599210319247"><ele>607.0</ele><time>2026-04-29T14:27:10.001Z</time></trkpt><trkpt lat="43.04307545912799" lon="-1.32714627380941"><ele>607.0</ele><time>2026-04-29T14:27:11.001Z</time></trkpt><trkpt lat="43.04302128441225" lon="-1.327228124152915"><ele>607.0</ele><time>2026-04-29T14:27:12.001Z</time></trkpt><trkpt lat="43.042955883631365" lon="-1.3272960617501421"><ele>609.0</ele><time>2026-04-29T14:27:13.001Z</time></trkpt><trkpt lat="43.04288379322312" lon="-1.3273475128908676"><ele>611.0</ele><time>2026-04-29T14:27:14.001Z</time></trkpt><trkpt lat="43.04280722098362" lon="-1.327392413736145"><ele>613.0</ele><time>2026-04-29T14:27:15.001Z</time></trkpt><trkpt lat="43.042728857946244" lon="-1.3274361826421333"><ele>615.0</ele><time>2026-04-29T14:27:16.001Z</time></trkpt><trkpt lat="43.04264675764079" lon="-1.3274555940922321"><ele>617.0</ele><time>2026-04-29T14:27:17.001Z</time></trkpt><trkpt lat="43.04258289843382" lon="-1.3275313965918074"><ele>619.0</ele><time>2026-04-29T14:27:18.001Z</time></trkpt><trkpt lat="43.04254371752819" lon="-1.3276319638333183"><ele>619.0</ele><time>2026-04-29T14:27:19.001Z</time></trkpt><trkpt lat="43.04252280671908" lon="-1.327748323301725"><ele>619.0</ele><time>2026-04-29T14:27:20.001Z</time></trkpt><trkpt lat="43.042496868953876" lon="-1.3278618416724413"><ele>619.0</ele><time>2026-04-29T14:27:21.001Z</time></trkpt><trkpt lat="43.04248912782003" lon="-1.3279769075155603"><ele>619.0</ele><time>2026-04-29T14:27:22.001Z</time></trkpt><trkpt lat="43.04228881636272" lon="-1.3278718916764185"><ele>618.1666666666667</ele><time>2026-04-29T14:27:23.001Z</time></trkpt><trkpt lat="43.04220385184078" lon="-1.327889151757868"><ele>617.3333333333334</ele><time>2026-04-29T14:27:24.001Z</time></trkpt><trkpt lat="43.04211926245792" lon="-1.3278885546229524"><ele>616.5</ele><time>2026-04-29T14:27:25.001Z</time></trkpt><trkpt lat="43.04204617187883" lon="-1.3279132845255652"><ele>615.6666666666666</ele><time>2026-04-29T14:27:26.001Z</time></trkpt><trkpt lat="43.041964609489604" lon="-1.3279121184102822"><ele>614.8333333333333</ele><time>2026-04-29T14:27:27.001Z</time></trkpt><trkpt lat="43.041883414001454" lon="-1.32790372436671"><ele>614.0</ele><time>2026-04-29T14:27:28.001Z</time></trkpt><trkpt lat="43.041802649018365" lon="-1.327900408476444"><ele>614.0</ele><time>2026-04-29T14:27:29.001Z</time></trkpt><trkpt lat="43.041719729099015" lon="-1.3278774574451713"><ele>614.0</ele><time>2026-04-29T14:27:30.001Z</time></trkpt><trkpt lat="43.04163927796353" lon="-1.3278486548689286"><ele>614.0</ele><time>2026-04-29T14:27:31.001Z</time></trkpt><trkpt lat="43.04155168285112" lon="-1.3278573641869218"><ele>614.0</ele><time>2026-04-29T14:27:32.001Z</time></trkpt><trkpt lat="43.04143810854487" lon="-1.3279446919171431"><ele>614.0</ele><time>2026-04-29T14:27:33.001Z</time></trkpt><trkpt lat="43.041388885263494" lon="-1.3280709852969805"><ele>616.25</ele><time>2026-04-29T14:27:34.001Z</time></trkpt><trkpt lat="43.04131813130403" lon="-1.3282308333531145"><ele>618.5</ele><time>2026-04-29T14:27:35.001Z</time></trkpt><trkpt lat="43.04122522788629" lon="-1.327933391672302"><ele>620.75</ele><time>2026-04-29T14:27:36Z</time></trkpt><trkpt lat="43.04115241265877" lon="-1.327958335946427"><ele>623.0</ele><time>2026-04-29T14:27:37Z</time></trkpt><trkpt lat="43.0410743762044" lon="-1.327988007780776"><ele>623.0</ele><time>2026-04-29T14:27:38Z</time></trkpt><trkpt lat="43.04100276213735" lon="-1.3280083176398938"><ele>623.0</ele><time>2026-04-29T14:27:39Z</time></trkpt><trkpt lat="43.04091586054093" lon="-1.3280386133322015"><ele>623.0</ele><time>2026-04-29T14:27:40Z</time></trkpt><trkpt lat="43.040836857365775" lon="-1.3280621996423747"><ele>623.0</ele><time>2026-04-29T14:27:41Z</time></trkpt><trkpt lat="43.04075612173851" lon="-1.3280883178576166"><ele>623.0</ele><time>2026-04-29T14:27:42Z</time></trkpt><trkpt lat="43.04067706214825" lon="-1.328111558718447"><ele>623.0</ele><time>2026-04-29T14:27:43Z</time></trkpt><trkpt lat="43.04059948378604" lon="-1.3281370877899128"><ele>623.8333333333333</ele><time>2026-04-29T14:27:44Z</time></trkpt><trkpt lat="43.04052167996679" lon="-1.3281688693775884"><ele>624.6666666666666</ele><time>2026-04-29T14:27:45Z</time></trkpt><trkpt lat="43.04044961669374" lon="-1.3282038684477535"><ele>625.5</ele><time>2026-04-29T14:27:46Z</time></trkpt><trkpt lat="43.040372932948394" lon="-1.3282401723676773"><ele>626.3333333333334</ele><time>2026-04-29T14:27:47Z</time></trkpt><trkpt lat="43.04029545344198" lon="-1.3282861393726304"><ele>627.1666666666667</ele><time>2026-04-29T14:27:48Z</time></trkpt><trkpt lat="43.040219874981446" lon="-1.3283305616092709"><ele>628.0</ele><time>2026-04-29T14:27:49Z</time></trkpt><trkpt lat="43.0401465296256" lon="-1.3283736406603326"><ele>628.0</ele><time>2026-04-29T14:27:50Z</time></trkpt><trkpt lat="43.04007470389305" lon="-1.3284214121536233"><ele>628.0</ele><time>2026-04-29T14:27:51Z</time></trkpt><trkpt lat="43.04000084536555" lon="-1.3284724350024155"><ele>628.0</ele><time>2026-04-29T14:27:52Z</time></trkpt><trkpt lat="43.039932531801924" lon="-1.3285265905363757"><ele>628.0</ele><time>2026-04-29T14:27:53Z</time></trkpt><trkpt lat="43.03986100714195" lon="-1.32856883428171"><ele>628.0</ele><time>2026-04-29T14:27:54Z</time></trkpt><trkpt lat="43.03979360843191" lon="-1.3286082201243825"><ele>628.0</ele><time>2026-04-29T14:27:55Z</time></trkpt><trkpt lat="43.03972635679181" lon="-1.3286716506024299"><ele>628.6666666666667</ele><time>2026-04-29T14:27:56Z</time></trkpt><trkpt lat="43.03966417415139" lon="-1.3287266003456626"><ele>629.3333333333334</ele><time>2026-04-29T14:27:57Z</time></trkpt><trkpt lat="43.03960197434989" lon="-1.3287948047687508"><ele>630.0</ele><time>2026-04-29T14:27:58Z</time></trkpt><trkpt lat="43.03954800219379" lon="-1.3288656217869173"><ele>630.6666666666666</ele><time>2026-04-29T14:27:59Z</time></trkpt><trkpt lat="43.03949414980506" lon="-1.3289418641955633"><ele>631.3333333333333</ele><time>2026-04-29T14:28:00Z</time></trkpt><trkpt lat="43.039441608330435" lon="-1.3290195923928376"><ele>632.0</ele><time>2026-04-29T14:28:01Z</time></trkpt><trkpt lat="43.03939643486174" lon="-1.3290967645775282"><ele>632.5</ele><time>2026-04-29T14:28:02Z</time></trkpt><trkpt lat="43.03934866567556" lon="-1.3291769492212209"><ele>633.0</ele><time>2026-04-29T14:28:03Z</time></trkpt><trkpt lat="43.039312404736414" lon="-1.3292679149074822"><ele>633.5</ele><time>2026-04-29T14:28:04Z</time></trkpt><trkpt lat="43.0393025323298" lon="-1.3293861365843236"><ele>634.0</ele><time>2026-04-29T14:28:05Z</time></trkpt><trkpt lat="43.039283567546065" lon="-1.329488542761252"><ele>634.5</ele><time>2026-04-29T14:28:06Z</time></trkpt><trkpt lat="43.03926611804116" lon="-1.3295861616964364"><ele>635.0</ele><time>2026-04-29T14:28:07Z</time></trkpt><trkpt lat="43.03924808409203" lon="-1.3296852859219916"><ele>635.8571428571428</ele><time>2026-04-29T14:28:08Z</time></trkpt><trkpt lat="43.03924319633118" lon="-1.329787162188002"><ele>636.7142857142857</ele><time>2026-04-29T14:28:09Z</time></trkpt><trkpt lat="43.03923150576242" lon="-1.3298823787275484"><ele>637.5714285714286</ele><time>2026-04-29T14:28:10Z</time></trkpt><trkpt lat="43.039213039117335" lon="-1.3299841754430808"><ele>638.4285714285713</ele><time>2026-04-29T14:28:11Z</time></trkpt><trkpt lat="43.039182086783605" lon="-1.330079187690834"><ele>639.2857142857142</ele><time>2026-04-29T14:28:12Z</time></trkpt><trkpt lat="43.03913604543076" lon="-1.3301565065338716"><ele>640.1428571428571</ele><time>2026-04-29T14:28:13Z</time></trkpt><trkpt lat="43.039080545802506" lon="-1.330223118071903"><ele>641.0</ele><time>2026-04-29T14:28:14Z</time></trkpt><trkpt lat="43.03901581038372" lon="-1.330282361105061"><ele>641.0</ele><time>2026-04-29T14:28:15Z</time></trkpt><trkpt lat="43.03894599076894" lon="-1.3303408435468473"><ele>641.0</ele><time>2026-04-29T14:28:16Z</time></trkpt><trkpt lat="43.03887665319607" lon="-1.3303888530203483"><ele>641.0</ele><time>2026-04-29T14:28:17Z</time></trkpt><trkpt lat="43.03879931848253" lon="-1.3304289102706455"><ele>641.0</ele><time>2026-04-29T14:28:18Z</time></trkpt><trkpt lat="43.03871943935675" lon="-1.3304429891790939"><ele>641.0</ele><time>2026-04-29T14:28:19Z</time></trkpt><trkpt lat="43.0386326774802" lon="-1.3304325320672854"><ele>641.0</ele><time>2026-04-29T14:28:20Z</time></trkpt><trkpt lat="43.03854242031584" lon="-1.3304376577820902"><ele>641.0</ele><time>2026-04-29T14:28:21Z</time></trkpt><trkpt lat="43.03845904925211" lon="-1.3304192923952514"><ele>641.0</ele><time>2026-04-29T14:28:22Z</time></trkpt><trkpt lat="43.03836639323448" lon="-1.3304292208680035"><ele>641.0</ele><time>2026-04-29T14:28:23Z</time></trkpt><trkpt lat="43.03830463083412" lon="-1.330340158281808"><ele>641.0</ele><time>2026-04-29T14:28:24Z</time></trkpt><trkpt lat="43.038222876217944" lon="-1.33029517722152"><ele>641.0</ele><time>2026-04-29T14:28:25.001Z</time></trkpt><trkpt lat="43.03814109550469" lon="-1.3302503632020544"><ele>641.0</ele><time>2026-04-29T14:28:26.001Z</time></trkpt><trkpt lat="43.03806521840473" lon="-1.3302145637309848"><ele>641.6666666666666</ele><time>2026-04-29T14:28:27.001Z</time></trkpt><trkpt lat="43.037992387710915" lon="-1.3302130005518202"><ele>642.3333333333333</ele><time>2026-04-29T14:28:28.001Z</time></trkpt><trkpt lat="43.03793453242353" lon="-1.3302585722041906"><ele>643.0</ele><time>2026-04-29T14:28:29.001Z</time></trkpt><trkpt lat="43.037907328108595" lon="-1.3303458937863812"><ele>643.6666666666666</ele><time>2026-04-29T14:28:30.001Z</time></trkpt><trkpt lat="43.03792738173858" lon="-1.3304342151323414"><ele>644.3333333333334</ele><time>2026-04-29T14:28:31.001Z</time></trkpt><trkpt lat="43.038049387920196" lon="-1.3304964040387055"><ele>645.0</ele><time>2026-04-29T14:28:33.001Z</time></trkpt><trkpt lat="43.03812265554112" lon="-1.330491246907181"><ele>645.0</ele><time>2026-04-29T14:28:34.001Z</time></trkpt><trkpt lat="43.03819885889223" lon="-1.3305035111993593"><ele>645.0</ele><time>2026-04-29T14:28:35.001Z</time></trkpt><trkpt lat="43.03827922359764" lon="-1.3305170077292467"><ele>645.0</ele><time>2026-04-29T14:28:36.001Z</time></trkpt><trkpt lat="43.03835883798492" lon="-1.3305357740641892"><ele>645.0</ele><time>2026-04-29T14:28:37.001Z</time></trkpt><trkpt lat="43.038440360887925" lon="-1.3305625572334114"><ele>645.0</ele><time>2026-04-29T14:28:38.001Z</time></trkpt><trkpt lat="43.03852575934927" lon="-1.3305779456890015"><ele>645.0</ele><time>2026-04-29T14:28:39.001Z</time></trkpt><trkpt lat="43.03861491667439" lon="-1.3305850141587583"><ele>644.2</ele><time>2026-04-29T14:28:40.001Z</time></trkpt><trkpt lat="43.03870473379184" lon="-1.3305910557373966"><ele>643.4</ele><time>2026-04-29T14:28:41.001Z</time></trkpt><trkpt lat="43.03879419967468" lon="-1.3305915941647946"><ele>642.5999999999999</ele><time>2026-04-29T14:28:42.001Z</time></trkpt><trkpt lat="43.038883528850214" lon="-1.3305780904664117"><ele>641.8</ele><time>2026-04-29T14:28:43.001Z</time></trkpt><trkpt lat="43.038970022942436" lon="-1.330558054812271"><ele>641.0</ele><time>2026-04-29T14:28:44.001Z</time></trkpt><trkpt lat="43.03905852406497" lon="-1.3305168730674142"><ele>642.8</ele><time>2026-04-29T14:28:45.001Z</time></trkpt><trkpt lat="43.03913982568008" lon="-1.3304770318548462"><ele>644.5999999999999</ele><time>2026-04-29T14:28:46.001Z</time></trkpt><trkpt lat="43.03921609550017" lon="-1.3304093517673201"><ele>646.4</ele><time>2026-04-29T14:28:47.001Z</time></trkpt><trkpt lat="43.03928599529192" lon="-1.3303268508364734"><ele>648.2</ele><time>2026-04-29T14:28:48.001Z</time></trkpt><trkpt lat="43.03934800487169" lon="-1.3302268522856295"><ele>650.0</ele><time>2026-04-29T14:28:49.001Z</time></trkpt><trkpt lat="43.03939329008606" lon="-1.3301128485310587"><ele>650.0</ele><time>2026-04-29T14:28:50.001Z</time></trkpt><trkpt lat="43.039428774186234" lon="-1.3299894428450496"><ele>650.0</ele><time>2026-04-29T14:28:51.001Z</time></trkpt><trkpt lat="43.03946402507534" lon="-1.3298612284579545"><ele>650.0</ele><time>2026-04-29T14:28:52.001Z</time></trkpt><trkpt lat="43.03950035279542" lon="-1.3297354978435842"><ele>650.0</ele><time>2026-04-29T14:28:53.001Z</time></trkpt><trkpt lat="43.039548157829365" lon="-1.3296156202682814"><ele>650.0</ele><time>2026-04-29T14:28:54.001Z</time></trkpt><trkpt lat="43.03959909825513" lon="-1.3294965946958188"><ele>651.5</ele><time>2026-04-29T14:28:55.001Z</time></trkpt><trkpt lat="43.039678486440295" lon="-1.3294076462006366"><ele>653.0</ele><time>2026-04-29T14:28:56.001Z</time></trkpt><trkpt lat="43.039791836818715" lon="-1.3293476470395449"><ele>654.5</ele><time>2026-04-29T14:28:57.001Z</time></trkpt><trkpt lat="43.03991655039506" lon="-1.3293789998434546"><ele>656.0</ele><time>2026-04-29T14:28:58.001Z</time></trkpt><trkpt lat="43.04002750904058" lon="-1.3294384687793572"><ele>656.0</ele><time>2026-04-29T14:28:59.001Z</time></trkpt><trkpt lat="43.04000499814551" lon="-1.3291760825983954"><ele>656.0</ele><time>2026-04-29T14:29:00.001Z</time></trkpt><trkpt lat="43.04009215238234" lon="-1.32913150750453"><ele>656.0</ele><time>2026-04-29T14:29:01.001Z</time></trkpt><trkpt lat="43.04018114002201" lon="-1.3290941602985786"><ele>656.0</ele><time>2026-04-29T14:29:02.001Z</time></trkpt><trkpt lat="43.04026373485473" lon="-1.329063773342788"><ele>656.0</ele><time>2026-04-29T14:29:03.001Z</time></trkpt><trkpt lat="43.04035226737936" lon="-1.32904637608261"><ele>656.0</ele><time>2026-04-29T14:29:04.001Z</time></trkpt><trkpt lat="43.04043322341518" lon="-1.3290539372645498"><ele>656.0</ele><time>2026-04-29T14:29:05.001Z</time></trkpt><trkpt lat="43.040518708743555" lon="-1.3290924064463292"><ele>656.0</ele><time>2026-04-29T14:29:06.001Z</time></trkpt><trkpt lat="43.040597055251645" lon="-1.3291390745762237"><ele>656.0</ele><time>2026-04-29T14:29:07.001Z</time></trkpt><trkpt lat="43.04067303334998" lon="-1.3291806980197656"><ele>656.0</ele><time>2026-04-29T14:29:08.001Z</time></trkpt><trkpt lat="43.04074557713715" lon="-1.3292256974232162"><ele>658.5</ele><time>2026-04-29T14:29:09.001Z</time></trkpt><trkpt lat="43.04082160842314" lon="-1.3292609008344796"><ele>661.0</ele><time>2026-04-29T14:29:10.001Z</time></trkpt><trkpt lat="43.040902808773076" lon="-1.3292727741504664"><ele>663.5</ele><time>2026-04-29T14:29:11.001Z</time></trkpt><trkpt lat="43.04098462625658" lon="-1.329267528424745"><ele>666.0</ele><time>2026-04-29T14:29:12.001Z</time></trkpt><trkpt lat="43.04106230855296" lon="-1.3292424175663307"><ele>668.5</ele><time>2026-04-29T14:29:13.001Z</time></trkpt><trkpt lat="43.04113439589625" lon="-1.3292216549682572"><ele>671.0</ele><time>2026-04-29T14:29:14.001Z</time></trkpt><trkpt lat="43.04120899871354" lon="-1.329177994467552"><ele>671.0</ele><time>2026-04-29T14:29:15.001Z</time></trkpt><trkpt lat="43.04128458810024" lon="-1.3291419448971868"><ele>671.0</ele><time>2026-04-29T14:29:16.001Z</time></trkpt><trkpt lat="43.04136247929612" lon="-1.3291090597935133"><ele>671.0</ele><time>2026-04-29T14:29:17.001Z</time></trkpt><trkpt lat="43.04144157332235" lon="-1.329088969307213"><ele>671.0</ele><time>2026-04-29T14:29:18.001Z</time></trkpt><trkpt lat="43.04151797831125" lon="-1.3290730673632605"><ele>671.0</ele><time>2026-04-29T14:29:19.001Z</time></trkpt><trkpt lat="43.041597687183334" lon="-1.3290649045217076"><ele>671.0</ele><time>2026-04-29T14:29:20.001Z</time></trkpt><trkpt lat="43.0416744621281" lon="-1.3290611183990102"><ele>672.6666666666666</ele><time>2026-04-29T14:29:21.001Z</time></trkpt><trkpt lat="43.0417515332935" lon="-1.329062535393544"><ele>674.3333333333333</ele><time>2026-04-29T14:29:22.001Z</time></trkpt><trkpt lat="43.04182922769966" lon="-1.3290547884666872"><ele>676.0</ele><time>2026-04-29T14:29:23.001Z</time></trkpt><trkpt lat="43.04190859934402" lon="-1.3290513791768843"><ele>677.6666666666666</ele><time>2026-04-29T14:29:24.001Z</time></trkpt><trkpt lat="43.04198593423708" lon="-1.3290493311412472"><ele>679.3333333333334</ele><time>2026-04-29T14:29:25.001Z</time></trkpt><trkpt lat="43.04206295633027" lon="-1.3290475016416752"><ele>681.0</ele><time>2026-04-29T14:29:26.001Z</time></trkpt><trkpt lat="43.04213865499886" lon="-1.3290437119435932"><ele>681.0</ele><time>2026-04-29T14:29:27.001Z</time></trkpt><trkpt lat="43.04222138823714" lon="-1.3290536125313288"><ele>681.0</ele><time>2026-04-29T14:29:28.001Z</time></trkpt><trkpt lat="43.04229812793573" lon="-1.329051649664778"><ele>681.0</ele><time>2026-04-29T14:29:29.001Z</time></trkpt><trkpt lat="43.04237423531379" lon="-1.329041757858952"><ele>681.0</ele><time>2026-04-29T14:29:30.001Z</time></trkpt><trkpt lat="43.04245547107701" lon="-1.3290489554791183"><ele>681.0</ele><time>2026-04-29T14:29:31.001Z</time></trkpt><trkpt lat="43.04253458709346" lon="-1.3290411950914525"><ele>681.0</ele><time>2026-04-29T14:29:32.001Z</time></trkpt><trkpt lat="43.04260991811412" lon="-1.329037340266518"><ele>681.3333333333334</ele><time>2026-04-29T14:29:33.001Z</time></trkpt><trkpt lat="43.04268906051828" lon="-1.3290135291379928"><ele>681.6666666666666</ele><time>2026-04-29T14:29:34.001Z</time></trkpt><trkpt lat="43.042761526265316" lon="-1.3289692908532102"><ele>682.0</ele><time>2026-04-29T14:29:35.001Z</time></trkpt><trkpt lat="43.04283432023679" lon="-1.3289359587405343"><ele>682.3333333333333</ele><time>2026-04-29T14:29:36.001Z</time></trkpt><trkpt lat="43.042907863131695" lon="-1.3289131352642884"><ele>682.6666666666666</ele><time>2026-04-29T14:29:37.001Z</time></trkpt><trkpt lat="43.04298356980403" lon="-1.3289091295015376"><ele>683.0</ele><time>2026-04-29T14:29:38.001Z</time></trkpt><trkpt lat="43.0430634089478" lon="-1.3289283834607155"><ele>683.0</ele><time>2026-04-29T14:29:39.001Z</time></trkpt><trkpt lat="43.04313905928372" lon="-1.3289544636883273"><ele>683.0</ele><time>2026-04-29T14:29:40.001Z</time></trkpt><trkpt lat="43.04321500176342" lon="-1.3289992058750724"><ele>683.0</ele><time>2026-04-29T14:29:41.002Z</time></trkpt><trkpt lat="43.04328791498083" lon="-1.329049054621808"><ele>683.0</ele><time>2026-04-29T14:29:42Z</time></trkpt><trkpt lat="43.043357287048266" lon="-1.3291050384330603"><ele>683.0</ele><time>2026-04-29T14:29:43Z</time></trkpt><trkpt lat="43.0434211935884" lon="-1.3291718901753966"><ele>683.0</ele><time>2026-04-29T14:29:44Z</time></trkpt><trkpt lat="43.04345079140981" lon="-1.3292648657645214"><ele>683.0</ele><time>2026-04-29T14:29:45Z</time></trkpt><trkpt lat="43.04345055891382" lon="-1.3293589000723989"><ele>683.0</ele><time>2026-04-29T14:29:46Z</time></trkpt><trkpt lat="43.04339631558078" lon="-1.3294451151317996"><ele>683.0</ele><time>2026-04-29T14:29:47Z</time></trkpt><trkpt lat="43.04332668411015" lon="-1.3294854927961648"><ele>683.0</ele><time>2026-04-29T14:29:48Z</time></trkpt><trkpt lat="43.043246202616736" lon="-1.3294673552254264"><ele>683.0</ele><time>2026-04-29T14:29:49Z</time></trkpt><trkpt lat="43.04317712458066" lon="-1.3294060688933376"><ele>683.0</ele><time>2026-04-29T14:29:50Z</time></trkpt><trkpt lat="43.04311335705803" lon="-1.3293398328053454"><ele>683.0</ele><time>2026-04-29T14:29:51Z</time></trkpt><trkpt lat="43.0430489682472" lon="-1.3292825919538007"><ele>683.0</ele><time>2026-04-29T14:29:52Z</time></trkpt><trkpt lat="43.042972989290185" lon="-1.3292534746720068"><ele>683.0</ele><time>2026-04-29T14:29:53Z</time></trkpt><trkpt lat="43.04288643825557" lon="-1.329255001684711"><ele>683.0</ele><time>2026-04-29T14:29:54Z</time></trkpt><trkpt lat="43.042805802810655" lon="-1.3292702058471206"><ele>683.0</ele><time>2026-04-29T14:29:55Z</time></trkpt><trkpt lat="43.04273217810216" lon="-1.3292913646726148"><ele>683.0</ele><time>2026-04-29T14:29:56Z</time></trkpt><trkpt lat="43.04264797913092" lon="-1.3293224919964293"><ele>683.0</ele><time>2026-04-29T14:29:57Z</time></trkpt><trkpt lat="43.04256521502976" lon="-1.3293541458893483"><ele>683.0</ele><time>2026-04-29T14:29:58Z</time></trkpt><trkpt lat="43.04248029349633" lon="-1.3293950952093279"><ele>683.0</ele><time>2026-04-29T14:29:59Z</time></trkpt><trkpt lat="43.04240325250974" lon="-1.3294039690684762"><ele>683.0</ele><time>2026-04-29T14:30:00Z</time></trkpt><trkpt lat="43.04233169530882" lon="-1.3294002488472894"><ele>683.0</ele><time>2026-04-29T14:30:01Z</time></trkpt><trkpt lat="43.04214801039518" lon="-1.3294977418369616"><ele>682.6666666666666</ele><time>2026-04-29T14:30:03Z</time></trkpt><trkpt lat="43.04206766348972" lon="-1.3295369883210053"><ele>682.3333333333333</ele><time>2026-04-29T14:30:04Z</time></trkpt><trkpt lat="43.04199007993488" lon="-1.3295734180765915"><ele>682.0</ele><time>2026-04-29T14:30:05Z</time></trkpt><trkpt lat="43.04191309657902" lon="-1.3296107123655294"><ele>681.6666666666666</ele><time>2026-04-29T14:30:06Z</time></trkpt><trkpt lat="43.04184402060915" lon="-1.329654263916424"><ele>681.3333333333334</ele><time>2026-04-29T14:30:07Z</time></trkpt><trkpt lat="43.04177858606284" lon="-1.32969786961937"><ele>681.0</ele><time>2026-04-29T14:30:08Z</time></trkpt><trkpt lat="43.041709848822876" lon="-1.3297397652808562"><ele>682.4285714285714</ele><time>2026-04-29T14:30:09Z</time></trkpt><trkpt lat="43.04164210194679" lon="-1.3297853337399677"><ele>683.8571428571429</ele><time>2026-04-29T14:30:10Z</time></trkpt><trkpt lat="43.04157578000792" lon="-1.3298328018699421"><ele>685.2857142857142</ele><time>2026-04-29T14:30:11.001Z</time></trkpt><trkpt lat="43.04151566074542" lon="-1.3298851064079718"><ele>686.7142857142858</ele><time>2026-04-29T14:30:12.001Z</time></trkpt><trkpt lat="43.04145195728749" lon="-1.3299330107968255"><ele>688.1428571428571</ele><time>2026-04-29T14:30:13.001Z</time></trkpt><trkpt lat="43.04139213593374" lon="-1.3299853435889144"><ele>689.5714285714286</ele><time>2026-04-29T14:30:14.001Z</time></trkpt><trkpt lat="43.04132571779651" lon="-1.330024063189692"><ele>691.0</ele><time>2026-04-29T14:30:15.001Z</time></trkpt><trkpt lat="43.041264186258054" lon="-1.3300755216851698"><ele>690.9999999999999</ele><time>2026-04-29T14:30:16.001Z</time></trkpt><trkpt lat="43.04120206160957" lon="-1.3301188272509932"><ele>691.0</ele><time>2026-04-29T14:30:17.001Z</time></trkpt><trkpt lat="43.04113895246623" lon="-1.3301625664383496"><ele>691.0</ele><time>2026-04-29T14:30:18.001Z</time></trkpt><trkpt lat="43.041077770648236" lon="-1.330209863875556"><ele>691.0</ele><time>2026-04-29T14:30:19.001Z</time></trkpt><trkpt lat="43.041016287641625" lon="-1.3302546910038762"><ele>691.0</ele><time>2026-04-29T14:30:20.001Z</time></trkpt><trkpt lat="43.04095708936131" lon="-1.3303063764089404"><ele>690.9999999999999</ele><time>2026-04-29T14:30:21.001Z</time></trkpt><trkpt lat="43.04089883669402" lon="-1.3303551492004249"><ele>691.0</ele><time>2026-04-29T14:30:22.001Z</time></trkpt><trkpt lat="43.04083647952554" lon="-1.330404031921824"><ele>692.2857142857142</ele><time>2026-04-29T14:30:23.001Z</time></trkpt><trkpt lat="43.04077526673761" lon="-1.3304559094378912"><ele>693.5714285714286</ele><time>2026-04-29T14:30:24.001Z</time></trkpt><trkpt lat="43.04071617283491" lon="-1.330512737268222"><ele>694.8571428571429</ele><time>2026-04-29T14:30:25.001Z</time></trkpt><trkpt lat="43.04065355163753" lon="-1.3305643312831386"><ele>696.1428571428571</ele><time>2026-04-29T14:30:26.001Z</time></trkpt><trkpt lat="43.040591866429665" lon="-1.3306155854491826"><ele>697.4285714285714</ele><time>2026-04-29T14:30:27.001Z</time></trkpt><trkpt lat="43.040532272350276" lon="-1.3306711124533943"><ele>698.7142857142857</ele><time>2026-04-29T14:30:28.001Z</time></trkpt><trkpt lat="43.040472489702346" lon="-1.3307279854127008"><ele>700.0</ele><time>2026-04-29T14:30:29.001Z</time></trkpt><trkpt lat="43.04041072501939" lon="-1.330780751426649"><ele>700.0</ele><time>2026-04-29T14:30:30.001Z</time></trkpt><trkpt lat="43.04034885894648" lon="-1.3308324376564562"><ele>700.0</ele><time>2026-04-29T14:30:31.001Z</time></trkpt><trkpt lat="43.04028758247268" lon="-1.3308842270471672"><ele>700.0</ele><time>2026-04-29T14:30:32.001Z</time></trkpt><trkpt lat="43.04022686502419" lon="-1.3309384682938679"><ele>700.0</ele><time>2026-04-29T14:30:33.001Z</time></trkpt><trkpt lat="43.040168072345075" lon="-1.3309914361151538"><ele>700.0</ele><time>2026-04-29T14:30:34.001Z</time></trkpt><trkpt lat="43.04010942394867" lon="-1.3310417512311359"><ele>700.0</ele><time>2026-04-29T14:30:35.001Z</time></trkpt><trkpt lat="43.04004423104457" lon="-1.3310813395314298"><ele>700.0</ele><time>2026-04-29T14:30:36.001Z</time></trkpt><trkpt lat="43.03998046485722" lon="-1.3311295799666611"><ele>698.4285714285714</ele><time>2026-04-29T14:30:37.001Z</time></trkpt><trkpt lat="43.039918542241544" lon="-1.3311850990211072"><ele>696.8571428571429</ele><time>2026-04-29T14:30:38.001Z</time></trkpt><trkpt lat="43.03985781780283" lon="-1.3312421228504514"><ele>695.2857142857142</ele><time>2026-04-29T14:30:39.001Z</time></trkpt><trkpt lat="43.03979987661071" lon="-1.3312995814999"><ele>693.7142857142858</ele><time>2026-04-29T14:30:40.001Z</time></trkpt><trkpt lat="43.03973880680943" lon="-1.3313533551173247"><ele>692.1428571428571</ele><time>2026-04-29T14:30:41.001Z</time></trkpt><trkpt lat="43.03967986936919" lon="-1.3314155406035044"><ele>690.5714285714286</ele><time>2026-04-29T14:30:42.001Z</time></trkpt><trkpt lat="43.03962463699252" lon="-1.3314807899387184"><ele>689.0</ele><time>2026-04-29T14:30:43.001Z</time></trkpt><trkpt lat="43.03956884185944" lon="-1.33153761689027"><ele>692.1428571428571</ele><time>2026-04-29T14:30:44.001Z</time></trkpt><trkpt lat="43.039512932303175" lon="-1.3315949651040422"><ele>695.2857142857143</ele><time>2026-04-29T14:30:45.001Z</time></trkpt><trkpt lat="43.03946300536736" lon="-1.331656337014863"><ele>698.4285714285714</ele><time>2026-04-29T14:30:46.001Z</time></trkpt><trkpt lat="43.03941150334914" lon="-1.3317241049842523"><ele>701.5714285714286</ele><time>2026-04-29T14:30:47.001Z</time></trkpt><trkpt lat="43.03936414944499" lon="-1.331794216356918"><ele>704.7142857142857</ele><time>2026-04-29T14:30:48.001Z</time></trkpt><trkpt lat="43.039315507869716" lon="-1.331858081250346"><ele>707.8571428571429</ele><time>2026-04-29T14:30:49.001Z</time></trkpt><trkpt lat="43.039264336229394" lon="-1.3319259704584"><ele>711.0</ele><time>2026-04-29T14:30:50.001Z</time></trkpt><trkpt lat="43.03921937566827" lon="-1.3320003542063459"><ele>711.0</ele><time>2026-04-29T14:30:51.001Z</time></trkpt><trkpt lat="43.03918207770598" lon="-1.3320898045815714"><ele>711.0</ele><time>2026-04-29T14:30:52.001Z</time></trkpt><trkpt lat="43.039160018387655" lon="-1.332193469732276"><ele>711.0</ele><time>2026-04-29T14:30:53.001Z</time></trkpt><trkpt lat="43.03914641868625" lon="-1.3322960650447964"><ele>711.0</ele><time>2026-04-29T14:30:54.001Z</time></trkpt><trkpt lat="43.03916268712385" lon="-1.3324001564086827"><ele>711.0</ele><time>2026-04-29T14:30:55.001Z</time></trkpt><trkpt lat="43.03918962175369" lon="-1.3324961895773568"><ele>711.0</ele><time>2026-04-29T14:30:56.001Z</time></trkpt><trkpt lat="43.039214777651466" lon="-1.3326877971563131"><ele>713.4285714285714</ele><time>2026-04-29T14:30:58.001Z</time></trkpt><trkpt lat="43.03923288164241" lon="-1.3327861215067573"><ele>715.8571428571429</ele><time>2026-04-29T14:30:59.001Z</time></trkpt><trkpt lat="43.03922861168061" lon="-1.332883324648225"><ele>718.2857142857142</ele><time>2026-04-29T14:31:00.001Z</time></trkpt><trkpt lat="43.03923776998556" lon="-1.3329899022995448"><ele>720.7142857142858</ele><time>2026-04-29T14:31:01.001Z</time></trkpt><trkpt lat="43.03924514187387" lon="-1.3330884266283072"><ele>723.1428571428571</ele><time>2026-04-29T14:31:02.001Z</time></trkpt><trkpt lat="43.03924162652178" lon="-1.3331911032162216"><ele>725.5714285714286</ele><time>2026-04-29T14:31:03.001Z</time></trkpt><trkpt lat="43.03923783673604" lon="-1.3332915398187963"><ele>728.0</ele><time>2026-04-29T14:31:04.001Z</time></trkpt><trkpt lat="43.03923124515624" lon="-1.333398599819734"><ele>729.8</ele><time>2026-04-29T14:31:05.001Z</time></trkpt><trkpt lat="43.0392205724836" lon="-1.3335050162074589"><ele>731.5999999999999</ele><time>2026-04-29T14:31:06.001Z</time></trkpt><trkpt lat="43.039205813645495" lon="-1.3336226348181157"><ele>733.4000000000001</ele><time>2026-04-29T14:31:07.001Z</time></trkpt><trkpt lat="43.039181402649966" lon="-1.333790499672491"><ele>735.2</ele><time>2026-04-29T14:31:09.001Z</time></trkpt><trkpt lat="43.039185584431245" lon="-1.3339364183318378"><ele>737.0</ele><time>2026-04-29T14:31:10.001Z</time></trkpt><trkpt lat="43.039193752514684" lon="-1.3340451174603933"><ele>738.8333333333333</ele><time>2026-04-29T14:31:11.001Z</time></trkpt><trkpt lat="43.039213660411" lon="-1.334151443657714"><ele>740.6666666666666</ele><time>2026-04-29T14:31:12.001Z</time></trkpt><trkpt lat="43.03923144311418" lon="-1.33425286347428"><ele>742.5</ele><time>2026-04-29T14:31:13.001Z</time></trkpt><trkpt lat="43.03924133044713" lon="-1.334350082670962"><ele>744.3333333333334</ele><time>2026-04-29T14:31:14.001Z</time></trkpt><trkpt lat="43.039239631772936" lon="-1.3344475324953597"><ele>746.1666666666667</ele><time>2026-04-29T14:31:15.001Z</time></trkpt><trkpt lat="43.0392062968651" lon="-1.3345368507356907"><ele>748.0</ele><time>2026-04-29T14:31:16.001Z</time></trkpt><trkpt lat="43.03915100922766" lon="-1.3346135309469038"><ele>748.0</ele><time>2026-04-29T14:31:17.001Z</time></trkpt><trkpt lat="43.03908031131923" lon="-1.3346654079857496"><ele>748.0</ele><time>2026-04-29T14:31:18.001Z</time></trkpt><trkpt lat="43.039000092886795" lon="-1.3346716311419033"><ele>748.0</ele><time>2026-04-29T14:31:19.001Z</time></trkpt><trkpt lat="43.03891694837542" lon="-1.3346394766036684"><ele>748.0</ele><time>2026-04-29T14:31:20.001Z</time></trkpt><trkpt lat="43.03885021565116" lon="-1.3345961235330017"><ele>748.0</ele><time>2026-04-29T14:31:21.001Z</time></trkpt><trkpt lat="43.038780921492766" lon="-1.334545488059467"><ele>748.0</ele><time>2026-04-29T14:31:22.002Z</time></trkpt><trkpt lat="43.03871472082176" lon="-1.3344905807441148"><ele>748.0</ele><time>2026-04-29T14:31:23.002Z</time></trkpt><trkpt lat="43.03864830116399" lon="-1.3344287404859698"><ele>748.0</ele><time>2026-04-29T14:31:24.002Z</time></trkpt><trkpt lat="43.038586107574154" lon="-1.3343809577290673"><ele>748.0</ele><time>2026-04-29T14:31:25.002Z</time></trkpt><trkpt lat="43.038522395096145" lon="-1.334320782452705"><ele>748.0</ele><time>2026-04-29T14:31:26.002Z</time></trkpt><trkpt lat="43.038462215180104" lon="-1.334274369707393"><ele>748.0</ele><time>2026-04-29T14:31:27.002Z</time></trkpt><trkpt lat="43.038402259708626" lon="-1.3342041320625535"><ele>748.0</ele><time>2026-04-29T14:31:28.002Z</time></trkpt><trkpt lat="43.0383452355223" lon="-1.3341424433503324"><ele>744.5714285714286</ele><time>2026-04-29T14:31:29.002Z</time></trkpt><trkpt lat="43.03828541441612" lon="-1.3340849562273798"><ele>741.1428571428572</ele><time>2026-04-29T14:31:30.002Z</time></trkpt><trkpt lat="43.03822299132133" lon="-1.3340316906630607"><ele>737.7142857142858</ele><time>2026-04-29T14:31:31.002Z</time></trkpt><trkpt lat="43.0381560219311" lon="-1.3339921279983307"><ele>734.2857142857142</ele><time>2026-04-29T14:31:32.002Z</time></trkpt><trkpt lat="43.03807769074884" lon="-1.3339976597492247"><ele>730.8571428571429</ele><time>2026-04-29T14:31:33.002Z</time></trkpt><trkpt lat="43.038004066150116" lon="-1.3340221081333392"><ele>727.4285714285714</ele><time>2026-04-29T14:31:34.002Z</time></trkpt><trkpt lat="43.037948167531844" lon="-1.3340839006095984"><ele>724.0</ele><time>2026-04-29T14:31:35.002Z</time></trkpt><trkpt lat="43.03791004606453" lon="-1.334165405757935"><ele>724.0</ele><time>2026-04-29T14:31:36.002Z</time></trkpt><trkpt lat="43.03788629841488" lon="-1.3342506943456052"><ele>724.0</ele><time>2026-04-29T14:31:37.002Z</time></trkpt><trkpt lat="43.03787672984166" lon="-1.334341885183793"><ele>724.0</ele><time>2026-04-29T14:31:38.002Z</time></trkpt><trkpt lat="43.03786769504065" lon="-1.3344286217700607"><ele>724.0</ele><time>2026-04-29T14:31:39.002Z</time></trkpt><trkpt lat="43.03786638624165" lon="-1.3345183173991426"><ele>724.0</ele><time>2026-04-29T14:31:40.002Z</time></trkpt><trkpt lat="43.037862361527615" lon="-1.3346146289691172"><ele>724.0</ele><time>2026-04-29T14:31:41.002Z</time></trkpt><trkpt lat="43.037857737504815" lon="-1.334707300208279"><ele>724.0</ele><time>2026-04-29T14:31:42.002Z</time></trkpt><trkpt lat="43.037846925459085" lon="-1.3347965691287789"><ele>727.2857142857142</ele><time>2026-04-29T14:31:43.002Z</time></trkpt><trkpt lat="43.0378319879658" lon="-1.3348868338452424"><ele>730.5714285714286</ele><time>2026-04-29T14:31:44.002Z</time></trkpt><trkpt lat="43.03781115543989" lon="-1.3349779731471099"><ele>733.8571428571429</ele><time>2026-04-29T14:31:45.002Z</time></trkpt><trkpt lat="43.03778482538471" lon="-1.3350690561496183"><ele>737.1428571428571</ele><time>2026-04-29T14:31:46.002Z</time></trkpt><trkpt lat="43.03775263758603" lon="-1.3351547778325443"><ele>740.4285714285714</ele><time>2026-04-29T14:31:47.002Z</time></trkpt><trkpt lat="43.03771201785913" lon="-1.3352363038747417"><ele>743.7142857142857</ele><time>2026-04-29T14:31:48.001Z</time></trkpt><trkpt lat="43.037664491209846" lon="-1.3353150697639045"><ele>747.0</ele><time>2026-04-29T14:31:49.001Z</time></trkpt><trkpt lat="43.037614770406634" lon="-1.3353916623295492"><ele>747.0</ele><time>2026-04-29T14:31:50.001Z</time></trkpt><trkpt lat="43.03756524990923" lon="-1.335473044646981"><ele>747.0</ele><time>2026-04-29T14:31:51Z</time></trkpt><trkpt lat="43.03752454596513" lon="-1.3355599487061325"><ele>747.0</ele><time>2026-04-29T14:31:52Z</time></trkpt><trkpt lat="43.03748778833696" lon="-1.3356544251299374"><ele>747.0</ele><time>2026-04-29T14:31:53Z</time></trkpt><trkpt lat="43.037460969173786" lon="-1.335753681351765"><ele>747.0</ele><time>2026-04-29T14:31:54Z</time></trkpt><trkpt lat="43.03743631636254" lon="-1.3358490889541823"><ele>747.0</ele><time>2026-04-29T14:31:55Z</time></trkpt><trkpt lat="43.037407273119044" lon="-1.3359431499982182"><ele>748.3333333333334</ele><time>2026-04-29T14:31:56Z</time></trkpt><trkpt lat="43.0373726826911" lon="-1.3360342169763"><ele>749.6666666666666</ele><time>2026-04-29T14:31:57Z</time></trkpt><trkpt lat="43.03732865891197" lon="-1.3361116081459083"><ele>751.0</ele><time>2026-04-29T14:31:58Z</time></trkpt><trkpt lat="43.037273700379075" lon="-1.3361810051877725"><ele>752.3333333333333</ele><time>2026-04-29T14:31:59Z</time></trkpt><trkpt lat="43.03720585191379" lon="-1.336231371752366"><ele>753.6666666666666</ele><time>2026-04-29T14:32:00Z</time></trkpt><trkpt lat="43.037134922565706" lon="-1.3362575375479613"><ele>755.0</ele><time>2026-04-29T14:32:01Z</time></trkpt><trkpt lat="43.03705567718951" lon="-1.3362541680869449"><ele>755.0</ele><time>2026-04-29T14:32:02Z</time></trkpt><trkpt lat="43.0369774402968" lon="-1.336230709937378"><ele>755.0</ele><time>2026-04-29T14:32:03Z</time></trkpt><trkpt lat="43.03690258580232" lon="-1.3362117608092132"><ele>755.0</ele><time>2026-04-29T14:32:04Z</time></trkpt><trkpt lat="43.03682771449839" lon="-1.336203485954264"><ele>755.0</ele><time>2026-04-29T14:32:05Z</time></trkpt><trkpt lat="43.03675414567097" lon="-1.3362076629869737"><ele>755.0</ele><time>2026-04-29T14:32:06Z</time></trkpt><trkpt lat="43.036678122312075" lon="-1.33621806828494"><ele>755.0</ele><time>2026-04-29T14:32:07Z</time></trkpt><trkpt lat="43.03660969754581" lon="-1.3362446224147086"><ele>755.4285714285714</ele><time>2026-04-29T14:32:08Z</time></trkpt><trkpt lat="43.03654437143209" lon="-1.336284591349686"><ele>755.8571428571429</ele><time>2026-04-29T14:32:09Z</time></trkpt><trkpt lat="43.03647978462593" lon="-1.3363269474546826"><ele>756.2857142857143</ele><time>2026-04-29T14:32:10Z</time></trkpt><trkpt lat="43.03641264191297" lon="-1.3363690340013952"><ele>756.7142857142858</ele><time>2026-04-29T14:32:11Z</time></trkpt><trkpt lat="43.03635294092962" lon="-1.3364252332188682"><ele>757.1428571428571</ele><time>2026-04-29T14:32:12Z</time></trkpt><trkpt lat="43.03629821909745" lon="-1.3364910812609043"><ele>757.5714285714287</ele><time>2026-04-29T14:32:13Z</time></trkpt><trkpt lat="43.03624880343665" lon="-1.336559652222383"><ele>758.0</ele><time>2026-04-29T14:32:14Z</time></trkpt><trkpt lat="43.03620709419113" lon="-1.3366375976256202"><ele>758.0000000000001</ele><time>2026-04-29T14:32:15Z</time></trkpt><trkpt lat="43.03617519558308" lon="-1.3367238508930643"><ele>758.0</ele><time>2026-04-29T14:32:16Z</time></trkpt><trkpt lat="43.0361448963529" lon="-1.3368127266604415"><ele>758.0</ele><time>2026-04-29T14:32:17Z</time></trkpt><trkpt lat="43.03610793317431" lon="-1.3368924434210192"><ele>758.0</ele><time>2026-04-29T14:32:18Z</time></trkpt><trkpt lat="43.03607097271831" lon="-1.336972141919844"><ele>758.0</ele><time>2026-04-29T14:32:19Z</time></trkpt><trkpt lat="43.03603346013521" lon="-1.337057846732062"><ele>758.0000000000001</ele><time>2026-04-29T14:32:20Z</time></trkpt><trkpt lat="43.03600294273019" lon="-1.3371422075987345"><ele>758.0</ele><time>2026-04-29T14:32:21.001Z</time></trkpt><trkpt lat="43.03596898577375" lon="-1.337229308207499"><ele>758.4285714285714</ele><time>2026-04-29T14:32:22.001Z</time></trkpt><trkpt lat="43.03593173581235" lon="-1.337313623026795"><ele>758.8571428571429</ele><time>2026-04-29T14:32:23.001Z</time></trkpt><trkpt lat="43.03589385578462" lon="-1.3373958421756489"><ele>759.2857142857142</ele><time>2026-04-29T14:32:24.001Z</time></trkpt><trkpt lat="43.0358533075842" lon="-1.3374682604887453"><ele>759.7142857142858</ele><time>2026-04-29T14:32:25.001Z</time></trkpt><trkpt lat="43.035802590641126" lon="-1.3375375125524587"><ele>760.1428571428571</ele><time>2026-04-29T14:32:26.001Z</time></trkpt><trkpt lat="43.03574608186564" lon="-1.3376003892157882"><ele>760.5714285714286</ele><time>2026-04-29T14:32:27.001Z</time></trkpt><trkpt lat="43.03568848189643" lon="-1.3376510569276099"><ele>761.0</ele><time>2026-04-29T14:32:28.001Z</time></trkpt><trkpt lat="43.0356314268301" lon="-1.3377063168899361"><ele>760.9999999999999</ele><time>2026-04-29T14:32:29.001Z</time></trkpt><trkpt lat="43.035575521066995" lon="-1.3377628533848582"><ele>761.0</ele><time>2026-04-29T14:32:30.001Z</time></trkpt><trkpt lat="43.035518365488656" lon="-1.3378198679265991"><ele>761.0</ele><time>2026-04-29T14:32:31.001Z</time></trkpt><trkpt lat="43.03546113420585" lon="-1.3378773402922923"><ele>761.0</ele><time>2026-04-29T14:32:32.001Z</time></trkpt><trkpt lat="43.03540243886027" lon="-1.3379332697087152"><ele>761.0</ele><time>2026-04-29T14:32:33.001Z</time></trkpt><trkpt lat="43.03534231042027" lon="-1.337989547977873"><ele>760.9999999999999</ele><time>2026-04-29T14:32:34.001Z</time></trkpt><trkpt lat="43.03528134733513" lon="-1.3380500032197684"><ele>761.0</ele><time>2026-04-29T14:32:35.001Z</time></trkpt><trkpt lat="43.03522207254468" lon="-1.3381067128395034"><ele>761.1666666666666</ele><time>2026-04-29T14:32:36.001Z</time></trkpt><trkpt lat="43.0351625314883" lon="-1.3381630372615112"><ele>761.3333333333333</ele><time>2026-04-29T14:32:37.001Z</time></trkpt><trkpt lat="43.035100027697865" lon="-1.338216311942066"><ele>761.5</ele><time>2026-04-29T14:32:38.001Z</time></trkpt><trkpt lat="43.03503439080751" lon="-1.3382643472610487"><ele>761.6666666666666</ele><time>2026-04-29T14:32:39.001Z</time></trkpt><trkpt lat="43.03497091920946" lon="-1.3383155264322244"><ele>761.8333333333334</ele><time>2026-04-29T14:32:40.001Z</time></trkpt><trkpt lat="43.03485704524972" lon="-1.3384418383010044"><ele>762.0</ele><time>2026-04-29T14:32:42.001Z</time></trkpt><trkpt lat="43.03478923673705" lon="-1.3384812310791139"><ele>762.0</ele><time>2026-04-29T14:32:43.001Z</time></trkpt><trkpt lat="43.03473456739716" lon="-1.3385514981887001"><ele>762.0</ele><time>2026-04-29T14:32:44.001Z</time></trkpt><trkpt lat="43.03468899437336" lon="-1.338637395634142"><ele>762.0</ele><time>2026-04-29T14:32:45.001Z</time></trkpt><trkpt lat="43.034617968467295" lon="-1.3388022195133784"><ele>762.0</ele><time>2026-04-29T14:32:47.001Z</time></trkpt><trkpt lat="43.03457588818436" lon="-1.3388861076799252"><ele>762.0</ele><time>2026-04-29T14:32:48.001Z</time></trkpt><trkpt lat="43.03453635512952" lon="-1.338963201372186"><ele>762.0</ele><time>2026-04-29T14:32:49.001Z</time></trkpt><trkpt lat="43.034495193726784" lon="-1.33903954309037"><ele>762.1428571428571</ele><time>2026-04-29T14:32:50.001Z</time></trkpt><trkpt lat="43.03444030922259" lon="-1.3391098534863863"><ele>762.2857142857143</ele><time>2026-04-29T14:32:51.001Z</time></trkpt><trkpt lat="43.03439282707137" lon="-1.3391806223609186"><ele>762.4285714285714</ele><time>2026-04-29T14:32:52.001Z</time></trkpt><trkpt lat="43.034333903990365" lon="-1.3392405687728997"><ele>762.5714285714286</ele><time>2026-04-29T14:32:53.001Z</time></trkpt><trkpt lat="43.03427441089899" lon="-1.3392932848096903"><ele>762.7142857142858</ele><time>2026-04-29T14:32:54.001Z</time></trkpt><trkpt lat="43.03421851459854" lon="-1.3393600204740264"><ele>762.8571428571429</ele><time>2026-04-29T14:32:55.001Z</time></trkpt><trkpt lat="43.034157978447006" lon="-1.3394156451677652"><ele>763.0</ele><time>2026-04-29T14:32:56.001Z</time></trkpt><trkpt lat="43.03411179221699" lon="-1.339487600055529"><ele>763.0</ele><time>2026-04-29T14:32:57.001Z</time></trkpt><trkpt lat="43.0340679040766" lon="-1.3395670392450234"><ele>763.0</ele><time>2026-04-29T14:32:58.001Z</time></trkpt><trkpt lat="43.03402912041847" lon="-1.3396467634876408"><ele>763.0</ele><time>2026-04-29T14:32:59.001Z</time></trkpt><trkpt lat="43.03398195218076" lon="-1.3397199455002538"><ele>763.0</ele><time>2026-04-29T14:33:00.001Z</time></trkpt><trkpt lat="43.03392922737338" lon="-1.3397854108167488"><ele>763.0</ele><time>2026-04-29T14:33:01.001Z</time></trkpt><trkpt lat="43.033873768327794" lon="-1.3398504713425647"><ele>763.0</ele><time>2026-04-29T14:33:02.001Z</time></trkpt><trkpt lat="43.033820599130166" lon="-1.3399142026283903"><ele>763.0</ele><time>2026-04-29T14:33:03.001Z</time></trkpt><trkpt lat="43.03376577807049" lon="-1.3399835231805202"><ele>767.0</ele><time>2026-04-29T14:33:04.001Z</time></trkpt><trkpt lat="43.033711383296215" lon="-1.3400450521295155"><ele>771.0</ele><time>2026-04-29T14:33:05.001Z</time></trkpt><trkpt lat="43.03365358163344" lon="-1.3401026505462883"><ele>775.0</ele><time>2026-04-29T14:33:06.001Z</time></trkpt><trkpt lat="43.0336021762563" lon="-1.3401714159798854"><ele>779.0</ele><time>2026-04-29T14:33:07.001Z</time></trkpt><trkpt lat="43.03354538131462" lon="-1.340238158102024"><ele>783.0</ele><time>2026-04-29T14:33:08.001Z</time></trkpt><trkpt lat="43.033490255341746" lon="-1.3402993827670135"><ele>787.0</ele><time>2026-04-29T14:33:09.001Z</time></trkpt><trkpt lat="43.0334363486319" lon="-1.3403662483336942"><ele>791.0</ele><time>2026-04-29T14:33:10.001Z</time></trkpt><trkpt lat="43.033380670905125" lon="-1.3404282873556836"><ele>791.0000000000001</ele><time>2026-04-29T14:33:11.001Z</time></trkpt><trkpt lat="43.03331157373604" lon="-1.3405130096404654"><ele>791.0</ele><time>2026-04-29T14:33:12.001Z</time></trkpt><trkpt lat="43.033240674274715" lon="-1.3406625205975546"><ele>791.0</ele><time>2026-04-29T14:33:14.001Z</time></trkpt><trkpt lat="43.03320489703777" lon="-1.34075060933347"><ele>791.0</ele><time>2026-04-29T14:33:15.001Z</time></trkpt><trkpt lat="43.033186956901304" lon="-1.3408367522187392"><ele>791.0000000000001</ele><time>2026-04-29T14:33:16.001Z</time></trkpt><trkpt lat="43.03317165778268" lon="-1.3409357559091697"><ele>791.0</ele><time>2026-04-29T14:33:17.001Z</time></trkpt><trkpt lat="43.0331336634433" lon="-1.3410088281956671"><ele>793.0</ele><time>2026-04-29T14:33:18.001Z</time></trkpt><trkpt lat="43.033122603695666" lon="-1.3411174217468482"><ele>795.0</ele><time>2026-04-29T14:33:19.001Z</time></trkpt><trkpt lat="43.03312858184531" lon="-1.3412068262305061"><ele>797.0</ele><time>2026-04-29T14:33:20.001Z</time></trkpt><trkpt lat="43.033127163252516" lon="-1.3412996753346405"><ele>799.0</ele><time>2026-04-29T14:33:21.001Z</time></trkpt><trkpt lat="43.033142932607056" lon="-1.3414820251738102"><ele>801.0</ele><time>2026-04-29T14:33:23.001Z</time></trkpt><trkpt lat="43.03316646411951" lon="-1.3416573287877263"><ele>804.3333333333334</ele><time>2026-04-29T14:33:25.001Z</time></trkpt><trkpt lat="43.03318634396169" lon="-1.3417787361585574"><ele>807.6666666666667</ele><time>2026-04-29T14:33:27.001Z</time></trkpt><trkpt lat="43.03324876477019" lon="-1.3418700140592867"><ele>811.0</ele><time>2026-04-29T14:33:28.001Z</time></trkpt><trkpt lat="43.03327546401556" lon="-1.3419508586129238"><ele>814.3333333333334</ele><time>2026-04-29T14:33:29.001Z</time></trkpt><trkpt lat="43.03334146810173" lon="-1.3421038132009213"><ele>817.6666666666667</ele><time>2026-04-29T14:33:31.001Z</time></trkpt><trkpt lat="43.033376187541435" lon="-1.3421825933135936"><ele>821.0</ele><time>2026-04-29T14:33:32.001Z</time></trkpt><trkpt lat="43.033423732697884" lon="-1.3423516559937563"><ele>822.8571428571429</ele><time>2026-04-29T14:33:34.001Z</time></trkpt><trkpt lat="43.0334395011481" lon="-1.3424402581138895"><ele>824.7142857142858</ele><time>2026-04-29T14:33:35.001Z</time></trkpt><trkpt lat="43.03344766561364" lon="-1.3425328879065914"><ele>826.5714285714287</ele><time>2026-04-29T14:33:36.001Z</time></trkpt><trkpt lat="43.03344501756234" lon="-1.3426272617481192"><ele>828.4285714285714</ele><time>2026-04-29T14:33:37.001Z</time></trkpt><trkpt lat="43.033429417300425" lon="-1.3427231001690345"><ele>830.2857142857142</ele><time>2026-04-29T14:33:38.001Z</time></trkpt><trkpt lat="43.03339540698742" lon="-1.3428109679767384"><ele>832.1428571428572</ele><time>2026-04-29T14:33:39.001Z</time></trkpt><trkpt lat="43.033351044299614" lon="-1.3428858478731005"><ele>834.0</ele><time>2026-04-29T14:33:40.001Z</time></trkpt><trkpt lat="43.0332822373656" lon="-1.3429268157183303"><ele>836.0</ele><time>2026-04-29T14:33:41.001Z</time></trkpt><trkpt lat="43.03320867335049" lon="-1.3429160065164572"><ele>838.0</ele><time>2026-04-29T14:33:42.001Z</time></trkpt><trkpt lat="43.033123927757266" lon="-1.3428600389170542"><ele>840.0</ele><time>2026-04-29T14:33:43.001Z</time></trkpt><trkpt lat="43.0330658288152" lon="-1.3427989637114812"><ele>842.0</ele><time>2026-04-29T14:33:44.002Z</time></trkpt><trkpt lat="43.03301461339523" lon="-1.3427230054923924"><ele>844.0</ele><time>2026-04-29T14:33:45.002Z</time></trkpt><trkpt lat="43.03296774068423" lon="-1.342646092861253"><ele>846.0</ele><time>2026-04-29T14:33:46.002Z</time></trkpt><trkpt lat="43.032924215288745" lon="-1.3425656079905137"><ele>846.0</ele><time>2026-04-29T14:33:47.002Z</time></trkpt><trkpt lat="43.03287667978595" lon="-1.3424809874950692"><ele>846.0</ele><time>2026-04-29T14:33:48.002Z</time></trkpt><trkpt lat="43.03281887442748" lon="-1.342413468741234"><ele>846.0</ele><time>2026-04-29T14:33:49.002Z</time></trkpt><trkpt lat="43.03276156380934" lon="-1.342352738103266"><ele>846.0</ele><time>2026-04-29T14:33:50.002Z</time></trkpt><trkpt lat="43.03269141106046" lon="-1.342290474229392"><ele>846.0</ele><time>2026-04-29T14:33:51.002Z</time></trkpt><trkpt lat="43.032600815278805" lon="-1.3422502155493083"><ele>846.0</ele><time>2026-04-29T14:33:52.002Z</time></trkpt><trkpt lat="43.03251158470163" lon="-1.3422109726644837"><ele>844.1666666666666</ele><time>2026-04-29T14:33:53.002Z</time></trkpt><trkpt lat="43.03251367560297" lon="-1.3421100490448534"><ele>842.3333333333333</ele><time>2026-04-29T14:33:54Z</time></trkpt><trkpt lat="43.03244824863685" lon="-1.342050266034727"><ele>840.5</ele><time>2026-04-29T14:33:55Z</time></trkpt><trkpt lat="43.032383227259" lon="-1.3419891742435526"><ele>838.6666666666666</ele><time>2026-04-29T14:33:56Z</time></trkpt><trkpt lat="43.03231836166598" lon="-1.3419298821325596"><ele>836.8333333333333</ele><time>2026-04-29T14:33:57Z</time></trkpt><trkpt lat="43.03224523379384" lon="-1.3418733980972979"><ele>835.0</ele><time>2026-04-29T14:33:58Z</time></trkpt><trkpt lat="43.032172706293615" lon="-1.3418407745194556"><ele>834.9999999999999</ele><time>2026-04-29T14:33:59Z</time></trkpt><trkpt lat="43.0320905550103" lon="-1.341845092173466"><ele>835.0</ele><time>2026-04-29T14:34:00Z</time></trkpt><trkpt lat="43.03200940459248" lon="-1.3418855643343615"><ele>835.0</ele><time>2026-04-29T14:34:01Z</time></trkpt><trkpt lat="43.031942930623416" lon="-1.341955222962622"><ele>835.0</ele><time>2026-04-29T14:34:02Z</time></trkpt><trkpt lat="43.03189694985589" lon="-1.3420404623707611"><ele>834.9999999999999</ele><time>2026-04-29T14:34:03Z</time></trkpt><trkpt lat="43.03185217695075" lon="-1.3421222714358478"><ele>835.0</ele><time>2026-04-29T14:34:04Z</time></trkpt><trkpt lat="43.031799053371934" lon="-1.3422029107814768"><ele>837.4999999999999</ele><time>2026-04-29T14:34:05Z</time></trkpt><trkpt lat="43.03174936213103" lon="-1.3422912048388222"><ele>840.0</ele><time>2026-04-29T14:34:06Z</time></trkpt><trkpt lat="43.03170667213329" lon="-1.342388220679218"><ele>842.5</ele><time>2026-04-29T14:34:07Z</time></trkpt><trkpt lat="43.03166129446539" lon="-1.3424823606704936"><ele>845.0</ele><time>2026-04-29T14:34:08Z</time></trkpt><trkpt lat="43.031607862076314" lon="-1.3425655367779377"><ele>847.4999999999999</ele><time>2026-04-29T14:34:09Z</time></trkpt><trkpt lat="43.03154699426274" lon="-1.3426130928536422"><ele>850.0</ele><time>2026-04-29T14:34:10Z</time></trkpt><trkpt lat="43.03147632812957" lon="-1.3426213131254006"><ele>856.6666666666666</ele><time>2026-04-29T14:34:11Z</time></trkpt><trkpt lat="43.031404214676854" lon="-1.3425787326902"><ele>863.3333333333333</ele><time>2026-04-29T14:34:12Z</time></trkpt><trkpt lat="43.031358400006575" lon="-1.3424854468808056"><ele>870.0</ele><time>2026-04-29T14:34:13Z</time></trkpt><trkpt lat="43.03134754561073" lon="-1.3423718129154028"><ele>876.6666666666667</ele><time>2026-04-29T14:34:14Z</time></trkpt><trkpt lat="43.03136268007208" lon="-1.342252329703516"><ele>883.3333333333334</ele><time>2026-04-29T14:34:15Z</time></trkpt><trkpt lat="43.031411260714634" lon="-1.342139186366609"><ele>890.0</ele><time>2026-04-29T14:34:16Z</time></trkpt><trkpt lat="43.03147110500907" lon="-1.3420487884309298"><ele>890.4</ele><time>2026-04-29T14:34:17Z</time></trkpt><trkpt lat="43.03152997448913" lon="-1.3420083328077912"><ele>890.8</ele><time>2026-04-29T14:34:18Z</time></trkpt><trkpt lat="43.0315304815027" lon="-1.3418304801303882"><ele>891.2</ele><time>2026-04-29T14:34:19Z</time></trkpt><trkpt lat="43.0315262680208" lon="-1.3416890711733522"><ele>891.6</ele><time>2026-04-29T14:34:20Z</time></trkpt><trkpt lat="43.0315085031951" lon="-1.3415633916831402"><ele>892.0</ele><time>2026-04-29T14:34:21Z</time></trkpt><trkpt lat="43.0314778582864" lon="-1.3414399545236726"><ele>892.9999999999999</ele><time>2026-04-29T14:34:22Z</time></trkpt><trkpt lat="43.03143075098469" lon="-1.34132827103069"><ele>894.0</ele><time>2026-04-29T14:34:23Z</time></trkpt><trkpt lat="43.03137940887245" lon="-1.3412230624710264"><ele>895.0</ele><time>2026-04-29T14:34:24Z</time></trkpt><trkpt lat="43.03132740782645" lon="-1.3411271843963506"><ele>896.0</ele><time>2026-04-29T14:34:25Z</time></trkpt><trkpt lat="43.03128519975346" lon="-1.3410269220898305"><ele>896.9999999999999</ele><time>2026-04-29T14:34:26Z</time></trkpt><trkpt lat="43.03126984938626" lon="-1.3409151836598516"><ele>898.0</ele><time>2026-04-29T14:34:27Z</time></trkpt><trkpt lat="43.031283177233014" lon="-1.3408107090937238"><ele>897.9999999999999</ele><time>2026-04-29T14:34:28Z</time></trkpt><trkpt lat="43.03128735734628" lon="-1.3406989962856044"><ele>898.0</ele><time>2026-04-29T14:34:29Z</time></trkpt><trkpt lat="43.031318248675895" lon="-1.3405955392850848"><ele>898.0</ele><time>2026-04-29T14:34:30Z</time></trkpt><trkpt lat="43.03136471857616" lon="-1.3405027224931487"><ele>898.0</ele><time>2026-04-29T14:34:31Z</time></trkpt><trkpt lat="43.031405303638266" lon="-1.3404007244613576"><ele>897.9999999999999</ele><time>2026-04-29T14:34:32Z</time></trkpt><trkpt lat="43.031435128347404" lon="-1.3402966501791465"><ele>898.0</ele><time>2026-04-29T14:34:33Z</time></trkpt><trkpt lat="43.03146933688748" lon="-1.3401950780519947"><ele>897.9999999999999</ele><time>2026-04-29T14:34:34Z</time></trkpt><trkpt lat="43.03149045150059" lon="-1.3400876643844901"><ele>898.0</ele><time>2026-04-29T14:34:35.001Z</time></trkpt><trkpt lat="43.03150495175571" lon="-1.3399738174690912"><ele>898.0</ele><time>2026-04-29T14:34:36.001Z</time></trkpt><trkpt lat="43.03151858603204" lon="-1.3398763151047794"><ele>898.0</ele><time>2026-04-29T14:34:37.001Z</time></trkpt><trkpt lat="43.03151422479668" lon="-1.3397585167267434"><ele>897.9999999999999</ele><time>2026-04-29T14:34:38.001Z</time></trkpt><trkpt lat="43.03149270396788" lon="-1.3396556530781716"><ele>898.0</ele><time>2026-04-29T14:34:39.001Z</time></trkpt><trkpt lat="43.03145359471769" lon="-1.339562621125773"><ele>897.1428571428571</ele><time>2026-04-29T14:34:40.001Z</time></trkpt><trkpt lat="43.031400097108985" lon="-1.3394881534210272"><ele>896.2857142857142</ele><time>2026-04-29T14:34:41.001Z</time></trkpt><trkpt lat="43.03133863801927" lon="-1.3394272250834847"><ele>895.4285714285713</ele><time>2026-04-29T14:34:42.001Z</time></trkpt><trkpt lat="43.03128134647149" lon="-1.3393676455026362"><ele>894.5714285714286</ele><time>2026-04-29T14:34:43.001Z</time></trkpt><trkpt lat="43.03122280316513" lon="-1.339307965594696"><ele>893.7142857142857</ele><time>2026-04-29T14:34:44.001Z</time></trkpt><trkpt lat="43.03119096289981" lon="-1.33922153880639"><ele>892.8571428571429</ele><time>2026-04-29T14:34:45.001Z</time></trkpt><trkpt lat="43.031158153869626" lon="-1.3391352936735823"><ele>892.0</ele><time>2026-04-29T14:34:46.001Z</time></trkpt><trkpt lat="43.0311405114519" lon="-1.3390429457671127"><ele>892.0</ele><time>2026-04-29T14:34:47.001Z</time></trkpt><trkpt lat="43.0311353170404" lon="-1.3389450365549775"><ele>892.0</ele><time>2026-04-29T14:34:48.001Z</time></trkpt><trkpt lat="43.03113944302491" lon="-1.3388439812334803"><ele>892.0</ele><time>2026-04-29T14:34:49.001Z</time></trkpt><trkpt lat="43.03114337293899" lon="-1.3387461989415865"><ele>892.0</ele><time>2026-04-29T14:34:50.001Z</time></trkpt><trkpt lat="43.031151008499336" lon="-1.3386448558127497"><ele>892.0</ele><time>2026-04-29T14:34:51.001Z</time></trkpt><trkpt lat="43.0311542314756" lon="-1.3385428428215842"><ele>892.0</ele><time>2026-04-29T14:34:52.001Z</time></trkpt><trkpt lat="43.031156968506984" lon="-1.3384398280999044"><ele>892.0</ele><time>2026-04-29T14:34:53.001Z</time></trkpt><trkpt lat="43.031159883554004" lon="-1.338331784653075"><ele>891.8333333333333</ele><time>2026-04-29T14:34:54.001Z</time></trkpt><trkpt lat="43.03116451350652" lon="-1.3382242931729493"><ele>891.6666666666666</ele><time>2026-04-29T14:34:55.001Z</time></trkpt><trkpt lat="43.03116244853118" lon="-1.338114986811233"><ele>891.5</ele><time>2026-04-29T14:34:56.001Z</time></trkpt><trkpt lat="43.03114966834257" lon="-1.3380082729668883"><ele>891.3333333333333</ele><time>2026-04-29T14:34:57.001Z</time></trkpt><trkpt lat="43.03113206745321" lon="-1.337883334227028"><ele>891.1666666666666</ele><time>2026-04-29T14:34:58.001Z</time></trkpt><trkpt lat="43.031076812535005" lon="-1.337774876305332"><ele>891.0</ele><time>2026-04-29T14:34:59.001Z</time></trkpt><trkpt lat="43.0310187126601" lon="-1.3376073374899977"><ele>892.0</ele><time>2026-04-29T14:35:01.001Z</time></trkpt><trkpt lat="43.03097792260152" lon="-1.3375168287364174"><ele>893.0</ele><time>2026-04-29T14:35:02.001Z</time></trkpt><trkpt lat="43.03092993805211" lon="-1.3374325723519085"><ele>894.0</ele><time>2026-04-29T14:35:03.001Z</time></trkpt><trkpt lat="43.030887264144354" lon="-1.3373433683450362"><ele>895.0</ele><time>2026-04-29T14:35:04.001Z</time></trkpt><trkpt lat="43.03084397112808" lon="-1.3372598668518578"><ele>896.0</ele><time>2026-04-29T14:35:05.001Z</time></trkpt><trkpt lat="43.03079976129882" lon="-1.337169642600399"><ele>897.0</ele><time>2026-04-29T14:35:06.001Z</time></trkpt><trkpt lat="43.03075086996125" lon="-1.337081712187844"><ele>897.0</ele><time>2026-04-29T14:35:07.001Z</time></trkpt><trkpt lat="43.030712681338514" lon="-1.3369951788399947"><ele>897.0</ele><time>2026-04-29T14:35:08.001Z</time></trkpt><trkpt lat="43.030667094976124" lon="-1.3369087514328581"><ele>897.0</ele><time>2026-04-29T14:35:09.001Z</time></trkpt><trkpt lat="43.03062037914531" lon="-1.3368228003412457"><ele>897.0</ele><time>2026-04-29T14:35:10.001Z</time></trkpt><trkpt lat="43.030563852921446" lon="-1.3367467588774404"><ele>897.0</ele><time>2026-04-29T14:35:11.001Z</time></trkpt><trkpt lat="43.03050349260626" lon="-1.3366820557203387"><ele>897.0</ele><time>2026-04-29T14:35:12.001Z</time></trkpt><trkpt lat="43.030441528949396" lon="-1.336611633778495"><ele>897.0</ele><time>2026-04-29T14:35:13.001Z</time></trkpt><trkpt lat="43.03036826074352" lon="-1.33654840772751"><ele>897.0</ele><time>2026-04-29T14:35:14.001Z</time></trkpt><trkpt lat="43.030307444145755" lon="-1.33650081151353"><ele>897.0</ele><time>2026-04-29T14:35:15.001Z</time></trkpt><trkpt lat="43.030241813357584" lon="-1.3364580777518014"><ele>897.0</ele><time>2026-04-29T14:35:16.001Z</time></trkpt><trkpt lat="43.030172683537906" lon="-1.3364090866632374"><ele>897.0</ele><time>2026-04-29T14:35:17.001Z</time></trkpt><trkpt lat="43.03010588449814" lon="-1.336368870238735"><ele>897.0</ele><time>2026-04-29T14:35:18.001Z</time></trkpt><trkpt lat="43.03002200848645" lon="-1.3363477657425966"><ele>898.5</ele><time>2026-04-29T14:35:19.001Z</time></trkpt><trkpt lat="43.029956886396874" lon="-1.3363125776495615"><ele>900.0</ele><time>2026-04-29T14:35:20.001Z</time></trkpt><trkpt lat="43.02988486476703" lon="-1.3362822739462008"><ele>901.5</ele><time>2026-04-29T14:35:21.001Z</time></trkpt><trkpt lat="43.02981098098586" lon="-1.336259605809813"><ele>903.0</ele><time>2026-04-29T14:35:22.001Z</time></trkpt><trkpt lat="43.02973733692825" lon="-1.3362322729516964"><ele>904.5</ele><time>2026-04-29T14:35:23.001Z</time></trkpt><trkpt lat="43.02966361929387" lon="-1.3361929026903077"><ele>906.0</ele><time>2026-04-29T14:35:24.001Z</time></trkpt><trkpt lat="43.029611754475916" lon="-1.3361222068008278"><ele>906.0</ele><time>2026-04-29T14:35:25.001Z</time></trkpt><trkpt lat="43.02957656679133" lon="-1.3360304783838264"><ele>906.0</ele><time>2026-04-29T14:35:26.001Z</time></trkpt><trkpt lat="43.02954692660271" lon="-1.3359302066201433"><ele>906.0</ele><time>2026-04-29T14:35:27.001Z</time></trkpt><trkpt lat="43.029522635118376" lon="-1.3358306364026742"><ele>906.0</ele><time>2026-04-29T14:35:28.001Z</time></trkpt><trkpt lat="43.02950583325634" lon="-1.3357336079866489"><ele>906.0</ele><time>2026-04-29T14:35:29.001Z</time></trkpt><trkpt lat="43.02950756202628" lon="-1.3356251140090003"><ele>906.0</ele><time>2026-04-29T14:35:30.001Z</time></trkpt><trkpt lat="43.02948928258151" lon="-1.3355221159476767"><ele>903.5</ele><time>2026-04-29T14:35:31.001Z</time></trkpt><trkpt lat="43.02944564277887" lon="-1.3354234808773195"><ele>901.0</ele><time>2026-04-29T14:35:32.001Z</time></trkpt><trkpt lat="43.02941060703907" lon="-1.3353223623828678"><ele>898.5</ele><time>2026-04-29T14:35:33.001Z</time></trkpt><trkpt lat="43.02935076569414" lon="-1.3352706466095727"><ele>896.0</ele><time>2026-04-29T14:35:34.001Z</time></trkpt><trkpt lat="43.02929628982519" lon="-1.33518603618844"><ele>893.5</ele><time>2026-04-29T14:35:35.001Z</time></trkpt><trkpt lat="43.02924719777389" lon="-1.3351069270577258"><ele>891.0</ele><time>2026-04-29T14:35:36.001Z</time></trkpt><trkpt lat="43.029195479674364" lon="-1.3350328314095026"><ele>891.0000000000001</ele><time>2026-04-29T14:35:37.001Z</time></trkpt><trkpt lat="43.02914762050023" lon="-1.3349574831495419"><ele>891.0</ele><time>2026-04-29T14:35:38.001Z</time></trkpt><trkpt lat="43.02910524876725" lon="-1.334878816109554"><ele>891.0</ele><time>2026-04-29T14:35:39.001Z</time></trkpt><trkpt lat="43.029077622505696" lon="-1.3347885862553384"><ele>891.0</ele><time>2026-04-29T14:35:40.001Z</time></trkpt><trkpt lat="43.02906495784574" lon="-1.334691623623372"><ele>891.0</ele><time>2026-04-29T14:35:41.001Z</time></trkpt><trkpt lat="43.02907834012645" lon="-1.3345917291699616"><ele>891.0000000000001</ele><time>2026-04-29T14:35:42.001Z</time></trkpt><trkpt lat="43.0291128520153" lon="-1.3344927133144884"><ele>891.0</ele><time>2026-04-29T14:35:43.001Z</time></trkpt><trkpt lat="43.029159630475235" lon="-1.3344165196642597"><ele>890.5</ele><time>2026-04-29T14:35:44.001Z</time></trkpt><trkpt lat="43.02923386428121" lon="-1.3343576288178718"><ele>890.0</ele><time>2026-04-29T14:35:45.001Z</time></trkpt><trkpt lat="43.02930954822919" lon="-1.3343242650176956"><ele>889.5</ele><time>2026-04-29T14:35:46.001Z</time></trkpt><trkpt lat="43.02939174785765" lon="-1.3343001548150035"><ele>889.0</ele><time>2026-04-29T14:35:47.001Z</time></trkpt><trkpt lat="43.02946204359252" lon="-1.3342845942558361"><ele>888.5</ele><time>2026-04-29T14:35:48.001Z</time></trkpt><trkpt lat="43.02954639408723" lon="-1.3342456791352901"><ele>888.0</ele><time>2026-04-29T14:35:49.001Z</time></trkpt><trkpt lat="43.02960558647124" lon="-1.3341457400374936"><ele>888.0</ele><time>2026-04-29T14:35:50.001Z</time></trkpt><trkpt lat="43.02962423005148" lon="-1.334027154999012"><ele>888.0</ele><time>2026-04-29T14:35:51.001Z</time></trkpt><trkpt lat="43.029607883668284" lon="-1.3339123593659012"><ele>888.0</ele><time>2026-04-29T14:35:52.001Z</time></trkpt><trkpt lat="43.02955472929778" lon="-1.333822661884398"><ele>888.0</ele><time>2026-04-29T14:35:53.001Z</time></trkpt><trkpt lat="43.029480583406304" lon="-1.333770706417693"><ele>888.0</ele><time>2026-04-29T14:35:54.001Z</time></trkpt><trkpt lat="43.02940824318019" lon="-1.3337347268347206"><ele>888.0</ele><time>2026-04-29T14:35:55.001Z</time></trkpt><trkpt lat="43.02934107807917" lon="-1.3336944529155192"><ele>887.4285714285714</ele><time>2026-04-29T14:35:56.001Z</time></trkpt><trkpt lat="43.02927244802134" lon="-1.3336476537514108"><ele>886.8571428571429</ele><time>2026-04-29T14:35:57.001Z</time></trkpt><trkpt lat="43.02920146804955" lon="-1.3336070654313317"><ele>886.2857142857143</ele><time>2026-04-29T14:35:58.001Z</time></trkpt><trkpt lat="43.02913191919501" lon="-1.333565638200909"><ele>885.7142857142858</ele><time>2026-04-29T14:35:59.001Z</time></trkpt><trkpt lat="43.02906765292148" lon="-1.3335140095491795"><ele>885.1428571428571</ele><time>2026-04-29T14:36:00Z</time></trkpt><trkpt lat="43.02900259317633" lon="-1.333470086037488"><ele>884.5714285714287</ele><time>2026-04-29T14:36:01Z</time></trkpt><trkpt lat="43.02892995801677" lon="-1.333468001385205"><ele>884.0</ele><time>2026-04-29T14:36:02Z</time></trkpt><trkpt lat="43.02886159519553" lon="-1.3335195798115511"><ele>891.1666666666667</ele><time>2026-04-29T14:36:03Z</time></trkpt><trkpt lat="43.02883515603737" lon="-1.333616952659211"><ele>898.3333333333334</ele><time>2026-04-29T14:36:04Z</time></trkpt><trkpt lat="43.02885824809313" lon="-1.3337266909455736"><ele>905.5</ele><time>2026-04-29T14:36:05Z</time></trkpt><trkpt lat="43.02890718664753" lon="-1.3338093917921698"><ele>912.6666666666667</ele><time>2026-04-29T14:36:06Z</time></trkpt><trkpt lat="43.028967720045486" lon="-1.3338762469938867"><ele>919.8333333333334</ele><time>2026-04-29T14:36:07Z</time></trkpt><trkpt lat="43.029014435551034" lon="-1.3339504349979254"><ele>927.0</ele><time>2026-04-29T14:36:08Z</time></trkpt><trkpt lat="43.029041537991084" lon="-1.3340435323154822"><ele>927.0</ele><time>2026-04-29T14:36:09Z</time></trkpt><trkpt lat="43.029054782477886" lon="-1.3341412810623"><ele>927.0</ele><time>2026-04-29T14:36:10Z</time></trkpt><trkpt lat="43.02904261984668" lon="-1.3342409992276458"><ele>927.0</ele><time>2026-04-29T14:36:11Z</time></trkpt><trkpt lat="43.02901230416369" lon="-1.3343335334260764"><ele>927.0</ele><time>2026-04-29T14:36:12Z</time></trkpt><trkpt lat="43.0290025757086" lon="-1.3344286628140944"><ele>927.0</ele><time>2026-04-29T14:36:13Z</time></trkpt><trkpt lat="43.02893539852037" lon="-1.3344914936620178"><ele>927.0</ele><time>2026-04-29T14:36:14Z</time></trkpt><trkpt lat="43.028870450741216" lon="-1.3345496564260535"><ele>927.0</ele><time>2026-04-29T14:36:15Z</time></trkpt><trkpt lat="43.028792396234536" lon="-1.334597930362245"><ele>927.0</ele><time>2026-04-29T14:36:16Z</time></trkpt><trkpt lat="43.02872497318348" lon="-1.3346389816162179"><ele>927.0</ele><time>2026-04-29T14:36:17Z</time></trkpt><trkpt lat="43.028653669555496" lon="-1.3346669316606738"><ele>927.0</ele><time>2026-04-29T14:36:18Z</time></trkpt><trkpt lat="43.02857807891389" lon="-1.3346713074124625"><ele>927.0</ele><time>2026-04-29T14:36:19Z</time></trkpt><trkpt lat="43.028497325113705" lon="-1.3346772358231431"><ele>927.0</ele><time>2026-04-29T14:36:20Z</time></trkpt><trkpt lat="43.02842316640088" lon="-1.3347662586351603"><ele>927.4000000000001</ele><time>2026-04-29T14:36:22Z</time></trkpt><trkpt lat="43.028366165086474" lon="-1.3349167745547739"><ele>927.8000000000001</ele><time>2026-04-29T14:36:23Z</time></trkpt><trkpt lat="43.028390433084915" lon="-1.3350177408318298"><ele>928.2</ele><time>2026-04-29T14:36:24Z</time></trkpt><trkpt lat="43.028524111426265" lon="-1.3351367486675079"><ele>928.6</ele><time>2026-04-29T14:36:26Z</time></trkpt><trkpt lat="43.02859175751916" lon="-1.335192632080346"><ele>929.0</ele><time>2026-04-29T14:36:27Z</time></trkpt><trkpt lat="43.02865007123931" lon="-1.3352547361013256"><ele>929.0000000000001</ele><time>2026-04-29T14:36:28Z</time></trkpt><trkpt lat="43.02870634654541" lon="-1.3353131525645556"><ele>929.0</ele><time>2026-04-29T14:36:29Z</time></trkpt><trkpt lat="43.02875970991988" lon="-1.3353781097379194"><ele>929.0</ele><time>2026-04-29T14:36:30Z</time></trkpt><trkpt lat="43.02881621473305" lon="-1.3354584053152523"><ele>929.0</ele><time>2026-04-29T14:36:31Z</time></trkpt><trkpt lat="43.0289059455774" lon="-1.3356102283566196"><ele>929.0000000000001</ele><time>2026-04-29T14:36:33Z</time></trkpt><trkpt lat="43.02893200000997" lon="-1.3357094268986205"><ele>929.0</ele><time>2026-04-29T14:36:34Z</time></trkpt><trkpt lat="43.02896507889144" lon="-1.3358006022427913"><ele>932.8000000000001</ele><time>2026-04-29T14:36:35Z</time></trkpt><trkpt lat="43.028978689380644" lon="-1.3358996790575546"><ele>936.6000000000001</ele><time>2026-04-29T14:36:36Z</time></trkpt><trkpt lat="43.02898114640799" lon="-1.3360049282813329"><ele>940.4</ele><time>2026-04-29T14:36:37Z</time></trkpt><trkpt lat="43.0289683986517" lon="-1.3361231822742745"><ele>944.2</ele><time>2026-04-29T14:36:38Z</time></trkpt><trkpt lat="43.02892027188341" lon="-1.336296370593307"><ele>948.0</ele><time>2026-04-29T14:36:39Z</time></trkpt><trkpt lat="43.028861906158525" lon="-1.336387448567458"><ele>949.3333333333334</ele><time>2026-04-29T14:36:41Z</time></trkpt><trkpt lat="43.02880056647322" lon="-1.3364662669099425"><ele>950.6666666666667</ele><time>2026-04-29T14:36:42Z</time></trkpt><trkpt lat="43.02876723335219" lon="-1.3365594168561519"><ele>952.0</ele><time>2026-04-29T14:36:43Z</time></trkpt><trkpt lat="43.0287444227154" lon="-1.3366605862991938"><ele>953.3333333333334</ele><time>2026-04-29T14:36:44Z</time></trkpt><trkpt lat="43.02874595754378" lon="-1.336767874394225"><ele>954.6666666666667</ele><time>2026-04-29T14:36:45Z</time></trkpt><trkpt lat="43.02877526744309" lon="-1.336879196595707"><ele>956.0</ele><time>2026-04-29T14:36:46Z</time></trkpt><trkpt lat="43.02884007786307" lon="-1.3369670301245427"><ele>956.0000000000001</ele><time>2026-04-29T14:36:47Z</time></trkpt><trkpt lat="43.02892021986752" lon="-1.3370104312644042"><ele>956.0</ele><time>2026-04-29T14:36:48Z</time></trkpt><trkpt lat="43.02899883198378" lon="-1.337027308967259"><ele>956.0</ele><time>2026-04-29T14:36:49Z</time></trkpt><trkpt lat="43.02908310268774" lon="-1.3370379222685633"><ele>956.0</ele><time>2026-04-29T14:36:50Z</time></trkpt><trkpt lat="43.02916595057861" lon="-1.3370502563101208"><ele>956.0000000000001</ele><time>2026-04-29T14:36:51Z</time></trkpt><trkpt lat="43.02924627659992" lon="-1.337073391563518"><ele>956.0</ele><time>2026-04-29T14:36:52Z</time></trkpt><trkpt lat="43.02932791626186" lon="-1.3371077902949065"><ele>954.6666666666667</ele><time>2026-04-29T14:36:53.001Z</time></trkpt><trkpt lat="43.02940979999482" lon="-1.337137435607231"><ele>953.3333333333334</ele><time>2026-04-29T14:36:54.001Z</time></trkpt><trkpt lat="43.02948928025315" lon="-1.3371724025934657"><ele>952.0</ele><time>2026-04-29T14:36:55.001Z</time></trkpt><trkpt lat="43.02956635863372" lon="-1.3372103731081704"><ele>950.6666666666667</ele><time>2026-04-29T14:36:56.001Z</time></trkpt><trkpt lat="43.02964194704542" lon="-1.3372595851543125"><ele>949.3333333333334</ele><time>2026-04-29T14:36:57.001Z</time></trkpt><trkpt lat="43.029711067038534" lon="-1.337324014417918"><ele>948.0</ele><time>2026-04-29T14:36:58.001Z</time></trkpt><trkpt lat="43.02976640611855" lon="-1.3374061769485772"><ele>948.0</ele><time>2026-04-29T14:36:59.001Z</time></trkpt><trkpt lat="43.02982467454267" lon="-1.3374893352746509"><ele>948.0</ele><time>2026-04-29T14:37:00.001Z</time></trkpt><trkpt lat="43.02987693272141" lon="-1.3375730503237702"><ele>948.0</ele><time>2026-04-29T14:37:01.001Z</time></trkpt><trkpt lat="43.02993471440267" lon="-1.3376534529948947"><ele>948.0</ele><time>2026-04-29T14:37:02.001Z</time></trkpt><trkpt lat="43.02998515128038" lon="-1.3377382636773074"><ele>948.0</ele><time>2026-04-29T14:37:03.001Z</time></trkpt><trkpt lat="43.03003211692654" lon="-1.3378212406670607"><ele>948.0</ele><time>2026-04-29T14:37:04.001Z</time></trkpt><trkpt lat="43.03007173992146" lon="-1.3379212491663308"><ele>946.0</ele><time>2026-04-29T14:37:05.001Z</time></trkpt><trkpt lat="43.0300975362303" lon="-1.3380295023453876"><ele>944.0</ele><time>2026-04-29T14:37:06.001Z</time></trkpt><trkpt lat="43.03012037074125" lon="-1.3381391401390585"><ele>942.0</ele><time>2026-04-29T14:37:07.001Z</time></trkpt><trkpt lat="43.030136280751115" lon="-1.3382497408438279"><ele>940.0</ele><time>2026-04-29T14:37:08.001Z</time></trkpt><trkpt lat="43.03015311819806" lon="-1.3383548585016787"><ele>938.0</ele><time>2026-04-29T14:37:09.001Z</time></trkpt><trkpt lat="43.03015544481504" lon="-1.338464647447402"><ele>936.0</ele><time>2026-04-29T14:37:10.001Z</time></trkpt><trkpt lat="43.03014862543961" lon="-1.3385762109247188"><ele>936.0</ele><time>2026-04-29T14:37:11.001Z</time></trkpt><trkpt lat="43.03012964519242" lon="-1.3386863292668603"><ele>936.0</ele><time>2026-04-29T14:37:12.001Z</time></trkpt><trkpt lat="43.030106314513354" lon="-1.3387935445529076"><ele>936.0</ele><time>2026-04-29T14:37:13.001Z</time></trkpt><trkpt lat="43.03008195533037" lon="-1.3389035942406753"><ele>936.0</ele><time>2026-04-29T14:37:14.001Z</time></trkpt><trkpt lat="43.030060864736306" lon="-1.3390071257373939"><ele>936.0</ele><time>2026-04-29T14:37:15.001Z</time></trkpt><trkpt lat="43.030019625779715" lon="-1.3391025390462978"><ele>936.0</ele><time>2026-04-29T14:37:16.001Z</time></trkpt><trkpt lat="43.02998555241673" lon="-1.3392029259145757"><ele>937.1666666666666</ele><time>2026-04-29T14:37:17.001Z</time></trkpt><trkpt lat="43.029951345487156" lon="-1.3393046171015954"><ele>938.3333333333333</ele><time>2026-04-29T14:37:18.001Z</time></trkpt><trkpt lat="43.02994054356772" lon="-1.339416649690046"><ele>939.5</ele><time>2026-04-29T14:37:19.001Z</time></trkpt><trkpt lat="43.02994735510232" lon="-1.3395382979873702"><ele>940.6666666666666</ele><time>2026-04-29T14:37:20.001Z</time></trkpt><trkpt lat="43.029938615883914" lon="-1.3396497916267471"><ele>941.8333333333333</ele><time>2026-04-29T14:37:21.001Z</time></trkpt><trkpt lat="43.029963722660526" lon="-1.3397653051213414"><ele>943.0</ele><time>2026-04-29T14:37:22.001Z</time></trkpt><trkpt lat="43.030003781034594" lon="-1.339874270318975"><ele>942.9999999999999</ele><time>2026-04-29T14:37:23.001Z</time></trkpt><trkpt lat="43.03003572537743" lon="-1.3399787608411509"><ele>943.0</ele><time>2026-04-29T14:37:24.001Z</time></trkpt><trkpt lat="43.03005801177955" lon="-1.3400652411289609"><ele>943.0</ele><time>2026-04-29T14:37:25.001Z</time></trkpt><trkpt lat="43.03009593724924" lon="-1.340177902483529"><ele>943.0</ele><time>2026-04-29T14:37:26.001Z</time></trkpt><trkpt lat="43.03013382060763" lon="-1.3402785039500806"><ele>942.9999999999999</ele><time>2026-04-29T14:37:27.001Z</time></trkpt><trkpt lat="43.030154453151525" lon="-1.3403856136283316"><ele>943.0</ele><time>2026-04-29T14:37:28.001Z</time></trkpt><trkpt lat="43.03016469494348" lon="-1.3404961219325402"><ele>943.6666666666666</ele><time>2026-04-29T14:37:29.001Z</time></trkpt><trkpt lat="43.03016566717915" lon="-1.340609012812592"><ele>944.3333333333333</ele><time>2026-04-29T14:37:30.001Z</time></trkpt><trkpt lat="43.03017390358908" lon="-1.3407118851644115"><ele>945.0</ele><time>2026-04-29T14:37:31.001Z</time></trkpt><trkpt lat="43.03017074773829" lon="-1.3408399041332808"><ele>945.6666666666667</ele><time>2026-04-29T14:37:32.001Z</time></trkpt><trkpt lat="43.03016678286336" lon="-1.3409658176048644"><ele>946.3333333333334</ele><time>2026-04-29T14:37:33.001Z</time></trkpt><trkpt lat="43.030160140621945" lon="-1.3410922378789079"><ele>947.0</ele><time>2026-04-29T14:37:34.001Z</time></trkpt><trkpt lat="43.03016880596868" lon="-1.3412154438081554"><ele>947.0000000000001</ele><time>2026-04-29T14:37:35.001Z</time></trkpt><trkpt lat="43.03017263345417" lon="-1.3413268398612248"><ele>947.0</ele><time>2026-04-29T14:37:36.001Z</time></trkpt><trkpt lat="43.030155512887006" lon="-1.3414167636504593"><ele>947.0</ele><time>2026-04-29T14:37:37.001Z</time></trkpt><trkpt lat="43.030101023034526" lon="-1.3414775113397537"><ele>947.0</ele><time>2026-04-29T14:37:38.001Z</time></trkpt><trkpt lat="43.030032546621165" lon="-1.3414864036525664"><ele>947.0000000000001</ele><time>2026-04-29T14:37:39.001Z</time></trkpt><trkpt lat="43.02996007373197" lon="-1.3413996619021387"><ele>947.0</ele><time>2026-04-29T14:37:40.001Z</time></trkpt><trkpt lat="43.02988869894513" lon="-1.3412647159283566"><ele>947.0000000000001</ele><time>2026-04-29T14:37:41.001Z</time></trkpt><trkpt lat="43.02993451747263" lon="-1.3411120693502727"><ele>947.0</ele><time>2026-04-29T14:37:43.001Z</time></trkpt><trkpt lat="43.02995366900243" lon="-1.3410026779122755"><ele>947.0</ele><time>2026-04-29T14:37:44.001Z</time></trkpt><trkpt lat="43.02996081349546" lon="-1.3408980903855865"><ele>947.0</ele><time>2026-04-29T14:37:45.001Z</time></trkpt><trkpt lat="43.02997498190207" lon="-1.3407882954242247"><ele>947.0000000000001</ele><time>2026-04-29T14:37:46.001Z</time></trkpt><trkpt lat="43.02998070580372" lon="-1.3406777905297107"><ele>947.0</ele><time>2026-04-29T14:37:47.001Z</time></trkpt><trkpt lat="43.029978032692746" lon="-1.3405654667004536"><ele>953.3333333333334</ele><time>2026-04-29T14:37:48.001Z</time></trkpt><trkpt lat="43.029965930130736" lon="-1.340451562106109"><ele>959.6666666666667</ele><time>2026-04-29T14:37:49.001Z</time></trkpt><trkpt lat="43.02994906907525" lon="-1.3403397493043525"><ele>966.0</ele><time>2026-04-29T14:37:50.001Z</time></trkpt><trkpt lat="43.029927499750265" lon="-1.3402295135651876"><ele>972.3333333333333</ele><time>2026-04-29T14:37:51.001Z</time></trkpt><trkpt lat="43.02989745727851" lon="-1.3401302859311588"><ele>978.6666666666666</ele><time>2026-04-29T14:37:52.001Z</time></trkpt><trkpt lat="43.029865790189035" lon="-1.3400328651407554"><ele>985.0</ele><time>2026-04-29T14:37:53.001Z</time></trkpt><trkpt lat="43.02983145320833" lon="-1.3399388283757308"><ele>984.9999999999999</ele><time>2026-04-29T14:37:54.001Z</time></trkpt><trkpt lat="43.02979625749464" lon="-1.3398445758369162"><ele>985.0</ele><time>2026-04-29T14:37:55.001Z</time></trkpt><trkpt lat="43.02975668990206" lon="-1.3397530540967444"><ele>985.0</ele><time>2026-04-29T14:37:56.001Z</time></trkpt><trkpt lat="43.02971792474896" lon="-1.3396575017728314"><ele>985.0</ele><time>2026-04-29T14:37:57.001Z</time></trkpt><trkpt lat="43.02968262928536" lon="-1.3395625597258447"><ele>984.9999999999999</ele><time>2026-04-29T14:37:58.001Z</time></trkpt><trkpt lat="43.02966224724011" lon="-1.3394633328627905"><ele>985.0</ele><time>2026-04-29T14:37:59.001Z</time></trkpt><trkpt lat="43.02964513625668" lon="-1.3393631298414088"><ele>984.9999999999999</ele><time>2026-04-29T14:38:00.001Z</time></trkpt><trkpt lat="43.029637220692884" lon="-1.3392585451962937"><ele>985.0</ele><time>2026-04-29T14:38:01.001Z</time></trkpt><trkpt lat="43.02962379618212" lon="-1.3391604261508152"><ele>985.0</ele><time>2026-04-29T14:38:02.001Z</time></trkpt><trkpt lat="43.029619251126604" lon="-1.3390562399491577"><ele>985.0</ele><time>2026-04-29T14:38:03.001Z</time></trkpt><trkpt lat="43.02961234527993" lon="-1.3389501819281238"><ele>984.9999999999999</ele><time>2026-04-29T14:38:04.001Z</time></trkpt><trkpt lat="43.02963140413035" lon="-1.3388406618005275"><ele>985.0</ele><time>2026-04-29T14:38:05.001Z</time></trkpt><trkpt lat="43.02961690843073" lon="-1.3387303448848527"><ele>982.3333333333333</ele><time>2026-04-29T14:38:05.999Z</time></trkpt><trkpt lat="43.02960472966909" lon="-1.3386263708724706"><ele>979.6666666666666</ele><time>2026-04-29T14:38:06.999Z</time></trkpt><trkpt lat="43.02957960522461" lon="-1.338524771763798"><ele>977.0</ele><time>2026-04-29T14:38:07.999Z</time></trkpt><trkpt lat="43.02954640317453" lon="-1.3384321110444173"><ele>974.3333333333333</ele><time>2026-04-29T14:38:08.999Z</time></trkpt><trkpt lat="43.02951175719225" lon="-1.3383385455269203"><ele>971.6666666666666</ele><time>2026-04-29T14:38:09.999Z</time></trkpt><trkpt lat="43.02945494231931" lon="-1.3382650710719797"><ele>969.0</ele><time>2026-04-29T14:38:10.999Z</time></trkpt><trkpt lat="43.02939592468264" lon="-1.338201796476492"><ele>969.0</ele><time>2026-04-29T14:38:11.999Z</time></trkpt><trkpt lat="43.029323845913495" lon="-1.3381528662534958"><ele>969.0</ele><time>2026-04-29T14:38:12.999Z</time></trkpt><trkpt lat="43.02925837673552" lon="-1.3381094160358722"><ele>969.0</ele><time>2026-04-29T14:38:13.999Z</time></trkpt><trkpt lat="43.029186337400745" lon="-1.3380715631758335"><ele>969.0</ele><time>2026-04-29T14:38:14.999Z</time></trkpt><trkpt lat="43.02911335660091" lon="-1.3380395427602905"><ele>969.0</ele><time>2026-04-29T14:38:15.999Z</time></trkpt><trkpt lat="43.02903872563745" lon="-1.3380200582256574"><ele>969.0</ele><time>2026-04-29T14:38:16.999Z</time></trkpt><trkpt lat="43.028962725053184" lon="-1.338027397098361"><ele>968.6666666666666</ele><time>2026-04-29T14:38:17.999Z</time></trkpt><trkpt lat="43.02888587533903" lon="-1.3380270829108611"><ele>968.3333333333333</ele><time>2026-04-29T14:38:18.999Z</time></trkpt><trkpt lat="43.028810240123335" lon="-1.3380193321853215"><ele>968.0</ele><time>2026-04-29T14:38:20Z</time></trkpt><trkpt lat="43.02873537761781" lon="-1.3380006322695233"><ele>967.6666666666666</ele><time>2026-04-29T14:38:21Z</time></trkpt><trkpt lat="43.02865788642862" lon="-1.3379860873205993"><ele>967.3333333333333</ele><time>2026-04-29T14:38:22Z</time></trkpt><trkpt lat="43.02858021356189" lon="-1.337975500273614"><ele>967.0</ele><time>2026-04-29T14:38:23Z</time></trkpt><trkpt lat="43.02850387065742" lon="-1.337971565255012"><ele>966.9999999999999</ele><time>2026-04-29T14:38:24Z</time></trkpt><trkpt lat="43.0284290960241" lon="-1.3379594310889737"><ele>967.0</ele><time>2026-04-29T14:38:25Z</time></trkpt><trkpt lat="43.02835903669728" lon="-1.3379419430523825"><ele>967.0</ele><time>2026-04-29T14:38:26Z</time></trkpt><trkpt lat="43.028284163780015" lon="-1.3379131966856745"><ele>967.0</ele><time>2026-04-29T14:38:27Z</time></trkpt><trkpt lat="43.02821911158128" lon="-1.3378665309303128"><ele>966.9999999999999</ele><time>2026-04-29T14:38:28Z</time></trkpt><trkpt lat="43.02816168037901" lon="-1.337794401896368"><ele>967.0</ele><time>2026-04-29T14:38:29Z</time></trkpt><trkpt lat="43.028118707182024" lon="-1.3376980161816885"><ele>972.9999999999999</ele><time>2026-04-29T14:38:30Z</time></trkpt><trkpt lat="43.02808052914492" lon="-1.3376064506649836"><ele>979.0</ele><time>2026-04-29T14:38:31Z</time></trkpt><trkpt lat="43.02804986827718" lon="-1.3375054408151799"><ele>985.0</ele><time>2026-04-29T14:38:32Z</time></trkpt><trkpt lat="43.028015064331775" lon="-1.3374138739077661"><ele>991.0</ele><time>2026-04-29T14:38:33Z</time></trkpt><trkpt lat="43.02798656027126" lon="-1.3373234912767675"><ele>996.9999999999999</ele><time>2026-04-29T14:38:34Z</time></trkpt><trkpt lat="43.02795557269226" lon="-1.33722739988197"><ele>1003.0</ele><time>2026-04-29T14:38:35Z</time></trkpt><trkpt lat="43.02792185568897" lon="-1.3371344006459591"><ele>1003.0</ele><time>2026-04-29T14:38:36Z</time></trkpt><trkpt lat="43.02788231602012" lon="-1.3370506751486506"><ele>1002.9999999999999</ele><time>2026-04-29T14:38:37Z</time></trkpt><trkpt lat="43.02785316796969" lon="-1.3369588270241677"><ele>1003.0</ele><time>2026-04-29T14:38:38Z</time></trkpt><trkpt lat="43.02783467499735" lon="-1.3368589726777866"><ele>1003.0</ele><time>2026-04-29T14:38:39Z</time></trkpt><trkpt lat="43.027819117199954" lon="-1.3367581390094294"><ele>1002.9999999999999</ele><time>2026-04-29T14:38:40Z</time></trkpt><trkpt lat="43.0278093812145" lon="-1.3366546713960559"><ele>1003.0</ele><time>2026-04-29T14:38:41Z</time></trkpt><trkpt lat="43.027790555114194" lon="-1.3365553471539642"><ele>1003.0</ele><time>2026-04-29T14:38:42Z</time></trkpt><trkpt lat="43.02777531995503" lon="-1.336450750240389"><ele>1000.6666666666666</ele><time>2026-04-29T14:38:43Z</time></trkpt><trkpt lat="43.0277542822196" lon="-1.3363453267600456"><ele>998.3333333333333</ele><time>2026-04-29T14:38:44Z</time></trkpt><trkpt lat="43.02772422085506" lon="-1.3362523101627544"><ele>996.0</ele><time>2026-04-29T14:38:45Z</time></trkpt><trkpt lat="43.02765611145293" lon="-1.3360790293226383"><ele>993.6666666666667</ele><time>2026-04-29T14:38:47Z</time></trkpt><trkpt lat="43.02761169792481" lon="-1.3359929722591701"><ele>991.3333333333334</ele><time>2026-04-29T14:38:48Z</time></trkpt><trkpt lat="43.027567368904016" lon="-1.3359128851364865"><ele>989.0</ele><time>2026-04-29T14:38:49Z</time></trkpt><trkpt lat="43.027524464482276" lon="-1.3358320707879034"><ele>992.1666666666667</ele><time>2026-04-29T14:38:50Z</time></trkpt><trkpt lat="43.027476631251034" lon="-1.3357531248948902"><ele>995.3333333333334</ele><time>2026-04-29T14:38:51Z</time></trkpt><trkpt lat="43.027424454397426" lon="-1.3356763674287682"><ele>998.5</ele><time>2026-04-29T14:38:52Z</time></trkpt><trkpt lat="43.02736944057462" lon="-1.3356033499989974"><ele>1001.6666666666667</ele><time>2026-04-29T14:38:53Z</time></trkpt><trkpt lat="43.0273055447709" lon="-1.3355374118734773"><ele>1004.8333333333334</ele><time>2026-04-29T14:38:54Z</time></trkpt><trkpt lat="43.02723356546885" lon="-1.3354752291360528"><ele>1008.0</ele><time>2026-04-29T14:38:55Z</time></trkpt><trkpt lat="43.02713577513606" lon="-1.335445539592465"><ele>1008.0</ele><time>2026-04-29T14:38:56Z</time></trkpt><trkpt lat="43.02708552331081" lon="-1.3353920155623926"><ele>1008.0</ele><time>2026-04-29T14:38:57Z</time></trkpt><trkpt lat="43.027009047443684" lon="-1.3353623943198742"><ele>1008.0</ele><time>2026-04-29T14:38:58Z</time></trkpt><trkpt lat="43.026920742755735" lon="-1.3353344211892406"><ele>1008.0</ele><time>2026-04-29T14:38:59Z</time></trkpt><trkpt lat="43.026858311018415" lon="-1.3352845614848348"><ele>1008.0</ele><time>2026-04-29T14:39:00Z</time></trkpt><trkpt lat="43.02680569365895" lon="-1.335200754449869"><ele>1008.0</ele><time>2026-04-29T14:39:01Z</time></trkpt><trkpt lat="43.02676155761054" lon="-1.3350832502681438"><ele>1008.0</ele><time>2026-04-29T14:39:02Z</time></trkpt><trkpt lat="43.026755456657824" lon="-1.3349568132506964"><ele>1008.0</ele><time>2026-04-29T14:39:03Z</time></trkpt><trkpt lat="43.026783204693324" lon="-1.3348340285137825"><ele>1008.0</ele><time>2026-04-29T14:39:04Z</time></trkpt><trkpt lat="43.02682786914695" lon="-1.3347530553546332"><ele>1008.0</ele><time>2026-04-29T14:39:05Z</time></trkpt><trkpt lat="43.026895887938494" lon="-1.3346684420297763"><ele>1008.0</ele><time>2026-04-29T14:39:06Z</time></trkpt><trkpt lat="43.026897332702504" lon="-1.3345144291137363"><ele>1008.8</ele><time>2026-04-29T14:39:07Z</time></trkpt><trkpt lat="43.02695123033741" lon="-1.334410609153298"><ele>1009.5999999999999</ele><time>2026-04-29T14:39:08Z</time></trkpt><trkpt lat="43.02700114522779" lon="-1.3343142958978398"><ele>1010.4000000000001</ele><time>2026-04-29T14:39:09Z</time></trkpt><trkpt lat="43.02704663854067" lon="-1.3342152636609925"><ele>1011.2</ele><time>2026-04-29T14:39:10Z</time></trkpt><trkpt lat="43.027105168735204" lon="-1.3341180538436297"><ele>1012.0</ele><time>2026-04-29T14:39:11Z</time></trkpt><trkpt lat="43.02715234159334" lon="-1.3340082504261672"><ele>1012.0</ele><time>2026-04-29T14:39:12Z</time></trkpt><trkpt lat="43.02717012205247" lon="-1.3338917802707106"><ele>1012.0</ele><time>2026-04-29T14:39:13Z</time></trkpt><trkpt lat="43.02715612439447" lon="-1.333758712604075"><ele>1012.0</ele><time>2026-04-29T14:39:14Z</time></trkpt><trkpt lat="43.02713125853559" lon="-1.333654673587935"><ele>1012.0</ele><time>2026-04-29T14:39:15.001Z</time></trkpt><trkpt lat="43.027170578051106" lon="-1.3335700741543395"><ele>1012.0</ele><time>2026-04-29T14:39:17.001Z</time></trkpt><trkpt lat="43.02696338519832" lon="-1.3333637982907325"><ele>1011.3333333333333</ele><time>2026-04-29T14:39:18.001Z</time></trkpt><trkpt lat="43.02689905549581" lon="-1.3332898953116095"><ele>1010.6666666666666</ele><time>2026-04-29T14:39:19.001Z</time></trkpt><trkpt lat="43.02684670001185" lon="-1.3332062742497452"><ele>1010.0</ele><time>2026-04-29T14:39:20.001Z</time></trkpt><trkpt lat="43.02680727517875" lon="-1.3331072049881982"><ele>1009.3333333333333</ele><time>2026-04-29T14:39:21.001Z</time></trkpt><trkpt lat="43.02676748277762" lon="-1.3330109765718021"><ele>1008.6666666666666</ele><time>2026-04-29T14:39:22.001Z</time></trkpt><trkpt lat="43.02672971806264" lon="-1.3329158748243108"><ele>1008.0</ele><time>2026-04-29T14:39:23.001Z</time></trkpt><trkpt lat="43.02668745621799" lon="-1.3328253928043001"><ele>1004.6666666666666</ele><time>2026-04-29T14:39:24.001Z</time></trkpt><trkpt lat="43.026647751148644" lon="-1.33272706467341"><ele>1001.3333333333333</ele><time>2026-04-29T14:39:25.001Z</time></trkpt><trkpt lat="43.026597008375994" lon="-1.3326426665983617"><ele>998.0</ele><time>2026-04-29T14:39:26.001Z</time></trkpt><trkpt lat="43.026546692961006" lon="-1.3325610580488338"><ele>994.6666666666666</ele><time>2026-04-29T14:39:27.001Z</time></trkpt><trkpt lat="43.02649273912269" lon="-1.3324774975329305"><ele>991.3333333333333</ele><time>2026-04-29T14:39:28.001Z</time></trkpt><trkpt lat="43.02643734337045" lon="-1.3323950898459742"><ele>988.0</ele><time>2026-04-29T14:39:29.001Z</time></trkpt><trkpt lat="43.02638561238314" lon="-1.3323207539896318"><ele>991.3333333333333</ele><time>2026-04-29T14:39:30.001Z</time></trkpt><trkpt lat="43.02632838853395" lon="-1.3322455198785301"><ele>994.6666666666666</ele><time>2026-04-29T14:39:31.001Z</time></trkpt><trkpt lat="43.026270982177266" lon="-1.332176480754566"><ele>998.0</ele><time>2026-04-29T14:39:32.001Z</time></trkpt><trkpt lat="43.02620932719438" lon="-1.3321090384010654"><ele>1001.3333333333333</ele><time>2026-04-29T14:39:33.001Z</time></trkpt><trkpt lat="43.02614385202769" lon="-1.332044705186175"><ele>1004.6666666666666</ele><time>2026-04-29T14:39:34.001Z</time></trkpt><trkpt lat="43.02609097592695" lon="-1.3319735743198398"><ele>1008.0</ele><time>2026-04-29T14:39:35.001Z</time></trkpt><trkpt lat="43.02602860275367" lon="-1.3319050782386501"><ele>1008.0</ele><time>2026-04-29T14:39:36.001Z</time></trkpt><trkpt lat="43.02596999254605" lon="-1.3318376498568665"><ele>1008.0</ele><time>2026-04-29T14:39:37.001Z</time></trkpt><trkpt lat="43.02590891536916" lon="-1.3317579830082018"><ele>1008.0</ele><time>2026-04-29T14:39:38.001Z</time></trkpt><trkpt lat="43.02584936141311" lon="-1.331689402794118"><ele>1008.0</ele><time>2026-04-29T14:39:39.001Z</time></trkpt><trkpt lat="43.025798235696854" lon="-1.3316155687906965"><ele>1008.0</ele><time>2026-04-29T14:39:40.001Z</time></trkpt><trkpt lat="43.0257345195672" lon="-1.3315472983212624"><ele>1008.0</ele><time>2026-04-29T14:39:41.001Z</time></trkpt><trkpt lat="43.0256710574867" lon="-1.3314790739067286"><ele>1009.3333333333334</ele><time>2026-04-29T14:39:42.001Z</time></trkpt><trkpt lat="43.025612607618626" lon="-1.3314020430580797"><ele>1010.6666666666667</ele><time>2026-04-29T14:39:43.001Z</time></trkpt><trkpt lat="43.0255680006633" lon="-1.331325016360784"><ele>1012.0</ele><time>2026-04-29T14:39:44.001Z</time></trkpt><trkpt lat="43.02554183656534" lon="-1.331220506081279"><ele>1013.3333333333334</ele><time>2026-04-29T14:39:45.001Z</time></trkpt><trkpt lat="43.025428072307214" lon="-1.3312024982752277"><ele>1014.6666666666667</ele><time>2026-04-29T14:39:46.001Z</time></trkpt><trkpt lat="43.025359884419984" lon="-1.3311367688693112"><ele>1016.0</ele><time>2026-04-29T14:39:47.001Z</time></trkpt><trkpt lat="43.025310583140005" lon="-1.3310537954521"><ele>1016.0000000000001</ele><time>2026-04-29T14:39:48.001Z</time></trkpt><trkpt lat="43.02524045355008" lon="-1.3309936328157785"><ele>1016.0</ele><time>2026-04-29T14:39:49.001Z</time></trkpt><trkpt lat="43.025173620069204" lon="-1.3309306839837634"><ele>1016.0</ele><time>2026-04-29T14:39:50.001Z</time></trkpt><trkpt lat="43.02510791686944" lon="-1.330867245661626"><ele>1016.0</ele><time>2026-04-29T14:39:51.001Z</time></trkpt><trkpt lat="43.02504645595473" lon="-1.3307959928595208"><ele>1016.0000000000001</ele><time>2026-04-29T14:39:52.001Z</time></trkpt><trkpt lat="43.02497737152313" lon="-1.3307320867408348"><ele>1016.0</ele><time>2026-04-29T14:39:53.001Z</time></trkpt><trkpt lat="43.02490612573324" lon="-1.3306827413873368"><ele>1013.8333333333334</ele><time>2026-04-29T14:39:54.001Z</time></trkpt><trkpt lat="43.0248358650232" lon="-1.330617887476586"><ele>1011.6666666666667</ele><time>2026-04-29T14:39:55.001Z</time></trkpt><trkpt lat="43.02477910698631" lon="-1.3305564076653573"><ele>1009.5</ele><time>2026-04-29T14:39:56.001Z</time></trkpt><trkpt lat="43.02471052784111" lon="-1.330489948514962"><ele>1007.3333333333333</ele><time>2026-04-29T14:39:57.001Z</time></trkpt><trkpt lat="43.024647547865996" lon="-1.3304306030766324"><ele>1005.1666666666666</ele><time>2026-04-29T14:39:58.001Z</time></trkpt><trkpt lat="43.02458179116503" lon="-1.3303635695950164"><ele>1003.0</ele><time>2026-04-29T14:39:59.001Z</time></trkpt><trkpt lat="43.02450407110178" lon="-1.3303152666854123"><ele>1003.0</ele><time>2026-04-29T14:40:00.001Z</time></trkpt><trkpt lat="43.02442798754893" lon="-1.3302767495216508"><ele>1003.0</ele><time>2026-04-29T14:40:01.001Z</time></trkpt><trkpt lat="43.024336931779644" lon="-1.3302690151502596"><ele>1003.0</ele><time>2026-04-29T14:40:02.001Z</time></trkpt><trkpt lat="43.02424322609636" lon="-1.3302651731076431"><ele>1003.0</ele><time>2026-04-29T14:40:03.001Z</time></trkpt><trkpt lat="43.024149629522405" lon="-1.3303159143314318"><ele>1003.0</ele><time>2026-04-29T14:40:04.001Z</time></trkpt><trkpt lat="43.02401552225149" lon="-1.3303468490993726"><ele>1004.4999999999999</ele><time>2026-04-29T14:40:06.001Z</time></trkpt><trkpt lat="43.02394671508914" lon="-1.3303849037357975"><ele>1006.0</ele><time>2026-04-29T14:40:07.001Z</time></trkpt><trkpt lat="43.02387127438716" lon="-1.3304092620032366"><ele>1007.5</ele><time>2026-04-29T14:40:08.001Z</time></trkpt><trkpt lat="43.02379170338305" lon="-1.3304086853498263"><ele>1009.0</ele><time>2026-04-29T14:40:09.001Z</time></trkpt><trkpt lat="43.02371100886274" lon="-1.3304330584035502"><ele>1010.4999999999999</ele><time>2026-04-29T14:40:10.001Z</time></trkpt><trkpt lat="43.02363508889598" lon="-1.3304495309090485"><ele>1012.0</ele><time>2026-04-29T14:40:11.001Z</time></trkpt><trkpt lat="43.02356016550071" lon="-1.330422750875314"><ele>1011.9999999999999</ele><time>2026-04-29T14:40:11.999Z</time></trkpt><trkpt lat="43.02347867311269" lon="-1.3304430370753555"><ele>1012.0</ele><time>2026-04-29T14:40:12.999Z</time></trkpt><trkpt lat="43.02339822549275" lon="-1.330449861733509"><ele>1012.0</ele><time>2026-04-29T14:40:13.999Z</time></trkpt><trkpt lat="43.02331887060514" lon="-1.3304560562839645"><ele>1012.0</ele><time>2026-04-29T14:40:14.999Z</time></trkpt><trkpt lat="43.02323925425293" lon="-1.3304598104940903"><ele>1011.9999999999999</ele><time>2026-04-29T14:40:15.999Z</time></trkpt><trkpt lat="43.023160743506324" lon="-1.3304682294749948"><ele>1012.0</ele><time>2026-04-29T14:40:16.999Z</time></trkpt><trkpt lat="43.023086498578785" lon="-1.3304717661012397"><ele>1019.3333333333333</ele><time>2026-04-29T14:40:17.999Z</time></trkpt><trkpt lat="43.02301110372189" lon="-1.3304526245049053"><ele>1026.6666666666665</ele><time>2026-04-29T14:40:18.999Z</time></trkpt><trkpt lat="43.02293476656219" lon="-1.3304100512068813"><ele>1034.0</ele><time>2026-04-29T14:40:19.999Z</time></trkpt><trkpt lat="43.022877475086126" lon="-1.330328380363717"><ele>1041.3333333333333</ele><time>2026-04-29T14:40:20.999Z</time></trkpt><trkpt lat="43.02283346428624" lon="-1.3302290730553519"><ele>1048.6666666666667</ele><time>2026-04-29T14:40:21.999Z</time></trkpt><trkpt lat="43.02280830097628" lon="-1.3301187000618429"><ele>1056.0</ele><time>2026-04-29T14:40:22.999Z</time></trkpt><trkpt lat="43.02279952998306" lon="-1.330014395643267"><ele>1056.0</ele><time>2026-04-29T14:40:23.999Z</time></trkpt><trkpt lat="43.02280055095248" lon="-1.3299124479702524"><ele>1056.0</ele><time>2026-04-29T14:40:24.999Z</time></trkpt><trkpt lat="43.022794557054866" lon="-1.329811701222832"><ele>1056.0</ele><time>2026-04-29T14:40:25.999Z</time></trkpt><trkpt lat="43.022782758184434" lon="-1.3297155907477871"><ele>1056.0</ele><time>2026-04-29T14:40:26.999Z</time></trkpt><trkpt lat="43.02277265774397" lon="-1.3296167326891026"><ele>1056.0</ele><time>2026-04-29T14:40:27.999Z</time></trkpt><trkpt lat="43.022773081949374" lon="-1.3295112296895024"><ele>1056.0</ele><time>2026-04-29T14:40:28.999Z</time></trkpt><trkpt lat="43.02276931644105" lon="-1.3294061117937332"><ele>1056.0</ele><time>2026-04-29T14:40:29.999Z</time></trkpt><trkpt lat="43.02275971725633" lon="-1.3293050759099045"><ele>1056.0</ele><time>2026-04-29T14:40:30.999Z</time></trkpt><trkpt lat="43.02275246118346" lon="-1.329203157003174"><ele>1056.0</ele><time>2026-04-29T14:40:32Z</time></trkpt><trkpt lat="43.022747071374205" lon="-1.3291035652792733"><ele>1056.0</ele><time>2026-04-29T14:40:33Z</time></trkpt><trkpt lat="43.02275152308265" lon="-1.3289977343067734"><ele>1056.0</ele><time>2026-04-29T14:40:34Z</time></trkpt><trkpt lat="43.02276106703233" lon="-1.3288933474389555"><ele>1056.0</ele><time>2026-04-29T14:40:35Z</time></trkpt><trkpt lat="43.02277083407933" lon="-1.3287916317028179"><ele>1056.0</ele><time>2026-04-29T14:40:36Z</time></trkpt><trkpt lat="43.02278846408443" lon="-1.328686907000909"><ele>1056.5</ele><time>2026-04-29T14:40:37Z</time></trkpt><trkpt lat="43.02280831842502" lon="-1.328583520825694"><ele>1057.0</ele><time>2026-04-29T14:40:38Z</time></trkpt><trkpt lat="43.02283387669978" lon="-1.3284810881733549"><ele>1057.5</ele><time>2026-04-29T14:40:39Z</time></trkpt><trkpt lat="43.02285731592585" lon="-1.3283795535275082"><ele>1058.0</ele><time>2026-04-29T14:40:40Z</time></trkpt><trkpt lat="43.022888768671045" lon="-1.3282752410887655"><ele>1058.5</ele><time>2026-04-29T14:40:41Z</time></trkpt><trkpt lat="43.02290836821123" lon="-1.3281652947997578"><ele>1059.0</ele><time>2026-04-29T14:40:42Z</time></trkpt><trkpt lat="43.02291852441539" lon="-1.3280637958707293"><ele>1057.8</ele><time>2026-04-29T14:40:43Z</time></trkpt><trkpt lat="43.02292641658248" lon="-1.3279362247160562"><ele>1056.6000000000001</ele><time>2026-04-29T14:40:44Z</time></trkpt><trkpt lat="43.02292259325713" lon="-1.3277853401897268"><ele>1055.4</ele><time>2026-04-29T14:40:45Z</time></trkpt><trkpt lat="43.02284026417456" lon="-1.3276302522904457"><ele>1054.2</ele><time>2026-04-29T14:40:47Z</time></trkpt><trkpt lat="43.022802731716794" lon="-1.3275253041180408"><ele>1053.0</ele><time>2026-04-29T14:40:48Z</time></trkpt><trkpt lat="43.02275783312032" lon="-1.3274297221399116"><ele>1053.0</ele><time>2026-04-29T14:40:49Z</time></trkpt><trkpt lat="43.0226972432609" lon="-1.3273566197647493"><ele>1053.0</ele><time>2026-04-29T14:40:50Z</time></trkpt><trkpt lat="43.022637066432814" lon="-1.32728029208474"><ele>1053.0</ele><time>2026-04-29T14:40:51Z</time></trkpt><trkpt lat="43.02257624622227" lon="-1.327208085567617"><ele>1053.0</ele><time>2026-04-29T14:40:52Z</time></trkpt><trkpt lat="43.02251783325688" lon="-1.3271357063892764"><ele>1053.0</ele><time>2026-04-29T14:40:53Z</time></trkpt><trkpt lat="43.02245883405289" lon="-1.3270664491088864"><ele>1053.0</ele><time>2026-04-29T14:40:54Z</time></trkpt><trkpt lat="43.022400375896304" lon="-1.3270007009968463"><ele>1054.7142857142856</ele><time>2026-04-29T14:40:55Z</time></trkpt><trkpt lat="43.02234255004743" lon="-1.3269340967228738"><ele>1056.4285714285713</ele><time>2026-04-29T14:40:56Z</time></trkpt><trkpt lat="43.02228711713383" lon="-1.3268659055488878"><ele>1058.142857142857</ele><time>2026-04-29T14:40:57Z</time></trkpt><trkpt lat="43.02223187827245" lon="-1.3267998324200247"><ele>1059.8571428571427</ele><time>2026-04-29T14:40:58Z</time></trkpt><trkpt lat="43.022175063628616" lon="-1.3267344922906277"><ele>1061.5714285714284</ele><time>2026-04-29T14:40:59Z</time></trkpt><trkpt lat="43.02211814082861" lon="-1.3266733432883784"><ele>1063.2857142857142</ele><time>2026-04-29T14:41:00Z</time></trkpt><trkpt lat="43.02206781547213" lon="-1.3266080631270263"><ele>1065.0</ele><time>2026-04-29T14:41:01Z</time></trkpt><trkpt lat="43.022013029951175" lon="-1.3265411879863072"><ele>1065.0</ele><time>2026-04-29T14:41:02Z</time></trkpt><trkpt lat="43.0219573468273" lon="-1.3264765063180264"><ele>1065.0</ele><time>2026-04-29T14:41:03Z</time></trkpt><trkpt lat="43.02190217379383" lon="-1.3264160468652697"><ele>1065.0</ele><time>2026-04-29T14:41:04Z</time></trkpt><trkpt lat="43.02184761836302" lon="-1.3263517229488995"><ele>1065.0</ele><time>2026-04-29T14:41:05Z</time></trkpt><trkpt lat="43.021793380667724" lon="-1.3262912672906821"><ele>1065.0</ele><time>2026-04-29T14:41:06Z</time></trkpt><trkpt lat="43.021739882559" lon="-1.3262295770976966"><ele>1065.0</ele><time>2026-04-29T14:41:07Z</time></trkpt><trkpt lat="43.02168613663699" lon="-1.326165176617551"><ele>1065.0</ele><time>2026-04-29T14:41:08Z</time></trkpt><trkpt lat="43.02163570140096" lon="-1.3260994201831902"><ele>1065.7142857142858</ele><time>2026-04-29T14:41:09Z</time></trkpt><trkpt lat="43.0215825342006" lon="-1.3260368608224629"><ele>1066.4285714285713</ele><time>2026-04-29T14:41:10Z</time></trkpt><trkpt lat="43.021530505573146" lon="-1.3259745230076019"><ele>1067.142857142857</ele><time>2026-04-29T14:41:11Z</time></trkpt><trkpt lat="43.0214785005535" lon="-1.3259125789235016"><ele>1067.857142857143</ele><time>2026-04-29T14:41:12Z</time></trkpt><trkpt lat="43.02142700718818" lon="-1.3258536668934926"><ele>1068.5714285714287</ele><time>2026-04-29T14:41:13Z</time></trkpt><trkpt lat="43.02137987604882" lon="-1.3257914780229612"><ele>1069.2857142857142</ele><time>2026-04-29T14:41:14Z</time></trkpt><trkpt lat="43.02132806644226" lon="-1.3257266944669828"><ele>1070.0</ele><time>2026-04-29T14:41:15Z</time></trkpt><trkpt lat="43.021277743191355" lon="-1.3256709620350053"><ele>1070.0</ele><time>2026-04-29T14:41:16Z</time></trkpt><trkpt lat="43.0212285204017" lon="-1.3256105803654883"><ele>1070.0</ele><time>2026-04-29T14:41:17Z</time></trkpt><trkpt lat="43.02117656677346" lon="-1.3255481989155746"><ele>1070.0</ele><time>2026-04-29T14:41:18Z</time></trkpt><trkpt lat="43.02112867792352" lon="-1.3254837134992814"><ele>1070.0</ele><time>2026-04-29T14:41:19Z</time></trkpt><trkpt lat="43.02107951191983" lon="-1.325419978230952"><ele>1070.0</ele><time>2026-04-29T14:41:20Z</time></trkpt><trkpt lat="43.02102783964824" lon="-1.3253660109074017"><ele>1070.0</ele><time>2026-04-29T14:41:21.001Z</time></trkpt><trkpt lat="43.02097810361218" lon="-1.3253110025109114"><ele>1070.0</ele><time>2026-04-29T14:41:22.001Z</time></trkpt><trkpt lat="43.020929528706056" lon="-1.3252438095004064"><ele>1069.8333333333335</ele><time>2026-04-29T14:41:23.001Z</time></trkpt><trkpt lat="43.02087572956946" lon="-1.3251753329669205"><ele>1069.6666666666667</ele><time>2026-04-29T14:41:24.001Z</time></trkpt><trkpt lat="43.020809144196974" lon="-1.3251397780810141"><ele>1069.5</ele><time>2026-04-29T14:41:25.001Z</time></trkpt><trkpt lat="43.020728317658715" lon="-1.3250118371217567"><ele>1069.3333333333333</ele><time>2026-04-29T14:41:27.001Z</time></trkpt><trkpt lat="43.02067654029923" lon="-1.324953127776536"><ele>1069.1666666666665</ele><time>2026-04-29T14:41:28.001Z</time></trkpt><trkpt lat="43.02062407983616" lon="-1.3248987488748067"><ele>1069.0</ele><time>2026-04-29T14:41:29.001Z</time></trkpt><trkpt lat="43.02057277966326" lon="-1.3248440716986594"><ele>1069.0</ele><time>2026-04-29T14:41:30.001Z</time></trkpt><trkpt lat="43.020520319972306" lon="-1.324788999114702"><ele>1069.0</ele><time>2026-04-29T14:41:31.001Z</time></trkpt><trkpt lat="43.02041778754518" lon="-1.3246892031333635"><ele>1069.0</ele><time>2026-04-29T14:41:33.001Z</time></trkpt><trkpt lat="43.02036413745354" lon="-1.3246365258293193"><ele>1069.0</ele><time>2026-04-29T14:41:34.001Z</time></trkpt><trkpt lat="43.020258891206225" lon="-1.3245365405492984"><ele>1069.0</ele><time>2026-04-29T14:41:36.001Z</time></trkpt><trkpt lat="43.02020406630603" lon="-1.324484817988937"><ele>1067.6000000000001</ele><time>2026-04-29T14:41:37.001Z</time></trkpt><trkpt lat="43.02012020694617" lon="-1.3244178603801948"><ele>1066.2</ele><time>2026-04-29T14:41:39.001Z</time></trkpt><trkpt lat="43.02005098392897" lon="-1.3243698804305672"><ele>1064.8000000000002</ele><time>2026-04-29T14:42:18.999Z</time></trkpt><trkpt lat="43.01997547364412" lon="-1.324267325332469"><ele>1063.4</ele><time>2026-04-29T14:42:21.999Z</time></trkpt><trkpt lat="43.01989312351935" lon="-1.3241742667357705"><ele>1062.0</ele><time>2026-04-29T14:42:23.999Z</time></trkpt><trkpt lat="43.01981998017301" lon="-1.324113202157748"><ele>1062.0</ele><time>2026-04-29T14:42:26Z</time></trkpt><trkpt lat="43.019940178394" lon="-1.3239093158585582"><ele>1062.0</ele><time>2026-04-29T14:42:31Z</time></trkpt><trkpt lat="43.0200095663799" lon="-1.3239423670208146"><ele>1062.0</ele><time>2026-04-29T14:42:33Z</time></trkpt><trkpt lat="43.020073345512856" lon="-1.323943667445859"><ele>1062.0</ele><time>2026-04-29T14:42:37Z</time></trkpt><trkpt lat="43.020006450239094" lon="-1.3239239318865565"><ele>1062.0</ele><time>2026-04-29T14:42:58Z</time></trkpt><trkpt lat="43.019938035689314" lon="-1.323928455001546"><ele>1062.0</ele><time>2026-04-29T14:43:01Z</time></trkpt><trkpt lat="43.01986887056694" lon="-1.3238994956018288"><ele>1062.0</ele><time>2026-04-29T14:43:04Z</time></trkpt><trkpt lat="43.01976261924753" lon="-1.3239179901674016"><ele>1062.0</ele><time>2026-04-29T14:44:30Z</time></trkpt><trkpt lat="43.01979580947794" lon="-1.3240059617804991"><ele>1062.0</ele><time>2026-04-29T14:45:39.001Z</time></trkpt><trkpt lat="43.01985197482969" lon="-1.324066124316033"><ele>1062.0</ele><time>2026-04-29T14:45:43.001Z</time></trkpt><trkpt lat="43.019894937947036" lon="-1.3241400220907062"><ele>1062.0</ele><time>2026-04-29T14:45:45.001Z</time></trkpt><trkpt lat="43.019944537995116" lon="-1.3242687809428373"><ele>1061.3333333333333</ele><time>2026-04-29T14:45:47.001Z</time></trkpt><trkpt lat="43.020012256836644" lon="-1.3244173776538997"><ele>1060.6666666666667</ele><time>2026-04-29T14:45:49.001Z</time></trkpt><trkpt lat="43.02005801886423" lon="-1.3244833775909495"><ele>1060.0</ele><time>2026-04-29T14:45:50.001Z</time></trkpt><trkpt lat="43.02010048336545" lon="-1.3245471687089283"><ele>1059.3333333333335</ele><time>2026-04-29T14:45:51.001Z</time></trkpt><trkpt lat="43.020182134502804" lon="-1.3246750805877485"><ele>1058.6666666666667</ele><time>2026-04-29T14:45:53.001Z</time></trkpt><trkpt lat="43.020226921174974" lon="-1.3247381785160321"><ele>1058.0</ele><time>2026-04-29T14:45:54.001Z</time></trkpt><trkpt lat="43.020310318160675" lon="-1.3248565037948512"><ele>1058.0</ele><time>2026-04-29T14:45:56.001Z</time></trkpt><trkpt lat="43.02036927196105" lon="-1.3249361289715467"><ele>1058.0</ele><time>2026-04-29T14:45:58.001Z</time></trkpt><trkpt lat="43.020416216026156" lon="-1.3250061654629952"><ele>1058.0</ele><time>2026-04-29T14:46:00.001Z</time></trkpt><trkpt lat="43.0203490585816" lon="-1.3248983383761115"><ele>1058.0</ele><time>2026-04-29T14:48:29.002Z</time></trkpt><trkpt lat="43.02029244347857" lon="-1.3248075692674868"><ele>1058.0</ele><time>2026-04-29T14:48:31.002Z</time></trkpt><trkpt lat="43.02021503469848" lon="-1.3247184054532464"><ele>1058.0</ele><time>2026-04-29T14:48:33.002Z</time></trkpt><trkpt lat="43.02013290073105" lon="-1.3245906873225781"><ele>1058.0</ele><time>2026-04-29T14:48:35.002Z</time></trkpt><trkpt lat="43.0200861746509" lon="-1.3245187487087118"><ele>1058.0</ele><time>2026-04-29T14:48:36.002Z</time></trkpt><trkpt lat="43.02004167595798" lon="-1.3244507773062009"><ele>1058.0</ele><time>2026-04-29T14:48:37.002Z</time></trkpt><trkpt lat="43.0199570480097" lon="-1.3243183195094954"><ele>1058.0</ele><time>2026-04-29T14:48:39.002Z</time></trkpt><trkpt lat="43.019885170777535" lon="-1.3242099306884938"><ele>1058.0</ele><time>2026-04-29T14:48:41.002Z</time></trkpt><trkpt lat="43.019815797137404" lon="-1.3241208044282513"><ele>1058.6666666666667</ele><time>2026-04-29T14:48:43.002Z</time></trkpt><trkpt lat="43.01974528443288" lon="-1.3240463627450716"><ele>1059.3333333333335</ele><time>2026-04-29T14:48:45.001Z</time></trkpt><trkpt lat="43.01964939278103" lon="-1.3239904180721298"><ele>1060.0</ele><time>2026-04-29T14:48:47.001Z</time></trkpt><trkpt lat="43.019598317964984" lon="-1.3239400494230869"><ele>1060.6666666666667</ele><time>2026-04-29T14:48:48.001Z</time></trkpt><trkpt lat="43.01954168464367" lon="-1.3238892159006934"><ele>1061.3333333333333</ele><time>2026-04-29T14:48:49.001Z</time></trkpt><trkpt lat="43.01947978739154" lon="-1.323839436857266"><ele>1062.0</ele><time>2026-04-29T14:48:50.001Z</time></trkpt><trkpt lat="43.019408205764464" lon="-1.3237946721405742"><ele>1060.5</ele><time>2026-04-29T14:48:51.001Z</time></trkpt><trkpt lat="43.01933450258216" lon="-1.3237486544820443"><ele>1059.0</ele><time>2026-04-29T14:48:52.001Z</time></trkpt><trkpt lat="43.01925697547892" lon="-1.3237109272033638"><ele>1057.5</ele><time>2026-04-29T14:48:53.001Z</time></trkpt><trkpt lat="43.01917047113338" lon="-1.3236768420130554"><ele>1056.0</ele><time>2026-04-29T14:48:54.001Z</time></trkpt><trkpt lat="43.019082697725665" lon="-1.3236471114347248"><ele>1054.5</ele><time>2026-04-29T14:48:55.001Z</time></trkpt><trkpt lat="43.01899318669095" lon="-1.3236170818540085"><ele>1053.0</ele><time>2026-04-29T14:48:56.001Z</time></trkpt><trkpt lat="43.018900127166496" lon="-1.3235905098339784"><ele>1053.0</ele><time>2026-04-29T14:48:57.001Z</time></trkpt><trkpt lat="43.01880681668619" lon="-1.3235646501368683"><ele>1053.0</ele><time>2026-04-29T14:48:58.001Z</time></trkpt><trkpt lat="43.01871341435474" lon="-1.3235452504585723"><ele>1053.0</ele><time>2026-04-29T14:48:59.001Z</time></trkpt><trkpt lat="43.018617644792336" lon="-1.323530535743926"><ele>1053.0</ele><time>2026-04-29T14:49:00.001Z</time></trkpt><trkpt lat="43.01851700614535" lon="-1.3235130029073265"><ele>1053.0</ele><time>2026-04-29T14:49:01.001Z</time></trkpt><trkpt lat="43.018417783035325" lon="-1.323491239247031"><ele>1053.8</ele><time>2026-04-29T14:49:02.001Z</time></trkpt><trkpt lat="43.01831460160553" lon="-1.3234708522526568"><ele>1054.6</ele><time>2026-04-29T14:49:03.001Z</time></trkpt><trkpt lat="43.0182133599608" lon="-1.3234491525198329"><ele>1055.4</ele><time>2026-04-29T14:49:04.001Z</time></trkpt><trkpt lat="43.018109018909115" lon="-1.3234280532076341"><ele>1056.2</ele><time>2026-04-29T14:49:05.001Z</time></trkpt><trkpt lat="43.01800341132131" lon="-1.3234031876260892"><ele>1057.0</ele><time>2026-04-29T14:49:06.001Z</time></trkpt><trkpt lat="43.01790220920899" lon="-1.3233771705853554"><ele>1057.0</ele><time>2026-04-29T14:49:07.001Z</time></trkpt><trkpt lat="43.01779595151943" lon="-1.3233569252187305"><ele>1057.0</ele><time>2026-04-29T14:49:08.001Z</time></trkpt><trkpt lat="43.017691899461006" lon="-1.323329245993651"><ele>1057.0</ele><time>2026-04-29T14:49:09.001Z</time></trkpt><trkpt lat="43.017587326134866" lon="-1.3232980087188917"><ele>1057.0</ele><time>2026-04-29T14:49:10.001Z</time></trkpt><trkpt lat="43.017484480069776" lon="-1.3232596596921657"><ele>1057.0</ele><time>2026-04-29T14:49:11.001Z</time></trkpt><trkpt lat="43.017383604081" lon="-1.3232222588600013"><ele>1055.0</ele><time>2026-04-29T14:49:12.001Z</time></trkpt><trkpt lat="43.017286286042065" lon="-1.3231779197984908"><ele>1053.0</ele><time>2026-04-29T14:49:13.001Z</time></trkpt><trkpt lat="43.01719145094597" lon="-1.3231283338655702"><ele>1051.0</ele><time>2026-04-29T14:49:14.001Z</time></trkpt><trkpt lat="43.017098284087" lon="-1.3230683820737867"><ele>1049.0</ele><time>2026-04-29T14:49:15.001Z</time></trkpt><trkpt lat="43.017000316771345" lon="-1.3230130587389919"><ele>1047.0</ele><time>2026-04-29T14:49:16.001Z</time></trkpt><trkpt lat="43.016905786484124" lon="-1.322942473352252"><ele>1047.0</ele><time>2026-04-29T14:49:17.001Z</time></trkpt><trkpt lat="43.0168164155415" lon="-1.3228618905877427"><ele>1047.0</ele><time>2026-04-29T14:49:18.001Z</time></trkpt><trkpt lat="43.01673280746989" lon="-1.3227705519080144"><ele>1047.0</ele><time>2026-04-29T14:49:19.001Z</time></trkpt><trkpt lat="43.01665217617668" lon="-1.322664437723657"><ele>1047.0</ele><time>2026-04-29T14:49:20.001Z</time></trkpt><trkpt lat="43.01658172498147" lon="-1.3225491480866607"><ele>1047.0</ele><time>2026-04-29T14:49:21.001Z</time></trkpt><trkpt lat="43.01652311488372" lon="-1.3224269055374986"><ele>1048.6</ele><time>2026-04-29T14:49:22.001Z</time></trkpt><trkpt lat="43.01648158938743" lon="-1.3222906116361195"><ele>1050.2</ele><time>2026-04-29T14:49:23.001Z</time></trkpt><trkpt lat="43.01643587017128" lon="-1.3221614460236395"><ele>1051.8</ele><time>2026-04-29T14:49:24.001Z</time></trkpt><trkpt lat="43.01639623753798" lon="-1.3220348005807283"><ele>1053.4</ele><time>2026-04-29T14:49:25.001Z</time></trkpt><trkpt lat="43.01637272193475" lon="-1.3218930476720527"><ele>1055.0</ele><time>2026-04-29T14:49:26.001Z</time></trkpt><trkpt lat="43.01633465751593" lon="-1.3217622258422366"><ele>1055.0</ele><time>2026-04-29T14:49:27.001Z</time></trkpt><trkpt lat="43.016292842854604" lon="-1.3216346441326234"><ele>1055.0</ele><time>2026-04-29T14:49:28.001Z</time></trkpt><trkpt lat="43.01624813643235" lon="-1.3215102653006694"><ele>1055.0</ele><time>2026-04-29T14:49:29.001Z</time></trkpt><trkpt lat="43.016195948085176" lon="-1.321393469604308"><ele>1055.0</ele><time>2026-04-29T14:49:30.001Z</time></trkpt><trkpt lat="43.01613217714515" lon="-1.3212902313148767"><ele>1055.0</ele><time>2026-04-29T14:49:31.001Z</time></trkpt><trkpt lat="43.0160698605847" lon="-1.3211852596115226"><ele>1055.2</ele><time>2026-04-29T14:49:32.001Z</time></trkpt><trkpt lat="43.01600255852796" lon="-1.3210869094384874"><ele>1055.4</ele><time>2026-04-29T14:49:33.001Z</time></trkpt><trkpt lat="43.01593620132336" lon="-1.320989890323138"><ele>1055.6</ele><time>2026-04-29T14:49:34.001Z</time></trkpt><trkpt lat="43.01587030690451" lon="-1.3208955683588497"><ele>1055.8</ele><time>2026-04-29T14:49:35.001Z</time></trkpt><trkpt lat="43.01580256545648" lon="-1.3208060116597125"><ele>1056.0</ele><time>2026-04-29T14:49:36.001Z</time></trkpt><trkpt lat="43.01573695861767" lon="-1.3207130157454656"><ele>1056.0</ele><time>2026-04-29T14:49:37.001Z</time></trkpt><trkpt lat="43.01567218073448" lon="-1.320618912318677"><ele>1056.0</ele><time>2026-04-29T14:49:38.001Z</time></trkpt><trkpt lat="43.01560190675502" lon="-1.3205339487627619"><ele>1056.0</ele><time>2026-04-29T14:49:39.001Z</time></trkpt><trkpt lat="43.015527989727666" lon="-1.3204524059097842"><ele>1056.0</ele><time>2026-04-29T14:49:40.001Z</time></trkpt><trkpt lat="43.01545360403054" lon="-1.3203694198772145"><ele>1056.0</ele><time>2026-04-29T14:49:41.001Z</time></trkpt><trkpt lat="43.01538113386662" lon="-1.3202857982375518"><ele>1050.8</ele><time>2026-04-29T14:49:42.001Z</time></trkpt><trkpt lat="43.015309850473415" lon="-1.320202040162566"><ele>1045.6</ele><time>2026-04-29T14:49:43.001Z</time></trkpt><trkpt lat="43.015239286850424" lon="-1.3201162578904833"><ele>1040.4</ele><time>2026-04-29T14:49:44.001Z</time></trkpt><trkpt lat="43.015170442715366" lon="-1.3200260160470603"><ele>1035.2</ele><time>2026-04-29T14:49:45.001Z</time></trkpt><trkpt lat="43.015102191145786" lon="-1.3199379543796002"><ele>1030.0</ele><time>2026-04-29T14:49:46.001Z</time></trkpt><trkpt lat="43.01503327099582" lon="-1.319850419658319"><ele>1032.2</ele><time>2026-04-29T14:49:47.001Z</time></trkpt><trkpt lat="43.01496240785389" lon="-1.3197660748509605"><ele>1034.4</ele><time>2026-04-29T14:49:48.001Z</time></trkpt><trkpt lat="43.01489202863323" lon="-1.3196845830958825"><ele>1036.6</ele><time>2026-04-29T14:49:49.001Z</time></trkpt><trkpt lat="43.014818079200474" lon="-1.3196056672412744"><ele>1038.8</ele><time>2026-04-29T14:49:50.001Z</time></trkpt><trkpt lat="43.014742372328755" lon="-1.3195322867478114"><ele>1041.0</ele><time>2026-04-29T14:49:51.001Z</time></trkpt><trkpt lat="43.01466314166045" lon="-1.3194644057020508"><ele>1035.2</ele><time>2026-04-29T14:49:52.001Z</time></trkpt><trkpt lat="43.01458160561067" lon="-1.3194067554600863"><ele>1029.3999999999999</ele><time>2026-04-29T14:49:53.001Z</time></trkpt><trkpt lat="43.014495035104645" lon="-1.3193630948091963"><ele>1023.6</ele><time>2026-04-29T14:49:54.001Z</time></trkpt><trkpt lat="43.01440924779663" lon="-1.3193234545169854"><ele>1017.8</ele><time>2026-04-29T14:49:55.001Z</time></trkpt><trkpt lat="43.01431917117365" lon="-1.319297951837668"><ele>1012.0</ele><time>2026-04-29T14:49:56.001Z</time></trkpt><trkpt lat="43.014228702720104" lon="-1.3192850850547433"><ele>1009.8</ele><time>2026-04-29T14:49:57.001Z</time></trkpt><trkpt lat="43.01413927217848" lon="-1.3192782178474587"><ele>1007.6</ele><time>2026-04-29T14:49:58.001Z</time></trkpt><trkpt lat="43.01404987953734" lon="-1.3192747807437104"><ele>1005.3999999999999</ele><time>2026-04-29T14:49:59.001Z</time></trkpt><trkpt lat="43.01395922285902" lon="-1.319274252378497"><ele>1003.1999999999999</ele><time>2026-04-29T14:50:00.001Z</time></trkpt><trkpt lat="43.01386727844587" lon="-1.3192770176626407"><ele>1001.0</ele><time>2026-04-29T14:50:01.001Z</time></trkpt><trkpt lat="43.013773846348556" lon="-1.3192806832275425"><ele>1001.0</ele><time>2026-04-29T14:50:02.001Z</time></trkpt><trkpt lat="43.01368080095115" lon="-1.3192880549110306"><ele>1000.9999999999999</ele><time>2026-04-29T14:50:03.001Z</time></trkpt><trkpt lat="43.01358630900577" lon="-1.319299736048622"><ele>1000.9999999999999</ele><time>2026-04-29T14:50:04.002Z</time></trkpt><trkpt lat="43.01349046853289" lon="-1.3193196801065659"><ele>1001.0</ele><time>2026-04-29T14:50:05.002Z</time></trkpt><trkpt lat="43.01339348512387" lon="-1.3193351436384209"><ele>1001.0</ele><time>2026-04-29T14:50:06.002Z</time></trkpt><trkpt lat="43.01329631041008" lon="-1.319352976362066"><ele>997.5999999999999</ele><time>2026-04-29T14:50:07.002Z</time></trkpt><trkpt lat="43.01319908849999" lon="-1.3193760617449823"><ele>994.1999999999999</ele><time>2026-04-29T14:50:08.002Z</time></trkpt><trkpt lat="43.01310064351558" lon="-1.3193997439402343"><ele>990.8000000000001</ele><time>2026-04-29T14:50:09.002Z</time></trkpt><trkpt lat="43.01300405533422" lon="-1.319420226651842"><ele>987.4000000000001</ele><time>2026-04-29T14:50:10.002Z</time></trkpt><trkpt lat="43.01290993197248" lon="-1.319444328487331"><ele>984.0</ele><time>2026-04-29T14:50:11.002Z</time></trkpt><trkpt lat="43.01281299968875" lon="-1.319467734931241"><ele>984.0</ele><time>2026-04-29T14:50:12.002Z</time></trkpt><trkpt lat="43.01271658081095" lon="-1.3194900273900216"><ele>984.0000000000001</ele><time>2026-04-29T14:50:13.002Z</time></trkpt><trkpt lat="43.01262150243944" lon="-1.3195161317519801"><ele>984.0000000000001</ele><time>2026-04-29T14:50:14.002Z</time></trkpt><trkpt lat="43.01252851673809" lon="-1.319549736284354"><ele>984.0</ele><time>2026-04-29T14:50:15.002Z</time></trkpt><trkpt lat="43.01243206319456" lon="-1.3195911995173315"><ele>984.0</ele><time>2026-04-29T14:50:16.002Z</time></trkpt><trkpt lat="43.01233727607594" lon="-1.3196342390386782"><ele>981.4000000000001</ele><time>2026-04-29T14:50:17.002Z</time></trkpt><trkpt lat="43.012244540065716" lon="-1.3196813181919493"><ele>978.8000000000001</ele><time>2026-04-29T14:50:18.002Z</time></trkpt><trkpt lat="43.012153573778164" lon="-1.319727956855183"><ele>976.1999999999999</ele><time>2026-04-29T14:50:19.002Z</time></trkpt><trkpt lat="43.01206522026868" lon="-1.3197683286056148"><ele>973.5999999999999</ele><time>2026-04-29T14:50:20.002Z</time></trkpt><trkpt lat="43.01197176658631" lon="-1.3197895164232116"><ele>971.0</ele><time>2026-04-29T14:50:21.002Z</time></trkpt><trkpt lat="43.01187491856341" lon="-1.3197807980522807"><ele>971.0</ele><time>2026-04-29T14:50:22.002Z</time></trkpt><trkpt lat="43.01177784874607" lon="-1.3197610076323758"><ele>970.9999999999999</ele><time>2026-04-29T14:50:23.002Z</time></trkpt><trkpt lat="43.011680899067485" lon="-1.319723375589199"><ele>970.9999999999999</ele><time>2026-04-29T14:50:24.002Z</time></trkpt><trkpt lat="43.011581741622564" lon="-1.3196922591904818"><ele>971.0</ele><time>2026-04-29T14:50:25.002Z</time></trkpt><trkpt lat="43.0114841455479" lon="-1.319673656540102"><ele>971.0</ele><time>2026-04-29T14:50:26.002Z</time></trkpt><trkpt lat="43.011386037535395" lon="-1.3196612015702556"><ele>969.4</ele><time>2026-04-29T14:50:27.002Z</time></trkpt><trkpt lat="43.01128767581797" lon="-1.3196545726331785"><ele>967.8</ele><time>2026-04-29T14:50:28.002Z</time></trkpt><trkpt lat="43.01118897235197" lon="-1.3196517921642643"><ele>966.1999999999999</ele><time>2026-04-29T14:50:29.002Z</time></trkpt><trkpt lat="43.01109378736527" lon="-1.3196589223789863"><ele>964.5999999999999</ele><time>2026-04-29T14:50:30.002Z</time></trkpt><trkpt lat="43.01099818755444" lon="-1.3196883899024032"><ele>963.0</ele><time>2026-04-29T14:50:31.002Z</time></trkpt><trkpt lat="43.010905613673785" lon="-1.319725728433828"><ele>963.0</ele><time>2026-04-29T14:50:32.002Z</time></trkpt><trkpt lat="43.01081529474632" lon="-1.3197743154846666"><ele>963.0</ele><time>2026-04-29T14:50:33.002Z</time></trkpt><trkpt lat="43.01073136337221" lon="-1.3198322123874273"><ele>963.0</ele><time>2026-04-29T14:50:34.002Z</time></trkpt><trkpt lat="43.01064744466301" lon="-1.3198908761355264"><ele>963.0</ele><time>2026-04-29T14:50:35.002Z</time></trkpt><trkpt lat="43.01056234134148" lon="-1.3199521849844882"><ele>963.0</ele><time>2026-04-29T14:50:36.002Z</time></trkpt><trkpt lat="43.01047739579522" lon="-1.3200187320268448"><ele>963.0</ele><time>2026-04-29T14:50:37.002Z</time></trkpt><trkpt lat="43.01039663246864" lon="-1.3200924880867753"><ele>963.0</ele><time>2026-04-29T14:50:38.002Z</time></trkpt><trkpt lat="43.01033355851156" lon="-1.3201903548185234"><ele>963.0</ele><time>2026-04-29T14:50:39.002Z</time></trkpt><trkpt lat="43.010287329690954" lon="-1.320310690397287"><ele>963.0</ele><time>2026-04-29T14:50:40.002Z</time></trkpt><trkpt lat="43.010255908728" lon="-1.320434508158509"><ele>963.0</ele><time>2026-04-29T14:50:41.002Z</time></trkpt><trkpt lat="43.01022624762084" lon="-1.3205565696890476"><ele>962.2</ele><time>2026-04-29T14:50:42.001Z</time></trkpt><trkpt lat="43.01018835171931" lon="-1.3206742569386622"><ele>961.4</ele><time>2026-04-29T14:50:43.001Z</time></trkpt><trkpt lat="43.01014237759765" lon="-1.3207822699578287"><ele>960.6000000000001</ele><time>2026-04-29T14:50:44.001Z</time></trkpt><trkpt lat="43.01008132949624" lon="-1.320877774407079"><ele>959.8000000000001</ele><time>2026-04-29T14:50:45.001Z</time></trkpt><trkpt lat="43.010005706719525" lon="-1.320950928613338"><ele>959.0</ele><time>2026-04-29T14:50:46.001Z</time></trkpt><trkpt lat="43.009924873613016" lon="-1.3210116891095114"><ele>959.0000000000001</ele><time>2026-04-29T14:50:47.001Z</time></trkpt><trkpt lat="43.00984296758644" lon="-1.321062707376069"><ele>959.0</ele><time>2026-04-29T14:50:48.001Z</time></trkpt><trkpt lat="43.00976105095588" lon="-1.3211137839709521"><ele>959.0</ele><time>2026-04-29T14:50:49.001Z</time></trkpt><trkpt lat="43.00968938898985" lon="-1.321175998333309"><ele>959.0</ele><time>2026-04-29T14:50:50.001Z</time></trkpt><trkpt lat="43.00962257147607" lon="-1.321258043660412"><ele>959.0000000000001</ele><time>2026-04-29T14:50:51.001Z</time></trkpt><trkpt lat="43.009567471547875" lon="-1.3213578866901778"><ele>959.0</ele><time>2026-04-29T14:50:52.001Z</time></trkpt><trkpt lat="43.00953432292411" lon="-1.3214749846409557"><ele>959.6666666666667</ele><time>2026-04-29T14:50:53.001Z</time></trkpt><trkpt lat="43.00953331063355" lon="-1.3216016967088646"><ele>960.3333333333334</ele><time>2026-04-29T14:50:54.001Z</time></trkpt><trkpt lat="43.009554539991825" lon="-1.3217194528063725"><ele>961.0</ele><time>2026-04-29T14:50:55.001Z</time></trkpt><trkpt lat="43.009585062507355" lon="-1.3218238819264188"><ele>961.6666666666667</ele><time>2026-04-29T14:50:56.001Z</time></trkpt><trkpt lat="43.00961376927445" lon="-1.3219231921325412"><ele>962.3333333333334</ele><time>2026-04-29T14:50:57.001Z</time></trkpt><trkpt lat="43.009639860101004" lon="-1.3220198057613721"><ele>963.0</ele><time>2026-04-29T14:50:58.001Z</time></trkpt><trkpt lat="43.00965309312893" lon="-1.322115241105701"><ele>963.0</ele><time>2026-04-29T14:50:59.001Z</time></trkpt><trkpt lat="43.00959628533683" lon="-1.322248109960841"><ele>963.0</ele><time>2026-04-29T14:51:01.001Z</time></trkpt><trkpt lat="43.00949405107794" lon="-1.3222577709617387"><ele>963.0</ele><time>2026-04-29T14:51:03.001Z</time></trkpt><trkpt lat="43.009433349582764" lon="-1.322141536247319"><ele>963.0</ele><time>2026-04-29T14:51:05.001Z</time></trkpt><trkpt lat="43.00939661378887" lon="-1.3219926815715548"><ele>963.0</ele><time>2026-04-29T14:51:07.001Z</time></trkpt><trkpt lat="43.009369541200186" lon="-1.3219124587305404"><ele>963.0</ele><time>2026-04-29T14:51:08.001Z</time></trkpt><trkpt lat="43.009342480040736" lon="-1.3218283804277267"><ele>963.0</ele><time>2026-04-29T14:51:09.001Z</time></trkpt><trkpt lat="43.009316743076305" lon="-1.3217375107163194"><ele>963.0</ele><time>2026-04-29T14:51:10.001Z</time></trkpt><trkpt lat="43.00928152198633" lon="-1.3216454710009455"><ele>963.0</ele><time>2026-04-29T14:51:11.001Z</time></trkpt><trkpt lat="43.009252797413794" lon="-1.321549416470616"><ele>963.0</ele><time>2026-04-29T14:51:12.001Z</time></trkpt><trkpt lat="43.00922361234566" lon="-1.3214478973978039"><ele>963.0</ele><time>2026-04-29T14:51:13.001Z</time></trkpt><trkpt lat="43.00921005053053" lon="-1.321340279538702"><ele>962.3333333333334</ele><time>2026-04-29T14:51:14.001Z</time></trkpt><trkpt lat="43.00920461598269" lon="-1.3212334732522126"><ele>961.6666666666667</ele><time>2026-04-29T14:51:15.001Z</time></trkpt><trkpt lat="43.00920709680685" lon="-1.321128884117641"><ele>961.0</ele><time>2026-04-29T14:51:16.001Z</time></trkpt><trkpt lat="43.009214513986244" lon="-1.321024773406476"><ele>960.3333333333334</ele><time>2026-04-29T14:51:17.001Z</time></trkpt><trkpt lat="43.009223120936284" lon="-1.3209198252564363"><ele>959.6666666666667</ele><time>2026-04-29T14:51:18.001Z</time></trkpt><trkpt lat="43.009225270153756" lon="-1.3208107500203647"><ele>959.0</ele><time>2026-04-29T14:51:19.001Z</time></trkpt><trkpt lat="43.00921869880078" lon="-1.3206968197561675"><ele>959.0000000000001</ele><time>2026-04-29T14:51:20.001Z</time></trkpt><trkpt lat="43.00919638742554" lon="-1.3205817773719903"><ele>959.0</ele><time>2026-04-29T14:51:21.001Z</time></trkpt><trkpt lat="43.00915859291465" lon="-1.320472968540029"><ele>959.0</ele><time>2026-04-29T14:51:22.001Z</time></trkpt><trkpt lat="43.00910536718418" lon="-1.3203756738940535"><ele>959.0</ele><time>2026-04-29T14:51:23.001Z</time></trkpt><trkpt lat="43.009043545794945" lon="-1.3202874985375883"><ele>959.0000000000001</ele><time>2026-04-29T14:51:24.001Z</time></trkpt><trkpt lat="43.00897416667371" lon="-1.3202088911624807"><ele>959.0</ele><time>2026-04-29T14:51:25.001Z</time></trkpt><trkpt lat="43.008902397977636" lon="-1.3201358768500389"><ele>956.6666666666667</ele><time>2026-04-29T14:51:26.001Z</time></trkpt><trkpt lat="43.00883087579049" lon="-1.3200632217698829"><ele>954.3333333333334</ele><time>2026-04-29T14:51:27.001Z</time></trkpt><trkpt lat="43.00875889782584" lon="-1.3199942485256462"><ele>952.0</ele><time>2026-04-29T14:51:28.001Z</time></trkpt><trkpt lat="43.00868634702257" lon="-1.319929927581184"><ele>949.6666666666667</ele><time>2026-04-29T14:51:29.001Z</time></trkpt><trkpt lat="43.00861037321328" lon="-1.3198681875517433"><ele>947.3333333333334</ele><time>2026-04-29T14:51:30.001Z</time></trkpt><trkpt lat="43.00853381726978" lon="-1.3198076368232903"><ele>945.0</ele><time>2026-04-29T14:51:31.001Z</time></trkpt><trkpt lat="43.008455952706456" lon="-1.3197496845190178"><ele>944.3333333333334</ele><time>2026-04-29T14:51:32.001Z</time></trkpt><trkpt lat="43.00837472634162" lon="-1.3197001641138837"><ele>943.6666666666667</ele><time>2026-04-29T14:51:33.001Z</time></trkpt><trkpt lat="43.00829275759617" lon="-1.319656652956686"><ele>943.0</ele><time>2026-04-29T14:51:34.001Z</time></trkpt><trkpt lat="43.00821020832018" lon="-1.3196174689761075"><ele>942.3333333333334</ele><time>2026-04-29T14:51:35.001Z</time></trkpt><trkpt lat="43.00812875997385" lon="-1.3195836621653054"><ele>941.6666666666667</ele><time>2026-04-29T14:51:36.001Z</time></trkpt><trkpt lat="43.008052904485645" lon="-1.319557329074721"><ele>941.0</ele><time>2026-04-29T14:51:37.001Z</time></trkpt><trkpt lat="43.00798492987988" lon="-1.319555074097056"><ele>941.0000000000001</ele><time>2026-04-29T14:51:39.001Z</time></trkpt><trkpt lat="43.00792112202873" lon="-1.319525782765631"><ele>941.0</ele><time>2026-04-29T14:55:34Z</time></trkpt><trkpt lat="43.007846842640255" lon="-1.319502936220656"><ele>941.0</ele><time>2026-04-29T14:55:37Z</time></trkpt><trkpt lat="43.00774148111045" lon="-1.31947980444625"><ele>941.0</ele><time>2026-04-29T14:55:39Z</time></trkpt><trkpt lat="43.00767768021507" lon="-1.3194621757041782"><ele>941.0000000000001</ele><time>2026-04-29T14:55:40Z</time></trkpt><trkpt lat="43.00760673872901" lon="-1.319447913299556"><ele>941.0</ele><time>2026-04-29T14:55:41Z</time></trkpt><trkpt lat="43.007532129520506" lon="-1.3194318360807242"><ele>941.3333333333334</ele><time>2026-04-29T14:55:42Z</time></trkpt><trkpt lat="43.00745287597747" lon="-1.319420528416905"><ele>941.6666666666667</ele><time>2026-04-29T14:55:43Z</time></trkpt><trkpt lat="43.00737285473803" lon="-1.3194097252992787"><ele>942.0</ele><time>2026-04-29T14:55:44Z</time></trkpt><trkpt lat="43.00728686615007" lon="-1.319395855277197"><ele>942.3333333333333</ele><time>2026-04-29T14:55:45Z</time></trkpt><trkpt lat="43.00720064884071" lon="-1.319384620907254"><ele>942.6666666666666</ele><time>2026-04-29T14:55:46Z</time></trkpt><trkpt lat="43.007108949250664" lon="-1.319366982019357"><ele>943.0</ele><time>2026-04-29T14:55:47Z</time></trkpt><trkpt lat="43.00701428960592" lon="-1.319353010125513"><ele>943.0</ele><time>2026-04-29T14:55:48Z</time></trkpt><trkpt lat="43.006915186122704" lon="-1.3193392041873941"><ele>943.0</ele><time>2026-04-29T14:55:49Z</time></trkpt><trkpt lat="43.006819793727004" lon="-1.3193218811884067"><ele>943.0</ele><time>2026-04-29T14:55:50Z</time></trkpt><trkpt lat="43.00672097625205" lon="-1.3193124217762635"><ele>943.0</ele><time>2026-04-29T14:55:51Z</time></trkpt><trkpt lat="43.006621653348176" lon="-1.3193005654632572"><ele>943.0</ele><time>2026-04-29T14:55:52Z</time></trkpt><trkpt lat="43.006522435545804" lon="-1.3192872572815786"><ele>943.5999999999999</ele><time>2026-04-29T14:55:53Z</time></trkpt><trkpt lat="43.006422640131" lon="-1.3192787520969633"><ele>944.1999999999999</ele><time>2026-04-29T14:55:54Z</time></trkpt><trkpt lat="43.00632033496085" lon="-1.3192669497015381"><ele>944.8</ele><time>2026-04-29T14:55:55Z</time></trkpt><trkpt lat="43.006219198891806" lon="-1.3192577399195375"><ele>945.4</ele><time>2026-04-29T14:55:56Z</time></trkpt><trkpt lat="43.00611864409607" lon="-1.31924141587428"><ele>946.0</ele><time>2026-04-29T14:55:57Z</time></trkpt><trkpt lat="43.00601842856966" lon="-1.3192376283076177"><ele>946.0</ele><time>2026-04-29T14:55:58Z</time></trkpt><trkpt lat="43.00591314763703" lon="-1.3192376677467863"><ele>945.9999999999999</ele><time>2026-04-29T14:55:59Z</time></trkpt><trkpt lat="43.00580606236986" lon="-1.3192348095625515"><ele>945.9999999999999</ele><time>2026-04-29T14:56:00Z</time></trkpt><trkpt lat="43.0056994465808" lon="-1.3192312954908612"><ele>946.0</ele><time>2026-04-29T14:56:01Z</time></trkpt><trkpt lat="43.00559447876514" lon="-1.31924274826067"><ele>946.0</ele><time>2026-04-29T14:56:02Z</time></trkpt><trkpt lat="43.0054907220568" lon="-1.3192504589804"><ele>945.0</ele><time>2026-04-29T14:56:03Z</time></trkpt><trkpt lat="43.005388495126134" lon="-1.3192691619349304"><ele>943.9999999999999</ele><time>2026-04-29T14:56:04.001Z</time></trkpt><trkpt lat="43.005287437407574" lon="-1.3192906768698487"><ele>942.9999999999999</ele><time>2026-04-29T14:56:05.001Z</time></trkpt><trkpt lat="43.00518096675092" lon="-1.3193178761162145"><ele>942.0</ele><time>2026-04-29T14:56:06.001Z</time></trkpt><trkpt lat="43.00507839913546" lon="-1.3193433330011166"><ele>941.0</ele><time>2026-04-29T14:56:07.001Z</time></trkpt><trkpt lat="43.004975938324655" lon="-1.3193682145093713"><ele>940.4</ele><time>2026-04-29T14:56:08.001Z</time></trkpt><trkpt lat="43.00486998727048" lon="-1.3193924726149853"><ele>939.8</ele><time>2026-04-29T14:56:09.001Z</time></trkpt><trkpt lat="43.00477039003728" lon="-1.3194178213139367"><ele>939.1999999999999</ele><time>2026-04-29T14:56:10.001Z</time></trkpt><trkpt lat="43.004666976461884" lon="-1.3194514204493861"><ele>938.5999999999999</ele><time>2026-04-29T14:56:11.001Z</time></trkpt><trkpt lat="43.00456438988448" lon="-1.319481567270324"><ele>938.0</ele><time>2026-04-29T14:56:12.001Z</time></trkpt><trkpt lat="43.00446238303344" lon="-1.3195263474889498"><ele>938.0</ele><time>2026-04-29T14:56:13.001Z</time></trkpt><trkpt lat="43.004365540758485" lon="-1.3195778966929501"><ele>938.0</ele><time>2026-04-29T14:56:14.001Z</time></trkpt><trkpt lat="43.00427061776312" lon="-1.3196395292991978"><ele>938.0</ele><time>2026-04-29T14:56:15.001Z</time></trkpt><trkpt lat="43.00417298646259" lon="-1.3196972455714258"><ele>938.0</ele><time>2026-04-29T14:56:16.001Z</time></trkpt><trkpt lat="43.00408280633447" lon="-1.3197676108183898"><ele>938.0</ele><time>2026-04-29T14:56:17.001Z</time></trkpt><trkpt lat="43.003987133925776" lon="-1.319838337087503"><ele>938.2</ele><time>2026-04-29T14:56:18.001Z</time></trkpt><trkpt lat="43.00389341867537" lon="-1.3199077781845565"><ele>938.4</ele><time>2026-04-29T14:56:19.001Z</time></trkpt><trkpt lat="43.0038015273828" lon="-1.319984340675897"><ele>938.6000000000001</ele><time>2026-04-29T14:56:20.001Z</time></trkpt><trkpt lat="43.00370957560459" lon="-1.3200551929920592"><ele>938.8000000000001</ele><time>2026-04-29T14:56:21.001Z</time></trkpt><trkpt lat="43.00361758284094" lon="-1.3201375073146429"><ele>939.0</ele><time>2026-04-29T14:56:22.001Z</time></trkpt><trkpt lat="43.00352784955822" lon="-1.3202233227389877"><ele>939.0</ele><time>2026-04-29T14:56:23.001Z</time></trkpt><trkpt lat="43.00343498681698" lon="-1.3203031179322486"><ele>939.0000000000001</ele><time>2026-04-29T14:56:24.001Z</time></trkpt><trkpt lat="43.00334270964135" lon="-1.320388571309541"><ele>939.0000000000001</ele><time>2026-04-29T14:56:25.001Z</time></trkpt><trkpt lat="43.003250030457345" lon="-1.3204676012408736"><ele>939.0</ele><time>2026-04-29T14:56:26.001Z</time></trkpt><trkpt lat="43.00315890389199" lon="-1.3205499311511804"><ele>939.0</ele><time>2026-04-29T14:56:27.001Z</time></trkpt><trkpt lat="43.003065823033666" lon="-1.3206305058338814"><ele>938.4000000000001</ele><time>2026-04-29T14:56:28.001Z</time></trkpt><trkpt lat="43.002973418823615" lon="-1.3207145421687403"><ele>937.8000000000001</ele><time>2026-04-29T14:56:29.001Z</time></trkpt><trkpt lat="43.00288035331242" lon="-1.3207928909006992"><ele>937.1999999999999</ele><time>2026-04-29T14:56:30.001Z</time></trkpt><trkpt lat="43.00279391123835" lon="-1.3208797729847508"><ele>936.5999999999999</ele><time>2026-04-29T14:56:31.001Z</time></trkpt><trkpt lat="43.0027010985239" lon="-1.3209574110779725"><ele>936.0</ele><time>2026-04-29T14:56:32.001Z</time></trkpt><trkpt lat="43.0026111463476" lon="-1.3210491931921822"><ele>936.0</ele><time>2026-04-29T14:56:33.001Z</time></trkpt><trkpt lat="43.002527408694434" lon="-1.3211436130536336"><ele>935.9999999999999</ele><time>2026-04-29T14:56:34.001Z</time></trkpt><trkpt lat="43.00243894875341" lon="-1.3212263255164967"><ele>935.9999999999999</ele><time>2026-04-29T14:56:35.001Z</time></trkpt><trkpt lat="43.00234915200443" lon="-1.3213103594533624"><ele>936.0</ele><time>2026-04-29T14:56:36.001Z</time></trkpt><trkpt lat="43.00225541072953" lon="-1.3213898583942056"><ele>936.0</ele><time>2026-04-29T14:56:37.001Z</time></trkpt><trkpt lat="43.002167615275205" lon="-1.3214764045313911"><ele>935.1999999999999</ele><time>2026-04-29T14:56:38.001Z</time></trkpt><trkpt lat="43.002079722373715" lon="-1.3215668997602654"><ele>934.3999999999999</ele><time>2026-04-29T14:56:39.001Z</time></trkpt><trkpt lat="43.001990286094475" lon="-1.3216628973253828"><ele>933.6</ele><time>2026-04-29T14:56:40.001Z</time></trkpt><trkpt lat="43.00189961124723" lon="-1.3217477573409897"><ele>932.8</ele><time>2026-04-29T14:56:41.001Z</time></trkpt><trkpt lat="43.001812092452134" lon="-1.3218437268586372"><ele>932.0</ele><time>2026-04-29T14:56:42.001Z</time></trkpt><trkpt lat="43.00172093775872" lon="-1.321934171115462"><ele>930.8</ele><time>2026-04-29T14:56:43.001Z</time></trkpt><trkpt lat="43.00163035593547" lon="-1.322022982652324"><ele>929.6</ele><time>2026-04-29T14:56:44.001Z</time></trkpt><trkpt lat="43.001539393121725" lon="-1.322108569493872"><ele>928.3999999999999</ele><time>2026-04-29T14:56:45.001Z</time></trkpt><trkpt lat="43.00144815183771" lon="-1.32219734732555"><ele>927.1999999999999</ele><time>2026-04-29T14:56:46.001Z</time></trkpt><trkpt lat="43.00136341496009" lon="-1.322289170487524"><ele>926.0</ele><time>2026-04-29T14:56:47.001Z</time></trkpt><trkpt lat="43.00126831896084" lon="-1.3223829868929862"><ele>926.0</ele><time>2026-04-29T14:56:48.001Z</time></trkpt><trkpt lat="43.00117788827672" lon="-1.3224668015342373"><ele>925.9999999999999</ele><time>2026-04-29T14:56:49.001Z</time></trkpt><trkpt lat="43.00108769534294" lon="-1.3225617811166106"><ele>925.9999999999999</ele><time>2026-04-29T14:56:50.001Z</time></trkpt><trkpt lat="43.00100137094029" lon="-1.3226494112011529"><ele>926.0</ele><time>2026-04-29T14:56:51.001Z</time></trkpt><trkpt lat="43.000911240372254" lon="-1.3227335138265137"><ele>926.0</ele><time>2026-04-29T14:56:52.001Z</time></trkpt><trkpt lat="43.00082085164175" lon="-1.3228192612275986"><ele>926.0</ele><time>2026-04-29T14:56:53.001Z</time></trkpt><trkpt lat="43.00073112544956" lon="-1.3229117678909512"><ele>925.9999999999999</ele><time>2026-04-29T14:56:54.001Z</time></trkpt><trkpt lat="43.00064168026577" lon="-1.3229983947630115"><ele>925.9999999999999</ele><time>2026-04-29T14:56:55.001Z</time></trkpt><trkpt lat="43.000558633990394" lon="-1.323084490627817"><ele>926.0</ele><time>2026-04-29T14:56:56.001Z</time></trkpt><trkpt lat="43.000467065839615" lon="-1.3231763025015444"><ele>926.0</ele><time>2026-04-29T14:56:57.001Z</time></trkpt><trkpt lat="43.000375897586494" lon="-1.3232649331852646"><ele>926.0</ele><time>2026-04-29T14:56:58.001Z</time></trkpt><trkpt lat="43.000290787213636" lon="-1.3233508512922083"><ele>925.9999999999999</ele><time>2026-04-29T14:56:59.001Z</time></trkpt><trkpt lat="43.00020408286789" lon="-1.3234430360947484"><ele>925.9999999999999</ele><time>2026-04-29T14:57:00Z</time></trkpt><trkpt lat="43.00010522770927" lon="-1.3235294692434603"><ele>926.0</ele><time>2026-04-29T14:57:01Z</time></trkpt><trkpt lat="43.000020615077624" lon="-1.3236129986472376"><ele>926.0</ele><time>2026-04-29T14:57:02Z</time></trkpt><trkpt lat="42.999933426498785" lon="-1.3237040005539986"><ele>926.0</ele><time>2026-04-29T14:57:03Z</time></trkpt><trkpt lat="42.99984569528515" lon="-1.3237855450002016"><ele>925.9999999999999</ele><time>2026-04-29T14:57:04Z</time></trkpt><trkpt lat="42.99975654247461" lon="-1.3238755479046198"><ele>925.9999999999999</ele><time>2026-04-29T14:57:05Z</time></trkpt><trkpt lat="42.99966492193125" lon="-1.3239732215365332"><ele>926.0</ele><time>2026-04-29T14:57:06Z</time></trkpt><trkpt lat="42.99957764173939" lon="-1.3240602732260123"><ele>926.0</ele><time>2026-04-29T14:57:07Z</time></trkpt><trkpt lat="42.99948507491003" lon="-1.3241470986521884"><ele>926.0</ele><time>2026-04-29T14:57:08Z</time></trkpt><trkpt lat="42.99939281159045" lon="-1.3242488187938233"><ele>926.0</ele><time>2026-04-29T14:57:09Z</time></trkpt><trkpt lat="42.99929967263299" lon="-1.32433281407951"><ele>926.0</ele><time>2026-04-29T14:57:10Z</time></trkpt><trkpt lat="42.99920918357545" lon="-1.3244146468574007"><ele>926.0</ele><time>2026-04-29T14:57:11Z</time></trkpt><trkpt lat="42.99911736275487" lon="-1.3245158795201455"><ele>926.0</ele><time>2026-04-29T14:57:12Z</time></trkpt><trkpt lat="42.999027591788504" lon="-1.3246058296874776"><ele>925.9999999999999</ele><time>2026-04-29T14:57:13Z</time></trkpt><trkpt lat="42.99894286471186" lon="-1.3246927234090937"><ele>925.9999999999999</ele><time>2026-04-29T14:57:14Z</time></trkpt><trkpt lat="42.99885394771516" lon="-1.3247846635727434"><ele>926.0</ele><time>2026-04-29T14:57:15Z</time></trkpt><trkpt lat="42.99875840482412" lon="-1.324867782101801"><ele>926.0</ele><time>2026-04-29T14:57:16Z</time></trkpt><trkpt lat="42.998669529608286" lon="-1.3249603439580961"><ele>926.0</ele><time>2026-04-29T14:57:17Z</time></trkpt><trkpt lat="42.99857780164944" lon="-1.3250506752004745"><ele>926.0</ele><time>2026-04-29T14:57:18Z</time></trkpt><trkpt lat="42.99848181168219" lon="-1.3251373377952052"><ele>926.0</ele><time>2026-04-29T14:57:19Z</time></trkpt><trkpt lat="42.99839665729377" lon="-1.3252240301562999"><ele>926.0</ele><time>2026-04-29T14:57:20Z</time></trkpt><trkpt lat="42.9983006643998" lon="-1.3253141387769602"><ele>925.0</ele><time>2026-04-29T14:57:21Z</time></trkpt><trkpt lat="42.998208089300334" lon="-1.3254038818824763"><ele>924.0</ele><time>2026-04-29T14:57:22Z</time></trkpt><trkpt lat="42.99811641999707" lon="-1.3255057199279316"><ele>923.0</ele><time>2026-04-29T14:57:23Z</time></trkpt><trkpt lat="42.998027203649166" lon="-1.3255773453957191"><ele>922.0</ele><time>2026-04-29T14:57:24Z</time></trkpt><trkpt lat="42.99793038801763" lon="-1.3256624934947783"><ele>922.0</ele><time>2026-04-29T14:57:25Z</time></trkpt><trkpt lat="42.997841019971005" lon="-1.3257555048240262"><ele>922.0</ele><time>2026-04-29T14:57:26Z</time></trkpt><trkpt lat="42.99775393516851" lon="-1.3258471948433734"><ele>922.0</ele><time>2026-04-29T14:57:27Z</time></trkpt><trkpt lat="42.9976637390713" lon="-1.3259425329194903"><ele>922.0</ele><time>2026-04-29T14:57:28Z</time></trkpt><trkpt lat="42.99757074870691" lon="-1.3260238021844366"><ele>922.0</ele><time>2026-04-29T14:57:29Z</time></trkpt><trkpt lat="42.99747940942628" lon="-1.3261056396517876"><ele>921.6</ele><time>2026-04-29T14:57:30Z</time></trkpt><trkpt lat="42.99738898388284" lon="-1.3261972472321968"><ele>921.2</ele><time>2026-04-29T14:57:31Z</time></trkpt><trkpt lat="42.99730003540119" lon="-1.3262870642385165"><ele>920.8</ele><time>2026-04-29T14:57:32Z</time></trkpt><trkpt lat="42.99721055626564" lon="-1.3263752069103036"><ele>920.4</ele><time>2026-04-29T14:57:33Z</time></trkpt><trkpt lat="42.997116788872695" lon="-1.3264619772215769"><ele>920.0</ele><time>2026-04-29T14:57:34Z</time></trkpt><trkpt lat="42.997029087086695" lon="-1.3265456359922816"><ele>919.5</ele><time>2026-04-29T14:57:35Z</time></trkpt><trkpt lat="42.996938195058895" lon="-1.3266339112500658"><ele>919.0</ele><time>2026-04-29T14:57:36Z</time></trkpt><trkpt lat="42.99684905050596" lon="-1.3267272023256056"><ele>918.5</ele><time>2026-04-29T14:57:37Z</time></trkpt><trkpt lat="42.99675971941131" lon="-1.326813518909426"><ele>918.0</ele><time>2026-04-29T14:57:38Z</time></trkpt><trkpt lat="42.99665923130126" lon="-1.3268964531187437"><ele>918.0</ele><time>2026-04-29T14:57:39Z</time></trkpt><trkpt lat="42.99657413266418" lon="-1.3269776201551269"><ele>918.0</ele><time>2026-04-29T14:57:40Z</time></trkpt><trkpt lat="42.99648343160413" lon="-1.327065358021545"><ele>918.0</ele><time>2026-04-29T14:57:41Z</time></trkpt><trkpt lat="42.996394821801715" lon="-1.327151010854989"><ele>918.0</ele><time>2026-04-29T14:57:42Z</time></trkpt><trkpt lat="42.996307547724214" lon="-1.3272386985486424"><ele>918.0</ele><time>2026-04-29T14:57:43Z</time></trkpt><trkpt lat="42.996219923826736" lon="-1.3273271094911752"><ele>918.0</ele><time>2026-04-29T14:57:44Z</time></trkpt><trkpt lat="42.99613555729985" lon="-1.327414010779402"><ele>918.0</ele><time>2026-04-29T14:57:45Z</time></trkpt><trkpt lat="42.99604435500711" lon="-1.327501303742131"><ele>918.0</ele><time>2026-04-29T14:57:46Z</time></trkpt><trkpt lat="42.995959523992354" lon="-1.327585722385548"><ele>918.0</ele><time>2026-04-29T14:57:47Z</time></trkpt><trkpt lat="42.995871970618936" lon="-1.3276725162687972"><ele>918.0</ele><time>2026-04-29T14:57:48Z</time></trkpt><trkpt lat="42.99578327869707" lon="-1.327757994531123"><ele>918.0</ele><time>2026-04-29T14:57:49Z</time></trkpt><trkpt lat="42.99569651667478" lon="-1.3278496105762756"><ele>918.0</ele><time>2026-04-29T14:57:50Z</time></trkpt><trkpt lat="42.99560642246153" lon="-1.3279345745480526"><ele>918.0</ele><time>2026-04-29T14:57:51Z</time></trkpt><trkpt lat="42.99551913774686" lon="-1.3280217602849085"><ele>918.0</ele><time>2026-04-29T14:57:52Z</time></trkpt><trkpt lat="42.99543427064403" lon="-1.3281135410151255"><ele>918.0</ele><time>2026-04-29T14:57:53Z</time></trkpt><trkpt lat="42.99534436676401" lon="-1.3281958391108277"><ele>918.2</ele><time>2026-04-29T14:57:54Z</time></trkpt><trkpt lat="42.995256645616486" lon="-1.3282825020936684"><ele>918.4</ele><time>2026-04-29T14:57:55Z</time></trkpt><trkpt lat="42.995166166418024" lon="-1.328370006601552"><ele>918.6000000000001</ele><time>2026-04-29T14:57:56Z</time></trkpt><trkpt lat="42.99507830452528" lon="-1.3284602890154091"><ele>918.8000000000001</ele><time>2026-04-29T14:57:57Z</time></trkpt><trkpt lat="42.99499434921459" lon="-1.3285538192401383"><ele>919.0</ele><time>2026-04-29T14:57:58Z</time></trkpt><trkpt lat="42.99490323955505" lon="-1.3286359328428385"><ele>919.0</ele><time>2026-04-29T14:57:59Z</time></trkpt><trkpt lat="42.994814741430396" lon="-1.3287229562580491"><ele>919.0000000000001</ele><time>2026-04-29T14:58:00Z</time></trkpt><trkpt lat="42.99473133113874" lon="-1.3288114594503413"><ele>919.0000000000001</ele><time>2026-04-29T14:58:01Z</time></trkpt><trkpt lat="42.99464721223075" lon="-1.3288920973699727"><ele>919.0</ele><time>2026-04-29T14:58:02Z</time></trkpt><trkpt lat="42.99455976517143" lon="-1.3289776190979068"><ele>919.0</ele><time>2026-04-29T14:58:03Z</time></trkpt><trkpt lat="42.99447652921722" lon="-1.3290599815148307"><ele>918.2</ele><time>2026-04-29T14:58:04Z</time></trkpt><trkpt lat="42.99439304215254" lon="-1.3291429302471278"><ele>917.4000000000001</ele><time>2026-04-29T14:58:05Z</time></trkpt><trkpt lat="42.99430947464204" lon="-1.3292289095711405"><ele>916.6</ele><time>2026-04-29T14:58:06Z</time></trkpt><trkpt lat="42.99422265577138" lon="-1.329313496383819"><ele>915.8</ele><time>2026-04-29T14:58:07Z</time></trkpt><trkpt lat="42.99414721621385" lon="-1.329391727297745"><ele>915.0</ele><time>2026-04-29T14:58:08Z</time></trkpt><trkpt lat="42.99406162278884" lon="-1.3294731070484564"><ele>913.6</ele><time>2026-04-29T14:58:09Z</time></trkpt><trkpt lat="42.993976079668954" lon="-1.329556802032028"><ele>912.2</ele><time>2026-04-29T14:58:10Z</time></trkpt><trkpt lat="42.993890547060495" lon="-1.3296425506000156"><ele>910.8</ele><time>2026-04-29T14:58:11Z</time></trkpt><trkpt lat="42.99380832120571" lon="-1.3297283672632039"><ele>909.4</ele><time>2026-04-29T14:58:12Z</time></trkpt><trkpt lat="42.99372201876603" lon="-1.3298101500371606"><ele>908.0</ele><time>2026-04-29T14:58:13Z</time></trkpt><trkpt lat="42.993635137198304" lon="-1.329893618871843"><ele>907.5999999999999</ele><time>2026-04-29T14:58:14Z</time></trkpt><trkpt lat="42.993546495969326" lon="-1.3299799017949292"><ele>907.1999999999999</ele><time>2026-04-29T14:58:15Z</time></trkpt><trkpt lat="42.993461291055105" lon="-1.3300685705657815"><ele>906.8</ele><time>2026-04-29T14:58:16Z</time></trkpt><trkpt lat="42.99337220250948" lon="-1.3301543507147493"><ele>906.4</ele><time>2026-04-29T14:58:17Z</time></trkpt><trkpt lat="42.99328390868123" lon="-1.3302409362664138"><ele>906.0</ele><time>2026-04-29T14:58:18Z</time></trkpt><trkpt lat="42.993193095588104" lon="-1.3303286031366526"><ele>905.5999999999999</ele><time>2026-04-29T14:58:19Z</time></trkpt><trkpt lat="42.99310491372661" lon="-1.3304153219604593"><ele>905.1999999999999</ele><time>2026-04-29T14:58:20.001Z</time></trkpt><trkpt lat="42.9930136625152" lon="-1.3305018710151204"><ele>904.8000000000001</ele><time>2026-04-29T14:58:21.001Z</time></trkpt><trkpt lat="42.99292084071923" lon="-1.3305906811128414"><ele>904.4000000000001</ele><time>2026-04-29T14:58:22.001Z</time></trkpt><trkpt lat="42.9928302083618" lon="-1.3306733616697448"><ele>904.0</ele><time>2026-04-29T14:58:23.001Z</time></trkpt><trkpt lat="42.99273760382222" lon="-1.3307609256944173"><ele>903.4000000000001</ele><time>2026-04-29T14:58:24.001Z</time></trkpt><trkpt lat="42.99264955771338" lon="-1.3308514870802586"><ele>902.8000000000001</ele><time>2026-04-29T14:58:25.001Z</time></trkpt><trkpt lat="42.99256108712935" lon="-1.3309443178790064"><ele>902.1999999999999</ele><time>2026-04-29T14:58:26.001Z</time></trkpt><trkpt lat="42.99247021172257" lon="-1.3310323666885964"><ele>901.5999999999999</ele><time>2026-04-29T14:58:27.001Z</time></trkpt><trkpt lat="42.992402438732235" lon="-1.3311476611024906"><ele>901.0</ele><time>2026-04-29T14:58:28.001Z</time></trkpt><trkpt lat="42.992337095865814" lon="-1.3312564149718562"><ele>900.8</ele><time>2026-04-29T14:58:29.001Z</time></trkpt><trkpt lat="42.99227603186507" lon="-1.3313800190705714"><ele>900.5999999999999</ele><time>2026-04-29T14:58:30.001Z</time></trkpt><trkpt lat="42.992202732099514" lon="-1.3314902799333337"><ele>900.4</ele><time>2026-04-29T14:58:31.001Z</time></trkpt><trkpt lat="42.99214560798612" lon="-1.3316280207211326"><ele>900.2</ele><time>2026-04-29T14:58:32.001Z</time></trkpt><trkpt lat="42.992087493508016" lon="-1.3317635017530551"><ele>900.0</ele><time>2026-04-29T14:58:33.001Z</time></trkpt><trkpt lat="42.992033637417215" lon="-1.3318955659596505"><ele>899.6</ele><time>2026-04-29T14:58:34.001Z</time></trkpt><trkpt lat="42.99197930069418" lon="-1.3320268749218929"><ele>899.2</ele><time>2026-04-29T14:58:35.001Z</time></trkpt><trkpt lat="42.99192465313035" lon="-1.3321582261384104"><ele>898.8</ele><time>2026-04-29T14:58:36.001Z</time></trkpt><trkpt lat="42.99186942963114" lon="-1.3322870316742803"><ele>898.4</ele><time>2026-04-29T14:58:37.001Z</time></trkpt><trkpt lat="42.991815061011685" lon="-1.3324161648270594"><ele>898.0</ele><time>2026-04-29T14:58:38.001Z</time></trkpt><trkpt lat="42.9917622853628" lon="-1.3325446388240316"><ele>898.0</ele><time>2026-04-29T14:58:39.001Z</time></trkpt><trkpt lat="42.991706344838384" lon="-1.332668220809321"><ele>898.0</ele><time>2026-04-29T14:58:40.001Z</time></trkpt><trkpt lat="42.991652328296695" lon="-1.3327923610244035"><ele>898.0</ele><time>2026-04-29T14:58:41.001Z</time></trkpt><trkpt lat="42.99159992507888" lon="-1.3329151037945428"><ele>898.0</ele><time>2026-04-29T14:58:42.001Z</time></trkpt><trkpt lat="42.99154557008804" lon="-1.333039677152307"><ele>898.0</ele><time>2026-04-29T14:58:43.001Z</time></trkpt><trkpt lat="42.991491710139215" lon="-1.3331653642864452"><ele>897.4</ele><time>2026-04-29T14:58:44.001Z</time></trkpt><trkpt lat="42.99143638381999" lon="-1.3332878133125492"><ele>896.8</ele><time>2026-04-29T14:58:45.001Z</time></trkpt><trkpt lat="42.99138037843542" lon="-1.33341044277554"><ele>896.2</ele><time>2026-04-29T14:58:46.001Z</time></trkpt><trkpt lat="42.99132795324014" lon="-1.3335354208305574"><ele>895.6</ele><time>2026-04-29T14:58:47.001Z</time></trkpt><trkpt lat="42.99127995076607" lon="-1.333652977805548"><ele>895.0</ele><time>2026-04-29T14:58:48.001Z</time></trkpt><trkpt lat="42.991232742981225" lon="-1.3337600999702632"><ele>894.9999999999999</ele><time>2026-04-29T14:58:49.001Z</time></trkpt><trkpt lat="42.99119499472556" lon="-1.3338519260201627"><ele>895.0</ele><time>2026-04-29T14:58:50.001Z</time></trkpt><trkpt lat="42.991158550599344" lon="-1.333943543480015"><ele>895.0</ele><time>2026-04-29T14:58:51.001Z</time></trkpt><trkpt lat="42.99111954822962" lon="-1.33403185258913"><ele>895.0</ele><time>2026-04-29T14:58:52.001Z</time></trkpt><trkpt lat="42.99107639174253" lon="-1.3341178504281137"><ele>894.9999999999999</ele><time>2026-04-29T14:58:53.001Z</time></trkpt><trkpt lat="42.99103651615868" lon="-1.3342030486081184"><ele>895.0</ele><time>2026-04-29T14:58:54.001Z</time></trkpt><trkpt lat="42.9909950415603" lon="-1.3342865506615995"><ele>894.9999999999999</ele><time>2026-04-29T14:58:55.001Z</time></trkpt><trkpt lat="42.99095244693701" lon="-1.3343725771153858"><ele>895.0</ele><time>2026-04-29T14:58:56.001Z</time></trkpt><trkpt lat="42.99091021300398" lon="-1.3344610490739113"><ele>895.0</ele><time>2026-04-29T14:58:57.001Z</time></trkpt><trkpt lat="42.99086326222688" lon="-1.3345507102872554"><ele>895.0</ele><time>2026-04-29T14:58:58.001Z</time></trkpt><trkpt lat="42.99082177879364" lon="-1.3346423728630568"><ele>894.9999999999999</ele><time>2026-04-29T14:58:59.001Z</time></trkpt><trkpt lat="42.99077123504316" lon="-1.3347233513694337"><ele>895.0</ele><time>2026-04-29T14:59:00.001Z</time></trkpt><trkpt lat="42.99071527889213" lon="-1.3348055818774651"><ele>895.3333333333333</ele><time>2026-04-29T14:59:01.001Z</time></trkpt><trkpt lat="42.99065853256287" lon="-1.334891649734544"><ele>895.6666666666666</ele><time>2026-04-29T14:59:02.001Z</time></trkpt><trkpt lat="42.99059157276814" lon="-1.3349546886179713"><ele>896.0</ele><time>2026-04-29T14:59:03.001Z</time></trkpt><trkpt lat="42.99052187867088" lon="-1.3350152477012793"><ele>896.3333333333333</ele><time>2026-04-29T14:59:04.001Z</time></trkpt><trkpt lat="42.99044849122515" lon="-1.3350730980613639"><ele>896.6666666666666</ele><time>2026-04-29T14:59:05.001Z</time></trkpt><trkpt lat="42.990371476255" lon="-1.3351316738773953"><ele>897.0</ele><time>2026-04-29T14:59:06Z</time></trkpt><trkpt lat="42.99029210188806" lon="-1.3351899410973058"><ele>897.0</ele><time>2026-04-29T14:59:07Z</time></trkpt><trkpt lat="42.99021507144846" lon="-1.3352465747414302"><ele>897.0</ele><time>2026-04-29T14:59:08Z</time></trkpt><trkpt lat="42.990135309917775" lon="-1.3352876260935027"><ele>897.0</ele><time>2026-04-29T14:59:09Z</time></trkpt><trkpt lat="42.99005910852159" lon="-1.3353355764097627"><ele>897.0</ele><time>2026-04-29T14:59:10Z</time></trkpt><trkpt lat="42.989992866907166" lon="-1.3354099420262746"><ele>897.0</ele><time>2026-04-29T14:59:11Z</time></trkpt><trkpt lat="42.989923755234585" lon="-1.335460753758727"><ele>897.0</ele><time>2026-04-29T14:59:12Z</time></trkpt><trkpt lat="42.98985038853657" lon="-1.3355145927878587"><ele>896.3333333333334</ele><time>2026-04-29T14:59:13Z</time></trkpt><trkpt lat="42.98977511511529" lon="-1.3355698779581384"><ele>895.6666666666667</ele><time>2026-04-29T14:59:14Z</time></trkpt><trkpt lat="42.98970170057321" lon="-1.3356237978567969"><ele>895.0</ele><time>2026-04-29T14:59:15Z</time></trkpt><trkpt lat="42.98963098190101" lon="-1.3356757377530335"><ele>894.3333333333334</ele><time>2026-04-29T14:59:16Z</time></trkpt><trkpt lat="42.989556540684696" lon="-1.335730411705384"><ele>893.6666666666667</ele><time>2026-04-29T14:59:17Z</time></trkpt><trkpt lat="42.98948398999967" lon="-1.3357841742065832"><ele>893.0</ele><time>2026-04-29T14:59:18Z</time></trkpt><trkpt lat="42.9894007213157" lon="-1.335824633242675"><ele>893.0000000000001</ele><time>2026-04-29T14:59:19Z</time></trkpt><trkpt lat="42.98933144521477" lon="-1.3358986018524133"><ele>893.0</ele><time>2026-04-29T14:59:20Z</time></trkpt><trkpt lat="42.98925781074152" lon="-1.335957770245462"><ele>893.0</ele><time>2026-04-29T14:59:21Z</time></trkpt><trkpt lat="42.98918263647734" lon="-1.3360154518971492"><ele>893.0</ele><time>2026-04-29T14:59:22Z</time></trkpt><trkpt lat="42.98910496189865" lon="-1.3360727096598775"><ele>893.0000000000001</ele><time>2026-04-29T14:59:23Z</time></trkpt><trkpt lat="42.989031995268434" lon="-1.3361252741406895"><ele>893.0</ele><time>2026-04-29T14:59:24Z</time></trkpt><trkpt lat="42.98895613340047" lon="-1.3361792781962427"><ele>893.5000000000001</ele><time>2026-04-29T14:59:25Z</time></trkpt><trkpt lat="42.988883171662266" lon="-1.3362287921980673"><ele>894.0</ele><time>2026-04-29T14:59:26Z</time></trkpt><trkpt lat="42.98880449578898" lon="-1.3362793010144258"><ele>894.5</ele><time>2026-04-29T14:59:27Z</time></trkpt><trkpt lat="42.9887307167274" lon="-1.3363249709890175"><ele>895.0</ele><time>2026-04-29T14:59:28Z</time></trkpt><trkpt lat="42.98865457914677" lon="-1.3363671912709727"><ele>895.5000000000001</ele><time>2026-04-29T14:59:29Z</time></trkpt><trkpt lat="42.98857409085775" lon="-1.336411824146924"><ele>896.0</ele><time>2026-04-29T14:59:30Z</time></trkpt><trkpt lat="42.98849095111216" lon="-1.33645407059801"><ele>895.3333333333334</ele><time>2026-04-29T14:59:31Z</time></trkpt><trkpt lat="42.98840830753321" lon="-1.336496419812642"><ele>894.6666666666667</ele><time>2026-04-29T14:59:32Z</time></trkpt><trkpt lat="42.988327916175514" lon="-1.3365357470541044"><ele>894.0</ele><time>2026-04-29T14:59:33Z</time></trkpt><trkpt lat="42.9882474337511" lon="-1.3365726200634185"><ele>893.3333333333333</ele><time>2026-04-29T14:59:34Z</time></trkpt><trkpt lat="42.988165161933466" lon="-1.3366103128749005"><ele>892.6666666666666</ele><time>2026-04-29T14:59:35Z</time></trkpt><trkpt lat="42.98808337778342" lon="-1.336650903677217"><ele>892.0</ele><time>2026-04-29T14:59:36Z</time></trkpt><trkpt lat="42.98799756306265" lon="-1.3366941665489824"><ele>892.0</ele><time>2026-04-29T14:59:37Z</time></trkpt><trkpt lat="42.98790789065795" lon="-1.3367203326905206"><ele>892.0</ele><time>2026-04-29T14:59:38Z</time></trkpt><trkpt lat="42.98782516540444" lon="-1.3367726660444994"><ele>892.0</ele><time>2026-04-29T14:59:39Z</time></trkpt><trkpt lat="42.98774115906726" lon="-1.336810725354436"><ele>892.0</ele><time>2026-04-29T14:59:40Z</time></trkpt><trkpt lat="42.98765715965734" lon="-1.3368705861187378"><ele>892.0</ele><time>2026-04-29T14:59:41Z</time></trkpt><trkpt lat="42.98757415617516" lon="-1.3369181980857592"><ele>892.2</ele><time>2026-04-29T14:59:42Z</time></trkpt><trkpt lat="42.98748476594507" lon="-1.3369617321668896"><ele>892.4000000000001</ele><time>2026-04-29T14:59:43Z</time></trkpt><trkpt lat="42.98739599128204" lon="-1.337001295248861"><ele>892.5999999999999</ele><time>2026-04-29T14:59:44Z</time></trkpt><trkpt lat="42.98730682793553" lon="-1.3370437180559378"><ele>892.8</ele><time>2026-04-29T14:59:45Z</time></trkpt><trkpt lat="42.98722350684727" lon="-1.3370920137760702"><ele>893.0</ele><time>2026-04-29T14:59:46Z</time></trkpt><trkpt lat="42.987128484081396" lon="-1.3371589045635426"><ele>893.0</ele><time>2026-04-29T14:59:47Z</time></trkpt><trkpt lat="42.98704703946495" lon="-1.3371875271241476"><ele>893.0</ele><time>2026-04-29T14:59:48Z</time></trkpt><trkpt lat="42.98695822000916" lon="-1.337237264011817"><ele>893.0</ele><time>2026-04-29T14:59:49Z</time></trkpt><trkpt lat="42.986873001451116" lon="-1.3372890427454427"><ele>893.0</ele><time>2026-04-29T14:59:50Z</time></trkpt><trkpt lat="42.98678446311655" lon="-1.3373399483318795"><ele>893.0</ele><time>2026-04-29T14:59:51Z</time></trkpt><trkpt lat="42.986707321704934" lon="-1.3374063669932714"><ele>892.2</ele><time>2026-04-29T14:59:52Z</time></trkpt><trkpt lat="42.98662917087737" lon="-1.3374764629087035"><ele>891.4</ele><time>2026-04-29T14:59:53Z</time></trkpt><trkpt lat="42.986555558659035" lon="-1.3375625239060127"><ele>890.6000000000001</ele><time>2026-04-29T14:59:54Z</time></trkpt><trkpt lat="42.98649122224605" lon="-1.3376605132774946"><ele>889.8000000000001</ele><time>2026-04-29T14:59:55Z</time></trkpt><trkpt lat="42.9864219018199" lon="-1.3377445280873608"><ele>889.0</ele><time>2026-04-29T14:59:56Z</time></trkpt><trkpt lat="42.98635362887154" lon="-1.3378337942093883"><ele>889.0</ele><time>2026-04-29T14:59:57Z</time></trkpt><trkpt lat="42.986282958919396" lon="-1.3379211943751204"><ele>889.0000000000001</ele><time>2026-04-29T14:59:58Z</time></trkpt><trkpt lat="42.98621417011278" lon="-1.3380110875313247"><ele>889.0000000000001</ele><time>2026-04-29T14:59:59Z</time></trkpt><trkpt lat="42.98615118577335" lon="-1.338100168994655"><ele>889.0</ele><time>2026-04-29T15:00:00Z</time></trkpt><trkpt lat="42.986073323737486" lon="-1.3381881383907264"><ele>889.0</ele><time>2026-04-29T15:00:01Z</time></trkpt><trkpt lat="42.98600614140808" lon="-1.338273497372256"><ele>888.4000000000001</ele><time>2026-04-29T15:00:02Z</time></trkpt><trkpt lat="42.98593551469306" lon="-1.3383587592662909"><ele>887.8000000000001</ele><time>2026-04-29T15:00:03Z</time></trkpt><trkpt lat="42.985867414673024" lon="-1.3384423019645701"><ele>887.1999999999999</ele><time>2026-04-29T15:00:04Z</time></trkpt><trkpt lat="42.98579617123041" lon="-1.3385305428589187"><ele>886.5999999999999</ele><time>2026-04-29T15:00:05Z</time></trkpt><trkpt lat="42.985725744479865" lon="-1.3386162094023968"><ele>886.0</ele><time>2026-04-29T15:00:06Z</time></trkpt><trkpt lat="42.9856603381092" lon="-1.3386934069825493"><ele>885.8</ele><time>2026-04-29T15:00:07Z</time></trkpt><trkpt lat="42.98559378510441" lon="-1.3387791546992804"><ele>885.5999999999999</ele><time>2026-04-29T15:00:08Z</time></trkpt><trkpt lat="42.98552290434434" lon="-1.3388598600354005"><ele>885.4</ele><time>2026-04-29T15:00:09Z</time></trkpt><trkpt lat="42.98545141250918" lon="-1.3389484113620347"><ele>885.2</ele><time>2026-04-29T15:00:10Z</time></trkpt><trkpt lat="42.98537804153931" lon="-1.3390386483153527"><ele>885.0</ele><time>2026-04-29T15:00:11Z</time></trkpt><trkpt lat="42.98530321230063" lon="-1.3391326504258427"><ele>884.8</ele><time>2026-04-29T15:00:12Z</time></trkpt><trkpt lat="42.985224168856966" lon="-1.3392247345617445"><ele>884.6</ele><time>2026-04-29T15:00:13Z</time></trkpt><trkpt lat="42.98514854502077" lon="-1.33931871793272"><ele>884.4000000000001</ele><time>2026-04-29T15:00:14Z</time></trkpt><trkpt lat="42.98506793192249" lon="-1.3394167130360626"><ele>884.2</ele><time>2026-04-29T15:00:15Z</time></trkpt><trkpt lat="42.984990040204316" lon="-1.3395121428260204"><ele>884.0</ele><time>2026-04-29T15:00:16Z</time></trkpt><trkpt lat="42.984912257115354" lon="-1.3396126882117991"><ele>884.0</ele><time>2026-04-29T15:00:17Z</time></trkpt><trkpt lat="42.98482969262078" lon="-1.339713761181852"><ele>884.0000000000001</ele><time>2026-04-29T15:00:18Z</time></trkpt><trkpt lat="42.98474456328582" lon="-1.339807801120353"><ele>884.0000000000001</ele><time>2026-04-29T15:00:19Z</time></trkpt><trkpt lat="42.98466060510536" lon="-1.3399083594898151"><ele>884.0</ele><time>2026-04-29T15:00:20Z</time></trkpt><trkpt lat="42.98457867321316" lon="-1.340011578786885"><ele>884.0</ele><time>2026-04-29T15:00:21Z</time></trkpt><trkpt lat="42.984496615399166" lon="-1.3401129572839923"><ele>883.25</ele><time>2026-04-29T15:00:22Z</time></trkpt><trkpt lat="42.98441111780675" lon="-1.3402212130484008"><ele>882.5</ele><time>2026-04-29T15:00:23Z</time></trkpt><trkpt lat="42.984328621226446" lon="-1.3403146555240177"><ele>881.75</ele><time>2026-04-29T15:00:24Z</time></trkpt><trkpt lat="42.98424270901423" lon="-1.3404196835480653"><ele>881.0</ele><time>2026-04-29T15:00:25Z</time></trkpt><trkpt lat="42.98415502091285" lon="-1.3405269092234815"><ele>880.25</ele><time>2026-04-29T15:00:26.001Z</time></trkpt><trkpt lat="42.98407127390313" lon="-1.3406202650689272"><ele>879.5</ele><time>2026-04-29T15:00:27.001Z</time></trkpt><trkpt lat="42.983982883428325" lon="-1.3407339884352447"><ele>878.75</ele><time>2026-04-29T15:00:28.001Z</time></trkpt><trkpt lat="42.98390189244759" lon="-1.340822388242979"><ele>878.0</ele><time>2026-04-29T15:00:29.001Z</time></trkpt><trkpt lat="42.98381635934961" lon="-1.3409334684376903"><ele>878.0</ele><time>2026-04-29T15:00:30.001Z</time></trkpt><trkpt lat="42.98372799533875" lon="-1.3410318596454218"><ele>878.0</ele><time>2026-04-29T15:00:31.001Z</time></trkpt><trkpt lat="42.983646683442124" lon="-1.341139405920145"><ele>878.0</ele><time>2026-04-29T15:00:32.001Z</time></trkpt><trkpt lat="42.983561587006676" lon="-1.3412396358652015"><ele>878.0</ele><time>2026-04-29T15:00:33.001Z</time></trkpt><trkpt lat="42.98348104098478" lon="-1.3413428416087605"><ele>878.25</ele><time>2026-04-29T15:00:34.001Z</time></trkpt><trkpt lat="42.98339816783101" lon="-1.3414526344560762"><ele>878.5</ele><time>2026-04-29T15:00:35.001Z</time></trkpt><trkpt lat="42.98331539445352" lon="-1.341554398330218"><ele>878.75</ele><time>2026-04-29T15:00:36.001Z</time></trkpt><trkpt lat="42.983230928105165" lon="-1.3416525293516592"><ele>879.0</ele><time>2026-04-29T15:00:37.001Z</time></trkpt><trkpt lat="42.983146507301036" lon="-1.3417544975742386"><ele>879.0</ele><time>2026-04-29T15:00:38.001Z</time></trkpt><trkpt lat="42.98306286629883" lon="-1.3418579458324817"><ele>879.0000000000001</ele><time>2026-04-29T15:00:39.001Z</time></trkpt><trkpt lat="42.9829805487683" lon="-1.3419591119411247"><ele>879.0000000000001</ele><time>2026-04-29T15:00:40.001Z</time></trkpt><trkpt lat="42.98289627566225" lon="-1.342061365166731"><ele>879.0</ele><time>2026-04-29T15:00:41.001Z</time></trkpt><trkpt lat="42.98281371608757" lon="-1.3421605682441984"><ele>879.0</ele><time>2026-04-29T15:00:42.001Z</time></trkpt><trkpt lat="42.982730736862045" lon="-1.342261793762146"><ele>879.25</ele><time>2026-04-29T15:00:43.001Z</time></trkpt><trkpt lat="42.982649385825994" lon="-1.3423673183290667"><ele>879.5</ele><time>2026-04-29T15:00:44.001Z</time></trkpt><trkpt lat="42.982564929880574" lon="-1.3424737355960301"><ele>879.75</ele><time>2026-04-29T15:00:45.001Z</time></trkpt><trkpt lat="42.9824809005733" lon="-1.3425702094020995"><ele>880.0</ele><time>2026-04-29T15:00:46.001Z</time></trkpt><trkpt lat="42.98239789523812" lon="-1.3426783612695623"><ele>880.0</ele><time>2026-04-29T15:00:47.001Z</time></trkpt><trkpt lat="42.98231433531873" lon="-1.3427715620362417"><ele>880.0</ele><time>2026-04-29T15:00:48.001Z</time></trkpt><trkpt lat="42.98222886227671" lon="-1.3428684570851188"><ele>880.0</ele><time>2026-04-29T15:00:49.001Z</time></trkpt><trkpt lat="42.98214726749793" lon="-1.3429637372480439"><ele>880.0</ele><time>2026-04-29T15:00:50.001Z</time></trkpt><trkpt lat="42.98207064491731" lon="-1.3430684882612465"><ele>880.0</ele><time>2026-04-29T15:00:51.001Z</time></trkpt><trkpt lat="42.98199457718981" lon="-1.3431653184077617"><ele>879.2</ele><time>2026-04-29T15:00:52.001Z</time></trkpt><trkpt lat="42.98191306314339" lon="-1.3432611152044829"><ele>878.4</ele><time>2026-04-29T15:00:53.001Z</time></trkpt><trkpt lat="42.981834193012354" lon="-1.3433484233895328"><ele>877.5999999999999</ele><time>2026-04-29T15:00:54.001Z</time></trkpt><trkpt lat="42.981756272255105" lon="-1.3434379082866206"><ele>876.8</ele><time>2026-04-29T15:00:55.001Z</time></trkpt><trkpt lat="42.9816800309211" lon="-1.3435275304070071"><ele>876.0</ele><time>2026-04-29T15:00:56.001Z</time></trkpt><trkpt lat="42.98160855816093" lon="-1.3436227023600733"><ele>877.0</ele><time>2026-04-29T15:00:57.001Z</time></trkpt><trkpt lat="42.98153403456572" lon="-1.3437100821318761"><ele>877.9999999999999</ele><time>2026-04-29T15:00:58.001Z</time></trkpt><trkpt lat="42.98146200751094" lon="-1.3437978833698585"><ele>878.9999999999999</ele><time>2026-04-29T15:00:59.001Z</time></trkpt><trkpt lat="42.98139104855397" lon="-1.343895496234505"><ele>880.0</ele><time>2026-04-29T15:01:00.001Z</time></trkpt><trkpt lat="42.98131670749926" lon="-1.3439732627661356"><ele>881.0</ele><time>2026-04-29T15:01:01.001Z</time></trkpt><trkpt lat="42.98123700582934" lon="-1.34405531987085"><ele>881.0</ele><time>2026-04-29T15:01:02.001Z</time></trkpt><trkpt lat="42.9811564376713" lon="-1.3441470581728068"><ele>880.9999999999999</ele><time>2026-04-29T15:01:03.001Z</time></trkpt><trkpt lat="42.9810770485562" lon="-1.3442366040713105"><ele>880.9999999999999</ele><time>2026-04-29T15:01:04.001Z</time></trkpt><trkpt lat="42.98099240488295" lon="-1.3443268596720148"><ele>881.0</ele><time>2026-04-29T15:01:05.001Z</time></trkpt><trkpt lat="42.98091237067033" lon="-1.3444240794992082"><ele>881.0</ele><time>2026-04-29T15:01:06.001Z</time></trkpt><trkpt lat="42.98082857663734" lon="-1.3445084538885135"><ele>881.1999999999999</ele><time>2026-04-29T15:01:07.001Z</time></trkpt><trkpt lat="42.980747286681165" lon="-1.344600895255259"><ele>881.3999999999999</ele><time>2026-04-29T15:01:08.001Z</time></trkpt><trkpt lat="42.98066661462154" lon="-1.3446935585020146"><ele>881.6</ele><time>2026-04-29T15:01:09.001Z</time></trkpt><trkpt lat="42.98058399502074" lon="-1.3447864539578438"><ele>881.8</ele><time>2026-04-29T15:01:10.001Z</time></trkpt><trkpt lat="42.980502470012475" lon="-1.344881794015374"><ele>882.0</ele><time>2026-04-29T15:01:11.001Z</time></trkpt><trkpt lat="42.98042120864041" lon="-1.3449712912241296"><ele>882.0</ele><time>2026-04-29T15:01:12Z</time></trkpt><trkpt lat="42.980338365878694" lon="-1.3450592630142888"><ele>882.0</ele><time>2026-04-29T15:01:13Z</time></trkpt><trkpt lat="42.980253641187566" lon="-1.3451501015575968"><ele>882.0</ele><time>2026-04-29T15:01:14Z</time></trkpt><trkpt lat="42.98016891167781" lon="-1.3452394962306475"><ele>882.0</ele><time>2026-04-29T15:01:15Z</time></trkpt><trkpt lat="42.98008931417049" lon="-1.3453212990679582"><ele>882.0</ele><time>2026-04-29T15:01:16Z</time></trkpt><trkpt lat="42.98000348152034" lon="-1.3454154256954027"><ele>882.0</ele><time>2026-04-29T15:01:17Z</time></trkpt><trkpt lat="42.979919015279826" lon="-1.345509292553893"><ele>882.0</ele><time>2026-04-29T15:01:18Z</time></trkpt><trkpt lat="42.9798335559438" lon="-1.3456003765806106"><ele>882.0</ele><time>2026-04-29T15:01:19Z</time></trkpt><trkpt lat="42.97974832846171" lon="-1.3456936249744107"><ele>882.0</ele><time>2026-04-29T15:01:20Z</time></trkpt><trkpt lat="42.979662563285736" lon="-1.3457862794574078"><ele>882.0</ele><time>2026-04-29T15:01:21Z</time></trkpt><trkpt lat="42.97957761916962" lon="-1.3458768716116025"><ele>881.4000000000001</ele><time>2026-04-29T15:01:22Z</time></trkpt><trkpt lat="42.979490107565574" lon="-1.345971707657645"><ele>880.8000000000001</ele><time>2026-04-29T15:01:23Z</time></trkpt><trkpt lat="42.97940611346915" lon="-1.3460647896743714"><ele>880.2</ele><time>2026-04-29T15:01:24Z</time></trkpt><trkpt lat="42.97931860087941" lon="-1.3461567293882428"><ele>879.6</ele><time>2026-04-29T15:01:25Z</time></trkpt><trkpt lat="42.979231133208586" lon="-1.346254515867722"><ele>879.0</ele><time>2026-04-29T15:01:26Z</time></trkpt><trkpt lat="42.97914312947331" lon="-1.3463534655159046"><ele>878.0</ele><time>2026-04-29T15:01:27Z</time></trkpt><trkpt lat="42.979053484185314" lon="-1.3464522090371842"><ele>877.0</ele><time>2026-04-29T15:01:28Z</time></trkpt><trkpt lat="42.978968484030325" lon="-1.3465517632776376"><ele>876.0</ele><time>2026-04-29T15:01:29Z</time></trkpt><trkpt lat="42.978880727019394" lon="-1.346639871632377"><ele>875.0</ele><time>2026-04-29T15:01:30Z</time></trkpt><trkpt lat="42.9787922130071" lon="-1.346740092207866"><ele>875.0</ele><time>2026-04-29T15:01:31Z</time></trkpt><trkpt lat="42.97870674869139" lon="-1.3468365781607075"><ele>875.0</ele><time>2026-04-29T15:01:32Z</time></trkpt><trkpt lat="42.97861265644796" lon="-1.3469345782327842"><ele>875.0</ele><time>2026-04-29T15:01:33Z</time></trkpt><trkpt lat="42.97852150474688" lon="-1.3470356973737907"><ele>875.0</ele><time>2026-04-29T15:01:34Z</time></trkpt><trkpt lat="42.97843440336709" lon="-1.3471323629016865"><ele>874.5</ele><time>2026-04-29T15:01:35Z</time></trkpt><trkpt lat="42.978346948281825" lon="-1.3472276897021491"><ele>874.0</ele><time>2026-04-29T15:01:36Z</time></trkpt><trkpt lat="42.978256796289884" lon="-1.3473242845944622"><ele>873.5</ele><time>2026-04-29T15:01:37Z</time></trkpt><trkpt lat="42.978166133272865" lon="-1.3474219286935532"><ele>873.0</ele><time>2026-04-29T15:01:38Z</time></trkpt><trkpt lat="42.97807970202133" lon="-1.347527791955684"><ele>873.0</ele><time>2026-04-29T15:01:39Z</time></trkpt><trkpt lat="42.97798852707353" lon="-1.3476232571504927"><ele>873.0</ele><time>2026-04-29T15:01:40Z</time></trkpt><trkpt lat="42.97790519454426" lon="-1.3477247085654915"><ele>873.0</ele><time>2026-04-29T15:01:41Z</time></trkpt><trkpt lat="42.97781519727288" lon="-1.3478200298752232"><ele>873.0</ele><time>2026-04-29T15:01:42Z</time></trkpt><trkpt lat="42.9777272226558" lon="-1.3479139695618316"><ele>873.0</ele><time>2026-04-29T15:01:43Z</time></trkpt><trkpt lat="42.97763757964367" lon="-1.348012510533026"><ele>873.0</ele><time>2026-04-29T15:01:44Z</time></trkpt><trkpt lat="42.977548617390816" lon="-1.3481067355608645"><ele>873.0</ele><time>2026-04-29T15:01:45Z</time></trkpt><trkpt lat="42.97745898569245" lon="-1.348200582226557"><ele>873.0</ele><time>2026-04-29T15:01:46Z</time></trkpt><trkpt lat="42.97736941588545" lon="-1.3482964773851502"><ele>872.5</ele><time>2026-04-29T15:01:47Z</time></trkpt><trkpt lat="42.977280467811596" lon="-1.348395199397749"><ele>872.0</ele><time>2026-04-29T15:01:48Z</time></trkpt><trkpt lat="42.97719275539948" lon="-1.3484915097504409"><ele>871.5</ele><time>2026-04-29T15:01:49Z</time></trkpt><trkpt lat="42.977103960534215" lon="-1.348586503802461"><ele>871.0</ele><time>2026-04-29T15:01:50Z</time></trkpt><trkpt lat="42.977014775380624" lon="-1.3486833394619557"><ele>871.0</ele><time>2026-04-29T15:01:51Z</time></trkpt><trkpt lat="42.976927961223524" lon="-1.348773236342046"><ele>870.9999999999999</ele><time>2026-04-29T15:01:52Z</time></trkpt><trkpt lat="42.97684016909265" lon="-1.348870280275648"><ele>870.9999999999999</ele><time>2026-04-29T15:01:53Z</time></trkpt><trkpt lat="42.976748206059106" lon="-1.348967202979117"><ele>871.0</ele><time>2026-04-29T15:01:54Z</time></trkpt><trkpt lat="42.976665746207956" lon="-1.3490585614857247"><ele>871.0</ele><time>2026-04-29T15:01:55Z</time></trkpt><trkpt lat="42.97657920746541" lon="-1.34915846601796"><ele>870.0</ele><time>2026-04-29T15:01:56Z</time></trkpt><trkpt lat="42.97649436160856" lon="-1.3492489330527733"><ele>868.9999999999999</ele><time>2026-04-29T15:01:57Z</time></trkpt><trkpt lat="42.97640880878263" lon="-1.3493463722257228"><ele>867.9999999999999</ele><time>2026-04-29T15:01:58Z</time></trkpt><trkpt lat="42.9763244132603" lon="-1.3494395982703884"><ele>867.0</ele><time>2026-04-29T15:01:59Z</time></trkpt><trkpt lat="42.976239220326505" lon="-1.3495301719889419"><ele>866.0</ele><time>2026-04-29T15:02:00Z</time></trkpt><trkpt lat="42.976154800702446" lon="-1.349618956278103"><ele>866.1999999999999</ele><time>2026-04-29T15:02:01Z</time></trkpt><trkpt lat="42.97606934111054" lon="-1.3497118072949965"><ele>866.3999999999999</ele><time>2026-04-29T15:02:02Z</time></trkpt><trkpt lat="42.97598632096499" lon="-1.3498038330393263"><ele>866.6</ele><time>2026-04-29T15:02:03Z</time></trkpt><trkpt lat="42.97590528574259" lon="-1.3498943480501795"><ele>866.8</ele><time>2026-04-29T15:02:04Z</time></trkpt><trkpt lat="42.975825351850844" lon="-1.349986139708051"><ele>867.0</ele><time>2026-04-29T15:02:05Z</time></trkpt><trkpt lat="42.975744372899236" lon="-1.3500767026658171"><ele>867.2</ele><time>2026-04-29T15:02:06Z</time></trkpt><trkpt lat="42.975661678207686" lon="-1.3501666892270519"><ele>867.4000000000001</ele><time>2026-04-29T15:02:07Z</time></trkpt><trkpt lat="42.97557851676358" lon="-1.3502595562036361"><ele>867.5999999999999</ele><time>2026-04-29T15:02:08Z</time></trkpt><trkpt lat="42.975496405056816" lon="-1.3503525621333536"><ele>867.8</ele><time>2026-04-29T15:02:09Z</time></trkpt><trkpt lat="42.975415263835856" lon="-1.3504486969361287"><ele>868.0</ele><time>2026-04-29T15:02:10Z</time></trkpt><trkpt lat="42.975327694758114" lon="-1.3505390294225534"><ele>868.8</ele><time>2026-04-29T15:02:11Z</time></trkpt><trkpt lat="42.97524642363477" lon="-1.3506321468231555"><ele>869.5999999999999</ele><time>2026-04-29T15:02:12Z</time></trkpt><trkpt lat="42.9751592963751" lon="-1.3507307572636145"><ele>870.4000000000001</ele><time>2026-04-29T15:02:13Z</time></trkpt><trkpt lat="42.97507381474047" lon="-1.3508210916980388"><ele>871.2</ele><time>2026-04-29T15:02:14.001Z</time></trkpt><trkpt lat="42.974987343900935" lon="-1.3509157225293846"><ele>872.0</ele><time>2026-04-29T15:02:15.001Z</time></trkpt><trkpt lat="42.974900277134644" lon="-1.351006550130185"><ele>872.0</ele><time>2026-04-29T15:02:16.001Z</time></trkpt><trkpt lat="42.97481404480529" lon="-1.3511036961743645"><ele>872.0</ele><time>2026-04-29T15:02:17.001Z</time></trkpt><trkpt lat="42.97473051201495" lon="-1.351191585819886"><ele>872.0</ele><time>2026-04-29T15:02:18.001Z</time></trkpt><trkpt lat="42.974642854119935" lon="-1.3512869051502907"><ele>872.0</ele><time>2026-04-29T15:02:19.001Z</time></trkpt><trkpt lat="42.97455988296233" lon="-1.3513814819730843"><ele>872.0</ele><time>2026-04-29T15:02:20.001Z</time></trkpt><trkpt lat="42.97447583891857" lon="-1.351474296302343"><ele>871.6</ele><time>2026-04-29T15:02:21.001Z</time></trkpt><trkpt lat="42.974384150371044" lon="-1.3515572840662855"><ele>871.2</ele><time>2026-04-29T15:02:22.001Z</time></trkpt><trkpt lat="42.97430076461445" lon="-1.3516544565206292"><ele>870.8</ele><time>2026-04-29T15:02:23.001Z</time></trkpt><trkpt lat="42.9742155690436" lon="-1.35174602427767"><ele>870.4</ele><time>2026-04-29T15:02:24.001Z</time></trkpt><trkpt lat="42.97412662754076" lon="-1.3518440639356484"><ele>870.0</ele><time>2026-04-29T15:02:25.001Z</time></trkpt><trkpt lat="42.97403932340482" lon="-1.351935697092464"><ele>869.5</ele><time>2026-04-29T15:02:26.001Z</time></trkpt><trkpt lat="42.97395045091575" lon="-1.3520249023691093"><ele>869.0</ele><time>2026-04-29T15:02:27.001Z</time></trkpt><trkpt lat="42.97385770015054" lon="-1.3521416150759575"><ele>868.5</ele><time>2026-04-29T15:02:28.001Z</time></trkpt><trkpt lat="42.97376456749571" lon="-1.3522495234801544"><ele>868.0</ele><time>2026-04-29T15:02:29.001Z</time></trkpt><trkpt lat="42.973671377045946" lon="-1.3523528589925078"><ele>867.5</ele><time>2026-04-29T15:02:30.001Z</time></trkpt><trkpt lat="42.97358211665732" lon="-1.3524551978947164"><ele>867.0</ele><time>2026-04-29T15:02:31.001Z</time></trkpt><trkpt lat="42.973489513681045" lon="-1.3525559480277662"><ele>866.5</ele><time>2026-04-29T15:02:32.001Z</time></trkpt><trkpt lat="42.97339907049057" lon="-1.3526457215104124"><ele>866.0</ele><time>2026-04-29T15:02:33.001Z</time></trkpt><trkpt lat="42.97331634344146" lon="-1.3527483275316747"><ele>866.0</ele><time>2026-04-29T15:02:34.001Z</time></trkpt><trkpt lat="42.97322963459173" lon="-1.3528406215247726"><ele>865.9999999999999</ele><time>2026-04-29T15:02:35.001Z</time></trkpt><trkpt lat="42.973145025239454" lon="-1.3529274120098802"><ele>865.9999999999999</ele><time>2026-04-29T15:02:36.001Z</time></trkpt><trkpt lat="42.97306223088652" lon="-1.3530184394168459"><ele>866.0</ele><time>2026-04-29T15:02:37.001Z</time></trkpt><trkpt lat="42.97298149037009" lon="-1.3531046386326124"><ele>866.0</ele><time>2026-04-29T15:02:38.001Z</time></trkpt><trkpt lat="42.97290306105685" lon="-1.3531992420504875"><ele>866.5999999999999</ele><time>2026-04-29T15:02:39.001Z</time></trkpt><trkpt lat="42.972822211431314" lon="-1.3532838881943297"><ele>867.1999999999999</ele><time>2026-04-29T15:02:40.001Z</time></trkpt><trkpt lat="42.972743002532816" lon="-1.3533735151806359"><ele>867.8000000000001</ele><time>2026-04-29T15:02:41.001Z</time></trkpt><trkpt lat="42.97267740065278" lon="-1.3534765462787592"><ele>868.4000000000001</ele><time>2026-04-29T15:02:42.001Z</time></trkpt><trkpt lat="42.9726274085163" lon="-1.3535964183327969"><ele>869.0</ele><time>2026-04-29T15:02:43.001Z</time></trkpt><trkpt lat="42.97260069708564" lon="-1.3537250453117118"><ele>869.0</ele><time>2026-04-29T15:02:44.001Z</time></trkpt><trkpt lat="42.97259473459557" lon="-1.3538626775604339"><ele>869.0000000000001</ele><time>2026-04-29T15:02:45.001Z</time></trkpt><trkpt lat="42.97261320146378" lon="-1.3539875902516199"><ele>869.0000000000001</ele><time>2026-04-29T15:02:46.001Z</time></trkpt><trkpt lat="42.97264433069913" lon="-1.3541083867316046"><ele>869.0</ele><time>2026-04-29T15:02:47.001Z</time></trkpt><trkpt lat="42.9726901527765" lon="-1.354218727539921"><ele>869.0</ele><time>2026-04-29T15:02:48.001Z</time></trkpt><trkpt lat="42.97275073033509" lon="-1.3543154715836847"><ele>870.2</ele><time>2026-04-29T15:02:49.001Z</time></trkpt><trkpt lat="42.972818319629205" lon="-1.354401264669045"><ele>871.4000000000001</ele><time>2026-04-29T15:02:50.001Z</time></trkpt><trkpt lat="42.97287585100915" lon="-1.3544956569241022"><ele>872.6</ele><time>2026-04-29T15:02:51.001Z</time></trkpt><trkpt lat="42.972936361990655" lon="-1.354594824021854"><ele>873.8</ele><time>2026-04-29T15:02:52.001Z</time></trkpt><trkpt lat="42.97299349048961" lon="-1.3546950752290212"><ele>875.0</ele><time>2026-04-29T15:02:53.001Z</time></trkpt><trkpt lat="42.97305067918643" lon="-1.3547951527718405"><ele>876.2</ele><time>2026-04-29T15:02:54.001Z</time></trkpt><trkpt lat="42.97310890564424" lon="-1.3548935348700244"><ele>877.4</ele><time>2026-04-29T15:02:55.001Z</time></trkpt><trkpt lat="42.973172179818995" lon="-1.3549857078499634"><ele>878.5999999999999</ele><time>2026-04-29T15:02:56.001Z</time></trkpt><trkpt lat="42.97323588762945" lon="-1.3550782592880892"><ele>879.8</ele><time>2026-04-29T15:02:57.001Z</time></trkpt><trkpt lat="42.97330745065477" lon="-1.3551706068715612"><ele>881.0</ele><time>2026-04-29T15:02:58.001Z</time></trkpt><trkpt lat="42.97337617950357" lon="-1.3552631398981831"><ele>881.0</ele><time>2026-04-29T15:02:59.001Z</time></trkpt><trkpt lat="42.9734615006328" lon="-1.3553408396993467"><ele>880.9999999999999</ele><time>2026-04-29T15:03:00.001Z</time></trkpt><trkpt lat="42.97355318252743" lon="-1.3554018187149193"><ele>880.9999999999999</ele><time>2026-04-29T15:03:01.001Z</time></trkpt><trkpt lat="42.97364034837465" lon="-1.3554822401470856"><ele>881.0</ele><time>2026-04-29T15:03:02.001Z</time></trkpt><trkpt lat="42.97372867389287" lon="-1.3555612535551025"><ele>881.0</ele><time>2026-04-29T15:03:03.001Z</time></trkpt><trkpt lat="42.97381347148235" lon="-1.3556468280345433"><ele>881.5</ele><time>2026-04-29T15:03:04.001Z</time></trkpt><trkpt lat="42.973897561586476" lon="-1.3557525368230632"><ele>882.0</ele><time>2026-04-29T15:03:05.001Z</time></trkpt><trkpt lat="42.97397926800234" lon="-1.3558686016924133"><ele>882.5</ele><time>2026-04-29T15:03:06.001Z</time></trkpt><trkpt lat="42.97405800418632" lon="-1.3559846475589041"><ele>883.0</ele><time>2026-04-29T15:03:07.001Z</time></trkpt><trkpt lat="42.974144662181196" lon="-1.3561136083873075"><ele>882.25</ele><time>2026-04-29T15:03:08.001Z</time></trkpt><trkpt lat="42.9742266111301" lon="-1.3562286854537078"><ele>881.5</ele><time>2026-04-29T15:03:09.001Z</time></trkpt><trkpt lat="42.974309150273925" lon="-1.3563510573483042"><ele>880.75</ele><time>2026-04-29T15:03:10.001Z</time></trkpt><trkpt lat="42.97440220891782" lon="-1.3564566524350699"><ele>880.0</ele><time>2026-04-29T15:03:11.001Z</time></trkpt><trkpt lat="42.97449412727502" lon="-1.3565675788535128"><ele>878.5</ele><time>2026-04-29T15:03:12.001Z</time></trkpt><trkpt lat="42.97457558509186" lon="-1.3566769346996215"><ele>877.0</ele><time>2026-04-29T15:03:13.001Z</time></trkpt><trkpt lat="42.97465633919016" lon="-1.3567968803387231"><ele>875.5</ele><time>2026-04-29T15:03:14.001Z</time></trkpt><trkpt lat="42.97473358910595" lon="-1.356916469287536"><ele>874.0</ele><time>2026-04-29T15:03:15.001Z</time></trkpt><trkpt lat="42.97481750949778" lon="-1.357022205694324"><ele>874.0</ele><time>2026-04-29T15:03:16.001Z</time></trkpt><trkpt lat="42.97490490363706" lon="-1.3571297538971927"><ele>874.0</ele><time>2026-04-29T15:03:17.001Z</time></trkpt><trkpt lat="42.974992801451855" lon="-1.3572443476760454"><ele>874.0</ele><time>2026-04-29T15:03:18Z</time></trkpt><trkpt lat="42.97506672523908" lon="-1.3573616577099608"><ele>874.0</ele><time>2026-04-29T15:03:19Z</time></trkpt><trkpt lat="42.97513990685811" lon="-1.3574860286283683"><ele>872.75</ele><time>2026-04-29T15:03:20Z</time></trkpt><trkpt lat="42.97521632798492" lon="-1.3576064517140942"><ele>871.5</ele><time>2026-04-29T15:03:21Z</time></trkpt><trkpt lat="42.975268902073594" lon="-1.3577510440006486"><ele>870.25</ele><time>2026-04-29T15:03:22Z</time></trkpt><trkpt lat="42.97534282454348" lon="-1.3578865763296062"><ele>869.0</ele><time>2026-04-29T15:03:23Z</time></trkpt><trkpt lat="42.975425615734395" lon="-1.3580147994489775"><ele>868.0</ele><time>2026-04-29T15:03:24Z</time></trkpt><trkpt lat="42.97545536442983" lon="-1.358169109398402"><ele>867.0</ele><time>2026-04-29T15:03:25Z</time></trkpt><trkpt lat="42.97551175297553" lon="-1.3583137479215752"><ele>866.0</ele><time>2026-04-29T15:03:26Z</time></trkpt><trkpt lat="42.975572349549246" lon="-1.358458862012314"><ele>865.0</ele><time>2026-04-29T15:03:27Z</time></trkpt><trkpt lat="42.97564607398436" lon="-1.3585827235534609"><ele>865.0</ele><time>2026-04-29T15:03:28Z</time></trkpt><trkpt lat="42.97571104694872" lon="-1.3587336598971917"><ele>865.0</ele><time>2026-04-29T15:03:29Z</time></trkpt><trkpt lat="42.9757778362353" lon="-1.3588770855822927"><ele>865.0</ele><time>2026-04-29T15:03:30Z</time></trkpt><trkpt lat="42.97583844289192" lon="-1.3590220404452855"><ele>865.0</ele><time>2026-04-29T15:03:31Z</time></trkpt><trkpt lat="42.97590130847949" lon="-1.3591651331570564"><ele>864.0</ele><time>2026-04-29T15:03:32Z</time></trkpt><trkpt lat="42.97596418196108" lon="-1.3593108714023614"><ele>863.0</ele><time>2026-04-29T15:03:33Z</time></trkpt><trkpt lat="42.97602690580859" lon="-1.3594542542466035"><ele>862.0</ele><time>2026-04-29T15:03:34Z</time></trkpt><trkpt lat="42.976081882955285" lon="-1.3595982211252315"><ele>861.0</ele><time>2026-04-29T15:03:35Z</time></trkpt><trkpt lat="42.97614075115936" lon="-1.3597369208992385"><ele>860.0</ele><time>2026-04-29T15:03:36Z</time></trkpt><trkpt lat="42.97619930098723" lon="-1.359880318389992"><ele>859.0</ele><time>2026-04-29T15:03:37Z</time></trkpt><trkpt lat="42.97625751488473" lon="-1.3600292805533452"><ele>858.0</ele><time>2026-04-29T15:03:38Z</time></trkpt><trkpt lat="42.97631489321814" lon="-1.3601693097983683"><ele>857.0</ele><time>2026-04-29T15:03:39Z</time></trkpt><trkpt lat="42.976371899369" lon="-1.3603135544145442"><ele>857.0</ele><time>2026-04-29T15:03:40Z</time></trkpt><trkpt lat="42.976430874028026" lon="-1.3604524918022907"><ele>857.0</ele><time>2026-04-29T15:03:41Z</time></trkpt><trkpt lat="42.97648915481689" lon="-1.3605954789092283"><ele>857.0</ele><time>2026-04-29T15:03:42Z</time></trkpt><trkpt lat="42.97654604640425" lon="-1.360739489086501"><ele>857.0</ele><time>2026-04-29T15:03:43Z</time></trkpt><trkpt lat="42.976607018066716" lon="-1.3608828607106531"><ele>856.25</ele><time>2026-04-29T15:03:44Z</time></trkpt><trkpt lat="42.97666357805715" lon="-1.361022965440169"><ele>855.5</ele><time>2026-04-29T15:03:45Z</time></trkpt><trkpt lat="42.97672215230353" lon="-1.3611608447452732"><ele>854.75</ele><time>2026-04-29T15:03:46Z</time></trkpt><trkpt lat="42.976779033921936" lon="-1.3612977090233116"><ele>854.0</ele><time>2026-04-29T15:03:47Z</time></trkpt><trkpt lat="42.97682757917131" lon="-1.3614247743722956"><ele>855.2</ele><time>2026-04-29T15:03:48Z</time></trkpt><trkpt lat="42.97688565021196" lon="-1.3615583473202975"><ele>856.4000000000001</ele><time>2026-04-29T15:03:49Z</time></trkpt><trkpt lat="42.976938920072804" lon="-1.3616919802946374"><ele>857.6</ele><time>2026-04-29T15:03:50Z</time></trkpt><trkpt lat="42.97699019034623" lon="-1.3618141936660373"><ele>858.8</ele><time>2026-04-29T15:03:51Z</time></trkpt><trkpt lat="42.9770393462043" lon="-1.361930787085498"><ele>860.0</ele><time>2026-04-29T15:03:52Z</time></trkpt><trkpt lat="42.97708374253866" lon="-1.3620450041843646"><ele>860.0</ele><time>2026-04-29T15:03:53Z</time></trkpt><trkpt lat="42.97712717745572" lon="-1.3621576389814658"><ele>860.0</ele><time>2026-04-29T15:03:54Z</time></trkpt><trkpt lat="42.977172562182275" lon="-1.3622667418208911"><ele>860.0</ele><time>2026-04-29T15:03:55Z</time></trkpt><trkpt lat="42.97721514157246" lon="-1.3623738155981269"><ele>860.0</ele><time>2026-04-29T15:03:56Z</time></trkpt><trkpt lat="42.9772581993159" lon="-1.3624786332528105"><ele>860.0</ele><time>2026-04-29T15:03:57Z</time></trkpt><trkpt lat="42.97730192509739" lon="-1.3625834361576796"><ele>860.8333333333334</ele><time>2026-04-29T15:03:58Z</time></trkpt><trkpt lat="42.9773425402889" lon="-1.3626837346412035"><ele>861.6666666666667</ele><time>2026-04-29T15:03:59Z</time></trkpt><trkpt lat="42.97738290187321" lon="-1.3627834876569878"><ele>862.5</ele><time>2026-04-29T15:04:00Z</time></trkpt><trkpt lat="42.977421846346665" lon="-1.3628816149492369"><ele>863.3333333333333</ele><time>2026-04-29T15:04:01Z</time></trkpt><trkpt lat="42.977463726462936" lon="-1.3629756065766148"><ele>864.1666666666666</ele><time>2026-04-29T15:04:02Z</time></trkpt><trkpt lat="42.97750528104025" lon="-1.3630732111583865"><ele>865.0</ele><time>2026-04-29T15:04:03Z</time></trkpt><trkpt lat="42.97754770116677" lon="-1.3631711722288888"><ele>866.6666666666666</ele><time>2026-04-29T15:04:04Z</time></trkpt><trkpt lat="42.97758706267175" lon="-1.3632691028621426"><ele>868.3333333333333</ele><time>2026-04-29T15:04:05Z</time></trkpt><trkpt lat="42.97763008020138" lon="-1.363369055402019"><ele>870.0</ele><time>2026-04-29T15:04:06Z</time></trkpt><trkpt lat="42.977670747099076" lon="-1.3634714693222927"><ele>871.6666666666667</ele><time>2026-04-29T15:04:07Z</time></trkpt><trkpt lat="42.97771255241764" lon="-1.363574520365514"><ele>873.3333333333334</ele><time>2026-04-29T15:04:08Z</time></trkpt><trkpt lat="42.97775279031081" lon="-1.3636823560957096"><ele>875.0</ele><time>2026-04-29T15:04:09Z</time></trkpt><trkpt lat="42.977793172774824" lon="-1.363787638875461"><ele>875.1666666666667</ele><time>2026-04-29T15:04:10Z</time></trkpt><trkpt lat="42.97783595894535" lon="-1.3638936797320778"><ele>875.3333333333334</ele><time>2026-04-29T15:04:11Z</time></trkpt><trkpt lat="42.97787565241224" lon="-1.3639994275181235"><ele>875.5</ele><time>2026-04-29T15:04:12Z</time></trkpt><trkpt lat="42.977932199899215" lon="-1.3641034759739752"><ele>875.6666666666667</ele><time>2026-04-29T15:04:13Z</time></trkpt><trkpt lat="42.97797502018542" lon="-1.364206698691754"><ele>875.8333333333334</ele><time>2026-04-29T15:04:14Z</time></trkpt><trkpt lat="42.97801921163783" lon="-1.3643115260352492"><ele>876.0</ele><time>2026-04-29T15:04:15Z</time></trkpt><trkpt lat="42.97806041848394" lon="-1.3644187553095337"><ele>876.0</ele><time>2026-04-29T15:04:16Z</time></trkpt><trkpt lat="42.97810186729842" lon="-1.3645272102646586"><ele>875.9999999999999</ele><time>2026-04-29T15:04:17Z</time></trkpt><trkpt lat="42.97814861103322" lon="-1.3646340552753955"><ele>875.9999999999999</ele><time>2026-04-29T15:04:18Z</time></trkpt><trkpt lat="42.978191836420365" lon="-1.3647412124135123"><ele>876.0</ele><time>2026-04-29T15:04:19Z</time></trkpt><trkpt lat="42.978238066379944" lon="-1.364849462462814"><ele>876.0</ele><time>2026-04-29T15:04:20Z</time></trkpt><trkpt lat="42.97827923989541" lon="-1.3649593865197807"><ele>876.8</ele><time>2026-04-29T15:04:21Z</time></trkpt><trkpt lat="42.97831988061756" lon="-1.365069241802971"><ele>877.5999999999999</ele><time>2026-04-29T15:04:22Z</time></trkpt><trkpt lat="42.97836235701712" lon="-1.3651823625742472"><ele>878.4</ele><time>2026-04-29T15:04:23Z</time></trkpt><trkpt lat="42.978398751848665" lon="-1.3652971988263032"><ele>879.2</ele><time>2026-04-29T15:04:24Z</time></trkpt><trkpt lat="42.9784261220465" lon="-1.3654160277634748"><ele>880.0</ele><time>2026-04-29T15:04:25Z</time></trkpt><trkpt lat="42.97846013603529" lon="-1.3655342773725927"><ele>880.4</ele><time>2026-04-29T15:04:26Z</time></trkpt><trkpt lat="42.97848623130727" lon="-1.3656561600615582"><ele>880.8</ele><time>2026-04-29T15:04:27Z</time></trkpt><trkpt lat="42.978511579929766" lon="-1.3657868247125637"><ele>881.2</ele><time>2026-04-29T15:04:28Z</time></trkpt><trkpt lat="42.97854094479712" lon="-1.3659183178482017"><ele>881.6</ele><time>2026-04-29T15:04:29.001Z</time></trkpt><trkpt lat="42.97857295949998" lon="-1.3660502817906737"><ele>882.0</ele><time>2026-04-29T15:04:30.001Z</time></trkpt><trkpt lat="42.97860237694646" lon="-1.366183254645813"><ele>882.0</ele><time>2026-04-29T15:04:31.001Z</time></trkpt><trkpt lat="42.97863328372869" lon="-1.3663212508301206"><ele>882.0</ele><time>2026-04-29T15:04:32.001Z</time></trkpt><trkpt lat="42.978660401935684" lon="-1.3664633479628612"><ele>882.0</ele><time>2026-04-29T15:04:33.001Z</time></trkpt><trkpt lat="42.97869053389784" lon="-1.3666111305248316"><ele>882.0</ele><time>2026-04-29T15:04:34.001Z</time></trkpt><trkpt lat="42.97871776459422" lon="-1.3667557950623517"><ele>882.0</ele><time>2026-04-29T15:04:35.001Z</time></trkpt><trkpt lat="42.97873456974492" lon="-1.3668989168196315"><ele>880.4000000000001</ele><time>2026-04-29T15:04:36.001Z</time></trkpt><trkpt lat="42.978748301009816" lon="-1.3670434605901016"><ele>878.8000000000001</ele><time>2026-04-29T15:04:37.001Z</time></trkpt><trkpt lat="42.97875965447364" lon="-1.3671915719241587"><ele>877.2</ele><time>2026-04-29T15:04:38.001Z</time></trkpt><trkpt lat="42.978767473235784" lon="-1.3673433857452466"><ele>875.6</ele><time>2026-04-29T15:04:39.001Z</time></trkpt><trkpt lat="42.97877627890262" lon="-1.3674923255077973"><ele>874.0</ele><time>2026-04-29T15:04:40.001Z</time></trkpt><trkpt lat="42.978789325372524" lon="-1.3676352499035271"><ele>873.4000000000001</ele><time>2026-04-29T15:04:41.001Z</time></trkpt><trkpt lat="42.978811875788374" lon="-1.3677774692879818"><ele>872.8000000000001</ele><time>2026-04-29T15:04:42.001Z</time></trkpt><trkpt lat="42.978821322503826" lon="-1.3679210208743795"><ele>872.1999999999999</ele><time>2026-04-29T15:04:43.001Z</time></trkpt><trkpt lat="42.97883671130065" lon="-1.3680630991453337"><ele>871.5999999999999</ele><time>2026-04-29T15:04:44.001Z</time></trkpt><trkpt lat="42.978858911848256" lon="-1.3682062043831262"><ele>871.0</ele><time>2026-04-29T15:04:45.001Z</time></trkpt><trkpt lat="42.97889784403648" lon="-1.3683884783460665"><ele>870.5999999999999</ele><time>2026-04-29T15:04:46.001Z</time></trkpt><trkpt lat="42.97890332878057" lon="-1.3684918594675342"><ele>870.1999999999999</ele><time>2026-04-29T15:04:47.001Z</time></trkpt><trkpt lat="42.97893748735637" lon="-1.3686251112625933"><ele>869.8000000000001</ele><time>2026-04-29T15:04:48.001Z</time></trkpt><trkpt lat="42.97896127567217" lon="-1.3687694067257643"><ele>869.4000000000001</ele><time>2026-04-29T15:04:49.001Z</time></trkpt><trkpt lat="42.9789834105957" lon="-1.3688951124103867"><ele>869.0</ele><time>2026-04-29T15:04:50.001Z</time></trkpt><trkpt lat="42.979018788636864" lon="-1.3690234086715958"><ele>869.2</ele><time>2026-04-29T15:04:51.001Z</time></trkpt><trkpt lat="42.979035861940766" lon="-1.3691706084479982"><ele>869.4000000000001</ele><time>2026-04-29T15:04:52.001Z</time></trkpt><trkpt lat="42.97907324468221" lon="-1.369299240708621"><ele>869.6</ele><time>2026-04-29T15:04:53.001Z</time></trkpt><trkpt lat="42.97910979454254" lon="-1.3694282347292657"><ele>869.8</ele><time>2026-04-29T15:04:54.001Z</time></trkpt><trkpt lat="42.97914189738224" lon="-1.3695646485611461"><ele>870.0</ele><time>2026-04-29T15:04:55.001Z</time></trkpt><trkpt lat="42.97916762577706" lon="-1.3697016837928562"><ele>870.0</ele><time>2026-04-29T15:04:56.001Z</time></trkpt><trkpt lat="42.979192219612685" lon="-1.3698357855062924"><ele>870.0</ele><time>2026-04-29T15:04:57.001Z</time></trkpt><trkpt lat="42.979226116261955" lon="-1.3699637200761265"><ele>870.0</ele><time>2026-04-29T15:04:58.001Z</time></trkpt><trkpt lat="42.97926300068414" lon="-1.3700890666813106"><ele>870.0</ele><time>2026-04-29T15:04:59.001Z</time></trkpt><trkpt lat="42.979302435840495" lon="-1.370211920146755"><ele>870.0</ele><time>2026-04-29T15:05:00.001Z</time></trkpt><trkpt lat="42.97933018476703" lon="-1.3703461396094874"><ele>870.0</ele><time>2026-04-29T15:05:01.001Z</time></trkpt><trkpt lat="42.97936841641018" lon="-1.3704745590277687"><ele>870.0</ele><time>2026-04-29T15:05:02.001Z</time></trkpt><trkpt lat="42.97940263933768" lon="-1.3705978067213915"><ele>870.0</ele><time>2026-04-29T15:05:03.001Z</time></trkpt><trkpt lat="42.979446061813405" lon="-1.3707232116374968"><ele>870.0</ele><time>2026-04-29T15:05:04.001Z</time></trkpt><trkpt lat="42.97946914537976" lon="-1.3708483286357265"><ele>870.0</ele><time>2026-04-29T15:05:05.001Z</time></trkpt><trkpt lat="42.97951278496453" lon="-1.370966599220595"><ele>870.3333333333334</ele><time>2026-04-29T15:05:06.001Z</time></trkpt><trkpt lat="42.97953867849019" lon="-1.371080334129756"><ele>870.6666666666667</ele><time>2026-04-29T15:05:07.001Z</time></trkpt><trkpt lat="42.979573254578156" lon="-1.3711917164341394"><ele>871.0</ele><time>2026-04-29T15:05:08.001Z</time></trkpt><trkpt lat="42.97960302386203" lon="-1.3713043306369612"><ele>871.3333333333334</ele><time>2026-04-29T15:05:09.001Z</time></trkpt><trkpt lat="42.97963729419164" lon="-1.3714169373073375"><ele>871.6666666666667</ele><time>2026-04-29T15:05:10.001Z</time></trkpt><trkpt lat="42.97966851179086" lon="-1.3715325787850519"><ele>872.0</ele><time>2026-04-29T15:05:11.001Z</time></trkpt><trkpt lat="42.9797190413219" lon="-1.3716400201248085"><ele>872.3333333333334</ele><time>2026-04-29T15:05:12.001Z</time></trkpt><trkpt lat="42.979743237849355" lon="-1.3717551765288978"><ele>872.6666666666667</ele><time>2026-04-29T15:05:13.001Z</time></trkpt><trkpt lat="42.97976376953055" lon="-1.3718725004231767"><ele>873.0</ele><time>2026-04-29T15:05:14.001Z</time></trkpt><trkpt lat="42.97980292127987" lon="-1.3719808285705235"><ele>873.3333333333333</ele><time>2026-04-29T15:05:15.001Z</time></trkpt><trkpt lat="42.97981345404103" lon="-1.3720908056412409"><ele>873.6666666666666</ele><time>2026-04-29T15:05:16.001Z</time></trkpt><trkpt lat="42.97984640911423" lon="-1.372200706009168"><ele>874.0</ele><time>2026-04-29T15:05:17.001Z</time></trkpt><trkpt lat="42.97987068127553" lon="-1.3723299288979725"><ele>874.1666666666666</ele><time>2026-04-29T15:05:18.001Z</time></trkpt><trkpt lat="42.97991169375088" lon="-1.3724322228497243"><ele>874.3333333333333</ele><time>2026-04-29T15:05:19.001Z</time></trkpt><trkpt lat="42.97994309416859" lon="-1.3725400262458862"><ele>874.5</ele><time>2026-04-29T15:05:20.001Z</time></trkpt><trkpt lat="42.97996632425552" lon="-1.3726511462736075"><ele>874.6666666666667</ele><time>2026-04-29T15:05:21.001Z</time></trkpt><trkpt lat="42.979999396008715" lon="-1.3727560181267973"><ele>874.8333333333334</ele><time>2026-04-29T15:05:22.001Z</time></trkpt><trkpt lat="42.980037162228754" lon="-1.3728567409087649"><ele>875.0</ele><time>2026-04-29T15:05:23.001Z</time></trkpt><trkpt lat="42.98007363162607" lon="-1.372955141797138"><ele>875.1666666666667</ele><time>2026-04-29T15:05:24Z</time></trkpt><trkpt lat="42.98010994369509" lon="-1.3730566561680753"><ele>875.3333333333334</ele><time>2026-04-29T15:05:25Z</time></trkpt><trkpt lat="42.98014874844979" lon="-1.3731588169588087"><ele>875.5</ele><time>2026-04-29T15:05:26Z</time></trkpt><trkpt lat="42.980190523749265" lon="-1.3732691610748402"><ele>875.6666666666667</ele><time>2026-04-29T15:05:27Z</time></trkpt><trkpt lat="42.980242855104166" lon="-1.3733695646567599"><ele>875.8333333333334</ele><time>2026-04-29T15:05:28Z</time></trkpt><trkpt lat="42.980302394123015" lon="-1.373467735627603"><ele>876.0</ele><time>2026-04-29T15:05:29Z</time></trkpt><trkpt lat="42.98036944571675" lon="-1.3735636463234497"><ele>876.0</ele><time>2026-04-29T15:05:30Z</time></trkpt><trkpt lat="42.98046347572502" lon="-1.373651792568795"><ele>875.9999999999999</ele><time>2026-04-29T15:05:31Z</time></trkpt><trkpt lat="42.98053770205836" lon="-1.3737331317586543"><ele>875.9999999999999</ele><time>2026-04-29T15:05:32Z</time></trkpt><trkpt lat="42.98062135227738" lon="-1.3738224863987096"><ele>876.0</ele><time>2026-04-29T15:05:33Z</time></trkpt><trkpt lat="42.980714100904706" lon="-1.3739076921591449"><ele>876.0</ele><time>2026-04-29T15:05:34Z</time></trkpt><trkpt lat="42.980797301548755" lon="-1.3739948496688932"><ele>875.0</ele><time>2026-04-29T15:05:35Z</time></trkpt><trkpt lat="42.98088990472935" lon="-1.3740730560447159"><ele>873.9999999999999</ele><time>2026-04-29T15:05:36Z</time></trkpt><trkpt lat="42.980979010103205" lon="-1.3741642467528268"><ele>872.9999999999999</ele><time>2026-04-29T15:05:37Z</time></trkpt><trkpt lat="42.98107299283738" lon="-1.3742458361727359"><ele>872.0</ele><time>2026-04-29T15:05:38Z</time></trkpt><trkpt lat="42.98115242000675" lon="-1.3743319125385138"><ele>871.0</ele><time>2026-04-29T15:05:39Z</time></trkpt><trkpt lat="42.981234777834224" lon="-1.3744142742977705"><ele>871.0</ele><time>2026-04-29T15:05:40Z</time></trkpt><trkpt lat="42.98131844871145" lon="-1.374480250584101"><ele>870.9999999999999</ele><time>2026-04-29T15:05:41Z</time></trkpt><trkpt lat="42.98140037664449" lon="-1.374547338132264"><ele>870.9999999999999</ele><time>2026-04-29T15:05:42Z</time></trkpt><trkpt lat="42.98148265823609" lon="-1.3746339192587897"><ele>871.0</ele><time>2026-04-29T15:05:43Z</time></trkpt><trkpt lat="42.981568442950646" lon="-1.3747035114378174"><ele>871.0</ele><time>2026-04-29T15:05:44Z</time></trkpt><trkpt lat="42.98164743490253" lon="-1.3747880895675175"><ele>870.8</ele><time>2026-04-29T15:05:45Z</time></trkpt><trkpt lat="42.98172857745022" lon="-1.3748787199734578"><ele>870.5999999999999</ele><time>2026-04-29T15:05:46Z</time></trkpt><trkpt lat="42.9818019278803" lon="-1.3749813955308297"><ele>870.4</ele><time>2026-04-29T15:05:47Z</time></trkpt><trkpt lat="42.98186585625159" lon="-1.375098723069332"><ele>870.2</ele><time>2026-04-29T15:05:48Z</time></trkpt><trkpt lat="42.981924321175974" lon="-1.3752205057489084"><ele>870.0</ele><time>2026-04-29T15:05:49Z</time></trkpt><trkpt lat="42.98197517500474" lon="-1.375350118672951"><ele>870.0</ele><time>2026-04-29T15:05:50Z</time></trkpt><trkpt lat="42.9820103440411" lon="-1.3754880095891582"><ele>870.0</ele><time>2026-04-29T15:05:51Z</time></trkpt><trkpt lat="42.982030911309046" lon="-1.3756318206314384"><ele>870.0</ele><time>2026-04-29T15:05:52Z</time></trkpt><trkpt lat="42.98204690534071" lon="-1.3757724778326463"><ele>870.0</ele><time>2026-04-29T15:05:53Z</time></trkpt><trkpt lat="42.9820418573015" lon="-1.3759136991173098"><ele>870.0</ele><time>2026-04-29T15:05:54Z</time></trkpt><trkpt lat="42.98202911254144" lon="-1.3760478962756764"><ele>870.6</ele><time>2026-04-29T15:05:55Z</time></trkpt><trkpt lat="42.98201249889765" lon="-1.3761761172517553"><ele>871.2</ele><time>2026-04-29T15:05:56Z</time></trkpt><trkpt lat="42.98199086550416" lon="-1.376303661539837"><ele>871.8</ele><time>2026-04-29T15:05:57Z</time></trkpt><trkpt lat="42.98196562088307" lon="-1.3764306159425612"><ele>872.4</ele><time>2026-04-29T15:05:58Z</time></trkpt><trkpt lat="42.981938007245276" lon="-1.3765581624612564"><ele>873.0</ele><time>2026-04-29T15:05:59Z</time></trkpt><trkpt lat="42.98191210406562" lon="-1.3766821380545298"><ele>873.8</ele><time>2026-04-29T15:06:00Z</time></trkpt><trkpt lat="42.98188988415422" lon="-1.376812429355132"><ele>874.5999999999999</ele><time>2026-04-29T15:06:01Z</time></trkpt><trkpt lat="42.98187544321287" lon="-1.3769473662356269"><ele>875.4000000000001</ele><time>2026-04-29T15:06:02Z</time></trkpt><trkpt lat="42.98186428627928" lon="-1.377087654363398"><ele>876.2</ele><time>2026-04-29T15:06:03Z</time></trkpt><trkpt lat="42.981859433664354" lon="-1.377232324989464"><ele>877.0</ele><time>2026-04-29T15:06:04Z</time></trkpt><trkpt lat="42.981860442417755" lon="-1.3773818312653896"><ele>877.2</ele><time>2026-04-29T15:06:05Z</time></trkpt><trkpt lat="42.98185982175452" lon="-1.377526395948467"><ele>877.4000000000001</ele><time>2026-04-29T15:06:06Z</time></trkpt><trkpt lat="42.981860994823236" lon="-1.3776762097410609"><ele>877.5999999999999</ele><time>2026-04-29T15:06:07Z</time></trkpt><trkpt lat="42.981863013325146" lon="-1.377830240280157"><ele>877.8</ele><time>2026-04-29T15:06:08Z</time></trkpt><trkpt lat="42.98186673959978" lon="-1.377980364879292"><ele>878.0</ele><time>2026-04-29T15:06:09Z</time></trkpt><trkpt lat="42.98186809046251" lon="-1.3781314942554823"><ele>878.0</ele><time>2026-04-29T15:06:10Z</time></trkpt><trkpt lat="42.981863961688354" lon="-1.3782873079934"><ele>878.0</ele><time>2026-04-29T15:06:11Z</time></trkpt><trkpt lat="42.98185627476886" lon="-1.3784417316292386"><ele>878.0</ele><time>2026-04-29T15:06:12Z</time></trkpt><trkpt lat="42.98184244252705" lon="-1.3786012084991737"><ele>878.0</ele><time>2026-04-29T15:06:13Z</time></trkpt><trkpt lat="42.981820029583695" lon="-1.378763257156244"><ele>877.75</ele><time>2026-04-29T15:06:14Z</time></trkpt><trkpt lat="42.98179823727302" lon="-1.378917990272494"><ele>877.5</ele><time>2026-04-29T15:06:15Z</time></trkpt><trkpt lat="42.981774369921666" lon="-1.3790760899211054"><ele>877.25</ele><time>2026-04-29T15:06:16Z</time></trkpt><trkpt lat="42.981748344250335" lon="-1.3792305880733589"><ele>877.0</ele><time>2026-04-29T15:06:17Z</time></trkpt><trkpt lat="42.98170518071302" lon="-1.379377751353382"><ele>877.0</ele><time>2026-04-29T15:06:18Z</time></trkpt><trkpt lat="42.98168992791271" lon="-1.3795391081032737"><ele>877.0</ele><time>2026-04-29T15:06:19Z</time></trkpt><trkpt lat="42.98166764587643" lon="-1.3797738492254588"><ele>877.0</ele><time>2026-04-29T15:06:20Z</time></trkpt><trkpt lat="42.98165599752094" lon="-1.380034056258422"><ele>876.8</ele><time>2026-04-29T15:06:21Z</time></trkpt><trkpt lat="42.981602440423536" lon="-1.3801271088504303"><ele>876.6</ele><time>2026-04-29T15:06:23Z</time></trkpt><trkpt lat="42.98160494770783" lon="-1.3802696660451657"><ele>876.3999999999999</ele><time>2026-04-29T15:06:24Z</time></trkpt><trkpt lat="42.98160410969154" lon="-1.3804119843375904"><ele>876.1999999999999</ele><time>2026-04-29T15:06:25.001Z</time></trkpt><trkpt lat="42.98160447474702" lon="-1.3805501485915819"><ele>876.0</ele><time>2026-04-29T15:06:26.001Z</time></trkpt><trkpt lat="42.98160095909837" lon="-1.380683164002248"><ele>877.4</ele><time>2026-04-29T15:06:27.001Z</time></trkpt><trkpt lat="42.98159519200342" lon="-1.3808170449940604"><ele>878.8</ele><time>2026-04-29T15:06:28.001Z</time></trkpt><trkpt lat="42.981593507747206" lon="-1.380949178155067"><ele>880.1999999999999</ele><time>2026-04-29T15:06:29.001Z</time></trkpt><trkpt lat="42.98160247569228" lon="-1.3810788304384347"><ele>881.5999999999999</ele><time>2026-04-29T15:06:30.001Z</time></trkpt><trkpt lat="42.98161638344683" lon="-1.3812109891968833"><ele>883.0</ele><time>2026-04-29T15:06:31.001Z</time></trkpt><trkpt lat="42.981650330956164" lon="-1.3813417710814353"><ele>882.0</ele><time>2026-04-29T15:06:32.001Z</time></trkpt><trkpt lat="42.98169889059314" lon="-1.3814570269502269"><ele>881.0</ele><time>2026-04-29T15:06:33.001Z</time></trkpt><trkpt lat="42.981749883576974" lon="-1.3815640761321226"><ele>880.0</ele><time>2026-04-29T15:06:34.001Z</time></trkpt><trkpt lat="42.98180247628599" lon="-1.3816640211815074"><ele>879.0</ele><time>2026-04-29T15:06:35.001Z</time></trkpt><trkpt lat="42.9818529031645" lon="-1.3817666535474469"><ele>878.0</ele><time>2026-04-29T15:06:36.001Z</time></trkpt><trkpt lat="42.981899793560295" lon="-1.3818676086035182"><ele>878.0000000000001</ele><time>2026-04-29T15:06:37.001Z</time></trkpt><trkpt lat="42.981944969668966" lon="-1.3819701054418867"><ele>878.0</ele><time>2026-04-29T15:06:38.001Z</time></trkpt><trkpt lat="42.98197910654299" lon="-1.3820775557655423"><ele>878.0</ele><time>2026-04-29T15:06:39.001Z</time></trkpt><trkpt lat="42.98200349399455" lon="-1.3821915040033999"><ele>878.0</ele><time>2026-04-29T15:06:40.001Z</time></trkpt><trkpt lat="42.98202225554509" lon="-1.3823081458028614"><ele>878.0000000000001</ele><time>2026-04-29T15:06:41.001Z</time></trkpt><trkpt lat="42.98203045977594" lon="-1.3824292127371163"><ele>878.0</ele><time>2026-04-29T15:06:42.001Z</time></trkpt><trkpt lat="42.982022556644715" lon="-1.3825488893567828"><ele>878.5999999999999</ele><time>2026-04-29T15:06:43.001Z</time></trkpt><trkpt lat="42.98200089005808" lon="-1.382664892155527"><ele>879.1999999999999</ele><time>2026-04-29T15:06:44.001Z</time></trkpt><trkpt lat="42.981967386406275" lon="-1.382784261362481"><ele>879.8</ele><time>2026-04-29T15:06:45.001Z</time></trkpt><trkpt lat="42.98190538988116" lon="-1.3828948864677195"><ele>880.4</ele><time>2026-04-29T15:06:46.001Z</time></trkpt><trkpt lat="42.981863603200686" lon="-1.3830018812772609"><ele>881.0</ele><time>2026-04-29T15:06:47.001Z</time></trkpt><trkpt lat="42.98181857081569" lon="-1.3831120679596287"><ele>881.5999999999999</ele><time>2026-04-29T15:06:48.001Z</time></trkpt><trkpt lat="42.98177041416511" lon="-1.3832214342734168"><ele>882.1999999999999</ele><time>2026-04-29T15:06:49.001Z</time></trkpt><trkpt lat="42.981724969766134" lon="-1.3833321626314465"><ele>882.8000000000001</ele><time>2026-04-29T15:06:50.001Z</time></trkpt><trkpt lat="42.98168061174816" lon="-1.3834477925307427"><ele>883.4000000000001</ele><time>2026-04-29T15:06:51.001Z</time></trkpt><trkpt lat="42.98163518022166" lon="-1.3835567803071935"><ele>884.0</ele><time>2026-04-29T15:06:52.001Z</time></trkpt><trkpt lat="42.98158600945436" lon="-1.3836640480914086"><ele>885.4000000000001</ele><time>2026-04-29T15:06:53.001Z</time></trkpt><trkpt lat="42.98153798868017" lon="-1.38377557750889"><ele>886.8000000000001</ele><time>2026-04-29T15:06:54.001Z</time></trkpt><trkpt lat="42.981492662987385" lon="-1.3838878193007218"><ele>888.1999999999999</ele><time>2026-04-29T15:06:55.001Z</time></trkpt><trkpt lat="42.98144565884014" lon="-1.383996615315511"><ele>889.5999999999999</ele><time>2026-04-29T15:06:56.001Z</time></trkpt><trkpt lat="42.981398751201475" lon="-1.3841031841174236"><ele>891.0</ele><time>2026-04-29T15:06:57.001Z</time></trkpt><trkpt lat="42.981348468092975" lon="-1.3842084653022688"><ele>891.0</ele><time>2026-04-29T15:06:58.001Z</time></trkpt><trkpt lat="42.981289860558114" lon="-1.3843010597029202"><ele>890.9999999999999</ele><time>2026-04-29T15:06:59.001Z</time></trkpt><trkpt lat="42.98121897580003" lon="-1.3843894472488427"><ele>890.9999999999999</ele><time>2026-04-29T15:07:00.001Z</time></trkpt><trkpt lat="42.981148657719096" lon="-1.3844689541181001"><ele>891.0</ele><time>2026-04-29T15:07:01.001Z</time></trkpt><trkpt lat="42.98107663011622" lon="-1.3845411544870638"><ele>891.0</ele><time>2026-04-29T15:07:02.001Z</time></trkpt><trkpt lat="42.98100750067344" lon="-1.3846215071125652"><ele>892.0</ele><time>2026-04-29T15:07:03.001Z</time></trkpt><trkpt lat="42.98094045586295" lon="-1.3847070547176656"><ele>892.9999999999999</ele><time>2026-04-29T15:07:04.001Z</time></trkpt><trkpt lat="42.98087087118676" lon="-1.3847878124517246"><ele>893.9999999999999</ele><time>2026-04-29T15:07:05.001Z</time></trkpt><trkpt lat="42.98080250602976" lon="-1.3848700758278847"><ele>895.0</ele><time>2026-04-29T15:07:06.001Z</time></trkpt><trkpt lat="42.980740769254446" lon="-1.3849667237514651"><ele>896.0</ele><time>2026-04-29T15:07:07.001Z</time></trkpt><trkpt lat="42.9806923377519" lon="-1.38507981393883"><ele>897.8</ele><time>2026-04-29T15:07:08.001Z</time></trkpt><trkpt lat="42.98066552140121" lon="-1.3852016986327145"><ele>899.5999999999999</ele><time>2026-04-29T15:07:09.001Z</time></trkpt><trkpt lat="42.98066080099166" lon="-1.385326742976137"><ele>901.4</ele><time>2026-04-29T15:07:10.001Z</time></trkpt><trkpt lat="42.98066723219477" lon="-1.3854501133359043"><ele>903.2</ele><time>2026-04-29T15:07:11.001Z</time></trkpt><trkpt lat="42.98072397075384" lon="-1.3855534159407605"><ele>905.0</ele><time>2026-04-29T15:07:12.001Z</time></trkpt><trkpt lat="42.98079775570292" lon="-1.3856314482218386"><ele>905.5000000000001</ele><time>2026-04-29T15:07:13.001Z</time></trkpt><trkpt lat="42.980888038152166" lon="-1.3856885242642636"><ele>906.0</ele><time>2026-04-29T15:07:14.001Z</time></trkpt><trkpt lat="42.98096530780284" lon="-1.3857386021624583"><ele>906.5</ele><time>2026-04-29T15:07:15.001Z</time></trkpt><trkpt lat="42.98104172903516" lon="-1.3857953349468284"><ele>907.0</ele><time>2026-04-29T15:07:16.001Z</time></trkpt><trkpt lat="42.98111456225646" lon="-1.3858488092202426"><ele>907.5000000000001</ele><time>2026-04-29T15:07:17.001Z</time></trkpt><trkpt lat="42.98119043435332" lon="-1.3859003521580777"><ele>908.0</ele><time>2026-04-29T15:07:18.001Z</time></trkpt><trkpt lat="42.981269922825255" lon="-1.3859476401891686"><ele>908.0000000000001</ele><time>2026-04-29T15:07:19.001Z</time></trkpt><trkpt lat="42.981351235424185" lon="-1.3859962885099375"><ele>908.0</ele><time>2026-04-29T15:07:20.001Z</time></trkpt><trkpt lat="42.98143188426182" lon="-1.3860323170586155"><ele>908.0</ele><time>2026-04-29T15:07:21.001Z</time></trkpt><trkpt lat="42.98151672250517" lon="-1.386052452705625"><ele>908.0</ele><time>2026-04-29T15:07:22.001Z</time></trkpt><trkpt lat="42.98160045334306" lon="-1.3860665182670107"><ele>908.0000000000001</ele><time>2026-04-29T15:07:23.001Z</time></trkpt><trkpt lat="42.98167773341821" lon="-1.3860909102193757"><ele>908.0</ele><time>2026-04-29T15:07:24.001Z</time></trkpt><trkpt lat="42.98174863022246" lon="-1.386143471091097"><ele>908.5000000000001</ele><time>2026-04-29T15:07:25.001Z</time></trkpt><trkpt lat="42.981791332483056" lon="-1.3862352175381731"><ele>909.0</ele><time>2026-04-29T15:07:26.001Z</time></trkpt><trkpt lat="42.981790384037936" lon="-1.3863528422393887"><ele>909.5</ele><time>2026-04-29T15:07:27.001Z</time></trkpt><trkpt lat="42.98173969142351" lon="-1.3864492326255142"><ele>910.0</ele><time>2026-04-29T15:07:28.001Z</time></trkpt><trkpt lat="42.981662589282486" lon="-1.386501244802402"><ele>910.5000000000001</ele><time>2026-04-29T15:07:29.001Z</time></trkpt><trkpt lat="42.981573026028656" lon="-1.3865071966949831"><ele>911.0</ele><time>2026-04-29T15:07:30Z</time></trkpt><trkpt lat="42.98148551989483" lon="-1.3864943668473804"><ele>913.5000000000001</ele><time>2026-04-29T15:07:31Z</time></trkpt><trkpt lat="42.981403699219925" lon="-1.3864970289477747"><ele>916.0</ele><time>2026-04-29T15:07:32Z</time></trkpt><trkpt lat="42.98132216318454" lon="-1.3865073635217844"><ele>918.5</ele><time>2026-04-29T15:07:33Z</time></trkpt><trkpt lat="42.98123788241754" lon="-1.3865227802082116"><ele>921.0</ele><time>2026-04-29T15:07:34Z</time></trkpt><trkpt lat="42.98115570867799" lon="-1.3865425454568228"><ele>923.5000000000001</ele><time>2026-04-29T15:07:35Z</time></trkpt><trkpt lat="42.981069960010615" lon="-1.386546271229871"><ele>926.0</ele><time>2026-04-29T15:07:36Z</time></trkpt><trkpt lat="42.9809809207116" lon="-1.386543840573561"><ele>926.0</ele><time>2026-04-29T15:07:37Z</time></trkpt><trkpt lat="42.98089232449887" lon="-1.3865405244634237"><ele>925.9999999999999</ele><time>2026-04-29T15:07:38Z</time></trkpt><trkpt lat="42.98080028657308" lon="-1.386533453870517"><ele>925.9999999999999</ele><time>2026-04-29T15:07:39Z</time></trkpt><trkpt lat="42.98070784963381" lon="-1.386510859681232"><ele>926.0</ele><time>2026-04-29T15:07:40Z</time></trkpt><trkpt lat="42.980618047818915" lon="-1.3864806479939402"><ele>926.0</ele><time>2026-04-29T15:07:41Z</time></trkpt><trkpt lat="42.980528455795614" lon="-1.3864449837583437"><ele>926.0</ele><time>2026-04-29T15:07:42Z</time></trkpt><trkpt lat="42.9804356760795" lon="-1.3864199061100397"><ele>925.9999999999999</ele><time>2026-04-29T15:07:43Z</time></trkpt><trkpt lat="42.98034246728057" lon="-1.3863984409520314"><ele>925.9999999999999</ele><time>2026-04-29T15:07:44Z</time></trkpt><trkpt lat="42.98025307908042" lon="-1.386386027478336"><ele>926.0</ele><time>2026-04-29T15:07:45Z</time></trkpt><trkpt lat="42.98016620635207" lon="-1.3863906673721769"><ele>926.0</ele><time>2026-04-29T15:07:46Z</time></trkpt><trkpt lat="42.98007746423183" lon="-1.386408017892847"><ele>926.8</ele><time>2026-04-29T15:07:47Z</time></trkpt><trkpt lat="42.97998874782067" lon="-1.386451168434531"><ele>927.5999999999999</ele><time>2026-04-29T15:07:48Z</time></trkpt><trkpt lat="42.97994010064449" lon="-1.3865406377792948"><ele>928.4</ele><time>2026-04-29T15:07:49Z</time></trkpt><trkpt lat="42.9798833733804" lon="-1.3866509943626002"><ele>929.2</ele><time>2026-04-29T15:07:50Z</time></trkpt><trkpt lat="42.97983067886135" lon="-1.3867521073476774"><ele>930.0</ele><time>2026-04-29T15:07:51Z</time></trkpt><trkpt lat="42.97979322035516" lon="-1.3868773852452545"><ele>930.0</ele><time>2026-04-29T15:07:52Z</time></trkpt><trkpt lat="42.97976047114825" lon="-1.3869988485547062"><ele>930.0</ele><time>2026-04-29T15:07:53Z</time></trkpt><trkpt lat="42.97975713264689" lon="-1.387130274972967"><ele>930.0</ele><time>2026-04-29T15:07:54Z</time></trkpt><trkpt lat="42.97980049904588" lon="-1.3872654500164012"><ele>930.0</ele><time>2026-04-29T15:07:55Z</time></trkpt><trkpt lat="42.979893539523715" lon="-1.387347532154772"><ele>930.0</ele><time>2026-04-29T15:07:56Z</time></trkpt><trkpt lat="42.9799904062307" lon="-1.3874141101409556"><ele>930.8</ele><time>2026-04-29T15:07:57Z</time></trkpt><trkpt lat="42.980080978844384" lon="-1.3874598337147332"><ele>931.6</ele><time>2026-04-29T15:07:58Z</time></trkpt><trkpt lat="42.98014653598947" lon="-1.3875339193359235"><ele>932.4000000000001</ele><time>2026-04-29T15:07:59Z</time></trkpt><trkpt lat="42.98017217126082" lon="-1.3876455327389825"><ele>933.2</ele><time>2026-04-29T15:08:00Z</time></trkpt><trkpt lat="42.980149295749435" lon="-1.3877590664676358"><ele>934.0</ele><time>2026-04-29T15:08:01Z</time></trkpt><trkpt lat="42.980076704813705" lon="-1.38785292482427"><ele>932.6</ele><time>2026-04-29T15:08:02Z</time></trkpt><trkpt lat="42.979980794202945" lon="-1.3878956315109865"><ele>931.2</ele><time>2026-04-29T15:08:03Z</time></trkpt><trkpt lat="42.97987614795013" lon="-1.3878855607183138"><ele>929.8000000000001</ele><time>2026-04-29T15:08:04Z</time></trkpt><trkpt lat="42.97977262880695" lon="-1.3878445704028564"><ele>928.4000000000001</ele><time>2026-04-29T15:08:05Z</time></trkpt><trkpt lat="42.97967349432735" lon="-1.387819782294133"><ele>927.0</ele><time>2026-04-29T15:08:06Z</time></trkpt><trkpt lat="42.97955921649972" lon="-1.3878281451959942"><ele>927.0</ele><time>2026-04-29T15:08:07Z</time></trkpt><trkpt lat="42.97943864608593" lon="-1.387845560945088"><ele>927.0</ele><time>2026-04-29T15:08:08Z</time></trkpt><trkpt lat="42.979329546560514" lon="-1.3878792703960867"><ele>927.0</ele><time>2026-04-29T15:08:09Z</time></trkpt><trkpt lat="42.97921615424832" lon="-1.3879305881702477"><ele>927.0</ele><time>2026-04-29T15:08:10Z</time></trkpt><trkpt lat="42.97910727873956" lon="-1.3879738357739417"><ele>923.5</ele><time>2026-04-29T15:08:11Z</time></trkpt><trkpt lat="42.97899581744774" lon="-1.3880161451419035"><ele>920.0</ele><time>2026-04-29T15:08:12Z</time></trkpt><trkpt lat="42.978874985788494" lon="-1.3880415623224365"><ele>916.5</ele><time>2026-04-29T15:08:13Z</time></trkpt><trkpt lat="42.97876181404608" lon="-1.3880766623740566"><ele>913.0</ele><time>2026-04-29T15:08:14Z</time></trkpt><trkpt lat="42.978646156658364" lon="-1.3881009001022604"><ele>913.0</ele><time>2026-04-29T15:08:15Z</time></trkpt><trkpt lat="42.978529867929836" lon="-1.3881074085898033"><ele>913.0</ele><time>2026-04-29T15:08:16Z</time></trkpt><trkpt lat="42.97841457690592" lon="-1.388089595146322"><ele>913.0</ele><time>2026-04-29T15:08:17Z</time></trkpt><trkpt lat="42.978305493915244" lon="-1.3880426579401646"><ele>913.0</ele><time>2026-04-29T15:08:18Z</time></trkpt><trkpt lat="42.97820625721042" lon="-1.3879629611506892"><ele>913.0</ele><time>2026-04-29T15:08:19Z</time></trkpt><trkpt lat="42.978123451445335" lon="-1.3878524079666694"><ele>913.0</ele><time>2026-04-29T15:08:20Z</time></trkpt><trkpt lat="42.978063312083144" lon="-1.387729638060459"><ele>913.0</ele><time>2026-04-29T15:08:21Z</time></trkpt><trkpt lat="42.97800287492528" lon="-1.3876037215326338"><ele>913.0</ele><time>2026-04-29T15:08:22Z</time></trkpt><trkpt lat="42.977936504794755" lon="-1.3874874825843733"><ele>913.0</ele><time>2026-04-29T15:08:23Z</time></trkpt><trkpt lat="42.97784144787672" lon="-1.3873979165809016"><ele>913.0</ele><time>2026-04-29T15:08:24Z</time></trkpt><trkpt lat="42.9777233693904" lon="-1.3873488764635347"><ele>913.0</ele><time>2026-04-29T15:08:25Z</time></trkpt><trkpt lat="42.97760640230811" lon="-1.3873148190494273"><ele>913.0</ele><time>2026-04-29T15:08:26Z</time></trkpt><trkpt lat="42.97748943072515" lon="-1.3873031800489957"><ele>913.0</ele><time>2026-04-29T15:08:27Z</time></trkpt><trkpt lat="42.977374796115086" lon="-1.3873049963117268"><ele>909.0</ele><time>2026-04-29T15:08:28Z</time></trkpt><trkpt lat="42.97725843984876" lon="-1.3873073062579488"><ele>905.0</ele><time>2026-04-29T15:08:29Z</time></trkpt><trkpt lat="42.97714034441855" lon="-1.3873144114486533"><ele>901.0</ele><time>2026-04-29T15:08:30Z</time></trkpt><trkpt lat="42.977026685712474" lon="-1.3873480941648029"><ele>897.0</ele><time>2026-04-29T15:08:31.001Z</time></trkpt><trkpt lat="42.976919005283264" lon="-1.3873898765270065"><ele>897.0</ele><time>2026-04-29T15:08:32.001Z</time></trkpt><trkpt lat="42.976811246665974" lon="-1.3874244744793494"><ele>897.0</ele><time>2026-04-29T15:08:33.001Z</time></trkpt><trkpt lat="42.97669932018868" lon="-1.3874461474043966"><ele>897.0</ele><time>2026-04-29T15:08:34.001Z</time></trkpt><trkpt lat="42.97658857903643" lon="-1.387449265149227"><ele>897.0</ele><time>2026-04-29T15:08:35.001Z</time></trkpt><trkpt lat="42.97647062920029" lon="-1.3874396840809975"><ele>897.4000000000001</ele><time>2026-04-29T15:08:36.001Z</time></trkpt><trkpt lat="42.97636021984708" lon="-1.3874014520083384"><ele>897.8000000000001</ele><time>2026-04-29T15:08:37.001Z</time></trkpt><trkpt lat="42.97625944146622" lon="-1.3873383054987045"><ele>898.2</ele><time>2026-04-29T15:08:38.001Z</time></trkpt><trkpt lat="42.976174440868306" lon="-1.3872536112435272"><ele>898.6</ele><time>2026-04-29T15:08:39.001Z</time></trkpt><trkpt lat="42.97609429714361" lon="-1.3871676990111628"><ele>899.0</ele><time>2026-04-29T15:08:40.001Z</time></trkpt><trkpt lat="42.976019344540006" lon="-1.3870866082242266"><ele>899.0000000000001</ele><time>2026-04-29T15:08:41.001Z</time></trkpt><trkpt lat="42.97594853013659" lon="-1.3870255494663801"><ele>899.0</ele><time>2026-04-29T15:08:42.001Z</time></trkpt><trkpt lat="42.97587533740502" lon="-1.3870309184180438"><ele>899.0</ele><time>2026-04-29T15:08:43.001Z</time></trkpt><trkpt lat="42.97582019364937" lon="-1.3870994085554222"><ele>899.0</ele><time>2026-04-29T15:08:44.001Z</time></trkpt><trkpt lat="42.97580328564799" lon="-1.3872129640344235"><ele>899.0000000000001</ele><time>2026-04-29T15:08:45.001Z</time></trkpt><trkpt lat="42.97585209504787" lon="-1.3873309081830376"><ele>899.0</ele><time>2026-04-29T15:08:46.001Z</time></trkpt><trkpt lat="42.975915105861326" lon="-1.3874275092454664"><ele>897.2</ele><time>2026-04-29T15:08:47.001Z</time></trkpt><trkpt lat="42.97596947410283" lon="-1.387535232356901"><ele>895.4000000000001</ele><time>2026-04-29T15:08:48.001Z</time></trkpt><trkpt lat="42.97602965547091" lon="-1.387649045141983"><ele>893.6</ele><time>2026-04-29T15:08:49.001Z</time></trkpt><trkpt lat="42.976080524647905" lon="-1.3877787948343847"><ele>891.8</ele><time>2026-04-29T15:08:50.001Z</time></trkpt><trkpt lat="42.97613350251487" lon="-1.3879113500803721"><ele>890.0</ele><time>2026-04-29T15:08:51.001Z</time></trkpt><trkpt lat="42.976189346547876" lon="-1.3880427740783774"><ele>888.5</ele><time>2026-04-29T15:08:52.001Z</time></trkpt><trkpt lat="42.97625307552427" lon="-1.388171562479018"><ele>887.0</ele><time>2026-04-29T15:08:53.001Z</time></trkpt><trkpt lat="42.97633261642392" lon="-1.3882915635734185"><ele>885.5</ele><time>2026-04-29T15:08:54.001Z</time></trkpt><trkpt lat="42.97643031717501" lon="-1.3883862149816442"><ele>884.0</ele><time>2026-04-29T15:08:55.001Z</time></trkpt><trkpt lat="42.97653866785152" lon="-1.3884606230971297"><ele>884.0</ele><time>2026-04-29T15:08:56.001Z</time></trkpt><trkpt lat="42.97664410072995" lon="-1.3885383462718344"><ele>884.0</ele><time>2026-04-29T15:08:57.001Z</time></trkpt><trkpt lat="42.976747089888796" lon="-1.3886116388346197"><ele>884.0</ele><time>2026-04-29T15:08:58.001Z</time></trkpt><trkpt lat="42.97685203783484" lon="-1.388676037262843"><ele>884.0</ele><time>2026-04-29T15:08:59.001Z</time></trkpt><trkpt lat="42.97697514062341" lon="-1.3887345567299507"><ele>882.6666666666667</ele><time>2026-04-29T15:09:00.001Z</time></trkpt><trkpt lat="42.9771390511633" lon="-1.3887751421988146"><ele>881.3333333333333</ele><time>2026-04-29T15:09:01.001Z</time></trkpt><trkpt lat="42.97730860678183" lon="-1.3888144549988592"><ele>880.0</ele><time>2026-04-29T15:09:02.001Z</time></trkpt><trkpt lat="42.97740859184683" lon="-1.3889164805498584"><ele>880.0</ele><time>2026-04-29T15:09:03.001Z</time></trkpt><trkpt lat="42.977376676179546" lon="-1.3890001953117252"><ele>880.0</ele><time>2026-04-29T15:09:04.001Z</time></trkpt><trkpt lat="42.97743733467252" lon="-1.389148481361933"><ele>880.0</ele><time>2026-04-29T15:09:05.001Z</time></trkpt><trkpt lat="42.97747876994068" lon="-1.3893052099831944"><ele>880.0</ele><time>2026-04-29T15:09:06.001Z</time></trkpt><trkpt lat="42.97751546677407" lon="-1.389460220355029"><ele>880.0</ele><time>2026-04-29T15:09:07.001Z</time></trkpt><trkpt lat="42.97755073015891" lon="-1.3896171185380206"><ele>882.0</ele><time>2026-04-29T15:09:08.001Z</time></trkpt><trkpt lat="42.977591861878466" lon="-1.3897706642486916"><ele>884.0</ele><time>2026-04-29T15:09:09.001Z</time></trkpt><trkpt lat="42.977639714276755" lon="-1.3899254394983687"><ele>886.0</ele><time>2026-04-29T15:09:10.001Z</time></trkpt><trkpt lat="42.97768932796589" lon="-1.390078167264882"><ele>888.0</ele><time>2026-04-29T15:09:11.001Z</time></trkpt><trkpt lat="42.977711342736264" lon="-1.3902472197926456"><ele>888.0</ele><time>2026-04-29T15:09:12.001Z</time></trkpt><trkpt lat="42.977710896165576" lon="-1.3904182937502543"><ele>888.0</ele><time>2026-04-29T15:09:13.001Z</time></trkpt><trkpt lat="42.97771613713012" lon="-1.390588742489671"><ele>888.0</ele><time>2026-04-29T15:09:14.001Z</time></trkpt><trkpt lat="42.97772871010903" lon="-1.3907542201076277"><ele>888.0</ele><time>2026-04-29T15:09:15.001Z</time></trkpt><trkpt lat="42.97774165255542" lon="-1.390920769288929"><ele>885.5</ele><time>2026-04-29T15:09:16.001Z</time></trkpt><trkpt lat="42.977758367984755" lon="-1.3910862627364116"><ele>883.0</ele><time>2026-04-29T15:09:17.001Z</time></trkpt><trkpt lat="42.97779284711368" lon="-1.3912459462765328"><ele>880.5</ele><time>2026-04-29T15:09:18.001Z</time></trkpt><trkpt lat="42.977852974050975" lon="-1.3913905736908123"><ele>878.0</ele><time>2026-04-29T15:09:19.001Z</time></trkpt><trkpt lat="42.97790236870299" lon="-1.3915408385414567"><ele>877.2</ele><time>2026-04-29T15:09:20.001Z</time></trkpt><trkpt lat="42.977962419172854" lon="-1.3916775183595276"><ele>876.4</ele><time>2026-04-29T15:09:21.001Z</time></trkpt><trkpt lat="42.978018593092685" lon="-1.3918160134577706"><ele>875.6000000000001</ele><time>2026-04-29T15:09:22.001Z</time></trkpt><trkpt lat="42.97805816296414" lon="-1.3919523323692253"><ele>874.8000000000001</ele><time>2026-04-29T15:09:23.001Z</time></trkpt><trkpt lat="42.97806272832179" lon="-1.392098469172741"><ele>874.0</ele><time>2026-04-29T15:09:24.001Z</time></trkpt><trkpt lat="42.97801917231711" lon="-1.3922496660915809"><ele>874.0</ele><time>2026-04-29T15:09:25.001Z</time></trkpt><trkpt lat="42.97794256263557" lon="-1.392384593929049"><ele>874.0</ele><time>2026-04-29T15:09:26.001Z</time></trkpt><trkpt lat="42.97783136348605" lon="-1.3924973069813007"><ele>874.0</ele><time>2026-04-29T15:09:27.001Z</time></trkpt><trkpt lat="42.97775651347076" lon="-1.3926232242718888"><ele>874.0</ele><time>2026-04-29T15:09:28.001Z</time></trkpt><trkpt lat="42.97768549540661" lon="-1.3927610380868969"><ele>874.0</ele><time>2026-04-29T15:09:29.001Z</time></trkpt><trkpt lat="42.97763750618785" lon="-1.39291119422511"><ele>874.0</ele><time>2026-04-29T15:09:30.001Z</time></trkpt><trkpt lat="42.97760425214458" lon="-1.393078772715097"><ele>874.0</ele><time>2026-04-29T15:09:31.001Z</time></trkpt><trkpt lat="42.97756726559561" lon="-1.3932410982516938"><ele>874.0</ele><time>2026-04-29T15:09:32.001Z</time></trkpt><trkpt lat="42.97753159724298" lon="-1.3934027857645879"><ele>868.0</ele><time>2026-04-29T15:09:33.001Z</time></trkpt><trkpt lat="42.977489154185996" lon="-1.393550788483816"><ele>862.0</ele><time>2026-04-29T15:09:34.001Z</time></trkpt><trkpt lat="42.97745592274368" lon="-1.393721765558724"><ele>856.0</ele><time>2026-04-29T15:09:35.001Z</time></trkpt><trkpt lat="42.97744022495928" lon="-1.3939373392573178"><ele>850.0</ele><time>2026-04-29T15:09:36Z</time></trkpt><trkpt lat="42.97744855780338" lon="-1.3941383637126656"><ele>850.0</ele><time>2026-04-29T15:09:37Z</time></trkpt><trkpt lat="42.97744385360746" lon="-1.3942700940724155"><ele>850.0</ele><time>2026-04-29T15:09:38Z</time></trkpt><trkpt lat="42.977427057200565" lon="-1.3943827626800254"><ele>850.0</ele><time>2026-04-29T15:09:40Z</time></trkpt><trkpt lat="42.97743646184268" lon="-1.3945170051329827"><ele>850.0</ele><time>2026-04-29T15:09:42Z</time></trkpt><trkpt lat="42.977460721500165" lon="-1.3949936022385154"><ele>848.5</ele><time>2026-04-29T15:09:43Z</time></trkpt><trkpt lat="42.977459418771836" lon="-1.3951550827116517"><ele>847.0</ele><time>2026-04-29T15:09:44Z</time></trkpt><trkpt lat="42.977450332130275" lon="-1.39531457841945"><ele>845.5</ele><time>2026-04-29T15:09:45Z</time></trkpt><trkpt lat="42.977439901386845" lon="-1.3954833016267665"><ele>844.0</ele><time>2026-04-29T15:09:46Z</time></trkpt><trkpt lat="42.97741833882046" lon="-1.3956459263884775"><ele>843.5</ele><time>2026-04-29T15:09:47Z</time></trkpt><trkpt lat="42.9773884107162" lon="-1.3958154395953315"><ele>843.0</ele><time>2026-04-29T15:09:48Z</time></trkpt><trkpt lat="42.97733805659496" lon="-1.3959741421970817"><ele>842.5</ele><time>2026-04-29T15:09:49Z</time></trkpt><trkpt lat="42.9772783022301" lon="-1.3961231607012368"><ele>842.0</ele><time>2026-04-29T15:09:50Z</time></trkpt><trkpt lat="42.97721324192" lon="-1.3962667966952402"><ele>843.75</ele><time>2026-04-29T15:09:51Z</time></trkpt><trkpt lat="42.97712863946742" lon="-1.3963930593841825"><ele>845.5</ele><time>2026-04-29T15:09:52Z</time></trkpt><trkpt lat="42.97704885437337" lon="-1.396523966065669"><ele>847.25</ele><time>2026-04-29T15:09:53Z</time></trkpt><trkpt lat="42.97697032609601" lon="-1.396652896939846"><ele>849.0</ele><time>2026-04-29T15:09:54Z</time></trkpt><trkpt lat="42.97689656787825" lon="-1.3967827020649046"><ele>849.0</ele><time>2026-04-29T15:09:55Z</time></trkpt><trkpt lat="42.97682597852637" lon="-1.3969158966488868"><ele>849.0</ele><time>2026-04-29T15:09:56Z</time></trkpt><trkpt lat="42.97675736722175" lon="-1.3970473866176825"><ele>849.0</ele><time>2026-04-29T15:09:57Z</time></trkpt><trkpt lat="42.9766898884264" lon="-1.3971850817454035"><ele>849.0</ele><time>2026-04-29T15:09:58Z</time></trkpt><trkpt lat="42.97662355576088" lon="-1.3973221714002557"><ele>842.5</ele><time>2026-04-29T15:09:59Z</time></trkpt><trkpt lat="42.976577782433644" lon="-1.3974690865812651"><ele>836.0</ele><time>2026-04-29T15:10:00Z</time></trkpt><trkpt lat="42.97652964516236" lon="-1.3976196228641409"><ele>829.5</ele><time>2026-04-29T15:10:01Z</time></trkpt><trkpt lat="42.97655920315836" lon="-1.397782854464214"><ele>823.0</ele><time>2026-04-29T15:10:02Z</time></trkpt><trkpt lat="42.97659572480576" lon="-1.3979370964230884"><ele>822.2</ele><time>2026-04-29T15:10:03Z</time></trkpt><trkpt lat="42.97664617976521" lon="-1.3980920913729837"><ele>821.4</ele><time>2026-04-29T15:10:04Z</time></trkpt><trkpt lat="42.97669464688721" lon="-1.3982296895077972"><ele>820.6</ele><time>2026-04-29T15:10:05Z</time></trkpt><trkpt lat="42.97671430439383" lon="-1.3983560933210752"><ele>819.8000000000001</ele><time>2026-04-29T15:10:06Z</time></trkpt><trkpt lat="42.97669091325964" lon="-1.3984790481781453"><ele>819.0</ele><time>2026-04-29T15:10:07Z</time></trkpt><trkpt lat="42.97662770372432" lon="-1.398579848624756"><ele>819.0</ele><time>2026-04-29T15:10:08Z</time></trkpt><trkpt lat="42.97653085038421" lon="-1.3986282310868634"><ele>819.0</ele><time>2026-04-29T15:10:09Z</time></trkpt><trkpt lat="42.976428574750564" lon="-1.3986060642462557"><ele>819.0</ele><time>2026-04-29T15:10:10Z</time></trkpt><trkpt lat="42.976334523154144" lon="-1.3985335187476087"><ele>819.0</ele><time>2026-04-29T15:10:11Z</time></trkpt><trkpt lat="42.9762415757607" lon="-1.3984381410734912"><ele>819.0</ele><time>2026-04-29T15:10:12Z</time></trkpt><trkpt lat="42.976140724260496" lon="-1.3983734266702776"><ele>819.0</ele><time>2026-04-29T15:10:13Z</time></trkpt><trkpt lat="42.976023621327485" lon="-1.398352777657483"><ele>819.0</ele><time>2026-04-29T15:10:14Z</time></trkpt><trkpt lat="42.975903710708195" lon="-1.398385001983845"><ele>819.0</ele><time>2026-04-29T15:10:15Z</time></trkpt><trkpt lat="42.97579424027584" lon="-1.3984518881743682"><ele>819.0</ele><time>2026-04-29T15:10:16Z</time></trkpt><trkpt lat="42.97568400300178" lon="-1.39853720823323"><ele>819.75</ele><time>2026-04-29T15:10:17Z</time></trkpt><trkpt lat="42.97558793836787" lon="-1.3986238958628725"><ele>820.5</ele><time>2026-04-29T15:10:18Z</time></trkpt><trkpt lat="42.9754891114984" lon="-1.3987107535482517"><ele>821.25</ele><time>2026-04-29T15:10:19Z</time></trkpt><trkpt lat="42.97538519309205" lon="-1.3987979936172517"><ele>822.0</ele><time>2026-04-29T15:10:20Z</time></trkpt><trkpt lat="42.9752837942123" lon="-1.3988877475240837"><ele>822.0</ele><time>2026-04-29T15:10:21Z</time></trkpt><trkpt lat="42.97517839119038" lon="-1.3989770958257604"><ele>822.0</ele><time>2026-04-29T15:10:22Z</time></trkpt><trkpt lat="42.97507771361898" lon="-1.399068799635796"><ele>822.0</ele><time>2026-04-29T15:10:23Z</time></trkpt><trkpt lat="42.97498685981562" lon="-1.39915245338971"><ele>822.0</ele><time>2026-04-29T15:10:24Z</time></trkpt><trkpt lat="42.974879041704575" lon="-1.3992445583100837"><ele>818.25</ele><time>2026-04-29T15:10:25Z</time></trkpt><trkpt lat="42.9747865211818" lon="-1.39934395116752"><ele>814.5</ele><time>2026-04-29T15:10:26Z</time></trkpt><trkpt lat="42.974696268921576" lon="-1.3994391130618629"><ele>810.75</ele><time>2026-04-29T15:10:27Z</time></trkpt><trkpt lat="42.97461420558777" lon="-1.399537496700736"><ele>807.0</ele><time>2026-04-29T15:10:28Z</time></trkpt><trkpt lat="42.974529007800676" lon="-1.399634806667405"><ele>805.25</ele><time>2026-04-29T15:10:29Z</time></trkpt><trkpt lat="42.974434680489836" lon="-1.3997181291894807"><ele>803.5</ele><time>2026-04-29T15:10:30Z</time></trkpt><trkpt lat="42.974320115674956" lon="-1.3997656704337278"><ele>801.75</ele><time>2026-04-29T15:10:31.001Z</time></trkpt><trkpt lat="42.97419736032462" lon="-1.3997849323347287"><ele>800.0</ele><time>2026-04-29T15:10:32.001Z</time></trkpt><trkpt lat="42.97408471386112" lon="-1.399816582358614"><ele>800.0</ele><time>2026-04-29T15:10:33.001Z</time></trkpt><trkpt lat="42.973974209711514" lon="-1.3998748903879337"><ele>800.0</ele><time>2026-04-29T15:10:34.001Z</time></trkpt><trkpt lat="42.97386234121297" lon="-1.3999583997973695"><ele>800.0</ele><time>2026-04-29T15:10:35.001Z</time></trkpt><trkpt lat="42.973733122627564" lon="-1.4000757744298489"><ele>800.0</ele><time>2026-04-29T15:10:36.001Z</time></trkpt><trkpt lat="42.97367108797369" lon="-1.4000954219965345"><ele>800.0</ele><time>2026-04-29T15:10:37.001Z</time></trkpt><trkpt lat="42.973550066723604" lon="-1.4001435538159568"><ele>800.0</ele><time>2026-04-29T15:10:39.001Z</time></trkpt><trkpt lat="42.97343650105821" lon="-1.4002023650688913"><ele>800.0</ele><time>2026-04-29T15:10:40.001Z</time></trkpt><trkpt lat="42.97323063850629" lon="-1.4003149701644508"><ele>802.0</ele><time>2026-04-29T15:10:41.001Z</time></trkpt><trkpt lat="42.973052207521185" lon="-1.4004462626985834"><ele>804.0</ele><time>2026-04-29T15:10:42.001Z</time></trkpt><trkpt lat="42.97289991362385" lon="-1.400549881022588"><ele>806.0</ele><time>2026-04-29T15:10:44.001Z</time></trkpt><trkpt lat="42.972794744218106" lon="-1.4006359484151494"><ele>806.0</ele><time>2026-04-29T15:10:45.001Z</time></trkpt><trkpt lat="42.97269603261736" lon="-1.4007186505236442"><ele>806.0</ele><time>2026-04-29T15:10:46.001Z</time></trkpt><trkpt lat="42.97259946626622" lon="-1.4008019006437016"><ele>806.0</ele><time>2026-04-29T15:10:47.001Z</time></trkpt><trkpt lat="42.972504945943605" lon="-1.4008795286003208"><ele>806.0</ele><time>2026-04-29T15:10:48.001Z</time></trkpt><trkpt lat="42.972403206156294" lon="-1.4009380679692298"><ele>801.0</ele><time>2026-04-29T15:10:49.001Z</time></trkpt><trkpt lat="42.97229084269892" lon="-1.4009733907417798"><ele>796.0</ele><time>2026-04-29T15:10:50.001Z</time></trkpt><trkpt lat="42.972173025884466" lon="-1.400981662364745"><ele>791.0</ele><time>2026-04-29T15:10:51.001Z</time></trkpt><trkpt lat="42.972053786577085" lon="-1.4009709799400933"><ele>786.0</ele><time>2026-04-29T15:10:52.001Z</time></trkpt><trkpt lat="42.97193032670854" lon="-1.4009564498490321"><ele>786.0</ele><time>2026-04-29T15:10:53.001Z</time></trkpt><trkpt lat="42.97180742648608" lon="-1.4009446558906282"><ele>786.0</ele><time>2026-04-29T15:10:54.001Z</time></trkpt><trkpt lat="42.971680902659735" lon="-1.400942264934974"><ele>786.0</ele><time>2026-04-29T15:10:55.001Z</time></trkpt><trkpt lat="42.97155727695705" lon="-1.4009443705700966"><ele>786.0</ele><time>2026-04-29T15:10:56.001Z</time></trkpt><trkpt lat="42.971433253690705" lon="-1.4009493275677476"><ele>783.5</ele><time>2026-04-29T15:10:57.001Z</time></trkpt><trkpt lat="42.97131296811334" lon="-1.4009546641820843"><ele>781.0</ele><time>2026-04-29T15:10:58.001Z</time></trkpt><trkpt lat="42.97119483805342" lon="-1.4009597796794635"><ele>778.5</ele><time>2026-04-29T15:10:59.001Z</time></trkpt><trkpt lat="42.971074474414166" lon="-1.400962896555985"><ele>776.0</ele><time>2026-04-29T15:11:00.001Z</time></trkpt><trkpt lat="42.97095650147718" lon="-1.4009653773120274"><ele>775.0</ele><time>2026-04-29T15:11:01.001Z</time></trkpt><trkpt lat="42.97083907770273" lon="-1.4009591859111883"><ele>774.0</ele><time>2026-04-29T15:11:02.001Z</time></trkpt><trkpt lat="42.970720252238976" lon="-1.4009484441612206"><ele>773.0</ele><time>2026-04-29T15:11:03.001Z</time></trkpt><trkpt lat="42.97059900206217" lon="-1.4009362860628298"><ele>772.0</ele><time>2026-04-29T15:11:04.001Z</time></trkpt><trkpt lat="42.97047986446968" lon="-1.4009188829681587"><ele>772.0</ele><time>2026-04-29T15:11:05.001Z</time></trkpt><trkpt lat="42.97036307746206" lon="-1.4008906132679868"><ele>772.0</ele><time>2026-04-29T15:11:06.001Z</time></trkpt><trkpt lat="42.97024368394684" lon="-1.4008546766262604"><ele>772.0</ele><time>2026-04-29T15:11:07.001Z</time></trkpt><trkpt lat="42.97012678895915" lon="-1.4008071372198545"><ele>772.0</ele><time>2026-04-29T15:11:08.001Z</time></trkpt><trkpt lat="42.970009857558004" lon="-1.4007520740741057"><ele>771.25</ele><time>2026-04-29T15:11:09.001Z</time></trkpt><trkpt lat="42.96989589764371" lon="-1.4007056075897268"><ele>770.5</ele><time>2026-04-29T15:11:10.001Z</time></trkpt><trkpt lat="42.96976877069024" lon="-1.4006868422846028"><ele>769.75</ele><time>2026-04-29T15:11:11.001Z</time></trkpt><trkpt lat="42.96964989332005" lon="-1.400691793216695"><ele>769.0</ele><time>2026-04-29T15:11:12.001Z</time></trkpt><trkpt lat="42.96953320077792" lon="-1.4007144912108112"><ele>769.0</ele><time>2026-04-29T15:11:13.001Z</time></trkpt><trkpt lat="42.96942185006893" lon="-1.4007497304566199"><ele>769.0</ele><time>2026-04-29T15:11:14.001Z</time></trkpt><trkpt lat="42.969311610682205" lon="-1.400797656255351"><ele>769.0</ele><time>2026-04-29T15:11:15.001Z</time></trkpt><trkpt lat="42.96919992521137" lon="-1.400849203033395"><ele>769.0</ele><time>2026-04-29T15:11:16.001Z</time></trkpt><trkpt lat="42.96909270324697" lon="-1.4009074191966757"><ele>767.5</ele><time>2026-04-29T15:11:17.001Z</time></trkpt><trkpt lat="42.96899036058934" lon="-1.400980638938747"><ele>766.0</ele><time>2026-04-29T15:11:18.001Z</time></trkpt><trkpt lat="42.96889871525985" lon="-1.4010761057699037"><ele>764.5</ele><time>2026-04-29T15:11:19.001Z</time></trkpt><trkpt lat="42.968819687801215" lon="-1.4011975086198083"><ele>763.0</ele><time>2026-04-29T15:11:20.001Z</time></trkpt><trkpt lat="42.968754009673454" lon="-1.4013260191456753"><ele>765.75</ele><time>2026-04-29T15:11:21.001Z</time></trkpt><trkpt lat="42.96869450739037" lon="-1.4014589286457602"><ele>768.5</ele><time>2026-04-29T15:11:22.001Z</time></trkpt><trkpt lat="42.968644993845395" lon="-1.401603314052051"><ele>771.25</ele><time>2026-04-29T15:11:23.001Z</time></trkpt><trkpt lat="42.96860046103316" lon="-1.401750952817644"><ele>774.0</ele><time>2026-04-29T15:11:24.001Z</time></trkpt><trkpt lat="42.968563629988914" lon="-1.401907851677146"><ele>774.0</ele><time>2026-04-29T15:11:25.001Z</time></trkpt><trkpt lat="42.96853019542443" lon="-1.402066679364421"><ele>774.0</ele><time>2026-04-29T15:11:26.001Z</time></trkpt><trkpt lat="42.9685024117735" lon="-1.4022256744173034"><ele>774.0</ele><time>2026-04-29T15:11:27.001Z</time></trkpt><trkpt lat="42.96848214763269" lon="-1.402390116745546"><ele>774.0</ele><time>2026-04-29T15:11:28.001Z</time></trkpt><trkpt lat="42.96849475020904" lon="-1.4025544929713896"><ele>773.75</ele><time>2026-04-29T15:11:29.001Z</time></trkpt><trkpt lat="42.968496211252926" lon="-1.4027201276216807"><ele>773.5</ele><time>2026-04-29T15:11:30.001Z</time></trkpt><trkpt lat="42.96850857808731" lon="-1.4028788376806143"><ele>773.25</ele><time>2026-04-29T15:11:31.001Z</time></trkpt><trkpt lat="42.96851993084075" lon="-1.4030479325284948"><ele>773.0</ele><time>2026-04-29T15:11:32.001Z</time></trkpt><trkpt lat="42.96855154409086" lon="-1.4032121250762666"><ele>771.0</ele><time>2026-04-29T15:11:33.001Z</time></trkpt><trkpt lat="42.968602037484075" lon="-1.4033664509364334"><ele>769.0</ele><time>2026-04-29T15:11:34.001Z</time></trkpt><trkpt lat="42.96866872602451" lon="-1.403504357104864"><ele>767.0</ele><time>2026-04-29T15:11:35.001Z</time></trkpt><trkpt lat="42.96874840618866" lon="-1.4036316184867443"><ele>765.0</ele><time>2026-04-29T15:11:36.001Z</time></trkpt><trkpt lat="42.96883440193556" lon="-1.403743225222996"><ele>763.25</ele><time>2026-04-29T15:11:37.001Z</time></trkpt><trkpt lat="42.96892507378155" lon="-1.4038502859138455"><ele>761.5</ele><time>2026-04-29T15:11:38.001Z</time></trkpt><trkpt lat="42.969014458661604" lon="-1.403960941116984"><ele>759.75</ele><time>2026-04-29T15:11:39.001Z</time></trkpt><trkpt lat="42.96909983052296" lon="-1.404083397072914"><ele>758.0</ele><time>2026-04-29T15:11:40.001Z</time></trkpt><trkpt lat="42.969184321188905" lon="-1.4042030717912837"><ele>759.75</ele><time>2026-04-29T15:11:41.001Z</time></trkpt><trkpt lat="42.969272145130695" lon="-1.404314774166503"><ele>761.5</ele><time>2026-04-29T15:11:42Z</time></trkpt><trkpt lat="42.96936013865459" lon="-1.404425035526775"><ele>763.25</ele><time>2026-04-29T15:11:43Z</time></trkpt><trkpt lat="42.969445584466406" lon="-1.4045440252868246"><ele>765.0</ele><time>2026-04-29T15:11:44Z</time></trkpt><trkpt lat="42.969529331765266" lon="-1.404656665189908"><ele>762.75</ele><time>2026-04-29T15:11:45Z</time></trkpt><trkpt lat="42.9696161270926" lon="-1.4047640810923452"><ele>760.5</ele><time>2026-04-29T15:11:46Z</time></trkpt><trkpt lat="42.96970316341874" lon="-1.4048764267764395"><ele>758.25</ele><time>2026-04-29T15:11:47Z</time></trkpt><trkpt lat="42.969792768504334" lon="-1.4049840739481014"><ele>756.0</ele><time>2026-04-29T15:11:48Z</time></trkpt><trkpt lat="42.969881528682066" lon="-1.4050926675222302"><ele>756.0</ele><time>2026-04-29T15:11:49Z</time></trkpt><trkpt lat="42.9699733946622" lon="-1.405195866864776"><ele>756.0</ele><time>2026-04-29T15:11:50Z</time></trkpt><trkpt lat="42.9700713234292" lon="-1.4052937097208833"><ele>756.0</ele><time>2026-04-29T15:11:51Z</time></trkpt><trkpt lat="42.970166594949816" lon="-1.4053784210299731"><ele>756.0</ele><time>2026-04-29T15:11:52Z</time></trkpt><trkpt lat="42.9702725331287" lon="-1.405467228161651"><ele>756.1999999999999</ele><time>2026-04-29T15:11:53Z</time></trkpt><trkpt lat="42.9703627297029" lon="-1.4055474335812217"><ele>756.4</ele><time>2026-04-29T15:11:54Z</time></trkpt><trkpt lat="42.9704184741388" lon="-1.4056377148773154"><ele>756.6</ele><time>2026-04-29T15:11:55Z</time></trkpt><trkpt lat="42.9704899035475" lon="-1.4057405691888056"><ele>756.8</ele><time>2026-04-29T15:11:56Z</time></trkpt><trkpt lat="42.97062043841126" lon="-1.4058417000011854"><ele>757.0</ele><time>2026-04-29T15:11:57Z</time></trkpt><trkpt lat="42.97067861891851" lon="-1.4059691483117691"><ele>757.0</ele><time>2026-04-29T15:11:58Z</time></trkpt><trkpt lat="42.97070949641179" lon="-1.4061086224246189"><ele>757.0</ele><time>2026-04-29T15:11:59Z</time></trkpt><trkpt lat="42.970714250386685" lon="-1.4062513738748692"><ele>757.0</ele><time>2026-04-29T15:12:00Z</time></trkpt><trkpt lat="42.970705847771555" lon="-1.4063872757925628"><ele>757.0</ele><time>2026-04-29T15:12:01Z</time></trkpt><trkpt lat="42.970692714722794" lon="-1.406509182377536"><ele>757.0</ele><time>2026-04-29T15:12:02Z</time></trkpt><trkpt lat="42.97068668380184" lon="-1.4066210324720188"><ele>756.3333333333334</ele><time>2026-04-29T15:12:03Z</time></trkpt><trkpt lat="42.970685604724856" lon="-1.4067257202359913"><ele>755.6666666666667</ele><time>2026-04-29T15:12:04Z</time></trkpt><trkpt lat="42.97068631762977" lon="-1.4068247588131737"><ele>755.0</ele><time>2026-04-29T15:12:05Z</time></trkpt><trkpt lat="42.970692665963675" lon="-1.406916973333812"><ele>754.3333333333334</ele><time>2026-04-29T15:12:06Z</time></trkpt><trkpt lat="42.97071081530662" lon="-1.4070035119785627"><ele>753.6666666666666</ele><time>2026-04-29T15:12:07Z</time></trkpt><trkpt lat="42.970735005306146" lon="-1.4070850131400954"><ele>753.0</ele><time>2026-04-29T15:12:08Z</time></trkpt><trkpt lat="42.970795705085386" lon="-1.4072183103864528"><ele>754.0</ele><time>2026-04-29T15:12:10Z</time></trkpt><trkpt lat="42.9708667630885" lon="-1.407327542567393"><ele>755.0</ele><time>2026-04-29T15:12:12Z</time></trkpt><trkpt lat="42.97093422739099" lon="-1.4074154297394121"><ele>756.0</ele><time>2026-04-29T15:12:14Z</time></trkpt><trkpt lat="42.97099974597112" lon="-1.407511940449726"><ele>757.0</ele><time>2026-04-29T15:12:16Z</time></trkpt><trkpt lat="42.97106828066621" lon="-1.4076418381880298"><ele>758.0</ele><time>2026-04-29T15:12:18Z</time></trkpt><trkpt lat="42.97109115326186" lon="-1.4077228906046853"><ele>758.0000000000001</ele><time>2026-04-29T15:12:19Z</time></trkpt><trkpt lat="42.971110070365874" lon="-1.4078163834656068"><ele>758.0</ele><time>2026-04-29T15:12:20Z</time></trkpt><trkpt lat="42.97112952176915" lon="-1.4079108345813636"><ele>758.0</ele><time>2026-04-29T15:12:21Z</time></trkpt><trkpt lat="42.97113961652638" lon="-1.4080070222240444"><ele>758.0</ele><time>2026-04-29T15:12:22Z</time></trkpt><trkpt lat="42.97113886655197" lon="-1.408107045441474"><ele>758.0</ele><time>2026-04-29T15:12:23Z</time></trkpt><trkpt lat="42.971127198640716" lon="-1.4082064219553367"><ele>758.0000000000001</ele><time>2026-04-29T15:12:24Z</time></trkpt><trkpt lat="42.971098011030556" lon="-1.4083062035049332"><ele>758.0</ele><time>2026-04-29T15:12:25Z</time></trkpt><trkpt lat="42.971069974268076" lon="-1.408402342264805"><ele>759.5</ele><time>2026-04-29T15:12:26Z</time></trkpt><trkpt lat="42.97103371125765" lon="-1.4085004910485932"><ele>761.0</ele><time>2026-04-29T15:12:27Z</time></trkpt><trkpt lat="42.970994501118" lon="-1.4085935891308308"><ele>762.5</ele><time>2026-04-29T15:12:28Z</time></trkpt><trkpt lat="42.97095944087272" lon="-1.4086918810643354"><ele>764.0</ele><time>2026-04-29T15:12:29Z</time></trkpt><trkpt lat="42.97092529543838" lon="-1.408794289780827"><ele>765.5</ele><time>2026-04-29T15:12:30Z</time></trkpt><trkpt lat="42.970883309614486" lon="-1.4088908017900137"><ele>767.0</ele><time>2026-04-29T15:12:31.001Z</time></trkpt><trkpt lat="42.97084051598105" lon="-1.408985372006302"><ele>767.0</ele><time>2026-04-29T15:12:32.001Z</time></trkpt><trkpt lat="42.970792244658355" lon="-1.409074860969467"><ele>767.0</ele><time>2026-04-29T15:12:33.001Z</time></trkpt><trkpt lat="42.97074344485343" lon="-1.4091650046572088"><ele>767.0</ele><time>2026-04-29T15:12:34.001Z</time></trkpt><trkpt lat="42.97068707739256" lon="-1.4092479338850639"><ele>767.0</ele><time>2026-04-29T15:12:35.001Z</time></trkpt><trkpt lat="42.97063328645117" lon="-1.4093326294510387"><ele>767.0</ele><time>2026-04-29T15:12:36.001Z</time></trkpt><trkpt lat="42.970577042023216" lon="-1.4094161270684518"><ele>767.0</ele><time>2026-04-29T15:12:37.001Z</time></trkpt><trkpt lat="42.97052124455542" lon="-1.4095042609190769"><ele>767.0</ele><time>2026-04-29T15:12:38.001Z</time></trkpt><trkpt lat="42.97046273097136" lon="-1.4095825377134712"><ele>767.0</ele><time>2026-04-29T15:12:39.001Z</time></trkpt><trkpt lat="42.97040579895962" lon="-1.4096678701333563"><ele>767.0</ele><time>2026-04-29T15:12:40.001Z</time></trkpt><trkpt lat="42.970348855622234" lon="-1.4097541619273846"><ele>767.0</ele><time>2026-04-29T15:12:41.001Z</time></trkpt><trkpt lat="42.97028801584127" lon="-1.4098353508073775"><ele>767.0</ele><time>2026-04-29T15:12:42.001Z</time></trkpt><trkpt lat="42.97023306843127" lon="-1.409919768653913"><ele>767.0</ele><time>2026-04-29T15:12:43.001Z</time></trkpt><trkpt lat="42.970176134926774" lon="-1.4100068843625952"><ele>767.8333333333333</ele><time>2026-04-29T15:12:44.001Z</time></trkpt><trkpt lat="42.970120340181325" lon="-1.4100950021049594"><ele>768.6666666666666</ele><time>2026-04-29T15:12:45.001Z</time></trkpt><trkpt lat="42.970061040938816" lon="-1.410177393269854"><ele>769.5</ele><time>2026-04-29T15:12:46.001Z</time></trkpt><trkpt lat="42.96999943955048" lon="-1.4102605393632321"><ele>770.3333333333333</ele><time>2026-04-29T15:12:47.001Z</time></trkpt><trkpt lat="42.96994397378552" lon="-1.4103466766335164"><ele>771.1666666666666</ele><time>2026-04-29T15:12:48.001Z</time></trkpt><trkpt lat="42.96988621814693" lon="-1.410432792701207"><ele>772.0</ele><time>2026-04-29T15:12:49.001Z</time></trkpt><trkpt lat="42.96982829784752" lon="-1.4105204696273284"><ele>772.1666666666666</ele><time>2026-04-29T15:12:50.001Z</time></trkpt><trkpt lat="42.96977291637747" lon="-1.410608771559216"><ele>772.3333333333333</ele><time>2026-04-29T15:12:51.001Z</time></trkpt><trkpt lat="42.969716443830414" lon="-1.4106951095442029"><ele>772.5</ele><time>2026-04-29T15:12:52.001Z</time></trkpt><trkpt lat="42.96965625848876" lon="-1.4107811430719106"><ele>772.6666666666667</ele><time>2026-04-29T15:12:53.001Z</time></trkpt><trkpt lat="42.96960116294985" lon="-1.4108655065771678"><ele>772.8333333333334</ele><time>2026-04-29T15:12:54.001Z</time></trkpt><trkpt lat="42.96956035593275" lon="-1.410975228512054"><ele>773.0</ele><time>2026-04-29T15:12:55.001Z</time></trkpt><trkpt lat="42.96954825043176" lon="-1.4110939426233577"><ele>773.0</ele><time>2026-04-29T15:12:56.001Z</time></trkpt><trkpt lat="42.969574180668765" lon="-1.411210311911082"><ele>773.0</ele><time>2026-04-29T15:12:57.001Z</time></trkpt><trkpt lat="42.96964268740474" lon="-1.4113000258034956"><ele>773.0</ele><time>2026-04-29T15:12:58.001Z</time></trkpt><trkpt lat="42.96972853708478" lon="-1.4113645255574672"><ele>773.0</ele><time>2026-04-29T15:12:59.001Z</time></trkpt><trkpt lat="42.96981398515523" lon="-1.4113878065751366"><ele>773.0</ele><time>2026-04-29T15:13:00.001Z</time></trkpt><trkpt lat="42.96988916459745" lon="-1.4114417345231811"><ele>774.0000000000001</ele><time>2026-04-29T15:13:01.001Z</time></trkpt><trkpt lat="42.9699551136761" lon="-1.411509761147801"><ele>775.0</ele><time>2026-04-29T15:13:02.001Z</time></trkpt><trkpt lat="42.97001017514648" lon="-1.4116041970084197"><ele>776.0</ele><time>2026-04-29T15:13:03.001Z</time></trkpt><trkpt lat="42.97005461450257" lon="-1.411709738153315"><ele>777.0</ele><time>2026-04-29T15:13:04.001Z</time></trkpt><trkpt lat="42.9700863247183" lon="-1.4118224144850113"><ele>778.0000000000001</ele><time>2026-04-29T15:13:05.001Z</time></trkpt><trkpt lat="42.97010820622358" lon="-1.411938865544022"><ele>779.0</ele><time>2026-04-29T15:13:06.001Z</time></trkpt><trkpt lat="42.970120677795094" lon="-1.4120605824448935"><ele>780.6</ele><time>2026-04-29T15:13:07.001Z</time></trkpt><trkpt lat="42.97012392076289" lon="-1.4121824285335203"><ele>782.2</ele><time>2026-04-29T15:13:08.001Z</time></trkpt><trkpt lat="42.970134992734096" lon="-1.4123059518302845"><ele>783.8000000000001</ele><time>2026-04-29T15:13:09.001Z</time></trkpt><trkpt lat="42.97013605528492" lon="-1.4124296520700372"><ele>785.4000000000001</ele><time>2026-04-29T15:13:10.001Z</time></trkpt><trkpt lat="42.97013555420601" lon="-1.4125541869864113"><ele>787.0</ele><time>2026-04-29T15:13:11.001Z</time></trkpt><trkpt lat="42.97013301309048" lon="-1.412675375401524"><ele>787.0</ele><time>2026-04-29T15:13:12.001Z</time></trkpt><trkpt lat="42.97011660702033" lon="-1.4127991734109118"><ele>787.0</ele><time>2026-04-29T15:13:13.001Z</time></trkpt><trkpt lat="42.970087983216224" lon="-1.4129240129407103"><ele>787.0</ele><time>2026-04-29T15:13:14.001Z</time></trkpt><trkpt lat="42.97005382896625" lon="-1.4130503844870517"><ele>787.0</ele><time>2026-04-29T15:13:15.001Z</time></trkpt><trkpt lat="42.9700100132649" lon="-1.4131791582301185"><ele>787.0</ele><time>2026-04-29T15:13:16.001Z</time></trkpt><trkpt lat="42.96996082526287" lon="-1.4133136875654966"><ele>786.25</ele><time>2026-04-29T15:13:17.001Z</time></trkpt><trkpt lat="42.96990867254875" lon="-1.4134529367619986"><ele>785.5</ele><time>2026-04-29T15:13:18.001Z</time></trkpt><trkpt lat="42.969857086680186" lon="-1.4136050736105663"><ele>784.75</ele><time>2026-04-29T15:13:19.001Z</time></trkpt><trkpt lat="42.96980173707808" lon="-1.4137517039717558"><ele>784.0</ele><time>2026-04-29T15:13:20.001Z</time></trkpt><trkpt lat="42.96974805034905" lon="-1.4138985746038206"><ele>784.0</ele><time>2026-04-29T15:13:21.001Z</time></trkpt><trkpt lat="42.96969666073584" lon="-1.4140420758981906"><ele>784.0</ele><time>2026-04-29T15:13:22.001Z</time></trkpt><trkpt lat="42.96964120472204" lon="-1.4141930508652474"><ele>784.0</ele><time>2026-04-29T15:13:23.001Z</time></trkpt><trkpt lat="42.96958510784392" lon="-1.4143445245843427"><ele>784.0</ele><time>2026-04-29T15:13:24.001Z</time></trkpt><trkpt lat="42.969530467104235" lon="-1.414494464150644"><ele>784.0</ele><time>2026-04-29T15:13:25.001Z</time></trkpt><trkpt lat="42.96947235393395" lon="-1.4146419718513166"><ele>784.0</ele><time>2026-04-29T15:13:26.001Z</time></trkpt><trkpt lat="42.96941368440462" lon="-1.4147855246908827"><ele>784.0</ele><time>2026-04-29T15:13:27.001Z</time></trkpt><trkpt lat="42.969353334149794" lon="-1.4149277029847425"><ele>784.0</ele><time>2026-04-29T15:13:28.001Z</time></trkpt><trkpt lat="42.96929262537867" lon="-1.41506867649975"><ele>783.5</ele><time>2026-04-29T15:13:29.001Z</time></trkpt><trkpt lat="42.9692301669118" lon="-1.4152164007461094"><ele>783.0</ele><time>2026-04-29T15:13:30.001Z</time></trkpt><trkpt lat="42.96917146897729" lon="-1.4153618301606299"><ele>782.5</ele><time>2026-04-29T15:13:31.001Z</time></trkpt><trkpt lat="42.96910645740843" lon="-1.4155080636220758"><ele>782.0</ele><time>2026-04-29T15:13:32.001Z</time></trkpt><trkpt lat="42.96904428201081" lon="-1.4156478405919544"><ele>780.5</ele><time>2026-04-29T15:13:33.001Z</time></trkpt><trkpt lat="42.968989086961116" lon="-1.4157808972947383"><ele>779.0</ele><time>2026-04-29T15:13:34.001Z</time></trkpt><trkpt lat="42.9689369737125" lon="-1.4159333097143638"><ele>777.5</ele><time>2026-04-29T15:13:35.001Z</time></trkpt><trkpt lat="42.96887888074112" lon="-1.41606102419506"><ele>776.0</ele><time>2026-04-29T15:13:36.001Z</time></trkpt><trkpt lat="42.96881944723165" lon="-1.4162127829425308"><ele>777.0</ele><time>2026-04-29T15:13:37.001Z</time></trkpt><trkpt lat="42.96875950331459" lon="-1.4163539886187186"><ele>778.0</ele><time>2026-04-29T15:13:38.001Z</time></trkpt><trkpt lat="42.96869877555568" lon="-1.4164935903060925"><ele>779.0</ele><time>2026-04-29T15:13:39.001Z</time></trkpt><trkpt lat="42.9686341852675" lon="-1.4166330389416477"><ele>780.0</ele><time>2026-04-29T15:13:40.001Z</time></trkpt><trkpt lat="42.96858287940804" lon="-1.4167556389619422"><ele>780.0</ele><time>2026-04-29T15:13:41.001Z</time></trkpt><trkpt lat="42.968528876635816" lon="-1.4168819657476277"><ele>780.0</ele><time>2026-04-29T15:13:42.001Z</time></trkpt><trkpt lat="42.968477180235844" lon="-1.417007426951611"><ele>780.0</ele><time>2026-04-29T15:13:43.001Z</time></trkpt><trkpt lat="42.96842522470084" lon="-1.4171308750953808"><ele>780.0</ele><time>2026-04-29T15:13:44.001Z</time></trkpt><trkpt lat="42.96837206831364" lon="-1.4172528211727322"><ele>780.0</ele><time>2026-04-29T15:13:45.001Z</time></trkpt><trkpt lat="42.96832003985083" lon="-1.4173768963952174"><ele>780.0</ele><time>2026-04-29T15:13:46.001Z</time></trkpt><trkpt lat="42.96826627098317" lon="-1.4174953779862554"><ele>780.0</ele><time>2026-04-29T15:13:47.001Z</time></trkpt><trkpt lat="42.96821222747707" lon="-1.4176181609171108"><ele>780.0</ele><time>2026-04-29T15:13:48Z</time></trkpt><trkpt lat="42.96816498383498" lon="-1.4177424982519895"><ele>780.0</ele><time>2026-04-29T15:13:49Z</time></trkpt><trkpt lat="42.9681183578005" lon="-1.4178663519796608"><ele>780.0</ele><time>2026-04-29T15:13:50Z</time></trkpt><trkpt lat="42.9680794564115" lon="-1.4180000288239225"><ele>779.75</ele><time>2026-04-29T15:13:51Z</time></trkpt><trkpt lat="42.968050678463996" lon="-1.4181458445662862"><ele>779.5</ele><time>2026-04-29T15:13:52Z</time></trkpt><trkpt lat="42.96802397503462" lon="-1.4182970775996244"><ele>779.25</ele><time>2026-04-29T15:13:53Z</time></trkpt><trkpt lat="42.96799889404441" lon="-1.418455016649183"><ele>779.0</ele><time>2026-04-29T15:13:54Z</time></trkpt><trkpt lat="42.967974942904476" lon="-1.4186128921214427"><ele>779.0</ele><time>2026-04-29T15:13:55Z</time></trkpt><trkpt lat="42.96795296445649" lon="-1.418771939502586"><ele>779.0</ele><time>2026-04-29T15:13:56Z</time></trkpt><trkpt lat="42.96793603807284" lon="-1.4189309339257536"><ele>779.0</ele><time>2026-04-29T15:13:57Z</time></trkpt><trkpt lat="42.967935332349356" lon="-1.4190961720148465"><ele>779.0</ele><time>2026-04-29T15:13:58Z</time></trkpt><trkpt lat="42.967949962759384" lon="-1.4192567101383753"><ele>779.0</ele><time>2026-04-29T15:13:59Z</time></trkpt><trkpt lat="42.96797902364677" lon="-1.4194149271892518"><ele>779.0</ele><time>2026-04-29T15:14:00Z</time></trkpt><trkpt lat="42.96801521760614" lon="-1.419572553272342"><ele>779.0</ele><time>2026-04-29T15:14:01Z</time></trkpt><trkpt lat="42.96805778399988" lon="-1.4197241888755032"><ele>779.0</ele><time>2026-04-29T15:14:02Z</time></trkpt><trkpt lat="42.968107990834774" lon="-1.4198692030742897"><ele>778.6666666666667</ele><time>2026-04-29T15:14:03Z</time></trkpt><trkpt lat="42.96819049731476" lon="-1.4200997469870917"><ele>778.3333333333333</ele><time>2026-04-29T15:14:04Z</time></trkpt><trkpt lat="42.96823037546075" lon="-1.4203258198895623"><ele>778.0</ele><time>2026-04-29T15:14:06Z</time></trkpt><trkpt lat="42.96824580547849" lon="-1.4204859809717718"><ele>778.0</ele><time>2026-04-29T15:14:07Z</time></trkpt><trkpt lat="42.968239011098134" lon="-1.4206483850840608"><ele>778.0</ele><time>2026-04-29T15:14:08Z</time></trkpt><trkpt lat="42.96821299113837" lon="-1.4208030178057125"><ele>778.0</ele><time>2026-04-29T15:14:09Z</time></trkpt><trkpt lat="42.968168074345" lon="-1.4209487056695038"><ele>778.0</ele><time>2026-04-29T15:14:10Z</time></trkpt><trkpt lat="42.96811322475905" lon="-1.4210866715369508"><ele>778.0</ele><time>2026-04-29T15:14:11Z</time></trkpt><trkpt lat="42.96805613113084" lon="-1.4212209852298414"><ele>778.0</ele><time>2026-04-29T15:14:12Z</time></trkpt><trkpt lat="42.9679956200466" lon="-1.4213432639456285"><ele>778.0</ele><time>2026-04-29T15:14:13Z</time></trkpt><trkpt lat="42.967938275844844" lon="-1.4214662741810749"><ele>778.0</ele><time>2026-04-29T15:14:14Z</time></trkpt><trkpt lat="42.96788083070123" lon="-1.4215874289764612"><ele>778.0</ele><time>2026-04-29T15:14:15Z</time></trkpt><trkpt lat="42.96782557099472" lon="-1.4216998370704785"><ele>779.5999999999999</ele><time>2026-04-29T15:14:16Z</time></trkpt><trkpt lat="42.96777046006672" lon="-1.4218202564253675"><ele>781.1999999999999</ele><time>2026-04-29T15:14:17Z</time></trkpt><trkpt lat="42.96771819841811" lon="-1.4219340794946684"><ele>782.8</ele><time>2026-04-29T15:14:18Z</time></trkpt><trkpt lat="42.96766631662448" lon="-1.422048159212055"><ele>784.4</ele><time>2026-04-29T15:14:19Z</time></trkpt><trkpt lat="42.96761692608563" lon="-1.4221659167774878"><ele>786.0</ele><time>2026-04-29T15:14:20Z</time></trkpt><trkpt lat="42.96757183925383" lon="-1.4222804022793136"><ele>785.5999999999999</ele><time>2026-04-29T15:14:21Z</time></trkpt><trkpt lat="42.967530111560954" lon="-1.4224002152819122"><ele>785.2</ele><time>2026-04-29T15:14:22Z</time></trkpt><trkpt lat="42.96750595337992" lon="-1.4225329502266224"><ele>784.8</ele><time>2026-04-29T15:14:23Z</time></trkpt><trkpt lat="42.967490508053906" lon="-1.4226688257936941"><ele>784.4000000000001</ele><time>2026-04-29T15:14:24Z</time></trkpt><trkpt lat="42.96748478654757" lon="-1.4227996716891982"><ele>784.0</ele><time>2026-04-29T15:14:25Z</time></trkpt><trkpt lat="42.9674917464666" lon="-1.4229377760891395"><ele>784.5</ele><time>2026-04-29T15:14:26Z</time></trkpt><trkpt lat="42.96750621907989" lon="-1.4230871092199222"><ele>785.0</ele><time>2026-04-29T15:14:27Z</time></trkpt><trkpt lat="42.96754763211138" lon="-1.423248123620879"><ele>785.5</ele><time>2026-04-29T15:14:28Z</time></trkpt><trkpt lat="42.96757278402399" lon="-1.4234083413926946"><ele>786.0</ele><time>2026-04-29T15:14:29Z</time></trkpt><trkpt lat="42.96758344460861" lon="-1.4235651738092134"><ele>784.75</ele><time>2026-04-29T15:14:30Z</time></trkpt><trkpt lat="42.96758430818687" lon="-1.4237414324224462"><ele>783.5</ele><time>2026-04-29T15:14:31Z</time></trkpt><trkpt lat="42.967569092729995" lon="-1.423906084758879"><ele>782.25</ele><time>2026-04-29T15:14:32Z</time></trkpt><trkpt lat="42.96754803244678" lon="-1.4240747930631912"><ele>781.0</ele><time>2026-04-29T15:14:33Z</time></trkpt><trkpt lat="42.96752378691132" lon="-1.4242428109502976"><ele>781.0</ele><time>2026-04-29T15:14:34Z</time></trkpt><trkpt lat="42.96750047053902" lon="-1.424415332215935"><ele>781.0</ele><time>2026-04-29T15:14:35Z</time></trkpt><trkpt lat="42.96747643608059" lon="-1.4245871034988122"><ele>781.0</ele><time>2026-04-29T15:14:36Z</time></trkpt><trkpt lat="42.96745442764867" lon="-1.4247492221694877"><ele>781.0</ele><time>2026-04-29T15:14:37Z</time></trkpt><trkpt lat="42.967432351977344" lon="-1.4249149787910123"><ele>780.5</ele><time>2026-04-29T15:14:38Z</time></trkpt><trkpt lat="42.967406577764535" lon="-1.425084142956854"><ele>780.0</ele><time>2026-04-29T15:14:39Z</time></trkpt><trkpt lat="42.96737835201497" lon="-1.4253057576400487"><ele>779.5</ele><time>2026-04-29T15:14:40Z</time></trkpt><trkpt lat="42.96737429908882" lon="-1.4254077648046937"><ele>779.0</ele><time>2026-04-29T15:14:41Z</time></trkpt><trkpt lat="42.967347789503194" lon="-1.425580548134906"><ele>777.75</ele><time>2026-04-29T15:14:42Z</time></trkpt><trkpt lat="42.96732211055512" lon="-1.4257308780540054"><ele>776.5</ele><time>2026-04-29T15:14:43Z</time></trkpt><trkpt lat="42.9672762910102" lon="-1.4258889177595613"><ele>775.25</ele><time>2026-04-29T15:14:44Z</time></trkpt><trkpt lat="42.96725259175434" lon="-1.4260413963999303"><ele>774.0</ele><time>2026-04-29T15:14:45Z</time></trkpt><trkpt lat="42.96721034715342" lon="-1.4261811274281788"><ele>774.0</ele><time>2026-04-29T15:14:46Z</time></trkpt><trkpt lat="42.967142469899976" lon="-1.4263024072612156"><ele>774.0</ele><time>2026-04-29T15:14:47Z</time></trkpt><trkpt lat="42.96707018284164" lon="-1.4264238063123498"><ele>774.0</ele><time>2026-04-29T15:14:48Z</time></trkpt><trkpt lat="42.96701702061677" lon="-1.4265670260869323"><ele>774.0</ele><time>2026-04-29T15:14:49Z</time></trkpt><trkpt lat="42.96697625971333" lon="-1.4266814594247301"><ele>774.0</ele><time>2026-04-29T15:14:50Z</time></trkpt><trkpt lat="42.96694599770841" lon="-1.4268316631041909"><ele>775.0</ele><time>2026-04-29T15:14:51Z</time></trkpt><trkpt lat="42.96691238601418" lon="-1.426983841327408"><ele>776.0</ele><time>2026-04-29T15:14:52Z</time></trkpt><trkpt lat="42.96688099640578" lon="-1.4271305356822723"><ele>777.0</ele><time>2026-04-29T15:14:53Z</time></trkpt><trkpt lat="42.96685065373958" lon="-1.4272689474270055"><ele>778.0</ele><time>2026-04-29T15:14:54Z</time></trkpt><trkpt lat="42.96680866623055" lon="-1.4273966672019618"><ele>779.0</ele><time>2026-04-29T15:14:55Z</time></trkpt><trkpt lat="42.96674343856671" lon="-1.4275112683081643"><ele>777.4000000000001</ele><time>2026-04-29T15:14:56Z</time></trkpt><trkpt lat="42.96667245003956" lon="-1.427621665020591"><ele>775.8</ele><time>2026-04-29T15:14:57Z</time></trkpt><trkpt lat="42.96659837029912" lon="-1.4277244214274243"><ele>774.2</ele><time>2026-04-29T15:14:58Z</time></trkpt><trkpt lat="42.966528725350834" lon="-1.4278191349653904"><ele>772.5999999999999</ele><time>2026-04-29T15:14:59Z</time></trkpt><trkpt lat="42.96645878029786" lon="-1.427925766969382"><ele>771.0</ele><time>2026-04-29T15:15:00Z</time></trkpt><trkpt lat="42.96639307561843" lon="-1.4280357901945113"><ele>771.0</ele><time>2026-04-29T15:15:01.001Z</time></trkpt><trkpt lat="42.96633967678883" lon="-1.42815531553741"><ele>771.0</ele><time>2026-04-29T15:15:02.001Z</time></trkpt><trkpt lat="42.9662993946224" lon="-1.428281222011801"><ele>771.0</ele><time>2026-04-29T15:15:03.001Z</time></trkpt><trkpt lat="42.96625905757148" lon="-1.4284103536358737"><ele>771.0</ele><time>2026-04-29T15:15:04.001Z</time></trkpt><trkpt lat="42.96621160543059" lon="-1.4285369146149194"><ele>771.0</ele><time>2026-04-29T15:15:05.001Z</time></trkpt><trkpt lat="42.96615555667642" lon="-1.4286598360754719"><ele>771.0</ele><time>2026-04-29T15:15:06.001Z</time></trkpt><trkpt lat="42.9660945669743" lon="-1.4287750346976313"><ele>771.0</ele><time>2026-04-29T15:15:07.001Z</time></trkpt><trkpt lat="42.96602521603491" lon="-1.4288854739286636"><ele>771.0</ele><time>2026-04-29T15:15:08.001Z</time></trkpt><trkpt lat="42.965949003092334" lon="-1.4289797011307612"><ele>771.0</ele><time>2026-04-29T15:15:09.001Z</time></trkpt><trkpt lat="42.96586498454083" lon="-1.4290716236403476"><ele>771.0</ele><time>2026-04-29T15:15:10.001Z</time></trkpt><trkpt lat="42.965776394364774" lon="-1.4291504089878293"><ele>767.1999999999999</ele><time>2026-04-29T15:15:11.001Z</time></trkpt><trkpt lat="42.96568142967707" lon="-1.4292193653076637"><ele>763.4</ele><time>2026-04-29T15:15:12.001Z</time></trkpt><trkpt lat="42.96557847558339" lon="-1.429275738259468"><ele>759.6</ele><time>2026-04-29T15:15:13.001Z</time></trkpt><trkpt lat="42.96548122423978" lon="-1.4293419820525324"><ele>755.8</ele><time>2026-04-29T15:15:14.001Z</time></trkpt><trkpt lat="42.9653846599454" lon="-1.429416742361853"><ele>752.0</ele><time>2026-04-29T15:15:15.001Z</time></trkpt><trkpt lat="42.96528673910938" lon="-1.4294948441004642"><ele>752.0</ele><time>2026-04-29T15:15:16.001Z</time></trkpt><trkpt lat="42.96520419020913" lon="-1.4295934847108798"><ele>752.0</ele><time>2026-04-29T15:15:17.001Z</time></trkpt><trkpt lat="42.965121461844575" lon="-1.429711859975931"><ele>752.0</ele><time>2026-04-29T15:15:18.001Z</time></trkpt><trkpt lat="42.96505172144632" lon="-1.4298180868505264"><ele>752.0</ele><time>2026-04-29T15:15:19.001Z</time></trkpt><trkpt lat="42.96498181335348" lon="-1.429939080566106"><ele>752.0</ele><time>2026-04-29T15:15:20.001Z</time></trkpt><trkpt lat="42.964918810769554" lon="-1.430061402876683"><ele>751.4000000000001</ele><time>2026-04-29T15:15:21.001Z</time></trkpt><trkpt lat="42.96485433502556" lon="-1.4301815952974797"><ele>750.8000000000001</ele><time>2026-04-29T15:15:22.001Z</time></trkpt><trkpt lat="42.96478328152253" lon="-1.4303045434050785"><ele>750.2</ele><time>2026-04-29T15:15:23.001Z</time></trkpt><trkpt lat="42.964714790302516" lon="-1.4304239877977927"><ele>749.6</ele><time>2026-04-29T15:15:24.001Z</time></trkpt><trkpt lat="42.96464508101293" lon="-1.4305415161003119"><ele>749.0</ele><time>2026-04-29T15:15:25.001Z</time></trkpt><trkpt lat="42.964576119568044" lon="-1.4306677329440483"><ele>747.5</ele><time>2026-04-29T15:15:26.001Z</time></trkpt><trkpt lat="42.96450188976297" lon="-1.4307807389087868"><ele>746.0</ele><time>2026-04-29T15:15:27.001Z</time></trkpt><trkpt lat="42.96442904338775" lon="-1.430905066203499"><ele>744.5</ele><time>2026-04-29T15:15:28.001Z</time></trkpt><trkpt lat="42.96435608215745" lon="-1.4310263281928857"><ele>743.0</ele><time>2026-04-29T15:15:29.001Z</time></trkpt><trkpt lat="42.96428316032756" lon="-1.4311475566769714"><ele>743.0</ele><time>2026-04-29T15:15:30.001Z</time></trkpt><trkpt lat="42.96420737728617" lon="-1.4312568649576887"><ele>743.0</ele><time>2026-04-29T15:15:31.001Z</time></trkpt><trkpt lat="42.96412998908175" lon="-1.4313713143663798"><ele>743.0</ele><time>2026-04-29T15:15:32.001Z</time></trkpt><trkpt lat="42.9640570620865" lon="-1.4314841261856874"><ele>743.0</ele><time>2026-04-29T15:15:33.001Z</time></trkpt><trkpt lat="42.96398069036747" lon="-1.4315967090691393"><ele>743.0</ele><time>2026-04-29T15:15:34.001Z</time></trkpt><trkpt lat="42.96389912388498" lon="-1.431705493306702"><ele>742.0</ele><time>2026-04-29T15:15:35.001Z</time></trkpt><trkpt lat="42.96381435940282" lon="-1.431803239105668"><ele>741.0</ele><time>2026-04-29T15:15:36.001Z</time></trkpt><trkpt lat="42.96372286254879" lon="-1.4318915393888731"><ele>740.0</ele><time>2026-04-29T15:15:37.001Z</time></trkpt><trkpt lat="42.96362740073823" lon="-1.43197116793684"><ele>739.0</ele><time>2026-04-29T15:15:38.001Z</time></trkpt><trkpt lat="42.96352959559166" lon="-1.432037133126643"><ele>738.0</ele><time>2026-04-29T15:15:39.001Z</time></trkpt><trkpt lat="42.96343139764207" lon="-1.4321097174873278"><ele>737.2</ele><time>2026-04-29T15:15:40.001Z</time></trkpt><trkpt lat="42.963333967083344" lon="-1.4321854563615988"><ele>736.4</ele><time>2026-04-29T15:15:41.001Z</time></trkpt><trkpt lat="42.96323887456764" lon="-1.4322612331239555"><ele>735.6</ele><time>2026-04-29T15:15:42.001Z</time></trkpt><trkpt lat="42.96314161762317" lon="-1.4323241177618742"><ele>734.8000000000001</ele><time>2026-04-29T15:15:43.001Z</time></trkpt><trkpt lat="42.963041588812374" lon="-1.4323797155206959"><ele>734.0</ele><time>2026-04-29T15:15:44.001Z</time></trkpt><trkpt lat="42.9629373678749" lon="-1.43241870083653"><ele>734.0</ele><time>2026-04-29T15:15:45.001Z</time></trkpt><trkpt lat="42.96283018197273" lon="-1.4324485332630925"><ele>734.0</ele><time>2026-04-29T15:15:46.001Z</time></trkpt><trkpt lat="42.96272526903138" lon="-1.4324734930356295"><ele>734.0</ele><time>2026-04-29T15:15:47.001Z</time></trkpt><trkpt lat="42.962615877671645" lon="-1.4324913437130893"><ele>734.0</ele><time>2026-04-29T15:15:48.001Z</time></trkpt><trkpt lat="42.962506609699425" lon="-1.4325031947568752"><ele>734.0</ele><time>2026-04-29T15:15:49.001Z</time></trkpt><trkpt lat="42.96239961200808" lon="-1.432524525696201"><ele>733.6</ele><time>2026-04-29T15:15:50.001Z</time></trkpt><trkpt lat="42.962287752097666" lon="-1.432533695680962"><ele>733.2</ele><time>2026-04-29T15:15:51.001Z</time></trkpt><trkpt lat="42.962180817123375" lon="-1.4325426417189642"><ele>732.8000000000001</ele><time>2026-04-29T15:15:52.001Z</time></trkpt><trkpt lat="42.962074929143846" lon="-1.432553089235491"><ele>732.4000000000001</ele><time>2026-04-29T15:15:53.001Z</time></trkpt><trkpt lat="42.9619618719189" lon="-1.43255852180333"><ele>732.0</ele><time>2026-04-29T15:15:53.999Z</time></trkpt><trkpt lat="42.96186038450221" lon="-1.432560205993206"><ele>732.0</ele><time>2026-04-29T15:15:54.999Z</time></trkpt><trkpt lat="42.961746669427065" lon="-1.4325572913728306"><ele>732.0</ele><time>2026-04-29T15:15:55.999Z</time></trkpt><trkpt lat="42.96164376990467" lon="-1.4325528503344795"><ele>732.0</ele><time>2026-04-29T15:15:56.999Z</time></trkpt><trkpt lat="42.96153929297978" lon="-1.4325513863258554"><ele>732.0</ele><time>2026-04-29T15:15:57.999Z</time></trkpt><trkpt lat="42.96142976222993" lon="-1.4325525647235433"><ele>732.0</ele><time>2026-04-29T15:15:58.999Z</time></trkpt><trkpt lat="42.96132352390521" lon="-1.4325568816192062"><ele>731.2</ele><time>2026-04-29T15:15:59.999Z</time></trkpt><trkpt lat="42.961226597198305" lon="-1.4325725543467043"><ele>730.4000000000001</ele><time>2026-04-29T15:16:00.999Z</time></trkpt><trkpt lat="42.96111705070744" lon="-1.4326041245289292"><ele>729.5999999999999</ele><time>2026-04-29T15:16:01.999Z</time></trkpt><trkpt lat="42.961018791119" lon="-1.4326458306581327"><ele>728.8</ele><time>2026-04-29T15:16:02.999Z</time></trkpt><trkpt lat="42.96092984553917" lon="-1.4327026207046087"><ele>728.0</ele><time>2026-04-29T15:16:03.999Z</time></trkpt><trkpt lat="42.96084385680911" lon="-1.4327680958402673"><ele>727.8</ele><time>2026-04-29T15:16:04.999Z</time></trkpt><trkpt lat="42.960762670245614" lon="-1.4328478850341004"><ele>727.5999999999999</ele><time>2026-04-29T15:16:05.999Z</time></trkpt><trkpt lat="42.960684473214265" lon="-1.432928839407623"><ele>727.4000000000001</ele><time>2026-04-29T15:16:06.999Z</time></trkpt><trkpt lat="42.960603107529614" lon="-1.4330122229375202"><ele>727.2</ele><time>2026-04-29T15:16:07.999Z</time></trkpt><trkpt lat="42.96052557541397" lon="-1.4330867214132976"><ele>727.0</ele><time>2026-04-29T15:16:08.999Z</time></trkpt><trkpt lat="42.960442159648096" lon="-1.4331580155120167"><ele>726.4000000000001</ele><time>2026-04-29T15:16:09.999Z</time></trkpt><trkpt lat="42.960359583320255" lon="-1.433223625865257"><ele>725.8000000000001</ele><time>2026-04-29T15:16:10.999Z</time></trkpt><trkpt lat="42.96027092702563" lon="-1.4332791470648512"><ele>725.2</ele><time>2026-04-29T15:16:11.999Z</time></trkpt><trkpt lat="42.960184291620415" lon="-1.4333329289994594"><ele>724.6</ele><time>2026-04-29T15:16:12.999Z</time></trkpt><trkpt lat="42.960094764488964" lon="-1.4333785803393841"><ele>724.0</ele><time>2026-04-29T15:16:14Z</time></trkpt><trkpt lat="42.96000617729784" lon="-1.433411571984404"><ele>723.8000000000001</ele><time>2026-04-29T15:16:15Z</time></trkpt><trkpt lat="42.95991533663053" lon="-1.4334407289209685"><ele>723.6</ele><time>2026-04-29T15:16:16Z</time></trkpt><trkpt lat="42.959825424255015" lon="-1.4334563703896972"><ele>723.4</ele><time>2026-04-29T15:16:17Z</time></trkpt><trkpt lat="42.95973184780808" lon="-1.4334650199437897"><ele>723.2</ele><time>2026-04-29T15:16:18Z</time></trkpt><trkpt lat="42.95964205967055" lon="-1.4334731575425423"><ele>723.0</ele><time>2026-04-29T15:16:19Z</time></trkpt><trkpt lat="42.959545581996586" lon="-1.4334782085789823"><ele>723.0</ele><time>2026-04-29T15:16:20Z</time></trkpt><trkpt lat="42.9594514773202" lon="-1.433491240416343"><ele>723.0</ele><time>2026-04-29T15:16:21Z</time></trkpt><trkpt lat="42.95935747771958" lon="-1.4335024043068634"><ele>723.0</ele><time>2026-04-29T15:16:22Z</time></trkpt><trkpt lat="42.95926530741865" lon="-1.4335315731705"><ele>723.0</ele><time>2026-04-29T15:16:23Z</time></trkpt><trkpt lat="42.959172155256574" lon="-1.4335630201663925"><ele>723.0</ele><time>2026-04-29T15:16:24Z</time></trkpt><trkpt lat="42.959086762905464" lon="-1.43361514848455"><ele>722.6666666666666</ele><time>2026-04-29T15:16:25Z</time></trkpt><trkpt lat="42.95900285179239" lon="-1.4336726482905409"><ele>722.3333333333334</ele><time>2026-04-29T15:16:26Z</time></trkpt><trkpt lat="42.95892201816322" lon="-1.4337229854481823"><ele>722.0</ele><time>2026-04-29T15:16:27Z</time></trkpt><trkpt lat="42.958837831244374" lon="-1.4337685400473466"><ele>721.6666666666667</ele><time>2026-04-29T15:16:28Z</time></trkpt><trkpt lat="42.95875561043689" lon="-1.4338028385801411"><ele>721.3333333333334</ele><time>2026-04-29T15:16:29Z</time></trkpt><trkpt lat="42.95867132203874" lon="-1.43382424257748"><ele>721.0</ele><time>2026-04-29T15:16:30Z</time></trkpt><trkpt lat="42.95858565969201" lon="-1.4338306867715582"><ele>721.8333333333334</ele><time>2026-04-29T15:16:31Z</time></trkpt><trkpt lat="42.95849600798492" lon="-1.4338277185368702"><ele>722.6666666666667</ele><time>2026-04-29T15:16:32Z</time></trkpt><trkpt lat="42.95840859170855" lon="-1.4338209677396172"><ele>723.5</ele><time>2026-04-29T15:16:33Z</time></trkpt><trkpt lat="42.958318705589505" lon="-1.4337950725886355"><ele>724.3333333333334</ele><time>2026-04-29T15:16:34Z</time></trkpt><trkpt lat="42.95823702355171" lon="-1.4337553767650912"><ele>725.1666666666666</ele><time>2026-04-29T15:16:35Z</time></trkpt><trkpt lat="42.95815500531322" lon="-1.4337065099297563"><ele>726.0</ele><time>2026-04-29T15:16:36Z</time></trkpt><trkpt lat="42.95806568063372" lon="-1.4336563005421725"><ele>724.0</ele><time>2026-04-29T15:16:37Z</time></trkpt><trkpt lat="42.957983734463234" lon="-1.4335983194574908"><ele>722.0</ele><time>2026-04-29T15:16:38Z</time></trkpt><trkpt lat="42.95790494688329" lon="-1.4335459053919515"><ele>720.0</ele><time>2026-04-29T15:16:39Z</time></trkpt><trkpt lat="42.957818691226805" lon="-1.433484846010051"><ele>718.0</ele><time>2026-04-29T15:16:40Z</time></trkpt><trkpt lat="42.957735947093134" lon="-1.4334305651000327"><ele>716.0</ele><time>2026-04-29T15:16:41Z</time></trkpt><trkpt lat="42.957653772207905" lon="-1.4333755896531086"><ele>716.0</ele><time>2026-04-29T15:16:42Z</time></trkpt><trkpt lat="42.95757211679099" lon="-1.433320070800916"><ele>716.0</ele><time>2026-04-29T15:16:43Z</time></trkpt><trkpt lat="42.95749312717004" lon="-1.433266316988176"><ele>716.0</ele><time>2026-04-29T15:16:44Z</time></trkpt><trkpt lat="42.95741289701555" lon="-1.4332141955932571"><ele>716.0</ele><time>2026-04-29T15:16:45Z</time></trkpt><trkpt lat="42.95733286437197" lon="-1.4331609015550422"><ele>716.0</ele><time>2026-04-29T15:16:46Z</time></trkpt><trkpt lat="42.95725483498138" lon="-1.4331046986324205"><ele>716.0</ele><time>2026-04-29T15:16:47Z</time></trkpt><trkpt lat="42.957174317422094" lon="-1.433049373533232"><ele>716.1999999999999</ele><time>2026-04-29T15:16:48Z</time></trkpt><trkpt lat="42.957092896907625" lon="-1.4329975589787531"><ele>716.4</ele><time>2026-04-29T15:16:49Z</time></trkpt><trkpt lat="42.957014422185416" lon="-1.4329425147746053"><ele>716.6</ele><time>2026-04-29T15:16:50Z</time></trkpt><trkpt lat="42.95693200469073" lon="-1.4328880711646956"><ele>716.8</ele><time>2026-04-29T15:16:51Z</time></trkpt><trkpt lat="42.95685069073072" lon="-1.4328353718732088"><ele>717.0</ele><time>2026-04-29T15:16:52Z</time></trkpt><trkpt lat="42.956766549277894" lon="-1.432781311812256"><ele>716.4000000000001</ele><time>2026-04-29T15:16:53Z</time></trkpt><trkpt lat="42.95668421236745" lon="-1.4327263297954986"><ele>715.8000000000001</ele><time>2026-04-29T15:16:54Z</time></trkpt><trkpt lat="42.95660077892382" lon="-1.4326690609520907"><ele>715.2</ele><time>2026-04-29T15:16:55Z</time></trkpt><trkpt lat="42.9565146329788" lon="-1.4326163393431297"><ele>714.6</ele><time>2026-04-29T15:16:56Z</time></trkpt><trkpt lat="42.9564298515172" lon="-1.432561135464189"><ele>714.0</ele><time>2026-04-29T15:16:57Z</time></trkpt><trkpt lat="42.95634418987057" lon="-1.4325014885959866"><ele>714.0</ele><time>2026-04-29T15:16:58Z</time></trkpt><trkpt lat="42.95626254986853" lon="-1.43244232728528"><ele>714.0</ele><time>2026-04-29T15:16:59Z</time></trkpt><trkpt lat="42.956177403496525" lon="-1.432388108737722"><ele>714.0</ele><time>2026-04-29T15:17:00Z</time></trkpt><trkpt lat="42.95609023011329" lon="-1.4323303087976569"><ele>714.0</ele><time>2026-04-29T15:17:01.001Z</time></trkpt><trkpt lat="42.95600800546472" lon="-1.4322712299638045"><ele>714.0</ele><time>2026-04-29T15:17:02.001Z</time></trkpt><trkpt lat="42.95592280522184" lon="-1.432210849007133"><ele>714.4000000000001</ele><time>2026-04-29T15:17:03.001Z</time></trkpt><trkpt lat="42.95584063251123" lon="-1.4321426738695209"><ele>714.8</ele><time>2026-04-29T15:17:04.001Z</time></trkpt><trkpt lat="42.95575787699479" lon="-1.4320737561163375"><ele>715.2</ele><time>2026-04-29T15:17:05.001Z</time></trkpt><trkpt lat="42.95567676157776" lon="-1.4320008710722572"><ele>715.5999999999999</ele><time>2026-04-29T15:17:06.001Z</time></trkpt><trkpt lat="42.95560161057692" lon="-1.4319213704689409"><ele>716.0</ele><time>2026-04-29T15:17:07.001Z</time></trkpt><trkpt lat="42.9555260984877" lon="-1.4318449109132203"><ele>714.8</ele><time>2026-04-29T15:17:08.001Z</time></trkpt><trkpt lat="42.95544719120832" lon="-1.4317690202113789"><ele>713.5999999999999</ele><time>2026-04-29T15:17:09.001Z</time></trkpt><trkpt lat="42.955366466815036" lon="-1.4316969336810992"><ele>712.4</ele><time>2026-04-29T15:17:10.001Z</time></trkpt><trkpt lat="42.955286547459" lon="-1.431629136291136"><ele>711.2</ele><time>2026-04-29T15:17:11.001Z</time></trkpt><trkpt lat="42.95520304398326" lon="-1.4315687587625927"><ele>710.0</ele><time>2026-04-29T15:17:12.001Z</time></trkpt><trkpt lat="42.95511811368752" lon="-1.4315154321763874"><ele>709.8</ele><time>2026-04-29T15:17:13.001Z</time></trkpt><trkpt lat="42.95503183633876" lon="-1.4314644108239916"><ele>709.6</ele><time>2026-04-29T15:17:14.001Z</time></trkpt><trkpt lat="42.954946515046764" lon="-1.4314148861113793"><ele>709.4000000000001</ele><time>2026-04-29T15:17:15.001Z</time></trkpt><trkpt lat="42.95486231343716" lon="-1.4313656557745285"><ele>709.2</ele><time>2026-04-29T15:17:16.001Z</time></trkpt><trkpt lat="42.95477701184003" lon="-1.4313162576702703"><ele>709.0</ele><time>2026-04-29T15:17:17.001Z</time></trkpt><trkpt lat="42.95469307455695" lon="-1.4312685873736624"><ele>709.0</ele><time>2026-04-29T15:17:18.001Z</time></trkpt><trkpt lat="42.954608195985806" lon="-1.4312192451472228"><ele>709.0</ele><time>2026-04-29T15:17:19.001Z</time></trkpt><trkpt lat="42.95452293833975" lon="-1.4311710352375568"><ele>709.0</ele><time>2026-04-29T15:17:20.001Z</time></trkpt><trkpt lat="42.95443624049207" lon="-1.4311261886208826"><ele>709.0</ele><time>2026-04-29T15:17:21.001Z</time></trkpt><trkpt lat="42.9543521794863" lon="-1.4310858939111166"><ele>709.0</ele><time>2026-04-29T15:17:22.001Z</time></trkpt><trkpt lat="42.954265360984486" lon="-1.4310555205910611"><ele>709.4000000000001</ele><time>2026-04-29T15:17:23.001Z</time></trkpt><trkpt lat="42.95417506927785" lon="-1.4310395826517202"><ele>709.8</ele><time>2026-04-29T15:17:24.001Z</time></trkpt><trkpt lat="42.954082981345756" lon="-1.4310310403893547"><ele>710.2</ele><time>2026-04-29T15:17:25.001Z</time></trkpt><trkpt lat="42.95398845319204" lon="-1.4310291801358808"><ele>710.5999999999999</ele><time>2026-04-29T15:17:26.001Z</time></trkpt><trkpt lat="42.953896690563965" lon="-1.4310273365548531"><ele>711.0</ele><time>2026-04-29T15:17:27.001Z</time></trkpt><trkpt lat="42.95380457886463" lon="-1.4310293833610375"><ele>711.0</ele><time>2026-04-29T15:17:28.001Z</time></trkpt><trkpt lat="42.95371078505844" lon="-1.431033984276068"><ele>711.0</ele><time>2026-04-29T15:17:29.001Z</time></trkpt><trkpt lat="42.95361708906394" lon="-1.4310437138046344"><ele>711.0</ele><time>2026-04-29T15:17:30.001Z</time></trkpt><trkpt lat="42.953524199563375" lon="-1.4310557843823215"><ele>711.0</ele><time>2026-04-29T15:17:31.001Z</time></trkpt><trkpt lat="42.9534298095902" lon="-1.4310708382450552"><ele>711.0</ele><time>2026-04-29T15:17:32.001Z</time></trkpt><trkpt lat="42.95333317843674" lon="-1.4310838323723705"><ele>710.8</ele><time>2026-04-29T15:17:33.001Z</time></trkpt><trkpt lat="42.95323516865946" lon="-1.4311025801857835"><ele>710.5999999999999</ele><time>2026-04-29T15:17:34.001Z</time></trkpt><trkpt lat="42.953137382315106" lon="-1.4311132837402851"><ele>710.4</ele><time>2026-04-29T15:17:35.001Z</time></trkpt><trkpt lat="42.95305695961625" lon="-1.431124069236301"><ele>710.2</ele><time>2026-04-29T15:17:36.001Z</time></trkpt><trkpt lat="42.95296650586922" lon="-1.4311355090496587"><ele>710.0</ele><time>2026-04-29T15:17:37.001Z</time></trkpt><trkpt lat="42.952885023403766" lon="-1.431132615255749"><ele>710.0</ele><time>2026-04-29T15:17:38.001Z</time></trkpt><trkpt lat="42.95281164556626" lon="-1.4311598951064162"><ele>710.0</ele><time>2026-04-29T15:17:39.001Z</time></trkpt><trkpt lat="42.95268469662849" lon="-1.4311879079867402"><ele>710.0</ele><time>2026-04-29T15:17:40.001Z</time></trkpt><trkpt lat="42.95258962968576" lon="-1.4311976272840408"><ele>710.0</ele><time>2026-04-29T15:17:41.001Z</time></trkpt><trkpt lat="42.95249465335508" lon="-1.4311976714128403"><ele>710.0</ele><time>2026-04-29T15:17:42.001Z</time></trkpt><trkpt lat="42.9524019740265" lon="-1.431181775762443"><ele>709.6</ele><time>2026-04-29T15:17:43.001Z</time></trkpt><trkpt lat="42.952309993510234" lon="-1.4311668201535883"><ele>709.2</ele><time>2026-04-29T15:17:44.001Z</time></trkpt><trkpt lat="42.95221401872182" lon="-1.431146090984718"><ele>708.8</ele><time>2026-04-29T15:17:45.001Z</time></trkpt><trkpt lat="42.95212147335794" lon="-1.4311305154700014"><ele>708.4</ele><time>2026-04-29T15:17:46.001Z</time></trkpt><trkpt lat="42.95202831191217" lon="-1.4311150456501154"><ele>708.0</ele><time>2026-04-29T15:17:47.001Z</time></trkpt><trkpt lat="42.95193464905278" lon="-1.4311130664432623"><ele>708.0</ele><time>2026-04-29T15:17:48.001Z</time></trkpt><trkpt lat="42.95184359493356" lon="-1.4311157281691527"><ele>708.0</ele><time>2026-04-29T15:17:49.001Z</time></trkpt><trkpt lat="42.95175029288323" lon="-1.4311316214992742"><ele>708.0</ele><time>2026-04-29T15:17:50.001Z</time></trkpt><trkpt lat="42.95165811008313" lon="-1.4311488992860733"><ele>708.0</ele><time>2026-04-29T15:17:51.001Z</time></trkpt><trkpt lat="42.951561637874676" lon="-1.43117059065263"><ele>708.0</ele><time>2026-04-29T15:17:52.001Z</time></trkpt><trkpt lat="42.95146739321843" lon="-1.431186012404315"><ele>707.8</ele><time>2026-04-29T15:17:53.001Z</time></trkpt><trkpt lat="42.95137217795749" lon="-1.4312066095089577"><ele>707.5999999999999</ele><time>2026-04-29T15:17:54.001Z</time></trkpt><trkpt lat="42.951273573544164" lon="-1.4312179641967373"><ele>707.4000000000001</ele><time>2026-04-29T15:17:55.001Z</time></trkpt><trkpt lat="42.95117625847226" lon="-1.4312343996257535"><ele>707.2</ele><time>2026-04-29T15:17:56.001Z</time></trkpt><trkpt lat="42.95107936985888" lon="-1.4312518294294874"><ele>707.0</ele><time>2026-04-29T15:17:57.001Z</time></trkpt><trkpt lat="42.95098593306863" lon="-1.4312701462759927"><ele>707.0</ele><time>2026-04-29T15:17:58.001Z</time></trkpt><trkpt lat="42.95089531051305" lon="-1.431289255503195"><ele>707.0</ele><time>2026-04-29T15:17:59.001Z</time></trkpt><trkpt lat="42.950807119717474" lon="-1.431316438579088"><ele>707.0</ele><time>2026-04-29T15:18:00Z</time></trkpt><trkpt lat="42.95071917824809" lon="-1.4313571810235104"><ele>707.0</ele><time>2026-04-29T15:18:01Z</time></trkpt><trkpt lat="42.950633019675145" lon="-1.4314219204598795"><ele>707.0</ele><time>2026-04-29T15:18:02Z</time></trkpt><trkpt lat="42.95055636069419" lon="-1.4314979818741491"><ele>706.6</ele><time>2026-04-29T15:18:03Z</time></trkpt><trkpt lat="42.95048355476258" lon="-1.431583754860706"><ele>706.2</ele><time>2026-04-29T15:18:04Z</time></trkpt><trkpt lat="42.95040930010986" lon="-1.431661558302358"><ele>705.8</ele><time>2026-04-29T15:18:05Z</time></trkpt><trkpt lat="42.95033081607176" lon="-1.4317435280650295"><ele>705.4</ele><time>2026-04-29T15:18:06Z</time></trkpt><trkpt lat="42.95023920467923" lon="-1.4318134948169194"><ele>705.0</ele><time>2026-04-29T15:18:07Z</time></trkpt><trkpt lat="42.950152840074054" lon="-1.4318769226287922"><ele>705.0</ele><time>2026-04-29T15:18:08Z</time></trkpt><trkpt lat="42.950065050517736" lon="-1.4319257140416293"><ele>705.0</ele><time>2026-04-29T15:18:09Z</time></trkpt><trkpt lat="42.94998175602405" lon="-1.4319819186421032"><ele>705.0</ele><time>2026-04-29T15:18:10Z</time></trkpt><trkpt lat="42.94990486685847" lon="-1.4320520667948422"><ele>705.0</ele><time>2026-04-29T15:18:11Z</time></trkpt><trkpt lat="42.949828489516946" lon="-1.4321304577637188"><ele>705.0</ele><time>2026-04-29T15:18:12Z</time></trkpt><trkpt lat="42.94976318341799" lon="-1.4322459171122799"><ele>703.8</ele><time>2026-04-29T15:18:13Z</time></trkpt><trkpt lat="42.94971651770831" lon="-1.432354730628014"><ele>702.6</ele><time>2026-04-29T15:18:14Z</time></trkpt><trkpt lat="42.949668692434905" lon="-1.4324718827387761"><ele>701.4000000000001</ele><time>2026-04-29T15:18:15Z</time></trkpt><trkpt lat="42.94965708306959" lon="-1.4325988639943976"><ele>700.2</ele><time>2026-04-29T15:18:16Z</time></trkpt><trkpt lat="42.94962383092905" lon="-1.4327190572839388"><ele>699.0</ele><time>2026-04-29T15:18:17Z</time></trkpt><trkpt lat="42.94959122686702" lon="-1.4328417160271694"><ele>699.0</ele><time>2026-04-29T15:18:18Z</time></trkpt><trkpt lat="42.94956012081049" lon="-1.4329643695475545"><ele>699.0</ele><time>2026-04-29T15:18:19Z</time></trkpt><trkpt lat="42.94952536010789" lon="-1.4330827991963735"><ele>699.0</ele><time>2026-04-29T15:18:20Z</time></trkpt><trkpt lat="42.949501773558524" lon="-1.4332004125131477"><ele>699.0</ele><time>2026-04-29T15:18:21Z</time></trkpt><trkpt lat="42.949477034071535" lon="-1.4333238558022101"><ele>699.0</ele><time>2026-04-29T15:18:22Z</time></trkpt><trkpt lat="42.94945047094857" lon="-1.433444785808561"><ele>698.4000000000001</ele><time>2026-04-29T15:18:23Z</time></trkpt><trkpt lat="42.949423979535474" lon="-1.433569255428537"><ele>697.8</ele><time>2026-04-29T15:18:24Z</time></trkpt><trkpt lat="42.94939895126197" lon="-1.4336966564458868"><ele>697.2</ele><time>2026-04-29T15:18:25Z</time></trkpt><trkpt lat="42.94937751243655" lon="-1.4338235889708602"><ele>696.5999999999999</ele><time>2026-04-29T15:18:26Z</time></trkpt><trkpt lat="42.94934403241475" lon="-1.433951890264609"><ele>696.0</ele><time>2026-04-29T15:18:27Z</time></trkpt><trkpt lat="42.949306575484464" lon="-1.434078647325265"><ele>696.0</ele><time>2026-04-29T15:18:28Z</time></trkpt><trkpt lat="42.94926166644681" lon="-1.4341925582440451"><ele>696.0</ele><time>2026-04-29T15:18:29Z</time></trkpt><trkpt lat="42.949197200346426" lon="-1.4342875419906038"><ele>696.0</ele><time>2026-04-29T15:18:30Z</time></trkpt><trkpt lat="42.949133868371064" lon="-1.4343830137395759"><ele>696.0</ele><time>2026-04-29T15:18:31Z</time></trkpt><trkpt lat="42.94907337446853" lon="-1.434468020078927"><ele>696.0</ele><time>2026-04-29T15:18:32Z</time></trkpt><trkpt lat="42.948995924665844" lon="-1.4345443058802192"><ele>695.5999999999999</ele><time>2026-04-29T15:18:33Z</time></trkpt><trkpt lat="42.94892390475649" lon="-1.4346109858709917"><ele>695.2</ele><time>2026-04-29T15:18:34Z</time></trkpt><trkpt lat="42.94884760150694" lon="-1.4346789178048485"><ele>694.8</ele><time>2026-04-29T15:18:35Z</time></trkpt><trkpt lat="42.94877157373762" lon="-1.434745857450172"><ele>694.4000000000001</ele><time>2026-04-29T15:18:36Z</time></trkpt><trkpt lat="42.948693296880506" lon="-1.4348078449374884"><ele>694.0</ele><time>2026-04-29T15:18:37Z</time></trkpt><trkpt lat="42.94861503871585" lon="-1.434870694719549"><ele>694.0</ele><time>2026-04-29T15:18:38Z</time></trkpt><trkpt lat="42.94853964429279" lon="-1.4349323102513583"><ele>694.0</ele><time>2026-04-29T15:18:39Z</time></trkpt><trkpt lat="42.948464366188006" lon="-1.4349915515343732"><ele>694.0</ele><time>2026-04-29T15:18:40Z</time></trkpt><trkpt lat="42.9483843545603" lon="-1.4350492044779466"><ele>694.0</ele><time>2026-04-29T15:18:41Z</time></trkpt><trkpt lat="42.94830159514652" lon="-1.43511000167775"><ele>694.0</ele><time>2026-04-29T15:18:42Z</time></trkpt><trkpt lat="42.94822098412614" lon="-1.4351665867340506"><ele>693.2</ele><time>2026-04-29T15:18:43Z</time></trkpt><trkpt lat="42.94813301606147" lon="-1.4352205263363205"><ele>692.4000000000001</ele><time>2026-04-29T15:18:44Z</time></trkpt><trkpt lat="42.94804521256677" lon="-1.4352697591990742"><ele>691.6</ele><time>2026-04-29T15:18:45Z</time></trkpt><trkpt lat="42.94795604359921" lon="-1.4353152686506572"><ele>690.8</ele><time>2026-04-29T15:18:46Z</time></trkpt><trkpt lat="42.94786301265972" lon="-1.4353540397737299"><ele>690.0</ele><time>2026-04-29T15:18:47Z</time></trkpt><trkpt lat="42.947783166710245" lon="-1.4354105860478263"><ele>690.0</ele><time>2026-04-29T15:18:48Z</time></trkpt><trkpt lat="42.94769741064499" lon="-1.4354530639400942"><ele>690.0</ele><time>2026-04-29T15:18:49.001Z</time></trkpt><trkpt lat="42.94760701204038" lon="-1.435496573611149"><ele>690.0</ele><time>2026-04-29T15:18:50.001Z</time></trkpt><trkpt lat="42.947524255993834" lon="-1.4355401343723255"><ele>690.0</ele><time>2026-04-29T15:18:51.001Z</time></trkpt><trkpt lat="42.947439627440886" lon="-1.4355857885798247"><ele>690.0</ele><time>2026-04-29T15:18:52.001Z</time></trkpt><trkpt lat="42.94735501113412" lon="-1.4356284115353402"><ele>690.5</ele><time>2026-04-29T15:18:53.001Z</time></trkpt><trkpt lat="42.94727617632353" lon="-1.4356779699129691"><ele>691.0</ele><time>2026-04-29T15:18:54.001Z</time></trkpt><trkpt lat="42.94719016511861" lon="-1.4357198954843247"><ele>691.5</ele><time>2026-04-29T15:18:55.001Z</time></trkpt><trkpt lat="42.94710864728972" lon="-1.4357689328403402"><ele>692.0</ele><time>2026-04-29T15:18:56.001Z</time></trkpt><trkpt lat="42.94702598685201" lon="-1.435813791553466"><ele>692.5</ele><time>2026-04-29T15:18:57.001Z</time></trkpt><trkpt lat="42.94694502859292" lon="-1.43587218951883"><ele>693.0</ele><time>2026-04-29T15:18:58.001Z</time></trkpt><trkpt lat="42.94686335930448" lon="-1.4359292618513901"><ele>693.0</ele><time>2026-04-29T15:18:59.001Z</time></trkpt><trkpt lat="42.94678673222471" lon="-1.435995823540618"><ele>693.0</ele><time>2026-04-29T15:19:00.001Z</time></trkpt><trkpt lat="42.94670747223299" lon="-1.4360647031218978"><ele>693.0</ele><time>2026-04-29T15:19:01.001Z</time></trkpt><trkpt lat="42.946634797649395" lon="-1.43614193803215"><ele>693.0</ele><time>2026-04-29T15:19:02.001Z</time></trkpt><trkpt lat="42.94656317129642" lon="-1.4362215992066427"><ele>693.0</ele><time>2026-04-29T15:19:03.001Z</time></trkpt><trkpt lat="42.946485917960814" lon="-1.4363079028685979"><ele>693.4</ele><time>2026-04-29T15:19:04.001Z</time></trkpt><trkpt lat="42.946412930897566" lon="-1.4363922222110639"><ele>693.8</ele><time>2026-04-29T15:19:05.001Z</time></trkpt><trkpt lat="42.946343908365954" lon="-1.436484837005613"><ele>694.2</ele><time>2026-04-29T15:19:06.001Z</time></trkpt><trkpt lat="42.94627888368672" lon="-1.4365799973124764"><ele>694.6</ele><time>2026-04-29T15:19:07.001Z</time></trkpt><trkpt lat="42.9462105719006" lon="-1.436674644728641"><ele>695.0</ele><time>2026-04-29T15:19:08.001Z</time></trkpt><trkpt lat="42.94613958258021" lon="-1.4367683063155388"><ele>695.0</ele><time>2026-04-29T15:19:09.001Z</time></trkpt><trkpt lat="42.94607373740417" lon="-1.436864897449653"><ele>695.0</ele><time>2026-04-29T15:19:10.001Z</time></trkpt><trkpt lat="42.94599812678722" lon="-1.4369624676486132"><ele>695.0</ele><time>2026-04-29T15:19:11.001Z</time></trkpt><trkpt lat="42.94593201589726" lon="-1.437067446257098"><ele>695.0</ele><time>2026-04-29T15:19:12.001Z</time></trkpt><trkpt lat="42.945866302624154" lon="-1.4371595845267557"><ele>695.0</ele><time>2026-04-29T15:19:13.001Z</time></trkpt><trkpt lat="42.945794300593015" lon="-1.4372610821311447"><ele>693.0</ele><time>2026-04-29T15:19:14.001Z</time></trkpt><trkpt lat="42.945725433593516" lon="-1.4373728639476098"><ele>691.0</ele><time>2026-04-29T15:19:15.001Z</time></trkpt><trkpt lat="42.945668256644396" lon="-1.4374799181798141"><ele>689.0</ele><time>2026-04-29T15:19:16.001Z</time></trkpt><trkpt lat="42.945613315250846" lon="-1.4375962481484394"><ele>687.0</ele><time>2026-04-29T15:19:17.001Z</time></trkpt><trkpt lat="42.945574530501155" lon="-1.4377198819968084"><ele>685.0</ele><time>2026-04-29T15:19:18.001Z</time></trkpt><trkpt lat="42.94552175744452" lon="-1.4378413541118233"><ele>685.0</ele><time>2026-04-29T15:19:19.001Z</time></trkpt><trkpt lat="42.945472164056746" lon="-1.4379615242281847"><ele>685.0</ele><time>2026-04-29T15:19:20.001Z</time></trkpt><trkpt lat="42.94542465831462" lon="-1.4380831105685952"><ele>685.0</ele><time>2026-04-29T15:19:21.001Z</time></trkpt><trkpt lat="42.945377468204384" lon="-1.4382026459633224"><ele>685.0</ele><time>2026-04-29T15:19:22.001Z</time></trkpt><trkpt lat="42.94532689519645" lon="-1.4383192296120333"><ele>685.0</ele><time>2026-04-29T15:19:23.001Z</time></trkpt><trkpt lat="42.945278026213686" lon="-1.4384430787253242"><ele>684.0</ele><time>2026-04-29T15:19:24.001Z</time></trkpt><trkpt lat="42.945228662922" lon="-1.4385650361526248"><ele>683.0</ele><time>2026-04-29T15:19:25.001Z</time></trkpt><trkpt lat="42.945181569984975" lon="-1.4386897934768363"><ele>682.0</ele><time>2026-04-29T15:19:26.001Z</time></trkpt><trkpt lat="42.9451320828974" lon="-1.4388134057264785"><ele>681.0</ele><time>2026-04-29T15:19:27.001Z</time></trkpt><trkpt lat="42.945079307895604" lon="-1.438938322911661"><ele>680.0</ele><time>2026-04-29T15:19:28.001Z</time></trkpt><trkpt lat="42.94502908251631" lon="-1.4390604955711117"><ele>679.4</ele><time>2026-04-29T15:19:29.001Z</time></trkpt><trkpt lat="42.944979480301065" lon="-1.4391878704250896"><ele>678.8</ele><time>2026-04-29T15:19:30.001Z</time></trkpt><trkpt lat="42.944923968456166" lon="-1.439310522864664"><ele>678.2</ele><time>2026-04-29T15:19:31.001Z</time></trkpt><trkpt lat="42.944873967415226" lon="-1.4394348216656905"><ele>677.6</ele><time>2026-04-29T15:19:32.001Z</time></trkpt><trkpt lat="42.94482184084874" lon="-1.4395603833511317"><ele>677.0</ele><time>2026-04-29T15:19:33.001Z</time></trkpt><trkpt lat="42.94476900270337" lon="-1.4396872630354145"><ele>676.6</ele><time>2026-04-29T15:19:34.001Z</time></trkpt><trkpt lat="42.94471461768124" lon="-1.439812475215645"><ele>676.2</ele><time>2026-04-29T15:19:35.001Z</time></trkpt><trkpt lat="42.94466548103376" lon="-1.439938932276893"><ele>675.8</ele><time>2026-04-29T15:19:36.001Z</time></trkpt><trkpt lat="42.94461137440535" lon="-1.4400658176108507"><ele>675.4</ele><time>2026-04-29T15:19:37.001Z</time></trkpt><trkpt lat="42.94456603618793" lon="-1.4401920853711703"><ele>675.0</ele><time>2026-04-29T15:19:38.001Z</time></trkpt><trkpt lat="42.94451247673662" lon="-1.440311075624175"><ele>675.0</ele><time>2026-04-29T15:19:39.001Z</time></trkpt><trkpt lat="42.944466038458295" lon="-1.4404352684221233"><ele>675.0</ele><time>2026-04-29T15:19:40.001Z</time></trkpt><trkpt lat="42.94442033556962" lon="-1.4405523900009791"><ele>675.0</ele><time>2026-04-29T15:19:41.001Z</time></trkpt><trkpt lat="42.944376487794926" lon="-1.4406635405765338"><ele>675.0</ele><time>2026-04-29T15:19:42.001Z</time></trkpt><trkpt lat="42.9443315736179" lon="-1.4407717035520318"><ele>675.0</ele><time>2026-04-29T15:19:43.001Z</time></trkpt><trkpt lat="42.9442851181549" lon="-1.440879069791249"><ele>675.5</ele><time>2026-04-29T15:19:44.001Z</time></trkpt><trkpt lat="42.944237804684775" lon="-1.4409832847939836"><ele>676.0</ele><time>2026-04-29T15:19:45.001Z</time></trkpt><trkpt lat="42.944196268451805" lon="-1.4410889238087028"><ele>676.5</ele><time>2026-04-29T15:19:46.001Z</time></trkpt><trkpt lat="42.94415334551315" lon="-1.4411910991999692"><ele>677.0</ele><time>2026-04-29T15:19:47.001Z</time></trkpt><trkpt lat="42.94411040946005" lon="-1.4412945884044748"><ele>677.5</ele><time>2026-04-29T15:19:48.002Z</time></trkpt><trkpt lat="42.94407105389159" lon="-1.4413989622883532"><ele>678.0</ele><time>2026-04-29T15:19:49.002Z</time></trkpt><trkpt lat="42.944030514943066" lon="-1.4415064372404314"><ele>678.1666666666666</ele><time>2026-04-29T15:19:50.002Z</time></trkpt><trkpt lat="42.94399135184872" lon="-1.4416111984867184"><ele>678.3333333333334</ele><time>2026-04-29T15:19:51.002Z</time></trkpt><trkpt lat="42.94395132955498" lon="-1.4417166973205016"><ele>678.5</ele><time>2026-04-29T15:19:52.002Z</time></trkpt><trkpt lat="42.94391065250329" lon="-1.44182531957008"><ele>678.6666666666667</ele><time>2026-04-29T15:19:53.002Z</time></trkpt><trkpt lat="42.94387106016116" lon="-1.441935553298291"><ele>678.8333333333334</ele><time>2026-04-29T15:19:54.002Z</time></trkpt><trkpt lat="42.94383471883457" lon="-1.4420537066095944"><ele>679.0</ele><time>2026-04-29T15:19:55.002Z</time></trkpt><trkpt lat="42.943794000826834" lon="-1.442171389661"><ele>679.0</ele><time>2026-04-29T15:19:56.002Z</time></trkpt><trkpt lat="42.94375863308858" lon="-1.4423002122638915"><ele>679.0</ele><time>2026-04-29T15:19:57.002Z</time></trkpt><trkpt lat="42.94371372214699" lon="-1.4424267954632521"><ele>679.0</ele><time>2026-04-29T15:19:58.002Z</time></trkpt><trkpt lat="42.94366091766407" lon="-1.442547738418037"><ele>679.0</ele><time>2026-04-29T15:19:59.002Z</time></trkpt><trkpt lat="42.94361510774967" lon="-1.4426724859847322"><ele>679.0</ele><time>2026-04-29T15:20:00.002Z</time></trkpt><trkpt lat="42.94356973624515" lon="-1.4428037599013905"><ele>679.0</ele><time>2026-04-29T15:20:01.002Z</time></trkpt><trkpt lat="42.94352728456121" lon="-1.4429315991577885"><ele>679.0</ele><time>2026-04-29T15:20:02.002Z</time></trkpt><trkpt lat="42.9434812966198" lon="-1.443063181500232"><ele>679.0</ele><time>2026-04-29T15:20:03.002Z</time></trkpt><trkpt lat="42.943436431583926" lon="-1.4431918329859423"><ele>679.0</ele><time>2026-04-29T15:20:04.002Z</time></trkpt><trkpt lat="42.943391342825734" lon="-1.4433204320310515"><ele>679.0</ele><time>2026-04-29T15:20:05.002Z</time></trkpt><trkpt lat="42.943345444453065" lon="-1.4434514705842636"><ele>678.6</ele><time>2026-04-29T15:20:06Z</time></trkpt><trkpt lat="42.94330246438305" lon="-1.443583085378067"><ele>678.2</ele><time>2026-04-29T15:20:07Z</time></trkpt><trkpt lat="42.94327040476193" lon="-1.4437163283164094"><ele>677.8000000000001</ele><time>2026-04-29T15:20:08Z</time></trkpt><trkpt lat="42.94322860766895" lon="-1.4438540139257796"><ele>677.4000000000001</ele><time>2026-04-29T15:20:09Z</time></trkpt><trkpt lat="42.943202312593584" lon="-1.4439876780333334"><ele>677.0</ele><time>2026-04-29T15:20:10Z</time></trkpt><trkpt lat="42.943166958086" lon="-1.4441204861425045"><ele>676.2</ele><time>2026-04-29T15:20:11Z</time></trkpt><trkpt lat="42.943134017922596" lon="-1.444253008575343"><ele>675.4000000000001</ele><time>2026-04-29T15:20:12Z</time></trkpt><trkpt lat="42.94310186252876" lon="-1.44438668395739"><ele>674.5999999999999</ele><time>2026-04-29T15:20:13Z</time></trkpt><trkpt lat="42.94307397486206" lon="-1.4445176678901648"><ele>673.8</ele><time>2026-04-29T15:20:14Z</time></trkpt><trkpt lat="42.943042425961295" lon="-1.4446501824606848"><ele>673.0</ele><time>2026-04-29T15:20:15Z</time></trkpt><trkpt lat="42.943015088170355" lon="-1.4447805968029388"><ele>672.5999999999999</ele><time>2026-04-29T15:20:16Z</time></trkpt><trkpt lat="42.94298369014917" lon="-1.4449114458221133"><ele>672.1999999999999</ele><time>2026-04-29T15:20:17Z</time></trkpt><trkpt lat="42.94295628341232" lon="-1.4450406152036732"><ele>671.8</ele><time>2026-04-29T15:20:18Z</time></trkpt><trkpt lat="42.94292707226526" lon="-1.4451651679565647"><ele>671.4</ele><time>2026-04-29T15:20:19Z</time></trkpt><trkpt lat="42.94289554437284" lon="-1.4452964980269178"><ele>671.0</ele><time>2026-04-29T15:20:20Z</time></trkpt><trkpt lat="42.94286447750427" lon="-1.445427197278489"><ele>670.4</ele><time>2026-04-29T15:20:21Z</time></trkpt><trkpt lat="42.942829718554044" lon="-1.4455568408303545"><ele>669.8</ele><time>2026-04-29T15:20:22Z</time></trkpt><trkpt lat="42.94279702320371" lon="-1.4456859684605228"><ele>669.1999999999999</ele><time>2026-04-29T15:20:23Z</time></trkpt><trkpt lat="42.942765673691966" lon="-1.445819722386569"><ele>668.5999999999999</ele><time>2026-04-29T15:20:24Z</time></trkpt><trkpt lat="42.94273521089947" lon="-1.445950223152979"><ele>668.0</ele><time>2026-04-29T15:20:25Z</time></trkpt><trkpt lat="42.942701869654464" lon="-1.446083105312617"><ele>668.0</ele><time>2026-04-29T15:20:26Z</time></trkpt><trkpt lat="42.9426672299477" lon="-1.4462149988139184"><ele>668.0</ele><time>2026-04-29T15:20:27Z</time></trkpt><trkpt lat="42.94263287374621" lon="-1.4463450893714103"><ele>668.0</ele><time>2026-04-29T15:20:28Z</time></trkpt><trkpt lat="42.942599144486984" lon="-1.4464764258936902"><ele>668.0</ele><time>2026-04-29T15:20:29Z</time></trkpt><trkpt lat="42.94256864382868" lon="-1.446606705639083"><ele>668.0</ele><time>2026-04-29T15:20:30Z</time></trkpt><trkpt lat="42.942537747137514" lon="-1.4467387402362388"><ele>667.2</ele><time>2026-04-29T15:20:31Z</time></trkpt><trkpt lat="42.94250532012682" lon="-1.4468710070649093"><ele>666.4</ele><time>2026-04-29T15:20:32Z</time></trkpt><trkpt lat="42.9424764112654" lon="-1.4469976417830481"><ele>665.6</ele><time>2026-04-29T15:20:33Z</time></trkpt><trkpt lat="42.94244748283517" lon="-1.4471296896445318"><ele>664.8000000000001</ele><time>2026-04-29T15:20:34Z</time></trkpt><trkpt lat="42.94242812694961" lon="-1.4472659709322866"><ele>664.0</ele><time>2026-04-29T15:20:35Z</time></trkpt><trkpt lat="42.94242051015686" lon="-1.4474040168690165"><ele>663.2</ele><time>2026-04-29T15:20:36Z</time></trkpt><trkpt lat="42.94242003127492" lon="-1.4475440764740444"><ele>662.4000000000001</ele><time>2026-04-29T15:20:37Z</time></trkpt><trkpt lat="42.94241998234506" lon="-1.4476860838024173"><ele>661.6</ele><time>2026-04-29T15:20:38Z</time></trkpt><trkpt lat="42.942421556653436" lon="-1.4478247251014167"><ele>660.8</ele><time>2026-04-29T15:20:39Z</time></trkpt><trkpt lat="42.942424125389856" lon="-1.4479667327741779"><ele>660.0</ele><time>2026-04-29T15:20:40Z</time></trkpt><trkpt lat="42.942429682946845" lon="-1.4481095343642016"><ele>659.2</ele><time>2026-04-29T15:20:41Z</time></trkpt><trkpt lat="42.942434835567504" lon="-1.4482406222268591"><ele>658.4</ele><time>2026-04-29T15:20:42Z</time></trkpt><trkpt lat="42.94244000733819" lon="-1.4483736616493184"><ele>657.5999999999999</ele><time>2026-04-29T15:20:43Z</time></trkpt><trkpt lat="42.94244520282685" lon="-1.4485018101111113"><ele>656.8</ele><time>2026-04-29T15:20:44Z</time></trkpt><trkpt lat="42.94244546782128" lon="-1.4486257072655115"><ele>656.0</ele><time>2026-04-29T15:20:45Z</time></trkpt><trkpt lat="42.94244429293201" lon="-1.4487475906251064"><ele>657.1666666666666</ele><time>2026-04-29T15:20:46Z</time></trkpt><trkpt lat="42.94243814033601" lon="-1.4488650748559029"><ele>658.3333333333333</ele><time>2026-04-29T15:20:47Z</time></trkpt><trkpt lat="42.942421821865885" lon="-1.4489760059378154"><ele>659.5</ele><time>2026-04-29T15:20:48Z</time></trkpt><trkpt lat="42.94238023673878" lon="-1.4490758616522423"><ele>660.6666666666666</ele><time>2026-04-29T15:20:49.001Z</time></trkpt><trkpt lat="42.94231409611579" lon="-1.4491444353316996"><ele>661.8333333333334</ele><time>2026-04-29T15:20:50.001Z</time></trkpt><trkpt lat="42.94223094154634" lon="-1.4491733573529901"><ele>663.0</ele><time>2026-04-29T15:20:51.001Z</time></trkpt><trkpt lat="42.94214952975431" lon="-1.4491744455541034"><ele>662.9999999999999</ele><time>2026-04-29T15:20:52.001Z</time></trkpt><trkpt lat="42.94207128750896" lon="-1.4491683020069777"><ele>663.0</ele><time>2026-04-29T15:20:53.001Z</time></trkpt><trkpt lat="42.94199661417514" lon="-1.4491695945281167"><ele>663.0</ele><time>2026-04-29T15:20:54.001Z</time></trkpt><trkpt lat="42.94192325398064" lon="-1.4491722019537914"><ele>663.0</ele><time>2026-04-29T15:20:55.001Z</time></trkpt><trkpt lat="42.941850616156906" lon="-1.4491753001666816"><ele>663.0</ele><time>2026-04-29T15:20:56.001Z</time></trkpt><trkpt lat="42.941780397571414" lon="-1.4491787993813812"><ele>662.9999999999999</ele><time>2026-04-29T15:20:57.001Z</time></trkpt><trkpt lat="42.94170928230707" lon="-1.4491813179747532"><ele>663.0</ele><time>2026-04-29T15:20:58.001Z</time></trkpt><trkpt lat="42.941636764709905" lon="-1.4491860356771396"><ele>662.9999999999999</ele><time>2026-04-29T15:20:59.001Z</time></trkpt><trkpt lat="42.941570709705275" lon="-1.4491949417093026"><ele>663.0</ele><time>2026-04-29T15:21:00.001Z</time></trkpt><trkpt lat="42.94150213145772" lon="-1.4491933481253667"><ele>663.0</ele><time>2026-04-29T15:21:01.001Z</time></trkpt><trkpt lat="42.941431578132274" lon="-1.4491980448022583"><ele>663.0</ele><time>2026-04-29T15:21:02.001Z</time></trkpt><trkpt lat="42.94135953362353" lon="-1.4492076022612892"><ele>663.0</ele><time>2026-04-29T15:21:03.001Z</time></trkpt><trkpt lat="42.941292460061696" lon="-1.4492126939934078"><ele>662.9999999999999</ele><time>2026-04-29T15:21:04.001Z</time></trkpt><trkpt lat="42.94122096582187" lon="-1.4492178645294682"><ele>663.0</ele><time>2026-04-29T15:21:05.001Z</time></trkpt><trkpt lat="42.94114871581976" lon="-1.4492199092304179"><ele>662.9999999999999</ele><time>2026-04-29T15:21:06.001Z</time></trkpt><trkpt lat="42.941075522519924" lon="-1.4492265803225572"><ele>663.0</ele><time>2026-04-29T15:21:07.001Z</time></trkpt><trkpt lat="42.941002623018996" lon="-1.4492387885361702"><ele>663.0</ele><time>2026-04-29T15:21:08.001Z</time></trkpt><trkpt lat="42.94092970429338" lon="-1.4492612138450007"><ele>663.0</ele><time>2026-04-29T15:21:09.001Z</time></trkpt><trkpt lat="42.940859445121504" lon="-1.4492980101288275"><ele>663.0</ele><time>2026-04-29T15:21:10.001Z</time></trkpt><trkpt lat="42.940798218919234" lon="-1.4493557181547907"><ele>662.9999999999999</ele><time>2026-04-29T15:21:11.001Z</time></trkpt><trkpt lat="42.94074336185114" lon="-1.4494317727849368"><ele>663.0</ele><time>2026-04-29T15:21:12.001Z</time></trkpt><trkpt lat="42.94070366190586" lon="-1.4495251100288333"><ele>663.6666666666666</ele><time>2026-04-29T15:21:13.001Z</time></trkpt><trkpt lat="42.940685052689446" lon="-1.4496313579747249"><ele>664.3333333333334</ele><time>2026-04-29T15:21:14.001Z</time></trkpt><trkpt lat="42.9406846374266" lon="-1.4497451786310391"><ele>665.0</ele><time>2026-04-29T15:21:15.001Z</time></trkpt><trkpt lat="42.94068725007431" lon="-1.449857718999686"><ele>665.6666666666667</ele><time>2026-04-29T15:21:16.001Z</time></trkpt><trkpt lat="42.94069437965744" lon="-1.4499736862405976"><ele>666.3333333333334</ele><time>2026-04-29T15:21:17.001Z</time></trkpt><trkpt lat="42.94069978985876" lon="-1.4500911602035087"><ele>667.0</ele><time>2026-04-29T15:21:18.001Z</time></trkpt><trkpt lat="42.9407038302304" lon="-1.4502077633367996"><ele>667.0</ele><time>2026-04-29T15:21:19.001Z</time></trkpt><trkpt lat="42.940711642624976" lon="-1.4503275398873952"><ele>667.0</ele><time>2026-04-29T15:21:20.001Z</time></trkpt><trkpt lat="42.94072467587924" lon="-1.450443760596823"><ele>667.0</ele><time>2026-04-29T15:21:21.001Z</time></trkpt><trkpt lat="42.94074920635335" lon="-1.4505605475622267"><ele>667.0</ele><time>2026-04-29T15:21:22.001Z</time></trkpt><trkpt lat="42.940789637654596" lon="-1.4506710764607582"><ele>667.0</ele><time>2026-04-29T15:21:23.001Z</time></trkpt><trkpt lat="42.94084333135677" lon="-1.4507695508125182"><ele>667.0</ele><time>2026-04-29T15:21:24.001Z</time></trkpt><trkpt lat="42.94090308197194" lon="-1.4508703302898498"><ele>667.6</ele><time>2026-04-29T15:21:25.001Z</time></trkpt><trkpt lat="42.940964973734836" lon="-1.4509706178729733"><ele>668.2</ele><time>2026-04-29T15:21:26.001Z</time></trkpt><trkpt lat="42.94102628401512" lon="-1.4510716868377727"><ele>668.8</ele><time>2026-04-29T15:21:27.001Z</time></trkpt><trkpt lat="42.941085939153865" lon="-1.4511758727049069"><ele>669.4</ele><time>2026-04-29T15:21:28.001Z</time></trkpt><trkpt lat="42.94115178639463" lon="-1.4512803171460822"><ele>670.0</ele><time>2026-04-29T15:21:29.001Z</time></trkpt><trkpt lat="42.941215986067604" lon="-1.4513795191227072"><ele>670.0</ele><time>2026-04-29T15:21:30.001Z</time></trkpt><trkpt lat="42.941284172992276" lon="-1.4514820100690198"><ele>670.0</ele><time>2026-04-29T15:21:31.001Z</time></trkpt><trkpt lat="42.94135195761286" lon="-1.4515807155486122"><ele>670.0</ele><time>2026-04-29T15:21:32.001Z</time></trkpt><trkpt lat="42.94141564256938" lon="-1.4516857752529966"><ele>670.0</ele><time>2026-04-29T15:21:33.001Z</time></trkpt><trkpt lat="42.94146693356272" lon="-1.4517957845770972"><ele>670.0</ele><time>2026-04-29T15:21:34.001Z</time></trkpt><trkpt lat="42.94150623953382" lon="-1.4519138806270182"><ele>670.0</ele><time>2026-04-29T15:21:35.001Z</time></trkpt><trkpt lat="42.94153240203311" lon="-1.452035917192473"><ele>670.0</ele><time>2026-04-29T15:21:36.001Z</time></trkpt><trkpt lat="42.94154108093641" lon="-1.4521600765877738"><ele>670.0</ele><time>2026-04-29T15:21:37.001Z</time></trkpt><trkpt lat="42.94153464372068" lon="-1.4522845567924811"><ele>670.0</ele><time>2026-04-29T15:21:38.001Z</time></trkpt><trkpt lat="42.94149359172683" lon="-1.4523979552169028"><ele>670.0</ele><time>2026-04-29T15:21:39.001Z</time></trkpt><trkpt lat="42.94144391675902" lon="-1.4524938104953342"><ele>670.0</ele><time>2026-04-29T15:21:40.001Z</time></trkpt><trkpt lat="42.94138595996465" lon="-1.4525782336474744"><ele>670.0</ele><time>2026-04-29T15:21:41.001Z</time></trkpt><trkpt lat="42.941335378906714" lon="-1.4526613836925697"><ele>670.0</ele><time>2026-04-29T15:21:42.001Z</time></trkpt><trkpt lat="42.94126978862113" lon="-1.4527458605184902"><ele>670.0</ele><time>2026-04-29T15:21:43.001Z</time></trkpt><trkpt lat="42.94121108104291" lon="-1.452828074616181"><ele>670.0</ele><time>2026-04-29T15:21:44.001Z</time></trkpt><trkpt lat="42.94115778826563" lon="-1.4529078671278075"><ele>670.0</ele><time>2026-04-29T15:21:45.001Z</time></trkpt><trkpt lat="42.94109676834519" lon="-1.4529895590389155"><ele>671.1666666666667</ele><time>2026-04-29T15:21:46.001Z</time></trkpt><trkpt lat="42.94103553758988" lon="-1.4530686372728605"><ele>672.3333333333334</ele><time>2026-04-29T15:21:47.001Z</time></trkpt><trkpt lat="42.94096983305648" lon="-1.4531412722641177"><ele>673.5</ele><time>2026-04-29T15:21:48.001Z</time></trkpt><trkpt lat="42.94090186245535" lon="-1.4532092044487128"><ele>674.6666666666666</ele><time>2026-04-29T15:21:49.001Z</time></trkpt><trkpt lat="42.9408308705558" lon="-1.4532778004022784"><ele>675.8333333333333</ele><time>2026-04-29T15:21:50.002Z</time></trkpt><trkpt lat="42.9407587840138" lon="-1.4533420870779301"><ele>677.0</ele><time>2026-04-29T15:21:51.002Z</time></trkpt><trkpt lat="42.94068554204607" lon="-1.4534063049996653"><ele>677.0</ele><time>2026-04-29T15:21:52.002Z</time></trkpt><trkpt lat="42.94061346465687" lon="-1.453471539688946"><ele>677.0</ele><time>2026-04-29T15:21:53.002Z</time></trkpt><trkpt lat="42.94054049857463" lon="-1.4535387549702685"><ele>677.0</ele><time>2026-04-29T15:21:54.002Z</time></trkpt><trkpt lat="42.94046886033711" lon="-1.4536090676157918"><ele>677.0</ele><time>2026-04-29T15:21:55.002Z</time></trkpt><trkpt lat="42.94039875875081" lon="-1.4536787401308393"><ele>677.0</ele><time>2026-04-29T15:21:56.002Z</time></trkpt><trkpt lat="42.9403286712409" lon="-1.4537493273038016"><ele>677.0</ele><time>2026-04-29T15:21:57.002Z</time></trkpt><trkpt lat="42.94025976995333" lon="-1.4538196685830942"><ele>677.6666666666666</ele><time>2026-04-29T15:21:58.002Z</time></trkpt><trkpt lat="42.940188479309356" lon="-1.4538849073106899"><ele>678.3333333333333</ele><time>2026-04-29T15:21:59.002Z</time></trkpt><trkpt lat="42.94011800992047" lon="-1.4539529862555256"><ele>679.0</ele><time>2026-04-29T15:22:00.002Z</time></trkpt><trkpt lat="42.94005236954538" lon="-1.4540339352404414"><ele>679.6666666666666</ele><time>2026-04-29T15:22:01.002Z</time></trkpt><trkpt lat="42.939982924891716" lon="-1.4541045342456567"><ele>680.3333333333334</ele><time>2026-04-29T15:22:02.002Z</time></trkpt><trkpt lat="42.93990584911229" lon="-1.4541656936785925"><ele>681.0</ele><time>2026-04-29T15:22:03.002Z</time></trkpt><trkpt lat="42.93984046049208" lon="-1.4542484643967273"><ele>681.0</ele><time>2026-04-29T15:22:04.002Z</time></trkpt><trkpt lat="42.93977488556219" lon="-1.4543263615484403"><ele>681.0</ele><time>2026-04-29T15:22:05.002Z</time></trkpt><trkpt lat="42.93969813800454" lon="-1.4543859790616245"><ele>681.0</ele><time>2026-04-29T15:22:06.002Z</time></trkpt><trkpt lat="42.939631891508824" lon="-1.4544632861699511"><ele>681.0</ele><time>2026-04-29T15:22:07.002Z</time></trkpt><trkpt lat="42.93956222871191" lon="-1.454532725946564"><ele>681.0</ele><time>2026-04-29T15:22:08.002Z</time></trkpt><trkpt lat="42.93948685976597" lon="-1.4545900429683094"><ele>681.0</ele><time>2026-04-29T15:22:09.002Z</time></trkpt><trkpt lat="42.93941950363556" lon="-1.454664947186675"><ele>680.8333333333334</ele><time>2026-04-29T15:22:10.002Z</time></trkpt><trkpt lat="42.93935432281103" lon="-1.4547413869430434"><ele>680.6666666666666</ele><time>2026-04-29T15:22:11.002Z</time></trkpt><trkpt lat="42.93927598166062" lon="-1.4547888546837702"><ele>680.5</ele><time>2026-04-29T15:22:12Z</time></trkpt><trkpt lat="42.93921370949377" lon="-1.4548695608031228"><ele>680.3333333333333</ele><time>2026-04-29T15:22:13Z</time></trkpt><trkpt lat="42.93916931919276" lon="-1.4549626747595472"><ele>680.1666666666666</ele><time>2026-04-29T15:22:14Z</time></trkpt><trkpt lat="42.93917790488518" lon="-1.4550857582646088"><ele>680.0</ele><time>2026-04-29T15:22:15Z</time></trkpt><trkpt lat="42.939227777809045" lon="-1.4551791859919192"><ele>683.5</ele><time>2026-04-29T15:22:16Z</time></trkpt><trkpt lat="42.93929382318595" lon="-1.4552371631111773"><ele>687.0</ele><time>2026-04-29T15:22:17Z</time></trkpt><trkpt lat="42.939373390106205" lon="-1.4552551555932485"><ele>690.5</ele><time>2026-04-29T15:22:18Z</time></trkpt><trkpt lat="42.93944349750261" lon="-1.4552916986197026"><ele>694.0</ele><time>2026-04-29T15:22:19Z</time></trkpt><trkpt lat="42.939497575101214" lon="-1.4553711820538688"><ele>697.5</ele><time>2026-04-29T15:22:20Z</time></trkpt><trkpt lat="42.9395518419188" lon="-1.4554584338918013"><ele>701.0</ele><time>2026-04-29T15:22:21Z</time></trkpt><trkpt lat="42.93954268501454" lon="-1.4555881287830392"><ele>702.1666666666666</ele><time>2026-04-29T15:22:22Z</time></trkpt><trkpt lat="42.93951065812637" lon="-1.4556952444717657"><ele>703.3333333333333</ele><time>2026-04-29T15:22:23Z</time></trkpt><trkpt lat="42.93945929134124" lon="-1.4557829126279818"><ele>704.5</ele><time>2026-04-29T15:22:24Z</time></trkpt><trkpt lat="42.93939223914429" lon="-1.4558492211340965"><ele>705.6666666666666</ele><time>2026-04-29T15:22:25Z</time></trkpt><trkpt lat="42.939316742900594" lon="-1.4559047488668428"><ele>706.8333333333334</ele><time>2026-04-29T15:22:26Z</time></trkpt><trkpt lat="42.93923799319592" lon="-1.455946549511275"><ele>708.0</ele><time>2026-04-29T15:22:27Z</time></trkpt><trkpt lat="42.9391542573171" lon="-1.4559754307192394"><ele>707.1666666666666</ele><time>2026-04-29T15:22:28Z</time></trkpt><trkpt lat="42.93907174894171" lon="-1.456012109600804"><ele>706.3333333333334</ele><time>2026-04-29T15:22:29Z</time></trkpt><trkpt lat="42.938997812719" lon="-1.45607787220433"><ele>705.5</ele><time>2026-04-29T15:22:30Z</time></trkpt><trkpt lat="42.93893861474159" lon="-1.4561744224957203"><ele>704.6666666666667</ele><time>2026-04-29T15:22:31Z</time></trkpt><trkpt lat="42.93889666512009" lon="-1.4562833846156509"><ele>703.8333333333334</ele><time>2026-04-29T15:22:32Z</time></trkpt><trkpt lat="42.938875328804194" lon="-1.4564015124844716"><ele>703.0</ele><time>2026-04-29T15:22:33Z</time></trkpt><trkpt lat="42.938872630742864" lon="-1.4565208042249889"><ele>703.0</ele><time>2026-04-29T15:22:34Z</time></trkpt><trkpt lat="42.93886761295735" lon="-1.456636631680536"><ele>703.0</ele><time>2026-04-29T15:22:35Z</time></trkpt><trkpt lat="42.93885576844313" lon="-1.4567509933710099"><ele>703.0</ele><time>2026-04-29T15:22:36Z</time></trkpt><trkpt lat="42.93884303031368" lon="-1.4568642028410295"><ele>703.0</ele><time>2026-04-29T15:22:37Z</time></trkpt><trkpt lat="42.9388309616" lon="-1.4569807936027863"><ele>703.0</ele><time>2026-04-29T15:22:38Z</time></trkpt><trkpt lat="42.93882210583709" lon="-1.4570967913208062"><ele>703.0</ele><time>2026-04-29T15:22:39Z</time></trkpt><trkpt lat="42.938813554206796" lon="-1.4572122867818575"><ele>703.3333333333334</ele><time>2026-04-29T15:22:40Z</time></trkpt><trkpt lat="42.938809484216605" lon="-1.4573316639224023"><ele>703.6666666666667</ele><time>2026-04-29T15:22:41Z</time></trkpt><trkpt lat="42.938822746713775" lon="-1.4574499000782248"><ele>704.0</ele><time>2026-04-29T15:22:42Z</time></trkpt><trkpt lat="42.938853643801316" lon="-1.4575677393434612"><ele>704.3333333333334</ele><time>2026-04-29T15:22:43Z</time></trkpt><trkpt lat="42.938894075021054" lon="-1.4576718733439715"><ele>704.6666666666666</ele><time>2026-04-29T15:22:44Z</time></trkpt><trkpt lat="42.93891967920504" lon="-1.4577792569792318"><ele>705.0</ele><time>2026-04-29T15:22:45Z</time></trkpt><trkpt lat="42.93892303431346" lon="-1.457895296361153"><ele>706.6666666666666</ele><time>2026-04-29T15:22:46Z</time></trkpt><trkpt lat="42.93888759825912" lon="-1.4580047063246697"><ele>708.3333333333334</ele><time>2026-04-29T15:22:47Z</time></trkpt><trkpt lat="42.93883238137002" lon="-1.458101493161579"><ele>710.0</ele><time>2026-04-29T15:22:48Z</time></trkpt><trkpt lat="42.93877327692391" lon="-1.4581835316363072"><ele>711.6666666666667</ele><time>2026-04-29T15:22:49.001Z</time></trkpt><trkpt lat="42.93870708016027" lon="-1.4582597317556927"><ele>713.3333333333334</ele><time>2026-04-29T15:22:50.001Z</time></trkpt><trkpt lat="42.938638608472615" lon="-1.4583310630488886"><ele>715.0</ele><time>2026-04-29T15:22:51.001Z</time></trkpt><trkpt lat="42.93856906183936" lon="-1.4583989822657277"><ele>715.0</ele><time>2026-04-29T15:22:52.001Z</time></trkpt><trkpt lat="42.938495627878005" lon="-1.4584613300810363"><ele>715.0</ele><time>2026-04-29T15:22:53.001Z</time></trkpt><trkpt lat="42.93842037926194" lon="-1.4585188270242024"><ele>715.0</ele><time>2026-04-29T15:22:54.001Z</time></trkpt><trkpt lat="42.93834182946531" lon="-1.4585717589895"><ele>715.0</ele><time>2026-04-29T15:22:55.001Z</time></trkpt><trkpt lat="42.938263589674825" lon="-1.4586209015437648"><ele>715.0</ele><time>2026-04-29T15:22:56.001Z</time></trkpt><trkpt lat="42.938182966470706" lon="-1.4586686485298803"><ele>715.0</ele><time>2026-04-29T15:22:57.001Z</time></trkpt><trkpt lat="42.93811251204207" lon="-1.458738400440629"><ele>713.8333333333334</ele><time>2026-04-29T15:22:58.001Z</time></trkpt><trkpt lat="42.938074302619896" lon="-1.4588565637637525"><ele>712.6666666666667</ele><time>2026-04-29T15:22:59.001Z</time></trkpt><trkpt lat="42.938080483007305" lon="-1.4589852401970684"><ele>711.5</ele><time>2026-04-29T15:23:00.001Z</time></trkpt><trkpt lat="42.93811955756168" lon="-1.4590924351718093"><ele>710.3333333333334</ele><time>2026-04-29T15:23:01.001Z</time></trkpt><trkpt lat="42.93817921952461" lon="-1.4591755118070422"><ele>709.1666666666666</ele><time>2026-04-29T15:23:02.001Z</time></trkpt><trkpt lat="42.93824582722348" lon="-1.4592430731782668"><ele>708.0</ele><time>2026-04-29T15:23:03.001Z</time></trkpt><trkpt lat="42.93831225970472" lon="-1.4593057958585203"><ele>708.0</ele><time>2026-04-29T15:23:04.001Z</time></trkpt><trkpt lat="42.93838342198452" lon="-1.4593659506244"><ele>708.0</ele><time>2026-04-29T15:23:05.001Z</time></trkpt><trkpt lat="42.93845730618937" lon="-1.459423594397314"><ele>708.0</ele><time>2026-04-29T15:23:06.001Z</time></trkpt><trkpt lat="42.93853190576222" lon="-1.4594761361954613"><ele>708.0</ele><time>2026-04-29T15:23:07.001Z</time></trkpt><trkpt lat="42.93861020530637" lon="-1.459522149256652"><ele>708.0</ele><time>2026-04-29T15:23:08.001Z</time></trkpt><trkpt lat="42.938691095808856" lon="-1.4595577732124965"><ele>708.0</ele><time>2026-04-29T15:23:09.001Z</time></trkpt><trkpt lat="42.93877276652668" lon="-1.4595889714274821"><ele>708.3333333333334</ele><time>2026-04-29T15:23:10.001Z</time></trkpt><trkpt lat="42.93885308375964" lon="-1.4596285296098583"><ele>708.6666666666666</ele><time>2026-04-29T15:23:11.001Z</time></trkpt><trkpt lat="42.93893338876227" lon="-1.4596680233395272"><ele>709.0</ele><time>2026-04-29T15:23:12.001Z</time></trkpt><trkpt lat="42.93901696580675" lon="-1.4597004485172929"><ele>709.3333333333333</ele><time>2026-04-29T15:23:13.001Z</time></trkpt><trkpt lat="42.93910080483643" lon="-1.4597301114849397"><ele>709.6666666666666</ele><time>2026-04-29T15:23:14.001Z</time></trkpt><trkpt lat="42.93918516523802" lon="-1.459761557143668"><ele>710.0</ele><time>2026-04-29T15:23:15.001Z</time></trkpt><trkpt lat="42.93926879071961" lon="-1.4597955499600093"><ele>712.8333333333333</ele><time>2026-04-29T15:23:16.001Z</time></trkpt><trkpt lat="42.93935320816855" lon="-1.4598301908999567"><ele>715.6666666666666</ele><time>2026-04-29T15:23:17.001Z</time></trkpt><trkpt lat="42.939438911880785" lon="-1.4598606104357552"><ele>718.5</ele><time>2026-04-29T15:23:18.001Z</time></trkpt><trkpt lat="42.93952500421131" lon="-1.459885695229401"><ele>721.3333333333334</ele><time>2026-04-29T15:23:19.001Z</time></trkpt><trkpt lat="42.939606734477394" lon="-1.4599305225847166"><ele>724.1666666666667</ele><time>2026-04-29T15:23:20.001Z</time></trkpt><trkpt lat="42.93967328797101" lon="-1.460010854589647"><ele>727.0</ele><time>2026-04-29T15:23:21.001Z</time></trkpt><trkpt lat="42.9397227998458" lon="-1.4601146777355403"><ele>727.0</ele><time>2026-04-29T15:23:22.001Z</time></trkpt><trkpt lat="42.93974259526497" lon="-1.4602366488029646"><ele>727.0</ele><time>2026-04-29T15:23:23.001Z</time></trkpt><trkpt lat="42.939741888510724" lon="-1.4603581127728555"><ele>727.0</ele><time>2026-04-29T15:23:24.001Z</time></trkpt><trkpt lat="42.939735006026915" lon="-1.460476764401795"><ele>727.0</ele><time>2026-04-29T15:23:25.001Z</time></trkpt><trkpt lat="42.939743141763685" lon="-1.4605941401020712"><ele>727.0</ele><time>2026-04-29T15:23:26.001Z</time></trkpt><trkpt lat="42.939774198641956" lon="-1.4607058893014915"><ele>727.0</ele><time>2026-04-29T15:23:27.001Z</time></trkpt><trkpt lat="42.93981496031378" lon="-1.4608153429379065"><ele>726.6666666666667</ele><time>2026-04-29T15:23:28.001Z</time></trkpt><trkpt lat="42.939864270608886" lon="-1.4609151769420314"><ele>726.3333333333334</ele><time>2026-04-29T15:23:29.001Z</time></trkpt><trkpt lat="42.93992455016918" lon="-1.4610017262512134"><ele>726.0</ele><time>2026-04-29T15:23:30.001Z</time></trkpt><trkpt lat="42.9399950158541" lon="-1.461067494119644"><ele>725.6666666666666</ele><time>2026-04-29T15:23:31.001Z</time></trkpt><trkpt lat="42.940076051454675" lon="-1.4611145099113305"><ele>725.3333333333333</ele><time>2026-04-29T15:23:32.001Z</time></trkpt><trkpt lat="42.9401551652128" lon="-1.4611662903464373"><ele>725.0</ele><time>2026-04-29T15:23:33.001Z</time></trkpt><trkpt lat="42.940232981231865" lon="-1.4612208104167554"><ele>725.6666666666666</ele><time>2026-04-29T15:23:34.001Z</time></trkpt><trkpt lat="42.940314853508625" lon="-1.4612620813823085"><ele>726.3333333333333</ele><time>2026-04-29T15:23:35.001Z</time></trkpt><trkpt lat="42.940398940112125" lon="-1.461299950561075"><ele>727.0</ele><time>2026-04-29T15:23:36.001Z</time></trkpt><trkpt lat="42.94048303062168" lon="-1.4613317793600429"><ele>727.6666666666666</ele><time>2026-04-29T15:23:37.001Z</time></trkpt><trkpt lat="42.94056793681424" lon="-1.4613634402229354"><ele>728.3333333333334</ele><time>2026-04-29T15:23:38.001Z</time></trkpt><trkpt lat="42.9406526289229" lon="-1.4613907519755929"><ele>729.0</ele><time>2026-04-29T15:23:39.001Z</time></trkpt><trkpt lat="42.94074095438884" lon="-1.4614107628263726"><ele>729.0</ele><time>2026-04-29T15:23:40.001Z</time></trkpt><trkpt lat="42.940827849969864" lon="-1.4614323479609794"><ele>729.0</ele><time>2026-04-29T15:23:41.001Z</time></trkpt><trkpt lat="42.94091397568854" lon="-1.4614563866730157"><ele>729.0</ele><time>2026-04-29T15:23:42.001Z</time></trkpt><trkpt lat="42.9410007426668" lon="-1.461479078089349"><ele>729.0</ele><time>2026-04-29T15:23:43.001Z</time></trkpt><trkpt lat="42.94108831378175" lon="-1.4614976114952378"><ele>729.0</ele><time>2026-04-29T15:23:44.001Z</time></trkpt><trkpt lat="42.941175207416606" lon="-1.4615150899580893"><ele>729.0</ele><time>2026-04-29T15:23:45.001Z</time></trkpt><trkpt lat="42.941262491672596" lon="-1.4615301185592258"><ele>731.0</ele><time>2026-04-29T15:23:46.001Z</time></trkpt><trkpt lat="42.94135159136859" lon="-1.4615365557908326"><ele>733.0</ele><time>2026-04-29T15:23:47.001Z</time></trkpt><trkpt lat="42.941440403260465" lon="-1.4615435992906753"><ele>735.0</ele><time>2026-04-29T15:23:48.001Z</time></trkpt><trkpt lat="42.941530611172084" lon="-1.4615472536969132"><ele>737.0</ele><time>2026-04-29T15:23:49.001Z</time></trkpt><trkpt lat="42.94162068329129" lon="-1.4615508637467456"><ele>739.0</ele><time>2026-04-29T15:23:50.001Z</time></trkpt><trkpt lat="42.94171315465943" lon="-1.4615502287866877"><ele>740.8000000000001</ele><time>2026-04-29T15:23:51.001Z</time></trkpt><trkpt lat="42.94180345058612" lon="-1.4615530592310393"><ele>742.6</ele><time>2026-04-29T15:23:52.001Z</time></trkpt><trkpt lat="42.94189456701403" lon="-1.4615549873025095"><ele>744.4</ele><time>2026-04-29T15:23:53.002Z</time></trkpt><trkpt lat="42.941985444730804" lon="-1.461553617968785"><ele>746.2</ele><time>2026-04-29T15:23:54.002Z</time></trkpt><trkpt lat="42.942074204576734" lon="-1.461553209933666"><ele>748.0</ele><time>2026-04-29T15:23:55.002Z</time></trkpt><trkpt lat="42.94216358752831" lon="-1.461561666580138"><ele>748.0</ele><time>2026-04-29T15:23:56.002Z</time></trkpt><trkpt lat="42.94224968528856" lon="-1.4615997360892286"><ele>748.0</ele><time>2026-04-29T15:23:57.002Z</time></trkpt><trkpt lat="42.94232579656616" lon="-1.4616644319879248"><ele>748.0</ele><time>2026-04-29T15:23:58.002Z</time></trkpt><trkpt lat="42.9423792389937" lon="-1.4617697912866505"><ele>748.0</ele><time>2026-04-29T15:23:59.002Z</time></trkpt><trkpt lat="42.9423995302667" lon="-1.4618910841553165"><ele>748.0</ele><time>2026-04-29T15:24:00.002Z</time></trkpt><trkpt lat="42.94238090349633" lon="-1.4620133900412862"><ele>750.2</ele><time>2026-04-29T15:24:01.002Z</time></trkpt><trkpt lat="42.94232855055834" lon="-1.4621169843931754"><ele>752.4</ele><time>2026-04-29T15:24:02.002Z</time></trkpt><trkpt lat="42.94226370617868" lon="-1.4622051060134602"><ele>754.6</ele><time>2026-04-29T15:24:03.002Z</time></trkpt><trkpt lat="42.94219581895003" lon="-1.4622848287856356"><ele>756.8000000000001</ele><time>2026-04-29T15:24:04.002Z</time></trkpt><trkpt lat="42.942125754021745" lon="-1.462363201709681"><ele>759.0</ele><time>2026-04-29T15:24:05.002Z</time></trkpt><trkpt lat="42.942053688151894" lon="-1.4624405593991538"><ele>759.0</ele><time>2026-04-29T15:24:06.002Z</time></trkpt><trkpt lat="42.94198048790505" lon="-1.4625131920119003"><ele>759.0</ele><time>2026-04-29T15:24:07.002Z</time></trkpt><trkpt lat="42.94190277579376" lon="-1.4625776117796274"><ele>759.0</ele><time>2026-04-29T15:24:08.002Z</time></trkpt><trkpt lat="42.94182261222399" lon="-1.4626421999090615"><ele>759.0</ele><time>2026-04-29T15:24:09.002Z</time></trkpt><trkpt lat="42.941742297861595" lon="-1.4627081272214773"><ele>759.0</ele><time>2026-04-29T15:24:10.002Z</time></trkpt><trkpt lat="42.94166263325415" lon="-1.462773863261605"><ele>759.8000000000001</ele><time>2026-04-29T15:24:11.002Z</time></trkpt><trkpt lat="42.941584202193155" lon="-1.4628361791206745"><ele>760.6</ele><time>2026-04-29T15:24:12.002Z</time></trkpt><trkpt lat="42.94150661535486" lon="-1.4628977194714774"><ele>761.4</ele><time>2026-04-29T15:24:13.002Z</time></trkpt><trkpt lat="42.94142798219597" lon="-1.4629601507956769"><ele>762.2</ele><time>2026-04-29T15:24:14.002Z</time></trkpt><trkpt lat="42.94136237785688" lon="-1.4630444088915384"><ele>763.0</ele><time>2026-04-29T15:24:15.002Z</time></trkpt><trkpt lat="42.94128570954454" lon="-1.4631067058370437"><ele>763.0</ele><time>2026-04-29T15:24:16.002Z</time></trkpt><trkpt lat="42.94123038960834" lon="-1.4632043168220574"><ele>763.0</ele><time>2026-04-29T15:24:17.002Z</time></trkpt><trkpt lat="42.941189636828526" lon="-1.4633122886796603"><ele>763.0</ele><time>2026-04-29T15:24:18Z</time></trkpt><trkpt lat="42.94116808169487" lon="-1.4634293261797964"><ele>763.0</ele><time>2026-04-29T15:24:19Z</time></trkpt><trkpt lat="42.94116423487577" lon="-1.4635503535435084"><ele>763.0</ele><time>2026-04-29T15:24:20Z</time></trkpt><trkpt lat="42.94116804095874" lon="-1.463669315689574"><ele>763.0</ele><time>2026-04-29T15:24:21Z</time></trkpt><trkpt lat="42.94117756752456" lon="-1.463786758798139"><ele>762.3333333333334</ele><time>2026-04-29T15:24:22Z</time></trkpt><trkpt lat="42.94119724485463" lon="-1.4639037285480647"><ele>761.6666666666667</ele><time>2026-04-29T15:24:23Z</time></trkpt><trkpt lat="42.941232694194426" lon="-1.4640191917546816"><ele>761.0</ele><time>2026-04-29T15:24:24Z</time></trkpt><trkpt lat="42.94127616890541" lon="-1.4641261725645824"><ele>760.3333333333334</ele><time>2026-04-29T15:24:25Z</time></trkpt><trkpt lat="42.94132915085413" lon="-1.464225208061834"><ele>759.6666666666666</ele><time>2026-04-29T15:24:26Z</time></trkpt><trkpt lat="42.9413936685126" lon="-1.464307571052395"><ele>759.0</ele><time>2026-04-29T15:24:27Z</time></trkpt><trkpt lat="42.94146697360084" lon="-1.4643737719951453"><ele>759.0</ele><time>2026-04-29T15:24:28Z</time></trkpt><trkpt lat="42.941548270590154" lon="-1.4644230909994178"><ele>759.0</ele><time>2026-04-29T15:24:29Z</time></trkpt><trkpt lat="42.941632852815644" lon="-1.4644576862037706"><ele>759.0</ele><time>2026-04-29T15:24:30Z</time></trkpt><trkpt lat="42.94171896731686" lon="-1.4644880424497222"><ele>759.0</ele><time>2026-04-29T15:24:31Z</time></trkpt><trkpt lat="42.94180750406305" lon="-1.464516271207429"><ele>759.0</ele><time>2026-04-29T15:24:32Z</time></trkpt><trkpt lat="42.941895689400376" lon="-1.4645447247213834"><ele>759.0</ele><time>2026-04-29T15:24:33Z</time></trkpt><trkpt lat="42.9419843898946" lon="-1.4645705366284967"><ele>757.6666666666666</ele><time>2026-04-29T15:24:34Z</time></trkpt><trkpt lat="42.94207154441904" lon="-1.4645969354472674"><ele>756.3333333333334</ele><time>2026-04-29T15:24:35Z</time></trkpt><trkpt lat="42.942159261744585" lon="-1.4646204566001868"><ele>755.0</ele><time>2026-04-29T15:24:36Z</time></trkpt><trkpt lat="42.94224736012412" lon="-1.4646428698548368"><ele>753.6666666666667</ele><time>2026-04-29T15:24:37Z</time></trkpt><trkpt lat="42.94233394784707" lon="-1.464670175626541"><ele>752.3333333333334</ele><time>2026-04-29T15:24:38Z</time></trkpt><trkpt lat="42.942422003950185" lon="-1.464699246832463"><ele>751.0</ele><time>2026-04-29T15:24:39Z</time></trkpt><trkpt lat="42.94250969580411" lon="-1.4647269015246283"><ele>753.5999999999999</ele><time>2026-04-29T15:24:40Z</time></trkpt><trkpt lat="42.94259770801973" lon="-1.464756593665558"><ele>756.2</ele><time>2026-04-29T15:24:41Z</time></trkpt><trkpt lat="42.94268620453611" lon="-1.4647856666648156"><ele>758.8</ele><time>2026-04-29T15:24:42Z</time></trkpt><trkpt lat="42.94277497424709" lon="-1.4648123840661573"><ele>761.4000000000001</ele><time>2026-04-29T15:24:43Z</time></trkpt><trkpt lat="42.94286419347791" lon="-1.4648345821414637"><ele>764.0</ele><time>2026-04-29T15:24:44Z</time></trkpt><trkpt lat="42.94295320229677" lon="-1.464855931434432"><ele>764.0</ele><time>2026-04-29T15:24:45Z</time></trkpt><trkpt lat="42.94303959236898" lon="-1.4648859779268624"><ele>764.0</ele><time>2026-04-29T15:24:46Z</time></trkpt><trkpt lat="42.943127245195996" lon="-1.4649229702450175"><ele>764.0</ele><time>2026-04-29T15:24:47Z</time></trkpt><trkpt lat="42.943215856065144" lon="-1.4649548656588292"><ele>764.0</ele><time>2026-04-29T15:24:48.001Z</time></trkpt><trkpt lat="42.943304714102624" lon="-1.4649796889043254"><ele>764.0</ele><time>2026-04-29T15:24:49.001Z</time></trkpt><trkpt lat="42.943395079055314" lon="-1.4650032637950907"><ele>767.2</ele><time>2026-04-29T15:24:50.001Z</time></trkpt><trkpt lat="42.943484769483646" lon="-1.4650281905770977"><ele>770.4000000000001</ele><time>2026-04-29T15:24:51.001Z</time></trkpt><trkpt lat="42.94357240237706" lon="-1.4650529776816037"><ele>773.6</ele><time>2026-04-29T15:24:52.001Z</time></trkpt><trkpt lat="42.94366010960414" lon="-1.4650798505880307"><ele>776.8</ele><time>2026-04-29T15:24:53.001Z</time></trkpt><trkpt lat="42.94374692069037" lon="-1.4651083812841184"><ele>780.0</ele><time>2026-04-29T15:24:54.001Z</time></trkpt><trkpt lat="42.94383423187187" lon="-1.4651409969388323"><ele>780.0</ele><time>2026-04-29T15:24:55.001Z</time></trkpt><trkpt lat="42.94391817352334" lon="-1.4651759168439429"><ele>780.0</ele><time>2026-04-29T15:24:56.001Z</time></trkpt><trkpt lat="42.94399544143839" lon="-1.4652354221758424"><ele>780.0</ele><time>2026-04-29T15:24:57.001Z</time></trkpt><trkpt lat="42.94406563310263" lon="-1.4653176050698677"><ele>780.0</ele><time>2026-04-29T15:24:58.001Z</time></trkpt><trkpt lat="42.94412385132523" lon="-1.465415069380351"><ele>780.0</ele><time>2026-04-29T15:24:59.001Z</time></trkpt><trkpt lat="42.944162136350485" lon="-1.4655329565805493"><ele>779.0</ele><time>2026-04-29T15:25:00.001Z</time></trkpt><trkpt lat="42.94418074041352" lon="-1.4656579918438395"><ele>778.0</ele><time>2026-04-29T15:25:01.001Z</time></trkpt><trkpt lat="42.94417956884218" lon="-1.465786467137233"><ele>777.0</ele><time>2026-04-29T15:25:02.001Z</time></trkpt><trkpt lat="42.94415560461804" lon="-1.4659146876391127"><ele>776.0</ele><time>2026-04-29T15:25:03.001Z</time></trkpt><trkpt lat="42.94411364092942" lon="-1.4660331947656149"><ele>775.0</ele><time>2026-04-29T15:25:04.001Z</time></trkpt><trkpt lat="42.94407020222675" lon="-1.4661495004982161"><ele>775.0</ele><time>2026-04-29T15:25:05.001Z</time></trkpt><trkpt lat="42.944045894185095" lon="-1.466273888722964"><ele>775.0</ele><time>2026-04-29T15:25:06.001Z</time></trkpt><trkpt lat="42.9440431009479" lon="-1.4664044176829154"><ele>775.0</ele><time>2026-04-29T15:25:07.001Z</time></trkpt><trkpt lat="42.94406623216682" lon="-1.4665341149026663"><ele>775.0</ele><time>2026-04-29T15:25:08.001Z</time></trkpt><trkpt lat="42.944110116479145" lon="-1.4666480394331927"><ele>775.0</ele><time>2026-04-29T15:25:09.001Z</time></trkpt><trkpt lat="42.944167595689585" lon="-1.4667428843405765"><ele>779.1666666666666</ele><time>2026-04-29T15:25:10.001Z</time></trkpt><trkpt lat="42.94423526183968" lon="-1.4668243233504874"><ele>783.3333333333333</ele><time>2026-04-29T15:25:11.001Z</time></trkpt><trkpt lat="42.94430610626983" lon="-1.4668996983824611"><ele>787.5</ele><time>2026-04-29T15:25:12.001Z</time></trkpt><trkpt lat="42.944370054715954" lon="-1.466982225274199"><ele>791.6666666666667</ele><time>2026-04-29T15:25:13.001Z</time></trkpt><trkpt lat="42.94442218343457" lon="-1.4670818262441254"><ele>795.8333333333334</ele><time>2026-04-29T15:25:14.001Z</time></trkpt><trkpt lat="42.94446019242036" lon="-1.467194087902644"><ele>800.0</ele><time>2026-04-29T15:25:15.001Z</time></trkpt><trkpt lat="42.94447853303565" lon="-1.4673168252996187"><ele>800.0</ele><time>2026-04-29T15:25:16.001Z</time></trkpt><trkpt lat="42.94446858821372" lon="-1.467444321272932"><ele>800.0</ele><time>2026-04-29T15:25:17.001Z</time></trkpt><trkpt lat="42.944431921791626" lon="-1.4675595029497768"><ele>800.0</ele><time>2026-04-29T15:25:18.001Z</time></trkpt><trkpt lat="42.944376284116295" lon="-1.4676584306525975"><ele>800.0</ele><time>2026-04-29T15:25:19.001Z</time></trkpt><trkpt lat="42.94430838091399" lon="-1.4677391012457857"><ele>800.0</ele><time>2026-04-29T15:25:20.001Z</time></trkpt><trkpt lat="42.94423482274182" lon="-1.4678099227653412"><ele>799.6666666666667</ele><time>2026-04-29T15:25:21.001Z</time></trkpt><trkpt lat="42.94415908971455" lon="-1.4678727811166008"><ele>799.3333333333334</ele><time>2026-04-29T15:25:22.001Z</time></trkpt><trkpt lat="42.94408494453511" lon="-1.4679361910124709"><ele>799.0</ele><time>2026-04-29T15:25:23.001Z</time></trkpt><trkpt lat="42.944013767950885" lon="-1.4680026765561724"><ele>798.6666666666667</ele><time>2026-04-29T15:25:24.001Z</time></trkpt><trkpt lat="42.943943914094085" lon="-1.468068461673552"><ele>798.3333333333334</ele><time>2026-04-29T15:25:25.001Z</time></trkpt><trkpt lat="42.94387272454086" lon="-1.4681339547547707"><ele>798.0</ele><time>2026-04-29T15:25:26.001Z</time></trkpt><trkpt lat="42.94380058439871" lon="-1.468196772573105"><ele>798.0</ele><time>2026-04-29T15:25:27.001Z</time></trkpt><trkpt lat="42.9437285098065" lon="-1.468258323876234"><ele>798.0</ele><time>2026-04-29T15:25:28.001Z</time></trkpt><trkpt lat="42.94365370993442" lon="-1.4683192367328073"><ele>798.0</ele><time>2026-04-29T15:25:29.001Z</time></trkpt><trkpt lat="42.94357781739651" lon="-1.468375357814834"><ele>798.0</ele><time>2026-04-29T15:25:30.001Z</time></trkpt><trkpt lat="42.94349842701037" lon="-1.4684251655712734"><ele>798.0</ele><time>2026-04-29T15:25:31.001Z</time></trkpt><trkpt lat="42.94341423994792" lon="-1.4684631640382284"><ele>798.0</ele><time>2026-04-29T15:25:32.001Z</time></trkpt><trkpt lat="42.94332711348858" lon="-1.468487997058817"><ele>795.8</ele><time>2026-04-29T15:25:33.001Z</time></trkpt><trkpt lat="42.943240813656814" lon="-1.468530844742516"><ele>793.5999999999999</ele><time>2026-04-29T15:25:34.001Z</time></trkpt><trkpt lat="42.943150589032825" lon="-1.468541997857878"><ele>791.4000000000001</ele><time>2026-04-29T15:25:35.001Z</time></trkpt><trkpt lat="42.9430611221284" lon="-1.4685126794646326"><ele>789.2</ele><time>2026-04-29T15:25:36.001Z</time></trkpt><trkpt lat="42.94297347380257" lon="-1.468501890749554"><ele>787.0</ele><time>2026-04-29T15:25:37.001Z</time></trkpt><trkpt lat="42.94288575527044" lon="-1.4684791060700357"><ele>786.9999999999999</ele><time>2026-04-29T15:25:38.001Z</time></trkpt><trkpt lat="42.94280161039518" lon="-1.4684416155774929"><ele>787.0</ele><time>2026-04-29T15:25:39.001Z</time></trkpt><trkpt lat="42.94271957901523" lon="-1.4684001639453172"><ele>787.0</ele><time>2026-04-29T15:25:40.001Z</time></trkpt><trkpt lat="42.94263426127477" lon="-1.468365125732235"><ele>787.0</ele><time>2026-04-29T15:25:41.001Z</time></trkpt><trkpt lat="42.94254656750325" lon="-1.4683305600262782"><ele>786.9999999999999</ele><time>2026-04-29T15:25:42.001Z</time></trkpt><trkpt lat="42.94245824835819" lon="-1.4683005261267523"><ele>787.0</ele><time>2026-04-29T15:25:43.001Z</time></trkpt><trkpt lat="42.94236850296554" lon="-1.4682814901196755"><ele>787.8</ele><time>2026-04-29T15:25:44.001Z</time></trkpt><trkpt lat="42.94227679773207" lon="-1.4682797385312216"><ele>788.6</ele><time>2026-04-29T15:25:45.001Z</time></trkpt><trkpt lat="42.94218731978006" lon="-1.4682974821869472"><ele>789.4</ele><time>2026-04-29T15:25:46.001Z</time></trkpt><trkpt lat="42.9421000425637" lon="-1.4683339628135839"><ele>790.1999999999999</ele><time>2026-04-29T15:25:47.001Z</time></trkpt><trkpt lat="42.94202675881977" lon="-1.4684033438231778"><ele>791.0</ele><time>2026-04-29T15:25:48.001Z</time></trkpt><trkpt lat="42.94196765266114" lon="-1.4684943616179589"><ele>791.0000000000001</ele><time>2026-04-29T15:25:49.001Z</time></trkpt><trkpt lat="42.941929201916615" lon="-1.4686018739393716"><ele>791.0</ele><time>2026-04-29T15:25:50.001Z</time></trkpt><trkpt lat="42.94192027821981" lon="-1.4687215701793692"><ele>791.0</ele><time>2026-04-29T15:25:51.001Z</time></trkpt><trkpt lat="42.94192692783309" lon="-1.468837600574139"><ele>791.0</ele><time>2026-04-29T15:25:52.001Z</time></trkpt><trkpt lat="42.941933131095404" lon="-1.4689521936820824"><ele>791.0000000000001</ele><time>2026-04-29T15:25:53.001Z</time></trkpt><trkpt lat="42.9419292664867" lon="-1.4690651107982742"><ele>791.0</ele><time>2026-04-29T15:25:54.001Z</time></trkpt><trkpt lat="42.941917806297326" lon="-1.4691789702966873"><ele>793.8333333333334</ele><time>2026-04-29T15:25:55.001Z</time></trkpt><trkpt lat="42.941907182145265" lon="-1.4692944827971628"><ele>796.6666666666667</ele><time>2026-04-29T15:25:56.001Z</time></trkpt><trkpt lat="42.94189625451849" lon="-1.46940806621787"><ele>799.5</ele><time>2026-04-29T15:25:57.001Z</time></trkpt><trkpt lat="42.941880410771255" lon="-1.469521723065655"><ele>802.3333333333333</ele><time>2026-04-29T15:25:58.001Z</time></trkpt><trkpt lat="42.94185394953256" lon="-1.4696344426097325"><ele>805.1666666666666</ele><time>2026-04-29T15:25:59.001Z</time></trkpt><trkpt lat="42.941823019355816" lon="-1.4697445095019315"><ele>808.0</ele><time>2026-04-29T15:26:00.001Z</time></trkpt><trkpt lat="42.94178624453757" lon="-1.4698549964323717"><ele>808.6666666666666</ele><time>2026-04-29T15:26:01.002Z</time></trkpt><trkpt lat="42.94174557174614" lon="-1.4699654975693175"><ele>809.3333333333333</ele><time>2026-04-29T15:26:02.002Z</time></trkpt><trkpt lat="42.94170621776087" lon="-1.470076554002048"><ele>810.0</ele><time>2026-04-29T15:26:03.002Z</time></trkpt><trkpt lat="42.94166776537196" lon="-1.4701856734802923"><ele>810.6666666666667</ele><time>2026-04-29T15:26:04.002Z</time></trkpt><trkpt lat="42.94163663814235" lon="-1.470287097160779"><ele>811.3333333333334</ele><time>2026-04-29T15:26:05.002Z</time></trkpt><trkpt lat="42.94161675954208" lon="-1.4703825919877143"><ele>812.0</ele><time>2026-04-29T15:26:06.002Z</time></trkpt><trkpt lat="42.94160266317466" lon="-1.4704806276600761"><ele>809.8</ele><time>2026-04-29T15:26:07.002Z</time></trkpt><trkpt lat="42.94161187478402" lon="-1.4705918015012545"><ele>807.6</ele><time>2026-04-29T15:26:08.002Z</time></trkpt><trkpt lat="42.941649885808204" lon="-1.47070300583895"><ele>805.4</ele><time>2026-04-29T15:26:09.002Z</time></trkpt><trkpt lat="42.941731155015106" lon="-1.4707834520126764"><ele>803.1999999999999</ele><time>2026-04-29T15:26:10.002Z</time></trkpt><trkpt lat="42.94182854408433" lon="-1.4708124391431474"><ele>801.0</ele><time>2026-04-29T15:26:11.002Z</time></trkpt><trkpt lat="42.941915635514846" lon="-1.4708218346984259"><ele>800.8333333333334</ele><time>2026-04-29T15:26:12.002Z</time></trkpt><trkpt lat="42.94198730937629" lon="-1.47083455489303"><ele>800.6666666666667</ele><time>2026-04-29T15:26:13.002Z</time></trkpt><trkpt lat="42.94210060761885" lon="-1.4708481093918333"><ele>800.5</ele><time>2026-04-29T15:26:15.002Z</time></trkpt><trkpt lat="42.9421966613314" lon="-1.4708483980169624"><ele>800.3333333333334</ele><time>2026-04-29T15:26:17.002Z</time></trkpt><trkpt lat="42.942262224850175" lon="-1.470845411942664"><ele>800.1666666666667</ele><time>2026-04-29T15:26:20.002Z</time></trkpt><trkpt lat="42.94220295833681" lon="-1.470895225615159"><ele>800.0</ele><time>2026-04-29T15:26:30.001Z</time></trkpt><trkpt lat="42.9421144934735" lon="-1.4709042901839426"><ele>800.0</ele><time>2026-04-29T15:26:32.001Z</time></trkpt><trkpt lat="42.942011814239436" lon="-1.4708683481856237"><ele>800.0</ele><time>2026-04-29T15:26:34.001Z</time></trkpt><trkpt lat="42.94188903824211" lon="-1.4708410548012845"><ele>800.0</ele><time>2026-04-29T15:26:36Z</time></trkpt><trkpt lat="42.94182314093397" lon="-1.4708261457225502"><ele>800.0</ele><time>2026-04-29T15:26:37Z</time></trkpt><trkpt lat="42.94170620062513" lon="-1.4708147539187393"><ele>800.0</ele><time>2026-04-29T15:26:39Z</time></trkpt><trkpt lat="42.94162791023305" lon="-1.4707298915340639"><ele>800.0</ele><time>2026-04-29T15:26:41Z</time></trkpt><trkpt lat="42.94157176335815" lon="-1.4706344352285978"><ele>800.0</ele><time>2026-04-29T15:26:43Z</time></trkpt><trkpt lat="42.94164681732443" lon="-1.470693000877625"><ele>800.0</ele><time>2026-04-29T15:35:17Z</time></trkpt><trkpt lat="42.94170883041518" lon="-1.4707451538218592"><ele>800.0</ele><time>2026-04-29T15:35:20Z</time></trkpt><trkpt lat="42.94178872261474" lon="-1.4708097636508102"><ele>800.0</ele><time>2026-04-29T15:35:22Z</time></trkpt><trkpt lat="42.94189995427658" lon="-1.4708309723154895"><ele>800.0000000000001</ele><time>2026-04-29T15:35:24Z</time></trkpt><trkpt lat="42.941963865625155" lon="-1.470844890329625"><ele>800.0</ele><time>2026-04-29T15:35:25Z</time></trkpt><trkpt lat="42.94202877720047" lon="-1.4708500747112272"><ele>800.0</ele><time>2026-04-29T15:35:26Z</time></trkpt><trkpt lat="42.94209694954036" lon="-1.4708532534460474"><ele>800.0</ele><time>2026-04-29T15:35:27Z</time></trkpt><trkpt lat="42.942168891470466" lon="-1.4708557766991424"><ele>800.0</ele><time>2026-04-29T15:35:28Z</time></trkpt><trkpt lat="42.94224131928047" lon="-1.4708593220322514"><ele>800.0000000000001</ele><time>2026-04-29T15:35:29Z</time></trkpt><trkpt lat="42.942312904873496" lon="-1.4708622862280043"><ele>800.0</ele><time>2026-04-29T15:35:30Z</time></trkpt><trkpt lat="42.942387818110795" lon="-1.4708627255813158"><ele>800.0000000000001</ele><time>2026-04-29T15:35:31Z</time></trkpt><trkpt lat="42.94246522756319" lon="-1.470856121749764"><ele>800.0</ele><time>2026-04-29T15:35:32Z</time></trkpt><trkpt lat="42.94254072564563" lon="-1.4708467424886802"><ele>800.0</ele><time>2026-04-29T15:35:33Z</time></trkpt><trkpt lat="42.942620099742726" lon="-1.4708331234125511"><ele>800.0</ele><time>2026-04-29T15:35:34Z</time></trkpt><trkpt lat="42.94270127689605" lon="-1.4708083267181375"><ele>800.0000000000001</ele><time>2026-04-29T15:35:35Z</time></trkpt><trkpt lat="42.94278292720994" lon="-1.4707886072230731"><ele>800.0</ele><time>2026-04-29T15:35:36Z</time></trkpt><trkpt lat="42.94287136025344" lon="-1.4707598269557622"><ele>798.4</ele><time>2026-04-29T15:35:37Z</time></trkpt><trkpt lat="42.9429614568067" lon="-1.4707299911682288"><ele>796.8</ele><time>2026-04-29T15:35:38Z</time></trkpt><trkpt lat="42.94305167416927" lon="-1.4707003237836562"><ele>795.2</ele><time>2026-04-29T15:35:39Z</time></trkpt><trkpt lat="42.943142979164826" lon="-1.4706692360563511"><ele>793.6</ele><time>2026-04-29T15:35:40Z</time></trkpt><trkpt lat="42.94323825039369" lon="-1.470638931743434"><ele>792.0</ele><time>2026-04-29T15:35:41Z</time></trkpt><trkpt lat="42.94333928255634" lon="-1.470618870517142"><ele>792.4000000000001</ele><time>2026-04-29T15:35:42Z</time></trkpt><trkpt lat="42.94343962061936" lon="-1.470616092676658"><ele>792.8000000000001</ele><time>2026-04-29T15:35:43Z</time></trkpt><trkpt lat="42.94353507954218" lon="-1.470627467195067"><ele>793.2</ele><time>2026-04-29T15:35:44Z</time></trkpt><trkpt lat="42.94363568307702" lon="-1.4706454933910216"><ele>793.6</ele><time>2026-04-29T15:35:45Z</time></trkpt><trkpt lat="42.943733147891535" lon="-1.4706811350124467"><ele>794.0</ele><time>2026-04-29T15:35:46Z</time></trkpt><trkpt lat="42.943834214692906" lon="-1.4707263221470273"><ele>794.0</ele><time>2026-04-29T15:35:47Z</time></trkpt><trkpt lat="42.94393214851883" lon="-1.4707766149484647"><ele>794.0</ele><time>2026-04-29T15:35:48Z</time></trkpt><trkpt lat="42.9440216909737" lon="-1.470839490984135"><ele>794.0</ele><time>2026-04-29T15:35:49Z</time></trkpt><trkpt lat="42.94411870474524" lon="-1.4709045199975586"><ele>794.0</ele><time>2026-04-29T15:35:50Z</time></trkpt><trkpt lat="42.94421573324725" lon="-1.4709661898473043"><ele>794.0</ele><time>2026-04-29T15:35:51Z</time></trkpt><trkpt lat="42.94430987240219" lon="-1.471004716237266"><ele>791.6</ele><time>2026-04-29T15:35:52Z</time></trkpt><trkpt lat="42.944403283531884" lon="-1.4710365208862148"><ele>789.2</ele><time>2026-04-29T15:35:53Z</time></trkpt><trkpt lat="42.94450291724648" lon="-1.4710383640740128"><ele>786.8000000000001</ele><time>2026-04-29T15:35:54Z</time></trkpt><trkpt lat="42.94460301539992" lon="-1.4709983814100038"><ele>784.4000000000001</ele><time>2026-04-29T15:35:55Z</time></trkpt><trkpt lat="42.94469498978518" lon="-1.4709131304283092"><ele>782.0</ele><time>2026-04-29T15:35:56Z</time></trkpt><trkpt lat="42.94476196142143" lon="-1.4707872130935473"><ele>782.0</ele><time>2026-04-29T15:35:57.001Z</time></trkpt><trkpt lat="42.94482649157005" lon="-1.4706739440049765"><ele>782.0</ele><time>2026-04-29T15:35:58.001Z</time></trkpt><trkpt lat="42.94488837203095" lon="-1.4705556762904568"><ele>782.0</ele><time>2026-04-29T15:35:59.001Z</time></trkpt><trkpt lat="42.94496229196331" lon="-1.4704452141584987"><ele>782.0</ele><time>2026-04-29T15:36:00.001Z</time></trkpt><trkpt lat="42.945041428678714" lon="-1.470340494563673"><ele>782.0</ele><time>2026-04-29T15:36:01.001Z</time></trkpt><trkpt lat="42.94512269746131" lon="-1.470241165536083"><ele>782.2</ele><time>2026-04-29T15:36:02.001Z</time></trkpt><trkpt lat="42.945202452831516" lon="-1.4701480746062452"><ele>782.4000000000001</ele><time>2026-04-29T15:36:03.001Z</time></trkpt><trkpt lat="42.94529082409859" lon="-1.4700634643734876"><ele>782.5999999999999</ele><time>2026-04-29T15:36:04.001Z</time></trkpt><trkpt lat="42.94538889533924" lon="-1.469992992436052"><ele>782.8</ele><time>2026-04-29T15:36:05.001Z</time></trkpt><trkpt lat="42.94549133174977" lon="-1.469948248435534"><ele>783.0</ele><time>2026-04-29T15:36:06.001Z</time></trkpt><trkpt lat="42.94560159817513" lon="-1.469925918451337"><ele>783.0</ele><time>2026-04-29T15:36:07.001Z</time></trkpt><trkpt lat="42.9457165190848" lon="-1.4699351921841133"><ele>783.0</ele><time>2026-04-29T15:36:08.001Z</time></trkpt><trkpt lat="42.94582832965555" lon="-1.469971019105147"><ele>783.0</ele><time>2026-04-29T15:36:09.001Z</time></trkpt><trkpt lat="42.94593456641737" lon="-1.4700262661842822"><ele>783.0</ele><time>2026-04-29T15:36:10.001Z</time></trkpt><trkpt lat="42.94604149283416" lon="-1.4700537668665246"><ele>781.5</ele><time>2026-04-29T15:36:11.001Z</time></trkpt><trkpt lat="42.94615379733948" lon="-1.4700653324577075"><ele>780.0</ele><time>2026-04-29T15:36:12.001Z</time></trkpt><trkpt lat="42.9462674528229" lon="-1.4700646337654228"><ele>778.5</ele><time>2026-04-29T15:36:13.001Z</time></trkpt><trkpt lat="42.94638099948029" lon="-1.4700422165486575"><ele>777.0</ele><time>2026-04-29T15:36:14.001Z</time></trkpt><trkpt lat="42.946490531820245" lon="-1.4699919470600207"><ele>777.0</ele><time>2026-04-29T15:36:15.001Z</time></trkpt><trkpt lat="42.94659364283079" lon="-1.4699206379199254"><ele>777.0</ele><time>2026-04-29T15:36:16.001Z</time></trkpt><trkpt lat="42.94669760999553" lon="-1.4698478010377847"><ele>777.0</ele><time>2026-04-29T15:36:17.001Z</time></trkpt><trkpt lat="42.946801973643" lon="-1.4697795816455297"><ele>777.0</ele><time>2026-04-29T15:36:18.001Z</time></trkpt><trkpt lat="42.9469057668118" lon="-1.4697214460766954"><ele>776.0</ele><time>2026-04-29T15:36:19.001Z</time></trkpt><trkpt lat="42.947011618852535" lon="-1.4696680483791082"><ele>775.0</ele><time>2026-04-29T15:36:20.001Z</time></trkpt><trkpt lat="42.947117486581085" lon="-1.4696162912186819"><ele>774.0</ele><time>2026-04-29T15:36:21.001Z</time></trkpt><trkpt lat="42.94722555177621" lon="-1.4695766788913347"><ele>773.0</ele><time>2026-04-29T15:36:22.001Z</time></trkpt><trkpt lat="42.947331986577396" lon="-1.4695729382203278"><ele>772.0</ele><time>2026-04-29T15:36:23.001Z</time></trkpt><trkpt lat="42.94743933323099" lon="-1.4696120196155287"><ele>772.0</ele><time>2026-04-29T15:36:24.001Z</time></trkpt><trkpt lat="42.947525547184505" lon="-1.4696988573818324"><ele>772.0</ele><time>2026-04-29T15:36:25.001Z</time></trkpt><trkpt lat="42.947593145346" lon="-1.469818201982774"><ele>772.0</ele><time>2026-04-29T15:36:26.001Z</time></trkpt><trkpt lat="42.94763558146081" lon="-1.4699580095392266"><ele>772.0</ele><time>2026-04-29T15:36:27.001Z</time></trkpt><trkpt lat="42.947662141771644" lon="-1.4701055505254077"><ele>772.0</ele><time>2026-04-29T15:36:28.001Z</time></trkpt><trkpt lat="42.94767265488861" lon="-1.470262045567164"><ele>779.25</ele><time>2026-04-29T15:36:29.001Z</time></trkpt><trkpt lat="42.947667122804965" lon="-1.470417771520116"><ele>786.5</ele><time>2026-04-29T15:36:30.001Z</time></trkpt><trkpt lat="42.947650639501624" lon="-1.4705705297345895"><ele>793.75</ele><time>2026-04-29T15:36:31.001Z</time></trkpt><trkpt lat="42.94762517557336" lon="-1.470720476964251"><ele>801.0</ele><time>2026-04-29T15:36:32.001Z</time></trkpt><trkpt lat="42.947597023689355" lon="-1.4708719363606553"><ele>801.0</ele><time>2026-04-29T15:36:33.001Z</time></trkpt><trkpt lat="42.9475840727972" lon="-1.471036019858251"><ele>801.0</ele><time>2026-04-29T15:36:34.001Z</time></trkpt><trkpt lat="42.94756950402058" lon="-1.4711930768275754"><ele>801.0</ele><time>2026-04-29T15:36:35.001Z</time></trkpt><trkpt lat="42.94754875252858" lon="-1.4713486842202195"><ele>801.0</ele><time>2026-04-29T15:36:36.001Z</time></trkpt><trkpt lat="42.947516356281035" lon="-1.471499174207065"><ele>793.5</ele><time>2026-04-29T15:36:37.001Z</time></trkpt><trkpt lat="42.947477043421756" lon="-1.4716466176845424"><ele>786.0</ele><time>2026-04-29T15:36:38.001Z</time></trkpt><trkpt lat="42.947435867768256" lon="-1.471796196806641"><ele>778.5</ele><time>2026-04-29T15:36:39.001Z</time></trkpt><trkpt lat="42.947392900940244" lon="-1.471939453732407"><ele>771.0</ele><time>2026-04-29T15:36:40.001Z</time></trkpt><trkpt lat="42.94734690543508" lon="-1.47208324215853"><ele>773.0</ele><time>2026-04-29T15:36:41.001Z</time></trkpt><trkpt lat="42.94730109983575" lon="-1.4722265617100474"><ele>775.0</ele><time>2026-04-29T15:36:42.001Z</time></trkpt><trkpt lat="42.947248096858" lon="-1.4723639779093305"><ele>777.0</ele><time>2026-04-29T15:36:43.001Z</time></trkpt><trkpt lat="42.94718125372119" lon="-1.4724922593238465"><ele>779.0</ele><time>2026-04-29T15:36:44.001Z</time></trkpt><trkpt lat="42.947094153142885" lon="-1.4726013857958777"><ele>779.0</ele><time>2026-04-29T15:36:45.001Z</time></trkpt><trkpt lat="42.947007741501565" lon="-1.4727083689616054"><ele>779.0</ele><time>2026-04-29T15:36:46.001Z</time></trkpt><trkpt lat="42.94694722302616" lon="-1.4728395827038674"><ele>779.0</ele><time>2026-04-29T15:36:47.001Z</time></trkpt><trkpt lat="42.946938232436715" lon="-1.4729522689923897"><ele>779.0</ele><time>2026-04-29T15:36:48.001Z</time></trkpt><trkpt lat="42.94698555684155" lon="-1.4730771203105246"><ele>779.0</ele><time>2026-04-29T15:36:49.001Z</time></trkpt><trkpt lat="42.94703720291068" lon="-1.4732729631315573"><ele>779.5</ele><time>2026-04-29T15:36:50.001Z</time></trkpt><trkpt lat="42.9470966117439" lon="-1.4734751455018782"><ele>780.0</ele><time>2026-04-29T15:36:51.001Z</time></trkpt><trkpt lat="42.94712894351731" lon="-1.4736679444847394"><ele>780.5</ele><time>2026-04-29T15:36:52.001Z</time></trkpt><trkpt lat="42.9471336025196" lon="-1.4738505970165334"><ele>781.0</ele><time>2026-04-29T15:36:53.001Z</time></trkpt><trkpt lat="42.94706401997576" lon="-1.4739930156103576"><ele>781.0</ele><time>2026-04-29T15:36:53.999Z</time></trkpt><trkpt lat="42.94700407349635" lon="-1.4740987514607915"><ele>781.0</ele><time>2026-04-29T15:36:54.999Z</time></trkpt><trkpt lat="42.946939235831614" lon="-1.4742110356119449"><ele>781.0</ele><time>2026-04-29T15:36:55.999Z</time></trkpt><trkpt lat="42.94683878896715" lon="-1.4743440166014912"><ele>781.0</ele><time>2026-04-29T15:36:56.999Z</time></trkpt><trkpt lat="42.946754600427674" lon="-1.4744514452884934"><ele>774.5999999999999</ele><time>2026-04-29T15:36:57.999Z</time></trkpt><trkpt lat="42.94667777017531" lon="-1.4745556503773136"><ele>768.2</ele><time>2026-04-29T15:36:58.999Z</time></trkpt><trkpt lat="42.946596316844364" lon="-1.4746572246107872"><ele>761.8</ele><time>2026-04-29T15:36:59.999Z</time></trkpt><trkpt lat="42.94652564783783" lon="-1.474777549803683"><ele>755.4000000000001</ele><time>2026-04-29T15:37:00.999Z</time></trkpt><trkpt lat="42.94649743223857" lon="-1.4749327309505593"><ele>749.0</ele><time>2026-04-29T15:37:01.999Z</time></trkpt><trkpt lat="42.94652074602297" lon="-1.4750876505219026"><ele>749.0</ele><time>2026-04-29T15:37:02.999Z</time></trkpt><trkpt lat="42.946569976958905" lon="-1.4752214835672919"><ele>749.0</ele><time>2026-04-29T15:37:03.999Z</time></trkpt><trkpt lat="42.94661117554156" lon="-1.475359546861725"><ele>749.0</ele><time>2026-04-29T15:37:05Z</time></trkpt><trkpt lat="42.946622902510306" lon="-1.4755108746760142"><ele>749.0</ele><time>2026-04-29T15:37:06Z</time></trkpt><trkpt lat="42.9466020739393" lon="-1.4756641088616307"><ele>749.0</ele><time>2026-04-29T15:37:07Z</time></trkpt><trkpt lat="42.9465625597038" lon="-1.475809092508301"><ele>748.75</ele><time>2026-04-29T15:37:08Z</time></trkpt><trkpt lat="42.94649834706071" lon="-1.4759397547558566"><ele>748.5</ele><time>2026-04-29T15:37:09Z</time></trkpt><trkpt lat="42.94641119923866" lon="-1.4760479482132878"><ele>748.25</ele><time>2026-04-29T15:37:10Z</time></trkpt><trkpt lat="42.946319549524624" lon="-1.47615395487315"><ele>748.0</ele><time>2026-04-29T15:37:11Z</time></trkpt><trkpt lat="42.946219073891655" lon="-1.476248521723223"><ele>751.0</ele><time>2026-04-29T15:37:12Z</time></trkpt><trkpt lat="42.94611607238921" lon="-1.476331648114754"><ele>754.0</ele><time>2026-04-29T15:37:13Z</time></trkpt><trkpt lat="42.946013635784894" lon="-1.47640870279626"><ele>757.0</ele><time>2026-04-29T15:37:14Z</time></trkpt><trkpt lat="42.9459150017757" lon="-1.476489304476118"><ele>760.0</ele><time>2026-04-29T15:37:15Z</time></trkpt><trkpt lat="42.94583702111637" lon="-1.4766020264518116"><ele>751.25</ele><time>2026-04-29T15:37:16Z</time></trkpt><trkpt lat="42.94578860095295" lon="-1.4767535072490314"><ele>742.5</ele><time>2026-04-29T15:37:17Z</time></trkpt><trkpt lat="42.945780816268844" lon="-1.476920870144338"><ele>733.75</ele><time>2026-04-29T15:37:18Z</time></trkpt><trkpt lat="42.945792673826986" lon="-1.4770833994102712"><ele>725.0</ele><time>2026-04-29T15:37:19Z</time></trkpt><trkpt lat="42.945798720103575" lon="-1.4772381303910211"><ele>725.0</ele><time>2026-04-29T15:37:20Z</time></trkpt><trkpt lat="42.94580320904016" lon="-1.4773916760348014"><ele>725.0</ele><time>2026-04-29T15:37:21Z</time></trkpt><trkpt lat="42.94581849239878" lon="-1.4775493106069606"><ele>725.0</ele><time>2026-04-29T15:37:22Z</time></trkpt><trkpt lat="42.94585905420594" lon="-1.4777031790956336"><ele>725.0</ele><time>2026-04-29T15:37:23Z</time></trkpt><trkpt lat="42.94593522264556" lon="-1.4778319905168613"><ele>723.0</ele><time>2026-04-29T15:37:24Z</time></trkpt><trkpt lat="42.94603683910803" lon="-1.477925443462404"><ele>721.0</ele><time>2026-04-29T15:37:25Z</time></trkpt><trkpt lat="42.94614381388766" lon="-1.4779884273632093"><ele>719.0</ele><time>2026-04-29T15:37:26Z</time></trkpt><trkpt lat="42.94625547382362" lon="-1.4780248572675527"><ele>717.0</ele><time>2026-04-29T15:37:27Z</time></trkpt><trkpt lat="42.946369933424954" lon="-1.4780241966132754"><ele>717.0</ele><time>2026-04-29T15:37:28Z</time></trkpt><trkpt lat="42.94647407686675" lon="-1.478024970032203"><ele>717.0</ele><time>2026-04-29T15:37:29Z</time></trkpt><trkpt lat="42.94656401400221" lon="-1.4780632368623798"><ele>717.0</ele><time>2026-04-29T15:37:30Z</time></trkpt><trkpt lat="42.94661433230641" lon="-1.4781536038592853"><ele>717.0</ele><time>2026-04-29T15:37:31Z</time></trkpt><trkpt lat="42.94661978560056" lon="-1.4782705964606626"><ele>717.0</ele><time>2026-04-29T15:37:32Z</time></trkpt><trkpt lat="42.94657691482865" lon="-1.478363790524135"><ele>717.0</ele><time>2026-04-29T15:37:33Z</time></trkpt><trkpt lat="42.94650529199786" lon="-1.4784173691766593"><ele>717.0</ele><time>2026-04-29T15:37:34Z</time></trkpt><trkpt lat="42.94641732885182" lon="-1.478430576235364"><ele>717.0</ele><time>2026-04-29T15:37:35Z</time></trkpt><trkpt lat="42.94632940134105" lon="-1.4784007364301166"><ele>717.0</ele><time>2026-04-29T15:37:36Z</time></trkpt><trkpt lat="42.9462446890349" lon="-1.478349341879039"><ele>717.0</ele><time>2026-04-29T15:37:37Z</time></trkpt><trkpt lat="42.946164210148474" lon="-1.4782830377930505"><ele>717.0</ele><time>2026-04-29T15:37:38Z</time></trkpt><trkpt lat="42.94607921239934" lon="-1.4782054486352316"><ele>717.0</ele><time>2026-04-29T15:37:39Z</time></trkpt><trkpt lat="42.945996746279434" lon="-1.4781344255826294"><ele>717.0</ele><time>2026-04-29T15:37:40Z</time></trkpt><trkpt lat="42.94590284176911" lon="-1.4780768506474988"><ele>717.0</ele><time>2026-04-29T15:37:41Z</time></trkpt><trkpt lat="42.94581205199925" lon="-1.4780104425340725"><ele>717.0</ele><time>2026-04-29T15:37:42Z</time></trkpt><trkpt lat="42.945726142356854" lon="-1.4779346875290813"><ele>717.0</ele><time>2026-04-29T15:37:43Z</time></trkpt><trkpt lat="42.945646750691125" lon="-1.4778464250477472"><ele>718.6</ele><time>2026-04-29T15:37:44Z</time></trkpt><trkpt lat="42.94558053265751" lon="-1.4777353169869079"><ele>720.2</ele><time>2026-04-29T15:37:45Z</time></trkpt><trkpt lat="42.94552387774393" lon="-1.477614017263848"><ele>721.8</ele><time>2026-04-29T15:37:46Z</time></trkpt><trkpt lat="42.945502531841285" lon="-1.4774708906837752"><ele>723.4</ele><time>2026-04-29T15:37:47Z</time></trkpt><trkpt lat="42.94550313115709" lon="-1.477329230502486"><ele>725.0</ele><time>2026-04-29T15:37:48Z</time></trkpt><trkpt lat="42.94551638360593" lon="-1.4772027038738895"><ele>725.0</ele><time>2026-04-29T15:37:49Z</time></trkpt><trkpt lat="42.94552178031962" lon="-1.477094606034333"><ele>725.0</ele><time>2026-04-29T15:37:50Z</time></trkpt><trkpt lat="42.945476590119725" lon="-1.4769589061655857"><ele>725.0</ele><time>2026-04-29T15:37:52Z</time></trkpt><trkpt lat="42.945410436232805" lon="-1.4769646599156911"><ele>725.0</ele><time>2026-04-29T15:37:53Z</time></trkpt><trkpt lat="42.9453571108143" lon="-1.477038888048497"><ele>725.0</ele><time>2026-04-29T15:37:54Z</time></trkpt><trkpt lat="42.94533642316567" lon="-1.4771462291183517"><ele>725.0</ele><time>2026-04-29T15:37:55Z</time></trkpt><trkpt lat="42.94532431860738" lon="-1.4772618188225672"><ele>725.0</ele><time>2026-04-29T15:37:56Z</time></trkpt><trkpt lat="42.94532023751147" lon="-1.4773895240364672"><ele>725.0</ele><time>2026-04-29T15:37:57Z</time></trkpt><trkpt lat="42.94532711063377" lon="-1.477526279897044"><ele>725.0</ele><time>2026-04-29T15:37:58Z</time></trkpt><trkpt lat="42.94535425607711" lon="-1.4776675675683262"><ele>725.0</ele><time>2026-04-29T15:37:59Z</time></trkpt><trkpt lat="42.945404672140455" lon="-1.4778008892190577"><ele>725.0</ele><time>2026-04-29T15:38:00Z</time></trkpt><trkpt lat="42.94547429964185" lon="-1.477927505551375"><ele>720.8</ele><time>2026-04-29T15:38:01Z</time></trkpt><trkpt lat="42.945554573165175" lon="-1.4780420179443248"><ele>716.6</ele><time>2026-04-29T15:38:02Z</time></trkpt><trkpt lat="42.94564358318587" lon="-1.478147705066575"><ele>712.4000000000001</ele><time>2026-04-29T15:38:03Z</time></trkpt><trkpt lat="42.9457238063964" lon="-1.4782503844793526"><ele>708.2</ele><time>2026-04-29T15:38:04Z</time></trkpt><trkpt lat="42.94580478795285" lon="-1.478318890041872"><ele>704.0</ele><time>2026-04-29T15:38:05Z</time></trkpt><trkpt lat="42.94587657606296" lon="-1.4783770477767684"><ele>707.25</ele><time>2026-04-29T15:38:06Z</time></trkpt><trkpt lat="42.94595094753896" lon="-1.4784403756678235"><ele>710.5</ele><time>2026-04-29T15:38:07Z</time></trkpt><trkpt lat="42.94615398791228" lon="-1.4786056164927295"><ele>713.75</ele><time>2026-04-29T15:38:08Z</time></trkpt><trkpt lat="42.946249977761845" lon="-1.478698203325525"><ele>717.0</ele><time>2026-04-29T15:38:09Z</time></trkpt><trkpt lat="42.94634998963306" lon="-1.4787784004393036"><ele>711.25</ele><time>2026-04-29T15:38:10Z</time></trkpt><trkpt lat="42.94646351502634" lon="-1.478822553524644"><ele>705.5</ele><time>2026-04-29T15:38:11.001Z</time></trkpt><trkpt lat="42.94657956280168" lon="-1.4788051855685114"><ele>699.75</ele><time>2026-04-29T15:38:12.001Z</time></trkpt><trkpt lat="42.94669698292455" lon="-1.4788033340503963"><ele>694.0</ele><time>2026-04-29T15:38:13.001Z</time></trkpt><trkpt lat="42.94681540379817" lon="-1.478822354104409"><ele>694.0</ele><time>2026-04-29T15:38:14.001Z</time></trkpt><trkpt lat="42.94693173949793" lon="-1.478840104825296"><ele>694.0</ele><time>2026-04-29T15:38:15.001Z</time></trkpt><trkpt lat="42.94703584938157" lon="-1.4789161183182422"><ele>694.0</ele><time>2026-04-29T15:38:16.001Z</time></trkpt><trkpt lat="42.947123121770666" lon="-1.479024652432432"><ele>694.0</ele><time>2026-04-29T15:38:17.001Z</time></trkpt><trkpt lat="42.94721434982245" lon="-1.4791270525094151"><ele>694.0</ele><time>2026-04-29T15:38:18.001Z</time></trkpt><trkpt lat="42.947321819747074" lon="-1.479193371384361"><ele>694.0</ele><time>2026-04-29T15:38:19.001Z</time></trkpt><trkpt lat="42.94743727987933" lon="-1.479213131062442"><ele>694.0</ele><time>2026-04-29T15:38:20.001Z</time></trkpt><trkpt lat="42.94754704988058" lon="-1.479148184129767"><ele>694.0</ele><time>2026-04-29T15:38:21.001Z</time></trkpt><trkpt lat="42.94764216378039" lon="-1.4790614105127977"><ele>697.0</ele><time>2026-04-29T15:38:22.001Z</time></trkpt><trkpt lat="42.94772465174313" lon="-1.478951546646943"><ele>700.0</ele><time>2026-04-29T15:38:23.001Z</time></trkpt><trkpt lat="42.94781639273468" lon="-1.4788408500191967"><ele>703.0</ele><time>2026-04-29T15:38:24.001Z</time></trkpt><trkpt lat="42.94792380284623" lon="-1.4787580282831583"><ele>706.0</ele><time>2026-04-29T15:38:25.001Z</time></trkpt><trkpt lat="42.9480337449348" lon="-1.4786976654894621"><ele>706.0</ele><time>2026-04-29T15:38:26.001Z</time></trkpt><trkpt lat="42.94815102894059" lon="-1.4786845561782844"><ele>706.0</ele><time>2026-04-29T15:38:27.001Z</time></trkpt><trkpt lat="42.94826958149681" lon="-1.4787177097857964"><ele>706.0</ele><time>2026-04-29T15:38:28.001Z</time></trkpt><trkpt lat="42.94837902634952" lon="-1.4787688635278937"><ele>706.0</ele><time>2026-04-29T15:38:29.001Z</time></trkpt><trkpt lat="42.948478097964134" lon="-1.4787991974259782"><ele>699.75</ele><time>2026-04-29T15:38:30.001Z</time></trkpt><trkpt lat="42.94857399463518" lon="-1.4787471907147238"><ele>693.5</ele><time>2026-04-29T15:38:31.001Z</time></trkpt><trkpt lat="42.94863525765293" lon="-1.4786059307243955"><ele>687.25</ele><time>2026-04-29T15:38:32.001Z</time></trkpt><trkpt lat="42.948699743764266" lon="-1.4784638999085125"><ele>681.0</ele><time>2026-04-29T15:38:33.001Z</time></trkpt><trkpt lat="42.94877679236747" lon="-1.478346481433665"><ele>681.0</ele><time>2026-04-29T15:38:34.001Z</time></trkpt><trkpt lat="42.94885658848863" lon="-1.4782300628095952"><ele>681.0</ele><time>2026-04-29T15:38:35.001Z</time></trkpt><trkpt lat="42.94895450138787" lon="-1.478145723463351"><ele>681.0</ele><time>2026-04-29T15:38:36.001Z</time></trkpt><trkpt lat="42.949052984372805" lon="-1.4780452128853065"><ele>681.0</ele><time>2026-04-29T15:38:37.001Z</time></trkpt><trkpt lat="42.949147557879044" lon="-1.4779383611734922"><ele>685.0</ele><time>2026-04-29T15:38:38.001Z</time></trkpt><trkpt lat="42.94923222130612" lon="-1.4778376650087788"><ele>689.0</ele><time>2026-04-29T15:38:39.001Z</time></trkpt><trkpt lat="42.949318251094006" lon="-1.4777450655050357"><ele>693.0</ele><time>2026-04-29T15:38:40.001Z</time></trkpt><trkpt lat="42.9494054892284" lon="-1.4776699447479542"><ele>697.0</ele><time>2026-04-29T15:38:41.001Z</time></trkpt><trkpt lat="42.94948908507956" lon="-1.4776259751058751"><ele>701.0</ele><time>2026-04-29T15:38:42.001Z</time></trkpt><trkpt lat="42.94958382560244" lon="-1.4776405608623124"><ele>701.0</ele><time>2026-04-29T15:38:43.001Z</time></trkpt><trkpt lat="42.94967603921087" lon="-1.4777045402200062"><ele>701.0</ele><time>2026-04-29T15:38:44.001Z</time></trkpt><trkpt lat="42.94972719382455" lon="-1.4778317124753708"><ele>701.0</ele><time>2026-04-29T15:38:45.001Z</time></trkpt><trkpt lat="42.949736514702764" lon="-1.4779782700271478"><ele>701.0</ele><time>2026-04-29T15:38:46.001Z</time></trkpt><trkpt lat="42.94971721473729" lon="-1.4781371884141912"><ele>701.0</ele><time>2026-04-29T15:38:47.001Z</time></trkpt><trkpt lat="42.94969674667022" lon="-1.4782875668378688"><ele>697.5</ele><time>2026-04-29T15:38:48.001Z</time></trkpt><trkpt lat="42.94968636945732" lon="-1.4784438320844073"><ele>694.0</ele><time>2026-04-29T15:38:49.001Z</time></trkpt><trkpt lat="42.949691590390536" lon="-1.4785963049172612"><ele>690.5</ele><time>2026-04-29T15:38:50.001Z</time></trkpt><trkpt lat="42.94972163452088" lon="-1.4787490686671008"><ele>687.0</ele><time>2026-04-29T15:38:51.001Z</time></trkpt><trkpt lat="42.949780829403224" lon="-1.4788934098211635"><ele>683.5</ele><time>2026-04-29T15:38:52.001Z</time></trkpt><trkpt lat="42.94984926998422" lon="-1.4790229256377327"><ele>680.0</ele><time>2026-04-29T15:38:53.001Z</time></trkpt><trkpt lat="42.94991418764339" lon="-1.4791526573569416"><ele>676.5</ele><time>2026-04-29T15:38:54.001Z</time></trkpt><trkpt lat="42.94996328564195" lon="-1.479287033630847"><ele>673.0</ele><time>2026-04-29T15:38:55.001Z</time></trkpt><trkpt lat="42.94998033727904" lon="-1.4794429096713373"><ele>671.75</ele><time>2026-04-29T15:38:56.001Z</time></trkpt><trkpt lat="42.94996503480462" lon="-1.4796043889926156"><ele>670.5</ele><time>2026-04-29T15:38:57.001Z</time></trkpt><trkpt lat="42.94994004023801" lon="-1.479767930816246"><ele>669.25</ele><time>2026-04-29T15:38:58.001Z</time></trkpt><trkpt lat="42.94992884695017" lon="-1.479921764359596"><ele>668.0</ele><time>2026-04-29T15:38:59.001Z</time></trkpt><trkpt lat="42.94996352147215" lon="-1.480083398235278"><ele>668.0</ele><time>2026-04-29T15:38:59.999Z</time></trkpt><trkpt lat="42.95001383426072" lon="-1.4802472200391183"><ele>668.0</ele><time>2026-04-29T15:39:00.999Z</time></trkpt><trkpt lat="42.95003794224718" lon="-1.4804093442883997"><ele>668.0</ele><time>2026-04-29T15:39:01.999Z</time></trkpt><trkpt lat="42.95002176842408" lon="-1.4805753689962318"><ele>668.0</ele><time>2026-04-29T15:39:02.999Z</time></trkpt><trkpt lat="42.94997776311826" lon="-1.4807378494785381"><ele>668.0</ele><time>2026-04-29T15:39:03.999Z</time></trkpt><trkpt lat="42.9499212760235" lon="-1.4808910463049774"><ele>668.0</ele><time>2026-04-29T15:39:04.999Z</time></trkpt><trkpt lat="42.94986466898993" lon="-1.4810467327053705"><ele>668.0</ele><time>2026-04-29T15:39:05.999Z</time></trkpt><trkpt lat="42.949817199283125" lon="-1.4812000450534628"><ele>668.0</ele><time>2026-04-29T15:39:06.999Z</time></trkpt><trkpt lat="42.94976707101454" lon="-1.4813503694410475"><ele>669.75</ele><time>2026-04-29T15:39:07.999Z</time></trkpt><trkpt lat="42.94971762686259" lon="-1.4815076125214282"><ele>671.5</ele><time>2026-04-29T15:39:08.999Z</time></trkpt><trkpt lat="42.94966757920746" lon="-1.481657512902308"><ele>673.25</ele><time>2026-04-29T15:39:09.999Z</time></trkpt><trkpt lat="42.94961452813385" lon="-1.4818049544686518"><ele>675.0</ele><time>2026-04-29T15:39:10.999Z</time></trkpt><trkpt lat="42.94955319482096" lon="-1.4819463164579676"><ele>675.0</ele><time>2026-04-29T15:39:11.999Z</time></trkpt><trkpt lat="42.94947881389888" lon="-1.4820793193140795"><ele>675.0</ele><time>2026-04-29T15:39:12.999Z</time></trkpt><trkpt lat="42.949400273197796" lon="-1.4821974760775471"><ele>675.0</ele><time>2026-04-29T15:39:13.999Z</time></trkpt><trkpt lat="42.94930637321207" lon="-1.482308286481868"><ele>675.0</ele><time>2026-04-29T15:39:14.999Z</time></trkpt><trkpt lat="42.949210940191826" lon="-1.482396366964733"><ele>672.0</ele><time>2026-04-29T15:39:15.999Z</time></trkpt><trkpt lat="42.94911781440075" lon="-1.482465873069799"><ele>669.0</ele><time>2026-04-29T15:39:16.999Z</time></trkpt><trkpt lat="42.94902824191003" lon="-1.4825481916999883"><ele>666.0</ele><time>2026-04-29T15:39:18Z</time></trkpt><trkpt lat="42.94894857396786" lon="-1.4826494947002102"><ele>663.0</ele><time>2026-04-29T15:39:19Z</time></trkpt><trkpt lat="42.94889766807637" lon="-1.4827826206289534"><ele>660.0</ele><time>2026-04-29T15:39:20Z</time></trkpt><trkpt lat="42.94888880495683" lon="-1.4829417741445388"><ele>660.0</ele><time>2026-04-29T15:39:21Z</time></trkpt><trkpt lat="42.94894087890726" lon="-1.4830930701027385"><ele>660.0</ele><time>2026-04-29T15:39:22Z</time></trkpt><trkpt lat="42.94897507353117" lon="-1.4832489954508665"><ele>660.0</ele><time>2026-04-29T15:39:23Z</time></trkpt><trkpt lat="42.9490041948216" lon="-1.483400897204875"><ele>660.0</ele><time>2026-04-29T15:39:24Z</time></trkpt><trkpt lat="42.94897746815496" lon="-1.4835585108883826"><ele>660.0</ele><time>2026-04-29T15:39:25Z</time></trkpt><trkpt lat="42.94891423193173" lon="-1.4837023849177176"><ele>660.0</ele><time>2026-04-29T15:39:26Z</time></trkpt><trkpt lat="42.948830321142395" lon="-1.483821040298121"><ele>660.0</ele><time>2026-04-29T15:39:27Z</time></trkpt><trkpt lat="42.948720517847725" lon="-1.483882471407228"><ele>660.0</ele><time>2026-04-29T15:39:28Z</time></trkpt><trkpt lat="42.9486021894668" lon="-1.4839013773672507"><ele>661.5</ele><time>2026-04-29T15:39:29Z</time></trkpt><trkpt lat="42.94847650216822" lon="-1.4838911990428167"><ele>663.0</ele><time>2026-04-29T15:39:30Z</time></trkpt><trkpt lat="42.94835696387901" lon="-1.4838986705421375"><ele>664.5</ele><time>2026-04-29T15:39:31Z</time></trkpt><trkpt lat="42.948249151704154" lon="-1.4839552039154382"><ele>666.0</ele><time>2026-04-29T15:39:32Z</time></trkpt><trkpt lat="42.94813373204611" lon="-1.4839867282637684"><ele>660.5</ele><time>2026-04-29T15:39:33Z</time></trkpt><trkpt lat="42.94801932614932" lon="-1.4840428538708936"><ele>655.0</ele><time>2026-04-29T15:39:34Z</time></trkpt><trkpt lat="42.9479100731763" lon="-1.484103729144379"><ele>649.5</ele><time>2026-04-29T15:39:35Z</time></trkpt><trkpt lat="42.94782274655362" lon="-1.4842052161672274"><ele>644.0</ele><time>2026-04-29T15:39:36Z</time></trkpt><trkpt lat="42.94773828228959" lon="-1.4843335614162247"><ele>644.0</ele><time>2026-04-29T15:39:37Z</time></trkpt><trkpt lat="42.94766665479678" lon="-1.4844675955445263"><ele>644.0</ele><time>2026-04-29T15:39:38Z</time></trkpt><trkpt lat="42.947610008519774" lon="-1.4846004037704974"><ele>644.0</ele><time>2026-04-29T15:39:39Z</time></trkpt><trkpt lat="42.94756577481116" lon="-1.4847449265389245"><ele>644.0</ele><time>2026-04-29T15:39:40Z</time></trkpt><trkpt lat="42.94754955718979" lon="-1.4848830944554057"><ele>643.2</ele><time>2026-04-29T15:39:41Z</time></trkpt><trkpt lat="42.94757625996772" lon="-1.4850162418041535"><ele>642.4000000000001</ele><time>2026-04-29T15:39:42Z</time></trkpt><trkpt lat="42.947653649297" lon="-1.4851137117795379"><ele>641.6</ele><time>2026-04-29T15:39:43Z</time></trkpt><trkpt lat="42.94775852501111" lon="-1.4851404567711046"><ele>640.8</ele><time>2026-04-29T15:39:44Z</time></trkpt><trkpt lat="42.94786876968505" lon="-1.4850991220279752"><ele>640.0</ele><time>2026-04-29T15:39:45Z</time></trkpt><trkpt lat="42.94797154441848" lon="-1.4850610151745467"><ele>640.0</ele><time>2026-04-29T15:39:46Z</time></trkpt><trkpt lat="42.948083659523114" lon="-1.4850684525052829"><ele>640.0</ele><time>2026-04-29T15:39:47Z</time></trkpt><trkpt lat="42.948185973069265" lon="-1.4851252925301626"><ele>640.0</ele><time>2026-04-29T15:39:48Z</time></trkpt><trkpt lat="42.94825936012018" lon="-1.4852411424870702"><ele>640.0</ele><time>2026-04-29T15:39:49Z</time></trkpt><trkpt lat="42.94830120719123" lon="-1.4853873736785532"><ele>638.0</ele><time>2026-04-29T15:39:50Z</time></trkpt><trkpt lat="42.94829944536504" lon="-1.4855451863866462"><ele>636.0</ele><time>2026-04-29T15:39:51Z</time></trkpt><trkpt lat="42.94825879082487" lon="-1.485703076898257"><ele>634.0</ele><time>2026-04-29T15:39:52Z</time></trkpt><trkpt lat="42.94819550427016" lon="-1.485846444230366"><ele>632.0</ele><time>2026-04-29T15:39:53Z</time></trkpt><trkpt lat="42.94812860271139" lon="-1.4859821797358865"><ele>632.0</ele><time>2026-04-29T15:39:54Z</time></trkpt><trkpt lat="42.948072875317884" lon="-1.486128822999226"><ele>632.0</ele><time>2026-04-29T15:39:55Z</time></trkpt><trkpt lat="42.94803242528224" lon="-1.4862747153212885"><ele>632.0</ele><time>2026-04-29T15:39:56Z</time></trkpt><trkpt lat="42.94799155656656" lon="-1.486415879800394"><ele>632.0</ele><time>2026-04-29T15:39:57Z</time></trkpt><trkpt lat="42.94793898184148" lon="-1.4865492337513138"><ele>632.8000000000001</ele><time>2026-04-29T15:39:58Z</time></trkpt><trkpt lat="42.947869117412345" lon="-1.486656868422316"><ele>633.6</ele><time>2026-04-29T15:39:59Z</time></trkpt><trkpt lat="42.947773966100534" lon="-1.4867271671106577"><ele>634.4000000000001</ele><time>2026-04-29T15:40:00Z</time></trkpt><trkpt lat="42.94765984622709" lon="-1.486748979403392"><ele>635.2</ele><time>2026-04-29T15:40:01Z</time></trkpt><trkpt lat="42.94754371338289" lon="-1.4867181932163527"><ele>636.0</ele><time>2026-04-29T15:40:02Z</time></trkpt><trkpt lat="42.94743834563408" lon="-1.4866364541147958"><ele>632.0</ele><time>2026-04-29T15:40:03Z</time></trkpt><trkpt lat="42.9473421138244" lon="-1.4865358207500476"><ele>628.0</ele><time>2026-04-29T15:40:04Z</time></trkpt><trkpt lat="42.94723242152114" lon="-1.4864837418325543"><ele>624.0</ele><time>2026-04-29T15:40:05Z</time></trkpt><trkpt lat="42.94712709558362" lon="-1.4864266368034056"><ele>620.0</ele><time>2026-04-29T15:40:06Z</time></trkpt><trkpt lat="42.947003892239024" lon="-1.4864450199829793"><ele>620.0</ele><time>2026-04-29T15:40:07Z</time></trkpt><trkpt lat="42.94688300431804" lon="-1.4864975157267817"><ele>620.0</ele><time>2026-04-29T15:40:08Z</time></trkpt><trkpt lat="42.94676116570857" lon="-1.4866001052790756"><ele>620.0</ele><time>2026-04-29T15:40:09Z</time></trkpt><trkpt lat="42.94664819839152" lon="-1.4867372466644775"><ele>620.0</ele><time>2026-04-29T15:40:10Z</time></trkpt><trkpt lat="42.94660218237184" lon="-1.486810296922664"><ele>618.5</ele><time>2026-04-29T15:40:11Z</time></trkpt><trkpt lat="42.94654570884796" lon="-1.4869536030921289"><ele>617.0</ele><time>2026-04-29T15:40:12Z</time></trkpt><trkpt lat="42.94649713405015" lon="-1.4871095490069774"><ele>615.5</ele><time>2026-04-29T15:40:13Z</time></trkpt><trkpt lat="42.946443551786466" lon="-1.4872591584279804"><ele>614.0</ele><time>2026-04-29T15:40:14Z</time></trkpt><trkpt lat="42.94637956146772" lon="-1.4874033386290109"><ele>614.0</ele><time>2026-04-29T15:40:15Z</time></trkpt><trkpt lat="42.94630470875271" lon="-1.4875364242953144"><ele>614.0</ele><time>2026-04-29T15:40:16Z</time></trkpt><trkpt lat="42.94623297733701" lon="-1.4876455702829066"><ele>614.0</ele><time>2026-04-29T15:40:17Z</time></trkpt><trkpt lat="42.94614496310939" lon="-1.4877647040061532"><ele>614.0</ele><time>2026-04-29T15:40:18Z</time></trkpt><trkpt lat="42.94605403745601" lon="-1.4878689879019087"><ele>612.6</ele><time>2026-04-29T15:40:19Z</time></trkpt><trkpt lat="42.945967847162535" lon="-1.4879739057734502"><ele>611.2</ele><time>2026-04-29T15:40:20Z</time></trkpt><trkpt lat="42.94591191826678" lon="-1.488102162196501"><ele>609.8000000000001</ele><time>2026-04-29T15:40:21Z</time></trkpt><trkpt lat="42.94589943563906" lon="-1.4882494913194175"><ele>608.4</ele><time>2026-04-29T15:40:22.001Z</time></trkpt><trkpt lat="42.94593679739742" lon="-1.4883979322760132"><ele>607.0</ele><time>2026-04-29T15:40:23.001Z</time></trkpt><trkpt lat="42.946019266324406" lon="-1.4885156856860589"><ele>607.0</ele><time>2026-04-29T15:40:24.001Z</time></trkpt><trkpt lat="42.94612926890233" lon="-1.4885727476340633"><ele>607.0</ele><time>2026-04-29T15:40:25.001Z</time></trkpt><trkpt lat="42.94623802060479" lon="-1.488592546051155"><ele>607.0</ele><time>2026-04-29T15:40:26.001Z</time></trkpt><trkpt lat="42.946323355409305" lon="-1.488645686384686"><ele>607.0</ele><time>2026-04-29T15:40:27.001Z</time></trkpt><trkpt lat="42.946366317624864" lon="-1.4887591127533828"><ele>607.0</ele><time>2026-04-29T15:40:28.001Z</time></trkpt><trkpt lat="42.946349600000445" lon="-1.4888896947230674"><ele>606.8000000000001</ele><time>2026-04-29T15:40:29.001Z</time></trkpt><trkpt lat="42.94628867515809" lon="-1.4889921393204986"><ele>606.6</ele><time>2026-04-29T15:40:30.001Z</time></trkpt><trkpt lat="42.94619020860112" lon="-1.4890336740422305"><ele>606.4000000000001</ele><time>2026-04-29T15:40:31.001Z</time></trkpt><trkpt lat="42.94608393539375" lon="-1.489032327466955"><ele>606.2</ele><time>2026-04-29T15:40:32.001Z</time></trkpt><trkpt lat="42.94597695757619" lon="-1.4890416349941948"><ele>606.0</ele><time>2026-04-29T15:40:33.001Z</time></trkpt><trkpt lat="42.94587569326372" lon="-1.4890839074001176"><ele>603.8</ele><time>2026-04-29T15:40:34.001Z</time></trkpt><trkpt lat="42.945775182282866" lon="-1.4891187844366331"><ele>601.6</ele><time>2026-04-29T15:40:35.001Z</time></trkpt><trkpt lat="42.9456715688578" lon="-1.4891400399208927"><ele>599.4</ele><time>2026-04-29T15:40:36.001Z</time></trkpt><trkpt lat="42.94557958385741" lon="-1.4891948804300332"><ele>597.2</ele><time>2026-04-29T15:40:37.001Z</time></trkpt><trkpt lat="42.945504209923946" lon="-1.4892766092037442"><ele>595.0</ele><time>2026-04-29T15:40:38.001Z</time></trkpt><trkpt lat="42.94546392154232" lon="-1.4893799501083238"><ele>595.0</ele><time>2026-04-29T15:40:39.001Z</time></trkpt><trkpt lat="42.9454711845812" lon="-1.4895003141665542"><ele>595.0</ele><time>2026-04-29T15:40:40.001Z</time></trkpt><trkpt lat="42.94550349928748" lon="-1.4896244634047124"><ele>595.0</ele><time>2026-04-29T15:40:41.001Z</time></trkpt><trkpt lat="42.94553876625703" lon="-1.4897446559568708"><ele>595.0</ele><time>2026-04-29T15:40:42.001Z</time></trkpt><trkpt lat="42.94557107149902" lon="-1.4898750534901926"><ele>595.0</ele><time>2026-04-29T15:40:43.001Z</time></trkpt><trkpt lat="42.945594829477315" lon="-1.4900102326976987"><ele>595.2</ele><time>2026-04-29T15:40:44.001Z</time></trkpt><trkpt lat="42.94562500206357" lon="-1.4901517422712949"><ele>595.4</ele><time>2026-04-29T15:40:45.001Z</time></trkpt><trkpt lat="42.94566907349904" lon="-1.4902889950770954"><ele>595.6</ele><time>2026-04-29T15:40:46.001Z</time></trkpt><trkpt lat="42.94572702271428" lon="-1.4904253252437516"><ele>595.8</ele><time>2026-04-29T15:40:47.001Z</time></trkpt><trkpt lat="42.94576115808739" lon="-1.4905718358062545"><ele>596.0</ele><time>2026-04-29T15:40:48.001Z</time></trkpt><trkpt lat="42.94576091718086" lon="-1.4907283396115725"><ele>595.0</ele><time>2026-04-29T15:40:49.001Z</time></trkpt><trkpt lat="42.94572522357071" lon="-1.490875169439673"><ele>594.0</ele><time>2026-04-29T15:40:50.001Z</time></trkpt><trkpt lat="42.945657931807204" lon="-1.4910044449190263"><ele>593.0</ele><time>2026-04-29T15:40:51.001Z</time></trkpt><trkpt lat="42.945579553850166" lon="-1.4911203865647233"><ele>592.0</ele><time>2026-04-29T15:40:52.001Z</time></trkpt><trkpt lat="42.94551218823069" lon="-1.4912407655847806"><ele>593.75</ele><time>2026-04-29T15:40:53.001Z</time></trkpt><trkpt lat="42.94545293376869" lon="-1.4913724055965003"><ele>595.5</ele><time>2026-04-29T15:40:54.001Z</time></trkpt><trkpt lat="42.94538630766653" lon="-1.4915026904690516"><ele>597.25</ele><time>2026-04-29T15:40:55.001Z</time></trkpt><trkpt lat="42.94532278216636" lon="-1.4916236980467756"><ele>599.0</ele><time>2026-04-29T15:40:56.001Z</time></trkpt><trkpt lat="42.945259653092855" lon="-1.4917578638531435"><ele>599.0</ele><time>2026-04-29T15:40:57.001Z</time></trkpt><trkpt lat="42.945208395771594" lon="-1.491895653576222"><ele>599.0</ele><time>2026-04-29T15:40:58.001Z</time></trkpt><trkpt lat="42.94516532047101" lon="-1.492036042967837"><ele>599.0</ele><time>2026-04-29T15:40:59.001Z</time></trkpt><trkpt lat="42.94511967802886" lon="-1.4921726192208522"><ele>599.0</ele><time>2026-04-29T15:41:00.001Z</time></trkpt><trkpt lat="42.94506443124982" lon="-1.4923056551840026"><ele>599.0</ele><time>2026-04-29T15:41:01.001Z</time></trkpt><trkpt lat="42.94499532341568" lon="-1.4924313231777904"><ele>594.75</ele><time>2026-04-29T15:41:02.001Z</time></trkpt><trkpt lat="42.944914340478604" lon="-1.4925494773363237"><ele>590.5</ele><time>2026-04-29T15:41:03.001Z</time></trkpt><trkpt lat="42.94482903536418" lon="-1.4926609779457645"><ele>586.25</ele><time>2026-04-29T15:41:04.001Z</time></trkpt><trkpt lat="42.94473538229961" lon="-1.4927592215510133"><ele>582.0</ele><time>2026-04-29T15:41:05.001Z</time></trkpt><trkpt lat="42.94463494752661" lon="-1.4928367079899094"><ele>582.0</ele><time>2026-04-29T15:41:05.999Z</time></trkpt><trkpt lat="42.94453021462232" lon="-1.4929001644308053"><ele>582.0</ele><time>2026-04-29T15:41:07Z</time></trkpt><trkpt lat="42.9444297364263" lon="-1.4929526551832708"><ele>582.0</ele><time>2026-04-29T15:41:08Z</time></trkpt><trkpt lat="42.94432589112665" lon="-1.493004866992379"><ele>582.0</ele><time>2026-04-29T15:41:09Z</time></trkpt><trkpt lat="42.944228549217144" lon="-1.4930554155431135"><ele>582.0</ele><time>2026-04-29T15:41:10Z</time></trkpt><trkpt lat="42.944132451617484" lon="-1.4931150378673208"><ele>580.25</ele><time>2026-04-29T15:41:11Z</time></trkpt><trkpt lat="42.94404185660797" lon="-1.4931994301267257"><ele>578.5</ele><time>2026-04-29T15:41:12Z</time></trkpt><trkpt lat="42.94397743703277" lon="-1.4933276499482857"><ele>576.75</ele><time>2026-04-29T15:41:13Z</time></trkpt><trkpt lat="42.94393961473704" lon="-1.4934811342896803"><ele>575.0</ele><time>2026-04-29T15:41:14Z</time></trkpt><trkpt lat="42.943918422928725" lon="-1.4936401951695968"><ele>576.0</ele><time>2026-04-29T15:41:15Z</time></trkpt><trkpt lat="42.943912390472846" lon="-1.4937964600187632"><ele>577.0</ele><time>2026-04-29T15:41:16Z</time></trkpt><trkpt lat="42.94391096264925" lon="-1.493952384713911"><ele>578.0</ele><time>2026-04-29T15:41:17Z</time></trkpt><trkpt lat="42.94388676194764" lon="-1.49410130190965"><ele>579.0</ele><time>2026-04-29T15:41:18Z</time></trkpt><trkpt lat="42.94382180789849" lon="-1.494229732486998"><ele>579.0</ele><time>2026-04-29T15:41:19Z</time></trkpt><trkpt lat="42.94373680347298" lon="-1.4943389093249226"><ele>579.0</ele><time>2026-04-29T15:41:20Z</time></trkpt><trkpt lat="42.94364923076827" lon="-1.4944383053704982"><ele>579.0</ele><time>2026-04-29T15:41:21Z</time></trkpt><trkpt lat="42.94356556744244" lon="-1.4945338441676306"><ele>579.0</ele><time>2026-04-29T15:41:22Z</time></trkpt><trkpt lat="42.94347842796198" lon="-1.4946260984410242"><ele>579.75</ele><time>2026-04-29T15:41:23Z</time></trkpt><trkpt lat="42.94337909974012" lon="-1.4947071538145509"><ele>580.5</ele><time>2026-04-29T15:41:24Z</time></trkpt><trkpt lat="42.943277026127255" lon="-1.494768603554426"><ele>581.25</ele><time>2026-04-29T15:41:25Z</time></trkpt><trkpt lat="42.94316990191351" lon="-1.4948198711279295"><ele>582.0</ele><time>2026-04-29T15:41:26Z</time></trkpt><trkpt lat="42.943061782072746" lon="-1.4948583312309067"><ele>582.0</ele><time>2026-04-29T15:41:27Z</time></trkpt><trkpt lat="42.942953914564235" lon="-1.4948805373795306"><ele>582.0</ele><time>2026-04-29T15:41:28Z</time></trkpt><trkpt lat="42.94284402837662" lon="-1.4948818643983908"><ele>582.0</ele><time>2026-04-29T15:41:29Z</time></trkpt><trkpt lat="42.94273405341218" lon="-1.4948798445451719"><ele>582.0</ele><time>2026-04-29T15:41:30Z</time></trkpt><trkpt lat="42.94262776743722" lon="-1.4948671988440827"><ele>582.0</ele><time>2026-04-29T15:41:31Z</time></trkpt><trkpt lat="42.942518710501304" lon="-1.4948454484792029"><ele>581.4</ele><time>2026-04-29T15:41:32Z</time></trkpt><trkpt lat="42.94241342773027" lon="-1.4948226538336455"><ele>580.8000000000001</ele><time>2026-04-29T15:41:33Z</time></trkpt><trkpt lat="42.942305565414415" lon="-1.4948063678309738"><ele>580.2</ele><time>2026-04-29T15:41:34Z</time></trkpt><trkpt lat="42.94219553411556" lon="-1.4947990111790377"><ele>579.6</ele><time>2026-04-29T15:41:35Z</time></trkpt><trkpt lat="42.94208542458125" lon="-1.4948021241315679"><ele>579.0</ele><time>2026-04-29T15:41:36Z</time></trkpt><trkpt lat="42.94197486409224" lon="-1.494830195602631"><ele>579.0</ele><time>2026-04-29T15:41:37Z</time></trkpt><trkpt lat="42.94186683050241" lon="-1.4948694918527625"><ele>579.0</ele><time>2026-04-29T15:41:38Z</time></trkpt><trkpt lat="42.941758436591385" lon="-1.494912895296352"><ele>579.0</ele><time>2026-04-29T15:41:39Z</time></trkpt><trkpt lat="42.9416506272764" lon="-1.4949568923886472"><ele>579.0</ele><time>2026-04-29T15:41:40Z</time></trkpt><trkpt lat="42.941550152330485" lon="-1.49499523007786"><ele>579.0</ele><time>2026-04-29T15:41:41Z</time></trkpt><trkpt lat="42.9414423705053" lon="-1.4950224791190778"><ele>577.8</ele><time>2026-04-29T15:41:42Z</time></trkpt><trkpt lat="42.94134033828466" lon="-1.4950411248165534"><ele>576.5999999999999</ele><time>2026-04-29T15:41:43Z</time></trkpt><trkpt lat="42.94123479233687" lon="-1.4950612878916014"><ele>575.4</ele><time>2026-04-29T15:41:44Z</time></trkpt><trkpt lat="42.9411283079287" lon="-1.4950713024902595"><ele>574.1999999999999</ele><time>2026-04-29T15:41:45Z</time></trkpt><trkpt lat="42.94101751819207" lon="-1.4950771742239715"><ele>573.0</ele><time>2026-04-29T15:41:46Z</time></trkpt><trkpt lat="42.9409095589136" lon="-1.495074928836365"><ele>570.6</ele><time>2026-04-29T15:41:47Z</time></trkpt><trkpt lat="42.94080790151763" lon="-1.4950619454486689"><ele>568.1999999999999</ele><time>2026-04-29T15:41:48Z</time></trkpt><trkpt lat="42.9407076491339" lon="-1.4950599908915914"><ele>565.8</ele><time>2026-04-29T15:41:49Z</time></trkpt><trkpt lat="42.94060487261839" lon="-1.4950736970758116"><ele>563.4</ele><time>2026-04-29T15:41:50Z</time></trkpt><trkpt lat="42.9405062138766" lon="-1.4951289004095707"><ele>561.0</ele><time>2026-04-29T15:41:51Z</time></trkpt><trkpt lat="42.940428197485396" lon="-1.4952283124065713"><ele>561.0</ele><time>2026-04-29T15:41:52Z</time></trkpt><trkpt lat="42.940368689107665" lon="-1.4953607304813639"><ele>561.0</ele><time>2026-04-29T15:41:53Z</time></trkpt><trkpt lat="42.940330224126036" lon="-1.4955117608930313"><ele>561.0</ele><time>2026-04-29T15:41:54Z</time></trkpt><trkpt lat="42.94029956711683" lon="-1.4956590423616605"><ele>561.0</ele><time>2026-04-29T15:41:55Z</time></trkpt><trkpt lat="42.94024799255113" lon="-1.4957967859316923"><ele>560.4</ele><time>2026-04-29T15:41:56Z</time></trkpt><trkpt lat="42.940182118006256" lon="-1.4959228831970164"><ele>559.8</ele><time>2026-04-29T15:41:57Z</time></trkpt><trkpt lat="42.94011080406357" lon="-1.4960433365966692"><ele>559.1999999999999</ele><time>2026-04-29T15:41:58Z</time></trkpt><trkpt lat="42.94004008287369" lon="-1.4961557805293828"><ele>558.6</ele><time>2026-04-29T15:41:59Z</time></trkpt><trkpt lat="42.93996429937512" lon="-1.4962685971152334"><ele>558.0</ele><time>2026-04-29T15:42:00Z</time></trkpt><trkpt lat="42.939888578788384" lon="-1.4963801932550311"><ele>558.0</ele><time>2026-04-29T15:42:01Z</time></trkpt><trkpt lat="42.93981489092867" lon="-1.496493930064614"><ele>558.0</ele><time>2026-04-29T15:42:02Z</time></trkpt><trkpt lat="42.93973634200479" lon="-1.4966091890897737"><ele>558.0</ele><time>2026-04-29T15:42:03.001Z</time></trkpt><trkpt lat="42.93965848840157" lon="-1.496720444257879"><ele>558.0</ele><time>2026-04-29T15:42:04.001Z</time></trkpt><trkpt lat="42.93957988174126" lon="-1.4968315080192958"><ele>558.0</ele><time>2026-04-29T15:42:05.001Z</time></trkpt><trkpt lat="42.939501695741576" lon="-1.4969403356292408"><ele>558.0</ele><time>2026-04-29T15:42:06.001Z</time></trkpt><trkpt lat="42.9394227414169" lon="-1.4970468994149213"><ele>558.0</ele><time>2026-04-29T15:42:07.001Z</time></trkpt><trkpt lat="42.93934309769207" lon="-1.4971572633394334"><ele>558.0</ele><time>2026-04-29T15:42:08.001Z</time></trkpt><trkpt lat="42.939263605383765" lon="-1.4972637734679837"><ele>558.0</ele><time>2026-04-29T15:42:09.001Z</time></trkpt><trkpt lat="42.93918329206969" lon="-1.4973662745058707"><ele>555.8</ele><time>2026-04-29T15:42:10.001Z</time></trkpt><trkpt lat="42.939106600703255" lon="-1.4974704655538513"><ele>553.5999999999999</ele><time>2026-04-29T15:42:11.001Z</time></trkpt><trkpt lat="42.939031607571124" lon="-1.4975733730705343"><ele>551.4000000000001</ele><time>2026-04-29T15:42:12.001Z</time></trkpt><trkpt lat="42.93895726909528" lon="-1.4976865194827227"><ele>549.2</ele><time>2026-04-29T15:42:13.001Z</time></trkpt><trkpt lat="42.938884373461505" lon="-1.4977941445780303"><ele>547.0</ele><time>2026-04-29T15:42:14.001Z</time></trkpt><trkpt lat="42.93881244375589" lon="-1.4979087208050377"><ele>548.2</ele><time>2026-04-29T15:42:15.001Z</time></trkpt><trkpt lat="42.93874332059908" lon="-1.498021793962567"><ele>549.4000000000001</ele><time>2026-04-29T15:42:16.001Z</time></trkpt><trkpt lat="42.9386755265851" lon="-1.498135800185713"><ele>550.5999999999999</ele><time>2026-04-29T15:42:17.001Z</time></trkpt><trkpt lat="42.938611064977415" lon="-1.4982508705380768"><ele>551.8</ele><time>2026-04-29T15:42:18.001Z</time></trkpt><trkpt lat="42.93854887544252" lon="-1.4983702828952978"><ele>553.0</ele><time>2026-04-29T15:42:19.001Z</time></trkpt><trkpt lat="42.93848588144568" lon="-1.498491718206303"><ele>553.0</ele><time>2026-04-29T15:42:20.001Z</time></trkpt><trkpt lat="42.938422464366745" lon="-1.498610534440195"><ele>553.0</ele><time>2026-04-29T15:42:21.001Z</time></trkpt><trkpt lat="42.93835679509096" lon="-1.498736554576026"><ele>553.0</ele><time>2026-04-29T15:42:22.001Z</time></trkpt><trkpt lat="42.93829032134817" lon="-1.4988607181187552"><ele>553.0</ele><time>2026-04-29T15:42:23.001Z</time></trkpt><trkpt lat="42.938226435578585" lon="-1.4989816029203358"><ele>553.0</ele><time>2026-04-29T15:42:24.001Z</time></trkpt><trkpt lat="42.93816415638057" lon="-1.499102803238051"><ele>552.6</ele><time>2026-04-29T15:42:25.001Z</time></trkpt><trkpt lat="42.93810211021934" lon="-1.4992234346835571"><ele>552.1999999999999</ele><time>2026-04-29T15:42:26.001Z</time></trkpt><trkpt lat="42.93803789802012" lon="-1.499346696564526"><ele>551.8</ele><time>2026-04-29T15:42:27.001Z</time></trkpt><trkpt lat="42.937974511848246" lon="-1.4994652425145638"><ele>551.4</ele><time>2026-04-29T15:42:28.001Z</time></trkpt><trkpt lat="42.93790804357938" lon="-1.4995866194038059"><ele>551.0</ele><time>2026-04-29T15:42:29.001Z</time></trkpt><trkpt lat="42.93784376532357" lon="-1.4997050023497636"><ele>551.0</ele><time>2026-04-29T15:42:30.001Z</time></trkpt><trkpt lat="42.93778060778366" lon="-1.4998276145875924"><ele>551.0</ele><time>2026-04-29T15:42:31.001Z</time></trkpt><trkpt lat="42.93771805425185" lon="-1.499947252924744"><ele>551.0</ele><time>2026-04-29T15:42:32.001Z</time></trkpt><trkpt lat="42.9376548400057" lon="-1.5000641067126212"><ele>551.0</ele><time>2026-04-29T15:42:33.001Z</time></trkpt><trkpt lat="42.93759025023253" lon="-1.5001840819794547"><ele>551.0</ele><time>2026-04-29T15:42:34.001Z</time></trkpt><trkpt lat="42.93752429154275" lon="-1.5003005338787752"><ele>548.8</ele><time>2026-04-29T15:42:35.001Z</time></trkpt><trkpt lat="42.93745923676809" lon="-1.5004160833861553"><ele>546.6</ele><time>2026-04-29T15:42:36.001Z</time></trkpt><trkpt lat="42.937396977167694" lon="-1.5005368670209938"><ele>544.4</ele><time>2026-04-29T15:42:37.001Z</time></trkpt><trkpt lat="42.93733517866366" lon="-1.5006594882666948"><ele>542.2</ele><time>2026-04-29T15:42:38.001Z</time></trkpt><trkpt lat="42.93727325602554" lon="-1.5007806946145894"><ele>540.0</ele><time>2026-04-29T15:42:39.001Z</time></trkpt><trkpt lat="42.93721094004713" lon="-1.5009009454507907"><ele>539.8</ele><time>2026-04-29T15:42:40.001Z</time></trkpt><trkpt lat="42.93714745690226" lon="-1.501013259803034"><ele>539.6</ele><time>2026-04-29T15:42:41.001Z</time></trkpt><trkpt lat="42.93708443349041" lon="-1.5011389217364475"><ele>539.4</ele><time>2026-04-29T15:42:42.001Z</time></trkpt><trkpt lat="42.93702209559447" lon="-1.5012559910253647"><ele>539.2</ele><time>2026-04-29T15:42:43.001Z</time></trkpt><trkpt lat="42.93695981126448" lon="-1.5013793619528748"><ele>539.0</ele><time>2026-04-29T15:42:44.001Z</time></trkpt><trkpt lat="42.93689606603404" lon="-1.5015009856379733"><ele>538.2</ele><time>2026-04-29T15:42:45.001Z</time></trkpt><trkpt lat="42.93683227684343" lon="-1.5016196688971206"><ele>537.4</ele><time>2026-04-29T15:42:46.001Z</time></trkpt><trkpt lat="42.93676901016997" lon="-1.501737477768879"><ele>536.6</ele><time>2026-04-29T15:42:47.001Z</time></trkpt><trkpt lat="42.93670503610554" lon="-1.5018597491055592"><ele>535.8</ele><time>2026-04-29T15:42:48.001Z</time></trkpt><trkpt lat="42.93664291472406" lon="-1.5019819048815823"><ele>535.0</ele><time>2026-04-29T15:42:49.001Z</time></trkpt><trkpt lat="42.936578924874055" lon="-1.5021019909748379"><ele>534.4</ele><time>2026-04-29T15:42:50.001Z</time></trkpt><trkpt lat="42.93651513452652" lon="-1.5022238810908255"><ele>533.8</ele><time>2026-04-29T15:42:51.001Z</time></trkpt><trkpt lat="42.93645502482384" lon="-1.5023456833195372"><ele>533.2</ele><time>2026-04-29T15:42:52.001Z</time></trkpt><trkpt lat="42.936390457444574" lon="-1.5024625771653306"><ele>532.6</ele><time>2026-04-29T15:42:53.001Z</time></trkpt><trkpt lat="42.93632881876266" lon="-1.5025758912259268"><ele>532.0</ele><time>2026-04-29T15:42:54.001Z</time></trkpt><trkpt lat="42.93626733163729" lon="-1.5026851894383702"><ele>532.0</ele><time>2026-04-29T15:42:55.001Z</time></trkpt><trkpt lat="42.93620632003294" lon="-1.5027937258622475"><ele>532.0</ele><time>2026-04-29T15:42:56.001Z</time></trkpt><trkpt lat="42.93614543684851" lon="-1.5029015913981663"><ele>532.0</ele><time>2026-04-29T15:42:57.001Z</time></trkpt><trkpt lat="42.936082986883825" lon="-1.5030061824406709"><ele>532.0</ele><time>2026-04-29T15:42:58.001Z</time></trkpt><trkpt lat="42.93601112631218" lon="-1.5030990297416942"><ele>532.0</ele><time>2026-04-29T15:42:59.001Z</time></trkpt><trkpt lat="42.93593208262304" lon="-1.5031784236907844"><ele>532.0</ele><time>2026-04-29T15:43:00.001Z</time></trkpt><trkpt lat="42.935846487852714" lon="-1.5032480162996218"><ele>532.0</ele><time>2026-04-29T15:43:01.001Z</time></trkpt><trkpt lat="42.93575801101484" lon="-1.5033067246821745"><ele>532.0</ele><time>2026-04-29T15:43:02.001Z</time></trkpt><trkpt lat="42.93566392139306" lon="-1.5033507788604727"><ele>532.0</ele><time>2026-04-29T15:43:03.001Z</time></trkpt><trkpt lat="42.935567537917954" lon="-1.5033860411014064"><ele>532.0</ele><time>2026-04-29T15:43:04.001Z</time></trkpt><trkpt lat="42.93547020700551" lon="-1.503417165824656"><ele>532.0</ele><time>2026-04-29T15:43:05.001Z</time></trkpt><trkpt lat="42.93537406038846" lon="-1.5034442561466443"><ele>532.0</ele><time>2026-04-29T15:43:06.001Z</time></trkpt><trkpt lat="42.93527455733898" lon="-1.5034678274671298"><ele>532.0</ele><time>2026-04-29T15:43:07.001Z</time></trkpt><trkpt lat="42.93517566836024" lon="-1.5034876009310303"><ele>532.0</ele><time>2026-04-29T15:43:08.001Z</time></trkpt><trkpt lat="42.93507981145002" lon="-1.5035079142633043"><ele>532.0</ele><time>2026-04-29T15:43:09.001Z</time></trkpt><trkpt lat="42.93498410724336" lon="-1.5035311839661485"><ele>531.8000000000001</ele><time>2026-04-29T15:43:10.001Z</time></trkpt><trkpt lat="42.93488451726559" lon="-1.5035553784450428"><ele>531.6</ele><time>2026-04-29T15:43:11.001Z</time></trkpt><trkpt lat="42.93479175059218" lon="-1.5035770779443252"><ele>531.4000000000001</ele><time>2026-04-29T15:43:12Z</time></trkpt><trkpt lat="42.934698469386056" lon="-1.5035997367160603"><ele>531.2</ele><time>2026-04-29T15:43:13Z</time></trkpt><trkpt lat="42.93460516569544" lon="-1.5036192740033483"><ele>531.0</ele><time>2026-04-29T15:43:14Z</time></trkpt><trkpt lat="42.93451150587315" lon="-1.5036391495404968"><ele>531.0</ele><time>2026-04-29T15:43:15Z</time></trkpt><trkpt lat="42.934417683085975" lon="-1.5036606156597823"><ele>531.0</ele><time>2026-04-29T15:43:16Z</time></trkpt><trkpt lat="42.93432451514183" lon="-1.5036823683577083"><ele>531.0</ele><time>2026-04-29T15:43:17Z</time></trkpt><trkpt lat="42.93423291997136" lon="-1.5037022951627068"><ele>531.0</ele><time>2026-04-29T15:43:18Z</time></trkpt><trkpt lat="42.93414008296947" lon="-1.50372027874833"><ele>531.0</ele><time>2026-04-29T15:43:19Z</time></trkpt><trkpt lat="42.93404417198659" lon="-1.503742633913769"><ele>530.4</ele><time>2026-04-29T15:43:20Z</time></trkpt><trkpt lat="42.93395310755669" lon="-1.503768030101022"><ele>529.8</ele><time>2026-04-29T15:43:21Z</time></trkpt><trkpt lat="42.93385928973129" lon="-1.50378956552767"><ele>529.1999999999999</ele><time>2026-04-29T15:43:22Z</time></trkpt><trkpt lat="42.93376570250005" lon="-1.5038117408258203"><ele>528.6</ele><time>2026-04-29T15:43:23Z</time></trkpt><trkpt lat="42.93367338013484" lon="-1.5038315777879003"><ele>528.0</ele><time>2026-04-29T15:43:24Z</time></trkpt><trkpt lat="42.9335801042807" lon="-1.5038552556726354"><ele>528.0</ele><time>2026-04-29T15:43:25Z</time></trkpt><trkpt lat="42.933486511412276" lon="-1.5038785265129408"><ele>528.0</ele><time>2026-04-29T15:43:26Z</time></trkpt><trkpt lat="42.933391176058045" lon="-1.503900393902179"><ele>528.0</ele><time>2026-04-29T15:43:27Z</time></trkpt><trkpt lat="42.93329655061749" lon="-1.5039185226763918"><ele>528.0</ele><time>2026-04-29T15:43:28Z</time></trkpt><trkpt lat="42.933202860459446" lon="-1.503939847003961"><ele>528.0</ele><time>2026-04-29T15:43:29Z</time></trkpt><trkpt lat="42.93311156060676" lon="-1.5039621239159504"><ele>528.0</ele><time>2026-04-29T15:43:30Z</time></trkpt><trkpt lat="42.9330183958417" lon="-1.5039841490601236"><ele>528.0</ele><time>2026-04-29T15:43:31Z</time></trkpt><trkpt lat="42.93292617663945" lon="-1.5040043529277969"><ele>528.0</ele><time>2026-04-29T15:43:32Z</time></trkpt><trkpt lat="42.93283813109532" lon="-1.5040270114451828"><ele>528.0</ele><time>2026-04-29T15:43:33Z</time></trkpt><trkpt lat="42.93274860336543" lon="-1.5040491810333918"><ele>528.0</ele><time>2026-04-29T15:43:34Z</time></trkpt><trkpt lat="42.93265745418611" lon="-1.504066957856139"><ele>528.0</ele><time>2026-04-29T15:43:35Z</time></trkpt><trkpt lat="42.932564916361805" lon="-1.504087856863836"><ele>528.0</ele><time>2026-04-29T15:43:36Z</time></trkpt><trkpt lat="42.932474726467575" lon="-1.5041108124527809"><ele>528.0</ele><time>2026-04-29T15:43:37Z</time></trkpt><trkpt lat="42.93238366332724" lon="-1.5041310509336805"><ele>528.0</ele><time>2026-04-29T15:43:38Z</time></trkpt><trkpt lat="42.93229447788842" lon="-1.5041499812070243"><ele>528.0</ele><time>2026-04-29T15:43:39Z</time></trkpt><trkpt lat="42.93220389133139" lon="-1.5041701524783115"><ele>528.0</ele><time>2026-04-29T15:43:40Z</time></trkpt><trkpt lat="42.932114458058955" lon="-1.5041898669689702"><ele>528.0</ele><time>2026-04-29T15:43:41Z</time></trkpt><trkpt lat="42.93202366223853" lon="-1.5042119181759626"><ele>528.0</ele><time>2026-04-29T15:43:42Z</time></trkpt><trkpt lat="42.93193541713144" lon="-1.5042321694680476"><ele>528.0</ele><time>2026-04-29T15:43:43Z</time></trkpt><trkpt lat="42.93184531359454" lon="-1.5042502110486717"><ele>528.0</ele><time>2026-04-29T15:43:44Z</time></trkpt><trkpt lat="42.93175795185118" lon="-1.504268620789818"><ele>527.8</ele><time>2026-04-29T15:43:45Z</time></trkpt><trkpt lat="42.93166916032075" lon="-1.50428959997768"><ele>527.5999999999999</ele><time>2026-04-29T15:43:46Z</time></trkpt><trkpt lat="42.93158148831442" lon="-1.5043153040620045"><ele>527.4000000000001</ele><time>2026-04-29T15:43:47Z</time></trkpt><trkpt lat="42.93149251394578" lon="-1.5043348130506284"><ele>527.2</ele><time>2026-04-29T15:43:48Z</time></trkpt><trkpt lat="42.93140230049086" lon="-1.5043537823278998"><ele>527.0</ele><time>2026-04-29T15:43:49Z</time></trkpt><trkpt lat="42.93131092699284" lon="-1.5043725702948287"><ele>527.0</ele><time>2026-04-29T15:43:50Z</time></trkpt><trkpt lat="42.93122148243121" lon="-1.5043887121984858"><ele>527.0</ele><time>2026-04-29T15:43:51Z</time></trkpt><trkpt lat="42.931124521672906" lon="-1.5044071350538462"><ele>527.0</ele><time>2026-04-29T15:43:52Z</time></trkpt><trkpt lat="42.931028935951936" lon="-1.504431096699975"><ele>527.0</ele><time>2026-04-29T15:43:53Z</time></trkpt><trkpt lat="42.93093952491176" lon="-1.5044575284174406"><ele>527.0</ele><time>2026-04-29T15:43:54Z</time></trkpt><trkpt lat="42.9308434106909" lon="-1.5044871691399158"><ele>527.4</ele><time>2026-04-29T15:43:55Z</time></trkpt><trkpt lat="42.930749013060975" lon="-1.5045210393720987"><ele>527.8000000000001</ele><time>2026-04-29T15:43:56Z</time></trkpt><trkpt lat="42.930656307265494" lon="-1.504552702802038"><ele>528.2</ele><time>2026-04-29T15:43:57Z</time></trkpt><trkpt lat="42.9305647889413" lon="-1.504591475253035"><ele>528.6</ele><time>2026-04-29T15:43:58Z</time></trkpt><trkpt lat="42.930474081259916" lon="-1.5046331731472664"><ele>529.0</ele><time>2026-04-29T15:43:59Z</time></trkpt><trkpt lat="42.93038332101255" lon="-1.5046727167232705"><ele>529.0</ele><time>2026-04-29T15:44:00Z</time></trkpt><trkpt lat="42.93029308117803" lon="-1.5047171120105978"><ele>529.0</ele><time>2026-04-29T15:44:01Z</time></trkpt><trkpt lat="42.930204264313694" lon="-1.504762924839324"><ele>529.0</ele><time>2026-04-29T15:44:02.001Z</time></trkpt><trkpt lat="42.93011378083639" lon="-1.5048097842581258"><ele>529.0</ele><time>2026-04-29T15:44:03.001Z</time></trkpt><trkpt lat="42.93002095874511" lon="-1.5048633726666722"><ele>529.0</ele><time>2026-04-29T15:44:04.001Z</time></trkpt><trkpt lat="42.92993018005315" lon="-1.5049161126410227"><ele>529.2</ele><time>2026-04-29T15:44:05.001Z</time></trkpt><trkpt lat="42.92983432915367" lon="-1.504965834041181"><ele>529.4</ele><time>2026-04-29T15:44:06.001Z</time></trkpt><trkpt lat="42.92974266704626" lon="-1.5050157631647127"><ele>529.6</ele><time>2026-04-29T15:44:07.001Z</time></trkpt><trkpt lat="42.92964667466937" lon="-1.5050638156915643"><ele>529.8</ele><time>2026-04-29T15:44:08.001Z</time></trkpt><trkpt lat="42.92955007835194" lon="-1.5051123408489653"><ele>530.0</ele><time>2026-04-29T15:44:09.001Z</time></trkpt><trkpt lat="42.929464879056944" lon="-1.505165758678355"><ele>530.0</ele><time>2026-04-29T15:44:10.001Z</time></trkpt><trkpt lat="42.92937681839498" lon="-1.5052175902022304"><ele>530.0</ele><time>2026-04-29T15:44:11.001Z</time></trkpt><trkpt lat="42.929282053403924" lon="-1.5052713954979384"><ele>530.0</ele><time>2026-04-29T15:44:12.001Z</time></trkpt><trkpt lat="42.92918926146393" lon="-1.5053248614229704"><ele>530.0</ele><time>2026-04-29T15:44:13.001Z</time></trkpt><trkpt lat="42.929089293245525" lon="-1.5053789256393681"><ele>530.0</ele><time>2026-04-29T15:44:14.001Z</time></trkpt><trkpt lat="42.92899373918465" lon="-1.5054324958475718"><ele>530.8</ele><time>2026-04-29T15:44:15.001Z</time></trkpt><trkpt lat="42.92889668264661" lon="-1.5054807272911117"><ele>531.6</ele><time>2026-04-29T15:44:16.001Z</time></trkpt><trkpt lat="42.92879955219326" lon="-1.5055315328878516"><ele>532.4</ele><time>2026-04-29T15:44:17.001Z</time></trkpt><trkpt lat="42.92870148169151" lon="-1.5055806890859271"><ele>533.2</ele><time>2026-04-29T15:44:18.001Z</time></trkpt><trkpt lat="42.92860448338175" lon="-1.505629367411616"><ele>534.0</ele><time>2026-04-29T15:44:19.001Z</time></trkpt><trkpt lat="42.928506459898685" lon="-1.5056768986573792"><ele>534.0</ele><time>2026-04-29T15:44:20.001Z</time></trkpt><trkpt lat="42.92840709924514" lon="-1.5057267081896357"><ele>534.0</ele><time>2026-04-29T15:44:21.001Z</time></trkpt><trkpt lat="42.928309987651524" lon="-1.5057786508636914"><ele>534.0</ele><time>2026-04-29T15:44:22.001Z</time></trkpt><trkpt lat="42.92820941867342" lon="-1.5058272340537078"><ele>534.0</ele><time>2026-04-29T15:44:23.001Z</time></trkpt><trkpt lat="42.92811070942669" lon="-1.5058743382710016"><ele>534.0</ele><time>2026-04-29T15:44:24.001Z</time></trkpt><trkpt lat="42.928011234881545" lon="-1.5059238973472515"><ele>532.4</ele><time>2026-04-29T15:44:25.001Z</time></trkpt><trkpt lat="42.927913145776365" lon="-1.5059760488364402"><ele>530.8</ele><time>2026-04-29T15:44:26.001Z</time></trkpt><trkpt lat="42.92782052146575" lon="-1.506038271997272"><ele>529.2</ele><time>2026-04-29T15:44:27.001Z</time></trkpt><trkpt lat="42.927728953931876" lon="-1.5061009578171045"><ele>527.6</ele><time>2026-04-29T15:44:28.001Z</time></trkpt><trkpt lat="42.92763828630501" lon="-1.506171086096416"><ele>526.0</ele><time>2026-04-29T15:44:29.001Z</time></trkpt><trkpt lat="42.927549121906" lon="-1.5062430544402512"><ele>527.2</ele><time>2026-04-29T15:44:30.001Z</time></trkpt><trkpt lat="42.927460148425254" lon="-1.5063190150630008"><ele>528.4000000000001</ele><time>2026-04-29T15:44:31.001Z</time></trkpt><trkpt lat="42.927374582223024" lon="-1.5063980628030962"><ele>529.6</ele><time>2026-04-29T15:44:32.001Z</time></trkpt><trkpt lat="42.927285601849356" lon="-1.5064722364124181"><ele>530.8000000000001</ele><time>2026-04-29T15:44:33.001Z</time></trkpt><trkpt lat="42.92719585925556" lon="-1.5065467557819265"><ele>532.0</ele><time>2026-04-29T15:44:34.001Z</time></trkpt><trkpt lat="42.927107188370755" lon="-1.5066255371007746"><ele>532.0</ele><time>2026-04-29T15:44:35.001Z</time></trkpt><trkpt lat="42.92701790924734" lon="-1.5067025599382804"><ele>532.0</ele><time>2026-04-29T15:44:36.001Z</time></trkpt><trkpt lat="42.92692908231458" lon="-1.5067829583550958"><ele>532.0</ele><time>2026-04-29T15:44:37.001Z</time></trkpt><trkpt lat="42.92684082809812" lon="-1.5068604658280034"><ele>532.0</ele><time>2026-04-29T15:44:38.001Z</time></trkpt><trkpt lat="42.92675173557759" lon="-1.5069400426262285"><ele>532.0</ele><time>2026-04-29T15:44:39.001Z</time></trkpt><trkpt lat="42.92666307925711" lon="-1.5070200393735498"><ele>532.8000000000001</ele><time>2026-04-29T15:44:40.001Z</time></trkpt><trkpt lat="42.926575895744755" lon="-1.5070999158903242"><ele>533.6</ele><time>2026-04-29T15:44:41.001Z</time></trkpt><trkpt lat="42.92648469452848" lon="-1.5071808012473342"><ele>534.4000000000001</ele><time>2026-04-29T15:44:42.001Z</time></trkpt><trkpt lat="42.926394866997576" lon="-1.507263179364596"><ele>535.2</ele><time>2026-04-29T15:44:43.001Z</time></trkpt><trkpt lat="42.92630432848694" lon="-1.5073434847359235"><ele>536.0</ele><time>2026-04-29T15:44:44.001Z</time></trkpt><trkpt lat="42.926211925478725" lon="-1.5074248304551912"><ele>536.0</ele><time>2026-04-29T15:44:45.001Z</time></trkpt><trkpt lat="42.92612136912697" lon="-1.50750732255253"><ele>536.0</ele><time>2026-04-29T15:44:46.001Z</time></trkpt><trkpt lat="42.92603334829419" lon="-1.5075890145015822"><ele>536.0</ele><time>2026-04-29T15:44:47.001Z</time></trkpt><trkpt lat="42.92594427985811" lon="-1.5076662547442778"><ele>536.0</ele><time>2026-04-29T15:44:48.001Z</time></trkpt><trkpt lat="42.92585506356417" lon="-1.5077432911449564"><ele>536.0</ele><time>2026-04-29T15:44:49.001Z</time></trkpt><trkpt lat="42.92576744659335" lon="-1.5078187474555051"><ele>537.2</ele><time>2026-04-29T15:44:50.001Z</time></trkpt><trkpt lat="42.925677369150606" lon="-1.5078933926485776"><ele>538.4000000000001</ele><time>2026-04-29T15:44:51.001Z</time></trkpt><trkpt lat="42.925588586378645" lon="-1.5079694033710422"><ele>539.6</ele><time>2026-04-29T15:44:52.001Z</time></trkpt><trkpt lat="42.92550269177878" lon="-1.5080423854611111"><ele>540.8000000000001</ele><time>2026-04-29T15:44:53.001Z</time></trkpt><trkpt lat="42.92541061502136" lon="-1.508111478923498"><ele>542.0</ele><time>2026-04-29T15:44:54.001Z</time></trkpt><trkpt lat="42.92531676676448" lon="-1.5081832298149984"><ele>542.0</ele><time>2026-04-29T15:44:55.001Z</time></trkpt><trkpt lat="42.925220337941546" lon="-1.5082541846799047"><ele>542.0</ele><time>2026-04-29T15:44:56.001Z</time></trkpt><trkpt lat="42.92512592006157" lon="-1.508328335141307"><ele>542.0</ele><time>2026-04-29T15:44:57.001Z</time></trkpt><trkpt lat="42.925030016406936" lon="-1.5083999278057822"><ele>542.0</ele><time>2026-04-29T15:44:58.001Z</time></trkpt><trkpt lat="42.92493178671153" lon="-1.5084735520021408"><ele>542.0</ele><time>2026-04-29T15:44:59.001Z</time></trkpt><trkpt lat="42.92483543866765" lon="-1.5085479583979624"><ele>542.2</ele><time>2026-04-29T15:45:00.001Z</time></trkpt><trkpt lat="42.92473959934589" lon="-1.5086182831420076"><ele>542.4000000000001</ele><time>2026-04-29T15:45:01.001Z</time></trkpt><trkpt lat="42.924647207263035" lon="-1.5086909549146248"><ele>542.5999999999999</ele><time>2026-04-29T15:45:02.001Z</time></trkpt><trkpt lat="42.92455194677805" lon="-1.508759356645535"><ele>542.8</ele><time>2026-04-29T15:45:03.001Z</time></trkpt><trkpt lat="42.92445994762261" lon="-1.5088268085058014"><ele>543.0</ele><time>2026-04-29T15:45:04.001Z</time></trkpt><trkpt lat="42.9243682980209" lon="-1.5088956915748546"><ele>543.0</ele><time>2026-04-29T15:45:05.001Z</time></trkpt><trkpt lat="42.92427653803218" lon="-1.5089656334788475"><ele>543.0</ele><time>2026-04-29T15:45:06.001Z</time></trkpt><trkpt lat="42.924183590815396" lon="-1.5090342230070426"><ele>543.0</ele><time>2026-04-29T15:45:07.001Z</time></trkpt><trkpt lat="42.924092129548065" lon="-1.5091020248806648"><ele>543.0</ele><time>2026-04-29T15:45:08.001Z</time></trkpt><trkpt lat="42.924001284950585" lon="-1.509169510613965"><ele>543.0</ele><time>2026-04-29T15:45:09.001Z</time></trkpt><trkpt lat="42.923912184005786" lon="-1.5092381521488614"><ele>542.6</ele><time>2026-04-29T15:45:10.002Z</time></trkpt><trkpt lat="42.92382406292756" lon="-1.5093057526699498"><ele>542.1999999999999</ele><time>2026-04-29T15:45:11.002Z</time></trkpt><trkpt lat="42.92373497361942" lon="-1.5093780797672522"><ele>541.8</ele><time>2026-04-29T15:45:12.002Z</time></trkpt><trkpt lat="42.923648509772825" lon="-1.5094497662989763"><ele>541.4</ele><time>2026-04-29T15:45:13.002Z</time></trkpt><trkpt lat="42.92356292093981" lon="-1.5095274323319958"><ele>541.0</ele><time>2026-04-29T15:45:14.002Z</time></trkpt><trkpt lat="42.923479457272045" lon="-1.5096109736487735"><ele>538.6</ele><time>2026-04-29T15:45:15.002Z</time></trkpt><trkpt lat="42.923393353" lon="-1.5096991931162662"><ele>536.2</ele><time>2026-04-29T15:45:16.002Z</time></trkpt><trkpt lat="42.923306435637215" lon="-1.5097919690035664"><ele>533.8</ele><time>2026-04-29T15:45:17.002Z</time></trkpt><trkpt lat="42.92322292398951" lon="-1.5098800092738098"><ele>531.4</ele><time>2026-04-29T15:45:18Z</time></trkpt><trkpt lat="42.923140712312176" lon="-1.5099708927877604"><ele>529.0</ele><time>2026-04-29T15:45:19Z</time></trkpt><trkpt lat="42.923058541709565" lon="-1.510060771127783"><ele>529.0</ele><time>2026-04-29T15:45:20Z</time></trkpt><trkpt lat="42.922977410926215" lon="-1.5101529933961533"><ele>529.0</ele><time>2026-04-29T15:45:21Z</time></trkpt><trkpt lat="42.92289617849096" lon="-1.5102469998249302"><ele>529.0</ele><time>2026-04-29T15:45:22Z</time></trkpt><trkpt lat="42.92281567186568" lon="-1.5103417733898234"><ele>529.0</ele><time>2026-04-29T15:45:23Z</time></trkpt><trkpt lat="42.9227339586567" lon="-1.5104374914907719"><ele>529.0</ele><time>2026-04-29T15:45:24Z</time></trkpt><trkpt lat="42.92265119591754" lon="-1.5105359878252202"><ele>528.8</ele><time>2026-04-29T15:45:25Z</time></trkpt><trkpt lat="42.92256834169461" lon="-1.5106373126243926"><ele>528.5999999999999</ele><time>2026-04-29T15:45:26Z</time></trkpt><trkpt lat="42.922484952225325" lon="-1.5107377267218423"><ele>528.4</ele><time>2026-04-29T15:45:27Z</time></trkpt><trkpt lat="42.92240008248878" lon="-1.5108371997996373"><ele>528.1999999999999</ele><time>2026-04-29T15:45:28Z</time></trkpt><trkpt lat="42.92231776011434" lon="-1.5109326613814298"><ele>528.0</ele><time>2026-04-29T15:45:29Z</time></trkpt><trkpt lat="42.922234998167326" lon="-1.5110275772419581"><ele>528.0</ele><time>2026-04-29T15:45:30Z</time></trkpt><trkpt lat="42.92215321715237" lon="-1.5111248177475693"><ele>528.0</ele><time>2026-04-29T15:45:31Z</time></trkpt><trkpt lat="42.92207098663725" lon="-1.5112233727448394"><ele>528.0</ele><time>2026-04-29T15:45:32Z</time></trkpt><trkpt lat="42.92198874226983" lon="-1.5113205824529752"><ele>528.0</ele><time>2026-04-29T15:45:33Z</time></trkpt><trkpt lat="42.92190617057222" lon="-1.511418651647164"><ele>528.0</ele><time>2026-04-29T15:45:34Z</time></trkpt><trkpt lat="42.92182661032899" lon="-1.5115150009019827"><ele>527.1999999999999</ele><time>2026-04-29T15:45:35Z</time></trkpt><trkpt lat="42.92174600341661" lon="-1.511612710407988"><ele>526.4</ele><time>2026-04-29T15:45:36Z</time></trkpt><trkpt lat="42.92166676191294" lon="-1.5117124915009572"><ele>525.5999999999999</ele><time>2026-04-29T15:45:37Z</time></trkpt><trkpt lat="42.92158652608114" lon="-1.511809434397637"><ele>524.8</ele><time>2026-04-29T15:45:38Z</time></trkpt><trkpt lat="42.921505856311235" lon="-1.511904347831138"><ele>524.0</ele><time>2026-04-29T15:45:39Z</time></trkpt><trkpt lat="42.921428518606184" lon="-1.5120033798033736"><ele>526.8</ele><time>2026-04-29T15:45:40Z</time></trkpt><trkpt lat="42.92135296939731" lon="-1.5121095737430843"><ele>529.5999999999999</ele><time>2026-04-29T15:45:41Z</time></trkpt><trkpt lat="42.92127683445673" lon="-1.512222585988213"><ele>532.4</ele><time>2026-04-29T15:45:42Z</time></trkpt><trkpt lat="42.92120146674808" lon="-1.5123323574426881"><ele>535.1999999999999</ele><time>2026-04-29T15:45:43Z</time></trkpt><trkpt lat="42.92112759221659" lon="-1.5124452137317648"><ele>538.0</ele><time>2026-04-29T15:45:44Z</time></trkpt><trkpt lat="42.92105277382166" lon="-1.5125580622537609"><ele>538.0</ele><time>2026-04-29T15:45:45Z</time></trkpt><trkpt lat="42.9209807491177" lon="-1.512669331795029"><ele>538.0</ele><time>2026-04-29T15:45:46Z</time></trkpt><trkpt lat="42.92090814456398" lon="-1.5127851382806432"><ele>538.0</ele><time>2026-04-29T15:45:47Z</time></trkpt><trkpt lat="42.92083548636593" lon="-1.5128985064932798"><ele>538.0</ele><time>2026-04-29T15:45:48Z</time></trkpt><trkpt lat="42.9207641699182" lon="-1.5130106853542535"><ele>538.0</ele><time>2026-04-29T15:45:49Z</time></trkpt><trkpt lat="42.92069385305446" lon="-1.5131246297216379"><ele>536.8</ele><time>2026-04-29T15:45:50Z</time></trkpt><trkpt lat="42.92062503890725" lon="-1.513235275897952"><ele>535.5999999999999</ele><time>2026-04-29T15:45:51Z</time></trkpt><trkpt lat="42.92055428579251" lon="-1.5133502132045236"><ele>534.4000000000001</ele><time>2026-04-29T15:45:52Z</time></trkpt><trkpt lat="42.92048392628066" lon="-1.5134679982466734"><ele>533.2</ele><time>2026-04-29T15:45:53Z</time></trkpt><trkpt lat="42.92041410574696" lon="-1.5135854971808078"><ele>532.0</ele><time>2026-04-29T15:45:54Z</time></trkpt><trkpt lat="42.92034274915225" lon="-1.5137119542544821"><ele>530.0</ele><time>2026-04-29T15:45:55Z</time></trkpt><trkpt lat="42.92027001894376" lon="-1.5138402694893707"><ele>528.0</ele><time>2026-04-29T15:45:56Z</time></trkpt><trkpt lat="42.92020004410942" lon="-1.513971999948846"><ele>526.0</ele><time>2026-04-29T15:45:57Z</time></trkpt><trkpt lat="42.920131811367376" lon="-1.5140962441059571"><ele>524.0</ele><time>2026-04-29T15:45:58Z</time></trkpt><trkpt lat="42.92006166728025" lon="-1.514219931742486"><ele>524.0</ele><time>2026-04-29T15:45:59Z</time></trkpt><trkpt lat="42.91998856918192" lon="-1.514344567612322"><ele>524.0</ele><time>2026-04-29T15:46:00Z</time></trkpt><trkpt lat="42.91991426481583" lon="-1.5144643214216373"><ele>524.0</ele><time>2026-04-29T15:46:01Z</time></trkpt><trkpt lat="42.919837087744206" lon="-1.5145821489631297"><ele>524.0</ele><time>2026-04-29T15:46:02Z</time></trkpt><trkpt lat="42.91975912132707" lon="-1.5146958029819264"><ele>526.5</ele><time>2026-04-29T15:46:03Z</time></trkpt><trkpt lat="42.91967847130262" lon="-1.5148069811873612"><ele>529.0</ele><time>2026-04-29T15:46:04Z</time></trkpt><trkpt lat="42.91959740918412" lon="-1.5149165468250432"><ele>531.5</ele><time>2026-04-29T15:46:05Z</time></trkpt><trkpt lat="42.919516813750874" lon="-1.5150256905795119"><ele>534.0</ele><time>2026-04-29T15:46:06Z</time></trkpt><trkpt lat="42.919436106289275" lon="-1.5151342068519897"><ele>534.0</ele><time>2026-04-29T15:46:07Z</time></trkpt><trkpt lat="42.9193548805631" lon="-1.5152382439923007"><ele>534.0</ele><time>2026-04-29T15:46:08Z</time></trkpt><trkpt lat="42.91927498928207" lon="-1.5153452308102402"><ele>534.0</ele><time>2026-04-29T15:46:09Z</time></trkpt><trkpt lat="42.91919495194913" lon="-1.5154532680381516"><ele>534.0</ele><time>2026-04-29T15:46:10.001Z</time></trkpt><trkpt lat="42.91911300909676" lon="-1.5155604778423164"><ele>534.0</ele><time>2026-04-29T15:46:11.001Z</time></trkpt><trkpt lat="42.91903074220641" lon="-1.5156697597337914"><ele>532.0</ele><time>2026-04-29T15:46:12.001Z</time></trkpt><trkpt lat="42.918947191841404" lon="-1.51577779578004"><ele>530.0</ele><time>2026-04-29T15:46:13.001Z</time></trkpt><trkpt lat="42.918863327617316" lon="-1.5158809415841445"><ele>528.0</ele><time>2026-04-29T15:46:14.001Z</time></trkpt><trkpt lat="42.918778401191226" lon="-1.5159824415766583"><ele>526.0</ele><time>2026-04-29T15:46:15.001Z</time></trkpt><trkpt lat="42.91869148313905" lon="-1.5160794776118598"><ele>526.0</ele><time>2026-04-29T15:46:16.001Z</time></trkpt><trkpt lat="42.9186006450268" lon="-1.5161736375571264"><ele>526.0</ele><time>2026-04-29T15:46:17.001Z</time></trkpt><trkpt lat="42.91850768609982" lon="-1.5162573816181988"><ele>526.0</ele><time>2026-04-29T15:46:18.001Z</time></trkpt><trkpt lat="42.918414970547545" lon="-1.5163347625151093"><ele>526.0</ele><time>2026-04-29T15:46:19.001Z</time></trkpt><trkpt lat="42.918321371319905" lon="-1.5164112488673638"><ele>526.0</ele><time>2026-04-29T15:46:20.001Z</time></trkpt><trkpt lat="42.918226501714436" lon="-1.5164945778157317"><ele>525.6</ele><time>2026-04-29T15:46:21.001Z</time></trkpt><trkpt lat="42.918131456472636" lon="-1.516566210098653"><ele>525.2</ele><time>2026-04-29T15:46:22.001Z</time></trkpt><trkpt lat="42.918038180400096" lon="-1.5166356187950252"><ele>524.8</ele><time>2026-04-29T15:46:23.001Z</time></trkpt><trkpt lat="42.91794882268069" lon="-1.5167143070367337"><ele>524.4</ele><time>2026-04-29T15:46:24.001Z</time></trkpt><trkpt lat="42.91785821462574" lon="-1.5167969079266272"><ele>524.0</ele><time>2026-04-29T15:46:25.001Z</time></trkpt><trkpt lat="42.91776724902996" lon="-1.5168818885836142"><ele>524.0</ele><time>2026-04-29T15:46:26.001Z</time></trkpt><trkpt lat="42.91767719090876" lon="-1.5169656437953385"><ele>524.0</ele><time>2026-04-29T15:46:27.001Z</time></trkpt><trkpt lat="42.91758665572851" lon="-1.517050513254983"><ele>524.0</ele><time>2026-04-29T15:46:28.001Z</time></trkpt><trkpt lat="42.91749366737047" lon="-1.5171309719337545"><ele>524.0</ele><time>2026-04-29T15:46:29.001Z</time></trkpt><trkpt lat="42.91740299135089" lon="-1.5172077030433724"><ele>524.0</ele><time>2026-04-29T15:46:30.001Z</time></trkpt><trkpt lat="42.91731162079344" lon="-1.5172853772174129"><ele>524.2</ele><time>2026-04-29T15:46:31.001Z</time></trkpt><trkpt lat="42.9172205597804" lon="-1.5173623563426533"><ele>524.4</ele><time>2026-04-29T15:46:32.001Z</time></trkpt><trkpt lat="42.91712893985128" lon="-1.5174351612856396"><ele>524.6</ele><time>2026-04-29T15:46:33.001Z</time></trkpt><trkpt lat="42.91703691785641" lon="-1.51750952994571"><ele>524.8</ele><time>2026-04-29T15:46:34.001Z</time></trkpt><trkpt lat="42.91694715595247" lon="-1.5175851069325113"><ele>525.0</ele><time>2026-04-29T15:46:35.001Z</time></trkpt><trkpt lat="42.91685556182612" lon="-1.5176613002572183"><ele>525.0</ele><time>2026-04-29T15:46:36.001Z</time></trkpt><trkpt lat="42.91676497677015" lon="-1.517734642692084"><ele>525.0</ele><time>2026-04-29T15:46:37.001Z</time></trkpt><trkpt lat="42.91667381107753" lon="-1.5178058760017572"><ele>525.0</ele><time>2026-04-29T15:46:38.001Z</time></trkpt><trkpt lat="42.91658426878434" lon="-1.5178793024674566"><ele>525.0</ele><time>2026-04-29T15:46:39.001Z</time></trkpt><trkpt lat="42.91649254654446" lon="-1.5179554867794738"><ele>525.0</ele><time>2026-04-29T15:46:40.001Z</time></trkpt><trkpt lat="42.91640142158082" lon="-1.5180276699240711"><ele>525.0</ele><time>2026-04-29T15:46:41.001Z</time></trkpt><trkpt lat="42.91631001084746" lon="-1.5180973748765585"><ele>525.0</ele><time>2026-04-29T15:46:42.001Z</time></trkpt><trkpt lat="42.91621729861742" lon="-1.518166830215876"><ele>525.0</ele><time>2026-04-29T15:46:43.001Z</time></trkpt><trkpt lat="42.91612632316299" lon="-1.518234992226367"><ele>525.0</ele><time>2026-04-29T15:46:44.001Z</time></trkpt><trkpt lat="42.916038434601646" lon="-1.5183078477755831"><ele>525.0</ele><time>2026-04-29T15:46:45.001Z</time></trkpt><trkpt lat="42.9159474037259" lon="-1.5183846885209678"><ele>525.0</ele><time>2026-04-29T15:46:46.001Z</time></trkpt><trkpt lat="42.91585747801082" lon="-1.5184561999125927"><ele>525.0</ele><time>2026-04-29T15:46:47.001Z</time></trkpt><trkpt lat="42.915768180799496" lon="-1.5185283249623556"><ele>525.0</ele><time>2026-04-29T15:46:48.001Z</time></trkpt><trkpt lat="42.9156803445269" lon="-1.5186012320202738"><ele>525.0</ele><time>2026-04-29T15:46:49.001Z</time></trkpt><trkpt lat="42.91559319544975" lon="-1.518677670810082"><ele>525.0</ele><time>2026-04-29T15:46:50.001Z</time></trkpt><trkpt lat="42.915509718054594" lon="-1.5187600195818984"><ele>525.0</ele><time>2026-04-29T15:46:51.001Z</time></trkpt><trkpt lat="42.91542909053467" lon="-1.518849905006492"><ele>525.0</ele><time>2026-04-29T15:46:52.001Z</time></trkpt><trkpt lat="42.91535560657988" lon="-1.5189488719800095"><ele>525.0</ele><time>2026-04-29T15:46:53.001Z</time></trkpt><trkpt lat="42.9152853332675" lon="-1.5190520746298328"><ele>525.0</ele><time>2026-04-29T15:46:54.001Z</time></trkpt><trkpt lat="42.91521698440197" lon="-1.5191568962842983"><ele>525.0</ele><time>2026-04-29T15:46:55.001Z</time></trkpt><trkpt lat="42.91515290948131" lon="-1.5192684910508005"><ele>525.0</ele><time>2026-04-29T15:46:56.001Z</time></trkpt><trkpt lat="42.91509229376917" lon="-1.5193824656059247"><ele>525.0</ele><time>2026-04-29T15:46:57.001Z</time></trkpt><trkpt lat="42.91502952839085" lon="-1.5194941909830273"><ele>525.0</ele><time>2026-04-29T15:46:58.001Z</time></trkpt><trkpt lat="42.914968816461254" lon="-1.5196069612847973"><ele>525.0</ele><time>2026-04-29T15:46:59.001Z</time></trkpt><trkpt lat="42.914906941751006" lon="-1.5197178224512056"><ele>525.0</ele><time>2026-04-29T15:47:00.001Z</time></trkpt><trkpt lat="42.91484825596084" lon="-1.5198334923301964"><ele>523.4</ele><time>2026-04-29T15:47:01.001Z</time></trkpt><trkpt lat="42.914787650492435" lon="-1.5199454102917127"><ele>521.8</ele><time>2026-04-29T15:47:02.001Z</time></trkpt><trkpt lat="42.914727924150064" lon="-1.5200563565179717"><ele>520.2</ele><time>2026-04-29T15:47:03.001Z</time></trkpt><trkpt lat="42.914669347200615" lon="-1.5201710161148139"><ele>518.6</ele><time>2026-04-29T15:47:04.001Z</time></trkpt><trkpt lat="42.91461276416749" lon="-1.5202846284075708"><ele>517.0</ele><time>2026-04-29T15:47:05.001Z</time></trkpt><trkpt lat="42.914554399327606" lon="-1.5203967428916516"><ele>518.4</ele><time>2026-04-29T15:47:06.001Z</time></trkpt><trkpt lat="42.91449415515288" lon="-1.5205104920291745"><ele>519.8000000000001</ele><time>2026-04-29T15:47:07.001Z</time></trkpt><trkpt lat="42.91443343461305" lon="-1.5206205446437273"><ele>521.2</ele><time>2026-04-29T15:47:08.001Z</time></trkpt><trkpt lat="42.91437466280235" lon="-1.5207300505819799"><ele>522.6</ele><time>2026-04-29T15:47:09.001Z</time></trkpt><trkpt lat="42.91431773594036" lon="-1.5208451801921594"><ele>524.0</ele><time>2026-04-29T15:47:10.001Z</time></trkpt><trkpt lat="42.914260289130034" lon="-1.5209567760583693"><ele>522.6</ele><time>2026-04-29T15:47:11.001Z</time></trkpt><trkpt lat="42.91420284005096" lon="-1.5210646563467483"><ele>521.2</ele><time>2026-04-29T15:47:12.001Z</time></trkpt><trkpt lat="42.91414626780837" lon="-1.5211710019272846"><ele>519.8000000000001</ele><time>2026-04-29T15:47:13.001Z</time></trkpt><trkpt lat="42.91409073501789" lon="-1.521276602957002"><ele>518.4</ele><time>2026-04-29T15:47:14.001Z</time></trkpt><trkpt lat="42.91402886951886" lon="-1.5213764305829045"><ele>517.0</ele><time>2026-04-29T15:47:15.001Z</time></trkpt><trkpt lat="42.91396626806913" lon="-1.5214700539547907"><ele>517.0</ele><time>2026-04-29T15:47:16.002Z</time></trkpt><trkpt lat="42.91390452169714" lon="-1.5215673715607079"><ele>517.0</ele><time>2026-04-29T15:47:17.002Z</time></trkpt><trkpt lat="42.91384018341992" lon="-1.5216640535302703"><ele>517.0</ele><time>2026-04-29T15:47:18.002Z</time></trkpt><trkpt lat="42.913772566368166" lon="-1.521755374149619"><ele>517.0</ele><time>2026-04-29T15:47:19.002Z</time></trkpt><trkpt lat="42.91370375455354" lon="-1.5218438110687382"><ele>517.0</ele><time>2026-04-29T15:47:20.002Z</time></trkpt><trkpt lat="42.91362993522616" lon="-1.5219258522327002"><ele>517.0</ele><time>2026-04-29T15:47:21.002Z</time></trkpt><trkpt lat="42.91355595843588" lon="-1.521999595246037"><ele>517.0</ele><time>2026-04-29T15:47:22.002Z</time></trkpt><trkpt lat="42.913482887036274" lon="-1.5220727518950683"><ele>517.0</ele><time>2026-04-29T15:47:23.002Z</time></trkpt><trkpt lat="42.913404404429556" lon="-1.5221440064482363"><ele>517.0</ele><time>2026-04-29T15:47:24Z</time></trkpt><trkpt lat="42.91332293435961" lon="-1.5222054263557148"><ele>517.0</ele><time>2026-04-29T15:47:25Z</time></trkpt><trkpt lat="42.9132426178798" lon="-1.5222668057191957"><ele>516.2</ele><time>2026-04-29T15:47:26Z</time></trkpt><trkpt lat="42.91315727491634" lon="-1.522323931641207"><ele>515.4000000000001</ele><time>2026-04-29T15:47:27Z</time></trkpt><trkpt lat="42.913072713114694" lon="-1.5223789039918803"><ele>514.5999999999999</ele><time>2026-04-29T15:47:28Z</time></trkpt><trkpt lat="42.91298873180292" lon="-1.5224318102166308"><ele>513.8</ele><time>2026-04-29T15:47:29Z</time></trkpt><trkpt lat="42.91290718714223" lon="-1.522486824969936"><ele>513.0</ele><time>2026-04-29T15:47:30Z</time></trkpt><trkpt lat="42.91283006403623" lon="-1.5225388542814517"><ele>513.0</ele><time>2026-04-29T15:47:31Z</time></trkpt><trkpt lat="42.912756891185595" lon="-1.5225865061981063"><ele>513.0</ele><time>2026-04-29T15:47:32Z</time></trkpt><trkpt lat="42.91268833919711" lon="-1.5226303859399455"><ele>513.0</ele><time>2026-04-29T15:47:33Z</time></trkpt><trkpt lat="42.912624172756395" lon="-1.5226728857556255"><ele>513.0</ele><time>2026-04-29T15:47:34Z</time></trkpt><trkpt lat="42.91256704599296" lon="-1.5227103708796232"><ele>513.0</ele><time>2026-04-29T15:47:35Z</time></trkpt><trkpt lat="42.912465976963894" lon="-1.5227738768782093"><ele>513.0</ele><time>2026-04-29T15:47:37Z</time></trkpt><trkpt lat="42.91236287540341" lon="-1.522841560520873"><ele>513.0</ele><time>2026-04-29T15:47:39Z</time></trkpt><trkpt lat="42.91225410023099" lon="-1.5229113368169633"><ele>513.0</ele><time>2026-04-29T15:47:41Z</time></trkpt><trkpt lat="42.912149630569985" lon="-1.5229925387467438"><ele>513.0</ele><time>2026-04-29T15:47:43Z</time></trkpt><trkpt lat="42.91204438645455" lon="-1.5230776034966613"><ele>513.0</ele><time>2026-04-29T15:47:45Z</time></trkpt><trkpt lat="42.91194034581288" lon="-1.5231765629480378"><ele>513.0</ele><time>2026-04-29T15:47:47Z</time></trkpt><trkpt lat="42.91183983082453" lon="-1.5232869551776225"><ele>513.0</ele><time>2026-04-29T15:47:49Z</time></trkpt><trkpt lat="42.9117861626915" lon="-1.5233530512767104"><ele>513.0</ele><time>2026-04-29T15:47:50Z</time></trkpt><trkpt lat="42.91172982217215" lon="-1.5234226283049044"><ele>513.0</ele><time>2026-04-29T15:47:51Z</time></trkpt><trkpt lat="42.911673499794254" lon="-1.52349419929763"><ele>513.0</ele><time>2026-04-29T15:47:52Z</time></trkpt><trkpt lat="42.911620872958046" lon="-1.5235789537774589"><ele>513.0</ele><time>2026-04-29T15:47:53Z</time></trkpt><trkpt lat="42.91156664327811" lon="-1.5236685370201792"><ele>512.8</ele><time>2026-04-29T15:47:54Z</time></trkpt><trkpt lat="42.911511100746935" lon="-1.5237616725429743"><ele>512.5999999999999</ele><time>2026-04-29T15:47:55Z</time></trkpt><trkpt lat="42.911461799038825" lon="-1.5238651718754492"><ele>512.4000000000001</ele><time>2026-04-29T15:47:56Z</time></trkpt><trkpt lat="42.91141626838562" lon="-1.523976888366115"><ele>512.2</ele><time>2026-04-29T15:47:57Z</time></trkpt><trkpt lat="42.91137036222612" lon="-1.5240954788472891"><ele>512.0</ele><time>2026-04-29T15:47:58Z</time></trkpt><trkpt lat="42.91132868749291" lon="-1.5242200292724861"><ele>512.0</ele><time>2026-04-29T15:47:59Z</time></trkpt><trkpt lat="42.911288842548466" lon="-1.5243487736165333"><ele>512.0</ele><time>2026-04-29T15:48:00Z</time></trkpt><trkpt lat="42.91125225510022" lon="-1.5244794054109245"><ele>512.0</ele><time>2026-04-29T15:48:01Z</time></trkpt><trkpt lat="42.91122197351413" lon="-1.5246146728043513"><ele>512.0</ele><time>2026-04-29T15:48:02Z</time></trkpt><trkpt lat="42.91119642312039" lon="-1.524752877819491"><ele>512.0</ele><time>2026-04-29T15:48:03Z</time></trkpt><trkpt lat="42.9111806459221" lon="-1.5248924061068752"><ele>512.4</ele><time>2026-04-29T15:48:04Z</time></trkpt><trkpt lat="42.911170052232144" lon="-1.5250357042186626"><ele>512.8000000000001</ele><time>2026-04-29T15:48:05Z</time></trkpt><trkpt lat="42.91115936313557" lon="-1.5251806451323477"><ele>513.2</ele><time>2026-04-29T15:48:06Z</time></trkpt><trkpt lat="42.911149027811476" lon="-1.5253229207846333"><ele>513.6</ele><time>2026-04-29T15:48:07Z</time></trkpt><trkpt lat="42.91113999883179" lon="-1.525463674539845"><ele>514.0</ele><time>2026-04-29T15:48:08Z</time></trkpt><trkpt lat="42.911131527432076" lon="-1.5256040211472162"><ele>514.2</ele><time>2026-04-29T15:48:09Z</time></trkpt><trkpt lat="42.91112271591257" lon="-1.5257453980372089"><ele>514.4</ele><time>2026-04-29T15:48:10Z</time></trkpt><trkpt lat="42.91111478262698" lon="-1.5258860766126374"><ele>514.6</ele><time>2026-04-29T15:48:11Z</time></trkpt><trkpt lat="42.91110660436337" lon="-1.526024994526945"><ele>514.8</ele><time>2026-04-29T15:48:12Z</time></trkpt><trkpt lat="42.91109957877038" lon="-1.526164713113055"><ele>515.0</ele><time>2026-04-29T15:48:13Z</time></trkpt><trkpt lat="42.911090910931016" lon="-1.5263022654390976"><ele>515.8</ele><time>2026-04-29T15:48:14Z</time></trkpt><trkpt lat="42.911080849553734" lon="-1.5264393982110889"><ele>516.6</ele><time>2026-04-29T15:48:15Z</time></trkpt><trkpt lat="42.91106753386622" lon="-1.526575989700368"><ele>517.4</ele><time>2026-04-29T15:48:16Z</time></trkpt><trkpt lat="42.91105415515567" lon="-1.5267124406455104"><ele>518.2</ele><time>2026-04-29T15:48:17.001Z</time></trkpt><trkpt lat="42.911038257920644" lon="-1.526844837191915"><ele>519.0</ele><time>2026-04-29T15:48:18.001Z</time></trkpt><trkpt lat="42.911025500394096" lon="-1.5269786732708228"><ele>520.2</ele><time>2026-04-29T15:48:19.001Z</time></trkpt><trkpt lat="42.91101210083052" lon="-1.5271136865183974"><ele>521.4</ele><time>2026-04-29T15:48:20.001Z</time></trkpt><trkpt lat="42.910995270013146" lon="-1.5272465393117884"><ele>522.6</ele><time>2026-04-29T15:48:21.001Z</time></trkpt><trkpt lat="42.91097488120325" lon="-1.5273792057514928"><ele>523.8</ele><time>2026-04-29T15:48:22.001Z</time></trkpt><trkpt lat="42.91095044281549" lon="-1.5275124547216525"><ele>525.0</ele><time>2026-04-29T15:48:23.001Z</time></trkpt><trkpt lat="42.910923460114994" lon="-1.5276463773456161"><ele>522.6</ele><time>2026-04-29T15:48:24.001Z</time></trkpt><trkpt lat="42.91089344086341" lon="-1.5277758945052071"><ele>520.2</ele><time>2026-04-29T15:48:25.001Z</time></trkpt><trkpt lat="42.91085975427226" lon="-1.5279092678443744"><ele>517.8</ele><time>2026-04-29T15:48:26.001Z</time></trkpt><trkpt lat="42.91082360599248" lon="-1.5280411578117037"><ele>515.4</ele><time>2026-04-29T15:48:27.001Z</time></trkpt><trkpt lat="42.910787743694414" lon="-1.5281730972120715"><ele>513.0</ele><time>2026-04-29T15:48:28.001Z</time></trkpt><trkpt lat="42.91075284396361" lon="-1.5283070162985906"><ele>513.0</ele><time>2026-04-29T15:48:29.001Z</time></trkpt><trkpt lat="42.91071992761128" lon="-1.5284395725951865"><ele>513.0</ele><time>2026-04-29T15:48:30.001Z</time></trkpt><trkpt lat="42.910683130166284" lon="-1.528577290170228"><ele>513.0</ele><time>2026-04-29T15:48:31.001Z</time></trkpt><trkpt lat="42.91064699082676" lon="-1.5287128430316113"><ele>513.0</ele><time>2026-04-29T15:48:32.001Z</time></trkpt><trkpt lat="42.910608925198" lon="-1.5288475574033702"><ele>513.0</ele><time>2026-04-29T15:48:33.001Z</time></trkpt><trkpt lat="42.91057237176326" lon="-1.5289833699766937"><ele>513.4</ele><time>2026-04-29T15:48:34.001Z</time></trkpt><trkpt lat="42.9105349796087" lon="-1.529119599608448"><ele>513.8</ele><time>2026-04-29T15:48:35.001Z</time></trkpt><trkpt lat="42.91049673610117" lon="-1.5292553231559698"><ele>514.2</ele><time>2026-04-29T15:48:36.001Z</time></trkpt><trkpt lat="42.910458518916855" lon="-1.5293896493086518"><ele>514.6</ele><time>2026-04-29T15:48:37.001Z</time></trkpt><trkpt lat="42.910421425949544" lon="-1.5295244733438056"><ele>515.0</ele><time>2026-04-29T15:48:38.001Z</time></trkpt><trkpt lat="42.91038377309302" lon="-1.5296600850649495"><ele>515.6</ele><time>2026-04-29T15:48:39.001Z</time></trkpt><trkpt lat="42.91034643115403" lon="-1.529794958148264"><ele>516.2</ele><time>2026-04-29T15:48:40.001Z</time></trkpt><trkpt lat="42.91030936070317" lon="-1.5299246404925355"><ele>516.8</ele><time>2026-04-29T15:48:41.001Z</time></trkpt><trkpt lat="42.91027331966917" lon="-1.5300590414533601"><ele>517.4</ele><time>2026-04-29T15:48:42.001Z</time></trkpt><trkpt lat="42.91023562541498" lon="-1.5301916086452947"><ele>518.0</ele><time>2026-04-29T15:48:43.001Z</time></trkpt><trkpt lat="42.9101982958771" lon="-1.5303263706597288"><ele>518.4</ele><time>2026-04-29T15:48:44.001Z</time></trkpt><trkpt lat="42.910159325081466" lon="-1.5304580899097535"><ele>518.8</ele><time>2026-04-29T15:48:45.001Z</time></trkpt><trkpt lat="42.91012290372768" lon="-1.530590584058227"><ele>519.2</ele><time>2026-04-29T15:48:46.001Z</time></trkpt><trkpt lat="42.91008615457119" lon="-1.5307229334655599"><ele>519.6</ele><time>2026-04-29T15:48:47.001Z</time></trkpt><trkpt lat="42.910048194355895" lon="-1.5308576497862258"><ele>520.0</ele><time>2026-04-29T15:48:48.001Z</time></trkpt><trkpt lat="42.910011614541766" lon="-1.5309948674305753"><ele>517.6</ele><time>2026-04-29T15:48:49.001Z</time></trkpt><trkpt lat="42.909974540713584" lon="-1.5311305405364466"><ele>515.2</ele><time>2026-04-29T15:48:50.001Z</time></trkpt><trkpt lat="42.90993618397266" lon="-1.5312660587315827"><ele>512.8</ele><time>2026-04-29T15:48:51.001Z</time></trkpt><trkpt lat="42.909898409498034" lon="-1.5314015517596167"><ele>510.4</ele><time>2026-04-29T15:48:52.001Z</time></trkpt><trkpt lat="42.90985883132752" lon="-1.53153668856861"><ele>508.0</ele><time>2026-04-29T15:48:53.001Z</time></trkpt><trkpt lat="42.90981941758384" lon="-1.5316727872849083"><ele>508.0</ele><time>2026-04-29T15:48:54.001Z</time></trkpt><trkpt lat="42.909780935497466" lon="-1.5318106029494527"><ele>507.99999999999994</ele><time>2026-04-29T15:48:55.001Z</time></trkpt><trkpt lat="42.909743338134845" lon="-1.5319528187428995"><ele>507.99999999999994</ele><time>2026-04-29T15:48:56.001Z</time></trkpt><trkpt lat="42.90970660171346" lon="-1.532094698561894"><ele>508.0</ele><time>2026-04-29T15:48:57.001Z</time></trkpt><trkpt lat="42.909668369399384" lon="-1.5322368976171432"><ele>508.0</ele><time>2026-04-29T15:48:58.001Z</time></trkpt><trkpt lat="42.909627686921155" lon="-1.5323770530959686"><ele>508.79999999999995</ele><time>2026-04-29T15:48:59.001Z</time></trkpt><trkpt lat="42.90958629069564" lon="-1.5325186821736232"><ele>509.59999999999997</ele><time>2026-04-29T15:49:00.001Z</time></trkpt><trkpt lat="42.90954431751552" lon="-1.5326590827372641"><ele>510.40000000000003</ele><time>2026-04-29T15:49:01.001Z</time></trkpt><trkpt lat="42.90950828851798" lon="-1.5328025001542378"><ele>511.20000000000005</ele><time>2026-04-29T15:49:02.001Z</time></trkpt><trkpt lat="42.90946799041769" lon="-1.5329461121297443"><ele>512.0</ele><time>2026-04-29T15:49:03.001Z</time></trkpt><trkpt lat="42.909427928692836" lon="-1.5330843019634015"><ele>512.4</ele><time>2026-04-29T15:49:04.001Z</time></trkpt><trkpt lat="42.90938665998269" lon="-1.5332218634968717"><ele>512.8000000000001</ele><time>2026-04-29T15:49:05.001Z</time></trkpt><trkpt lat="42.909342565087535" lon="-1.5333584680186567"><ele>513.2</ele><time>2026-04-29T15:49:06.001Z</time></trkpt><trkpt lat="42.9092964657568" lon="-1.533492904402629"><ele>513.6</ele><time>2026-04-29T15:49:07.001Z</time></trkpt><trkpt lat="42.90924736127242" lon="-1.5336239618137544"><ele>514.0</ele><time>2026-04-29T15:49:08.001Z</time></trkpt><trkpt lat="42.90919340661476" lon="-1.533756838514532"><ele>512.6</ele><time>2026-04-29T15:49:09.001Z</time></trkpt><trkpt lat="42.90913803231443" lon="-1.5338867514455452"><ele>511.2</ele><time>2026-04-29T15:49:10.001Z</time></trkpt><trkpt lat="42.90907710221962" lon="-1.534009294142514"><ele>509.80000000000007</ele><time>2026-04-29T15:49:11.001Z</time></trkpt><trkpt lat="42.90900866075115" lon="-1.5341283437328337"><ele>508.40000000000003</ele><time>2026-04-29T15:49:12.001Z</time></trkpt><trkpt lat="42.90893775279341" lon="-1.534247219079185"><ele>507.0</ele><time>2026-04-29T15:49:13.001Z</time></trkpt><trkpt lat="42.90886283639407" lon="-1.534362519513601"><ele>507.0</ele><time>2026-04-29T15:49:14.001Z</time></trkpt><trkpt lat="42.908783144675475" lon="-1.5344704828428923"><ele>507.0</ele><time>2026-04-29T15:49:15.001Z</time></trkpt><trkpt lat="42.908700207974206" lon="-1.5345765939648062"><ele>507.0</ele><time>2026-04-29T15:49:16.001Z</time></trkpt><trkpt lat="42.90861440764819" lon="-1.5346780453217912"><ele>507.0</ele><time>2026-04-29T15:49:17.001Z</time></trkpt><trkpt lat="42.908521834851555" lon="-1.5347688900748664"><ele>507.0</ele><time>2026-04-29T15:49:18.001Z</time></trkpt><trkpt lat="42.90842485991516" lon="-1.5348544360741903"><ele>507.0</ele><time>2026-04-29T15:49:19.001Z</time></trkpt><trkpt lat="42.90832791408367" lon="-1.5349343374190023"><ele>507.0</ele><time>2026-04-29T15:49:20.001Z</time></trkpt><trkpt lat="42.90822773452939" lon="-1.535008760100251"><ele>507.0</ele><time>2026-04-29T15:49:21.002Z</time></trkpt><trkpt lat="42.90812474658048" lon="-1.535070140353449"><ele>506.0</ele><time>2026-04-29T15:49:22.002Z</time></trkpt><trkpt lat="42.90802003752938" lon="-1.535126799906041"><ele>505.00000000000006</ele><time>2026-04-29T15:49:23.002Z</time></trkpt><trkpt lat="42.90791405709545" lon="-1.5351813539515287"><ele>504.00000000000006</ele><time>2026-04-29T15:49:24.002Z</time></trkpt><trkpt lat="42.90780975299267" lon="-1.5352288948636659"><ele>503.0</ele><time>2026-04-29T15:49:25.002Z</time></trkpt><trkpt lat="42.90770496693948" lon="-1.5352747436694552"><ele>502.0</ele><time>2026-04-29T15:49:26.002Z</time></trkpt><trkpt lat="42.90759727478869" lon="-1.535315183097362"><ele>502.0</ele><time>2026-04-29T15:49:27.002Z</time></trkpt><trkpt lat="42.90749176578187" lon="-1.5353511068605354"><ele>502.00000000000006</ele><time>2026-04-29T15:49:28.002Z</time></trkpt><trkpt lat="42.90738293930993" lon="-1.53538532105211"><ele>502.00000000000006</ele><time>2026-04-29T15:49:29.002Z</time></trkpt><trkpt lat="42.90727669964547" lon="-1.5354174750797938"><ele>502.0</ele><time>2026-04-29T15:49:30Z</time></trkpt><trkpt lat="42.90716984940415" lon="-1.5354569987935118"><ele>502.0</ele><time>2026-04-29T15:49:31Z</time></trkpt><trkpt lat="42.90706182588827" lon="-1.5354937249659213"><ele>503.20000000000005</ele><time>2026-04-29T15:49:32Z</time></trkpt><trkpt lat="42.90695484859628" lon="-1.5355314712827859"><ele>504.40000000000003</ele><time>2026-04-29T15:49:33Z</time></trkpt><trkpt lat="42.90684907780775" lon="-1.5355693827297026"><ele>505.59999999999997</ele><time>2026-04-29T15:49:34Z</time></trkpt><trkpt lat="42.90674263636569" lon="-1.5356003632980195"><ele>506.79999999999995</ele><time>2026-04-29T15:49:35Z</time></trkpt><trkpt lat="42.906636168725775" lon="-1.5356394888094747"><ele>508.0</ele><time>2026-04-29T15:49:36Z</time></trkpt><trkpt lat="42.90653181084609" lon="-1.5356747216051498"><ele>508.0</ele><time>2026-04-29T15:49:37Z</time></trkpt><trkpt lat="42.906430167227846" lon="-1.5357199749236496"><ele>507.99999999999994</ele><time>2026-04-29T15:49:38Z</time></trkpt><trkpt lat="42.9063276426304" lon="-1.5357701247487616"><ele>507.99999999999994</ele><time>2026-04-29T15:49:39Z</time></trkpt><trkpt lat="42.906227188671686" lon="-1.5358288590704907"><ele>508.0</ele><time>2026-04-29T15:49:40Z</time></trkpt><trkpt lat="42.90612973762106" lon="-1.5358995824511144"><ele>508.0</ele><time>2026-04-29T15:49:41Z</time></trkpt><trkpt lat="42.90603683464614" lon="-1.5359846047894126"><ele>508.0</ele><time>2026-04-29T15:49:42Z</time></trkpt><trkpt lat="42.90594904867135" lon="-1.5360760899031616"><ele>507.99999999999994</ele><time>2026-04-29T15:49:43Z</time></trkpt><trkpt lat="42.90586555558698" lon="-1.5361716289630598"><ele>507.99999999999994</ele><time>2026-04-29T15:49:44Z</time></trkpt><trkpt lat="42.9057831922133" lon="-1.5362695265708948"><ele>508.0</ele><time>2026-04-29T15:49:45Z</time></trkpt><trkpt lat="42.905701448218075" lon="-1.5363678744014866"><ele>508.0</ele><time>2026-04-29T15:49:46Z</time></trkpt><trkpt lat="42.90561952914162" lon="-1.5364651151140007"><ele>507.4</ele><time>2026-04-29T15:49:47Z</time></trkpt><trkpt lat="42.9055380767919" lon="-1.5365640831287275"><ele>506.79999999999995</ele><time>2026-04-29T15:49:48Z</time></trkpt><trkpt lat="42.905456381167134" lon="-1.5366620788083665"><ele>506.2</ele><time>2026-04-29T15:49:49Z</time></trkpt><trkpt lat="42.90537513077247" lon="-1.536760656301865"><ele>505.6</ele><time>2026-04-29T15:49:50Z</time></trkpt><trkpt lat="42.90529325608109" lon="-1.5368624425102277"><ele>505.0</ele><time>2026-04-29T15:49:51Z</time></trkpt><trkpt lat="42.905212217111526" lon="-1.5369635606280443"><ele>504.4</ele><time>2026-04-29T15:49:52Z</time></trkpt><trkpt lat="42.90513211103598" lon="-1.5370634430691297"><ele>503.8</ele><time>2026-04-29T15:49:53Z</time></trkpt><trkpt lat="42.905051746098124" lon="-1.5371634223734238"><ele>503.20000000000005</ele><time>2026-04-29T15:49:54Z</time></trkpt><trkpt lat="42.904970445459796" lon="-1.5372628696935302"><ele>502.6</ele><time>2026-04-29T15:49:55Z</time></trkpt><trkpt lat="42.904889484692625" lon="-1.537364830687521"><ele>502.0</ele><time>2026-04-29T15:49:56Z</time></trkpt><trkpt lat="42.904808065564865" lon="-1.537465143629948"><ele>502.0</ele><time>2026-04-29T15:49:57Z</time></trkpt><trkpt lat="42.904724309163996" lon="-1.53756449720897"><ele>502.00000000000006</ele><time>2026-04-29T15:49:58Z</time></trkpt><trkpt lat="42.904639630006486" lon="-1.5376619298696226"><ele>502.00000000000006</ele><time>2026-04-29T15:49:59Z</time></trkpt><trkpt lat="42.904557237157796" lon="-1.537761524471839"><ele>502.0</ele><time>2026-04-29T15:50:00Z</time></trkpt><trkpt lat="42.90447459556151" lon="-1.5378619019605069"><ele>502.0</ele><time>2026-04-29T15:50:01Z</time></trkpt><trkpt lat="42.90439215101067" lon="-1.5379610442162253"><ele>501.40000000000003</ele><time>2026-04-29T15:50:02Z</time></trkpt><trkpt lat="42.90431016396496" lon="-1.538060504254097"><ele>500.80000000000007</ele><time>2026-04-29T15:50:03Z</time></trkpt><trkpt lat="42.904233029746926" lon="-1.5381598474266998"><ele>500.2</ele><time>2026-04-29T15:50:04Z</time></trkpt><trkpt lat="42.9041590380487" lon="-1.5382643381993442"><ele>499.6</ele><time>2026-04-29T15:50:05Z</time></trkpt><trkpt lat="42.90408569108287" lon="-1.5383693084317134"><ele>499.0</ele><time>2026-04-29T15:50:06Z</time></trkpt><trkpt lat="42.90401437636616" lon="-1.5384698051939099"><ele>499.00000000000006</ele><time>2026-04-29T15:50:07Z</time></trkpt><trkpt lat="42.90394534860139" lon="-1.5385721066413063"><ele>499.0</ele><time>2026-04-29T15:50:08Z</time></trkpt><trkpt lat="42.90388489728107" lon="-1.5386697993264455"><ele>499.0</ele><time>2026-04-29T15:50:09Z</time></trkpt><trkpt lat="42.903830679949806" lon="-1.5387654275992755"><ele>499.0</ele><time>2026-04-29T15:50:10Z</time></trkpt><trkpt lat="42.90378035618064" lon="-1.5388615560494388"><ele>499.00000000000006</ele><time>2026-04-29T15:50:11Z</time></trkpt><trkpt lat="42.90373621563882" lon="-1.5389496665239943"><ele>499.0</ele><time>2026-04-29T15:50:12Z</time></trkpt><trkpt lat="42.90371996557147" lon="-1.5390344588240783"><ele>499.0</ele><time>2026-04-29T15:50:13Z</time></trkpt><trkpt lat="42.903587812739744" lon="-1.5390607931123004"><ele>499.0</ele><time>2026-04-29T15:50:15Z</time></trkpt><trkpt lat="42.9034836858231" lon="-1.5390589011052647"><ele>499.0</ele><time>2026-04-29T15:50:17Z</time></trkpt><trkpt lat="42.90338244721111" lon="-1.5391533011115879"><ele>499.0</ele><time>2026-04-29T15:50:19Z</time></trkpt><trkpt lat="42.903331576450356" lon="-1.5392118640425623"><ele>499.0</ele><time>2026-04-29T15:50:20Z</time></trkpt><trkpt lat="42.90327743432384" lon="-1.53927349892067"><ele>499.00000000000006</ele><time>2026-04-29T15:50:21Z</time></trkpt><trkpt lat="42.90322575747546" lon="-1.5393365571342172"><ele>499.0</ele><time>2026-04-29T15:50:22Z</time></trkpt><trkpt lat="42.903177665804776" lon="-1.539399661853249"><ele>499.0</ele><time>2026-04-29T15:50:23Z</time></trkpt><trkpt lat="42.90312918507802" lon="-1.5394599738126165"><ele>499.0</ele><time>2026-04-29T15:50:24.001Z</time></trkpt><trkpt lat="42.90303714720404" lon="-1.5395707334095126"><ele>499.00000000000006</ele><time>2026-04-29T15:50:26.001Z</time></trkpt><trkpt lat="42.90296177894195" lon="-1.539680734155478"><ele>499.0</ele><time>2026-04-29T15:50:28.001Z</time></trkpt><trkpt lat="42.90288356510419" lon="-1.539771697768567"><ele>499.1666666666667</ele><time>2026-04-29T15:50:30.001Z</time></trkpt><trkpt lat="42.902787573794534" lon="-1.539889003979777"><ele>499.33333333333337</ele><time>2026-04-29T15:50:32.001Z</time></trkpt><trkpt lat="42.90273741022617" lon="-1.5399517279309498"><ele>499.5</ele><time>2026-04-29T15:50:33.001Z</time></trkpt><trkpt lat="42.90268836999645" lon="-1.5400229564246077"><ele>499.66666666666663</ele><time>2026-04-29T15:50:34.001Z</time></trkpt><trkpt lat="42.902634372616575" lon="-1.5400926868521958"><ele>499.8333333333333</ele><time>2026-04-29T15:50:35.001Z</time></trkpt><trkpt lat="42.90257615814022" lon="-1.540161966450149"><ele>500.0</ele><time>2026-04-29T15:50:36.001Z</time></trkpt><trkpt lat="42.90251645008041" lon="-1.5402322806209987"><ele>499.8333333333333</ele><time>2026-04-29T15:50:37.001Z</time></trkpt><trkpt lat="42.90245565595471" lon="-1.540305201175412"><ele>499.66666666666663</ele><time>2026-04-29T15:50:38.001Z</time></trkpt><trkpt lat="42.90239598898674" lon="-1.5403774118203908"><ele>499.5</ele><time>2026-04-29T15:50:39.001Z</time></trkpt><trkpt lat="42.902338383280735" lon="-1.5404513297327198"><ele>499.33333333333337</ele><time>2026-04-29T15:50:40.001Z</time></trkpt><trkpt lat="42.902282051970914" lon="-1.540518300653467"><ele>499.1666666666667</ele><time>2026-04-29T15:50:41.001Z</time></trkpt><trkpt lat="42.902223853863624" lon="-1.5405824693584151"><ele>499.0</ele><time>2026-04-29T15:50:42.001Z</time></trkpt><trkpt lat="42.90216456046398" lon="-1.5406435272205796"><ele>499.00000000000006</ele><time>2026-04-29T15:50:43.001Z</time></trkpt><trkpt lat="42.90211218030489" lon="-1.5407112051105907"><ele>499.0</ele><time>2026-04-29T15:50:44.001Z</time></trkpt><trkpt lat="42.9020607915265" lon="-1.5407785102857576"><ele>499.00000000000006</ele><time>2026-04-29T15:50:45.001Z</time></trkpt><trkpt lat="42.90200911524377" lon="-1.5408379974444484"><ele>499.00000000000006</ele><time>2026-04-29T15:50:46.001Z</time></trkpt><trkpt lat="42.901955278453634" lon="-1.5409011036317473"><ele>499.0</ele><time>2026-04-29T15:50:47.001Z</time></trkpt><trkpt lat="42.90190554055752" lon="-1.5409612362580822"><ele>499.00000000000006</ele><time>2026-04-29T15:50:48.001Z</time></trkpt><trkpt lat="42.90184940369575" lon="-1.5410136622734896"><ele>499.00000000000006</ele><time>2026-04-29T15:50:49.001Z</time></trkpt><trkpt lat="42.901758216046474" lon="-1.5411449228911014"><ele>499.1666666666667</ele><time>2026-04-29T15:50:51.001Z</time></trkpt><trkpt lat="42.90170944339621" lon="-1.5412044287006221"><ele>499.33333333333337</ele><time>2026-04-29T15:50:52.001Z</time></trkpt><trkpt lat="42.90164547613" lon="-1.541308150584989"><ele>499.5</ele><time>2026-04-29T15:50:54.001Z</time></trkpt><trkpt lat="42.90159745061869" lon="-1.5413847676621861"><ele>499.66666666666663</ele><time>2026-04-29T15:50:56.001Z</time></trkpt><trkpt lat="42.90154247613061" lon="-1.5415052219770018"><ele>499.8333333333333</ele><time>2026-04-29T15:50:58.001Z</time></trkpt><trkpt lat="42.90150213987863" lon="-1.54157177008534"><ele>500.0</ele><time>2026-04-29T15:50:59.001Z</time></trkpt><trkpt lat="42.90148287343255" lon="-1.5416541294248536"><ele>500.0</ele><time>2026-04-29T15:51:00.001Z</time></trkpt><trkpt lat="42.9014519567085" lon="-1.5417308193237045"><ele>500.0</ele><time>2026-04-29T15:51:01.001Z</time></trkpt><trkpt lat="42.901390804536064" lon="-1.541867911627122"><ele>500.0</ele><time>2026-04-29T15:51:03.001Z</time></trkpt><trkpt lat="42.90133735410611" lon="-1.542012696490149"><ele>500.0</ele><time>2026-04-29T15:51:05.001Z</time></trkpt><trkpt lat="42.90128542420711" lon="-1.5421622502576022"><ele>500.0</ele><time>2026-04-29T15:51:07.001Z</time></trkpt><trkpt lat="42.90124246780549" lon="-1.5422968733166351"><ele>499.8</ele><time>2026-04-29T15:51:09.001Z</time></trkpt><trkpt lat="42.90119179207283" lon="-1.5424362569225385"><ele>499.6</ele><time>2026-04-29T15:51:11.001Z</time></trkpt><trkpt lat="42.90114952271074" lon="-1.5425626738128029"><ele>499.4</ele><time>2026-04-29T15:51:13.001Z</time></trkpt><trkpt lat="42.90109049018476" lon="-1.5427059034211112"><ele>499.2</ele><time>2026-04-29T15:51:15.001Z</time></trkpt><trkpt lat="42.90107701694144" lon="-1.5427925434751124"><ele>499.0</ele><time>2026-04-29T15:51:16.001Z</time></trkpt><trkpt lat="42.901066195094955" lon="-1.542887125872332"><ele>498.83333333333337</ele><time>2026-04-29T15:51:17.001Z</time></trkpt><trkpt lat="42.901043571768035" lon="-1.5429713894056831"><ele>498.6666666666667</ele><time>2026-04-29T15:51:18.001Z</time></trkpt><trkpt lat="42.9010274714907" lon="-1.5430680690983498"><ele>498.5</ele><time>2026-04-29T15:51:19.001Z</time></trkpt><trkpt lat="42.9010119494204" lon="-1.543167754945288"><ele>498.33333333333337</ele><time>2026-04-29T15:51:20.001Z</time></trkpt><trkpt lat="42.90099688594082" lon="-1.5432729974620376"><ele>498.1666666666667</ele><time>2026-04-29T15:51:21.001Z</time></trkpt><trkpt lat="42.90097937144807" lon="-1.543378107121349"><ele>498.0</ele><time>2026-04-29T15:51:22.001Z</time></trkpt><trkpt lat="42.900961424835714" lon="-1.5434845232988421"><ele>498.0</ele><time>2026-04-29T15:51:23.001Z</time></trkpt><trkpt lat="42.90093847236955" lon="-1.5435910104888242"><ele>498.0</ele><time>2026-04-29T15:51:24.001Z</time></trkpt><trkpt lat="42.90092038999601" lon="-1.5436958990461458"><ele>498.0</ele><time>2026-04-29T15:51:25.001Z</time></trkpt><trkpt lat="42.90090475564768" lon="-1.5438045580383006"><ele>498.0</ele><time>2026-04-29T15:51:26.002Z</time></trkpt><trkpt lat="42.90089240712651" lon="-1.5439077554670084"><ele>498.0</ele><time>2026-04-29T15:51:27.002Z</time></trkpt><trkpt lat="42.900875353791925" lon="-1.5440036696753898"><ele>498.0</ele><time>2026-04-29T15:51:28.002Z</time></trkpt><trkpt lat="42.90085390903278" lon="-1.5440937956135754"><ele>497.6666666666667</ele><time>2026-04-29T15:51:29.002Z</time></trkpt><trkpt lat="42.90084308030701" lon="-1.544187934641346"><ele>497.33333333333337</ele><time>2026-04-29T15:51:30.002Z</time></trkpt><trkpt lat="42.900836139350126" lon="-1.544283320298958"><ele>497.0</ele><time>2026-04-29T15:51:31.002Z</time></trkpt><trkpt lat="42.900821992864024" lon="-1.5443720428685621"><ele>496.6666666666667</ele><time>2026-04-29T15:51:32.002Z</time></trkpt><trkpt lat="42.900829047008614" lon="-1.5445292383551825"><ele>496.33333333333337</ele><time>2026-04-29T15:51:34.002Z</time></trkpt><trkpt lat="42.900875180134044" lon="-1.544645105315052"><ele>496.0</ele><time>2026-04-29T15:51:36Z</time></trkpt><trkpt lat="42.90092231484148" lon="-1.5447229360643802"><ele>495.6666666666667</ele><time>2026-04-29T15:51:38Z</time></trkpt><trkpt lat="42.90088213571531" lon="-1.5448737024187653"><ele>495.33333333333337</ele><time>2026-04-29T15:51:40Z</time></trkpt><trkpt lat="42.90084354964831" lon="-1.5449468416446677"><ele>495.0</ele><time>2026-04-29T15:51:41Z</time></trkpt><trkpt lat="42.900806665950185" lon="-1.5450272069403328"><ele>494.66666666666663</ele><time>2026-04-29T15:51:42Z</time></trkpt><trkpt lat="42.90077182740615" lon="-1.5451162289105709"><ele>494.3333333333333</ele><time>2026-04-29T15:51:43Z</time></trkpt><trkpt lat="42.90074615753096" lon="-1.545213664196402"><ele>494.0</ele><time>2026-04-29T15:51:44Z</time></trkpt><trkpt lat="42.90071728191531" lon="-1.5453137717619196"><ele>494.49999999999994</ele><time>2026-04-29T15:51:45Z</time></trkpt><trkpt lat="42.90068935440327" lon="-1.5454258084437713"><ele>495.0</ele><time>2026-04-29T15:51:46Z</time></trkpt><trkpt lat="42.90066329974134" lon="-1.5455390164123208"><ele>495.5</ele><time>2026-04-29T15:51:47Z</time></trkpt><trkpt lat="42.900639738890916" lon="-1.5456563034109738"><ele>496.0</ele><time>2026-04-29T15:51:48Z</time></trkpt><trkpt lat="42.900616839444986" lon="-1.5457751787787748"><ele>496.49999999999994</ele><time>2026-04-29T15:51:49Z</time></trkpt><trkpt lat="42.900595625290656" lon="-1.5459000429704526"><ele>497.0</ele><time>2026-04-29T15:51:50Z</time></trkpt><trkpt lat="42.900577155680175" lon="-1.546026797370006"><ele>497.0</ele><time>2026-04-29T15:51:51Z</time></trkpt><trkpt lat="42.900557220971" lon="-1.546155914031416"><ele>497.00000000000006</ele><time>2026-04-29T15:51:52Z</time></trkpt><trkpt lat="42.900535242819764" lon="-1.546285398768888"><ele>497.00000000000006</ele><time>2026-04-29T15:51:53Z</time></trkpt><trkpt lat="42.900516419047904" lon="-1.5464191545192254"><ele>497.0</ele><time>2026-04-29T15:51:54Z</time></trkpt><trkpt lat="42.900495135583505" lon="-1.546555428992797"><ele>497.0</ele><time>2026-04-29T15:51:55Z</time></trkpt><trkpt lat="42.900473093893524" lon="-1.5466932442614538"><ele>497.40000000000003</ele><time>2026-04-29T15:51:56Z</time></trkpt><trkpt lat="42.90044960276608" lon="-1.5468316039305818"><ele>497.80000000000007</ele><time>2026-04-29T15:51:57Z</time></trkpt><trkpt lat="42.900426438521414" lon="-1.5469724025498421"><ele>498.2</ele><time>2026-04-29T15:51:58Z</time></trkpt><trkpt lat="42.90040257720488" lon="-1.54711379183105"><ele>498.6</ele><time>2026-04-29T15:51:59Z</time></trkpt><trkpt lat="42.90037609008474" lon="-1.5472571378471989"><ele>499.0</ele><time>2026-04-29T15:52:00Z</time></trkpt><trkpt lat="42.900346419644364" lon="-1.5473971839978953"><ele>499.2</ele><time>2026-04-29T15:52:01Z</time></trkpt><trkpt lat="42.90031408545506" lon="-1.547535992862095"><ele>499.4</ele><time>2026-04-29T15:52:02Z</time></trkpt><trkpt lat="42.90027717910109" lon="-1.5476764029860282"><ele>499.6</ele><time>2026-04-29T15:52:03Z</time></trkpt><trkpt lat="42.90023488895998" lon="-1.5478127607960555"><ele>499.8</ele><time>2026-04-29T15:52:04Z</time></trkpt><trkpt lat="42.90018884809206" lon="-1.5479470982733932"><ele>500.0</ele><time>2026-04-29T15:52:05Z</time></trkpt><trkpt lat="42.900138751709235" lon="-1.5480807813772413"><ele>499.2</ele><time>2026-04-29T15:52:06Z</time></trkpt><trkpt lat="42.90008630502352" lon="-1.5482113219324112"><ele>498.4</ele><time>2026-04-29T15:52:07Z</time></trkpt><trkpt lat="42.900026093213356" lon="-1.5483347918007933"><ele>497.6</ele><time>2026-04-29T15:52:08Z</time></trkpt><trkpt lat="42.899959621318516" lon="-1.5484585419899646"><ele>496.8</ele><time>2026-04-29T15:52:09Z</time></trkpt><trkpt lat="42.899895671370565" lon="-1.548584934340678"><ele>496.0</ele><time>2026-04-29T15:52:10Z</time></trkpt><trkpt lat="42.89982753660663" lon="-1.548709450520597"><ele>498.0</ele><time>2026-04-29T15:52:11Z</time></trkpt><trkpt lat="42.89975560857017" lon="-1.5488315512323017"><ele>500.0</ele><time>2026-04-29T15:52:12Z</time></trkpt><trkpt lat="42.899681285533525" lon="-1.5489494289744492"><ele>502.0</ele><time>2026-04-29T15:52:13Z</time></trkpt><trkpt lat="42.89960914665033" lon="-1.5490698015322228"><ele>504.0</ele><time>2026-04-29T15:52:14Z</time></trkpt><trkpt lat="42.8995393109228" lon="-1.549191303385947"><ele>504.0</ele><time>2026-04-29T15:52:15Z</time></trkpt><trkpt lat="42.8994693736901" lon="-1.5493114071439036"><ele>504.0</ele><time>2026-04-29T15:52:16Z</time></trkpt><trkpt lat="42.89940070675157" lon="-1.5494364410573187"><ele>504.0</ele><time>2026-04-29T15:52:17Z</time></trkpt><trkpt lat="42.899321551427974" lon="-1.5495480098159493"><ele>504.0</ele><time>2026-04-29T15:52:18Z</time></trkpt><trkpt lat="42.89925411647548" lon="-1.5496652637656867"><ele>502.6</ele><time>2026-04-29T15:52:19Z</time></trkpt><trkpt lat="42.89918386089024" lon="-1.5497766244120688"><ele>501.2</ele><time>2026-04-29T15:52:20Z</time></trkpt><trkpt lat="42.89911395365281" lon="-1.5498874966043534"><ele>499.80000000000007</ele><time>2026-04-29T15:52:21Z</time></trkpt><trkpt lat="42.89904442071769" lon="-1.5499912852214461"><ele>498.40000000000003</ele><time>2026-04-29T15:52:22Z</time></trkpt><trkpt lat="42.89897601633017" lon="-1.5500965955898702"><ele>497.0</ele><time>2026-04-29T15:52:23Z</time></trkpt><trkpt lat="42.89890971864944" lon="-1.5502094992857964"><ele>497.0</ele><time>2026-04-29T15:52:24Z</time></trkpt><trkpt lat="42.89884047854381" lon="-1.5503165744208132"><ele>497.00000000000006</ele><time>2026-04-29T15:52:25Z</time></trkpt><trkpt lat="42.89877384589174" lon="-1.550422362039933"><ele>497.00000000000006</ele><time>2026-04-29T15:52:26Z</time></trkpt><trkpt lat="42.89871012374436" lon="-1.5505270475436161"><ele>497.0</ele><time>2026-04-29T15:52:27Z</time></trkpt><trkpt lat="42.89864062652763" lon="-1.550631255444357"><ele>497.0</ele><time>2026-04-29T15:52:28Z</time></trkpt><trkpt lat="42.898574340378296" lon="-1.5507344182967913"><ele>497.0</ele><time>2026-04-29T15:52:29.001Z</time></trkpt><trkpt lat="42.898507913277705" lon="-1.5508385869830303"><ele>497.00000000000006</ele><time>2026-04-29T15:52:30.001Z</time></trkpt><trkpt lat="42.898442732244504" lon="-1.550942105726831"><ele>497.00000000000006</ele><time>2026-04-29T15:52:31.001Z</time></trkpt><trkpt lat="42.898380005397385" lon="-1.551045112739544"><ele>497.0</ele><time>2026-04-29T15:52:32.001Z</time></trkpt><trkpt lat="42.89830918032674" lon="-1.5511438398882564"><ele>497.0</ele><time>2026-04-29T15:52:33.001Z</time></trkpt><trkpt lat="42.89823991881735" lon="-1.5512462135748357"><ele>498.20000000000005</ele><time>2026-04-29T15:52:34.001Z</time></trkpt><trkpt lat="42.89817244162537" lon="-1.5513547104866405"><ele>499.40000000000003</ele><time>2026-04-29T15:52:35.001Z</time></trkpt><trkpt lat="42.89811337801369" lon="-1.551479732257717"><ele>500.59999999999997</ele><time>2026-04-29T15:52:36.001Z</time></trkpt><trkpt lat="42.89804924067552" lon="-1.5515877183473978"><ele>501.79999999999995</ele><time>2026-04-29T15:52:37.001Z</time></trkpt><trkpt lat="42.89798386103894" lon="-1.551697068384947"><ele>503.0</ele><time>2026-04-29T15:52:38.001Z</time></trkpt><trkpt lat="42.89791623178385" lon="-1.5518076937753214"><ele>503.0</ele><time>2026-04-29T15:52:39.001Z</time></trkpt><trkpt lat="42.89784901415199" lon="-1.5519153138015642"><ele>502.99999999999994</ele><time>2026-04-29T15:52:40.001Z</time></trkpt><trkpt lat="42.8977811058221" lon="-1.5520245607770724"><ele>502.99999999999994</ele><time>2026-04-29T15:52:41.001Z</time></trkpt><trkpt lat="42.89771701946275" lon="-1.552130916137854"><ele>503.0</ele><time>2026-04-29T15:52:42.001Z</time></trkpt><trkpt lat="42.897649367704254" lon="-1.552238765893729"><ele>503.0</ele><time>2026-04-29T15:52:43.001Z</time></trkpt><trkpt lat="42.8975817570058" lon="-1.552343257031079"><ele>502.2</ele><time>2026-04-29T15:52:44.001Z</time></trkpt><trkpt lat="42.89751489315633" lon="-1.5524446156719076"><ele>501.4</ele><time>2026-04-29T15:52:45.001Z</time></trkpt><trkpt lat="42.89745048595848" lon="-1.552545549216145"><ele>500.59999999999997</ele><time>2026-04-29T15:52:46.001Z</time></trkpt><trkpt lat="42.89738691471463" lon="-1.552648528746054"><ele>499.79999999999995</ele><time>2026-04-29T15:52:47.001Z</time></trkpt><trkpt lat="42.89732346767901" lon="-1.5527509594188038"><ele>499.0</ele><time>2026-04-29T15:52:48.001Z</time></trkpt><trkpt lat="42.89726057239984" lon="-1.552850795054828"><ele>500.79999999999995</ele><time>2026-04-29T15:52:49.001Z</time></trkpt><trkpt lat="42.8971975569382" lon="-1.5529514119947283"><ele>502.59999999999997</ele><time>2026-04-29T15:52:50.001Z</time></trkpt><trkpt lat="42.89713275339514" lon="-1.5530452050318657"><ele>504.4</ele><time>2026-04-29T15:52:51.001Z</time></trkpt><trkpt lat="42.897063191327334" lon="-1.553138811711199"><ele>506.2</ele><time>2026-04-29T15:52:52.001Z</time></trkpt><trkpt lat="42.89698979917694" lon="-1.5532274885548247"><ele>508.0</ele><time>2026-04-29T15:52:53.001Z</time></trkpt><trkpt lat="42.89691363261425" lon="-1.553314949520647"><ele>508.0</ele><time>2026-04-29T15:52:54.001Z</time></trkpt><trkpt lat="42.8968363707542" lon="-1.553390542040623"><ele>507.99999999999994</ele><time>2026-04-29T15:52:55.001Z</time></trkpt><trkpt lat="42.89675009851181" lon="-1.55346230443698"><ele>507.99999999999994</ele><time>2026-04-29T15:52:56.001Z</time></trkpt><trkpt lat="42.89665834104855" lon="-1.5535300333072795"><ele>508.0</ele><time>2026-04-29T15:52:57.001Z</time></trkpt><trkpt lat="42.896559121680674" lon="-1.5535926685960821"><ele>508.0</ele><time>2026-04-29T15:52:58.001Z</time></trkpt><trkpt lat="42.89646541586406" lon="-1.5536627482391236"><ele>508.2</ele><time>2026-04-29T15:52:59.001Z</time></trkpt><trkpt lat="42.89638204709245" lon="-1.5537461055510267"><ele>508.4</ele><time>2026-04-29T15:53:00.001Z</time></trkpt><trkpt lat="42.89629146345875" lon="-1.5538228651207433"><ele>508.59999999999997</ele><time>2026-04-29T15:53:01.001Z</time></trkpt><trkpt lat="42.89619833030681" lon="-1.5538949663109916"><ele>508.79999999999995</ele><time>2026-04-29T15:53:02.001Z</time></trkpt><trkpt lat="42.89610878790135" lon="-1.5539703336273296"><ele>509.0</ele><time>2026-04-29T15:53:03.001Z</time></trkpt><trkpt lat="42.896017970844376" lon="-1.5540429277037844"><ele>509.0</ele><time>2026-04-29T15:53:04.001Z</time></trkpt><trkpt lat="42.895926969681796" lon="-1.5541131204124976"><ele>509.0</ele><time>2026-04-29T15:53:05.001Z</time></trkpt><trkpt lat="42.895835692376025" lon="-1.554177650627777"><ele>509.0</ele><time>2026-04-29T15:53:06.001Z</time></trkpt><trkpt lat="42.89574388406822" lon="-1.5542442870325737"><ele>509.0</ele><time>2026-04-29T15:53:07.001Z</time></trkpt><trkpt lat="42.895652758406136" lon="-1.5543127351791117"><ele>509.0</ele><time>2026-04-29T15:53:08.001Z</time></trkpt><trkpt lat="42.89556080413182" lon="-1.5543809459945948"><ele>509.6</ele><time>2026-04-29T15:53:09.001Z</time></trkpt><trkpt lat="42.89546837603617" lon="-1.554448731435558"><ele>510.2</ele><time>2026-04-29T15:53:10.001Z</time></trkpt><trkpt lat="42.89537504105771" lon="-1.5545158473513914"><ele>510.80000000000007</ele><time>2026-04-29T15:53:11.001Z</time></trkpt><trkpt lat="42.895281252229104" lon="-1.5545777377441052"><ele>511.40000000000003</ele><time>2026-04-29T15:53:12.001Z</time></trkpt><trkpt lat="42.8951859528209" lon="-1.5546423751242193"><ele>512.0</ele><time>2026-04-29T15:53:13.001Z</time></trkpt><trkpt lat="42.89509059672224" lon="-1.554706477329585"><ele>509.0</ele><time>2026-04-29T15:53:14.001Z</time></trkpt><trkpt lat="42.89499588223601" lon="-1.5547662991404192"><ele>506.00000000000006</ele><time>2026-04-29T15:53:15.001Z</time></trkpt><trkpt lat="42.89489976635484" lon="-1.554824529984994"><ele>503.00000000000006</ele><time>2026-04-29T15:53:16.001Z</time></trkpt><trkpt lat="42.894801061067014" lon="-1.5548821753178395"><ele>500.0</ele><time>2026-04-29T15:53:17.001Z</time></trkpt><trkpt lat="42.89470329884426" lon="-1.5549375343122231"><ele>497.0</ele><time>2026-04-29T15:53:18.001Z</time></trkpt><trkpt lat="42.894608656550474" lon="-1.5549966956240844"><ele>497.0</ele><time>2026-04-29T15:53:19.001Z</time></trkpt><trkpt lat="42.89451175257796" lon="-1.5550555991541675"><ele>497.00000000000006</ele><time>2026-04-29T15:53:20.001Z</time></trkpt><trkpt lat="42.894416948331966" lon="-1.5551141523435132"><ele>497.00000000000006</ele><time>2026-04-29T15:53:21.001Z</time></trkpt><trkpt lat="42.89432361176856" lon="-1.5551711848899068"><ele>497.0</ele><time>2026-04-29T15:53:22.001Z</time></trkpt><trkpt lat="42.894232185247475" lon="-1.5552322111802557"><ele>497.0</ele><time>2026-04-29T15:53:23.001Z</time></trkpt><trkpt lat="42.894140502276144" lon="-1.5552913342031724"><ele>498.40000000000003</ele><time>2026-04-29T15:53:24.001Z</time></trkpt><trkpt lat="42.89404892248541" lon="-1.555351935227806"><ele>499.80000000000007</ele><time>2026-04-29T15:53:25.001Z</time></trkpt><trkpt lat="42.89395494903173" lon="-1.5554129033644117"><ele>501.2</ele><time>2026-04-29T15:53:26.001Z</time></trkpt><trkpt lat="42.89386320394242" lon="-1.5554762629181766"><ele>502.6</ele><time>2026-04-29T15:53:27.002Z</time></trkpt><trkpt lat="42.89377128055598" lon="-1.5555397305930956"><ele>504.0</ele><time>2026-04-29T15:53:28.002Z</time></trkpt><trkpt lat="42.89367901855525" lon="-1.5556077632583558"><ele>504.0</ele><time>2026-04-29T15:53:29.002Z</time></trkpt><trkpt lat="42.89358927782886" lon="-1.5556723489376054"><ele>504.0</ele><time>2026-04-29T15:53:30.002Z</time></trkpt><trkpt lat="42.89350017086648" lon="-1.5557386956648465"><ele>504.0</ele><time>2026-04-29T15:53:31.002Z</time></trkpt><trkpt lat="42.89341089039304" lon="-1.5558064369513458"><ele>504.0</ele><time>2026-04-29T15:53:32.002Z</time></trkpt><trkpt lat="42.893321458178804" lon="-1.5558725839784924"><ele>504.0</ele><time>2026-04-29T15:53:33.002Z</time></trkpt><trkpt lat="42.89323137625403" lon="-1.5559364600873282"><ele>504.0</ele><time>2026-04-29T15:53:34.002Z</time></trkpt><trkpt lat="42.89314234286552" lon="-1.5560031319093832"><ele>504.0</ele><time>2026-04-29T15:53:35.002Z</time></trkpt><trkpt lat="42.89305370203264" lon="-1.5560765103867802"><ele>504.0</ele><time>2026-04-29T15:53:36.002Z</time></trkpt><trkpt lat="42.892966888229736" lon="-1.5561440135581976"><ele>504.0</ele><time>2026-04-29T15:53:37.002Z</time></trkpt><trkpt lat="42.892882557706564" lon="-1.5562168539288057"><ele>504.0</ele><time>2026-04-29T15:53:38.002Z</time></trkpt><trkpt lat="42.892798085984495" lon="-1.5562936340975233"><ele>504.0</ele><time>2026-04-29T15:53:39.002Z</time></trkpt><trkpt lat="42.89271093785194" lon="-1.5563787129817823"><ele>504.0</ele><time>2026-04-29T15:53:40.002Z</time></trkpt><trkpt lat="42.89262529742868" lon="-1.5564654864975151"><ele>504.0</ele><time>2026-04-29T15:53:41.002Z</time></trkpt><trkpt lat="42.89254220436058" lon="-1.556554251249905"><ele>504.0</ele><time>2026-04-29T15:53:42Z</time></trkpt><trkpt lat="42.892462367388056" lon="-1.5566434621492875"><ele>504.0</ele><time>2026-04-29T15:53:43Z</time></trkpt><trkpt lat="42.89238441615519" lon="-1.556734443818057"><ele>501.4</ele><time>2026-04-29T15:53:44Z</time></trkpt><trkpt lat="42.892306606813584" lon="-1.5568278623579708"><ele>498.79999999999995</ele><time>2026-04-29T15:53:45Z</time></trkpt><trkpt lat="42.892228819053635" lon="-1.5569242040958475"><ele>496.20000000000005</ele><time>2026-04-29T15:53:46Z</time></trkpt><trkpt lat="42.89215007733473" lon="-1.5570186175554772"><ele>493.6</ele><time>2026-04-29T15:53:47Z</time></trkpt><trkpt lat="42.89207072609771" lon="-1.557111537199737"><ele>491.0</ele><time>2026-04-29T15:53:48Z</time></trkpt><trkpt lat="42.89198958283886" lon="-1.5572079870385922"><ele>491.0</ele><time>2026-04-29T15:53:49Z</time></trkpt><trkpt lat="42.89190988416224" lon="-1.5573046145802647"><ele>491.0</ele><time>2026-04-29T15:53:50Z</time></trkpt><trkpt lat="42.89182896636324" lon="-1.557403790681872"><ele>491.0</ele><time>2026-04-29T15:53:51Z</time></trkpt><trkpt lat="42.89174665439759" lon="-1.5575013073238912"><ele>491.0</ele><time>2026-04-29T15:53:52Z</time></trkpt><trkpt lat="42.89166610446999" lon="-1.5576010444836013"><ele>491.0</ele><time>2026-04-29T15:53:53Z</time></trkpt><trkpt lat="42.89158466436107" lon="-1.5577000321250278"><ele>490.4</ele><time>2026-04-29T15:53:54Z</time></trkpt><trkpt lat="42.891505040582565" lon="-1.5578001208296348"><ele>489.8</ele><time>2026-04-29T15:53:55Z</time></trkpt><trkpt lat="42.89142046180092" lon="-1.55789213647897"><ele>489.19999999999993</ele><time>2026-04-29T15:53:56Z</time></trkpt><trkpt lat="42.89133509968442" lon="-1.5579866690963113"><ele>488.59999999999997</ele><time>2026-04-29T15:53:57Z</time></trkpt><trkpt lat="42.891252110491834" lon="-1.558083740307809"><ele>488.0</ele><time>2026-04-29T15:53:58Z</time></trkpt><trkpt lat="42.891171087098535" lon="-1.5581808886488369"><ele>488.0</ele><time>2026-04-29T15:53:59Z</time></trkpt><trkpt lat="42.89109000813674" lon="-1.5582798959729023"><ele>487.99999999999994</ele><time>2026-04-29T15:54:00Z</time></trkpt><trkpt lat="42.89100944499399" lon="-1.5583779884096043"><ele>487.99999999999994</ele><time>2026-04-29T15:54:01Z</time></trkpt><trkpt lat="42.89092706995093" lon="-1.5584769912578378"><ele>488.0</ele><time>2026-04-29T15:54:02Z</time></trkpt><trkpt lat="42.89084642948899" lon="-1.5585744067473914"><ele>488.0</ele><time>2026-04-29T15:54:03Z</time></trkpt><trkpt lat="42.89076312325439" lon="-1.5586679251454334"><ele>488.4</ele><time>2026-04-29T15:54:04Z</time></trkpt><trkpt lat="42.89068176161057" lon="-1.558765421767354"><ele>488.79999999999995</ele><time>2026-04-29T15:54:05Z</time></trkpt><trkpt lat="42.890601406525334" lon="-1.5588652625667316"><ele>489.2</ele><time>2026-04-29T15:54:06Z</time></trkpt><trkpt lat="42.89051864037135" lon="-1.5589617021545172"><ele>489.6</ele><time>2026-04-29T15:54:07Z</time></trkpt><trkpt lat="42.89043506375309" lon="-1.5590561173610584"><ele>490.0</ele><time>2026-04-29T15:54:08Z</time></trkpt><trkpt lat="42.89035273690194" lon="-1.55915334295475"><ele>490.0</ele><time>2026-04-29T15:54:09Z</time></trkpt><trkpt lat="42.89027147474683" lon="-1.559250403931184"><ele>490.0</ele><time>2026-04-29T15:54:10Z</time></trkpt><trkpt lat="42.8901901621487" lon="-1.5593471285283247"><ele>490.0</ele><time>2026-04-29T15:54:11Z</time></trkpt><trkpt lat="42.8901086302597" lon="-1.5594433455067882"><ele>490.0</ele><time>2026-04-29T15:54:12Z</time></trkpt><trkpt lat="42.8900274469453" lon="-1.5595389996328473"><ele>490.0</ele><time>2026-04-29T15:54:13Z</time></trkpt><trkpt lat="42.88994682238267" lon="-1.5596347440090876"><ele>490.0</ele><time>2026-04-29T15:54:14Z</time></trkpt><trkpt lat="42.88986587758611" lon="-1.5597311453300273"><ele>490.0</ele><time>2026-04-29T15:54:15Z</time></trkpt><trkpt lat="42.88978484271501" lon="-1.5598286231383311"><ele>490.0</ele><time>2026-04-29T15:54:16Z</time></trkpt><trkpt lat="42.889703387773814" lon="-1.559922099701702"><ele>490.0</ele><time>2026-04-29T15:54:17Z</time></trkpt><trkpt lat="42.88962223675583" lon="-1.560017022996348"><ele>490.0</ele><time>2026-04-29T15:54:18Z</time></trkpt><trkpt lat="42.88953994430649" lon="-1.5601118773741873"><ele>490.0</ele><time>2026-04-29T15:54:19Z</time></trkpt><trkpt lat="42.889457730737305" lon="-1.5602049744127275"><ele>490.0</ele><time>2026-04-29T15:54:20Z</time></trkpt><trkpt lat="42.889377628351994" lon="-1.5603001918681785"><ele>490.0</ele><time>2026-04-29T15:54:21Z</time></trkpt><trkpt lat="42.889297668291114" lon="-1.5603955804725997"><ele>490.0</ele><time>2026-04-29T15:54:22Z</time></trkpt><trkpt lat="42.88921688500304" lon="-1.5604917215666612"><ele>490.0</ele><time>2026-04-29T15:54:23Z</time></trkpt><trkpt lat="42.889134606343596" lon="-1.5605890896133376"><ele>489.6</ele><time>2026-04-29T15:54:24Z</time></trkpt><trkpt lat="42.889053115961" lon="-1.560685527958998"><ele>489.2</ele><time>2026-04-29T15:54:25Z</time></trkpt><trkpt lat="42.8889683815416" lon="-1.560783956465397"><ele>488.79999999999995</ele><time>2026-04-29T15:54:26.001Z</time></trkpt><trkpt lat="42.88888314840706" lon="-1.5608848830517457"><ele>488.4</ele><time>2026-04-29T15:54:27.001Z</time></trkpt><trkpt lat="42.88879845309832" lon="-1.5609863474721417"><ele>488.0</ele><time>2026-04-29T15:54:28.001Z</time></trkpt><trkpt lat="42.88871260187887" lon="-1.5610871216626687"><ele>488.0</ele><time>2026-04-29T15:54:29.001Z</time></trkpt><trkpt lat="42.88862748435333" lon="-1.5611853584162332"><ele>487.99999999999994</ele><time>2026-04-29T15:54:30.001Z</time></trkpt><trkpt lat="42.888544618901676" lon="-1.5612883152478683"><ele>487.99999999999994</ele><time>2026-04-29T15:54:31.001Z</time></trkpt><trkpt lat="42.888461324358126" lon="-1.5613885101641314"><ele>488.0</ele><time>2026-04-29T15:54:32.001Z</time></trkpt><trkpt lat="42.888378052940325" lon="-1.5614869048429765"><ele>488.0</ele><time>2026-04-29T15:54:33.001Z</time></trkpt><trkpt lat="42.88829446371621" lon="-1.5615824110970113"><ele>488.0</ele><time>2026-04-29T15:54:34.001Z</time></trkpt><trkpt lat="42.88821163970424" lon="-1.5616784762988571"><ele>487.99999999999994</ele><time>2026-04-29T15:54:35.001Z</time></trkpt><trkpt lat="42.8881275620602" lon="-1.5617759171540162"><ele>487.99999999999994</ele><time>2026-04-29T15:54:36.001Z</time></trkpt><trkpt lat="42.888044051846016" lon="-1.5618749383390729"><ele>488.0</ele><time>2026-04-29T15:54:37.001Z</time></trkpt><trkpt lat="42.88796041605255" lon="-1.5619731240422046"><ele>488.0</ele><time>2026-04-29T15:54:38.001Z</time></trkpt><trkpt lat="42.88787668998804" lon="-1.5620723430375445"><ele>487.59999999999997</ele><time>2026-04-29T15:54:39.001Z</time></trkpt><trkpt lat="42.88779326072013" lon="-1.5621692668984384"><ele>487.19999999999993</ele><time>2026-04-29T15:54:40.001Z</time></trkpt><trkpt lat="42.887711229553325" lon="-1.5622666316838172"><ele>486.8</ele><time>2026-04-29T15:54:41.001Z</time></trkpt><trkpt lat="42.88762811850009" lon="-1.5623649532235415"><ele>486.4</ele><time>2026-04-29T15:54:42.001Z</time></trkpt><trkpt lat="42.887544956381696" lon="-1.5624661700495792"><ele>486.0</ele><time>2026-04-29T15:54:43.001Z</time></trkpt><trkpt lat="42.88746027698184" lon="-1.5625655173993713"><ele>486.0</ele><time>2026-04-29T15:54:44.001Z</time></trkpt><trkpt lat="42.88737478681204" lon="-1.5626637534637797"><ele>486.0</ele><time>2026-04-29T15:54:45.001Z</time></trkpt><trkpt lat="42.8872920593502" lon="-1.5627623473568129"><ele>486.0</ele><time>2026-04-29T15:54:46.001Z</time></trkpt><trkpt lat="42.88720826916727" lon="-1.562863246101078"><ele>486.0</ele><time>2026-04-29T15:54:47.001Z</time></trkpt><trkpt lat="42.88712375070573" lon="-1.5629625956489959"><ele>486.0</ele><time>2026-04-29T15:54:48.001Z</time></trkpt><trkpt lat="42.887038536332305" lon="-1.5630640047275541"><ele>486.25</ele><time>2026-04-29T15:54:49.001Z</time></trkpt><trkpt lat="42.88695161345565" lon="-1.5631633528689937"><ele>486.5</ele><time>2026-04-29T15:54:50.001Z</time></trkpt><trkpt lat="42.88686045206123" lon="-1.5632629330316272"><ele>486.75</ele><time>2026-04-29T15:54:51.001Z</time></trkpt><trkpt lat="42.88676592043781" lon="-1.5633521348138735"><ele>487.0</ele><time>2026-04-29T15:54:52.001Z</time></trkpt><trkpt lat="42.88666896817892" lon="-1.5634396490390416"><ele>487.0</ele><time>2026-04-29T15:54:53.001Z</time></trkpt><trkpt lat="42.88657223913423" lon="-1.563520567773453"><ele>487.00000000000006</ele><time>2026-04-29T15:54:54.001Z</time></trkpt><trkpt lat="42.88647344658744" lon="-1.563590400801491"><ele>487.00000000000006</ele><time>2026-04-29T15:54:55.001Z</time></trkpt><trkpt lat="42.88637377856932" lon="-1.5636570154498082"><ele>487.0</ele><time>2026-04-29T15:54:56.001Z</time></trkpt><trkpt lat="42.886283556205846" lon="-1.5637146728153937"><ele>487.0</ele><time>2026-04-29T15:54:57.001Z</time></trkpt><trkpt lat="42.88615078047198" lon="-1.5637938845657393"><ele>488.0</ele><time>2026-04-29T15:54:58.001Z</time></trkpt><trkpt lat="42.886038402998196" lon="-1.5638257037034868"><ele>489.0</ele><time>2026-04-29T15:54:59.001Z</time></trkpt><trkpt lat="42.885925525013036" lon="-1.5638562923341852"><ele>490.0</ele><time>2026-04-29T15:55:00.001Z</time></trkpt><trkpt lat="42.885813218245914" lon="-1.5638778514353415"><ele>491.0</ele><time>2026-04-29T15:55:01.001Z</time></trkpt><trkpt lat="42.885701415769894" lon="-1.5638927568221381"><ele>491.0</ele><time>2026-04-29T15:55:02.001Z</time></trkpt><trkpt lat="42.88558551449573" lon="-1.5638963072969507"><ele>491.0</ele><time>2026-04-29T15:55:03.001Z</time></trkpt><trkpt lat="42.88546862101455" lon="-1.5639001029827573"><ele>491.0</ele><time>2026-04-29T15:55:04.001Z</time></trkpt><trkpt lat="42.8853524309061" lon="-1.5639021299013554"><ele>491.0</ele><time>2026-04-29T15:55:05.001Z</time></trkpt><trkpt lat="42.88523778518621" lon="-1.5638981092773137"><ele>491.0</ele><time>2026-04-29T15:55:06.001Z</time></trkpt><trkpt lat="42.885125277694506" lon="-1.5638905513413852"><ele>491.0</ele><time>2026-04-29T15:55:07.001Z</time></trkpt><trkpt lat="42.88501389274429" lon="-1.5638789448082446"><ele>491.0</ele><time>2026-04-29T15:55:08.001Z</time></trkpt><trkpt lat="42.884906069629125" lon="-1.5638720157940764"><ele>491.0</ele><time>2026-04-29T15:55:09.001Z</time></trkpt><trkpt lat="42.884797889169334" lon="-1.5638662684617655"><ele>491.0</ele><time>2026-04-29T15:55:10.001Z</time></trkpt><trkpt lat="42.88469016794082" lon="-1.5638611731077288"><ele>490.8</ele><time>2026-04-29T15:55:11.001Z</time></trkpt><trkpt lat="42.88458620136737" lon="-1.5638576694243713"><ele>490.6</ele><time>2026-04-29T15:55:12.001Z</time></trkpt><trkpt lat="42.88448207311694" lon="-1.5638547599082717"><ele>490.4</ele><time>2026-04-29T15:55:13.001Z</time></trkpt><trkpt lat="42.884380234911596" lon="-1.5638539420728632"><ele>490.2</ele><time>2026-04-29T15:55:14.001Z</time></trkpt><trkpt lat="42.88427919195363" lon="-1.5638555417686235"><ele>490.0</ele><time>2026-04-29T15:55:15.001Z</time></trkpt><trkpt lat="42.88417879395428" lon="-1.5638577792328252"><ele>490.6</ele><time>2026-04-29T15:55:16.001Z</time></trkpt><trkpt lat="42.88407292737599" lon="-1.5638627188341079"><ele>491.2</ele><time>2026-04-29T15:55:17.001Z</time></trkpt><trkpt lat="42.883969259233254" lon="-1.5638715994868817"><ele>491.79999999999995</ele><time>2026-04-29T15:55:18.001Z</time></trkpt><trkpt lat="42.883868999945555" lon="-1.5638787129618796"><ele>492.4</ele><time>2026-04-29T15:55:19.001Z</time></trkpt><trkpt lat="42.88375803063459" lon="-1.5638904750533082"><ele>493.0</ele><time>2026-04-29T15:55:20.001Z</time></trkpt><trkpt lat="42.88365402091115" lon="-1.563902731226001"><ele>493.0</ele><time>2026-04-29T15:55:21.001Z</time></trkpt><trkpt lat="42.88354789097277" lon="-1.5639164676431774"><ele>492.99999999999994</ele><time>2026-04-29T15:55:22.001Z</time></trkpt><trkpt lat="42.883441143244426" lon="-1.5639306795293222"><ele>492.99999999999994</ele><time>2026-04-29T15:55:23.001Z</time></trkpt><trkpt lat="42.88333204791989" lon="-1.5639474188787703"><ele>493.0</ele><time>2026-04-29T15:55:24.001Z</time></trkpt><trkpt lat="42.883222652949556" lon="-1.5639608526895477"><ele>493.0</ele><time>2026-04-29T15:55:25.002Z</time></trkpt><trkpt lat="42.88311108403561" lon="-1.5639811106773702"><ele>491.75</ele><time>2026-04-29T15:55:26.002Z</time></trkpt><trkpt lat="42.88299854578998" lon="-1.564000080639858"><ele>490.5</ele><time>2026-04-29T15:55:27.002Z</time></trkpt><trkpt lat="42.88288789991344" lon="-1.5640189112589657"><ele>489.25</ele><time>2026-04-29T15:55:28.002Z</time></trkpt><trkpt lat="42.88277401798755" lon="-1.5640391749749842"><ele>488.0</ele><time>2026-04-29T15:55:29.002Z</time></trkpt><trkpt lat="42.88266277153051" lon="-1.564056304372535"><ele>487.59999999999997</ele><time>2026-04-29T15:55:30.002Z</time></trkpt><trkpt lat="42.88255128160149" lon="-1.5640742856396785"><ele>487.19999999999993</ele><time>2026-04-29T15:55:31.002Z</time></trkpt><trkpt lat="42.882439305546505" lon="-1.5640928358607498"><ele>486.8</ele><time>2026-04-29T15:55:32.002Z</time></trkpt><trkpt lat="42.882330457172195" lon="-1.564114890815055"><ele>486.4</ele><time>2026-04-29T15:55:33.002Z</time></trkpt><trkpt lat="42.8822187629969" lon="-1.5641399768800286"><ele>486.0</ele><time>2026-04-29T15:55:34.002Z</time></trkpt><trkpt lat="42.88210754094912" lon="-1.5641717445487506"><ele>486.0</ele><time>2026-04-29T15:55:35.002Z</time></trkpt><trkpt lat="42.88199642711488" lon="-1.564209678925937"><ele>486.0</ele><time>2026-04-29T15:55:36.002Z</time></trkpt><trkpt lat="42.88188506339205" lon="-1.5642524664026252"><ele>486.0</ele><time>2026-04-29T15:55:37.002Z</time></trkpt><trkpt lat="42.881778669346446" lon="-1.564298074007197"><ele>486.0</ele><time>2026-04-29T15:55:38.002Z</time></trkpt><trkpt lat="42.881673778228304" lon="-1.5643557500551915"><ele>485.0</ele><time>2026-04-29T15:55:39.002Z</time></trkpt><trkpt lat="42.88156680702935" lon="-1.5644114602495123"><ele>484.0</ele><time>2026-04-29T15:55:40.002Z</time></trkpt><trkpt lat="42.88146360089626" lon="-1.5644720997913706"><ele>483.0</ele><time>2026-04-29T15:55:41.002Z</time></trkpt><trkpt lat="42.881360316368486" lon="-1.5645317886105505"><ele>482.0</ele><time>2026-04-29T15:55:42.002Z</time></trkpt><trkpt lat="42.88125831859163" lon="-1.5645955164556489"><ele>483.75</ele><time>2026-04-29T15:55:43.002Z</time></trkpt><trkpt lat="42.88115485097835" lon="-1.5646570889342746"><ele>485.5</ele><time>2026-04-29T15:55:44.002Z</time></trkpt><trkpt lat="42.88105227851596" lon="-1.564718701474068"><ele>487.25</ele><time>2026-04-29T15:55:45.002Z</time></trkpt><trkpt lat="42.88094865537563" lon="-1.5647840330929503"><ele>489.0</ele><time>2026-04-29T15:55:46.002Z</time></trkpt><trkpt lat="42.88084336805507" lon="-1.5648449977062384"><ele>489.0</ele><time>2026-04-29T15:55:47.002Z</time></trkpt><trkpt lat="42.88074345609426" lon="-1.5649112029054502"><ele>489.0</ele><time>2026-04-29T15:55:48Z</time></trkpt><trkpt lat="42.88063774875658" lon="-1.5649745087136078"><ele>489.0</ele><time>2026-04-29T15:55:49Z</time></trkpt><trkpt lat="42.880535534209734" lon="-1.5650377486266986"><ele>489.0</ele><time>2026-04-29T15:55:50Z</time></trkpt><trkpt lat="42.880433373505724" lon="-1.565101009141897"><ele>489.0</ele><time>2026-04-29T15:55:51Z</time></trkpt><trkpt lat="42.880332933863365" lon="-1.5651593395601175"><ele>489.0</ele><time>2026-04-29T15:55:52Z</time></trkpt><trkpt lat="42.88023273853453" lon="-1.565219778221917"><ele>489.0</ele><time>2026-04-29T15:55:53Z</time></trkpt><trkpt lat="42.88013291648464" lon="-1.5652780111222655"><ele>489.0</ele><time>2026-04-29T15:55:54Z</time></trkpt><trkpt lat="42.88003278393047" lon="-1.5653381537959843"><ele>489.0</ele><time>2026-04-29T15:55:55Z</time></trkpt><trkpt lat="42.8799345337651" lon="-1.5654001543675249"><ele>490.6</ele><time>2026-04-29T15:55:56Z</time></trkpt><trkpt lat="42.879835839673234" lon="-1.5654634583130025"><ele>492.2</ele><time>2026-04-29T15:55:57Z</time></trkpt><trkpt lat="42.87973863050256" lon="-1.5655245323200213"><ele>493.80000000000007</ele><time>2026-04-29T15:55:58Z</time></trkpt><trkpt lat="42.879640789778236" lon="-1.5655847694333478"><ele>495.40000000000003</ele><time>2026-04-29T15:55:59Z</time></trkpt><trkpt lat="42.87954467975575" lon="-1.5656453236597714"><ele>497.0</ele><time>2026-04-29T15:56:00Z</time></trkpt><trkpt lat="42.879448735560096" lon="-1.5657020369856234"><ele>497.0</ele><time>2026-04-29T15:56:01Z</time></trkpt><trkpt lat="42.87935316594367" lon="-1.565762983156578"><ele>497.00000000000006</ele><time>2026-04-29T15:56:02Z</time></trkpt><trkpt lat="42.87925703298742" lon="-1.565820269115409"><ele>497.00000000000006</ele><time>2026-04-29T15:56:03Z</time></trkpt><trkpt lat="42.87916020321725" lon="-1.5658800006667937"><ele>497.0</ele><time>2026-04-29T15:56:04Z</time></trkpt><trkpt lat="42.87906402140731" lon="-1.565939994322214"><ele>497.0</ele><time>2026-04-29T15:56:05Z</time></trkpt><trkpt lat="42.87896680686288" lon="-1.5659999624401986"><ele>495.8</ele><time>2026-04-29T15:56:06Z</time></trkpt><trkpt lat="42.87887017736491" lon="-1.5660572239273074"><ele>494.6</ele><time>2026-04-29T15:56:07Z</time></trkpt><trkpt lat="42.87877450622627" lon="-1.5661185668226556"><ele>493.40000000000003</ele><time>2026-04-29T15:56:08Z</time></trkpt><trkpt lat="42.87868297267002" lon="-1.566181295524042"><ele>492.20000000000005</ele><time>2026-04-29T15:56:09Z</time></trkpt><trkpt lat="42.87858966543478" lon="-1.5662417582999422"><ele>491.0</ele><time>2026-04-29T15:56:10Z</time></trkpt><trkpt lat="42.87849560443559" lon="-1.566312359483407"><ele>488.8</ele><time>2026-04-29T15:56:11Z</time></trkpt><trkpt lat="42.87840569885374" lon="-1.5663679489718265"><ele>486.6</ele><time>2026-04-29T15:56:12Z</time></trkpt><trkpt lat="42.87831144505418" lon="-1.566423686013987"><ele>484.4</ele><time>2026-04-29T15:56:13Z</time></trkpt><trkpt lat="42.87821592198578" lon="-1.5664836072170278"><ele>482.2</ele><time>2026-04-29T15:56:14Z</time></trkpt><trkpt lat="42.87812370588305" lon="-1.5665439740348637"><ele>480.0</ele><time>2026-04-29T15:56:15Z</time></trkpt><trkpt lat="42.8780294757741" lon="-1.5665976808387156"><ele>480.0</ele><time>2026-04-29T15:56:16Z</time></trkpt><trkpt lat="42.87793561022944" lon="-1.5666567838134886"><ele>480.0</ele><time>2026-04-29T15:56:17Z</time></trkpt><trkpt lat="42.877842885891816" lon="-1.5667125836839704"><ele>480.0</ele><time>2026-04-29T15:56:18Z</time></trkpt><trkpt lat="42.87774736112082" lon="-1.5667718753341269"><ele>480.0</ele><time>2026-04-29T15:56:19Z</time></trkpt><trkpt lat="42.87765697022694" lon="-1.566825778985559"><ele>480.0</ele><time>2026-04-29T15:56:20Z</time></trkpt><trkpt lat="42.877560675256305" lon="-1.5668878665650026"><ele>479.2</ele><time>2026-04-29T15:56:21Z</time></trkpt><trkpt lat="42.87747081577012" lon="-1.5669428132745302"><ele>478.4</ele><time>2026-04-29T15:56:22.001Z</time></trkpt><trkpt lat="42.87737893095313" lon="-1.566998278757371"><ele>477.6</ele><time>2026-04-29T15:56:23.001Z</time></trkpt><trkpt lat="42.87728692179568" lon="-1.567054664713625"><ele>476.8</ele><time>2026-04-29T15:56:24.001Z</time></trkpt><trkpt lat="42.87720011564678" lon="-1.567110664230701"><ele>476.0</ele><time>2026-04-29T15:56:25.001Z</time></trkpt><trkpt lat="42.87710959832548" lon="-1.567168184622516"><ele>476.8</ele><time>2026-04-29T15:56:26.001Z</time></trkpt><trkpt lat="42.87701891477391" lon="-1.5672271524733992"><ele>477.6</ele><time>2026-04-29T15:56:27.001Z</time></trkpt><trkpt lat="42.876927979295935" lon="-1.5672820867073212"><ele>478.4</ele><time>2026-04-29T15:56:28.001Z</time></trkpt><trkpt lat="42.876840094083015" lon="-1.5673314226031319"><ele>479.2</ele><time>2026-04-29T15:56:29.001Z</time></trkpt><trkpt lat="42.87675092252969" lon="-1.567384136189785"><ele>480.0</ele><time>2026-04-29T15:56:30.001Z</time></trkpt><trkpt lat="42.87665924596972" lon="-1.5674374545847987"><ele>480.0</ele><time>2026-04-29T15:56:31.001Z</time></trkpt><trkpt lat="42.87657149547989" lon="-1.5674959575575673"><ele>480.0</ele><time>2026-04-29T15:56:32.001Z</time></trkpt><trkpt lat="42.87647972975649" lon="-1.5675582803416215"><ele>480.0</ele><time>2026-04-29T15:56:33.001Z</time></trkpt><trkpt lat="42.87638894917241" lon="-1.5676209291516674"><ele>480.0</ele><time>2026-04-29T15:56:34.001Z</time></trkpt><trkpt lat="42.876298231188656" lon="-1.567684438716294"><ele>480.0</ele><time>2026-04-29T15:56:35.001Z</time></trkpt><trkpt lat="42.87620567990741" lon="-1.5677502804436998"><ele>480.0</ele><time>2026-04-29T15:56:36.001Z</time></trkpt><trkpt lat="42.87611028064269" lon="-1.5678069693343175"><ele>480.0</ele><time>2026-04-29T15:56:37.001Z</time></trkpt><trkpt lat="42.87601377950039" lon="-1.567867907091991"><ele>480.0</ele><time>2026-04-29T15:56:38.001Z</time></trkpt><trkpt lat="42.875918981874875" lon="-1.5679300369713751"><ele>480.0</ele><time>2026-04-29T15:56:39.001Z</time></trkpt><trkpt lat="42.875823337111996" lon="-1.5679956311181462"><ele>480.0</ele><time>2026-04-29T15:56:40.001Z</time></trkpt><trkpt lat="42.875730021834094" lon="-1.5680614392661085"><ele>479.8</ele><time>2026-04-29T15:56:41.001Z</time></trkpt><trkpt lat="42.875633730095345" lon="-1.5681239924738655"><ele>479.6</ele><time>2026-04-29T15:56:42.001Z</time></trkpt><trkpt lat="42.87553742816242" lon="-1.5681826373325127"><ele>479.4</ele><time>2026-04-29T15:56:43.001Z</time></trkpt><trkpt lat="42.875444649356574" lon="-1.5682415486976955"><ele>479.2</ele><time>2026-04-29T15:56:44.001Z</time></trkpt><trkpt lat="42.875354493901916" lon="-1.5683049921122294"><ele>479.0</ele><time>2026-04-29T15:56:45.001Z</time></trkpt><trkpt lat="42.87526139345184" lon="-1.568366416032014"><ele>479.0</ele><time>2026-04-29T15:56:46.001Z</time></trkpt><trkpt lat="42.87517132051354" lon="-1.5684271956472067"><ele>479.0</ele><time>2026-04-29T15:56:47.001Z</time></trkpt><trkpt lat="42.875083109710765" lon="-1.5684866566120959"><ele>479.0</ele><time>2026-04-29T15:56:48.001Z</time></trkpt><trkpt lat="42.87499303276014" lon="-1.5685483687530544"><ele>479.0</ele><time>2026-04-29T15:56:49.001Z</time></trkpt><trkpt lat="42.87490278635403" lon="-1.5686077469886908"><ele>479.0</ele><time>2026-04-29T15:56:50.001Z</time></trkpt><trkpt lat="42.87481265046403" lon="-1.5686682877517324"><ele>479.4</ele><time>2026-04-29T15:56:51.001Z</time></trkpt><trkpt lat="42.874723322773185" lon="-1.5687270057731062"><ele>479.79999999999995</ele><time>2026-04-29T15:56:52.001Z</time></trkpt><trkpt lat="42.874630872736134" lon="-1.5687852850150843"><ele>480.20000000000005</ele><time>2026-04-29T15:56:53.001Z</time></trkpt><trkpt lat="42.87454198353903" lon="-1.5688436844942775"><ele>480.6</ele><time>2026-04-29T15:56:54.001Z</time></trkpt><trkpt lat="42.874449623689266" lon="-1.5689041569854842"><ele>481.0</ele><time>2026-04-29T15:56:55.001Z</time></trkpt><trkpt lat="42.87435879208537" lon="-1.568966212871886"><ele>480.20000000000005</ele><time>2026-04-29T15:56:56.001Z</time></trkpt><trkpt lat="42.87426860820202" lon="-1.569026543194976"><ele>479.40000000000003</ele><time>2026-04-29T15:56:57.001Z</time></trkpt><trkpt lat="42.87417878832143" lon="-1.5690857537635305"><ele>478.6</ele><time>2026-04-29T15:56:58.001Z</time></trkpt><trkpt lat="42.874087660590114" lon="-1.5691453958729122"><ele>477.8</ele><time>2026-04-29T15:56:59.001Z</time></trkpt><trkpt lat="42.87399735463773" lon="-1.56920767142159"><ele>477.0</ele><time>2026-04-29T15:57:00.001Z</time></trkpt><trkpt lat="42.873904957149264" lon="-1.56926581787525"><ele>477.0</ele><time>2026-04-29T15:57:01.001Z</time></trkpt><trkpt lat="42.87381690658285" lon="-1.569328126231191"><ele>477.00000000000006</ele><time>2026-04-29T15:57:02.001Z</time></trkpt><trkpt lat="42.87372530096028" lon="-1.5693877609191438"><ele>477.00000000000006</ele><time>2026-04-29T15:57:03.001Z</time></trkpt><trkpt lat="42.873635243579216" lon="-1.5694459191136987"><ele>477.0</ele><time>2026-04-29T15:57:04.001Z</time></trkpt><trkpt lat="42.87354648464193" lon="-1.5695067188034812"><ele>477.0</ele><time>2026-04-29T15:57:05.001Z</time></trkpt><trkpt lat="42.87345824028835" lon="-1.569565232198452"><ele>479.0</ele><time>2026-04-29T15:57:06.001Z</time></trkpt><trkpt lat="42.87336983554555" lon="-1.5696274074988426"><ele>481.00000000000006</ele><time>2026-04-29T15:57:07.001Z</time></trkpt><trkpt lat="42.873280065635036" lon="-1.569687661868139"><ele>483.00000000000006</ele><time>2026-04-29T15:57:08.001Z</time></trkpt><trkpt lat="42.873192273860944" lon="-1.5697426703072896"><ele>485.0</ele><time>2026-04-29T15:57:09.001Z</time></trkpt><trkpt lat="42.873102992203535" lon="-1.5697982756488686"><ele>487.0</ele><time>2026-04-29T15:57:10.001Z</time></trkpt><trkpt lat="42.87301457381744" lon="-1.5698574634703255"><ele>487.0</ele><time>2026-04-29T15:57:11.001Z</time></trkpt><trkpt lat="42.87292633734344" lon="-1.5699153856477057"><ele>487.00000000000006</ele><time>2026-04-29T15:57:12.001Z</time></trkpt><trkpt lat="42.872841821602485" lon="-1.5699747793424468"><ele>487.00000000000006</ele><time>2026-04-29T15:57:13.001Z</time></trkpt><trkpt lat="42.87275824326163" lon="-1.57002968874899"><ele>487.0</ele><time>2026-04-29T15:57:14.001Z</time></trkpt><trkpt lat="42.872671942595495" lon="-1.570082131688785"><ele>487.0</ele><time>2026-04-29T15:57:15.001Z</time></trkpt><trkpt lat="42.872587408037965" lon="-1.5701403190423724"><ele>486.40000000000003</ele><time>2026-04-29T15:57:16.001Z</time></trkpt><trkpt lat="42.87250505664921" lon="-1.5701930415455168"><ele>485.80000000000007</ele><time>2026-04-29T15:57:17.001Z</time></trkpt><trkpt lat="42.87242188051393" lon="-1.5702409457668534"><ele>485.2</ele><time>2026-04-29T15:57:18.001Z</time></trkpt><trkpt lat="42.872340560172205" lon="-1.5702905219361991"><ele>484.6</ele><time>2026-04-29T15:57:19.001Z</time></trkpt><trkpt lat="42.872255814898075" lon="-1.5703343748955239"><ele>484.0</ele><time>2026-04-29T15:57:20.001Z</time></trkpt><trkpt lat="42.872171426901375" lon="-1.5703743767358422"><ele>485.50000000000006</ele><time>2026-04-29T15:57:21.001Z</time></trkpt><trkpt lat="42.872085799144706" lon="-1.5704114868730406"><ele>487.0</ele><time>2026-04-29T15:57:22.001Z</time></trkpt><trkpt lat="42.8720053674819" lon="-1.570449305887085"><ele>488.5</ele><time>2026-04-29T15:57:23.001Z</time></trkpt><trkpt lat="42.87192158995912" lon="-1.5704832842859042"><ele>490.0</ele><time>2026-04-29T15:57:24.001Z</time></trkpt><trkpt lat="42.87184002507796" lon="-1.5705244586014122"><ele>491.50000000000006</ele><time>2026-04-29T15:57:25.001Z</time></trkpt><trkpt lat="42.87175856074022" lon="-1.570559541119252"><ele>493.0</ele><time>2026-04-29T15:57:26.002Z</time></trkpt><trkpt lat="42.87168165707069" lon="-1.5706004151076816"><ele>493.00000000000006</ele><time>2026-04-29T15:57:27.002Z</time></trkpt><trkpt lat="42.87160167803538" lon="-1.5706395048972603"><ele>493.0</ele><time>2026-04-29T15:57:28.002Z</time></trkpt><trkpt lat="42.87152466957092" lon="-1.5706806922183054"><ele>493.0</ele><time>2026-04-29T15:57:29.002Z</time></trkpt><trkpt lat="42.871447332243484" lon="-1.5707250971394702"><ele>493.0</ele><time>2026-04-29T15:57:30.002Z</time></trkpt><trkpt lat="42.87137307983406" lon="-1.570771294697364"><ele>493.00000000000006</ele><time>2026-04-29T15:57:31.002Z</time></trkpt><trkpt lat="42.871299178835145" lon="-1.570819294208602"><ele>493.0</ele><time>2026-04-29T15:57:32.002Z</time></trkpt><trkpt lat="42.87122502242037" lon="-1.57086572341681"><ele>493.00000000000006</ele><time>2026-04-29T15:57:33.002Z</time></trkpt><trkpt lat="42.87115246104028" lon="-1.5709115795700075"><ele>493.0</ele><time>2026-04-29T15:57:34.002Z</time></trkpt><trkpt lat="42.87107817225719" lon="-1.570958716273811"><ele>493.0</ele><time>2026-04-29T15:57:35.002Z</time></trkpt><trkpt lat="42.87100522796862" lon="-1.5710062373104985"><ele>493.0</ele><time>2026-04-29T15:57:36.002Z</time></trkpt><trkpt lat="42.87093176270396" lon="-1.5710517445860706"><ele>493.00000000000006</ele><time>2026-04-29T15:57:37.002Z</time></trkpt><trkpt lat="42.870857739343144" lon="-1.571098625444653"><ele>493.0</ele><time>2026-04-29T15:57:38.002Z</time></trkpt><trkpt lat="42.87078739595762" lon="-1.5711484348154103"><ele>494.1666666666667</ele><time>2026-04-29T15:57:39.002Z</time></trkpt><trkpt lat="42.87071473155277" lon="-1.5711967107202465"><ele>495.33333333333337</ele><time>2026-04-29T15:57:40.002Z</time></trkpt><trkpt lat="42.87063968556916" lon="-1.5712380920237206"><ele>496.5</ele><time>2026-04-29T15:57:41.002Z</time></trkpt><trkpt lat="42.87056258603565" lon="-1.5712820414209956"><ele>497.66666666666663</ele><time>2026-04-29T15:57:42.002Z</time></trkpt><trkpt lat="42.870487903506685" lon="-1.571323340061111"><ele>498.8333333333333</ele><time>2026-04-29T15:57:43.002Z</time></trkpt><trkpt lat="42.870412702303824" lon="-1.5713633721210254"><ele>500.0</ele><time>2026-04-29T15:57:44.002Z</time></trkpt><trkpt lat="42.87033297047029" lon="-1.571398876013582"><ele>499.99999999999994</ele><time>2026-04-29T15:57:45.002Z</time></trkpt><trkpt lat="42.87025363180649" lon="-1.5714247927731235"><ele>500.0</ele><time>2026-04-29T15:57:46.002Z</time></trkpt><trkpt lat="42.87017532346662" lon="-1.571443649400699"><ele>500.0</ele><time>2026-04-29T15:57:47.002Z</time></trkpt><trkpt lat="42.870094401933954" lon="-1.5714594232828376"><ele>500.0</ele><time>2026-04-29T15:57:48.002Z</time></trkpt><trkpt lat="42.870014386741964" lon="-1.5714703932353153"><ele>499.99999999999994</ele><time>2026-04-29T15:57:49.002Z</time></trkpt><trkpt lat="42.86992848294652" lon="-1.5714819796367772"><ele>500.0</ele><time>2026-04-29T15:57:50.002Z</time></trkpt><trkpt lat="42.86984497144735" lon="-1.5714899271257823"><ele>499.3333333333333</ele><time>2026-04-29T15:57:51.002Z</time></trkpt><trkpt lat="42.86975916968" lon="-1.5714934019520967"><ele>498.66666666666663</ele><time>2026-04-29T15:57:52.002Z</time></trkpt><trkpt lat="42.86967550417011" lon="-1.5714985790432805"><ele>498.0</ele><time>2026-04-29T15:57:53.002Z</time></trkpt><trkpt lat="42.86959166057235" lon="-1.571501617130962"><ele>497.33333333333337</ele><time>2026-04-29T15:57:54Z</time></trkpt><trkpt lat="42.86950618381234" lon="-1.5715047337012464"><ele>496.6666666666667</ele><time>2026-04-29T15:57:55Z</time></trkpt><trkpt lat="42.86942064770189" lon="-1.571507930939729"><ele>496.0</ele><time>2026-04-29T15:57:56Z</time></trkpt><trkpt lat="42.86933213864492" lon="-1.5715118875407477"><ele>495.20000000000005</ele><time>2026-04-29T15:57:57Z</time></trkpt><trkpt lat="42.869244341172156" lon="-1.5715146762168644"><ele>494.40000000000003</ele><time>2026-04-29T15:57:58Z</time></trkpt><trkpt lat="42.86915385582761" lon="-1.5715204731743646"><ele>493.6</ele><time>2026-04-29T15:57:59Z</time></trkpt><trkpt lat="42.86906298763994" lon="-1.5715249644097802"><ele>492.8</ele><time>2026-04-29T15:58:00Z</time></trkpt><trkpt lat="42.868968641278514" lon="-1.5715299921520625"><ele>492.0</ele><time>2026-04-29T15:58:01Z</time></trkpt><trkpt lat="42.86887517953507" lon="-1.5715346779700916"><ele>492.0</ele><time>2026-04-29T15:58:02Z</time></trkpt><trkpt lat="42.86878052894859" lon="-1.571540573726155"><ele>492.00000000000006</ele><time>2026-04-29T15:58:03Z</time></trkpt><trkpt lat="42.868683960853964" lon="-1.5715534093588865"><ele>492.00000000000006</ele><time>2026-04-29T15:58:04Z</time></trkpt><trkpt lat="42.868590718643325" lon="-1.5715659046844808"><ele>492.0</ele><time>2026-04-29T15:58:05Z</time></trkpt><trkpt lat="42.8684947452402" lon="-1.571588948130919"><ele>492.0</ele><time>2026-04-29T15:58:06Z</time></trkpt><trkpt lat="42.86839859365282" lon="-1.5716203652084986"><ele>491.20000000000005</ele><time>2026-04-29T15:58:07Z</time></trkpt><trkpt lat="42.86830055908273" lon="-1.5716485799491329"><ele>490.40000000000003</ele><time>2026-04-29T15:58:08Z</time></trkpt><trkpt lat="42.868203847186166" lon="-1.571682377027301"><ele>489.59999999999997</ele><time>2026-04-29T15:58:09Z</time></trkpt><trkpt lat="42.86810698751601" lon="-1.5717084715349925"><ele>488.79999999999995</ele><time>2026-04-29T15:58:10Z</time></trkpt><trkpt lat="42.86801242492065" lon="-1.5717447988743307"><ele>488.0</ele><time>2026-04-29T15:58:11Z</time></trkpt><trkpt lat="42.867916144323615" lon="-1.571781114352452"><ele>488.0</ele><time>2026-04-29T15:58:12Z</time></trkpt><trkpt lat="42.86782026281547" lon="-1.5718159643646188"><ele>487.99999999999994</ele><time>2026-04-29T15:58:13Z</time></trkpt><trkpt lat="42.86772727907437" lon="-1.571854131499791"><ele>487.99999999999994</ele><time>2026-04-29T15:58:14Z</time></trkpt><trkpt lat="42.867634267102986" lon="-1.5718936544513036"><ele>488.0</ele><time>2026-04-29T15:58:15Z</time></trkpt><trkpt lat="42.86754014031608" lon="-1.5719301684597367"><ele>488.0</ele><time>2026-04-29T15:58:16Z</time></trkpt><trkpt lat="42.86744777022205" lon="-1.5719656512895723"><ele>486.79999999999995</ele><time>2026-04-29T15:58:17Z</time></trkpt><trkpt lat="42.86735433737412" lon="-1.572002615140214"><ele>485.59999999999997</ele><time>2026-04-29T15:58:18Z</time></trkpt><trkpt lat="42.86726080254822" lon="-1.57203508927919"><ele>484.40000000000003</ele><time>2026-04-29T15:58:19Z</time></trkpt><trkpt lat="42.86716805799341" lon="-1.5720722955647353"><ele>483.20000000000005</ele><time>2026-04-29T15:58:20Z</time></trkpt><trkpt lat="42.86707442753218" lon="-1.5721111854188285"><ele>482.0</ele><time>2026-04-29T15:58:21Z</time></trkpt><trkpt lat="42.86697807235545" lon="-1.572146948948318"><ele>484.0</ele><time>2026-04-29T15:58:22Z</time></trkpt><trkpt lat="42.86687970350583" lon="-1.572183377064352"><ele>486.00000000000006</ele><time>2026-04-29T15:58:23Z</time></trkpt><trkpt lat="42.866781156886255" lon="-1.572222994520379"><ele>488.00000000000006</ele><time>2026-04-29T15:58:24Z</time></trkpt><trkpt lat="42.86668131716939" lon="-1.5722675303168725"><ele>490.0</ele><time>2026-04-29T15:58:25.001Z</time></trkpt><trkpt lat="42.86657813441247" lon="-1.57231069794079"><ele>492.0</ele><time>2026-04-29T15:58:26.001Z</time></trkpt><trkpt lat="42.86647775209618" lon="-1.5723488365497156"><ele>492.0</ele><time>2026-04-29T15:58:27.001Z</time></trkpt><trkpt lat="42.866377598391686" lon="-1.5723889994990043"><ele>492.00000000000006</ele><time>2026-04-29T15:58:28.001Z</time></trkpt><trkpt lat="42.866275126107844" lon="-1.5724306233000052"><ele>492.00000000000006</ele><time>2026-04-29T15:58:29.001Z</time></trkpt><trkpt lat="42.866172193346834" lon="-1.5724716919950674"><ele>492.0</ele><time>2026-04-29T15:58:30.001Z</time></trkpt><trkpt lat="42.866069515600316" lon="-1.572512751808463"><ele>492.0</ele><time>2026-04-29T15:58:31.001Z</time></trkpt><trkpt lat="42.86596384219398" lon="-1.5725551830119355"><ele>490.6</ele><time>2026-04-29T15:58:32.001Z</time></trkpt><trkpt lat="42.86586007887159" lon="-1.5725965384918688"><ele>489.20000000000005</ele><time>2026-04-29T15:58:33.001Z</time></trkpt><trkpt lat="42.86575550089647" lon="-1.572635854278433"><ele>487.8</ele><time>2026-04-29T15:58:34.001Z</time></trkpt><trkpt lat="42.86565081137791" lon="-1.5726752286593142"><ele>486.4</ele><time>2026-04-29T15:58:35.001Z</time></trkpt><trkpt lat="42.86554465837981" lon="-1.5727124926225693"><ele>485.0</ele><time>2026-04-29T15:58:36.001Z</time></trkpt><trkpt lat="42.86544016328767" lon="-1.5727468887541936"><ele>485.0</ele><time>2026-04-29T15:58:37.001Z</time></trkpt><trkpt lat="42.86533478615029" lon="-1.5727788516633763"><ele>485.0</ele><time>2026-04-29T15:58:38.001Z</time></trkpt><trkpt lat="42.865228037012656" lon="-1.5728050042036548"><ele>485.0</ele><time>2026-04-29T15:58:39.001Z</time></trkpt><trkpt lat="42.86512377604206" lon="-1.5728333495472135"><ele>485.0</ele><time>2026-04-29T15:58:40.001Z</time></trkpt><trkpt lat="42.86501819480107" lon="-1.5728604283741194"><ele>485.0</ele><time>2026-04-29T15:58:41.001Z</time></trkpt><trkpt lat="42.864912665937815" lon="-1.5728864612345732"><ele>487.0</ele><time>2026-04-29T15:58:42.001Z</time></trkpt><trkpt lat="42.86480723212808" lon="-1.5729126325648821"><ele>489.0</ele><time>2026-04-29T15:58:43.001Z</time></trkpt><trkpt lat="42.864700806189816" lon="-1.5729373376843538"><ele>491.0</ele><time>2026-04-29T15:58:44.001Z</time></trkpt><trkpt lat="42.864594384117716" lon="-1.572958236480307"><ele>493.0</ele><time>2026-04-29T15:58:45.001Z</time></trkpt><trkpt lat="42.86448959401429" lon="-1.5729779869957385"><ele>495.0</ele><time>2026-04-29T15:58:46.001Z</time></trkpt><trkpt lat="42.864384387273894" lon="-1.5729974103119158"><ele>493.0</ele><time>2026-04-29T15:58:47.001Z</time></trkpt><trkpt lat="42.86427874733276" lon="-1.573019914346316"><ele>491.0</ele><time>2026-04-29T15:58:48.001Z</time></trkpt><trkpt lat="42.86417280137822" lon="-1.5730404648763203"><ele>489.0</ele><time>2026-04-29T15:58:49.001Z</time></trkpt><trkpt lat="42.86406675906444" lon="-1.5730649027862285"><ele>487.0</ele><time>2026-04-29T15:58:50.001Z</time></trkpt><trkpt lat="42.86395916677285" lon="-1.5730843346783867"><ele>485.0</ele><time>2026-04-29T15:58:51.001Z</time></trkpt><trkpt lat="42.863850056865616" lon="-1.5731066508114442"><ele>485.0</ele><time>2026-04-29T15:58:52.001Z</time></trkpt><trkpt lat="42.863742393441456" lon="-1.5731287937757776"><ele>485.0</ele><time>2026-04-29T15:58:53.001Z</time></trkpt><trkpt lat="42.86363681544169" lon="-1.5731492692654423"><ele>485.0</ele><time>2026-04-29T15:58:54.001Z</time></trkpt><trkpt lat="42.86353347418807" lon="-1.5731728505242126"><ele>485.0</ele><time>2026-04-29T15:58:55.001Z</time></trkpt><trkpt lat="42.86343104146769" lon="-1.5731962313191032"><ele>485.0</ele><time>2026-04-29T15:58:56.001Z</time></trkpt><trkpt lat="42.863329584178544" lon="-1.5732189346846732"><ele>483.4</ele><time>2026-04-29T15:58:57.001Z</time></trkpt><trkpt lat="42.86323007188767" lon="-1.5732389465248677"><ele>481.8</ele><time>2026-04-29T15:58:58.001Z</time></trkpt><trkpt lat="42.86313333302112" lon="-1.5732595272564598"><ele>480.20000000000005</ele><time>2026-04-29T15:58:59.001Z</time></trkpt><trkpt lat="42.86303601486143" lon="-1.5732844310824448"><ele>478.6</ele><time>2026-04-29T15:59:00.001Z</time></trkpt><trkpt lat="42.86293795499234" lon="-1.573308877118383"><ele>477.0</ele><time>2026-04-29T15:59:01.001Z</time></trkpt><trkpt lat="42.86284051114221" lon="-1.5733372317395768"><ele>477.0</ele><time>2026-04-29T15:59:02.001Z</time></trkpt><trkpt lat="42.86274470710632" lon="-1.5733681861897117"><ele>477.00000000000006</ele><time>2026-04-29T15:59:03.001Z</time></trkpt><trkpt lat="42.86264859204222" lon="-1.5734022205190508"><ele>477.00000000000006</ele><time>2026-04-29T15:59:04.001Z</time></trkpt><trkpt lat="42.86255332599863" lon="-1.5734417646362506"><ele>477.0</ele><time>2026-04-29T15:59:05.001Z</time></trkpt><trkpt lat="42.86245797378737" lon="-1.5734886569436415"><ele>477.0</ele><time>2026-04-29T15:59:06.001Z</time></trkpt><trkpt lat="42.86236332362144" lon="-1.5735372196907864"><ele>476.20000000000005</ele><time>2026-04-29T15:59:07.001Z</time></trkpt><trkpt lat="42.86226771201038" lon="-1.5735890633620246"><ele>475.40000000000003</ele><time>2026-04-29T15:59:08.001Z</time></trkpt><trkpt lat="42.86217235521243" lon="-1.5736428827664226"><ele>474.59999999999997</ele><time>2026-04-29T15:59:09.001Z</time></trkpt><trkpt lat="42.86207717138483" lon="-1.5737006120790564"><ele>473.79999999999995</ele><time>2026-04-29T15:59:10.001Z</time></trkpt><trkpt lat="42.86197997801553" lon="-1.573759786584175"><ele>473.0</ele><time>2026-04-29T15:59:11.001Z</time></trkpt><trkpt lat="42.8618821331227" lon="-1.573816390816724"><ele>474.59999999999997</ele><time>2026-04-29T15:59:12.001Z</time></trkpt><trkpt lat="42.86178595068026" lon="-1.5738776051516592"><ele>476.19999999999993</ele><time>2026-04-29T15:59:13.001Z</time></trkpt><trkpt lat="42.86168940880025" lon="-1.573941763779003"><ele>477.8</ele><time>2026-04-29T15:59:14.001Z</time></trkpt><trkpt lat="42.86159469808018" lon="-1.5740092672656327"><ele>479.4</ele><time>2026-04-29T15:59:15.001Z</time></trkpt><trkpt lat="42.86150386568593" lon="-1.5740840016447195"><ele>481.0</ele><time>2026-04-29T15:59:16.001Z</time></trkpt><trkpt lat="42.86141739079903" lon="-1.5741699619070553"><ele>481.0</ele><time>2026-04-29T15:59:17.001Z</time></trkpt><trkpt lat="42.86132933169312" lon="-1.5742557514512519"><ele>481.0</ele><time>2026-04-29T15:59:18.001Z</time></trkpt><trkpt lat="42.861239889686495" lon="-1.5743406731804388"><ele>481.0</ele><time>2026-04-29T15:59:19.001Z</time></trkpt><trkpt lat="42.8611480729645" lon="-1.574422728827679"><ele>481.0</ele><time>2026-04-29T15:59:20.001Z</time></trkpt><trkpt lat="42.86105678065157" lon="-1.5745006362108778"><ele>481.0</ele><time>2026-04-29T15:59:21.001Z</time></trkpt><trkpt lat="42.86096220272431" lon="-1.574570258650242"><ele>482.0</ele><time>2026-04-29T15:59:22.001Z</time></trkpt><trkpt lat="42.860863427905365" lon="-1.5746306577390443"><ele>483.0</ele><time>2026-04-29T15:59:23.001Z</time></trkpt><trkpt lat="42.860760492121564" lon="-1.57467811751917"><ele>484.0</ele><time>2026-04-29T15:59:24.001Z</time></trkpt><trkpt lat="42.86065619895781" lon="-1.5747211339859015"><ele>485.0</ele><time>2026-04-29T15:59:25.001Z</time></trkpt><trkpt lat="42.86055161250874" lon="-1.5747634249609601"><ele>486.0</ele><time>2026-04-29T15:59:26.001Z</time></trkpt><trkpt lat="42.8604481364436" lon="-1.5748102796881085"><ele>486.0</ele><time>2026-04-29T15:59:27.001Z</time></trkpt><trkpt lat="42.86034791856441" lon="-1.5748625106551035"><ele>486.0</ele><time>2026-04-29T15:59:28.001Z</time></trkpt><trkpt lat="42.86024771870912" lon="-1.5749185904725291"><ele>486.0</ele><time>2026-04-29T15:59:29.001Z</time></trkpt><trkpt lat="42.860151333203135" lon="-1.5749855329608526"><ele>486.0</ele><time>2026-04-29T15:59:30.001Z</time></trkpt><trkpt lat="42.86006051366045" lon="-1.5750682996614214"><ele>486.0</ele><time>2026-04-29T15:59:31.001Z</time></trkpt><trkpt lat="42.85997403556227" lon="-1.5751606115678451"><ele>485.4</ele><time>2026-04-29T15:59:32.002Z</time></trkpt><trkpt lat="42.859891190409456" lon="-1.5752600142348505"><ele>484.8</ele><time>2026-04-29T15:59:33.002Z</time></trkpt><trkpt lat="42.859808549308426" lon="-1.5753560148939725"><ele>484.19999999999993</ele><time>2026-04-29T15:59:34.002Z</time></trkpt><trkpt lat="42.85972711206393" lon="-1.5754557385519794"><ele>483.59999999999997</ele><time>2026-04-29T15:59:35.002Z</time></trkpt><trkpt lat="42.85964569840252" lon="-1.5755583872965317"><ele>483.0</ele><time>2026-04-29T15:59:36.002Z</time></trkpt><trkpt lat="42.859567043921906" lon="-1.5756622429039484"><ele>483.0</ele><time>2026-04-29T15:59:37.002Z</time></trkpt><trkpt lat="42.85948760261913" lon="-1.5757628800323267"><ele>482.99999999999994</ele><time>2026-04-29T15:59:38.002Z</time></trkpt><trkpt lat="42.85940718909274" lon="-1.57586043056975"><ele>482.99999999999994</ele><time>2026-04-29T15:59:39.002Z</time></trkpt><trkpt lat="42.859332939350935" lon="-1.5759562452423495"><ele>483.0</ele><time>2026-04-29T15:59:40.002Z</time></trkpt><trkpt lat="42.85925622331422" lon="-1.5760559754275558"><ele>483.0</ele><time>2026-04-29T15:59:41.002Z</time></trkpt><trkpt lat="42.85917890144916" lon="-1.5761516749488127"><ele>481.4</ele><time>2026-04-29T15:59:42.002Z</time></trkpt><trkpt lat="42.85910232934039" lon="-1.5762507463257238"><ele>479.79999999999995</ele><time>2026-04-29T15:59:43.002Z</time></trkpt><trkpt lat="42.85902706108113" lon="-1.5763495072465656"><ele>478.2</ele><time>2026-04-29T15:59:44.002Z</time></trkpt><trkpt lat="42.85895220228393" lon="-1.5764486311285157"><ele>476.6</ele><time>2026-04-29T15:59:45.002Z</time></trkpt><trkpt lat="42.858877188627886" lon="-1.576547479036578"><ele>475.0</ele><time>2026-04-29T15:59:46.002Z</time></trkpt><trkpt lat="42.85880175549301" lon="-1.576644009414937"><ele>475.0</ele><time>2026-04-29T15:59:47.002Z</time></trkpt><trkpt lat="42.858726478222664" lon="-1.5767438165651768"><ele>475.0</ele><time>2026-04-29T15:59:48.002Z</time></trkpt><trkpt lat="42.85865200643393" lon="-1.5768411674599723"><ele>475.0</ele><time>2026-04-29T15:59:49.002Z</time></trkpt><trkpt lat="42.85857742370775" lon="-1.5769409440739621"><ele>475.0</ele><time>2026-04-29T15:59:50.002Z</time></trkpt><trkpt lat="42.85850284646419" lon="-1.577035239139618"><ele>475.0</ele><time>2026-04-29T15:59:51.002Z</time></trkpt><trkpt lat="42.8584279533861" lon="-1.5771309499322606"><ele>476.0</ele><time>2026-04-29T15:59:52.002Z</time></trkpt><trkpt lat="42.85835321150198" lon="-1.5772285520111642"><ele>477.0</ele><time>2026-04-29T15:59:53.002Z</time></trkpt><trkpt lat="42.8582800624559" lon="-1.577322321675913"><ele>478.0</ele><time>2026-04-29T15:59:54.002Z</time></trkpt><trkpt lat="42.858207818535504" lon="-1.577415888556108"><ele>479.0</ele><time>2026-04-29T15:59:55.002Z</time></trkpt><trkpt lat="42.85813526884519" lon="-1.5775072678302846"><ele>480.0</ele><time>2026-04-29T15:59:56.002Z</time></trkpt><trkpt lat="42.8580611504413" lon="-1.5775992819639029"><ele>480.0</ele><time>2026-04-29T15:59:57.002Z</time></trkpt><trkpt lat="42.857989418529996" lon="-1.57769525178869"><ele>480.0</ele><time>2026-04-29T15:59:58.002Z</time></trkpt><trkpt lat="42.857918487999065" lon="-1.5777882476398033"><ele>480.0</ele><time>2026-04-29T15:59:59.002Z</time></trkpt><trkpt lat="42.85784739936034" lon="-1.5778799247250155"><ele>480.0</ele><time>2026-04-29T16:00:00Z</time></trkpt><trkpt lat="42.857775397693196" lon="-1.577967750644652"><ele>480.0</ele><time>2026-04-29T16:00:01Z</time></trkpt><trkpt lat="42.85770276921292" lon="-1.578055754631387"><ele>479.4</ele><time>2026-04-29T16:00:02Z</time></trkpt><trkpt lat="42.857629595058214" lon="-1.5781423310743348"><ele>478.8</ele><time>2026-04-29T16:00:03Z</time></trkpt><trkpt lat="42.85755710052181" lon="-1.5782286141566426"><ele>478.20000000000005</ele><time>2026-04-29T16:00:04Z</time></trkpt><trkpt lat="42.85748626746749" lon="-1.578318760117327"><ele>477.6</ele><time>2026-04-29T16:00:05Z</time></trkpt><trkpt lat="42.85741385739054" lon="-1.5784035730679025"><ele>477.0</ele><time>2026-04-29T16:00:06Z</time></trkpt><trkpt lat="42.857342894973215" lon="-1.578493260981141"><ele>477.0</ele><time>2026-04-29T16:00:07Z</time></trkpt><trkpt lat="42.85727495568245" lon="-1.5785849709250954"><ele>477.00000000000006</ele><time>2026-04-29T16:00:08Z</time></trkpt><trkpt lat="42.85720280716827" lon="-1.578672580926019"><ele>477.00000000000006</ele><time>2026-04-29T16:00:09Z</time></trkpt><trkpt lat="42.857129628016686" lon="-1.5787572666405743"><ele>477.0</ele><time>2026-04-29T16:00:10Z</time></trkpt><trkpt lat="42.857055494717834" lon="-1.5788384776096567"><ele>477.0</ele><time>2026-04-29T16:00:11Z</time></trkpt><trkpt lat="42.85698146471771" lon="-1.5789195569423007"><ele>477.20000000000005</ele><time>2026-04-29T16:00:12Z</time></trkpt><trkpt lat="42.85690955553031" lon="-1.5790043475822275"><ele>477.40000000000003</ele><time>2026-04-29T16:00:13Z</time></trkpt><trkpt lat="42.856838755679675" lon="-1.5790873155246252"><ele>477.59999999999997</ele><time>2026-04-29T16:00:14Z</time></trkpt><trkpt lat="42.85676676108463" lon="-1.5791682083739136"><ele>477.79999999999995</ele><time>2026-04-29T16:00:15Z</time></trkpt><trkpt lat="42.85669417879506" lon="-1.5792499028732312"><ele>478.0</ele><time>2026-04-29T16:00:16Z</time></trkpt><trkpt lat="42.85662313247431" lon="-1.5793353624733695"><ele>478.0</ele><time>2026-04-29T16:00:17Z</time></trkpt><trkpt lat="42.85655607011144" lon="-1.5794217228671776"><ele>477.99999999999994</ele><time>2026-04-29T16:00:18Z</time></trkpt><trkpt lat="42.85648798290932" lon="-1.579509463724231"><ele>477.99999999999994</ele><time>2026-04-29T16:00:19Z</time></trkpt><trkpt lat="42.85641735747334" lon="-1.5795962396621008"><ele>478.0</ele><time>2026-04-29T16:00:20Z</time></trkpt><trkpt lat="42.856347581052745" lon="-1.579680948687131"><ele>478.0</ele><time>2026-04-29T16:00:21Z</time></trkpt><trkpt lat="42.85627580110836" lon="-1.579763555908131"><ele>477.59999999999997</ele><time>2026-04-29T16:00:22Z</time></trkpt><trkpt lat="42.8562037892923" lon="-1.5798452943646617"><ele>477.19999999999993</ele><time>2026-04-29T16:00:23Z</time></trkpt><trkpt lat="42.856129891704796" lon="-1.5799273691748137"><ele>476.8</ele><time>2026-04-29T16:00:24Z</time></trkpt><trkpt lat="42.85605694356673" lon="-1.5800098125373128"><ele>476.4</ele><time>2026-04-29T16:00:25Z</time></trkpt><trkpt lat="42.8559844119543" lon="-1.5800890722440766"><ele>476.0</ele><time>2026-04-29T16:00:26Z</time></trkpt><trkpt lat="42.85591182708154" lon="-1.5801681761282733"><ele>476.0</ele><time>2026-04-29T16:00:27Z</time></trkpt><trkpt lat="42.85583979805549" lon="-1.5802471015001396"><ele>476.0</ele><time>2026-04-29T16:00:28Z</time></trkpt><trkpt lat="42.85576750234959" lon="-1.5803248274421855"><ele>476.0</ele><time>2026-04-29T16:00:29Z</time></trkpt><trkpt lat="42.85569418585056" lon="-1.5804053961287998"><ele>476.0</ele><time>2026-04-29T16:00:30Z</time></trkpt><trkpt lat="42.85561968446682" lon="-1.580485963603558"><ele>476.0</ele><time>2026-04-29T16:00:31Z</time></trkpt><trkpt lat="42.85554471372462" lon="-1.580565173327555"><ele>477.6</ele><time>2026-04-29T16:00:32Z</time></trkpt><trkpt lat="42.85547109025516" lon="-1.5806453294008909"><ele>479.20000000000005</ele><time>2026-04-29T16:00:33.001Z</time></trkpt><trkpt lat="42.85539653210345" lon="-1.5807235976747784"><ele>480.79999999999995</ele><time>2026-04-29T16:00:34.001Z</time></trkpt><trkpt lat="42.85532040448357" lon="-1.5808039257681836"><ele>482.4</ele><time>2026-04-29T16:00:35.001Z</time></trkpt><trkpt lat="42.85523915714193" lon="-1.5808791232576374"><ele>484.0</ele><time>2026-04-29T16:00:36.001Z</time></trkpt><trkpt lat="42.855150101590944" lon="-1.5809512662773788"><ele>483.25</ele><time>2026-04-29T16:00:37.001Z</time></trkpt><trkpt lat="42.85506780242834" lon="-1.581052658918862"><ele>482.5</ele><time>2026-04-29T16:00:38.001Z</time></trkpt><trkpt lat="42.854972941715296" lon="-1.5811513535713324"><ele>481.75</ele><time>2026-04-29T16:00:39.001Z</time></trkpt><trkpt lat="42.854879121014555" lon="-1.581247052095554"><ele>481.0</ele><time>2026-04-29T16:00:40.001Z</time></trkpt><trkpt lat="42.854780646767445" lon="-1.5813513113586033"><ele>481.0</ele><time>2026-04-29T16:00:41.001Z</time></trkpt><trkpt lat="42.854673468912196" lon="-1.5814632914924807"><ele>481.0</ele><time>2026-04-29T16:00:42.001Z</time></trkpt><trkpt lat="42.854560443028404" lon="-1.581581381354059"><ele>481.0</ele><time>2026-04-29T16:00:43.001Z</time></trkpt><trkpt lat="42.85443763743336" lon="-1.5817186671885977"><ele>481.0</ele><time>2026-04-29T16:00:45.001Z</time></trkpt><trkpt lat="42.85434428493915" lon="-1.5818230399652171"><ele>479.75</ele><time>2026-04-29T16:00:46.001Z</time></trkpt><trkpt lat="42.854247426098716" lon="-1.5819241472663177"><ele>478.5</ele><time>2026-04-29T16:00:47.001Z</time></trkpt><trkpt lat="42.854150729100134" lon="-1.5820256268991721"><ele>477.25</ele><time>2026-04-29T16:00:48.001Z</time></trkpt><trkpt lat="42.85405452442638" lon="-1.582130958713127"><ele>476.0</ele><time>2026-04-29T16:00:49.001Z</time></trkpt><trkpt lat="42.85395521171659" lon="-1.5822352130270076"><ele>476.0</ele><time>2026-04-29T16:00:50.001Z</time></trkpt><trkpt lat="42.85385630783334" lon="-1.5823369460930452"><ele>476.0</ele><time>2026-04-29T16:00:51.001Z</time></trkpt><trkpt lat="42.85375576144826" lon="-1.5824410348841478"><ele>476.0</ele><time>2026-04-29T16:00:52.001Z</time></trkpt><trkpt lat="42.85365393927983" lon="-1.5825450723662413"><ele>476.0</ele><time>2026-04-29T16:00:53.001Z</time></trkpt><trkpt lat="42.853548388074486" lon="-1.5826416882339454"><ele>474.5</ele><time>2026-04-29T16:00:54.001Z</time></trkpt><trkpt lat="42.85344092437372" lon="-1.5827336594784442"><ele>473.0</ele><time>2026-04-29T16:00:55.001Z</time></trkpt><trkpt lat="42.85332862996753" lon="-1.5828236187649563"><ele>471.5</ele><time>2026-04-29T16:00:56.001Z</time></trkpt><trkpt lat="42.85321452453374" lon="-1.5829024956779445"><ele>470.0</ele><time>2026-04-29T16:00:57.001Z</time></trkpt><trkpt lat="42.85309838648698" lon="-1.5829780082880232"><ele>470.0</ele><time>2026-04-29T16:00:58.001Z</time></trkpt><trkpt lat="42.85298043938023" lon="-1.5830497413027635"><ele>470.0</ele><time>2026-04-29T16:00:59.001Z</time></trkpt><trkpt lat="42.85285975295695" lon="-1.5831139401579966"><ele>470.0</ele><time>2026-04-29T16:01:00.001Z</time></trkpt><trkpt lat="42.85274238407105" lon="-1.583170533568161"><ele>470.0</ele><time>2026-04-29T16:01:01.001Z</time></trkpt><trkpt lat="42.85262357407195" lon="-1.5832191164070502"><ele>466.0</ele><time>2026-04-29T16:01:02.001Z</time></trkpt><trkpt lat="42.85250414328982" lon="-1.5832642280902554"><ele>462.0</ele><time>2026-04-29T16:01:03.001Z</time></trkpt><trkpt lat="42.85238511253882" lon="-1.5833097455024145"><ele>458.0</ele><time>2026-04-29T16:01:04.001Z</time></trkpt><trkpt lat="42.85226630183539" lon="-1.583355604198171"><ele>454.0</ele><time>2026-04-29T16:01:05.001Z</time></trkpt><trkpt lat="42.852152506875086" lon="-1.5833969907487149"><ele>454.0</ele><time>2026-04-29T16:01:06.001Z</time></trkpt><trkpt lat="42.852035887975376" lon="-1.5834438731803933"><ele>454.0</ele><time>2026-04-29T16:01:07.001Z</time></trkpt><trkpt lat="42.851918094504754" lon="-1.5834858047152707"><ele>454.0</ele><time>2026-04-29T16:01:08.001Z</time></trkpt><trkpt lat="42.85180286811507" lon="-1.583529239899273"><ele>454.0</ele><time>2026-04-29T16:01:09.001Z</time></trkpt><trkpt lat="42.85168995083602" lon="-1.5835762274285068"><ele>454.0</ele><time>2026-04-29T16:01:10.001Z</time></trkpt><trkpt lat="42.851579847054374" lon="-1.5836215853390871"><ele>454.0</ele><time>2026-04-29T16:01:11.001Z</time></trkpt><trkpt lat="42.85146981912855" lon="-1.5836649591150136"><ele>454.0</ele><time>2026-04-29T16:01:12.001Z</time></trkpt><trkpt lat="42.85135316286554" lon="-1.5837048733919086"><ele>454.0</ele><time>2026-04-29T16:01:13.001Z</time></trkpt><trkpt lat="42.85119107505077" lon="-1.5837437738877127"><ele>454.0</ele><time>2026-04-29T16:01:14.001Z</time></trkpt><trkpt lat="42.85106678629304" lon="-1.5838061453347885"><ele>454.0</ele><time>2026-04-29T16:01:15.001Z</time></trkpt><trkpt lat="42.850900691692075" lon="-1.5838660727012452"><ele>454.0</ele><time>2026-04-29T16:01:16.001Z</time></trkpt><trkpt lat="42.850822104833846" lon="-1.5838990857282103"><ele>454.0</ele><time>2026-04-29T16:01:18.001Z</time></trkpt><trkpt lat="42.85071398505114" lon="-1.5839355254426786"><ele>453.75</ele><time>2026-04-29T16:01:19.001Z</time></trkpt><trkpt lat="42.85060386571936" lon="-1.5839730857088563"><ele>453.5</ele><time>2026-04-29T16:01:20.001Z</time></trkpt><trkpt lat="42.850493824774965" lon="-1.5840085275403708"><ele>453.25</ele><time>2026-04-29T16:01:21.001Z</time></trkpt><trkpt lat="42.85037919918986" lon="-1.5840420338969496"><ele>453.0</ele><time>2026-04-29T16:01:22.001Z</time></trkpt><trkpt lat="42.85026701300273" lon="-1.5840789565407978"><ele>453.0</ele><time>2026-04-29T16:01:23.001Z</time></trkpt><trkpt lat="42.85015340915612" lon="-1.5841120476686659"><ele>453.0</ele><time>2026-04-29T16:01:24.001Z</time></trkpt><trkpt lat="42.85004140819857" lon="-1.5841429815408021"><ele>453.0</ele><time>2026-04-29T16:01:25.001Z</time></trkpt><trkpt lat="42.84992368380394" lon="-1.5841730602459476"><ele>453.0</ele><time>2026-04-29T16:01:26.001Z</time></trkpt><trkpt lat="42.84980854515293" lon="-1.5842051134682698"><ele>452.75</ele><time>2026-04-29T16:01:27.001Z</time></trkpt><trkpt lat="42.84968813181142" lon="-1.5842399946680161"><ele>452.5</ele><time>2026-04-29T16:01:28.001Z</time></trkpt><trkpt lat="42.84956960019868" lon="-1.5842695756595007"><ele>452.25</ele><time>2026-04-29T16:01:29.001Z</time></trkpt><trkpt lat="42.84945072039257" lon="-1.5842988693020315"><ele>452.0</ele><time>2026-04-29T16:01:30.001Z</time></trkpt><trkpt lat="42.84933242427381" lon="-1.5843283265507448"><ele>453.0</ele><time>2026-04-29T16:01:31.001Z</time></trkpt><trkpt lat="42.84921270531171" lon="-1.5843592591019784"><ele>454.0</ele><time>2026-04-29T16:01:32.001Z</time></trkpt><trkpt lat="42.849094559495924" lon="-1.5843878720469537"><ele>455.0</ele><time>2026-04-29T16:01:33.001Z</time></trkpt><trkpt lat="42.848975109464156" lon="-1.5844156780086853"><ele>456.0</ele><time>2026-04-29T16:01:34.001Z</time></trkpt><trkpt lat="42.84885897056195" lon="-1.5844449646176428"><ele>456.0</ele><time>2026-04-29T16:01:35.001Z</time></trkpt><trkpt lat="42.84874209339978" lon="-1.5844794241215228"><ele>456.0</ele><time>2026-04-29T16:01:36.001Z</time></trkpt><trkpt lat="42.84862366892226" lon="-1.5845118580249475"><ele>456.0</ele><time>2026-04-29T16:01:37.001Z</time></trkpt><trkpt lat="42.848508228134556" lon="-1.5845448787268668"><ele>456.0</ele><time>2026-04-29T16:01:38.001Z</time></trkpt><trkpt lat="42.84839258047355" lon="-1.584573749905752"><ele>455.0</ele><time>2026-04-29T16:01:39.001Z</time></trkpt><trkpt lat="42.848277981676766" lon="-1.5846203307191826"><ele>454.0</ele><time>2026-04-29T16:01:40.001Z</time></trkpt><trkpt lat="42.84816202976639" lon="-1.5846693761462238"><ele>453.0</ele><time>2026-04-29T16:01:41.001Z</time></trkpt><trkpt lat="42.84804811014348" lon="-1.5847140272425548"><ele>452.0</ele><time>2026-04-29T16:01:42.001Z</time></trkpt><trkpt lat="42.84793383686474" lon="-1.5847648449683052"><ele>452.0</ele><time>2026-04-29T16:01:43.001Z</time></trkpt><trkpt lat="42.847824115556" lon="-1.5848266059870944"><ele>452.0</ele><time>2026-04-29T16:01:44.001Z</time></trkpt><trkpt lat="42.84771314868081" lon="-1.5848821360516616"><ele>452.0</ele><time>2026-04-29T16:01:45.001Z</time></trkpt><trkpt lat="42.847601877647264" lon="-1.5849379283679326"><ele>452.0</ele><time>2026-04-29T16:01:46.002Z</time></trkpt><trkpt lat="42.847489758912005" lon="-1.584999190993899"><ele>453.0</ele><time>2026-04-29T16:01:47.002Z</time></trkpt><trkpt lat="42.8473787676685" lon="-1.5850457753786134"><ele>454.0</ele><time>2026-04-29T16:01:48.002Z</time></trkpt><trkpt lat="42.847266099320315" lon="-1.5850971320923748"><ele>455.0</ele><time>2026-04-29T16:01:49.002Z</time></trkpt><trkpt lat="42.847152176741574" lon="-1.5851479373914328"><ele>456.0</ele><time>2026-04-29T16:01:50.002Z</time></trkpt><trkpt lat="42.84704453383131" lon="-1.58521028046309"><ele>456.0</ele><time>2026-04-29T16:01:51.002Z</time></trkpt><trkpt lat="42.846929736071395" lon="-1.5852605685098886"><ele>456.0</ele><time>2026-04-29T16:01:52.002Z</time></trkpt><trkpt lat="42.8468205909872" lon="-1.585308825756341"><ele>456.0</ele><time>2026-04-29T16:01:53.002Z</time></trkpt><trkpt lat="42.846702857020496" lon="-1.5853456083296118"><ele>456.0</ele><time>2026-04-29T16:01:54.002Z</time></trkpt><trkpt lat="42.84658809032812" lon="-1.5853828361424198"><ele>455.25</ele><time>2026-04-29T16:01:55.002Z</time></trkpt><trkpt lat="42.846479588515884" lon="-1.5854403166530475"><ele>454.5</ele><time>2026-04-29T16:01:56.002Z</time></trkpt><trkpt lat="42.84636972509578" lon="-1.5854914169944887"><ele>453.75</ele><time>2026-04-29T16:01:57.002Z</time></trkpt><trkpt lat="42.8462584534331" lon="-1.5855444617270318"><ele>453.0</ele><time>2026-04-29T16:01:58.002Z</time></trkpt><trkpt lat="42.8461439969514" lon="-1.5855865394041613"><ele>453.0</ele><time>2026-04-29T16:01:59.002Z</time></trkpt><trkpt lat="42.84603232650097" lon="-1.5856389778497055"><ele>453.0</ele><time>2026-04-29T16:02:00.002Z</time></trkpt><trkpt lat="42.84592110486599" lon="-1.5856985303517104"><ele>453.0</ele><time>2026-04-29T16:02:01.002Z</time></trkpt><trkpt lat="42.84580585957951" lon="-1.5857526835811646"><ele>453.0</ele><time>2026-04-29T16:02:02.002Z</time></trkpt><trkpt lat="42.84568957296676" lon="-1.5858085691916666"><ele>453.5</ele><time>2026-04-29T16:02:03.002Z</time></trkpt><trkpt lat="42.8455782558743" lon="-1.5858716986507844"><ele>454.0</ele><time>2026-04-29T16:02:04.002Z</time></trkpt><trkpt lat="42.845469480736604" lon="-1.5859370287537815"><ele>454.5</ele><time>2026-04-29T16:02:05.002Z</time></trkpt><trkpt lat="42.84535589746175" lon="-1.5859966775549998"><ele>455.0</ele><time>2026-04-29T16:02:06Z</time></trkpt><trkpt lat="42.84523660713132" lon="-1.5860392609078355"><ele>454.25</ele><time>2026-04-29T16:02:07Z</time></trkpt><trkpt lat="42.84511904843851" lon="-1.586083629002181"><ele>453.5</ele><time>2026-04-29T16:02:08Z</time></trkpt><trkpt lat="42.844999720275354" lon="-1.5861248462015864"><ele>452.75</ele><time>2026-04-29T16:02:09Z</time></trkpt><trkpt lat="42.84488226431829" lon="-1.5861729446758002"><ele>452.0</ele><time>2026-04-29T16:02:10Z</time></trkpt><trkpt lat="42.844768685414465" lon="-1.5862164410157562"><ele>451.5</ele><time>2026-04-29T16:02:11Z</time></trkpt><trkpt lat="42.8446496480956" lon="-1.5862609130323204"><ele>451.0</ele><time>2026-04-29T16:02:12Z</time></trkpt><trkpt lat="42.84452969484897" lon="-1.5862979332032199"><ele>450.5</ele><time>2026-04-29T16:02:13Z</time></trkpt><trkpt lat="42.844409275064635" lon="-1.5863380922446781"><ele>450.0</ele><time>2026-04-29T16:02:14Z</time></trkpt><trkpt lat="42.844294479962166" lon="-1.5863739991321106"><ele>450.0</ele><time>2026-04-29T16:02:15Z</time></trkpt><trkpt lat="42.84417515946505" lon="-1.5864004652054549"><ele>450.0</ele><time>2026-04-29T16:02:16Z</time></trkpt><trkpt lat="42.8440501965009" lon="-1.5864058798160803"><ele>450.0</ele><time>2026-04-29T16:02:17Z</time></trkpt><trkpt lat="42.84392555957255" lon="-1.5864244603410638"><ele>450.0</ele><time>2026-04-29T16:02:18Z</time></trkpt><trkpt lat="42.843811076287565" lon="-1.5864580349149786"><ele>450.0</ele><time>2026-04-29T16:02:19Z</time></trkpt><trkpt lat="42.84369604583954" lon="-1.5864828219047638"><ele>450.0</ele><time>2026-04-29T16:02:20Z</time></trkpt><trkpt lat="42.84357418804104" lon="-1.5865082739485863"><ele>450.0</ele><time>2026-04-29T16:02:21Z</time></trkpt><trkpt lat="42.843447082947804" lon="-1.5865243030563938"><ele>450.0</ele><time>2026-04-29T16:02:22Z</time></trkpt><trkpt lat="42.84332371885457" lon="-1.5865361586524278"><ele>450.25</ele><time>2026-04-29T16:02:23Z</time></trkpt><trkpt lat="42.84320379555494" lon="-1.586555998608628"><ele>450.5</ele><time>2026-04-29T16:02:24Z</time></trkpt><trkpt lat="42.84308423394838" lon="-1.586573502909659"><ele>450.75</ele><time>2026-04-29T16:02:25Z</time></trkpt><trkpt lat="42.84296856122533" lon="-1.5865878128369137"><ele>451.0</ele><time>2026-04-29T16:02:26Z</time></trkpt><trkpt lat="42.842845487207995" lon="-1.5866043121784124"><ele>451.0</ele><time>2026-04-29T16:02:27Z</time></trkpt><trkpt lat="42.842725875398195" lon="-1.5866243647825418"><ele>451.0</ele><time>2026-04-29T16:02:28Z</time></trkpt><trkpt lat="42.8426052810879" lon="-1.5866398981834198"><ele>451.0</ele><time>2026-04-29T16:02:29Z</time></trkpt><trkpt lat="42.842490561937836" lon="-1.5866560848058116"><ele>451.0</ele><time>2026-04-29T16:02:30Z</time></trkpt><trkpt lat="42.84237256872587" lon="-1.5866661349653097"><ele>450.75</ele><time>2026-04-29T16:02:31Z</time></trkpt><trkpt lat="42.84225208804715" lon="-1.586686848735766"><ele>450.5</ele><time>2026-04-29T16:02:32Z</time></trkpt><trkpt lat="42.84213257574117" lon="-1.5867072875216022"><ele>450.25</ele><time>2026-04-29T16:02:33Z</time></trkpt><trkpt lat="42.84201769507158" lon="-1.5867252285239148"><ele>450.0</ele><time>2026-04-29T16:02:34Z</time></trkpt><trkpt lat="42.841902737574685" lon="-1.5867440613531925"><ele>450.0</ele><time>2026-04-29T16:02:35Z</time></trkpt><trkpt lat="42.84179519289145" lon="-1.5867604093065248"><ele>450.0</ele><time>2026-04-29T16:02:36Z</time></trkpt><trkpt lat="42.84168292833624" lon="-1.5867743829246153"><ele>450.0</ele><time>2026-04-29T16:02:37Z</time></trkpt><trkpt lat="42.841572508428584" lon="-1.586783551512854"><ele>450.0</ele><time>2026-04-29T16:02:38Z</time></trkpt><trkpt lat="42.84146847115433" lon="-1.5868018814723004"><ele>450.0</ele><time>2026-04-29T16:02:39Z</time></trkpt><trkpt lat="42.841367657931116" lon="-1.5868166191631718"><ele>450.0</ele><time>2026-04-29T16:02:40Z</time></trkpt><trkpt lat="42.84127463420102" lon="-1.586824376399907"><ele>450.0</ele><time>2026-04-29T16:02:41Z</time></trkpt><trkpt lat="42.841183081075904" lon="-1.5868363603970976"><ele>450.0</ele><time>2026-04-29T16:02:42Z</time></trkpt><trkpt lat="42.84109893833126" lon="-1.5868446713829027"><ele>450.0</ele><time>2026-04-29T16:02:43Z</time></trkpt><trkpt lat="42.841020967572696" lon="-1.5868515927252784"><ele>450.0</ele><time>2026-04-29T16:02:44Z</time></trkpt><trkpt lat="42.84094827237191" lon="-1.5868612210343773"><ele>450.0</ele><time>2026-04-29T16:02:45Z</time></trkpt><trkpt lat="42.840879644331864" lon="-1.5868696209673334"><ele>450.1666666666667</ele><time>2026-04-29T16:02:46Z</time></trkpt><trkpt lat="42.84075921930178" lon="-1.586928517903707"><ele>450.33333333333337</ele><time>2026-04-29T16:02:48.001Z</time></trkpt><trkpt lat="42.84070482161825" lon="-1.586987899654563"><ele>450.5</ele><time>2026-04-29T16:02:49.001Z</time></trkpt><trkpt lat="42.84066142836506" lon="-1.5870544970131175"><ele>450.6666666666667</ele><time>2026-04-29T16:02:50.001Z</time></trkpt><trkpt lat="42.840610113338165" lon="-1.5871218108144387"><ele>450.83333333333337</ele><time>2026-04-29T16:02:51.001Z</time></trkpt><trkpt lat="42.840554464203706" lon="-1.5871794096134935"><ele>451.0</ele><time>2026-04-29T16:02:52.001Z</time></trkpt><trkpt lat="42.84049079087605" lon="-1.587236496362904"><ele>450.6666666666667</ele><time>2026-04-29T16:02:53.001Z</time></trkpt><trkpt lat="42.840413275252054" lon="-1.5873112655133954"><ele>450.33333333333337</ele><time>2026-04-29T16:02:54.001Z</time></trkpt><trkpt lat="42.840400679977336" lon="-1.5874099868137033"><ele>450.0</ele><time>2026-04-29T16:02:55.001Z</time></trkpt><trkpt lat="42.84036158614985" lon="-1.5875047705505108"><ele>449.66666666666663</ele><time>2026-04-29T16:02:56.001Z</time></trkpt><trkpt lat="42.84030852502902" lon="-1.5875855826002132"><ele>449.3333333333333</ele><time>2026-04-29T16:02:57.001Z</time></trkpt><trkpt lat="42.84025798362317" lon="-1.5876604958377634"><ele>449.0</ele><time>2026-04-29T16:02:58.001Z</time></trkpt><trkpt lat="42.84020667699909" lon="-1.5877329729037004"><ele>448.99999999999994</ele><time>2026-04-29T16:02:59.001Z</time></trkpt><trkpt lat="42.84015505946099" lon="-1.5877997493981644"><ele>449.0</ele><time>2026-04-29T16:03:00.001Z</time></trkpt><trkpt lat="42.84012526220742" lon="-1.5878757817544658"><ele>449.0</ele><time>2026-04-29T16:03:01.001Z</time></trkpt><trkpt lat="42.84007495131148" lon="-1.5879275081344333"><ele>449.0</ele><time>2026-04-29T16:03:02.001Z</time></trkpt><trkpt lat="42.840015124520015" lon="-1.588054571641269"><ele>448.99999999999994</ele><time>2026-04-29T16:03:04.001Z</time></trkpt><trkpt lat="42.839941155892404" lon="-1.588146359717064"><ele>449.0</ele><time>2026-04-29T16:03:06.001Z</time></trkpt><trkpt lat="42.83989109856176" lon="-1.5882805686281523"><ele>448.8333333333333</ele><time>2026-04-29T16:03:08.001Z</time></trkpt><trkpt lat="42.83982555130653" lon="-1.5884100455021868"><ele>448.66666666666663</ele><time>2026-04-29T16:03:10.001Z</time></trkpt><trkpt lat="42.83978559628165" lon="-1.5884766578303662"><ele>448.5</ele><time>2026-04-29T16:03:11.001Z</time></trkpt><trkpt lat="42.8396944738109" lon="-1.5885908270366131"><ele>448.33333333333337</ele><time>2026-04-29T16:03:13.001Z</time></trkpt><trkpt lat="42.83964461049746" lon="-1.5886439941368233"><ele>448.1666666666667</ele><time>2026-04-29T16:03:14.001Z</time></trkpt><trkpt lat="42.839582006142216" lon="-1.588680622571385"><ele>448.0</ele><time>2026-04-29T16:03:15.001Z</time></trkpt><trkpt lat="42.83951488631709" lon="-1.5887147363929943"><ele>448.1666666666667</ele><time>2026-04-29T16:03:16.001Z</time></trkpt><trkpt lat="42.83945230049621" lon="-1.5887417142568077"><ele>448.33333333333337</ele><time>2026-04-29T16:03:17.001Z</time></trkpt><trkpt lat="42.839391278136006" lon="-1.5887774459760078"><ele>448.5</ele><time>2026-04-29T16:03:18.001Z</time></trkpt><trkpt lat="42.83932601496198" lon="-1.5887851755127285"><ele>448.66666666666663</ele><time>2026-04-29T16:03:19.001Z</time></trkpt><trkpt lat="42.83926009128779" lon="-1.5887835218220154"><ele>448.8333333333333</ele><time>2026-04-29T16:03:20.001Z</time></trkpt><trkpt lat="42.839194722909674" lon="-1.588768183060319"><ele>449.0</ele><time>2026-04-29T16:03:21.001Z</time></trkpt><trkpt lat="42.839074689903434" lon="-1.5887030431516818"><ele>448.8333333333333</ele><time>2026-04-29T16:03:23.001Z</time></trkpt><trkpt lat="42.83896160281251" lon="-1.5886277449928448"><ele>448.66666666666663</ele><time>2026-04-29T16:03:25.001Z</time></trkpt><trkpt lat="42.83891655745282" lon="-1.5885658434171566"><ele>448.5</ele><time>2026-04-29T16:03:26.001Z</time></trkpt><trkpt lat="42.838874865432174" lon="-1.5884967615553311"><ele>448.33333333333337</ele><time>2026-04-29T16:03:27.001Z</time></trkpt><trkpt lat="42.83883857534567" lon="-1.588422871014082"><ele>448.1666666666667</ele><time>2026-04-29T16:03:28.001Z</time></trkpt><trkpt lat="42.83879993624589" lon="-1.588347612781043"><ele>448.0</ele><time>2026-04-29T16:03:29.001Z</time></trkpt><trkpt lat="42.83876704693184" lon="-1.5882643696934162"><ele>448.00000000000006</ele><time>2026-04-29T16:03:30.001Z</time></trkpt><trkpt lat="42.838739485221545" lon="-1.588172543700418"><ele>448.0</ele><time>2026-04-29T16:03:31.001Z</time></trkpt><trkpt lat="42.83871372656872" lon="-1.5880752306850001"><ele>448.0</ele><time>2026-04-29T16:03:32.001Z</time></trkpt><trkpt lat="42.83869041333121" lon="-1.5879708719658199"><ele>448.0</ele><time>2026-04-29T16:03:33.001Z</time></trkpt><trkpt lat="42.83867310814862" lon="-1.5878541317455703"><ele>448.00000000000006</ele><time>2026-04-29T16:03:34.001Z</time></trkpt><trkpt lat="42.83864915073653" lon="-1.5877385761927625"><ele>448.0</ele><time>2026-04-29T16:03:35.001Z</time></trkpt><trkpt lat="42.83862433757419" lon="-1.5876257944500765"><ele>448.0</ele><time>2026-04-29T16:03:36.001Z</time></trkpt><trkpt lat="42.83860073905586" lon="-1.5875039777970432"><ele>447.99999999999994</ele><time>2026-04-29T16:03:37.001Z</time></trkpt><trkpt lat="42.8385626463239" lon="-1.5873882490621234"><ele>447.99999999999994</ele><time>2026-04-29T16:03:38.001Z</time></trkpt><trkpt lat="42.83851746208806" lon="-1.5872825662145376"><ele>448.0</ele><time>2026-04-29T16:03:39.001Z</time></trkpt><trkpt lat="42.83846530235826" lon="-1.5871848911770927"><ele>448.0</ele><time>2026-04-29T16:03:40.001Z</time></trkpt><trkpt lat="42.83840691254754" lon="-1.5870968299423232"><ele>447.83333333333337</ele><time>2026-04-29T16:03:41.001Z</time></trkpt><trkpt lat="42.838342181322076" lon="-1.5870248701041114"><ele>447.6666666666667</ele><time>2026-04-29T16:03:42.001Z</time></trkpt><trkpt lat="42.83827951409213" lon="-1.586955860683576"><ele>447.5</ele><time>2026-04-29T16:03:43.001Z</time></trkpt><trkpt lat="42.838207414678756" lon="-1.5868941004302959"><ele>447.33333333333337</ele><time>2026-04-29T16:03:44.001Z</time></trkpt><trkpt lat="42.838131934880785" lon="-1.5868420650892072"><ele>447.1666666666667</ele><time>2026-04-29T16:03:45.001Z</time></trkpt><trkpt lat="42.83807640464474" lon="-1.5867612317122146"><ele>447.0</ele><time>2026-04-29T16:03:46.001Z</time></trkpt><trkpt lat="42.83796891677687" lon="-1.5867631049334956"><ele>447.0</ele><time>2026-04-29T16:03:47.001Z</time></trkpt><trkpt lat="42.83787870465093" lon="-1.5867274484578417"><ele>447.00000000000006</ele><time>2026-04-29T16:03:48.001Z</time></trkpt><trkpt lat="42.83777881602456" lon="-1.5867119079083003"><ele>447.00000000000006</ele><time>2026-04-29T16:03:49.001Z</time></trkpt><trkpt lat="42.837678582299006" lon="-1.5867084779413019"><ele>447.0</ele><time>2026-04-29T16:03:50.001Z</time></trkpt><trkpt lat="42.83757857436235" lon="-1.586706610306788"><ele>447.0</ele><time>2026-04-29T16:03:51.001Z</time></trkpt><trkpt lat="42.837476117282364" lon="-1.5867036017192875"><ele>446.6</ele><time>2026-04-29T16:03:52.001Z</time></trkpt><trkpt lat="42.837373769443694" lon="-1.5867009460748567"><ele>446.20000000000005</ele><time>2026-04-29T16:03:53.001Z</time></trkpt><trkpt lat="42.837277069406824" lon="-1.5866895881442167"><ele>445.8</ele><time>2026-04-29T16:03:54.001Z</time></trkpt><trkpt lat="42.83717539861" lon="-1.5866801149316718"><ele>445.4</ele><time>2026-04-29T16:03:55.001Z</time></trkpt><trkpt lat="42.83707862692134" lon="-1.5866670597364894"><ele>445.0</ele><time>2026-04-29T16:03:56.001Z</time></trkpt><trkpt lat="42.83698416965972" lon="-1.5866431637418574"><ele>445.0</ele><time>2026-04-29T16:03:57.001Z</time></trkpt><trkpt lat="42.83688934976383" lon="-1.5866105265201573"><ele>445.0</ele><time>2026-04-29T16:03:58.001Z</time></trkpt><trkpt lat="42.836796125346055" lon="-1.5865814082261376"><ele>445.0</ele><time>2026-04-29T16:03:59.001Z</time></trkpt><trkpt lat="42.836705068925035" lon="-1.5865569185389754"><ele>445.0</ele><time>2026-04-29T16:04:00.001Z</time></trkpt><trkpt lat="42.836616441835346" lon="-1.5865380637493314"><ele>445.0</ele><time>2026-04-29T16:04:01.001Z</time></trkpt><trkpt lat="42.83653154461573" lon="-1.5865233770810316"><ele>445.00000000000006</ele><time>2026-04-29T16:04:02.002Z</time></trkpt><trkpt lat="42.83645064705929" lon="-1.5865075886834943"><ele>445.0</ele><time>2026-04-29T16:04:03.002Z</time></trkpt><trkpt lat="42.83636867156586" lon="-1.5864945462580133"><ele>445.0</ele><time>2026-04-29T16:04:04.002Z</time></trkpt><trkpt lat="42.83628962163156" lon="-1.58648244448427"><ele>445.0</ele><time>2026-04-29T16:04:05.002Z</time></trkpt><trkpt lat="42.83621245925042" lon="-1.5864695187848632"><ele>445.00000000000006</ele><time>2026-04-29T16:04:06.002Z</time></trkpt><trkpt lat="42.83613359764454" lon="-1.5864590763032351"><ele>445.0</ele><time>2026-04-29T16:04:07.002Z</time></trkpt><trkpt lat="42.8360619235588" lon="-1.5864521732533965"><ele>444.75</ele><time>2026-04-29T16:04:08.002Z</time></trkpt><trkpt lat="42.83594334802198" lon="-1.5864483636034699"><ele>444.5</ele><time>2026-04-29T16:04:10.002Z</time></trkpt><trkpt lat="42.83584245160277" lon="-1.5864876693899495"><ele>444.25</ele><time>2026-04-29T16:04:12Z</time></trkpt><trkpt lat="42.835732671063056" lon="-1.586513321557134"><ele>444.0</ele><time>2026-04-29T16:04:14Z</time></trkpt><trkpt lat="42.83561502508987" lon="-1.586458116081225"><ele>444.0</ele><time>2026-04-29T16:04:16Z</time></trkpt><trkpt lat="42.835559008697835" lon="-1.5863951322653231"><ele>444.0</ele><time>2026-04-29T16:04:17Z</time></trkpt><trkpt lat="42.83548954159754" lon="-1.586342477347916"><ele>444.0</ele><time>2026-04-29T16:04:18Z</time></trkpt><trkpt lat="42.83540698063071" lon="-1.586305943255175"><ele>444.0</ele><time>2026-04-29T16:04:19Z</time></trkpt><trkpt lat="42.83532026861621" lon="-1.5862836875715327"><ele>444.0</ele><time>2026-04-29T16:04:20Z</time></trkpt><trkpt lat="42.83523038723679" lon="-1.586272249308219"><ele>444.0</ele><time>2026-04-29T16:04:21Z</time></trkpt><trkpt lat="42.835141905395716" lon="-1.5862538602770644"><ele>443.8333333333333</ele><time>2026-04-29T16:04:22Z</time></trkpt><trkpt lat="42.83505423141691" lon="-1.5862394529919877"><ele>443.66666666666663</ele><time>2026-04-29T16:04:23Z</time></trkpt><trkpt lat="42.834966342728634" lon="-1.5862294930414704"><ele>443.5</ele><time>2026-04-29T16:04:24Z</time></trkpt><trkpt lat="42.834880716146834" lon="-1.5862174417698347"><ele>443.3333333333333</ele><time>2026-04-29T16:04:25Z</time></trkpt><trkpt lat="42.83479925047156" lon="-1.5862100868359676"><ele>443.16666666666663</ele><time>2026-04-29T16:04:26Z</time></trkpt><trkpt lat="42.83471733818596" lon="-1.5861972552934958"><ele>443.0</ele><time>2026-04-29T16:04:27Z</time></trkpt><trkpt lat="42.83463700631007" lon="-1.5861868140033544"><ele>442.99999999999994</ele><time>2026-04-29T16:04:28Z</time></trkpt><trkpt lat="42.83455798989301" lon="-1.5861750696195338"><ele>443.0</ele><time>2026-04-29T16:04:29Z</time></trkpt><trkpt lat="42.83447723502113" lon="-1.586199349352507"><ele>443.0</ele><time>2026-04-29T16:04:30Z</time></trkpt><trkpt lat="42.83439997574565" lon="-1.5862279779822088"><ele>443.0</ele><time>2026-04-29T16:04:31Z</time></trkpt><trkpt lat="42.83432625584707" lon="-1.5862464302082795"><ele>442.99999999999994</ele><time>2026-04-29T16:04:32Z</time></trkpt><trkpt lat="42.83424778456082" lon="-1.5862379369989046"><ele>443.0</ele><time>2026-04-29T16:04:33Z</time></trkpt><trkpt lat="42.834165864919804" lon="-1.5862163941235454"><ele>442.99999999999994</ele><time>2026-04-29T16:04:34Z</time></trkpt><trkpt lat="42.83408562904233" lon="-1.5861978404017603"><ele>443.0</ele><time>2026-04-29T16:04:35Z</time></trkpt><trkpt lat="42.83399813886851" lon="-1.5861855348940956"><ele>443.0</ele><time>2026-04-29T16:04:36Z</time></trkpt><trkpt lat="42.83391190654926" lon="-1.5861882039760675"><ele>443.0</ele><time>2026-04-29T16:04:37Z</time></trkpt><trkpt lat="42.83382625783844" lon="-1.5861994108402035"><ele>442.99999999999994</ele><time>2026-04-29T16:04:38Z</time></trkpt><trkpt lat="42.83374138794311" lon="-1.5862126733547033"><ele>443.0</ele><time>2026-04-29T16:04:39Z</time></trkpt><trkpt lat="42.833652309484826" lon="-1.5862190714982405"><ele>442.99999999999994</ele><time>2026-04-29T16:04:40Z</time></trkpt><trkpt lat="42.83356616258108" lon="-1.5862212713742943"><ele>443.0</ele><time>2026-04-29T16:04:41Z</time></trkpt><trkpt lat="42.83347622541204" lon="-1.586220879720581"><ele>443.0</ele><time>2026-04-29T16:04:42Z</time></trkpt><trkpt lat="42.83338423483309" lon="-1.5862329214184308"><ele>443.0</ele><time>2026-04-29T16:04:43Z</time></trkpt><trkpt lat="42.833297860808585" lon="-1.5862290721607024"><ele>442.99999999999994</ele><time>2026-04-29T16:04:44Z</time></trkpt><trkpt lat="42.833205494981954" lon="-1.5862313047736383"><ele>443.0</ele><time>2026-04-29T16:04:45Z</time></trkpt><trkpt lat="42.833117653067355" lon="-1.5862251319817235"><ele>442.8333333333333</ele><time>2026-04-29T16:04:46Z</time></trkpt><trkpt lat="42.833034264521515" lon="-1.5862087706281207"><ele>442.66666666666663</ele><time>2026-04-29T16:04:47Z</time></trkpt><trkpt lat="42.832955956270816" lon="-1.5861839463980378"><ele>442.5</ele><time>2026-04-29T16:04:48Z</time></trkpt><trkpt lat="42.83289067835209" lon="-1.5861590468295423"><ele>442.33333333333337</ele><time>2026-04-29T16:04:49Z</time></trkpt><trkpt lat="42.83279065332954" lon="-1.5861009349941502"><ele>442.1666666666667</ele><time>2026-04-29T16:04:51Z</time></trkpt><trkpt lat="42.83269870166262" lon="-1.5860450437242808"><ele>442.0</ele><time>2026-04-29T16:04:53Z</time></trkpt><trkpt lat="42.83258363615671" lon="-1.5860286564757204"><ele>442.0</ele><time>2026-04-29T16:04:55Z</time></trkpt><trkpt lat="42.83248269065762" lon="-1.586108385012752"><ele>442.00000000000006</ele><time>2026-04-29T16:04:57Z</time></trkpt><trkpt lat="42.83246509708044" lon="-1.5861929760756404"><ele>442.00000000000006</ele><time>2026-04-29T16:04:58Z</time></trkpt><trkpt lat="42.83244580870277" lon="-1.5863616823426403"><ele>442.0</ele><time>2026-04-29T16:05:00Z</time></trkpt><trkpt lat="42.83243993532314" lon="-1.5864566311602157"><ele>442.0</ele><time>2026-04-29T16:05:01Z</time></trkpt><trkpt lat="42.83243065968171" lon="-1.5865599560005346"><ele>442.33333333333337</ele><time>2026-04-29T16:05:02Z</time></trkpt><trkpt lat="42.83242369627957" lon="-1.586669337308865"><ele>442.6666666666667</ele><time>2026-04-29T16:05:03.001Z</time></trkpt><trkpt lat="42.83241731672827" lon="-1.5867814776936244"><ele>443.0</ele><time>2026-04-29T16:05:04.001Z</time></trkpt><trkpt lat="42.832408230148175" lon="-1.5868934963616783"><ele>443.33333333333337</ele><time>2026-04-29T16:05:05.001Z</time></trkpt><trkpt lat="42.832391412757325" lon="-1.5870048706667905"><ele>443.6666666666667</ele><time>2026-04-29T16:05:06.001Z</time></trkpt><trkpt lat="42.832370400756766" lon="-1.5871106852499903"><ele>444.0</ele><time>2026-04-29T16:05:07.001Z</time></trkpt><trkpt lat="42.832344122358926" lon="-1.5872154148505644"><ele>444.0</ele><time>2026-04-29T16:05:08.001Z</time></trkpt><trkpt lat="42.83231124406316" lon="-1.587320386116412"><ele>444.0</ele><time>2026-04-29T16:05:09.001Z</time></trkpt><trkpt lat="42.83228603569137" lon="-1.5874301586022546"><ele>444.0</ele><time>2026-04-29T16:05:10.001Z</time></trkpt><trkpt lat="42.832270359158755" lon="-1.5875395220646134"><ele>444.0</ele><time>2026-04-29T16:05:11.001Z</time></trkpt><trkpt lat="42.83224853903735" lon="-1.5876434154992862"><ele>444.0</ele><time>2026-04-29T16:05:12.001Z</time></trkpt><trkpt lat="42.83221916418629" lon="-1.587744436513402"><ele>444.0</ele><time>2026-04-29T16:05:13.001Z</time></trkpt><trkpt lat="42.83219534428429" lon="-1.5878410983227034"><ele>444.4285714285714</ele><time>2026-04-29T16:05:14.001Z</time></trkpt><trkpt lat="42.832174650435974" lon="-1.5879350738490259"><ele>444.8571428571429</ele><time>2026-04-29T16:05:15.001Z</time></trkpt><trkpt lat="42.83215556099269" lon="-1.5880264932683368"><ele>445.2857142857143</ele><time>2026-04-29T16:05:16.001Z</time></trkpt><trkpt lat="42.832136623717744" lon="-1.5881158721828539"><ele>445.71428571428567</ele><time>2026-04-29T16:05:17.001Z</time></trkpt><trkpt lat="42.832113150389794" lon="-1.5882036729932854"><ele>446.1428571428571</ele><time>2026-04-29T16:05:18.001Z</time></trkpt><trkpt lat="42.83208799449829" lon="-1.588292202601053"><ele>446.57142857142856</ele><time>2026-04-29T16:05:19.001Z</time></trkpt><trkpt lat="42.83207306779224" lon="-1.5883920730126952"><ele>447.0</ele><time>2026-04-29T16:05:20.001Z</time></trkpt><trkpt lat="42.832036497224074" lon="-1.5885599078063748"><ele>446.99999999999994</ele><time>2026-04-29T16:05:22.001Z</time></trkpt><trkpt lat="42.83201872103386" lon="-1.5886481656220963"><ele>447.0</ele><time>2026-04-29T16:05:23.001Z</time></trkpt><trkpt lat="42.83199365404955" lon="-1.588740203123703"><ele>447.0</ele><time>2026-04-29T16:05:24.001Z</time></trkpt><trkpt lat="42.831965938607176" lon="-1.58882958181996"><ele>447.0</ele><time>2026-04-29T16:05:25.001Z</time></trkpt><trkpt lat="42.831941614292106" lon="-1.5889162193065849"><ele>447.0</ele><time>2026-04-29T16:05:26.001Z</time></trkpt><trkpt lat="42.83192353015595" lon="-1.5890041944717956"><ele>446.99999999999994</ele><time>2026-04-29T16:05:27.001Z</time></trkpt><trkpt lat="42.831903708971275" lon="-1.5890988626825495"><ele>447.0</ele><time>2026-04-29T16:05:28.001Z</time></trkpt><trkpt lat="42.831895574065754" lon="-1.5891957718970813"><ele>446.57142857142856</ele><time>2026-04-29T16:05:29.001Z</time></trkpt><trkpt lat="42.83188833461172" lon="-1.5893023068523378"><ele>446.1428571428571</ele><time>2026-04-29T16:05:30.001Z</time></trkpt><trkpt lat="42.83188428304889" lon="-1.5894039659932722"><ele>445.71428571428567</ele><time>2026-04-29T16:05:31.001Z</time></trkpt><trkpt lat="42.83187463356847" lon="-1.5895045894122801"><ele>445.2857142857143</ele><time>2026-04-29T16:05:32.001Z</time></trkpt><trkpt lat="42.83186279779956" lon="-1.5896056302171342"><ele>444.8571428571429</ele><time>2026-04-29T16:05:33.001Z</time></trkpt><trkpt lat="42.83186377560644" lon="-1.5897016784205058"><ele>444.4285714285714</ele><time>2026-04-29T16:05:34.001Z</time></trkpt><trkpt lat="42.83186554637918" lon="-1.5898013612770843"><ele>444.0</ele><time>2026-04-29T16:05:35.001Z</time></trkpt><trkpt lat="42.83185397880701" lon="-1.5898938069036443"><ele>443.8333333333333</ele><time>2026-04-29T16:05:36.001Z</time></trkpt><trkpt lat="42.831849190179064" lon="-1.589988782110465"><ele>443.66666666666663</ele><time>2026-04-29T16:05:37.001Z</time></trkpt><trkpt lat="42.831840669204965" lon="-1.5900807871627494"><ele>443.5</ele><time>2026-04-29T16:05:38.001Z</time></trkpt><trkpt lat="42.831830334948464" lon="-1.5901719445928983"><ele>443.3333333333333</ele><time>2026-04-29T16:05:39.001Z</time></trkpt><trkpt lat="42.83181305258467" lon="-1.5903229193077326"><ele>443.16666666666663</ele><time>2026-04-29T16:05:41.001Z</time></trkpt><trkpt lat="42.83179472605829" lon="-1.5904546292055002"><ele>443.0</ele><time>2026-04-29T16:05:43.001Z</time></trkpt><trkpt lat="42.83178190181633" lon="-1.590563308139636"><ele>442.99999999999994</ele><time>2026-04-29T16:05:45.001Z</time></trkpt><trkpt lat="42.831767591993476" lon="-1.5906669235194235"><ele>443.0</ele><time>2026-04-29T16:05:48.001Z</time></trkpt><trkpt lat="42.83174821733833" lon="-1.5907518078636154"><ele>443.0</ele><time>2026-04-29T16:06:07.001Z</time></trkpt><trkpt lat="42.83172058810165" lon="-1.5908701079376864"><ele>443.0</ele><time>2026-04-29T16:06:09.001Z</time></trkpt><trkpt lat="42.831699307675265" lon="-1.5910356642127195"><ele>442.99999999999994</ele><time>2026-04-29T16:06:11.001Z</time></trkpt><trkpt lat="42.83167615861314" lon="-1.5911263179638226"><ele>443.0</ele><time>2026-04-29T16:06:12.001Z</time></trkpt><trkpt lat="42.83167635217301" lon="-1.5912198508907789"><ele>442.8333333333333</ele><time>2026-04-29T16:06:13.001Z</time></trkpt><trkpt lat="42.831648648868644" lon="-1.5913031360010612"><ele>442.66666666666663</ele><time>2026-04-29T16:06:14.001Z</time></trkpt><trkpt lat="42.83163720629539" lon="-1.5913930438375528"><ele>442.5</ele><time>2026-04-29T16:06:15.001Z</time></trkpt><trkpt lat="42.8316059217451" lon="-1.5914763706956072"><ele>442.33333333333337</ele><time>2026-04-29T16:06:16.002Z</time></trkpt><trkpt lat="42.83158984009906" lon="-1.5915691742562992"><ele>442.1666666666667</ele><time>2026-04-29T16:06:17.002Z</time></trkpt><trkpt lat="42.8315551976045" lon="-1.5917374899909262"><ele>442.0</ele><time>2026-04-29T16:06:18.999Z</time></trkpt><trkpt lat="42.831540062773094" lon="-1.5918212236394635"><ele>442.0</ele><time>2026-04-29T16:06:19.999Z</time></trkpt><trkpt lat="42.83150506550403" lon="-1.5919756111647427"><ele>442.00000000000006</ele><time>2026-04-29T16:06:21.999Z</time></trkpt><trkpt lat="42.83147725369178" lon="-1.592098072381541"><ele>442.00000000000006</ele><time>2026-04-29T16:06:23.999Z</time></trkpt><trkpt lat="42.831463843944604" lon="-1.5922129119954043"><ele>442.0</ele><time>2026-04-29T16:06:26.999Z</time></trkpt><trkpt lat="42.831437255208456" lon="-1.5923038750278455"><ele>442.0</ele><time>2026-04-29T16:06:28.999Z</time></trkpt><trkpt lat="42.831401105885185" lon="-1.5924450574254405"><ele>442.00000000000006</ele><time>2026-04-29T16:06:30.999Z</time></trkpt><trkpt lat="42.83135320416913" lon="-1.5926087145141419"><ele>442.0</ele><time>2026-04-29T16:06:33Z</time></trkpt><trkpt lat="42.831336987430575" lon="-1.5927014720090134"><ele>442.0</ele><time>2026-04-29T16:06:34Z</time></trkpt><trkpt lat="42.83131687335312" lon="-1.5927928907473807"><ele>442.0</ele><time>2026-04-29T16:06:35Z</time></trkpt><trkpt lat="42.83130199811206" lon="-1.592880667190975"><ele>442.00000000000006</ele><time>2026-04-29T16:06:36Z</time></trkpt><trkpt lat="42.83128244667643" lon="-1.5929628012947326"><ele>442.0</ele><time>2026-04-29T16:06:37Z</time></trkpt><trkpt lat="42.831260963994666" lon="-1.593044218723221"><ele>442.1666666666667</ele><time>2026-04-29T16:06:38Z</time></trkpt><trkpt lat="42.83124495689496" lon="-1.5931327492599396"><ele>442.33333333333337</ele><time>2026-04-29T16:06:39Z</time></trkpt><trkpt lat="42.831223891950096" lon="-1.5932304827159174"><ele>442.5</ele><time>2026-04-29T16:06:40Z</time></trkpt><trkpt lat="42.83120520922841" lon="-1.5933177889263679"><ele>442.66666666666663</ele><time>2026-04-29T16:06:41Z</time></trkpt><trkpt lat="42.831188493982495" lon="-1.593407628200023"><ele>442.8333333333333</ele><time>2026-04-29T16:06:42Z</time></trkpt><trkpt lat="42.83116211432946" lon="-1.5935727671294726"><ele>443.0</ele><time>2026-04-29T16:06:44Z</time></trkpt><trkpt lat="42.831157653630825" lon="-1.593732511563752"><ele>443.0</ele><time>2026-04-29T16:06:46Z</time></trkpt><trkpt lat="42.831154067282256" lon="-1.5938238434611554"><ele>443.0</ele><time>2026-04-29T16:06:47Z</time></trkpt><trkpt lat="42.831155079677124" lon="-1.5939160327369994"><ele>443.0</ele><time>2026-04-29T16:06:48Z</time></trkpt><trkpt lat="42.831158172734206" lon="-1.5940117774568354"><ele>443.0</ele><time>2026-04-29T16:06:49Z</time></trkpt><trkpt lat="42.831161203781505" lon="-1.5941088076984704"><ele>443.0</ele><time>2026-04-29T16:06:50Z</time></trkpt><trkpt lat="42.831169704580326" lon="-1.5942130115934878"><ele>443.0</ele><time>2026-04-29T16:06:51Z</time></trkpt><trkpt lat="42.83117387789539" lon="-1.5943135443017995"><ele>443.0</ele><time>2026-04-29T16:06:52Z</time></trkpt><trkpt lat="42.831180356076835" lon="-1.5944192710705825"><ele>442.99999999999994</ele><time>2026-04-29T16:06:53Z</time></trkpt><trkpt lat="42.83118469123575" lon="-1.59452491479185"><ele>443.0</ele><time>2026-04-29T16:06:54Z</time></trkpt><trkpt lat="42.83118946382592" lon="-1.5946322449676924"><ele>443.0</ele><time>2026-04-29T16:06:55Z</time></trkpt><trkpt lat="42.83119670233874" lon="-1.5947418681216168"><ele>443.0</ele><time>2026-04-29T16:06:56Z</time></trkpt><trkpt lat="42.8312062288794" lon="-1.59484803563573"><ele>442.99999999999994</ele><time>2026-04-29T16:06:57Z</time></trkpt><trkpt lat="42.83122716889729" lon="-1.5949619763684815"><ele>443.0</ele><time>2026-04-29T16:06:58Z</time></trkpt><trkpt lat="42.831264960859" lon="-1.5950654223777287"><ele>442.99999999999994</ele><time>2026-04-29T16:06:59Z</time></trkpt><trkpt lat="42.83132581136897" lon="-1.5951435465408368"><ele>443.0</ele><time>2026-04-29T16:07:00Z</time></trkpt><trkpt lat="42.831393928667914" lon="-1.5952073061001975"><ele>443.0</ele><time>2026-04-29T16:07:01Z</time></trkpt><trkpt lat="42.831471034265334" lon="-1.5952501822825618"><ele>443.0</ele><time>2026-04-29T16:07:02Z</time></trkpt><trkpt lat="42.8315416563489" lon="-1.5952951408748033"><ele>442.99999999999994</ele><time>2026-04-29T16:07:03Z</time></trkpt><trkpt lat="42.831610803110664" lon="-1.5953516966032355"><ele>443.0</ele><time>2026-04-29T16:07:04Z</time></trkpt><trkpt lat="42.831688838625695" lon="-1.595415314077658"><ele>441.59999999999997</ele><time>2026-04-29T16:07:05Z</time></trkpt><trkpt lat="42.831766223905554" lon="-1.5954716699001088"><ele>440.19999999999993</ele><time>2026-04-29T16:07:06Z</time></trkpt><trkpt lat="42.83184944438875" lon="-1.5955265688299896"><ele>438.8</ele><time>2026-04-29T16:07:07Z</time></trkpt><trkpt lat="42.8319245054434" lon="-1.5955759208231435"><ele>437.4</ele><time>2026-04-29T16:07:08Z</time></trkpt><trkpt lat="42.83199801158576" lon="-1.5956507947858163"><ele>436.0</ele><time>2026-04-29T16:07:09Z</time></trkpt><trkpt lat="42.832101123575704" lon="-1.5957212550500306"><ele>436.0</ele><time>2026-04-29T16:07:10Z</time></trkpt><trkpt lat="42.83223924294446" lon="-1.5958156371398389"><ele>436.0</ele><time>2026-04-29T16:07:11Z</time></trkpt><trkpt lat="42.832384603074566" lon="-1.595917818949454"><ele>436.0</ele><time>2026-04-29T16:07:12Z</time></trkpt><trkpt lat="42.83252070306288" lon="-1.5960293444929738"><ele>436.0</ele><time>2026-04-29T16:07:13Z</time></trkpt><trkpt lat="42.832412064662556" lon="-1.5959653386399637"><ele>436.0</ele><time>2026-04-29T16:07:14Z</time></trkpt><trkpt lat="42.83249428856344" lon="-1.5960339859233765"><ele>436.0</ele><time>2026-04-29T16:07:15Z</time></trkpt><trkpt lat="42.832576127820786" lon="-1.5961069221348732"><ele>436.0</ele><time>2026-04-29T16:07:16Z</time></trkpt><trkpt lat="42.83265653488018" lon="-1.596176651337393"><ele>436.0</ele><time>2026-04-29T16:07:17Z</time></trkpt><trkpt lat="42.83273478836598" lon="-1.5962510638602556"><ele>436.4</ele><time>2026-04-29T16:07:18Z</time></trkpt><trkpt lat="42.83281311127112" lon="-1.5963297998916508"><ele>436.8</ele><time>2026-04-29T16:07:19Z</time></trkpt><trkpt lat="42.832891865124054" lon="-1.5964153053921828"><ele>437.19999999999993</ele><time>2026-04-29T16:07:20Z</time></trkpt><trkpt lat="42.83297345263358" lon="-1.5965009407496595"><ele>437.59999999999997</ele><time>2026-04-29T16:07:21Z</time></trkpt><trkpt lat="42.83305270463924" lon="-1.5965892867860807"><ele>438.0</ele><time>2026-04-29T16:07:22.001Z</time></trkpt><trkpt lat="42.833125242765036" lon="-1.596689787399651"><ele>438.0</ele><time>2026-04-29T16:07:23.001Z</time></trkpt><trkpt lat="42.833199929719086" lon="-1.5967909806373055"><ele>437.99999999999994</ele><time>2026-04-29T16:07:24.001Z</time></trkpt><trkpt lat="42.833271731057515" lon="-1.5968982001462826"><ele>437.99999999999994</ele><time>2026-04-29T16:07:25.001Z</time></trkpt><trkpt lat="42.83334229275895" lon="-1.5970080501035029"><ele>438.0</ele><time>2026-04-29T16:07:26.001Z</time></trkpt><trkpt lat="42.833412714612955" lon="-1.5971093418337556"><ele>438.0</ele><time>2026-04-29T16:07:27.001Z</time></trkpt><trkpt lat="42.833483845601215" lon="-1.597215590057144"><ele>443.0</ele><time>2026-04-29T16:07:28.001Z</time></trkpt><trkpt lat="42.83355605348548" lon="-1.5973242545914583"><ele>447.99999999999994</ele><time>2026-04-29T16:07:29.001Z</time></trkpt><trkpt lat="42.83362229171465" lon="-1.5974346163610305"><ele>452.99999999999994</ele><time>2026-04-29T16:07:30.001Z</time></trkpt><trkpt lat="42.83369294240499" lon="-1.5975449715423444"><ele>458.0</ele><time>2026-04-29T16:07:31.001Z</time></trkpt><trkpt lat="42.83376464642979" lon="-1.5976559991267651"><ele>463.0</ele><time>2026-04-29T16:07:32.001Z</time></trkpt><trkpt lat="42.83383506555869" lon="-1.5977655784483016"><ele>460.0</ele><time>2026-04-29T16:07:33.001Z</time></trkpt><trkpt lat="42.83389671300129" lon="-1.5978797308520298"><ele>456.99999999999994</ele><time>2026-04-29T16:07:34.001Z</time></trkpt><trkpt lat="42.83394946274367" lon="-1.5980065302022406"><ele>453.99999999999994</ele><time>2026-04-29T16:07:35.001Z</time></trkpt><trkpt lat="42.834000442600164" lon="-1.5981330883030345"><ele>451.0</ele><time>2026-04-29T16:07:36.001Z</time></trkpt><trkpt lat="42.83403473436016" lon="-1.598270060565599"><ele>448.0</ele><time>2026-04-29T16:07:37.001Z</time></trkpt><trkpt lat="42.834038722976516" lon="-1.598430491148471"><ele>448.0</ele><time>2026-04-29T16:07:38.001Z</time></trkpt><trkpt lat="42.83406327526188" lon="-1.5985652905048675"><ele>447.99999999999994</ele><time>2026-04-29T16:07:39.001Z</time></trkpt><trkpt lat="42.83408205684691" lon="-1.5987076982551995"><ele>447.99999999999994</ele><time>2026-04-29T16:07:40.001Z</time></trkpt><trkpt lat="42.834106091925854" lon="-1.598849992534922"><ele>448.0</ele><time>2026-04-29T16:07:41.001Z</time></trkpt><trkpt lat="42.834132921876275" lon="-1.5989971961500447"><ele>448.0</ele><time>2026-04-29T16:07:42.001Z</time></trkpt><trkpt lat="42.834146145680236" lon="-1.5991362640791558"><ele>447.0</ele><time>2026-04-29T16:07:43.001Z</time></trkpt><trkpt lat="42.83416178279544" lon="-1.599275271214136"><ele>445.99999999999994</ele><time>2026-04-29T16:07:44.001Z</time></trkpt><trkpt lat="42.834178466124" lon="-1.5994161331015717"><ele>444.99999999999994</ele><time>2026-04-29T16:07:45.001Z</time></trkpt><trkpt lat="42.834183965377" lon="-1.5995588873859166"><ele>444.0</ele><time>2026-04-29T16:07:46.001Z</time></trkpt><trkpt lat="42.83418947425503" lon="-1.5996991086980157"><ele>443.0</ele><time>2026-04-29T16:07:47.001Z</time></trkpt><trkpt lat="42.834187603417114" lon="-1.5998400417508458"><ele>442.2</ele><time>2026-04-29T16:07:48.001Z</time></trkpt><trkpt lat="42.83417456932422" lon="-1.5999696933437968"><ele>441.4</ele><time>2026-04-29T16:07:49.001Z</time></trkpt><trkpt lat="42.83414458021615" lon="-1.600100446537117"><ele>440.59999999999997</ele><time>2026-04-29T16:07:50.001Z</time></trkpt><trkpt lat="42.83409664707867" lon="-1.6002222491807994"><ele>439.79999999999995</ele><time>2026-04-29T16:07:51.001Z</time></trkpt><trkpt lat="42.83403924922818" lon="-1.600328393312938"><ele>439.0</ele><time>2026-04-29T16:07:52.001Z</time></trkpt><trkpt lat="42.83397226908108" lon="-1.6004256845496474"><ele>438.2</ele><time>2026-04-29T16:07:53.001Z</time></trkpt><trkpt lat="42.83389905494897" lon="-1.6005166994934168"><ele>437.4</ele><time>2026-04-29T16:07:54.001Z</time></trkpt><trkpt lat="42.83382497653982" lon="-1.6006040497549412"><ele>436.6</ele><time>2026-04-29T16:07:55.001Z</time></trkpt><trkpt lat="42.833752518428106" lon="-1.6006803143567965"><ele>435.8</ele><time>2026-04-29T16:07:56.001Z</time></trkpt><trkpt lat="42.833682761777325" lon="-1.6007589858221793"><ele>435.0</ele><time>2026-04-29T16:07:57.001Z</time></trkpt><trkpt lat="42.83361277611102" lon="-1.6008452569381386"><ele>435.0</ele><time>2026-04-29T16:07:58.001Z</time></trkpt><trkpt lat="42.83354405045754" lon="-1.600917625806697"><ele>435.0</ele><time>2026-04-29T16:07:59.001Z</time></trkpt><trkpt lat="42.833478947038124" lon="-1.6009825364532155"><ele>435.0</ele><time>2026-04-29T16:08:00.001Z</time></trkpt><trkpt lat="42.83341621807505" lon="-1.6010462085898098"><ele>435.0</ele><time>2026-04-29T16:08:01.001Z</time></trkpt><trkpt lat="42.833362264809715" lon="-1.6011073403201919"><ele>435.0</ele><time>2026-04-29T16:08:02.001Z</time></trkpt><trkpt lat="42.83328627649184" lon="-1.6012144925464942"><ele>435.0</ele><time>2026-04-29T16:08:04.001Z</time></trkpt><trkpt lat="42.833273858865354" lon="-1.6013610107743546"><ele>433.5</ele><time>2026-04-29T16:08:06.001Z</time></trkpt><trkpt lat="42.8332075620521" lon="-1.6014461188395992"><ele>432.0</ele><time>2026-04-29T16:08:08.001Z</time></trkpt><trkpt lat="42.83313121854741" lon="-1.6014717467812587"><ele>430.5</ele><time>2026-04-29T16:08:10.001Z</time></trkpt><trkpt lat="42.83306935519418" lon="-1.6014512868350617"><ele>429.0</ele><time>2026-04-29T16:08:12.001Z</time></trkpt><trkpt lat="42.83306372815942" lon="-1.6013408474855468"><ele>427.5</ele><time>2026-04-29T16:08:33.999Z</time></trkpt><trkpt lat="42.83315163002955" lon="-1.6012308976970866"><ele>426.0</ele><time>2026-04-29T16:08:37.999Z</time></trkpt><trkpt lat="42.8332058533338" lon="-1.6011841353449174"><ele>426.1666666666667</ele><time>2026-04-29T16:08:38.999Z</time></trkpt><trkpt lat="42.8332658836334" lon="-1.601133595119038"><ele>426.33333333333337</ele><time>2026-04-29T16:08:39.999Z</time></trkpt><trkpt lat="42.833326916562996" lon="-1.6010740172752058"><ele>426.5</ele><time>2026-04-29T16:08:40.999Z</time></trkpt><trkpt lat="42.83338376070094" lon="-1.6010115608262754"><ele>426.6666666666667</ele><time>2026-04-29T16:08:41.999Z</time></trkpt><trkpt lat="42.8334480554436" lon="-1.6009477554145908"><ele>426.83333333333337</ele><time>2026-04-29T16:08:43Z</time></trkpt><trkpt lat="42.8335088906945" lon="-1.6008728608568403"><ele>427.0</ele><time>2026-04-29T16:08:44Z</time></trkpt><trkpt lat="42.83357396219142" lon="-1.600797563517388"><ele>428.33333333333337</ele><time>2026-04-29T16:08:45Z</time></trkpt><trkpt lat="42.833643074448176" lon="-1.600725119589436"><ele>429.6666666666667</ele><time>2026-04-29T16:08:46Z</time></trkpt><trkpt lat="42.83370973301293" lon="-1.6006487882072"><ele>431.0</ele><time>2026-04-29T16:08:47Z</time></trkpt><trkpt lat="42.83377135588398" lon="-1.6005645345099757"><ele>432.33333333333337</ele><time>2026-04-29T16:08:48Z</time></trkpt><trkpt lat="42.833837699326196" lon="-1.6004877740604526"><ele>433.6666666666667</ele><time>2026-04-29T16:08:49Z</time></trkpt><trkpt lat="42.83389982160965" lon="-1.6004003635558863"><ele>435.0</ele><time>2026-04-29T16:08:50Z</time></trkpt><trkpt lat="42.83396397073144" lon="-1.600317145553589"><ele>435.8</ele><time>2026-04-29T16:08:51Z</time></trkpt><trkpt lat="42.834023231890605" lon="-1.6002212961055529"><ele>436.6</ele><time>2026-04-29T16:08:52Z</time></trkpt><trkpt lat="42.83407051221329" lon="-1.6001214263904826"><ele>437.4</ele><time>2026-04-29T16:08:53Z</time></trkpt><trkpt lat="42.834104045412104" lon="-1.6000061545188424"><ele>438.2</ele><time>2026-04-29T16:08:54Z</time></trkpt><trkpt lat="42.83412957892664" lon="-1.5998909286791487"><ele>439.0</ele><time>2026-04-29T16:08:55Z</time></trkpt><trkpt lat="42.834139581961196" lon="-1.5997669467059894"><ele>439.0</ele><time>2026-04-29T16:08:56Z</time></trkpt><trkpt lat="42.83413447882752" lon="-1.5996400272895122"><ele>439.0</ele><time>2026-04-29T16:08:57Z</time></trkpt><trkpt lat="42.83413466152404" lon="-1.5995200026775418"><ele>439.0</ele><time>2026-04-29T16:08:58Z</time></trkpt><trkpt lat="42.83411965397114" lon="-1.5993937202100363"><ele>439.0</ele><time>2026-04-29T16:08:59Z</time></trkpt><trkpt lat="42.83411235794229" lon="-1.5992704941714955"><ele>439.0</ele><time>2026-04-29T16:09:00Z</time></trkpt><trkpt lat="42.834092272154514" lon="-1.5991494054096367"><ele>439.79999999999995</ele><time>2026-04-29T16:09:01Z</time></trkpt><trkpt lat="42.83407550648913" lon="-1.5990252414700685"><ele>440.59999999999997</ele><time>2026-04-29T16:09:02Z</time></trkpt><trkpt lat="42.834057178189596" lon="-1.5989012280306387"><ele>441.4</ele><time>2026-04-29T16:09:03Z</time></trkpt><trkpt lat="42.83404077558317" lon="-1.5987744777722799"><ele>442.2</ele><time>2026-04-29T16:09:04Z</time></trkpt><trkpt lat="42.83402338047669" lon="-1.5986445499529716"><ele>443.0</ele><time>2026-04-29T16:09:05Z</time></trkpt><trkpt lat="42.834006308806984" lon="-1.5985181755717683"><ele>444.0</ele><time>2026-04-29T16:09:06Z</time></trkpt><trkpt lat="42.833986136196145" lon="-1.598389102771844"><ele>444.99999999999994</ele><time>2026-04-29T16:09:07Z</time></trkpt><trkpt lat="42.83396472048934" lon="-1.5982586962008558"><ele>445.99999999999994</ele><time>2026-04-29T16:09:08Z</time></trkpt><trkpt lat="42.833940068294645" lon="-1.5981346126845046"><ele>447.0</ele><time>2026-04-29T16:09:09Z</time></trkpt><trkpt lat="42.833900387684885" lon="-1.598013026860085"><ele>448.0</ele><time>2026-04-29T16:09:10Z</time></trkpt><trkpt lat="42.83385316700894" lon="-1.5978994478314776"><ele>451.0</ele><time>2026-04-29T16:09:11Z</time></trkpt><trkpt lat="42.833799937041576" lon="-1.5977903858834706"><ele>453.99999999999994</ele><time>2026-04-29T16:09:12Z</time></trkpt><trkpt lat="42.83373841422625" lon="-1.5976911747913558"><ele>456.99999999999994</ele><time>2026-04-29T16:09:13Z</time></trkpt><trkpt lat="42.83367451971677" lon="-1.5975915250072639"><ele>460.0</ele><time>2026-04-29T16:09:14Z</time></trkpt><trkpt lat="42.83361491342429" lon="-1.5974725843440951"><ele>463.0</ele><time>2026-04-29T16:09:15Z</time></trkpt><trkpt lat="42.833538833896355" lon="-1.5973839576171138"><ele>463.00000000000006</ele><time>2026-04-29T16:09:16Z</time></trkpt><trkpt lat="42.83347469234263" lon="-1.5972877254663584"><ele>463.0</ele><time>2026-04-29T16:09:17Z</time></trkpt><trkpt lat="42.83342394463256" lon="-1.5972115882162548"><ele>463.0</ele><time>2026-04-29T16:09:18Z</time></trkpt><trkpt lat="42.833360219481335" lon="-1.5971159807856734"><ele>463.0</ele><time>2026-04-29T16:09:19Z</time></trkpt><trkpt lat="42.83329825774891" lon="-1.5970298083056655"><ele>463.00000000000006</ele><time>2026-04-29T16:09:20Z</time></trkpt><trkpt lat="42.83326278783012" lon="-1.5969301685933643"><ele>463.0</ele><time>2026-04-29T16:09:21Z</time></trkpt><trkpt lat="42.83321174901185" lon="-1.596846059170097"><ele>458.83333333333337</ele><time>2026-04-29T16:09:22Z</time></trkpt><trkpt lat="42.8331657204115" lon="-1.5967783388965946"><ele>454.6666666666667</ele><time>2026-04-29T16:09:23Z</time></trkpt><trkpt lat="42.83307967795822" lon="-1.5966923809652014"><ele>450.5</ele><time>2026-04-29T16:09:25Z</time></trkpt><trkpt lat="42.8331328359907" lon="-1.5967630262623083"><ele>446.33333333333337</ele><time>2026-04-29T16:11:23.001Z</time></trkpt><trkpt lat="42.83317713482437" lon="-1.5968262870910848"><ele>442.1666666666667</ele><time>2026-04-29T16:11:25.001Z</time></trkpt><trkpt lat="42.833245855285114" lon="-1.596934205438964"><ele>438.0</ele><time>2026-04-29T16:11:27.001Z</time></trkpt><trkpt lat="42.83328850932294" lon="-1.5970020156637854"><ele>436.5</ele><time>2026-04-29T16:11:28.001Z</time></trkpt><trkpt lat="42.83333583863631" lon="-1.5970772585271524"><ele>435.0</ele><time>2026-04-29T16:11:29.001Z</time></trkpt><trkpt lat="42.833392533364005" lon="-1.5971673902934564"><ele>433.5</ele><time>2026-04-29T16:11:30.001Z</time></trkpt><trkpt lat="42.833442813978046" lon="-1.5972398978862024"><ele>432.0</ele><time>2026-04-29T16:11:31.001Z</time></trkpt><trkpt lat="42.83349993043608" lon="-1.5973255901809928"><ele>430.5</ele><time>2026-04-29T16:11:32.001Z</time></trkpt><trkpt lat="42.83356536995419" lon="-1.597423769604417"><ele>429.0</ele><time>2026-04-29T16:11:33.001Z</time></trkpt><trkpt lat="42.833617128979576" lon="-1.5975014240977354"><ele>432.79999999999995</ele><time>2026-04-29T16:11:34.001Z</time></trkpt><trkpt lat="42.83375934049933" lon="-1.5976163078102101"><ele>436.59999999999997</ele><time>2026-04-29T16:11:35.001Z</time></trkpt><trkpt lat="42.83381583011148" lon="-1.597714650196155"><ele>440.4</ele><time>2026-04-29T16:11:36.001Z</time></trkpt><trkpt lat="42.83387356215046" lon="-1.597805663399121"><ele>444.2</ele><time>2026-04-29T16:11:37.001Z</time></trkpt><trkpt lat="42.83391791606593" lon="-1.5979045415667328"><ele>448.0</ele><time>2026-04-29T16:11:38.001Z</time></trkpt><trkpt lat="42.83395558167497" lon="-1.5980118070911697"><ele>448.0</ele><time>2026-04-29T16:11:39.001Z</time></trkpt><trkpt lat="42.83399131076794" lon="-1.598122486579281"><ele>447.99999999999994</ele><time>2026-04-29T16:11:40.001Z</time></trkpt><trkpt lat="42.83402159278438" lon="-1.5982371114765048"><ele>447.99999999999994</ele><time>2026-04-29T16:11:41.001Z</time></trkpt><trkpt lat="42.83404851396472" lon="-1.5983517843766892"><ele>448.0</ele><time>2026-04-29T16:11:42.001Z</time></trkpt><trkpt lat="42.8340642839317" lon="-1.5984753835302177"><ele>448.0</ele><time>2026-04-29T16:11:43.001Z</time></trkpt><trkpt lat="42.834082950773876" lon="-1.598597641932773"><ele>447.1666666666667</ele><time>2026-04-29T16:11:44.001Z</time></trkpt><trkpt lat="42.83409880292731" lon="-1.598717761224514"><ele>446.33333333333337</ele><time>2026-04-29T16:11:45.001Z</time></trkpt><trkpt lat="42.83411653905912" lon="-1.5988119464047588"><ele>445.5</ele><time>2026-04-29T16:11:46.001Z</time></trkpt><trkpt lat="42.834146234616554" lon="-1.5989117015165908"><ele>444.66666666666663</ele><time>2026-04-29T16:11:47.001Z</time></trkpt><trkpt lat="42.83421439663703" lon="-1.5990408765370945"><ele>443.8333333333333</ele><time>2026-04-29T16:11:49.001Z</time></trkpt><trkpt lat="42.83427181051878" lon="-1.5990935849606103"><ele>443.0</ele><time>2026-04-29T16:11:50.001Z</time></trkpt><trkpt lat="42.834336755350925" lon="-1.5991481471098643"><ele>441.4</ele><time>2026-04-29T16:11:51.001Z</time></trkpt><trkpt lat="42.83439123978835" lon="-1.5992042728293914"><ele>439.79999999999995</ele><time>2026-04-29T16:11:52.001Z</time></trkpt><trkpt lat="42.83445734193267" lon="-1.5992772626176426"><ele>438.2</ele><time>2026-04-29T16:11:53.001Z</time></trkpt><trkpt lat="42.83451976082995" lon="-1.5993279265548794"><ele>436.6</ele><time>2026-04-29T16:11:54.001Z</time></trkpt><trkpt lat="42.83461150837995" lon="-1.5994001940663507"><ele>435.0</ele><time>2026-04-29T16:11:56.001Z</time></trkpt><trkpt lat="42.83376676335236" lon="-1.600686275438726"><ele>435.0</ele><time>2026-04-29T16:12:02.001Z</time></trkpt><trkpt lat="42.83369166146695" lon="-1.6007632416195163"><ele>435.0</ele><time>2026-04-29T16:12:03.001Z</time></trkpt><trkpt lat="42.8336155960848" lon="-1.6008340282460312"><ele>435.0</ele><time>2026-04-29T16:12:04.001Z</time></trkpt><trkpt lat="42.83354766914867" lon="-1.6009113680958165"><ele>435.0</ele><time>2026-04-29T16:12:05.001Z</time></trkpt><trkpt lat="42.83348254144022" lon="-1.6009800021936238"><ele>435.0</ele><time>2026-04-29T16:12:06.001Z</time></trkpt><trkpt lat="42.83342259694725" lon="-1.6010440563433619"><ele>435.0</ele><time>2026-04-29T16:12:07.001Z</time></trkpt><trkpt lat="42.833367073606176" lon="-1.6011059270712495"><ele>433.5</ele><time>2026-04-29T16:12:08.001Z</time></trkpt><trkpt lat="42.83331578053172" lon="-1.6011662655397556"><ele>432.0</ele><time>2026-04-29T16:12:09.002Z</time></trkpt><trkpt lat="42.83328096780812" lon="-1.6012403128029604"><ele>430.5</ele><time>2026-04-29T16:12:10.002Z</time></trkpt><trkpt lat="42.83324440378748" lon="-1.6013887881328481"><ele>429.0</ele><time>2026-04-29T16:12:12.002Z</time></trkpt><trkpt lat="42.833178236018554" lon="-1.6014951161713231"><ele>427.5</ele><time>2026-04-29T16:12:14.002Z</time></trkpt><trkpt lat="42.83309570483371" lon="-1.6014930196088546"><ele>426.0</ele><time>2026-04-29T16:12:16.002Z</time></trkpt><trkpt lat="42.83303961903547" lon="-1.6014456891521975"><ele>426.0</ele><time>2026-04-29T16:17:05.001Z</time></trkpt><trkpt lat="42.83297168484281" lon="-1.6014509362801346"><ele>426.0</ele><time>2026-04-29T16:17:07.001Z</time></trkpt><trkpt lat="42.83287074317482" lon="-1.6015170018846443"><ele>426.0</ele><time>2026-04-29T16:17:09.001Z</time></trkpt><trkpt lat="42.832797035461354" lon="-1.6015931457301749"><ele>426.0</ele><time>2026-04-29T16:17:11.001Z</time></trkpt><trkpt lat="42.83273910570324" lon="-1.601663271354478"><ele>426.0</ele><time>2026-04-29T16:17:13.001Z</time></trkpt><trkpt lat="42.832672301471476" lon="-1.6017126381230447"><ele>426.0</ele><time>2026-04-29T16:17:15.001Z</time></trkpt><trkpt lat="42.83260714200838" lon="-1.6017692056523425"><ele>425.6</ele><time>2026-04-29T16:17:17.001Z</time></trkpt><trkpt lat="42.83253949101958" lon="-1.6018233446218866"><ele>425.20000000000005</ele><time>2026-04-29T16:17:19.001Z</time></trkpt><trkpt lat="42.832357419679255" lon="-1.6019445764909919"><ele>424.79999999999995</ele><time>2026-04-29T16:18:25.002Z</time></trkpt><trkpt lat="42.832298546784486" lon="-1.601995725189056"><ele>424.4</ele><time>2026-04-29T16:18:26.002Z</time></trkpt><trkpt lat="42.8322324769532" lon="-1.6020514800967305"><ele>424.0</ele><time>2026-04-29T16:18:27.002Z</time></trkpt><trkpt lat="42.83216424573614" lon="-1.6021089885168942"><ele>424.50000000000006</ele><time>2026-04-29T16:18:28.002Z</time></trkpt><trkpt lat="42.83209303186466" lon="-1.6021659228259644"><ele>425.0</ele><time>2026-04-29T16:18:29.002Z</time></trkpt><trkpt lat="42.83201623288867" lon="-1.6022296342944469"><ele>425.5</ele><time>2026-04-29T16:18:30.002Z</time></trkpt><trkpt lat="42.83194205843639" lon="-1.6022931986298892"><ele>426.0</ele><time>2026-04-29T16:18:31.002Z</time></trkpt><trkpt lat="42.83186628475015" lon="-1.602360451089505"><ele>426.50000000000006</ele><time>2026-04-29T16:18:32.002Z</time></trkpt><trkpt lat="42.83178988311947" lon="-1.6024194065841124"><ele>427.0</ele><time>2026-04-29T16:18:33.002Z</time></trkpt><trkpt lat="42.83171757270371" lon="-1.602467702639799"><ele>427.0</ele><time>2026-04-29T16:18:34.002Z</time></trkpt><trkpt lat="42.83165962832403" lon="-1.6025133019456383"><ele>427.00000000000006</ele><time>2026-04-29T16:18:35.002Z</time></trkpt><trkpt lat="42.83161290220996" lon="-1.6025922747889476"><ele>427.00000000000006</ele><time>2026-04-29T16:18:37.002Z</time></trkpt><trkpt lat="42.831544574860104" lon="-1.6026489377118363"><ele>427.0</ele><time>2026-04-29T16:18:43.002Z</time></trkpt><trkpt lat="42.83144597648341" lon="-1.60271881364129"><ele>427.0</ele><time>2026-04-29T16:18:45.002Z</time></trkpt><trkpt lat="42.831332510897134" lon="-1.6028043717269393"><ele>427.00000000000006</ele><time>2026-04-29T16:18:47.002Z</time></trkpt><trkpt lat="42.83127122950766" lon="-1.6028480216668202"><ele>427.0</ele><time>2026-04-29T16:18:48.002Z</time></trkpt><trkpt lat="42.83120702903556" lon="-1.6028995879604995"><ele>427.0</ele><time>2026-04-29T16:18:49.002Z</time></trkpt><trkpt lat="42.8311359419716" lon="-1.602959140894207"><ele>427.0</ele><time>2026-04-29T16:18:50.002Z</time></trkpt><trkpt lat="42.83106875728621" lon="-1.6030118648507714"><ele>427.00000000000006</ele><time>2026-04-29T16:18:51.002Z</time></trkpt><trkpt lat="42.83100017511258" lon="-1.6030675389930171"><ele>427.0</ele><time>2026-04-29T16:18:52.002Z</time></trkpt><trkpt lat="42.83092878055468" lon="-1.603120602870482"><ele>426.6666666666667</ele><time>2026-04-29T16:18:53.002Z</time></trkpt><trkpt lat="42.83085749495718" lon="-1.603175736320118"><ele>426.33333333333337</ele><time>2026-04-29T16:18:54Z</time></trkpt><trkpt lat="42.830787382147406" lon="-1.603233118841715"><ele>426.0</ele><time>2026-04-29T16:18:55Z</time></trkpt><trkpt lat="42.83071636111298" lon="-1.603286794440517"><ele>425.66666666666663</ele><time>2026-04-29T16:18:56Z</time></trkpt><trkpt lat="42.830649791462434" lon="-1.603335219557438"><ele>425.3333333333333</ele><time>2026-04-29T16:18:57Z</time></trkpt><trkpt lat="42.8305815739676" lon="-1.6033855274114928"><ele>425.0</ele><time>2026-04-29T16:18:58Z</time></trkpt><trkpt lat="42.830515481415254" lon="-1.6034362510751736"><ele>424.99999999999994</ele><time>2026-04-29T16:18:59Z</time></trkpt><trkpt lat="42.83044778653308" lon="-1.6034857311733945"><ele>425.0</ele><time>2026-04-29T16:19:00Z</time></trkpt><trkpt lat="42.83039044614175" lon="-1.6035367680414754"><ele>425.0</ele><time>2026-04-29T16:19:01Z</time></trkpt><trkpt lat="42.830335464916274" lon="-1.6035848408172664"><ele>425.0</ele><time>2026-04-29T16:19:02Z</time></trkpt><trkpt lat="42.830261778914696" lon="-1.603693764977943"><ele>424.99999999999994</ele><time>2026-04-29T16:19:04Z</time></trkpt><trkpt lat="42.83019639199157" lon="-1.6037748447639606"><ele>425.0</ele><time>2026-04-29T16:19:06Z</time></trkpt><trkpt lat="42.830143381850384" lon="-1.603840577309992"><ele>424.8</ele><time>2026-04-29T16:19:08Z</time></trkpt><trkpt lat="42.83003935509842" lon="-1.603682195141656"><ele>424.6</ele><time>2026-04-29T16:19:10Z</time></trkpt><trkpt lat="42.8300448914767" lon="-1.6035240333360512"><ele>424.4</ele><time>2026-04-29T16:19:12Z</time></trkpt><trkpt lat="42.830038448503394" lon="-1.6034366934050155"><ele>424.2</ele><time>2026-04-29T16:19:13Z</time></trkpt><trkpt lat="42.8300256702585" lon="-1.6033471221808384"><ele>424.0</ele><time>2026-04-29T16:19:14Z</time></trkpt><trkpt lat="42.830010083412255" lon="-1.603255795229542"><ele>424.00000000000006</ele><time>2026-04-29T16:19:15Z</time></trkpt><trkpt lat="42.82999537877009" lon="-1.603159303808128"><ele>424.0</ele><time>2026-04-29T16:19:16Z</time></trkpt><trkpt lat="42.82998375835467" lon="-1.6030565405692119"><ele>424.0</ele><time>2026-04-29T16:19:17Z</time></trkpt><trkpt lat="42.82997141882688" lon="-1.6029552412871255"><ele>424.0</ele><time>2026-04-29T16:19:18Z</time></trkpt><trkpt lat="42.82995272004781" lon="-1.6028478719891242"><ele>424.00000000000006</ele><time>2026-04-29T16:19:19Z</time></trkpt><trkpt lat="42.8299401407313" lon="-1.6027368545370417"><ele>424.0</ele><time>2026-04-29T16:19:20Z</time></trkpt><trkpt lat="42.82992724350119" lon="-1.6026232867321357"><ele>424.1666666666667</ele><time>2026-04-29T16:19:21Z</time></trkpt><trkpt lat="42.829911907049485" lon="-1.6025113462744798"><ele>424.33333333333337</ele><time>2026-04-29T16:19:22Z</time></trkpt><trkpt lat="42.82989606137165" lon="-1.602397387948704"><ele>424.5</ele><time>2026-04-29T16:19:23Z</time></trkpt><trkpt lat="42.82988185609008" lon="-1.6022828175836363"><ele>424.66666666666663</ele><time>2026-04-29T16:19:24Z</time></trkpt><trkpt lat="42.82987006429563" lon="-1.6021683962379965"><ele>424.8333333333333</ele><time>2026-04-29T16:19:25Z</time></trkpt><trkpt lat="42.82985884096917" lon="-1.602056759246153"><ele>425.0</ele><time>2026-04-29T16:19:26Z</time></trkpt><trkpt lat="42.829844797930555" lon="-1.6019425708597994"><ele>425.99999999999994</ele><time>2026-04-29T16:19:27Z</time></trkpt><trkpt lat="42.829829769416385" lon="-1.6018366662800498"><ele>427.0</ele><time>2026-04-29T16:19:28Z</time></trkpt><trkpt lat="42.82981414898298" lon="-1.6017333875089121"><ele>428.0</ele><time>2026-04-29T16:19:29Z</time></trkpt><trkpt lat="42.82979890103504" lon="-1.6016347307027134"><ele>429.0</ele><time>2026-04-29T16:19:30Z</time></trkpt><trkpt lat="42.82978171032862" lon="-1.601534024874379"><ele>429.99999999999994</ele><time>2026-04-29T16:19:31Z</time></trkpt><trkpt lat="42.829743745551134" lon="-1.60143822758181"><ele>431.0</ele><time>2026-04-29T16:19:32Z</time></trkpt><trkpt lat="42.829735371779506" lon="-1.6013371767277234"><ele>431.0</ele><time>2026-04-29T16:19:33Z</time></trkpt><trkpt lat="42.829707841567156" lon="-1.6012555650754057"><ele>431.0</ele><time>2026-04-29T16:19:34Z</time></trkpt><trkpt lat="42.82968636766661" lon="-1.6011736225432571"><ele>431.0</ele><time>2026-04-29T16:19:35Z</time></trkpt><trkpt lat="42.829661198332644" lon="-1.6010866915753539"><ele>431.0</ele><time>2026-04-29T16:19:36Z</time></trkpt><trkpt lat="42.82961662359191" lon="-1.601009513158069"><ele>431.0</ele><time>2026-04-29T16:19:37Z</time></trkpt><trkpt lat="42.82959154757396" lon="-1.6009152012318777"><ele>431.0</ele><time>2026-04-29T16:19:38.001Z</time></trkpt><trkpt lat="42.82955037760387" lon="-1.600824453726308"><ele>431.0</ele><time>2026-04-29T16:19:39.001Z</time></trkpt><trkpt lat="42.82950890528723" lon="-1.6007346319105313"><ele>431.3333333333333</ele><time>2026-04-29T16:19:40.001Z</time></trkpt><trkpt lat="42.82946306647137" lon="-1.6006437944848262"><ele>431.66666666666663</ele><time>2026-04-29T16:19:41.001Z</time></trkpt><trkpt lat="42.8294109624079" lon="-1.6005610182233405"><ele>432.0</ele><time>2026-04-29T16:19:42.001Z</time></trkpt><trkpt lat="42.829361855637096" lon="-1.600470329047872"><ele>432.33333333333337</ele><time>2026-04-29T16:19:43.001Z</time></trkpt><trkpt lat="42.82930670467989" lon="-1.6003847008150307"><ele>432.6666666666667</ele><time>2026-04-29T16:19:44.001Z</time></trkpt><trkpt lat="42.82925324868959" lon="-1.60029823030696"><ele>433.0</ele><time>2026-04-29T16:19:45.001Z</time></trkpt><trkpt lat="42.82919397108454" lon="-1.600211693972349"><ele>433.6666666666667</ele><time>2026-04-29T16:19:46.001Z</time></trkpt><trkpt lat="42.82913416509447" lon="-1.6001291596799698"><ele>434.33333333333337</ele><time>2026-04-29T16:19:47.001Z</time></trkpt><trkpt lat="42.82907643465794" lon="-1.6000402527662245"><ele>435.0</ele><time>2026-04-29T16:19:48.001Z</time></trkpt><trkpt lat="42.82902106436651" lon="-1.5999507603537397"><ele>435.66666666666663</ele><time>2026-04-29T16:19:49.001Z</time></trkpt><trkpt lat="42.828962032677275" lon="-1.5998630261836777"><ele>436.3333333333333</ele><time>2026-04-29T16:19:50.001Z</time></trkpt><trkpt lat="42.828903873384306" lon="-1.5997707422286769"><ele>437.0</ele><time>2026-04-29T16:19:51.001Z</time></trkpt><trkpt lat="42.82884408860565" lon="-1.5996765953462924"><ele>436.99999999999994</ele><time>2026-04-29T16:19:52.001Z</time></trkpt><trkpt lat="42.82878359215013" lon="-1.5995813750633132"><ele>437.0</ele><time>2026-04-29T16:19:53.001Z</time></trkpt><trkpt lat="42.82872243361328" lon="-1.5994905551356078"><ele>437.0</ele><time>2026-04-29T16:19:54.001Z</time></trkpt><trkpt lat="42.828659037808194" lon="-1.5994031488487006"><ele>437.0</ele><time>2026-04-29T16:19:55.001Z</time></trkpt><trkpt lat="42.82859936565518" lon="-1.5993153555371364"><ele>436.99999999999994</ele><time>2026-04-29T16:19:56.001Z</time></trkpt><trkpt lat="42.828543190349635" lon="-1.5992227128991299"><ele>437.0</ele><time>2026-04-29T16:19:57.001Z</time></trkpt><trkpt lat="42.82848421998176" lon="-1.5991324517614847"><ele>437.16666666666663</ele><time>2026-04-29T16:19:58.001Z</time></trkpt><trkpt lat="42.82843031578882" lon="-1.5990473764726147"><ele>437.3333333333333</ele><time>2026-04-29T16:19:59.001Z</time></trkpt><trkpt lat="42.82837315876189" lon="-1.5989627000583801"><ele>437.5</ele><time>2026-04-29T16:20:00.001Z</time></trkpt><trkpt lat="42.82831802531421" lon="-1.5988799749866356"><ele>437.66666666666663</ele><time>2026-04-29T16:20:01.001Z</time></trkpt><trkpt lat="42.828264833692415" lon="-1.5987945261808343"><ele>437.8333333333333</ele><time>2026-04-29T16:20:02.001Z</time></trkpt><trkpt lat="42.828212004324165" lon="-1.5987126363270368"><ele>438.0</ele><time>2026-04-29T16:20:03.001Z</time></trkpt><trkpt lat="42.82816354207431" lon="-1.5986442742217333"><ele>438.0</ele><time>2026-04-29T16:20:04.001Z</time></trkpt><trkpt lat="42.82808317470309" lon="-1.598567069793811"><ele>437.99999999999994</ele><time>2026-04-29T16:20:06.001Z</time></trkpt><trkpt lat="42.8279804585683" lon="-1.5986145563736305"><ele>437.99999999999994</ele><time>2026-04-29T16:20:08.001Z</time></trkpt><trkpt lat="42.82788613258379" lon="-1.5987470072594785"><ele>438.0</ele><time>2026-04-29T16:20:10.001Z</time></trkpt><trkpt lat="42.8278315206231" lon="-1.598811878480688"><ele>438.0</ele><time>2026-04-29T16:20:11.001Z</time></trkpt><trkpt lat="42.82776307947238" lon="-1.5988494815615215"><ele>438.5</ele><time>2026-04-29T16:20:12.001Z</time></trkpt><trkpt lat="42.827712490623405" lon="-1.5989410178300067"><ele>439.0</ele><time>2026-04-29T16:20:13.001Z</time></trkpt><trkpt lat="42.82765377763162" lon="-1.5990111242286142"><ele>439.5</ele><time>2026-04-29T16:20:14.001Z</time></trkpt><trkpt lat="42.8275921454682" lon="-1.5990812577734528"><ele>440.0</ele><time>2026-04-29T16:20:15.001Z</time></trkpt><trkpt lat="42.827529875849336" lon="-1.5991547376927948"><ele>440.5</ele><time>2026-04-29T16:20:16.001Z</time></trkpt><trkpt lat="42.827468403999646" lon="-1.5992298568737984"><ele>441.0</ele><time>2026-04-29T16:20:17.001Z</time></trkpt><trkpt lat="42.82741073871305" lon="-1.5993088011562435"><ele>441.0</ele><time>2026-04-29T16:20:18.001Z</time></trkpt><trkpt lat="42.82734862429283" lon="-1.5993877576790225"><ele>441.0</ele><time>2026-04-29T16:20:19.001Z</time></trkpt><trkpt lat="42.82728616641092" lon="-1.5994632960627835"><ele>441.0</ele><time>2026-04-29T16:20:20.001Z</time></trkpt><trkpt lat="42.82722929468707" lon="-1.599549315151367"><ele>441.0</ele><time>2026-04-29T16:20:21.001Z</time></trkpt><trkpt lat="42.82717215625259" lon="-1.599635522000674"><ele>441.0</ele><time>2026-04-29T16:20:22.001Z</time></trkpt><trkpt lat="42.82711754330371" lon="-1.599714372005487"><ele>441.0</ele><time>2026-04-29T16:20:23.001Z</time></trkpt><trkpt lat="42.8270683321248" lon="-1.599788793951904"><ele>441.0</ele><time>2026-04-29T16:20:24.001Z</time></trkpt><trkpt lat="42.82702077045856" lon="-1.5998606551738046"><ele>441.0</ele><time>2026-04-29T16:20:25.001Z</time></trkpt><trkpt lat="42.826972578520305" lon="-1.5999279887837177"><ele>441.0</ele><time>2026-04-29T16:20:26.001Z</time></trkpt><trkpt lat="42.826918112603366" lon="-1.6000008912950952"><ele>441.0</ele><time>2026-04-29T16:20:27.001Z</time></trkpt><trkpt lat="42.82686275733567" lon="-1.6000812592136873"><ele>441.0</ele><time>2026-04-29T16:20:28.001Z</time></trkpt><trkpt lat="42.8268045517171" lon="-1.600163869442267"><ele>441.0</ele><time>2026-04-29T16:20:29.001Z</time></trkpt><trkpt lat="42.82674427921953" lon="-1.6002462198432228"><ele>441.0</ele><time>2026-04-29T16:20:30.001Z</time></trkpt><trkpt lat="42.82668241749087" lon="-1.600334010012286"><ele>441.0</ele><time>2026-04-29T16:20:31.001Z</time></trkpt><trkpt lat="42.82661720696963" lon="-1.6004136606560606"><ele>441.0</ele><time>2026-04-29T16:20:32.001Z</time></trkpt><trkpt lat="42.82654348434465" lon="-1.6004850061410445"><ele>441.0</ele><time>2026-04-29T16:20:33.001Z</time></trkpt><trkpt lat="42.82646485286149" lon="-1.6005529542640808"><ele>441.0</ele><time>2026-04-29T16:20:34.001Z</time></trkpt><trkpt lat="42.82638993163308" lon="-1.6006255196893169"><ele>441.0</ele><time>2026-04-29T16:20:35.001Z</time></trkpt><trkpt lat="42.82631128796351" lon="-1.6006962216371243"><ele>441.0</ele><time>2026-04-29T16:20:36.001Z</time></trkpt><trkpt lat="42.826229243501814" lon="-1.6007670184273934"><ele>441.0</ele><time>2026-04-29T16:20:37.001Z</time></trkpt><trkpt lat="42.82614485625525" lon="-1.600831288876474"><ele>441.0</ele><time>2026-04-29T16:20:38.001Z</time></trkpt><trkpt lat="42.82606258278291" lon="-1.6009001973747292"><ele>441.0</ele><time>2026-04-29T16:20:39.001Z</time></trkpt><trkpt lat="42.8259817149828" lon="-1.600964456296929"><ele>441.4</ele><time>2026-04-29T16:20:40.001Z</time></trkpt><trkpt lat="42.825895189610414" lon="-1.6010309823037854"><ele>441.8</ele><time>2026-04-29T16:20:41.001Z</time></trkpt><trkpt lat="42.82581128107677" lon="-1.601091990439171"><ele>442.19999999999993</ele><time>2026-04-29T16:20:42.001Z</time></trkpt><trkpt lat="42.825722425637544" lon="-1.6011537074873485"><ele>442.59999999999997</ele><time>2026-04-29T16:20:43.001Z</time></trkpt><trkpt lat="42.825635576590294" lon="-1.601212862866157"><ele>443.0</ele><time>2026-04-29T16:20:44.001Z</time></trkpt><trkpt lat="42.825545672733334" lon="-1.6012700882843942"><ele>443.0</ele><time>2026-04-29T16:20:45.001Z</time></trkpt><trkpt lat="42.82545666952689" lon="-1.601328419523866"><ele>442.99999999999994</ele><time>2026-04-29T16:20:46.001Z</time></trkpt><trkpt lat="42.825367368017325" lon="-1.6013893583518835"><ele>442.99999999999994</ele><time>2026-04-29T16:20:47.001Z</time></trkpt><trkpt lat="42.825277036065465" lon="-1.6014467224972548"><ele>443.0</ele><time>2026-04-29T16:20:48.001Z</time></trkpt><trkpt lat="42.8251882835623" lon="-1.6014994301324068"><ele>443.0</ele><time>2026-04-29T16:20:49.001Z</time></trkpt><trkpt lat="42.825103621701665" lon="-1.6015460283143816"><ele>443.0</ele><time>2026-04-29T16:20:50.001Z</time></trkpt><trkpt lat="42.82502613346882" lon="-1.6015899027763911"><ele>443.0</ele><time>2026-04-29T16:20:51.001Z</time></trkpt><trkpt lat="42.82495417384946" lon="-1.6016325532528808"><ele>443.0</ele><time>2026-04-29T16:20:52.001Z</time></trkpt><trkpt lat="42.82489094586468" lon="-1.6016735699533788"><ele>443.0</ele><time>2026-04-29T16:20:53.001Z</time></trkpt><trkpt lat="42.82483265483766" lon="-1.601707915220013"><ele>443.0</ele><time>2026-04-29T16:20:54.001Z</time></trkpt><trkpt lat="42.82477016965378" lon="-1.601736342689418"><ele>443.0</ele><time>2026-04-29T16:20:55.001Z</time></trkpt><trkpt lat="42.8247087500988" lon="-1.6017665313861493"><ele>443.0</ele><time>2026-04-29T16:20:56.002Z</time></trkpt><trkpt lat="42.82464375038632" lon="-1.601802718376745"><ele>443.0</ele><time>2026-04-29T16:20:57.002Z</time></trkpt><trkpt lat="42.824574661608565" lon="-1.601839207702892"><ele>443.0</ele><time>2026-04-29T16:20:58.002Z</time></trkpt><trkpt lat="42.824507564706884" lon="-1.6018806746806027"><ele>443.0</ele><time>2026-04-29T16:20:59.002Z</time></trkpt><trkpt lat="42.82444082095223" lon="-1.6019270739714655"><ele>443.0</ele><time>2026-04-29T16:20:59.999Z</time></trkpt><trkpt lat="42.824375985217635" lon="-1.601975119001843"><ele>443.0</ele><time>2026-04-29T16:21:00.999Z</time></trkpt><trkpt lat="42.824314203114405" lon="-1.6020271289490184"><ele>443.0</ele><time>2026-04-29T16:21:01.999Z</time></trkpt><trkpt lat="42.824252669367624" lon="-1.6020840071401354"><ele>443.0</ele><time>2026-04-29T16:21:02.999Z</time></trkpt><trkpt lat="42.82419640232284" lon="-1.6021423419097096"><ele>443.8571428571429</ele><time>2026-04-29T16:21:03.999Z</time></trkpt><trkpt lat="42.82414060802693" lon="-1.602194532820185"><ele>444.7142857142857</ele><time>2026-04-29T16:21:04.999Z</time></trkpt><trkpt lat="42.824081534625634" lon="-1.6022504482469986"><ele>445.57142857142856</ele><time>2026-04-29T16:21:05.999Z</time></trkpt><trkpt lat="42.82402370118524" lon="-1.602312825793808"><ele>446.42857142857144</ele><time>2026-04-29T16:21:06.999Z</time></trkpt><trkpt lat="42.82397010078772" lon="-1.6023739555346002"><ele>447.2857142857142</ele><time>2026-04-29T16:21:07.999Z</time></trkpt><trkpt lat="42.82391172912492" lon="-1.6024255852146907"><ele>448.1428571428571</ele><time>2026-04-29T16:21:08.999Z</time></trkpt><trkpt lat="42.82385350662187" lon="-1.6024842753578925"><ele>449.0</ele><time>2026-04-29T16:21:09.999Z</time></trkpt><trkpt lat="42.82379811693481" lon="-1.6025509348656546"><ele>449.0</ele><time>2026-04-29T16:21:10.999Z</time></trkpt><trkpt lat="42.823740446495556" lon="-1.602613703970549"><ele>448.99999999999994</ele><time>2026-04-29T16:21:11.999Z</time></trkpt><trkpt lat="42.823681861429044" lon="-1.6026780787111041"><ele>449.0</ele><time>2026-04-29T16:21:12.999Z</time></trkpt><trkpt lat="42.82361908839316" lon="-1.6027445526577517"><ele>449.0</ele><time>2026-04-29T16:21:13.999Z</time></trkpt><trkpt lat="42.82355980317882" lon="-1.6028109122626224"><ele>448.99999999999994</ele><time>2026-04-29T16:21:14.999Z</time></trkpt><trkpt lat="42.823504597490555" lon="-1.6028711099283819"><ele>449.0</ele><time>2026-04-29T16:21:15.999Z</time></trkpt><trkpt lat="42.82345147264044" lon="-1.6029297622483025"><ele>449.0</ele><time>2026-04-29T16:21:17Z</time></trkpt><trkpt lat="42.82335510696019" lon="-1.6030326083829607"><ele>450.0</ele><time>2026-04-29T16:21:19Z</time></trkpt><trkpt lat="42.823247045044596" lon="-1.6031423560107583"><ele>451.0</ele><time>2026-04-29T16:21:21Z</time></trkpt><trkpt lat="42.82318480770991" lon="-1.6032034229078755"><ele>452.0</ele><time>2026-04-29T16:21:22Z</time></trkpt><trkpt lat="42.82311853884999" lon="-1.6032691221852091"><ele>453.0</ele><time>2026-04-29T16:21:23Z</time></trkpt><trkpt lat="42.82304834886531" lon="-1.6033396747623356"><ele>454.0</ele><time>2026-04-29T16:21:24Z</time></trkpt><trkpt lat="42.82297904505134" lon="-1.6034136654843965"><ele>454.00000000000006</ele><time>2026-04-29T16:21:25Z</time></trkpt><trkpt lat="42.82290879564238" lon="-1.6034954805987172"><ele>454.0</ele><time>2026-04-29T16:21:26Z</time></trkpt><trkpt lat="42.82283785282427" lon="-1.6035705349068727"><ele>454.0</ele><time>2026-04-29T16:21:27Z</time></trkpt><trkpt lat="42.82276568457161" lon="-1.6036451965524006"><ele>454.0</ele><time>2026-04-29T16:21:28Z</time></trkpt><trkpt lat="42.82269559768366" lon="-1.603713328667809"><ele>454.00000000000006</ele><time>2026-04-29T16:21:29Z</time></trkpt><trkpt lat="42.8226303763938" lon="-1.6037764711641767"><ele>454.0</ele><time>2026-04-29T16:21:30Z</time></trkpt><trkpt lat="42.82257027499113" lon="-1.6038365078561894"><ele>453.83333333333337</ele><time>2026-04-29T16:21:31Z</time></trkpt><trkpt lat="42.82251338945774" lon="-1.6038919891390835"><ele>453.6666666666667</ele><time>2026-04-29T16:21:32Z</time></trkpt><trkpt lat="42.822463023395194" lon="-1.6039582458061303"><ele>453.5</ele><time>2026-04-29T16:21:33Z</time></trkpt><trkpt lat="42.82240518907671" lon="-1.6040190539744843"><ele>453.33333333333337</ele><time>2026-04-29T16:21:34Z</time></trkpt><trkpt lat="42.822398345556174" lon="-1.6041501792531432"><ele>453.1666666666667</ele><time>2026-04-29T16:21:35Z</time></trkpt><trkpt lat="42.822361571023585" lon="-1.604235216532581"><ele>453.0</ele><time>2026-04-29T16:21:36Z</time></trkpt><trkpt lat="42.8223052390472" lon="-1.604295836659607"><ele>453.0</ele><time>2026-04-29T16:21:37Z</time></trkpt><trkpt lat="42.82223632815427" lon="-1.6043201492997592"><ele>453.0</ele><time>2026-04-29T16:21:38Z</time></trkpt><trkpt lat="42.82215883909816" lon="-1.6043375301326779"><ele>453.0</ele><time>2026-04-29T16:21:39Z</time></trkpt><trkpt lat="42.82208245064015" lon="-1.6042934351057463"><ele>453.0</ele><time>2026-04-29T16:21:40Z</time></trkpt><trkpt lat="42.822006249623485" lon="-1.6042897589290988"><ele>453.0</ele><time>2026-04-29T16:21:41Z</time></trkpt><trkpt lat="42.821923848919496" lon="-1.6043164213507688"><ele>453.0</ele><time>2026-04-29T16:21:42Z</time></trkpt><trkpt lat="42.82184070714071" lon="-1.6043386365657386"><ele>452.5</ele><time>2026-04-29T16:21:43Z</time></trkpt><trkpt lat="42.82175352771668" lon="-1.6043642865426673"><ele>452.0</ele><time>2026-04-29T16:21:44Z</time></trkpt><trkpt lat="42.821667084261" lon="-1.6043910464381808"><ele>451.5</ele><time>2026-04-29T16:21:45Z</time></trkpt><trkpt lat="42.82157966411765" lon="-1.6044154269836277"><ele>451.0</ele><time>2026-04-29T16:21:46Z</time></trkpt><trkpt lat="42.8214907704404" lon="-1.6044388560733591"><ele>450.5</ele><time>2026-04-29T16:21:47Z</time></trkpt><trkpt lat="42.821402569294385" lon="-1.6044563028811918"><ele>450.0</ele><time>2026-04-29T16:21:48Z</time></trkpt><trkpt lat="42.82131505668115" lon="-1.6044739117493485"><ele>450.0</ele><time>2026-04-29T16:21:49Z</time></trkpt><trkpt lat="42.82123093614585" lon="-1.6044870513610396"><ele>450.0</ele><time>2026-04-29T16:21:50Z</time></trkpt><trkpt lat="42.82114842251446" lon="-1.60450096218395"><ele>450.0</ele><time>2026-04-29T16:21:51Z</time></trkpt><trkpt lat="42.82106926159993" lon="-1.60451555684"><ele>450.0</ele><time>2026-04-29T16:21:52Z</time></trkpt><trkpt lat="42.82100216899456" lon="-1.6045375018214605"><ele>450.0</ele><time>2026-04-29T16:21:53Z</time></trkpt><trkpt lat="42.820918232435574" lon="-1.6045450007113942"><ele>450.0</ele><time>2026-04-29T16:21:55Z</time></trkpt><trkpt lat="42.82085896532818" lon="-1.6046823216973862"><ele>448.3333333333333</ele><time>2026-04-29T16:21:57Z</time></trkpt><trkpt lat="42.820821160239134" lon="-1.6047513604822365"><ele>446.66666666666663</ele><time>2026-04-29T16:21:58Z</time></trkpt><trkpt lat="42.820709478433926" lon="-1.6048671131492607"><ele>445.0</ele><time>2026-04-29T16:22:00Z</time></trkpt><trkpt lat="42.82063711658191" lon="-1.6049030211919804"><ele>443.3333333333333</ele><time>2026-04-29T16:22:01Z</time></trkpt><trkpt lat="42.8205652097758" lon="-1.6049424690740441"><ele>441.66666666666663</ele><time>2026-04-29T16:22:02Z</time></trkpt><trkpt lat="42.82048792292071" lon="-1.6049497757295967"><ele>440.0</ele><time>2026-04-29T16:22:03Z</time></trkpt><trkpt lat="42.82040748525061" lon="-1.6049399907802644"><ele>439.99999999999994</ele><time>2026-04-29T16:22:04Z</time></trkpt><trkpt lat="42.820326188859426" lon="-1.6048958692227704"><ele>440.0</ele><time>2026-04-29T16:22:05Z</time></trkpt><trkpt lat="42.82025155388486" lon="-1.6048549834098633"><ele>440.0</ele><time>2026-04-29T16:22:06.001Z</time></trkpt><trkpt lat="42.820193373044255" lon="-1.6047567279897683"><ele>440.0</ele><time>2026-04-29T16:22:07.001Z</time></trkpt><trkpt lat="42.82013486303684" lon="-1.6046854453462396"><ele>439.99999999999994</ele><time>2026-04-29T16:22:08.001Z</time></trkpt><trkpt lat="42.820085926117045" lon="-1.6045981961761966"><ele>440.0</ele><time>2026-04-29T16:22:09.001Z</time></trkpt><trkpt lat="42.820031478702504" lon="-1.6045146415944969"><ele>439.49999999999994</ele><time>2026-04-29T16:22:10.001Z</time></trkpt><trkpt lat="42.81996867629538" lon="-1.6044416734995224"><ele>439.0</ele><time>2026-04-29T16:22:11.001Z</time></trkpt><trkpt lat="42.819902121394996" lon="-1.6043786923475578"><ele>438.5</ele><time>2026-04-29T16:22:12.001Z</time></trkpt><trkpt lat="42.81983005666251" lon="-1.6043291630698362"><ele>438.0</ele><time>2026-04-29T16:22:13.001Z</time></trkpt><trkpt lat="42.81977066293261" lon="-1.604258292660753"><ele>437.49999999999994</ele><time>2026-04-29T16:22:14.001Z</time></trkpt><trkpt lat="42.819685770081136" lon="-1.604250144338342"><ele>437.0</ele><time>2026-04-29T16:22:15.001Z</time></trkpt><trkpt lat="42.8196201437047" lon="-1.604218460436208"><ele>437.0</ele><time>2026-04-29T16:22:16.001Z</time></trkpt><trkpt lat="42.819507172064476" lon="-1.6041631290339786"><ele>437.00000000000006</ele><time>2026-04-29T16:22:18.001Z</time></trkpt><trkpt lat="42.819407094154236" lon="-1.6041246120570558"><ele>437.00000000000006</ele><time>2026-04-29T16:22:20.001Z</time></trkpt><trkpt lat="42.81929404570413" lon="-1.6040851027989749"><ele>437.0</ele><time>2026-04-29T16:22:22.001Z</time></trkpt><trkpt lat="42.81922982316588" lon="-1.6040561911288553"><ele>437.0</ele><time>2026-04-29T16:22:23.001Z</time></trkpt><trkpt lat="42.81915947935291" lon="-1.604025845630117"><ele>437.3333333333333</ele><time>2026-04-29T16:22:24.001Z</time></trkpt><trkpt lat="42.81908641366348" lon="-1.6039942417320876"><ele>437.66666666666663</ele><time>2026-04-29T16:22:25.001Z</time></trkpt><trkpt lat="42.81901331547472" lon="-1.6039605545838296"><ele>438.0</ele><time>2026-04-29T16:22:26.001Z</time></trkpt><trkpt lat="42.81893943043788" lon="-1.6039252726947455"><ele>438.33333333333337</ele><time>2026-04-29T16:22:27.001Z</time></trkpt><trkpt lat="42.81886282232904" lon="-1.6038901004639516"><ele>438.6666666666667</ele><time>2026-04-29T16:22:28.001Z</time></trkpt><trkpt lat="42.818785644633174" lon="-1.6038598470118712"><ele>439.0</ele><time>2026-04-29T16:22:29.001Z</time></trkpt><trkpt lat="42.81870761290599" lon="-1.6038272376558884"><ele>439.00000000000006</ele><time>2026-04-29T16:22:30.001Z</time></trkpt><trkpt lat="42.81862988805435" lon="-1.6037951578356875"><ele>439.0</ele><time>2026-04-29T16:22:31.001Z</time></trkpt><trkpt lat="42.81855098244188" lon="-1.6037646966620205"><ele>439.0</ele><time>2026-04-29T16:22:32.001Z</time></trkpt><trkpt lat="42.818472061103975" lon="-1.603738539291121"><ele>439.0</ele><time>2026-04-29T16:22:33.001Z</time></trkpt><trkpt lat="42.81839319052197" lon="-1.6037153937911541"><ele>439.00000000000006</ele><time>2026-04-29T16:22:34.001Z</time></trkpt><trkpt lat="42.8183151966349" lon="-1.6036938681936816"><ele>439.0</ele><time>2026-04-29T16:22:35.001Z</time></trkpt><trkpt lat="42.81823797301618" lon="-1.6036664697636864"><ele>439.6666666666667</ele><time>2026-04-29T16:22:36.001Z</time></trkpt><trkpt lat="42.818161661779705" lon="-1.6036390240361549"><ele>440.33333333333337</ele><time>2026-04-29T16:22:37.001Z</time></trkpt><trkpt lat="42.818084091186044" lon="-1.6036157234664818"><ele>441.0</ele><time>2026-04-29T16:22:38.001Z</time></trkpt><trkpt lat="42.81800744693293" lon="-1.603594755718354"><ele>441.66666666666663</ele><time>2026-04-29T16:22:39.001Z</time></trkpt><trkpt lat="42.81793003275991" lon="-1.6035788128402044"><ele>442.3333333333333</ele><time>2026-04-29T16:22:40.001Z</time></trkpt><trkpt lat="42.817852916565435" lon="-1.6035602912458666"><ele>443.0</ele><time>2026-04-29T16:22:41.001Z</time></trkpt><trkpt lat="42.81777535385857" lon="-1.6035441888900337"><ele>442.99999999999994</ele><time>2026-04-29T16:22:42.001Z</time></trkpt><trkpt lat="42.817697303319164" lon="-1.6035256910464015"><ele>443.0</ele><time>2026-04-29T16:22:43.001Z</time></trkpt><trkpt lat="42.817619590293724" lon="-1.603510135431912"><ele>443.0</ele><time>2026-04-29T16:22:44.001Z</time></trkpt><trkpt lat="42.81754085416704" lon="-1.6034974125249366"><ele>443.0</ele><time>2026-04-29T16:22:45.001Z</time></trkpt><trkpt lat="42.81746033717994" lon="-1.6034837681793934"><ele>442.99999999999994</ele><time>2026-04-29T16:22:46.001Z</time></trkpt><trkpt lat="42.817378916727066" lon="-1.6034693158889441"><ele>443.0</ele><time>2026-04-29T16:22:47.001Z</time></trkpt><trkpt lat="42.817296291746494" lon="-1.6034588464906774"><ele>444.16666666666663</ele><time>2026-04-29T16:22:48.001Z</time></trkpt><trkpt lat="42.817213167058185" lon="-1.6034491408421896"><ele>445.3333333333333</ele><time>2026-04-29T16:22:49.001Z</time></trkpt><trkpt lat="42.81712850099151" lon="-1.6034432603751612"><ele>446.5</ele><time>2026-04-29T16:22:50.001Z</time></trkpt><trkpt lat="42.817042186138806" lon="-1.6034380301735525"><ele>447.66666666666663</ele><time>2026-04-29T16:22:51.001Z</time></trkpt><trkpt lat="42.816955085128214" lon="-1.6034368413126237"><ele>448.8333333333333</ele><time>2026-04-29T16:22:52.001Z</time></trkpt><trkpt lat="42.81686846371082" lon="-1.6034395783113418"><ele>450.0</ele><time>2026-04-29T16:22:53.001Z</time></trkpt><trkpt lat="42.81677917072399" lon="-1.6034274954251637"><ele>451.1666666666667</ele><time>2026-04-29T16:22:54.001Z</time></trkpt><trkpt lat="42.81669223698006" lon="-1.603423815477315"><ele>452.33333333333337</ele><time>2026-04-29T16:22:55.001Z</time></trkpt><trkpt lat="42.81660641699508" lon="-1.6034207755012464"><ele>453.5</ele><time>2026-04-29T16:22:56.001Z</time></trkpt><trkpt lat="42.81651972989821" lon="-1.603418199899507"><ele>454.6666666666667</ele><time>2026-04-29T16:22:57.001Z</time></trkpt><trkpt lat="42.81643595543158" lon="-1.6034172964252473"><ele>455.83333333333337</ele><time>2026-04-29T16:22:58.001Z</time></trkpt><trkpt lat="42.81635079125091" lon="-1.6034212400037244"><ele>457.0</ele><time>2026-04-29T16:22:59.001Z</time></trkpt><trkpt lat="42.816267211223305" lon="-1.6034259405050617"><ele>457.00000000000006</ele><time>2026-04-29T16:23:00.001Z</time></trkpt><trkpt lat="42.816181739509304" lon="-1.6034318619582173"><ele>457.0</ele><time>2026-04-29T16:23:01.001Z</time></trkpt><trkpt lat="42.816099242397854" lon="-1.6034373569075344"><ele>457.0</ele><time>2026-04-29T16:23:02.001Z</time></trkpt><trkpt lat="42.816013185247044" lon="-1.603453775162665"><ele>457.0</ele><time>2026-04-29T16:23:03.001Z</time></trkpt><trkpt lat="42.81592743779183" lon="-1.6034638484577641"><ele>457.00000000000006</ele><time>2026-04-29T16:23:04.001Z</time></trkpt><trkpt lat="42.815840159845905" lon="-1.6034840181231669"><ele>457.0</ele><time>2026-04-29T16:23:05.001Z</time></trkpt><trkpt lat="42.81575348437434" lon="-1.6035030508096393"><ele>456.50000000000006</ele><time>2026-04-29T16:23:05.999Z</time></trkpt><trkpt lat="42.81566632689197" lon="-1.6035218244649896"><ele>456.0</ele><time>2026-04-29T16:23:06.999Z</time></trkpt><trkpt lat="42.81558149393263" lon="-1.6035408496808798"><ele>455.5</ele><time>2026-04-29T16:23:07.999Z</time></trkpt><trkpt lat="42.81549178541585" lon="-1.6035648072346547"><ele>455.0</ele><time>2026-04-29T16:23:08.999Z</time></trkpt><trkpt lat="42.81540484718848" lon="-1.6035891512268647"><ele>454.50000000000006</ele><time>2026-04-29T16:23:09.999Z</time></trkpt><trkpt lat="42.81531323944745" lon="-1.6036116878392987"><ele>454.0</ele><time>2026-04-29T16:23:10.999Z</time></trkpt><trkpt lat="42.81521901565456" lon="-1.6036260470376578"><ele>453.00000000000006</ele><time>2026-04-29T16:23:11.999Z</time></trkpt><trkpt lat="42.815131069780854" lon="-1.6036522247649454"><ele>452.0</ele><time>2026-04-29T16:23:12.999Z</time></trkpt><trkpt lat="42.81504324448089" lon="-1.6036827474861055"><ele>451.0</ele><time>2026-04-29T16:23:13.999Z</time></trkpt><trkpt lat="42.8149544307731" lon="-1.6037149409253606"><ele>450.0</ele><time>2026-04-29T16:23:14.999Z</time></trkpt><trkpt lat="42.814869304006045" lon="-1.6037483334727896"><ele>449.00000000000006</ele><time>2026-04-29T16:23:15.999Z</time></trkpt><trkpt lat="42.81479001591762" lon="-1.6037809625823847"><ele>448.0</ele><time>2026-04-29T16:23:16.999Z</time></trkpt><trkpt lat="42.81470775681718" lon="-1.6037888048079425"><ele>447.57142857142856</ele><time>2026-04-29T16:23:17.999Z</time></trkpt><trkpt lat="42.81463570656519" lon="-1.6038428033570904"><ele>447.1428571428571</ele><time>2026-04-29T16:23:18.999Z</time></trkpt><trkpt lat="42.81457332573719" lon="-1.6038791055567687"><ele>446.7142857142857</ele><time>2026-04-29T16:23:19.999Z</time></trkpt><trkpt lat="42.81452446968016" lon="-1.603933307132882"><ele>446.2857142857143</ele><time>2026-04-29T16:23:20.999Z</time></trkpt><trkpt lat="42.81448553338736" lon="-1.6040051719459256"><ele>445.85714285714283</ele><time>2026-04-29T16:23:21.999Z</time></trkpt><trkpt lat="42.81445363270348" lon="-1.604082798857702"><ele>445.42857142857144</ele><time>2026-04-29T16:23:22.999Z</time></trkpt><trkpt lat="42.81442018169381" lon="-1.6041655366015575"><ele>445.0</ele><time>2026-04-29T16:23:23.999Z</time></trkpt><trkpt lat="42.81438323758822" lon="-1.6042490239341736"><ele>445.0</ele><time>2026-04-29T16:23:24.999Z</time></trkpt><trkpt lat="42.8143426744049" lon="-1.6043240166634478"><ele>445.0</ele><time>2026-04-29T16:23:25.999Z</time></trkpt><trkpt lat="42.8142949820833" lon="-1.604391359465062"><ele>445.0</ele><time>2026-04-29T16:23:26.999Z</time></trkpt><trkpt lat="42.81424817638785" lon="-1.6044560378320292"><ele>445.0</ele><time>2026-04-29T16:23:27.999Z</time></trkpt><trkpt lat="42.814203185153545" lon="-1.6045265830904365"><ele>445.0</ele><time>2026-04-29T16:23:28.999Z</time></trkpt><trkpt lat="42.81417566825885" lon="-1.6046093170212525"><ele>445.0</ele><time>2026-04-29T16:23:30Z</time></trkpt><trkpt lat="42.81415949129917" lon="-1.60469532850714"><ele>445.0</ele><time>2026-04-29T16:23:31Z</time></trkpt><trkpt lat="42.81415849449471" lon="-1.6047851393251238"><ele>444.6</ele><time>2026-04-29T16:23:32Z</time></trkpt><trkpt lat="42.81416521431976" lon="-1.604876010854526"><ele>444.2</ele><time>2026-04-29T16:23:33Z</time></trkpt><trkpt lat="42.81417511095579" lon="-1.6050417864084139"><ele>443.79999999999995</ele><time>2026-04-29T16:23:35Z</time></trkpt><trkpt lat="42.81419111118633" lon="-1.6051843202160505"><ele>443.4</ele><time>2026-04-29T16:23:37Z</time></trkpt><trkpt lat="42.814207316577324" lon="-1.605296461416696"><ele>443.0</ele><time>2026-04-29T16:23:39Z</time></trkpt><trkpt lat="42.81421446403954" lon="-1.605394093507394"><ele>442.99999999999994</ele><time>2026-04-29T16:23:41Z</time></trkpt><trkpt lat="42.81423407186579" lon="-1.6054834178519675"><ele>443.0</ele><time>2026-04-29T16:23:43Z</time></trkpt><trkpt lat="42.81423707543791" lon="-1.6055805307798012"><ele>443.0</ele><time>2026-04-29T16:23:47Z</time></trkpt><trkpt lat="42.814258728449694" lon="-1.6056652044486297"><ele>443.0</ele><time>2026-04-29T16:24:06Z</time></trkpt><trkpt lat="42.81427956486638" lon="-1.6058129000588783"><ele>442.99999999999994</ele><time>2026-04-29T16:24:08Z</time></trkpt><trkpt lat="42.81429079794827" lon="-1.6059088277189428"><ele>443.0</ele><time>2026-04-29T16:24:09Z</time></trkpt><trkpt lat="42.81430236565921" lon="-1.6060056420582711"><ele>443.0</ele><time>2026-04-29T16:24:10Z</time></trkpt><trkpt lat="42.814315102635966" lon="-1.6060914102943387"><ele>442.99999999999994</ele><time>2026-04-29T16:24:11Z</time></trkpt><trkpt lat="42.81433198439919" lon="-1.6062408364904284"><ele>442.99999999999994</ele><time>2026-04-29T16:24:13.001Z</time></trkpt><trkpt lat="42.814431998169276" lon="-1.606345754690062"><ele>443.0</ele><time>2026-04-29T16:24:15.001Z</time></trkpt><trkpt lat="42.81448166135109" lon="-1.6065002102261496"><ele>443.0</ele><time>2026-04-29T16:24:17.001Z</time></trkpt><trkpt lat="42.814477114571915" lon="-1.6065915257327439"><ele>442.8571428571429</ele><time>2026-04-29T16:24:18.001Z</time></trkpt><trkpt lat="42.81445186664523" lon="-1.6066780722337497"><ele>442.7142857142857</ele><time>2026-04-29T16:24:19.001Z</time></trkpt><trkpt lat="42.81442354402193" lon="-1.6067607437177895"><ele>442.57142857142856</ele><time>2026-04-29T16:24:20.001Z</time></trkpt><trkpt lat="42.8144385462592" lon="-1.6068520762783483"><ele>442.42857142857144</ele><time>2026-04-29T16:24:21.001Z</time></trkpt><trkpt lat="42.81444325894214" lon="-1.6069478005250242"><ele>442.2857142857143</ele><time>2026-04-29T16:24:22.001Z</time></trkpt><trkpt lat="42.814405602364594" lon="-1.6070542918711623"><ele>442.14285714285717</ele><time>2026-04-29T16:24:23.001Z</time></trkpt><trkpt lat="42.814416298108696" lon="-1.6071579986954712"><ele>442.0</ele><time>2026-04-29T16:24:24.001Z</time></trkpt><trkpt lat="42.81442743539231" lon="-1.6072617942052156"><ele>442.00000000000006</ele><time>2026-04-29T16:24:25.001Z</time></trkpt><trkpt lat="42.81443443036619" lon="-1.6073741664221284"><ele>442.0</ele><time>2026-04-29T16:24:26.001Z</time></trkpt><trkpt lat="42.8144391361794" lon="-1.6074840946096425"><ele>442.0</ele><time>2026-04-29T16:24:27.001Z</time></trkpt><trkpt lat="42.814444512549656" lon="-1.6075968896064328"><ele>442.0</ele><time>2026-04-29T16:24:28.001Z</time></trkpt><trkpt lat="42.81446417185498" lon="-1.6077147436056995"><ele>442.00000000000006</ele><time>2026-04-29T16:24:29.001Z</time></trkpt><trkpt lat="42.8144670401472" lon="-1.6078339924994458"><ele>442.0</ele><time>2026-04-29T16:24:30.001Z</time></trkpt><trkpt lat="42.81446637720756" lon="-1.6079545459172058"><ele>442.20000000000005</ele><time>2026-04-29T16:24:31.001Z</time></trkpt><trkpt lat="42.81447365932743" lon="-1.6080769794888687"><ele>442.40000000000003</ele><time>2026-04-29T16:24:32.001Z</time></trkpt><trkpt lat="42.81448590901577" lon="-1.6081973031124255"><ele>442.59999999999997</ele><time>2026-04-29T16:24:33.001Z</time></trkpt><trkpt lat="42.814495533728056" lon="-1.6083189464129395"><ele>442.79999999999995</ele><time>2026-04-29T16:24:34.001Z</time></trkpt><trkpt lat="42.81450218518308" lon="-1.6084416639949999"><ele>443.0</ele><time>2026-04-29T16:24:35.001Z</time></trkpt><trkpt lat="42.81453977055032" lon="-1.6085602055165915"><ele>443.0</ele><time>2026-04-29T16:24:36.001Z</time></trkpt><trkpt lat="42.81454650930684" lon="-1.6086845313874456"><ele>442.99999999999994</ele><time>2026-04-29T16:24:37.001Z</time></trkpt><trkpt lat="42.814515957246364" lon="-1.6088116856462864"><ele>442.99999999999994</ele><time>2026-04-29T16:24:38.001Z</time></trkpt><trkpt lat="42.81451809402746" lon="-1.6089372448973536"><ele>443.0</ele><time>2026-04-29T16:24:39.001Z</time></trkpt><trkpt lat="42.8145190339117" lon="-1.6090635888052067"><ele>443.0</ele><time>2026-04-29T16:24:40.001Z</time></trkpt><trkpt lat="42.81452279273753" lon="-1.609190838547755"><ele>443.0</ele><time>2026-04-29T16:24:41.001Z</time></trkpt><trkpt lat="42.81452446193067" lon="-1.6093187422795796"><ele>442.99999999999994</ele><time>2026-04-29T16:24:42.001Z</time></trkpt><trkpt lat="42.81452731611368" lon="-1.6094479148035417"><ele>442.99999999999994</ele><time>2026-04-29T16:24:43.001Z</time></trkpt><trkpt lat="42.81453081321786" lon="-1.6095770399777884"><ele>443.0</ele><time>2026-04-29T16:24:44.001Z</time></trkpt><trkpt lat="42.814538204007036" lon="-1.6097084310170464"><ele>443.0</ele><time>2026-04-29T16:24:45.001Z</time></trkpt><trkpt lat="42.81454707843668" lon="-1.6098381361421372"><ele>442.79999999999995</ele><time>2026-04-29T16:24:46.001Z</time></trkpt><trkpt lat="42.81455584214623" lon="-1.6099712343910262"><ele>442.59999999999997</ele><time>2026-04-29T16:24:47.001Z</time></trkpt><trkpt lat="42.814560995656485" lon="-1.6101051040265133"><ele>442.40000000000003</ele><time>2026-04-29T16:24:48.001Z</time></trkpt><trkpt lat="42.81456504573513" lon="-1.6102372520369292"><ele>442.20000000000005</ele><time>2026-04-29T16:24:49.001Z</time></trkpt><trkpt lat="42.81457159956258" lon="-1.61037264269849"><ele>442.0</ele><time>2026-04-29T16:24:50.001Z</time></trkpt><trkpt lat="42.81457893472379" lon="-1.610509072553954"><ele>441.8</ele><time>2026-04-29T16:24:51.001Z</time></trkpt><trkpt lat="42.81458482174205" lon="-1.6106426537244036"><ele>441.6</ele><time>2026-04-29T16:24:52.001Z</time></trkpt><trkpt lat="42.81459193888973" lon="-1.6107784562485603"><ele>441.40000000000003</ele><time>2026-04-29T16:24:53.001Z</time></trkpt><trkpt lat="42.814596763978955" lon="-1.6109131464702369"><ele>441.20000000000005</ele><time>2026-04-29T16:24:54.001Z</time></trkpt><trkpt lat="42.81460342932138" lon="-1.6110489524592397"><ele>441.0</ele><time>2026-04-29T16:24:55.001Z</time></trkpt><trkpt lat="42.81461302132036" lon="-1.6111858948301296"><ele>441.0</ele><time>2026-04-29T16:24:56.001Z</time></trkpt><trkpt lat="42.81462142606694" lon="-1.6113200783228026"><ele>441.0</ele><time>2026-04-29T16:24:57.001Z</time></trkpt><trkpt lat="42.814629361011775" lon="-1.6114557175872077"><ele>441.0</ele><time>2026-04-29T16:24:58.001Z</time></trkpt><trkpt lat="42.814632779478046" lon="-1.6115905786422517"><ele>441.0</ele><time>2026-04-29T16:24:59.001Z</time></trkpt><trkpt lat="42.81463838363971" lon="-1.611724889857973"><ele>441.0</ele><time>2026-04-29T16:25:00.001Z</time></trkpt><trkpt lat="42.814647461808214" lon="-1.6118624395139132"><ele>440.4</ele><time>2026-04-29T16:25:01.001Z</time></trkpt><trkpt lat="42.81465307344142" lon="-1.611997225930973"><ele>439.8</ele><time>2026-04-29T16:25:02.001Z</time></trkpt><trkpt lat="42.81465971068598" lon="-1.6121361191892367"><ele>439.19999999999993</ele><time>2026-04-29T16:25:03.001Z</time></trkpt><trkpt lat="42.81466480488226" lon="-1.612269985843683"><ele>438.59999999999997</ele><time>2026-04-29T16:25:04.001Z</time></trkpt><trkpt lat="42.814674802580875" lon="-1.6124102946317198"><ele>438.0</ele><time>2026-04-29T16:25:05.001Z</time></trkpt><trkpt lat="42.814682337096876" lon="-1.6125534931499181"><ele>438.0</ele><time>2026-04-29T16:25:06.001Z</time></trkpt><trkpt lat="42.81468861220933" lon="-1.612691471658797"><ele>437.99999999999994</ele><time>2026-04-29T16:25:07.002Z</time></trkpt><trkpt lat="42.81469536742938" lon="-1.6128320362207997"><ele>437.99999999999994</ele><time>2026-04-29T16:25:08.002Z</time></trkpt><trkpt lat="42.81470108912824" lon="-1.6129706172674758"><ele>438.0</ele><time>2026-04-29T16:25:09.002Z</time></trkpt><trkpt lat="42.814707353996425" lon="-1.6131053270470213"><ele>438.0</ele><time>2026-04-29T16:25:10.002Z</time></trkpt><trkpt lat="42.81471276888006" lon="-1.6132356775930063"><ele>437.79999999999995</ele><time>2026-04-29T16:25:11.002Z</time></trkpt><trkpt lat="42.814720584540964" lon="-1.6133584939516965"><ele>437.59999999999997</ele><time>2026-04-29T16:25:12Z</time></trkpt><trkpt lat="42.814726342830966" lon="-1.613457979952352"><ele>437.40000000000003</ele><time>2026-04-29T16:25:13Z</time></trkpt><trkpt lat="42.81473539102917" lon="-1.6136099429895414"><ele>437.20000000000005</ele><time>2026-04-29T16:25:15Z</time></trkpt><trkpt lat="42.814741071962615" lon="-1.6137101187788008"><ele>437.0</ele><time>2026-04-29T16:25:18Z</time></trkpt><trkpt lat="42.814750541266314" lon="-1.6138510016984835"><ele>436.99999999999994</ele><time>2026-04-29T16:26:07.001Z</time></trkpt><trkpt lat="42.814759059259096" lon="-1.6140140674019328"><ele>437.0</ele><time>2026-04-29T16:26:09.001Z</time></trkpt><trkpt lat="42.814764500952855" lon="-1.6141022570811812"><ele>437.0</ele><time>2026-04-29T16:26:10.001Z</time></trkpt><trkpt lat="42.814777860578666" lon="-1.6142498248249966"><ele>437.0</ele><time>2026-04-29T16:26:12.001Z</time></trkpt><trkpt lat="42.814805027492625" lon="-1.6143438876945764"><ele>436.99999999999994</ele><time>2026-04-29T16:26:14.001Z</time></trkpt><trkpt lat="42.8148443318079" lon="-1.6144405462362104"><ele>437.0</ele><time>2026-04-29T16:26:18.001Z</time></trkpt><trkpt lat="42.81487666045642" lon="-1.6145199643703445"><ele>436.8333333333333</ele><time>2026-04-29T16:26:22.001Z</time></trkpt><trkpt lat="42.81492146185476" lon="-1.6146150309491185"><ele>436.66666666666663</ele><time>2026-04-29T16:26:24.001Z</time></trkpt><trkpt lat="42.81496333720512" lon="-1.6147594765025084"><ele>436.5</ele><time>2026-04-29T16:26:26.001Z</time></trkpt><trkpt lat="42.814961366942256" lon="-1.6148514023807399"><ele>436.33333333333337</ele><time>2026-04-29T16:26:27.001Z</time></trkpt><trkpt lat="42.814944792199455" lon="-1.61494267105147"><ele>436.1666666666667</ele><time>2026-04-29T16:26:28.001Z</time></trkpt><trkpt lat="42.81491323351064" lon="-1.6150316344569697"><ele>436.0</ele><time>2026-04-29T16:26:29.001Z</time></trkpt><trkpt lat="42.81487506950582" lon="-1.6151154950787057"><ele>436.0</ele><time>2026-04-29T16:26:30.001Z</time></trkpt><trkpt lat="42.814831184131144" lon="-1.6151964827158554"><ele>436.0</ele><time>2026-04-29T16:26:31.001Z</time></trkpt><trkpt lat="42.81475266344358" lon="-1.615208823190687"><ele>436.0</ele><time>2026-04-29T16:26:32.001Z</time></trkpt><trkpt lat="42.8147030791936" lon="-1.6152632852338007"><ele>436.0</ele><time>2026-04-29T16:26:33.001Z</time></trkpt><trkpt lat="42.81475120111439" lon="-1.6154731533314612"><ele>436.0</ele><time>2026-04-29T16:26:34.001Z</time></trkpt><trkpt lat="42.814745525182765" lon="-1.6155774408587407"><ele>436.00000000000006</ele><time>2026-04-29T16:26:35.001Z</time></trkpt><trkpt lat="42.814744233742495" lon="-1.6156837759973488"><ele>436.0</ele><time>2026-04-29T16:26:36.001Z</time></trkpt><trkpt lat="42.81474815251113" lon="-1.6157921868270455"><ele>436.0</ele><time>2026-04-29T16:26:37.001Z</time></trkpt><trkpt lat="42.81473986399165" lon="-1.6159050646765016"><ele>436.0</ele><time>2026-04-29T16:26:38.001Z</time></trkpt><trkpt lat="42.814746340468766" lon="-1.616020240920658"><ele>436.00000000000006</ele><time>2026-04-29T16:26:39.001Z</time></trkpt><trkpt lat="42.81475332209309" lon="-1.6161444006345054"><ele>436.0</ele><time>2026-04-29T16:26:40.001Z</time></trkpt><trkpt lat="42.8147594711463" lon="-1.6162537540787048"><ele>436.0</ele><time>2026-04-29T16:26:41.001Z</time></trkpt><trkpt lat="42.81476724783341" lon="-1.6163920530083937"><ele>436.0</ele><time>2026-04-29T16:26:42.001Z</time></trkpt><trkpt lat="42.81477014415584" lon="-1.6165722729243552"><ele>436.0</ele><time>2026-04-29T16:26:43.001Z</time></trkpt><trkpt lat="42.814773625558374" lon="-1.6168024738925804"><ele>436.0</ele><time>2026-04-29T16:26:44.001Z</time></trkpt><trkpt lat="42.814803587153065" lon="-1.6169867477742954"><ele>435.6</ele><time>2026-04-29T16:26:47.001Z</time></trkpt><trkpt lat="42.814811327667165" lon="-1.6171092556542137"><ele>435.20000000000005</ele><time>2026-04-29T16:26:48.001Z</time></trkpt><trkpt lat="42.81482013495801" lon="-1.617236151899158"><ele>434.79999999999995</ele><time>2026-04-29T16:26:49.001Z</time></trkpt><trkpt lat="42.814827771849444" lon="-1.6173620936208404"><ele>434.4</ele><time>2026-04-29T16:26:50.001Z</time></trkpt><trkpt lat="42.81483743678446" lon="-1.617489332047986"><ele>434.0</ele><time>2026-04-29T16:26:51.002Z</time></trkpt><trkpt lat="42.814844700279565" lon="-1.617615794931288"><ele>434.0</ele><time>2026-04-29T16:26:52.002Z</time></trkpt><trkpt lat="42.81483951531344" lon="-1.6177473994591882"><ele>434.0</ele><time>2026-04-29T16:26:53.002Z</time></trkpt><trkpt lat="42.814846846463695" lon="-1.6178739426580653"><ele>434.0</ele><time>2026-04-29T16:26:54.002Z</time></trkpt><trkpt lat="42.81484898955798" lon="-1.6180055683221217"><ele>434.0</ele><time>2026-04-29T16:26:55.002Z</time></trkpt><trkpt lat="42.81485099669768" lon="-1.6181322172701824"><ele>434.0</ele><time>2026-04-29T16:26:56.002Z</time></trkpt><trkpt lat="42.814854339038355" lon="-1.618262772248656"><ele>433.79999999999995</ele><time>2026-04-29T16:26:57.002Z</time></trkpt><trkpt lat="42.814851919483516" lon="-1.6183878251785324"><ele>433.59999999999997</ele><time>2026-04-29T16:26:58.002Z</time></trkpt><trkpt lat="42.81485199712348" lon="-1.6185160021482603"><ele>433.4</ele><time>2026-04-29T16:26:59.002Z</time></trkpt><trkpt lat="42.814846699458165" lon="-1.6186464284850133"><ele>433.2</ele><time>2026-04-29T16:27:00.002Z</time></trkpt><trkpt lat="42.81483632056414" lon="-1.6187664467644087"><ele>433.0</ele><time>2026-04-29T16:27:01.002Z</time></trkpt><trkpt lat="42.814821303751984" lon="-1.6188860802080531"><ele>433.83333333333337</ele><time>2026-04-29T16:27:02.002Z</time></trkpt><trkpt lat="42.81480829727661" lon="-1.6190019552211266"><ele>434.6666666666667</ele><time>2026-04-29T16:27:03.002Z</time></trkpt><trkpt lat="42.814796285956255" lon="-1.6191097581710692"><ele>435.5</ele><time>2026-04-29T16:27:04.002Z</time></trkpt><trkpt lat="42.81478292166552" lon="-1.619216339785106"><ele>436.33333333333337</ele><time>2026-04-29T16:27:05.002Z</time></trkpt><trkpt lat="42.81477061453295" lon="-1.619316635693727"><ele>437.1666666666667</ele><time>2026-04-29T16:27:06.002Z</time></trkpt><trkpt lat="42.81475246721543" lon="-1.619414698957597"><ele>438.0</ele><time>2026-04-29T16:27:07.002Z</time></trkpt><trkpt lat="42.81473606550971" lon="-1.6195141415454926"><ele>438.59999999999997</ele><time>2026-04-29T16:27:08.002Z</time></trkpt><trkpt lat="42.814712460421866" lon="-1.6196101957821936"><ele>439.19999999999993</ele><time>2026-04-29T16:27:09.002Z</time></trkpt><trkpt lat="42.81469895545425" lon="-1.619696035737231"><ele>439.8</ele><time>2026-04-29T16:27:10.002Z</time></trkpt><trkpt lat="42.814666972293494" lon="-1.6198312525509995"><ele>440.4</ele><time>2026-04-29T16:27:12.002Z</time></trkpt><trkpt lat="42.814645581456276" lon="-1.6199826188089985"><ele>441.0</ele><time>2026-04-29T16:27:14.002Z</time></trkpt><trkpt lat="42.814652416233336" lon="-1.6201150281046481"><ele>441.0</ele><time>2026-04-29T16:27:16.002Z</time></trkpt><trkpt lat="42.81465624944245" lon="-1.620208978606708"><ele>441.0</ele><time>2026-04-29T16:27:19Z</time></trkpt><trkpt lat="42.814699252997166" lon="-1.6203389473072622"><ele>441.0</ele><time>2026-04-29T16:27:22Z</time></trkpt><trkpt lat="42.81471839612405" lon="-1.6204975857086334"><ele>441.0</ele><time>2026-04-29T16:27:24Z</time></trkpt><trkpt lat="42.814715725801776" lon="-1.6205937626943476"><ele>441.0</ele><time>2026-04-29T16:27:25Z</time></trkpt><trkpt lat="42.814682295800715" lon="-1.620680482325846"><ele>441.0</ele><time>2026-04-29T16:27:26Z</time></trkpt><trkpt lat="42.81453594985337" lon="-1.6207410167871317"><ele>441.5</ele><time>2026-04-29T16:27:28Z</time></trkpt><trkpt lat="42.81444435220706" lon="-1.6208191606104194"><ele>442.0</ele><time>2026-04-29T16:27:30Z</time></trkpt><trkpt lat="42.814405741431585" lon="-1.6209088620834733"><ele>442.5</ele><time>2026-04-29T16:27:32Z</time></trkpt><trkpt lat="42.81436378061268" lon="-1.6209919506532344"><ele>443.0</ele><time>2026-04-29T16:27:55Z</time></trkpt><trkpt lat="42.81433458505135" lon="-1.6210780134987592"><ele>443.5</ele><time>2026-04-29T16:27:57Z</time></trkpt><trkpt lat="42.81429971644781" lon="-1.6211949276863944"><ele>444.0</ele><time>2026-04-29T16:27:59Z</time></trkpt><trkpt lat="42.81426869713045" lon="-1.621354783956122"><ele>444.71428571428567</ele><time>2026-04-29T16:28:01.001Z</time></trkpt><trkpt lat="42.814242191873575" lon="-1.621438656132757"><ele>445.42857142857144</ele><time>2026-04-29T16:28:02.001Z</time></trkpt><trkpt lat="42.81421413016384" lon="-1.621528577659476"><ele>446.1428571428571</ele><time>2026-04-29T16:28:03.001Z</time></trkpt><trkpt lat="42.81418630815529" lon="-1.621619481466514"><ele>446.85714285714283</ele><time>2026-04-29T16:28:04.001Z</time></trkpt><trkpt lat="42.81414794205104" lon="-1.6217147014459339"><ele>447.57142857142856</ele><time>2026-04-29T16:28:05.001Z</time></trkpt><trkpt lat="42.81412122099179" lon="-1.621812863996352"><ele>448.2857142857143</ele><time>2026-04-29T16:28:06.001Z</time></trkpt><trkpt lat="42.814085958114084" lon="-1.6219102041000744"><ele>449.0</ele><time>2026-04-29T16:28:07.001Z</time></trkpt><trkpt lat="42.81405811694433" lon="-1.6220138922004002"><ele>450.66666666666663</ele><time>2026-04-29T16:28:08.001Z</time></trkpt><trkpt lat="42.81402411742025" lon="-1.622114686959506"><ele>452.3333333333333</ele><time>2026-04-29T16:28:09.001Z</time></trkpt><trkpt lat="42.81398986647934" lon="-1.6222194865172463"><ele>454.0</ele><time>2026-04-29T16:28:10.001Z</time></trkpt><trkpt lat="42.81396021029279" lon="-1.6223265892996885"><ele>455.66666666666663</ele><time>2026-04-29T16:28:11.001Z</time></trkpt><trkpt lat="42.8139297222698" lon="-1.6224323812519437"><ele>457.3333333333333</ele><time>2026-04-29T16:28:12.001Z</time></trkpt><trkpt lat="42.813889681470705" lon="-1.6225361812392127"><ele>459.0</ele><time>2026-04-29T16:28:13.001Z</time></trkpt><trkpt lat="42.81385904398927" lon="-1.6226474269593962"><ele>459.0</ele><time>2026-04-29T16:28:14.001Z</time></trkpt><trkpt lat="42.81382555241067" lon="-1.6227587136775636"><ele>459.0</ele><time>2026-04-29T16:28:15.001Z</time></trkpt><trkpt lat="42.813796025827834" lon="-1.6228725135288813"><ele>459.0</ele><time>2026-04-29T16:28:16.001Z</time></trkpt><trkpt lat="42.81375996399103" lon="-1.6229849246278159"><ele>459.0</ele><time>2026-04-29T16:28:17.001Z</time></trkpt><trkpt lat="42.81372283285875" lon="-1.6230932074008044"><ele>459.0</ele><time>2026-04-29T16:28:18.001Z</time></trkpt><trkpt lat="42.81368885107832" lon="-1.623207825855761"><ele>459.0</ele><time>2026-04-29T16:28:19.001Z</time></trkpt><trkpt lat="42.813656881214705" lon="-1.623320525223057"><ele>458.8333333333333</ele><time>2026-04-29T16:28:20.001Z</time></trkpt><trkpt lat="42.81360644360706" lon="-1.6234237190966663"><ele>458.66666666666663</ele><time>2026-04-29T16:28:21.001Z</time></trkpt><trkpt lat="42.81358460956527" lon="-1.6235414768311074"><ele>458.5</ele><time>2026-04-29T16:28:22.001Z</time></trkpt><trkpt lat="42.813539163457" lon="-1.6236496090437003"><ele>458.3333333333333</ele><time>2026-04-29T16:28:23.001Z</time></trkpt><trkpt lat="42.813510460046516" lon="-1.6237618779461165"><ele>458.16666666666663</ele><time>2026-04-29T16:28:24.001Z</time></trkpt><trkpt lat="42.81347656727182" lon="-1.6238758049463065"><ele>458.0</ele><time>2026-04-29T16:28:25.001Z</time></trkpt><trkpt lat="42.81344070846802" lon="-1.6239845891837852"><ele>457.99999999999994</ele><time>2026-04-29T16:28:26.001Z</time></trkpt><trkpt lat="42.81340063707151" lon="-1.6240932535886687"><ele>458.0</ele><time>2026-04-29T16:28:27.001Z</time></trkpt><trkpt lat="42.81336587576338" lon="-1.6242021624950993"><ele>458.0</ele><time>2026-04-29T16:28:28.001Z</time></trkpt><trkpt lat="42.813331699650945" lon="-1.6243086335231995"><ele>458.0</ele><time>2026-04-29T16:28:29.001Z</time></trkpt><trkpt lat="42.81330334560118" lon="-1.6244119930929657"><ele>457.99999999999994</ele><time>2026-04-29T16:28:30.001Z</time></trkpt><trkpt lat="42.813272450345714" lon="-1.6245042759904151"><ele>458.0</ele><time>2026-04-29T16:28:31.001Z</time></trkpt><trkpt lat="42.81324838318064" lon="-1.6245839050449116"><ele>458.66666666666663</ele><time>2026-04-29T16:28:32.001Z</time></trkpt><trkpt lat="42.81324151258909" lon="-1.624672068249629"><ele>459.3333333333333</ele><time>2026-04-29T16:28:34.001Z</time></trkpt><trkpt lat="42.813208674042656" lon="-1.6247710605957622"><ele>460.0</ele><time>2026-04-29T16:28:37.001Z</time></trkpt><trkpt lat="42.81319213041455" lon="-1.6248801573499467"><ele>460.66666666666663</ele><time>2026-04-29T16:28:39.001Z</time></trkpt><trkpt lat="42.81318114098771" lon="-1.6250355130836815"><ele>461.3333333333333</ele><time>2026-04-29T16:28:41.001Z</time></trkpt><trkpt lat="42.81318135620542" lon="-1.625124970404003"><ele>462.0</ele><time>2026-04-29T16:28:42.001Z</time></trkpt><trkpt lat="42.81318291236188" lon="-1.6252120822210985"><ele>462.0</ele><time>2026-04-29T16:28:43.001Z</time></trkpt><trkpt lat="42.81318757948782" lon="-1.6253086453057226"><ele>462.0</ele><time>2026-04-29T16:28:44.001Z</time></trkpt><trkpt lat="42.813195089277706" lon="-1.6254011903113774"><ele>462.0</ele><time>2026-04-29T16:28:45.001Z</time></trkpt><trkpt lat="42.81322903044623" lon="-1.6254967703348895"><ele>462.0</ele><time>2026-04-29T16:28:46.001Z</time></trkpt><trkpt lat="42.81325412988258" lon="-1.6255893055637505"><ele>462.0</ele><time>2026-04-29T16:28:47.001Z</time></trkpt><trkpt lat="42.81325046622972" lon="-1.625687898011661"><ele>462.0</ele><time>2026-04-29T16:28:48.001Z</time></trkpt><trkpt lat="42.81322075096515" lon="-1.6258432484462468"><ele>462.0</ele><time>2026-04-29T16:28:50.002Z</time></trkpt><trkpt lat="42.81318358785038" lon="-1.6259565394717488"><ele>462.00000000000006</ele><time>2026-04-29T16:28:52.002Z</time></trkpt><trkpt lat="42.81328613931916" lon="-1.6260636456645545"><ele>462.00000000000006</ele><time>2026-04-29T16:28:53.002Z</time></trkpt><trkpt lat="42.81334650376465" lon="-1.6262151517592431"><ele>462.0</ele><time>2026-04-29T16:28:55.002Z</time></trkpt><trkpt lat="42.813383369224745" lon="-1.6262993493944475"><ele>462.0</ele><time>2026-04-29T16:28:56.002Z</time></trkpt><trkpt lat="42.813422825426855" lon="-1.6263905376091297"><ele>462.0</ele><time>2026-04-29T16:28:57.002Z</time></trkpt><trkpt lat="42.813465562362964" lon="-1.6264800868517635"><ele>462.0</ele><time>2026-04-29T16:28:58.002Z</time></trkpt><trkpt lat="42.8135125651341" lon="-1.6265722870441774"><ele>462.0</ele><time>2026-04-29T16:28:59.002Z</time></trkpt><trkpt lat="42.81356425747728" lon="-1.6266600642701232"><ele>462.0</ele><time>2026-04-29T16:29:00.002Z</time></trkpt><trkpt lat="42.813615809903446" lon="-1.6267514953567945"><ele>462.0</ele><time>2026-04-29T16:29:01.002Z</time></trkpt><trkpt lat="42.81366809019851" lon="-1.6268342978039672"><ele>462.0</ele><time>2026-04-29T16:29:02.002Z</time></trkpt><trkpt lat="42.81372095649781" lon="-1.626918126528375"><ele>462.42857142857144</ele><time>2026-04-29T16:29:03.002Z</time></trkpt><trkpt lat="42.81376642384604" lon="-1.6270023313463449"><ele>462.8571428571429</ele><time>2026-04-29T16:29:04.002Z</time></trkpt><trkpt lat="42.81381105221151" lon="-1.627082024634461"><ele>463.2857142857143</ele><time>2026-04-29T16:29:05.002Z</time></trkpt><trkpt lat="42.8138554783386" lon="-1.6271608092248897"><ele>463.7142857142857</ele><time>2026-04-29T16:29:06.002Z</time></trkpt><trkpt lat="42.81390311780038" lon="-1.6272334805448079"><ele>464.14285714285717</ele><time>2026-04-29T16:29:07.002Z</time></trkpt><trkpt lat="42.81395213727388" lon="-1.627305631961314"><ele>464.57142857142856</ele><time>2026-04-29T16:29:08.002Z</time></trkpt><trkpt lat="42.8139996890043" lon="-1.627377867976452"><ele>465.0</ele><time>2026-04-29T16:29:09.002Z</time></trkpt><trkpt lat="42.81404569348834" lon="-1.627458133204932"><ele>465.0</ele><time>2026-04-29T16:29:10.002Z</time></trkpt><trkpt lat="42.81408510855885" lon="-1.6275388799154218"><ele>465.0</ele><time>2026-04-29T16:29:11.002Z</time></trkpt><trkpt lat="42.81412448551542" lon="-1.6276166704934276"><ele>465.0</ele><time>2026-04-29T16:29:12.002Z</time></trkpt><trkpt lat="42.814187849014175" lon="-1.6277429819349125"><ele>465.0</ele><time>2026-04-29T16:29:14.002Z</time></trkpt><trkpt lat="42.814232863887554" lon="-1.627851842568017"><ele>465.0</ele><time>2026-04-29T16:29:16.002Z</time></trkpt><trkpt lat="42.81426070548311" lon="-1.627948111733323"><ele>465.0</ele><time>2026-04-29T16:29:18.002Z</time></trkpt><trkpt lat="42.81429853957754" lon="-1.628058873497641"><ele>462.0</ele><time>2026-04-29T16:29:20.002Z</time></trkpt><trkpt lat="42.814329855596725" lon="-1.6281838587729363"><ele>459.0</ele><time>2026-04-29T16:29:22.002Z</time></trkpt><trkpt lat="42.814351843031574" lon="-1.6283070638238193"><ele>456.0</ele><time>2026-04-29T16:29:24.001Z</time></trkpt><trkpt lat="42.81436151445242" lon="-1.628396107919049"><ele>453.0</ele><time>2026-04-29T16:29:26.001Z</time></trkpt><trkpt lat="42.81436553526155" lon="-1.6284837260765075"><ele>450.0</ele><time>2026-04-29T16:30:10.001Z</time></trkpt><trkpt lat="42.81437846217259" lon="-1.6285864487286843"><ele>447.0</ele><time>2026-04-29T16:30:12.001Z</time></trkpt><trkpt lat="42.8143925052762" lon="-1.6287285175341146"><ele>445.6666666666667</ele><time>2026-04-29T16:30:14.001Z</time></trkpt><trkpt lat="42.814408937652" lon="-1.6288357562789224"><ele>444.33333333333337</ele><time>2026-04-29T16:30:16.001Z</time></trkpt><trkpt lat="42.814421155544245" lon="-1.628937872463102"><ele>443.0</ele><time>2026-04-29T16:30:19.001Z</time></trkpt><trkpt lat="42.81441904562481" lon="-1.629053164837165"><ele>441.6666666666667</ele><time>2026-04-29T16:30:59.002Z</time></trkpt><trkpt lat="42.81445701794041" lon="-1.6291908143736602"><ele>440.33333333333337</ele><time>2026-04-29T16:31:01.002Z</time></trkpt><trkpt lat="42.814474305763774" lon="-1.6292747773731833"><ele>439.0</ele><time>2026-04-29T16:31:02.002Z</time></trkpt><trkpt lat="42.81443253516963" lon="-1.6293846431734835"><ele>438.00000000000006</ele><time>2026-04-29T16:31:03.002Z</time></trkpt><trkpt lat="42.81441592996149" lon="-1.629485205760159"><ele>437.0</ele><time>2026-04-29T16:31:04.002Z</time></trkpt><trkpt lat="42.814395668622424" lon="-1.6295826923740908"><ele>436.0</ele><time>2026-04-29T16:31:05.002Z</time></trkpt><trkpt lat="42.81436943942842" lon="-1.6296819028604828"><ele>435.0</ele><time>2026-04-29T16:31:06.002Z</time></trkpt><trkpt lat="42.81434370677716" lon="-1.629782568427839"><ele>434.00000000000006</ele><time>2026-04-29T16:31:07.002Z</time></trkpt><trkpt lat="42.8143178807697" lon="-1.6298870035324104"><ele>433.0</ele><time>2026-04-29T16:31:08.002Z</time></trkpt><trkpt lat="42.814300650947516" lon="-1.6300064296023098"><ele>437.50000000000006</ele><time>2026-04-29T16:31:09.002Z</time></trkpt><trkpt lat="42.81428050326876" lon="-1.6301130802700938"><ele>442.0</ele><time>2026-04-29T16:31:10.002Z</time></trkpt><trkpt lat="42.81425872326982" lon="-1.6302241563306052"><ele>446.5</ele><time>2026-04-29T16:31:11.002Z</time></trkpt><trkpt lat="42.81424130259063" lon="-1.6303376937033696"><ele>451.0</ele><time>2026-04-29T16:31:12.002Z</time></trkpt><trkpt lat="42.81422078736872" lon="-1.630451468337875"><ele>455.50000000000006</ele><time>2026-04-29T16:31:13.002Z</time></trkpt><trkpt lat="42.814200087522316" lon="-1.6305639496612772"><ele>460.0</ele><time>2026-04-29T16:31:14.002Z</time></trkpt><trkpt lat="42.81418058743053" lon="-1.6306771229879253"><ele>460.00000000000006</ele><time>2026-04-29T16:31:15.002Z</time></trkpt><trkpt lat="42.8141617405645" lon="-1.630794408139599"><ele>460.0</ele><time>2026-04-29T16:31:16.002Z</time></trkpt><trkpt lat="42.81413997406798" lon="-1.6309100781508876"><ele>460.0</ele><time>2026-04-29T16:31:17.002Z</time></trkpt><trkpt lat="42.8141209827603" lon="-1.631027637048296"><ele>460.0</ele><time>2026-04-29T16:31:18.002Z</time></trkpt><trkpt lat="42.81410353884907" lon="-1.63114509537607"><ele>460.00000000000006</ele><time>2026-04-29T16:31:19.002Z</time></trkpt><trkpt lat="42.81408639456702" lon="-1.6312575887651233"><ele>460.0</ele><time>2026-04-29T16:31:20.002Z</time></trkpt><trkpt lat="42.81406924250796" lon="-1.6313716044645128"><ele>460.33333333333337</ele><time>2026-04-29T16:31:21.002Z</time></trkpt><trkpt lat="42.81404990020565" lon="-1.6314845026622113"><ele>460.6666666666667</ele><time>2026-04-29T16:31:22.002Z</time></trkpt><trkpt lat="42.81403172161015" lon="-1.6316027195130582"><ele>461.0</ele><time>2026-04-29T16:31:23.002Z</time></trkpt><trkpt lat="42.81401475718193" lon="-1.6317210510839304"><ele>461.33333333333337</ele><time>2026-04-29T16:31:24.002Z</time></trkpt><trkpt lat="42.81400141318377" lon="-1.6318447560751403"><ele>461.6666666666667</ele><time>2026-04-29T16:31:25.002Z</time></trkpt><trkpt lat="42.81398882144678" lon="-1.6319703936512986"><ele>462.0</ele><time>2026-04-29T16:31:26.002Z</time></trkpt><trkpt lat="42.8139769512945" lon="-1.6320953370293518"><ele>462.0</ele><time>2026-04-29T16:31:27.002Z</time></trkpt><trkpt lat="42.813965479009504" lon="-1.6322198647674293"><ele>462.00000000000006</ele><time>2026-04-29T16:31:28.002Z</time></trkpt><trkpt lat="42.81395417944173" lon="-1.632345597792181"><ele>462.00000000000006</ele><time>2026-04-29T16:31:29.002Z</time></trkpt><trkpt lat="42.81393926025033" lon="-1.6324709697951103"><ele>462.0</ele><time>2026-04-29T16:31:30.002Z</time></trkpt><trkpt lat="42.81392668451225" lon="-1.6325981304263062"><ele>462.0</ele><time>2026-04-29T16:31:31.002Z</time></trkpt><trkpt lat="42.81391713384306" lon="-1.6327290642449015"><ele>462.20000000000005</ele><time>2026-04-29T16:31:32.002Z</time></trkpt><trkpt lat="42.813906182768775" lon="-1.6328578760696468"><ele>462.40000000000003</ele><time>2026-04-29T16:31:33.002Z</time></trkpt><trkpt lat="42.813893076074855" lon="-1.6329892436787918"><ele>462.59999999999997</ele><time>2026-04-29T16:31:34.002Z</time></trkpt><trkpt lat="42.813877256901065" lon="-1.6331211138496309"><ele>462.79999999999995</ele><time>2026-04-29T16:31:35.002Z</time></trkpt><trkpt lat="42.81386372349648" lon="-1.6332508483509567"><ele>463.0</ele><time>2026-04-29T16:31:36.002Z</time></trkpt><trkpt lat="42.81384796194216" lon="-1.6333829623571425"><ele>463.0</ele><time>2026-04-29T16:31:37.002Z</time></trkpt><trkpt lat="42.81383444370355" lon="-1.6335104665960236"><ele>462.99999999999994</ele><time>2026-04-29T16:31:38.002Z</time></trkpt><trkpt lat="42.81382148668622" lon="-1.6336418430872264"><ele>462.99999999999994</ele><time>2026-04-29T16:31:39.002Z</time></trkpt><trkpt lat="42.81380837360091" lon="-1.6337731962455295"><ele>463.0</ele><time>2026-04-29T16:31:40.002Z</time></trkpt><trkpt lat="42.81379487693015" lon="-1.6339108360195003"><ele>463.0</ele><time>2026-04-29T16:31:41.002Z</time></trkpt><trkpt lat="42.813781312753626" lon="-1.6340462694506077"><ele>463.0</ele><time>2026-04-29T16:31:42.002Z</time></trkpt><trkpt lat="42.81376229445142" lon="-1.6341827596880718"><ele>462.99999999999994</ele><time>2026-04-29T16:31:43.001Z</time></trkpt><trkpt lat="42.81375034021472" lon="-1.634319444675844"><ele>462.99999999999994</ele><time>2026-04-29T16:31:44.001Z</time></trkpt><trkpt lat="42.813737189802076" lon="-1.6344544470801277"><ele>463.0</ele><time>2026-04-29T16:31:45.001Z</time></trkpt><trkpt lat="42.81372008554586" lon="-1.634587279940301"><ele>463.0</ele><time>2026-04-29T16:31:46.001Z</time></trkpt><trkpt lat="42.81370292286621" lon="-1.6347219628921588"><ele>462.4</ele><time>2026-04-29T16:31:47.001Z</time></trkpt><trkpt lat="42.81368972195804" lon="-1.6348581637464477"><ele>461.79999999999995</ele><time>2026-04-29T16:31:48.001Z</time></trkpt><trkpt lat="42.81367999608915" lon="-1.6349929995916617"><ele>461.2</ele><time>2026-04-29T16:31:49.001Z</time></trkpt><trkpt lat="42.813668326641334" lon="-1.6351281906168502"><ele>460.6</ele><time>2026-04-29T16:31:50.001Z</time></trkpt><trkpt lat="42.81365503500275" lon="-1.6352600011774787"><ele>460.0</ele><time>2026-04-29T16:31:51.001Z</time></trkpt><trkpt lat="42.81364633310157" lon="-1.6353919166071655"><ele>459.6</ele><time>2026-04-29T16:31:52.001Z</time></trkpt><trkpt lat="42.813629872144155" lon="-1.6355208424529364"><ele>459.2</ele><time>2026-04-29T16:31:53.001Z</time></trkpt><trkpt lat="42.81361743147801" lon="-1.6356502750973687"><ele>458.79999999999995</ele><time>2026-04-29T16:31:54.001Z</time></trkpt><trkpt lat="42.813603400408745" lon="-1.6357787622788802"><ele>458.4</ele><time>2026-04-29T16:31:55.001Z</time></trkpt><trkpt lat="42.81358919383116" lon="-1.6359138705083869"><ele>458.0</ele><time>2026-04-29T16:31:56.001Z</time></trkpt><trkpt lat="42.81357504120669" lon="-1.636047726108626"><ele>458.2</ele><time>2026-04-29T16:31:57.001Z</time></trkpt><trkpt lat="42.8135594305604" lon="-1.6361782139091796"><ele>458.4</ele><time>2026-04-29T16:31:58.001Z</time></trkpt><trkpt lat="42.81354708201002" lon="-1.6363121159329765"><ele>458.59999999999997</ele><time>2026-04-29T16:31:59.001Z</time></trkpt><trkpt lat="42.8135353955169" lon="-1.6364446977482427"><ele>458.79999999999995</ele><time>2026-04-29T16:32:00.001Z</time></trkpt><trkpt lat="42.81352182863459" lon="-1.6365743938575912"><ele>459.0</ele><time>2026-04-29T16:32:01.001Z</time></trkpt><trkpt lat="42.81350625574853" lon="-1.6367038725766427"><ele>459.0</ele><time>2026-04-29T16:32:02.001Z</time></trkpt><trkpt lat="42.81349358421848" lon="-1.6368256571527324"><ele>459.0</ele><time>2026-04-29T16:32:03.001Z</time></trkpt><trkpt lat="42.8134827344529" lon="-1.6369430325444627"><ele>459.0</ele><time>2026-04-29T16:32:04.001Z</time></trkpt><trkpt lat="42.81347101490807" lon="-1.6370566143962217"><ele>459.0</ele><time>2026-04-29T16:32:05.001Z</time></trkpt><trkpt lat="42.81346136728931" lon="-1.6371659536671428"><ele>459.0</ele><time>2026-04-29T16:32:06.001Z</time></trkpt><trkpt lat="42.81345045085594" lon="-1.637271313503924"><ele>459.0</ele><time>2026-04-29T16:32:07.001Z</time></trkpt><trkpt lat="42.81344040823475" lon="-1.637372562584941"><ele>459.3333333333333</ele><time>2026-04-29T16:32:08.001Z</time></trkpt><trkpt lat="42.813429812521115" lon="-1.637466577313138"><ele>459.66666666666663</ele><time>2026-04-29T16:32:09.001Z</time></trkpt><trkpt lat="42.81341831673145" lon="-1.6375590473596968"><ele>460.0</ele><time>2026-04-29T16:32:10.001Z</time></trkpt><trkpt lat="42.81340783796047" lon="-1.6376495437509464"><ele>460.3333333333333</ele><time>2026-04-29T16:32:11.001Z</time></trkpt><trkpt lat="42.81338410626654" lon="-1.6378123512140939"><ele>460.66666666666663</ele><time>2026-04-29T16:32:13.001Z</time></trkpt><trkpt lat="42.813367463622306" lon="-1.6379666354747742"><ele>461.0</ele><time>2026-04-29T16:32:15.001Z</time></trkpt><trkpt lat="42.81336349347046" lon="-1.6381078394972213"><ele>460.99999999999994</ele><time>2026-04-29T16:32:17.001Z</time></trkpt><trkpt lat="42.813355253521195" lon="-1.63822169021601"><ele>461.0</ele><time>2026-04-29T16:32:19.001Z</time></trkpt><trkpt lat="42.813342208954346" lon="-1.638329346537838"><ele>461.0</ele><time>2026-04-29T16:32:22.001Z</time></trkpt><trkpt lat="42.81333345208336" lon="-1.6384388830508545"><ele>461.0</ele><time>2026-04-29T16:32:26.001Z</time></trkpt><trkpt lat="42.81333460048213" lon="-1.6385387759908037"><ele>460.99999999999994</ele><time>2026-04-29T16:32:30.001Z</time></trkpt><trkpt lat="42.81333461735332" lon="-1.6386337871851302"><ele>461.0</ele><time>2026-04-29T16:32:33.001Z</time></trkpt><trkpt lat="42.81332524299669" lon="-1.6387219060316756"><ele>460.6</ele><time>2026-04-29T16:32:35.001Z</time></trkpt><trkpt lat="42.81330752696797" lon="-1.6388105848908074"><ele>460.20000000000005</ele><time>2026-04-29T16:33:20.002Z</time></trkpt><trkpt lat="42.81329736996634" lon="-1.6389167771744761"><ele>459.79999999999995</ele><time>2026-04-29T16:33:22.002Z</time></trkpt><trkpt lat="42.813301317753535" lon="-1.6390792649192325"><ele>459.4</ele><time>2026-04-29T16:33:24.002Z</time></trkpt><trkpt lat="42.81336791254101" lon="-1.639197118656401"><ele>459.0</ele><time>2026-04-29T16:33:26.002Z</time></trkpt><trkpt lat="42.81336667895761" lon="-1.6393261480055963"><ele>459.0</ele><time>2026-04-29T16:33:28.002Z</time></trkpt><trkpt lat="42.813335345408305" lon="-1.6394093807858277"><ele>459.0</ele><time>2026-04-29T16:33:30.002Z</time></trkpt><trkpt lat="42.813279426090475" lon="-1.6394977256452383"><ele>459.0</ele><time>2026-04-29T16:33:33.002Z</time></trkpt><trkpt lat="42.81322073969909" lon="-1.6395885898202143"><ele>459.0</ele><time>2026-04-29T16:33:36.002Z</time></trkpt><trkpt lat="42.81319611054903" lon="-1.6396838775271707"><ele>459.0</ele><time>2026-04-29T16:33:39.002Z</time></trkpt><trkpt lat="42.813187249144974" lon="-1.6397818875000656"><ele>459.0</ele><time>2026-04-29T16:33:43.001Z</time></trkpt><trkpt lat="42.81317780124773" lon="-1.6398850501457263"><ele>459.4</ele><time>2026-04-29T16:33:46.001Z</time></trkpt><trkpt lat="42.81316447646875" lon="-1.640030544742729"><ele>459.79999999999995</ele><time>2026-04-29T16:33:48.001Z</time></trkpt><trkpt lat="42.81315756943076" lon="-1.6401738103296186"><ele>460.20000000000005</ele><time>2026-04-29T16:33:50.001Z</time></trkpt><trkpt lat="42.813135643889275" lon="-1.6402838226219696"><ele>460.6</ele><time>2026-04-29T16:33:52.001Z</time></trkpt><trkpt lat="42.81312497177772" lon="-1.64041496416541"><ele>461.0</ele><time>2026-04-29T16:33:55.001Z</time></trkpt><trkpt lat="42.81310674103557" lon="-1.6405585680841113"><ele>461.3333333333333</ele><time>2026-04-29T16:33:57.001Z</time></trkpt><trkpt lat="42.81310088467508" lon="-1.6406471019494213"><ele>461.66666666666663</ele><time>2026-04-29T16:33:58.001Z</time></trkpt><trkpt lat="42.813088687577334" lon="-1.6407461400278662"><ele>462.0</ele><time>2026-04-29T16:33:59.001Z</time></trkpt><trkpt lat="42.81308108026747" lon="-1.6408454532359744"><ele>462.33333333333337</ele><time>2026-04-29T16:34:00.001Z</time></trkpt><trkpt lat="42.81307206168262" lon="-1.6409497274007463"><ele>462.6666666666667</ele><time>2026-04-29T16:34:01.001Z</time></trkpt><trkpt lat="42.81306313977803" lon="-1.6410578449970037"><ele>463.0</ele><time>2026-04-29T16:34:02.001Z</time></trkpt><trkpt lat="42.81304857850426" lon="-1.6411708531402742"><ele>463.33333333333337</ele><time>2026-04-29T16:34:03.001Z</time></trkpt><trkpt lat="42.81303865142497" lon="-1.6412862106993789"><ele>463.6666666666667</ele><time>2026-04-29T16:34:04.001Z</time></trkpt><trkpt lat="42.813026510572065" lon="-1.6413995253656768"><ele>464.0</ele><time>2026-04-29T16:34:05.001Z</time></trkpt><trkpt lat="42.81301143003748" lon="-1.6415125599452591"><ele>464.33333333333337</ele><time>2026-04-29T16:34:06.001Z</time></trkpt><trkpt lat="42.81300044686284" lon="-1.641622423289837"><ele>464.6666666666667</ele><time>2026-04-29T16:34:07.001Z</time></trkpt><trkpt lat="42.81299207624093" lon="-1.6417304556293069"><ele>465.0</ele><time>2026-04-29T16:34:08.001Z</time></trkpt><trkpt lat="42.81298104646049" lon="-1.6418357836624806"><ele>465.0</ele><time>2026-04-29T16:34:09.001Z</time></trkpt><trkpt lat="42.81297309076272" lon="-1.6419372845707947"><ele>465.0</ele><time>2026-04-29T16:34:10.001Z</time></trkpt><trkpt lat="42.812962369629346" lon="-1.6420340198735266"><ele>465.0</ele><time>2026-04-29T16:34:11.001Z</time></trkpt><trkpt lat="42.81295386557069" lon="-1.6421236399202581"><ele>465.0</ele><time>2026-04-29T16:34:12.001Z</time></trkpt><trkpt lat="42.81294040562196" lon="-1.6422788384850566"><ele>465.0</ele><time>2026-04-29T16:34:14.001Z</time></trkpt><trkpt lat="42.81292419161416" lon="-1.6424213564040417"><ele>465.0</ele><time>2026-04-29T16:34:16.001Z</time></trkpt><trkpt lat="42.812914239392406" lon="-1.6425419141485103"><ele>464.8333333333333</ele><time>2026-04-29T16:34:18.001Z</time></trkpt><trkpt lat="42.812950416047336" lon="-1.6426504324351054"><ele>464.66666666666663</ele><time>2026-04-29T16:34:19.001Z</time></trkpt><trkpt lat="42.813008861608495" lon="-1.6427064592794065"><ele>464.5</ele><time>2026-04-29T16:34:21.001Z</time></trkpt><trkpt lat="42.81305191606246" lon="-1.6427789718910077"><ele>464.3333333333333</ele><time>2026-04-29T16:34:24.001Z</time></trkpt><trkpt lat="42.81307246333404" lon="-1.6428881971974223"><ele>464.16666666666663</ele><time>2026-04-29T16:34:28.001Z</time></trkpt><trkpt lat="42.81307230059632" lon="-1.6430277867455207"><ele>464.0</ele><time>2026-04-29T16:34:30.001Z</time></trkpt><trkpt lat="42.81301778420474" lon="-1.6431737710620034"><ele>463.4</ele><time>2026-04-29T16:34:32.001Z</time></trkpt><trkpt lat="42.81296270580222" lon="-1.6432187268651897"><ele>462.79999999999995</ele><time>2026-04-29T16:34:33.001Z</time></trkpt><trkpt lat="42.81288591986416" lon="-1.6432637005675899"><ele>462.20000000000005</ele><time>2026-04-29T16:34:35.001Z</time></trkpt><trkpt lat="42.81281192979112" lon="-1.643288451758884"><ele>461.6</ele><time>2026-04-29T16:35:04.001Z</time></trkpt><trkpt lat="42.81281407437019" lon="-1.643521763981084"><ele>461.0</ele><time>2026-04-29T16:35:05.001Z</time></trkpt><trkpt lat="42.812801686738275" lon="-1.6436391644936625"><ele>460.8333333333333</ele><time>2026-04-29T16:35:07.001Z</time></trkpt><trkpt lat="42.81279457070286" lon="-1.6437278312545032"><ele>460.66666666666663</ele><time>2026-04-29T16:35:09.001Z</time></trkpt><trkpt lat="42.81277577526086" lon="-1.6438453600511371"><ele>460.5</ele><time>2026-04-29T16:35:14.001Z</time></trkpt><trkpt lat="42.81276739294383" lon="-1.6439347675441625"><ele>460.33333333333337</ele><time>2026-04-29T16:35:16.001Z</time></trkpt><trkpt lat="42.81275435184412" lon="-1.6440476458672986"><ele>460.1666666666667</ele><time>2026-04-29T16:35:18.001Z</time></trkpt><trkpt lat="42.81274235189931" lon="-1.6441720740151593"><ele>460.0</ele><time>2026-04-29T16:35:20.001Z</time></trkpt><trkpt lat="42.81273170490351" lon="-1.6443030253939415"><ele>460.0</ele><time>2026-04-29T16:35:22.001Z</time></trkpt><trkpt lat="42.8127130363829" lon="-1.6444314957350072"><ele>460.0</ele><time>2026-04-29T16:35:24.001Z</time></trkpt><trkpt lat="42.81269925186781" lon="-1.6445605937445922"><ele>460.0</ele><time>2026-04-29T16:35:26.001Z</time></trkpt><trkpt lat="42.81268585558263" lon="-1.6446937978013902"><ele>460.0</ele><time>2026-04-29T16:35:28.001Z</time></trkpt><trkpt lat="42.81267053807864" lon="-1.6448124903718513"><ele>460.0</ele><time>2026-04-29T16:35:30.001Z</time></trkpt><trkpt lat="42.81265953003046" lon="-1.644911951831658"><ele>460.33333333333337</ele><time>2026-04-29T16:35:32.001Z</time></trkpt><trkpt lat="42.8126472887112" lon="-1.6450317275622117"><ele>460.6666666666667</ele><time>2026-04-29T16:35:35.001Z</time></trkpt><trkpt lat="42.81263364123829" lon="-1.6451414818028514"><ele>461.0</ele><time>2026-04-29T16:35:38.001Z</time></trkpt><trkpt lat="42.81262436857236" lon="-1.6452364285334644"><ele>461.33333333333337</ele><time>2026-04-29T16:35:40.001Z</time></trkpt><trkpt lat="42.81261092407489" lon="-1.6453944786320314"><ele>461.6666666666667</ele><time>2026-04-29T16:35:42.001Z</time></trkpt><trkpt lat="42.812610381732306" lon="-1.6454871144428544"><ele>462.0</ele><time>2026-04-29T16:35:43.001Z</time></trkpt><trkpt lat="42.812617704793354" lon="-1.64558669961509"><ele>462.3333333333333</ele><time>2026-04-29T16:35:44.001Z</time></trkpt><trkpt lat="42.81263237691275" lon="-1.6456863414019618"><ele>462.66666666666663</ele><time>2026-04-29T16:35:45.001Z</time></trkpt><trkpt lat="42.81265347046162" lon="-1.6457870642025565"><ele>463.0</ele><time>2026-04-29T16:35:46.001Z</time></trkpt><trkpt lat="42.81267986193159" lon="-1.6458911927381545"><ele>463.3333333333333</ele><time>2026-04-29T16:35:47.001Z</time></trkpt><trkpt lat="42.81271013718618" lon="-1.6460059791056947"><ele>463.66666666666663</ele><time>2026-04-29T16:35:48.001Z</time></trkpt><trkpt lat="42.812739893990205" lon="-1.6461245149332948"><ele>464.0</ele><time>2026-04-29T16:35:49.001Z</time></trkpt><trkpt lat="42.81276732739967" lon="-1.6462465530708532"><ele>462.0</ele><time>2026-04-29T16:35:50.001Z</time></trkpt><trkpt lat="42.812810913895284" lon="-1.6463660555523847"><ele>460.0</ele><time>2026-04-29T16:35:51.001Z</time></trkpt><trkpt lat="42.81284719092311" lon="-1.6464850439817338"><ele>458.0</ele><time>2026-04-29T16:35:52.001Z</time></trkpt><trkpt lat="42.81288226691828" lon="-1.6466058624732192"><ele>456.0</ele><time>2026-04-29T16:35:53.001Z</time></trkpt><trkpt lat="42.81291628610192" lon="-1.646728782867557"><ele>454.0</ele><time>2026-04-29T16:35:54.001Z</time></trkpt><trkpt lat="42.812950777277415" lon="-1.6468516481677737"><ele>452.83333333333337</ele><time>2026-04-29T16:35:55.001Z</time></trkpt><trkpt lat="42.81298150316598" lon="-1.6469668692743258"><ele>451.6666666666667</ele><time>2026-04-29T16:35:56.001Z</time></trkpt><trkpt lat="42.81301445007524" lon="-1.6470806711484027"><ele>450.5</ele><time>2026-04-29T16:35:57.001Z</time></trkpt><trkpt lat="42.81304437101715" lon="-1.647195879241919"><ele>449.33333333333337</ele><time>2026-04-29T16:35:58.001Z</time></trkpt><trkpt lat="42.813074010821076" lon="-1.6473111222584897"><ele>448.1666666666667</ele><time>2026-04-29T16:35:59.001Z</time></trkpt><trkpt lat="42.813105191836264" lon="-1.6474245328490438"><ele>447.0</ele><time>2026-04-29T16:36:00.001Z</time></trkpt><trkpt lat="42.81313354532615" lon="-1.6475328174434742"><ele>447.0</ele><time>2026-04-29T16:36:01.001Z</time></trkpt><trkpt lat="42.8131619424495" lon="-1.6476391411252387"><ele>447.0</ele><time>2026-04-29T16:36:02.001Z</time></trkpt><trkpt lat="42.813190089548044" lon="-1.6477433102881647"><ele>447.0</ele><time>2026-04-29T16:36:03.001Z</time></trkpt><trkpt lat="42.8132168653152" lon="-1.6478514253899783"><ele>447.0</ele><time>2026-04-29T16:36:04.001Z</time></trkpt><trkpt lat="42.813244609363814" lon="-1.6479568626095877"><ele>447.0</ele><time>2026-04-29T16:36:05.001Z</time></trkpt><trkpt lat="42.81327219138771" lon="-1.6480610559704008"><ele>447.0</ele><time>2026-04-29T16:36:06.001Z</time></trkpt><trkpt lat="42.81329918049018" lon="-1.6481657610455491"><ele>447.3333333333333</ele><time>2026-04-29T16:36:07.001Z</time></trkpt><trkpt lat="42.81332971254445" lon="-1.6482695050154805"><ele>447.66666666666663</ele><time>2026-04-29T16:36:08.001Z</time></trkpt><trkpt lat="42.81336060972652" lon="-1.6483717566731937"><ele>448.0</ele><time>2026-04-29T16:36:09.001Z</time></trkpt><trkpt lat="42.81339200647202" lon="-1.648482630696179"><ele>448.3333333333333</ele><time>2026-04-29T16:36:10.001Z</time></trkpt><trkpt lat="42.81342187821402" lon="-1.6485904921663281"><ele>448.66666666666663</ele><time>2026-04-29T16:36:11.001Z</time></trkpt><trkpt lat="42.81345302279659" lon="-1.6486997108954986"><ele>449.0</ele><time>2026-04-29T16:36:12.001Z</time></trkpt><trkpt lat="42.81347974141555" lon="-1.6488132132279212"><ele>449.8333333333333</ele><time>2026-04-29T16:36:13.001Z</time></trkpt><trkpt lat="42.81351111696788" lon="-1.6489256434899302"><ele>450.66666666666663</ele><time>2026-04-29T16:36:14.001Z</time></trkpt><trkpt lat="42.81354108001149" lon="-1.649041101093811"><ele>451.5</ele><time>2026-04-29T16:36:15.001Z</time></trkpt><trkpt lat="42.81357077111737" lon="-1.6491544789793997"><ele>452.33333333333337</ele><time>2026-04-29T16:36:16.001Z</time></trkpt><trkpt lat="42.813600969586105" lon="-1.6492675694606311"><ele>453.1666666666667</ele><time>2026-04-29T16:36:17.001Z</time></trkpt><trkpt lat="42.81363372088565" lon="-1.6493856763216432"><ele>454.0</ele><time>2026-04-29T16:36:18.001Z</time></trkpt><trkpt lat="42.81366470901827" lon="-1.6495060654645846"><ele>454.00000000000006</ele><time>2026-04-29T16:36:19.001Z</time></trkpt><trkpt lat="42.81369557023025" lon="-1.6496219267553558"><ele>454.0</ele><time>2026-04-29T16:36:20.001Z</time></trkpt><trkpt lat="42.81372974137668" lon="-1.6497414011231708"><ele>454.0</ele><time>2026-04-29T16:36:21.001Z</time></trkpt><trkpt lat="42.81376146736972" lon="-1.6498546339495062"><ele>454.0</ele><time>2026-04-29T16:36:22.001Z</time></trkpt><trkpt lat="42.81378772218633" lon="-1.6499641175747473"><ele>454.00000000000006</ele><time>2026-04-29T16:36:23.001Z</time></trkpt><trkpt lat="42.813816937732824" lon="-1.6500640069129282"><ele>454.0</ele><time>2026-04-29T16:36:24.001Z</time></trkpt><trkpt lat="42.81385103668778" lon="-1.6501472483730897"><ele>454.0</ele><time>2026-04-29T16:36:25.001Z</time></trkpt><trkpt lat="42.813873930328995" lon="-1.6502391411938249"><ele>454.00000000000006</ele><time>2026-04-29T16:36:26.001Z</time></trkpt><trkpt lat="42.81389675281865" lon="-1.650326007202069"><ele>454.0</ele><time>2026-04-29T16:36:27.001Z</time></trkpt><trkpt lat="42.81391931029623" lon="-1.6504112987089001"><ele>454.0</ele><time>2026-04-29T16:36:28.001Z</time></trkpt><trkpt lat="42.81393861450465" lon="-1.6504942217774323"><ele>454.00000000000006</ele><time>2026-04-29T16:36:29.001Z</time></trkpt><trkpt lat="42.81397333464753" lon="-1.650629384503806"><ele>454.0</ele><time>2026-04-29T16:36:31.001Z</time></trkpt><trkpt lat="42.81399805187194" lon="-1.6507231235698523"><ele>454.0</ele><time>2026-04-29T16:36:34.001Z</time></trkpt><trkpt lat="42.81403254981171" lon="-1.6508383176721606"><ele>454.79999999999995</ele><time>2026-04-29T16:36:37.001Z</time></trkpt><trkpt lat="42.8140768283559" lon="-1.6509453964325147"><ele>455.59999999999997</ele><time>2026-04-29T16:36:39.001Z</time></trkpt><trkpt lat="42.814115548201684" lon="-1.6510952973301434"><ele>456.4</ele><time>2026-04-29T16:36:41.001Z</time></trkpt><trkpt lat="42.81415723870218" lon="-1.651251376108651"><ele>457.2</ele><time>2026-04-29T16:36:43.001Z</time></trkpt><trkpt lat="42.81417890999423" lon="-1.6513331916069154"><ele>458.0</ele><time>2026-04-29T16:36:44.001Z</time></trkpt><trkpt lat="42.81419894439405" lon="-1.651414593042306"><ele>458.3333333333333</ele><time>2026-04-29T16:36:45.001Z</time></trkpt><trkpt lat="42.81422111454371" lon="-1.6515004986402881"><ele>458.66666666666663</ele><time>2026-04-29T16:36:46.001Z</time></trkpt><trkpt lat="42.81424630604889" lon="-1.651582210782005"><ele>459.0</ele><time>2026-04-29T16:36:47.001Z</time></trkpt><trkpt lat="42.81427048753922" lon="-1.6516688636533872"><ele>459.33333333333337</ele><time>2026-04-29T16:36:48.001Z</time></trkpt><trkpt lat="42.814294993924236" lon="-1.6517570308487985"><ele>459.6666666666667</ele><time>2026-04-29T16:36:49.001Z</time></trkpt><trkpt lat="42.814317594421006" lon="-1.6518394923427782"><ele>460.0</ele><time>2026-04-29T16:36:50.001Z</time></trkpt><trkpt lat="42.81435417254559" lon="-1.6519896086350532"><ele>458.33333333333337</ele><time>2026-04-29T16:36:52.001Z</time></trkpt><trkpt lat="42.8143869536318" lon="-1.6521012860767152"><ele>456.6666666666667</ele><time>2026-04-29T16:36:54.001Z</time></trkpt><trkpt lat="42.814406752767965" lon="-1.65219292681539"><ele>455.0</ele><time>2026-04-29T16:36:56.001Z</time></trkpt><trkpt lat="42.81444196647424" lon="-1.6522896522077966"><ele>453.33333333333337</ele><time>2026-04-29T16:37:50.001Z</time></trkpt><trkpt lat="42.814470657529284" lon="-1.6524300606333266"><ele>451.6666666666667</ele><time>2026-04-29T16:37:52.001Z</time></trkpt><trkpt lat="42.81449482093071" lon="-1.6525191376057167"><ele>450.0</ele><time>2026-04-29T16:37:53.001Z</time></trkpt><trkpt lat="42.8145339681257" lon="-1.6526103033011181"><ele>450.0</ele><time>2026-04-29T16:37:54.001Z</time></trkpt><trkpt lat="42.81455906029901" lon="-1.6527182475389062"><ele>450.0</ele><time>2026-04-29T16:37:55Z</time></trkpt><trkpt lat="42.81459066174244" lon="-1.6528267837225914"><ele>450.0</ele><time>2026-04-29T16:37:56Z</time></trkpt><trkpt lat="42.81462500676337" lon="-1.65294118080808"><ele>450.0</ele><time>2026-04-29T16:37:57Z</time></trkpt><trkpt lat="42.814670904943824" lon="-1.6530547122047532"><ele>450.0</ele><time>2026-04-29T16:37:58Z</time></trkpt><trkpt lat="42.81470424084504" lon="-1.6531693707572865"><ele>450.0</ele><time>2026-04-29T16:37:59Z</time></trkpt><trkpt lat="42.814741217359696" lon="-1.6532782792066523"><ele>450.1666666666667</ele><time>2026-04-29T16:38:00Z</time></trkpt><trkpt lat="42.81477317382208" lon="-1.6533835257895755"><ele>450.33333333333337</ele><time>2026-04-29T16:38:01Z</time></trkpt><trkpt lat="42.814807479282415" lon="-1.6534818816484225"><ele>450.5</ele><time>2026-04-29T16:38:02Z</time></trkpt><trkpt lat="42.81483989741523" lon="-1.653572505955942"><ele>450.6666666666667</ele><time>2026-04-29T16:38:03Z</time></trkpt><trkpt lat="42.814869987131324" lon="-1.6536534506359768"><ele>450.83333333333337</ele><time>2026-04-29T16:38:04Z</time></trkpt><trkpt lat="42.81491535396621" lon="-1.6537806425336354"><ele>451.0</ele><time>2026-04-29T16:38:06Z</time></trkpt><trkpt lat="42.81495763150663" lon="-1.6538860679870568"><ele>450.50000000000006</ele><time>2026-04-29T16:38:08Z</time></trkpt><trkpt lat="42.81500700154057" lon="-1.6540271538918883"><ele>450.0</ele><time>2026-04-29T16:38:10Z</time></trkpt><trkpt lat="42.8150236736691" lon="-1.6541151482591876"><ele>449.5</ele><time>2026-04-29T16:38:11Z</time></trkpt><trkpt lat="42.815048919169946" lon="-1.6541966326683424"><ele>449.0</ele><time>2026-04-29T16:38:12Z</time></trkpt><trkpt lat="42.815165660752335" lon="-1.6541971480673285"><ele>448.50000000000006</ele><time>2026-04-29T16:38:13Z</time></trkpt><trkpt lat="42.81521435958636" lon="-1.6542770913749585"><ele>448.0</ele><time>2026-04-29T16:38:14Z</time></trkpt><trkpt lat="42.81526714205908" lon="-1.654325599895139"><ele>447.83333333333337</ele><time>2026-04-29T16:38:15Z</time></trkpt><trkpt lat="42.81535813591118" lon="-1.6544176006735754"><ele>447.6666666666667</ele><time>2026-04-29T16:38:17Z</time></trkpt><trkpt lat="42.8154243611961" lon="-1.6544833266772565"><ele>447.5</ele><time>2026-04-29T16:38:19Z</time></trkpt><trkpt lat="42.815473285359644" lon="-1.6545374627095972"><ele>447.33333333333337</ele><time>2026-04-29T16:38:45Z</time></trkpt><trkpt lat="42.81554502581842" lon="-1.654549610096621"><ele>447.1666666666667</ele><time>2026-04-29T16:38:47Z</time></trkpt><trkpt lat="42.815653122463644" lon="-1.6546008238302363"><ele>447.0</ele><time>2026-04-29T16:38:49Z</time></trkpt><trkpt lat="42.81572234280082" lon="-1.6545993694460817"><ele>447.3333333333333</ele><time>2026-04-29T16:38:50Z</time></trkpt><trkpt lat="42.81579375743766" lon="-1.6546191508715062"><ele>447.66666666666663</ele><time>2026-04-29T16:38:51Z</time></trkpt><trkpt lat="42.81587164619092" lon="-1.6546345963148197"><ele>448.0</ele><time>2026-04-29T16:38:52Z</time></trkpt><trkpt lat="42.815953890822634" lon="-1.6546515234464338"><ele>448.3333333333333</ele><time>2026-04-29T16:38:53Z</time></trkpt><trkpt lat="42.81603415918109" lon="-1.6546687890390672"><ele>448.66666666666663</ele><time>2026-04-29T16:38:54Z</time></trkpt><trkpt lat="42.81610911456523" lon="-1.6546879817629507"><ele>449.0</ele><time>2026-04-29T16:38:55Z</time></trkpt><trkpt lat="42.81617914475941" lon="-1.6547143170210663"><ele>449.0</ele><time>2026-04-29T16:38:56Z</time></trkpt><trkpt lat="42.81628233479049" lon="-1.6547541997219026"><ele>449.0</ele><time>2026-04-29T16:38:58Z</time></trkpt><trkpt lat="42.81637421712516" lon="-1.654806388029587"><ele>449.0</ele><time>2026-04-29T16:39:10Z</time></trkpt><trkpt lat="42.81647357889771" lon="-1.6548607118037555"><ele>449.0</ele><time>2026-04-29T16:39:12Z</time></trkpt><trkpt lat="42.81653480304615" lon="-1.654893890671181"><ele>449.0</ele><time>2026-04-29T16:39:13Z</time></trkpt><trkpt lat="42.81660009026375" lon="-1.6549301763747666"><ele>448.99999999999994</ele><time>2026-04-29T16:39:14Z</time></trkpt><trkpt lat="42.816665784967384" lon="-1.654969217279256"><ele>449.0</ele><time>2026-04-29T16:39:15Z</time></trkpt><trkpt lat="42.816734588060896" lon="-1.6550068751100138"><ele>449.0</ele><time>2026-04-29T16:39:16Z</time></trkpt><trkpt lat="42.81680806170483" lon="-1.6550496547816667"><ele>449.0</ele><time>2026-04-29T16:39:17Z</time></trkpt><trkpt lat="42.81688655371253" lon="-1.6550921278522057"><ele>448.99999999999994</ele><time>2026-04-29T16:39:18Z</time></trkpt><trkpt lat="42.81696580229991" lon="-1.6551338656569274"><ele>449.0</ele><time>2026-04-29T16:39:19Z</time></trkpt><trkpt lat="42.817047352659024" lon="-1.6551753332421126"><ele>448.79999999999995</ele><time>2026-04-29T16:39:20Z</time></trkpt><trkpt lat="42.8171317952979" lon="-1.655220154480252"><ele>448.59999999999997</ele><time>2026-04-29T16:39:21Z</time></trkpt><trkpt lat="42.817206419596694" lon="-1.6552672066713459"><ele>448.4</ele><time>2026-04-29T16:39:22Z</time></trkpt><trkpt lat="42.81729568894467" lon="-1.655315190341342"><ele>448.2</ele><time>2026-04-29T16:39:23Z</time></trkpt><trkpt lat="42.81738114252559" lon="-1.655350530388705"><ele>448.0</ele><time>2026-04-29T16:39:24Z</time></trkpt><trkpt lat="42.81746719044096" lon="-1.655403692330094"><ele>448.00000000000006</ele><time>2026-04-29T16:39:25Z</time></trkpt><trkpt lat="42.81755116994645" lon="-1.6554482343061498"><ele>448.0</ele><time>2026-04-29T16:39:26Z</time></trkpt><trkpt lat="42.81763465434538" lon="-1.6554997530876085"><ele>448.0</ele><time>2026-04-29T16:39:27Z</time></trkpt><trkpt lat="42.81772310938299" lon="-1.6555372598053573"><ele>448.0</ele><time>2026-04-29T16:39:28Z</time></trkpt><trkpt lat="42.81779951685056" lon="-1.6555818351198572"><ele>448.00000000000006</ele><time>2026-04-29T16:39:29Z</time></trkpt><trkpt lat="42.817876055310634" lon="-1.6556281591122715"><ele>448.0</ele><time>2026-04-29T16:39:30Z</time></trkpt><trkpt lat="42.817944719857074" lon="-1.6556662371567121"><ele>447.50000000000006</ele><time>2026-04-29T16:39:31.001Z</time></trkpt><trkpt lat="42.81801666575644" lon="-1.655702184062917"><ele>447.0</ele><time>2026-04-29T16:39:32.001Z</time></trkpt><trkpt lat="42.81808707395082" lon="-1.6557329607676659"><ele>446.5</ele><time>2026-04-29T16:39:33.001Z</time></trkpt><trkpt lat="42.81815800858501" lon="-1.6557729080149914"><ele>446.0</ele><time>2026-04-29T16:39:34.001Z</time></trkpt><trkpt lat="42.81823791331622" lon="-1.655788494244933"><ele>445.50000000000006</ele><time>2026-04-29T16:39:35.001Z</time></trkpt><trkpt lat="42.81831124750012" lon="-1.6558250122399378"><ele>445.0</ele><time>2026-04-29T16:39:36.001Z</time></trkpt><trkpt lat="42.81838697679556" lon="-1.6558760409625384"><ele>445.00000000000006</ele><time>2026-04-29T16:39:37.001Z</time></trkpt><trkpt lat="42.81846308626266" lon="-1.6559161235476227"><ele>445.0</ele><time>2026-04-29T16:39:38.001Z</time></trkpt><trkpt lat="42.8185435885039" lon="-1.655943933436873"><ele>445.0</ele><time>2026-04-29T16:39:39.001Z</time></trkpt><trkpt lat="42.81862419657016" lon="-1.6559718563262533"><ele>445.0</ele><time>2026-04-29T16:39:40.001Z</time></trkpt><trkpt lat="42.81870539475667" lon="-1.6559982884474707"><ele>445.00000000000006</ele><time>2026-04-29T16:39:41.001Z</time></trkpt><trkpt lat="42.818780533972394" lon="-1.6559932240328337"><ele>445.0</ele><time>2026-04-29T16:39:42.001Z</time></trkpt><trkpt lat="42.81885640570113" lon="-1.6559753118076947"><ele>445.0</ele><time>2026-04-29T16:39:43.001Z</time></trkpt><trkpt lat="42.81893725193557" lon="-1.6559288142492807"><ele>445.0</ele><time>2026-04-29T16:39:44.001Z</time></trkpt><trkpt lat="42.81902091441263" lon="-1.6558567140095763"><ele>445.0</ele><time>2026-04-29T16:39:45.001Z</time></trkpt><trkpt lat="42.81908827349821" lon="-1.6557774012760529"><ele>445.0</ele><time>2026-04-29T16:39:46.001Z</time></trkpt><trkpt lat="42.81913982980207" lon="-1.655676538802192"><ele>445.0</ele><time>2026-04-29T16:39:47.001Z</time></trkpt><trkpt lat="42.81918547442208" lon="-1.6555702707236908"><ele>445.0</ele><time>2026-04-29T16:39:48.001Z</time></trkpt><trkpt lat="42.81922043297942" lon="-1.655455810917776"><ele>445.0</ele><time>2026-04-29T16:39:49.001Z</time></trkpt><trkpt lat="42.81924174160684" lon="-1.655333487564579"><ele>445.0</ele><time>2026-04-29T16:39:50.001Z</time></trkpt><trkpt lat="42.8192587771252" lon="-1.655208164917514"><ele>445.0</ele><time>2026-04-29T16:39:51.001Z</time></trkpt><trkpt lat="42.8192706212606" lon="-1.655086527965766"><ele>445.0</ele><time>2026-04-29T16:39:52.001Z</time></trkpt><trkpt lat="42.81927944168468" lon="-1.6549621944215263"><ele>444.2</ele><time>2026-04-29T16:39:53.001Z</time></trkpt><trkpt lat="42.81928787164617" lon="-1.6548324061008224"><ele>443.4</ele><time>2026-04-29T16:39:54Z</time></trkpt><trkpt lat="42.8192962514435" lon="-1.6547005525999792"><ele>442.6</ele><time>2026-04-29T16:39:55Z</time></trkpt><trkpt lat="42.819306481728105" lon="-1.6545743560471196"><ele>441.8</ele><time>2026-04-29T16:39:56Z</time></trkpt><trkpt lat="42.81931640698492" lon="-1.6544456722504137"><ele>441.0</ele><time>2026-04-29T16:39:57Z</time></trkpt><trkpt lat="42.819333141115806" lon="-1.6543116927961614"><ele>435.6</ele><time>2026-04-29T16:39:58Z</time></trkpt><trkpt lat="42.81933234447994" lon="-1.6541770091751002"><ele>430.20000000000005</ele><time>2026-04-29T16:39:59Z</time></trkpt><trkpt lat="42.81934570760633" lon="-1.654045631608397"><ele>424.79999999999995</ele><time>2026-04-29T16:40:00Z</time></trkpt><trkpt lat="42.81935812568666" lon="-1.6539196918621317"><ele>419.4</ele><time>2026-04-29T16:40:01Z</time></trkpt><trkpt lat="42.81937167543022" lon="-1.653797071041359"><ele>414.0</ele><time>2026-04-29T16:40:02Z</time></trkpt><trkpt lat="42.819390246647835" lon="-1.6536843188541022"><ele>414.6666666666667</ele><time>2026-04-29T16:40:03Z</time></trkpt><trkpt lat="42.819410838756696" lon="-1.6535730700873792"><ele>415.33333333333337</ele><time>2026-04-29T16:40:04Z</time></trkpt><trkpt lat="42.8194292575381" lon="-1.653467734774095"><ele>416.0</ele><time>2026-04-29T16:40:05Z</time></trkpt><trkpt lat="42.81944018456551" lon="-1.653361354815075"><ele>416.6666666666667</ele><time>2026-04-29T16:40:06Z</time></trkpt><trkpt lat="42.81945034459111" lon="-1.6532576310982545"><ele>417.33333333333337</ele><time>2026-04-29T16:40:07Z</time></trkpt><trkpt lat="42.81943567652249" lon="-1.653155985062151"><ele>418.0</ele><time>2026-04-29T16:40:08Z</time></trkpt><trkpt lat="42.819466006675384" lon="-1.652985102359199"><ele>418.0</ele><time>2026-04-29T16:40:10Z</time></trkpt><trkpt lat="42.81950094054012" lon="-1.652860691610322"><ele>418.0</ele><time>2026-04-29T16:40:12Z</time></trkpt><trkpt lat="42.81965556370897" lon="-1.652854463492414"><ele>418.0</ele><time>2026-04-29T16:40:13Z</time></trkpt><trkpt lat="42.81972828534988" lon="-1.6528753011244233"><ele>418.0</ele><time>2026-04-29T16:40:14Z</time></trkpt><trkpt lat="42.81980022884258" lon="-1.6529282268534062"><ele>418.0</ele><time>2026-04-29T16:40:15Z</time></trkpt><trkpt lat="42.81984839457468" lon="-1.6530183557249039"><ele>418.00000000000006</ele><time>2026-04-29T16:40:16Z</time></trkpt><trkpt lat="42.81985328335821" lon="-1.6531313306637674"><ele>418.0</ele><time>2026-04-29T16:40:17Z</time></trkpt><trkpt lat="42.81986492114718" lon="-1.653225984141856"><ele>418.0</ele><time>2026-04-29T16:40:18Z</time></trkpt><trkpt lat="42.8198673300489" lon="-1.6533300310366583"><ele>418.0</ele><time>2026-04-29T16:40:19Z</time></trkpt><trkpt lat="42.819870743782914" lon="-1.6534379801686327"><ele>418.00000000000006</ele><time>2026-04-29T16:40:20Z</time></trkpt><trkpt lat="42.819876521134155" lon="-1.6535539507969836"><ele>418.0</ele><time>2026-04-29T16:40:21Z</time></trkpt><trkpt lat="42.81988714551402" lon="-1.6536699535292458"><ele>417.33333333333337</ele><time>2026-04-29T16:40:22Z</time></trkpt><trkpt lat="42.81989890341786" lon="-1.653788177158592"><ele>416.6666666666667</ele><time>2026-04-29T16:40:23Z</time></trkpt><trkpt lat="42.81991039754315" lon="-1.653909451854394"><ele>416.0</ele><time>2026-04-29T16:40:24Z</time></trkpt><trkpt lat="42.81992335015213" lon="-1.6540319040823235"><ele>415.33333333333337</ele><time>2026-04-29T16:40:25Z</time></trkpt><trkpt lat="42.81993558877991" lon="-1.6541544462040894"><ele>414.6666666666667</ele><time>2026-04-29T16:40:26Z</time></trkpt><trkpt lat="42.81995027084784" lon="-1.654276436542331"><ele>414.0</ele><time>2026-04-29T16:40:27Z</time></trkpt><trkpt lat="42.81996860213004" lon="-1.6543949085219882"><ele>413.6</ele><time>2026-04-29T16:40:28Z</time></trkpt><trkpt lat="42.819998122998605" lon="-1.654515218882908"><ele>413.2</ele><time>2026-04-29T16:40:29Z</time></trkpt><trkpt lat="42.8200381810488" lon="-1.6546338605188529"><ele>412.8</ele><time>2026-04-29T16:40:30Z</time></trkpt><trkpt lat="42.82009540972508" lon="-1.6547425047878945"><ele>412.40000000000003</ele><time>2026-04-29T16:40:31Z</time></trkpt><trkpt lat="42.82016233285354" lon="-1.6548432935947188"><ele>412.0</ele><time>2026-04-29T16:40:32Z</time></trkpt><trkpt lat="42.820236855110885" lon="-1.654933151879326"><ele>412.0</ele><time>2026-04-29T16:40:33Z</time></trkpt><trkpt lat="42.820318635406174" lon="-1.6550153232397509"><ele>412.0</ele><time>2026-04-29T16:40:34Z</time></trkpt><trkpt lat="42.82040241886718" lon="-1.6550932983142472"><ele>412.0</ele><time>2026-04-29T16:40:35Z</time></trkpt><trkpt lat="42.82048551696944" lon="-1.655173778933401"><ele>412.0</ele><time>2026-04-29T16:40:36Z</time></trkpt><trkpt lat="42.82057004880618" lon="-1.6552523207369223"><ele>412.0</ele><time>2026-04-29T16:40:37Z</time></trkpt><trkpt lat="42.82065304962355" lon="-1.6553330695593251"><ele>412.20000000000005</ele><time>2026-04-29T16:40:38Z</time></trkpt><trkpt lat="42.820733605983364" lon="-1.6554147951338647"><ele>412.4</ele><time>2026-04-29T16:40:39Z</time></trkpt><trkpt lat="42.82081470808047" lon="-1.655496152288753"><ele>412.6</ele><time>2026-04-29T16:40:40Z</time></trkpt><trkpt lat="42.82089438323607" lon="-1.6555765181593862"><ele>412.79999999999995</ele><time>2026-04-29T16:40:41Z</time></trkpt><trkpt lat="42.820969165848894" lon="-1.6556508767798013"><ele>413.0</ele><time>2026-04-29T16:40:42Z</time></trkpt><trkpt lat="42.82103989303278" lon="-1.6557196069501492"><ele>413.49999999999994</ele><time>2026-04-29T16:40:43Z</time></trkpt><trkpt lat="42.82110471640185" lon="-1.6557855996057187"><ele>414.0</ele><time>2026-04-29T16:40:44Z</time></trkpt><trkpt lat="42.82116749251281" lon="-1.6558431587000113"><ele>414.5</ele><time>2026-04-29T16:40:45Z</time></trkpt><trkpt lat="42.82122424295089" lon="-1.6558926829947114"><ele>415.0</ele><time>2026-04-29T16:40:46Z</time></trkpt><trkpt lat="42.82132411413755" lon="-1.655952526987151"><ele>415.49999999999994</ele><time>2026-04-29T16:40:48Z</time></trkpt><trkpt lat="42.82138917202018" lon="-1.6559963018312445"><ele>416.0</ele><time>2026-04-29T16:40:50Z</time></trkpt><trkpt lat="42.82147796473927" lon="-1.6560322468632573"><ele>415.99999999999994</ele><time>2026-04-29T16:40:53Z</time></trkpt><trkpt lat="42.821542966049414" lon="-1.6559908891105688"><ele>416.0</ele><time>2026-04-29T16:40:54Z</time></trkpt><trkpt lat="42.82165868905551" lon="-1.6559490710367692"><ele>416.0</ele><time>2026-04-29T16:40:56Z</time></trkpt><trkpt lat="42.82169298385558" lon="-1.6558128206936829"><ele>416.0</ele><time>2026-04-29T16:40:57Z</time></trkpt><trkpt lat="42.82173933664465" lon="-1.6557440818765654"><ele>415.99999999999994</ele><time>2026-04-29T16:40:58Z</time></trkpt><trkpt lat="42.82178268038446" lon="-1.65566686394519"><ele>416.0</ele><time>2026-04-29T16:40:59Z</time></trkpt><trkpt lat="42.82182652510917" lon="-1.6555808693464689"><ele>415.99999999999994</ele><time>2026-04-29T16:41:00Z</time></trkpt><trkpt lat="42.82187047705437" lon="-1.6554918610211595"><ele>416.0</ele><time>2026-04-29T16:41:01Z</time></trkpt><trkpt lat="42.821915263443756" lon="-1.655399554042241"><ele>416.0</ele><time>2026-04-29T16:41:02Z</time></trkpt><trkpt lat="42.821960844760575" lon="-1.6553080263241526"><ele>416.0</ele><time>2026-04-29T16:41:03Z</time></trkpt><trkpt lat="42.82200759592195" lon="-1.655215577615388"><ele>415.99999999999994</ele><time>2026-04-29T16:41:04Z</time></trkpt><trkpt lat="42.82205432694175" lon="-1.655121635418535"><ele>416.0</ele><time>2026-04-29T16:41:05Z</time></trkpt><trkpt lat="42.822103511144704" lon="-1.655025732069978"><ele>415.66666666666663</ele><time>2026-04-29T16:41:06Z</time></trkpt><trkpt lat="42.822153669819954" lon="-1.6549340161757833"><ele>415.3333333333333</ele><time>2026-04-29T16:41:07Z</time></trkpt><trkpt lat="42.82220519454601" lon="-1.6548423172999553"><ele>415.0</ele><time>2026-04-29T16:41:08Z</time></trkpt><trkpt lat="42.822252550361135" lon="-1.6547440689594801"><ele>414.66666666666663</ele><time>2026-04-29T16:41:09Z</time></trkpt><trkpt lat="42.822295550307594" lon="-1.6546404553172758"><ele>414.3333333333333</ele><time>2026-04-29T16:41:10Z</time></trkpt><trkpt lat="42.82233660853899" lon="-1.654542896455708"><ele>414.0</ele><time>2026-04-29T16:41:11Z</time></trkpt><trkpt lat="42.8223796199816" lon="-1.654454004890598"><ele>413.0</ele><time>2026-04-29T16:41:12Z</time></trkpt><trkpt lat="42.822419225275816" lon="-1.6543698789857433"><ele>412.0</ele><time>2026-04-29T16:41:13Z</time></trkpt><trkpt lat="42.822457536505496" lon="-1.6542937151549741"><ele>411.0</ele><time>2026-04-29T16:41:14Z</time></trkpt><trkpt lat="42.82250036096453" lon="-1.6541362986630808"><ele>410.0</ele><time>2026-04-29T16:41:16Z</time></trkpt><trkpt lat="42.82248732610137" lon="-1.6539540775051267"><ele>409.0</ele><time>2026-04-29T16:41:18Z</time></trkpt><trkpt lat="42.82248501421867" lon="-1.6538513304824853"><ele>409.00000000000006</ele><time>2026-04-29T16:41:19Z</time></trkpt><trkpt lat="42.822494110318836" lon="-1.653757335856641"><ele>409.0</ele><time>2026-04-29T16:41:20Z</time></trkpt><trkpt lat="42.82251563667637" lon="-1.65366280203771"><ele>409.0</ele><time>2026-04-29T16:41:21Z</time></trkpt><trkpt lat="42.82259532253098" lon="-1.6535695362163483"><ele>409.0</ele><time>2026-04-29T16:41:22Z</time></trkpt><trkpt lat="42.822665684418716" lon="-1.6535255586247584"><ele>409.00000000000006</ele><time>2026-04-29T16:41:23Z</time></trkpt><trkpt lat="42.82273934118427" lon="-1.653509733423103"><ele>409.0</ele><time>2026-04-29T16:41:24Z</time></trkpt><trkpt lat="42.82285625041838" lon="-1.6534900204530338"><ele>410.50000000000006</ele><time>2026-04-29T16:41:26Z</time></trkpt><trkpt lat="42.82294626121329" lon="-1.6534246285060328"><ele>412.0</ele><time>2026-04-29T16:41:28Z</time></trkpt><trkpt lat="42.82298129562891" lon="-1.6533493468760971"><ele>413.5</ele><time>2026-04-29T16:41:30Z</time></trkpt><trkpt lat="42.82302734603615" lon="-1.6532642154535409"><ele>415.0</ele><time>2026-04-29T16:41:41Z</time></trkpt><trkpt lat="42.823072360245455" lon="-1.6531816658658136"><ele>416.50000000000006</ele><time>2026-04-29T16:41:43Z</time></trkpt><trkpt lat="42.8231173617388" lon="-1.6530991926792444"><ele>418.0</ele><time>2026-04-29T16:41:46Z</time></trkpt><trkpt lat="42.82332053625358" lon="-1.6531546673380262"><ele>418.00000000000006</ele><time>2026-04-29T16:41:56Z</time></trkpt><trkpt lat="42.823387234778096" lon="-1.6532084336429045"><ele>418.0</ele><time>2026-04-29T16:41:58Z</time></trkpt><trkpt lat="42.82349784904514" lon="-1.6532617203507163"><ele>418.0</ele><time>2026-04-29T16:42:01Z</time></trkpt><trkpt lat="42.82355987040123" lon="-1.6532902312316518"><ele>418.0</ele><time>2026-04-29T16:42:02Z</time></trkpt><trkpt lat="42.823623062218225" lon="-1.6533252077179754"><ele>418.00000000000006</ele><time>2026-04-29T16:42:03Z</time></trkpt><trkpt lat="42.82369670017303" lon="-1.6533643713419013"><ele>418.0</ele><time>2026-04-29T16:42:04Z</time></trkpt><trkpt lat="42.82376204610427" lon="-1.6534086559935004"><ele>418.33333333333337</ele><time>2026-04-29T16:42:05Z</time></trkpt><trkpt lat="42.82384091515273" lon="-1.653452264820402"><ele>418.6666666666667</ele><time>2026-04-29T16:42:06Z</time></trkpt><trkpt lat="42.82391539265429" lon="-1.6535147147742562"><ele>419.0</ele><time>2026-04-29T16:42:07Z</time></trkpt><trkpt lat="42.823984444915254" lon="-1.6535591928038946"><ele>419.33333333333337</ele><time>2026-04-29T16:42:08Z</time></trkpt><trkpt lat="42.82406167385397" lon="-1.6536075136357176"><ele>419.6666666666667</ele><time>2026-04-29T16:42:09Z</time></trkpt><trkpt lat="42.82413686057873" lon="-1.6536460569030644"><ele>420.0</ele><time>2026-04-29T16:42:10Z</time></trkpt><trkpt lat="42.82421086745233" lon="-1.6536880918151544"><ele>419.8333333333333</ele><time>2026-04-29T16:42:11Z</time></trkpt><trkpt lat="42.824269202860265" lon="-1.6537569658287425"><ele>419.66666666666663</ele><time>2026-04-29T16:42:12Z</time></trkpt><trkpt lat="42.824344326543894" lon="-1.6537994823982387"><ele>419.5</ele><time>2026-04-29T16:42:13Z</time></trkpt><trkpt lat="42.82442589494533" lon="-1.6538403032242786"><ele>419.3333333333333</ele><time>2026-04-29T16:42:14Z</time></trkpt><trkpt lat="42.824508294967885" lon="-1.6538858794658502"><ele>419.16666666666663</ele><time>2026-04-29T16:42:15Z</time></trkpt><trkpt lat="42.82457882532956" lon="-1.6539318136148227"><ele>419.0</ele><time>2026-04-29T16:42:16Z</time></trkpt><trkpt lat="42.824650269159136" lon="-1.6539802823463932"><ele>418.99999999999994</ele><time>2026-04-29T16:42:17Z</time></trkpt><trkpt lat="42.82472126862077" lon="-1.6540218696578444"><ele>419.0</ele><time>2026-04-29T16:42:18Z</time></trkpt><trkpt lat="42.82478722925523" lon="-1.6540615118903217"><ele>419.0</ele><time>2026-04-29T16:42:19Z</time></trkpt><trkpt lat="42.824853959769385" lon="-1.6540978557939567"><ele>419.0</ele><time>2026-04-29T16:42:20Z</time></trkpt><trkpt lat="42.82491951536804" lon="-1.6541429667966983"><ele>419.0</ele><time>2026-04-29T16:42:21Z</time></trkpt><trkpt lat="42.82498258133212" lon="-1.6541867608827445"><ele>418.99999999999994</ele><time>2026-04-29T16:42:22Z</time></trkpt><trkpt lat="42.8250476918994" lon="-1.6542249539173612"><ele>419.0</ele><time>2026-04-29T16:42:23Z</time></trkpt><trkpt lat="42.82511498396523" lon="-1.654272834799957"><ele>419.16666666666663</ele><time>2026-04-29T16:42:24Z</time></trkpt><trkpt lat="42.82517837780032" lon="-1.654318756802633"><ele>419.3333333333333</ele><time>2026-04-29T16:42:25Z</time></trkpt><trkpt lat="42.82524569661027" lon="-1.6543614946969962"><ele>419.5</ele><time>2026-04-29T16:42:26Z</time></trkpt><trkpt lat="42.82532890093917" lon="-1.6543862742745317"><ele>419.66666666666663</ele><time>2026-04-29T16:42:27Z</time></trkpt><trkpt lat="42.825401664498116" lon="-1.6544278504041274"><ele>419.8333333333333</ele><time>2026-04-29T16:42:28Z</time></trkpt><trkpt lat="42.8254754935864" lon="-1.654470038425819"><ele>420.0</ele><time>2026-04-29T16:42:29Z</time></trkpt><trkpt lat="42.82554755177612" lon="-1.6545112145860537"><ele>420.0</ele><time>2026-04-29T16:42:30Z</time></trkpt><trkpt lat="42.82561271382722" lon="-1.6545484500840246"><ele>420.0</ele><time>2026-04-29T16:42:31Z</time></trkpt><trkpt lat="42.82571733554992" lon="-1.6546082338492933"><ele>420.0</ele><time>2026-04-29T16:42:33Z</time></trkpt><trkpt lat="42.82578071705876" lon="-1.654644451912724"><ele>420.0</ele><time>2026-04-29T16:42:35Z</time></trkpt><trkpt lat="42.82585626608182" lon="-1.65505087091328"><ele>420.0</ele><time>2026-04-29T16:43:55Z</time></trkpt><trkpt lat="42.82584073353452" lon="-1.6551486786817973"><ele>420.0</ele><time>2026-04-29T16:43:57Z</time></trkpt><trkpt lat="42.82582166237884" lon="-1.6552395210057662"><ele>420.0</ele><time>2026-04-29T16:44:01Z</time></trkpt><trkpt lat="42.82584179902295" lon="-1.6551295578718932"><ele>420.0</ele><time>2026-04-29T16:45:29Z</time></trkpt></trkseg></trk></gpx>